<?xml version="1.0" encoding="UTF-8" standalone="no" ?>
<gpx xmlns="http://www.topografix.com/GPX/1/1" xmlns:xsi="http://www.w3.org/2001/XMLSchema-instance" xsi:schemaLocation="http://www.topografix.com/GPX/1/1 http://www.topografix.com/GPX/1/1/gpx.xsd" version="1.1" creator="VisuGPX - https://www.visugpx.com">
  <metadata>
    <name>Gorges de Daluis</name>
  </metadata>
  <trk>
    <name><![CDATA[Gorges de Daluis_1]]></name>
    <trkseg>
      <trkpt lat="44.07635" lon="6.85779">
        <ele>776</ele>
        <time>2020-06-05T06:28:20.000Z</time>
      </trkpt>
      <trkpt lat="44.07635" lon="6.85779">
        <ele>776</ele>
        <time>2020-06-05T06:28:21.000Z</time>
      </trkpt>
      <trkpt lat="44.07635" lon="6.8578">
        <ele>776</ele>
        <time>2020-06-05T06:28:22.000Z</time>
      </trkpt>
      <trkpt lat="44.07635" lon="6.8578">
        <ele>776</ele>
        <time>2020-06-05T06:28:23.000Z</time>
      </trkpt>
      <trkpt lat="44.07635" lon="6.8578">
        <ele>776</ele>
        <time>2020-06-05T06:28:24.000Z</time>
      </trkpt>
      <trkpt lat="44.07634" lon="6.8578">
        <ele>777</ele>
        <time>2020-06-05T06:28:25.000Z</time>
      </trkpt>
      <trkpt lat="44.07634" lon="6.8578">
        <ele>777</ele>
        <time>2020-06-05T06:28:26.000Z</time>
      </trkpt>
      <trkpt lat="44.07633" lon="6.8578">
        <ele>777</ele>
        <time>2020-06-05T06:28:27.000Z</time>
      </trkpt>
      <trkpt lat="44.07633" lon="6.85779">
        <ele>777</ele>
        <time>2020-06-05T06:28:28.000Z</time>
      </trkpt>
      <trkpt lat="44.07632" lon="6.85779">
        <ele>777</ele>
        <time>2020-06-05T06:28:29.000Z</time>
      </trkpt>
      <trkpt lat="44.07631" lon="6.85779">
        <ele>777</ele>
        <time>2020-06-05T06:28:30.000Z</time>
      </trkpt>
      <trkpt lat="44.0763" lon="6.85778">
        <ele>778</ele>
        <time>2020-06-05T06:28:31.000Z</time>
      </trkpt>
      <trkpt lat="44.0763" lon="6.85777">
        <ele>778</ele>
        <time>2020-06-05T06:28:32.000Z</time>
      </trkpt>
      <trkpt lat="44.0763" lon="6.85775">
        <ele>778</ele>
        <time>2020-06-05T06:28:33.000Z</time>
      </trkpt>
      <trkpt lat="44.0763" lon="6.85775">
        <ele>778</ele>
        <time>2020-06-05T06:28:34.000Z</time>
      </trkpt>
      <trkpt lat="44.0763" lon="6.85775">
        <ele>778</ele>
        <time>2020-06-05T06:28:35.000Z</time>
      </trkpt>
      <trkpt lat="44.0763" lon="6.85775">
        <ele>778</ele>
        <time>2020-06-05T06:28:36.000Z</time>
      </trkpt>
      <trkpt lat="44.0763" lon="6.85775">
        <ele>778</ele>
        <time>2020-06-05T06:28:37.000Z</time>
      </trkpt>
      <trkpt lat="44.0763" lon="6.85775">
        <ele>778</ele>
        <time>2020-06-05T06:28:38.000Z</time>
      </trkpt>
      <trkpt lat="44.07629" lon="6.85775">
        <ele>779</ele>
        <time>2020-06-05T06:28:39.000Z</time>
      </trkpt>
      <trkpt lat="44.07629" lon="6.85775">
        <ele>779</ele>
        <time>2020-06-05T06:28:40.000Z</time>
      </trkpt>
      <trkpt lat="44.07629" lon="6.85775">
        <ele>779</ele>
        <time>2020-06-05T06:28:41.000Z</time>
      </trkpt>
      <trkpt lat="44.07629" lon="6.85775">
        <ele>779</ele>
        <time>2020-06-05T06:28:42.000Z</time>
      </trkpt>
      <trkpt lat="44.07629" lon="6.85775">
        <ele>779</ele>
        <time>2020-06-05T06:28:43.000Z</time>
      </trkpt>
      <trkpt lat="44.07629" lon="6.85775">
        <ele>779</ele>
        <time>2020-06-05T06:28:44.000Z</time>
      </trkpt>
      <trkpt lat="44.07629" lon="6.85775">
        <ele>779</ele>
        <time>2020-06-05T06:28:45.000Z</time>
      </trkpt>
      <trkpt lat="44.0763" lon="6.85775">
        <ele>779</ele>
        <time>2020-06-05T06:28:46.000Z</time>
      </trkpt>
      <trkpt lat="44.0763" lon="6.85775">
        <ele>779</ele>
        <time>2020-06-05T06:28:47.000Z</time>
      </trkpt>
      <trkpt lat="44.0763" lon="6.85775">
        <ele>779</ele>
        <time>2020-06-05T06:28:48.000Z</time>
      </trkpt>
      <trkpt lat="44.0763" lon="6.85775">
        <ele>779</ele>
        <time>2020-06-05T06:28:49.000Z</time>
      </trkpt>
      <trkpt lat="44.07629" lon="6.85775">
        <ele>779</ele>
        <time>2020-06-05T06:28:50.000Z</time>
      </trkpt>
      <trkpt lat="44.07629" lon="6.85775">
        <ele>779</ele>
        <time>2020-06-05T06:28:51.000Z</time>
      </trkpt>
      <trkpt lat="44.07629" lon="6.85775">
        <ele>779</ele>
        <time>2020-06-05T06:28:52.000Z</time>
      </trkpt>
      <trkpt lat="44.07629" lon="6.85775">
        <ele>779</ele>
        <time>2020-06-05T06:28:53.000Z</time>
      </trkpt>
      <trkpt lat="44.07629" lon="6.85775">
        <ele>780</ele>
        <time>2020-06-05T06:28:54.000Z</time>
      </trkpt>
      <trkpt lat="44.07629" lon="6.85775">
        <ele>780</ele>
        <time>2020-06-05T06:28:55.000Z</time>
      </trkpt>
      <trkpt lat="44.0763" lon="6.85775">
        <ele>780</ele>
        <time>2020-06-05T06:28:56.000Z</time>
      </trkpt>
      <trkpt lat="44.0763" lon="6.85776">
        <ele>780</ele>
        <time>2020-06-05T06:28:57.000Z</time>
      </trkpt>
      <trkpt lat="44.0763" lon="6.85776">
        <ele>780</ele>
        <time>2020-06-05T06:28:58.000Z</time>
      </trkpt>
      <trkpt lat="44.0763" lon="6.85776">
        <ele>780</ele>
        <time>2020-06-05T06:28:59.000Z</time>
      </trkpt>
      <trkpt lat="44.0763" lon="6.85776">
        <ele>780</ele>
        <time>2020-06-05T06:29:00.000Z</time>
      </trkpt>
      <trkpt lat="44.0763" lon="6.85776">
        <ele>780</ele>
        <time>2020-06-05T06:29:01.000Z</time>
      </trkpt>
      <trkpt lat="44.07629" lon="6.85776">
        <ele>780</ele>
        <time>2020-06-05T06:29:02.000Z</time>
      </trkpt>
      <trkpt lat="44.07629" lon="6.85776">
        <ele>780</ele>
        <time>2020-06-05T06:29:03.000Z</time>
      </trkpt>
      <trkpt lat="44.07629" lon="6.85776">
        <ele>780</ele>
        <time>2020-06-05T06:29:04.000Z</time>
      </trkpt>
      <trkpt lat="44.07629" lon="6.85776">
        <ele>779</ele>
        <time>2020-06-05T06:29:05.000Z</time>
      </trkpt>
      <trkpt lat="44.07629" lon="6.85776">
        <ele>779</ele>
        <time>2020-06-05T06:29:06.000Z</time>
      </trkpt>
      <trkpt lat="44.07629" lon="6.85776">
        <ele>779</ele>
        <time>2020-06-05T06:29:07.000Z</time>
      </trkpt>
      <trkpt lat="44.07629" lon="6.85776">
        <ele>779</ele>
        <time>2020-06-05T06:29:08.000Z</time>
      </trkpt>
      <trkpt lat="44.07629" lon="6.85776">
        <ele>779</ele>
        <time>2020-06-05T06:29:09.000Z</time>
      </trkpt>
      <trkpt lat="44.07629" lon="6.85775">
        <ele>779</ele>
        <time>2020-06-05T06:29:10.000Z</time>
      </trkpt>
      <trkpt lat="44.07629" lon="6.85776">
        <ele>778</ele>
        <time>2020-06-05T06:29:11.000Z</time>
      </trkpt>
      <trkpt lat="44.07629" lon="6.85775">
        <ele>778</ele>
        <time>2020-06-05T06:29:12.000Z</time>
      </trkpt>
      <trkpt lat="44.07629" lon="6.85775">
        <ele>778</ele>
        <time>2020-06-05T06:29:13.000Z</time>
      </trkpt>
      <trkpt lat="44.07629" lon="6.85776">
        <ele>778</ele>
        <time>2020-06-05T06:29:14.000Z</time>
      </trkpt>
      <trkpt lat="44.07629" lon="6.85775">
        <ele>778</ele>
        <time>2020-06-05T06:29:15.000Z</time>
      </trkpt>
      <trkpt lat="44.07629" lon="6.85775">
        <ele>778</ele>
        <time>2020-06-05T06:29:16.000Z</time>
      </trkpt>
      <trkpt lat="44.07629" lon="6.85775">
        <ele>778</ele>
        <time>2020-06-05T06:29:17.000Z</time>
      </trkpt>
      <trkpt lat="44.07628" lon="6.85775">
        <ele>777</ele>
        <time>2020-06-05T06:29:18.000Z</time>
      </trkpt>
      <trkpt lat="44.07628" lon="6.85775">
        <ele>777</ele>
        <time>2020-06-05T06:29:19.000Z</time>
      </trkpt>
      <trkpt lat="44.07628" lon="6.85775">
        <ele>777</ele>
        <time>2020-06-05T06:29:20.000Z</time>
      </trkpt>
      <trkpt lat="44.07628" lon="6.85775">
        <ele>777</ele>
        <time>2020-06-05T06:29:21.000Z</time>
      </trkpt>
      <trkpt lat="44.07628" lon="6.85775">
        <ele>777</ele>
        <time>2020-06-05T06:29:22.000Z</time>
      </trkpt>
      <trkpt lat="44.07628" lon="6.85775">
        <ele>777</ele>
        <time>2020-06-05T06:29:23.000Z</time>
      </trkpt>
      <trkpt lat="44.07628" lon="6.85775">
        <ele>777</ele>
        <time>2020-06-05T06:29:24.000Z</time>
      </trkpt>
      <trkpt lat="44.07628" lon="6.85775">
        <ele>777</ele>
        <time>2020-06-05T06:29:25.000Z</time>
      </trkpt>
      <trkpt lat="44.07628" lon="6.85775">
        <ele>776</ele>
        <time>2020-06-05T06:29:26.000Z</time>
      </trkpt>
      <trkpt lat="44.07628" lon="6.85776">
        <ele>776</ele>
        <time>2020-06-05T06:29:27.000Z</time>
      </trkpt>
      <trkpt lat="44.07628" lon="6.85776">
        <ele>776</ele>
        <time>2020-06-05T06:29:28.000Z</time>
      </trkpt>
      <trkpt lat="44.07629" lon="6.85777">
        <ele>776</ele>
        <time>2020-06-05T06:29:29.000Z</time>
      </trkpt>
      <trkpt lat="44.07629" lon="6.85778">
        <ele>776</ele>
        <time>2020-06-05T06:29:30.000Z</time>
      </trkpt>
      <trkpt lat="44.0763" lon="6.8578">
        <ele>776</ele>
        <time>2020-06-05T06:29:31.000Z</time>
      </trkpt>
      <trkpt lat="44.0763" lon="6.8578">
        <ele>776</ele>
        <time>2020-06-05T06:29:32.000Z</time>
      </trkpt>
      <trkpt lat="44.0763" lon="6.8578">
        <ele>776</ele>
        <time>2020-06-05T06:29:33.000Z</time>
      </trkpt>
      <trkpt lat="44.0763" lon="6.8578">
        <ele>775</ele>
        <time>2020-06-05T06:29:34.000Z</time>
      </trkpt>
      <trkpt lat="44.0763" lon="6.8578">
        <ele>775</ele>
        <time>2020-06-05T06:29:35.000Z</time>
      </trkpt>
      <trkpt lat="44.0763" lon="6.8578">
        <ele>775</ele>
        <time>2020-06-05T06:29:36.000Z</time>
      </trkpt>
      <trkpt lat="44.0763" lon="6.8578">
        <ele>775</ele>
        <time>2020-06-05T06:29:37.000Z</time>
      </trkpt>
      <trkpt lat="44.0763" lon="6.8578">
        <ele>775</ele>
        <time>2020-06-05T06:29:38.000Z</time>
      </trkpt>
      <trkpt lat="44.0763" lon="6.8578">
        <ele>775</ele>
        <time>2020-06-05T06:29:39.000Z</time>
      </trkpt>
      <trkpt lat="44.0763" lon="6.8578">
        <ele>775</ele>
        <time>2020-06-05T06:29:40.000Z</time>
      </trkpt>
      <trkpt lat="44.0763" lon="6.8578">
        <ele>775</ele>
        <time>2020-06-05T06:29:41.000Z</time>
      </trkpt>
      <trkpt lat="44.0763" lon="6.8578">
        <ele>775</ele>
        <time>2020-06-05T06:29:42.000Z</time>
      </trkpt>
      <trkpt lat="44.0763" lon="6.8578">
        <ele>774</ele>
        <time>2020-06-05T06:29:43.000Z</time>
      </trkpt>
      <trkpt lat="44.0763" lon="6.8578">
        <ele>774</ele>
        <time>2020-06-05T06:29:44.000Z</time>
      </trkpt>
      <trkpt lat="44.0763" lon="6.8578">
        <ele>774</ele>
        <time>2020-06-05T06:29:45.000Z</time>
      </trkpt>
      <trkpt lat="44.0763" lon="6.8578">
        <ele>774</ele>
        <time>2020-06-05T06:29:46.000Z</time>
      </trkpt>
      <trkpt lat="44.0763" lon="6.8578">
        <ele>774</ele>
        <time>2020-06-05T06:29:47.000Z</time>
      </trkpt>
      <trkpt lat="44.0763" lon="6.8578">
        <ele>774</ele>
        <time>2020-06-05T06:29:48.000Z</time>
      </trkpt>
      <trkpt lat="44.0763" lon="6.85779">
        <ele>774</ele>
        <time>2020-06-05T06:29:49.000Z</time>
      </trkpt>
      <trkpt lat="44.07631" lon="6.85779">
        <ele>774</ele>
        <time>2020-06-05T06:29:50.000Z</time>
      </trkpt>
      <trkpt lat="44.07631" lon="6.85779">
        <ele>774</ele>
        <time>2020-06-05T06:29:51.000Z</time>
      </trkpt>
      <trkpt lat="44.07631" lon="6.85778">
        <ele>774</ele>
        <time>2020-06-05T06:29:52.000Z</time>
      </trkpt>
      <trkpt lat="44.07631" lon="6.85779">
        <ele>773</ele>
        <time>2020-06-05T06:29:53.000Z</time>
      </trkpt>
      <trkpt lat="44.07631" lon="6.85779">
        <ele>773</ele>
        <time>2020-06-05T06:29:54.000Z</time>
      </trkpt>
      <trkpt lat="44.07631" lon="6.85779">
        <ele>773</ele>
        <time>2020-06-05T06:29:55.000Z</time>
      </trkpt>
      <trkpt lat="44.07631" lon="6.85779">
        <ele>773</ele>
        <time>2020-06-05T06:29:56.000Z</time>
      </trkpt>
      <trkpt lat="44.07631" lon="6.85779">
        <ele>773</ele>
        <time>2020-06-05T06:29:57.000Z</time>
      </trkpt>
      <trkpt lat="44.07631" lon="6.85779">
        <ele>773</ele>
        <time>2020-06-05T06:29:58.000Z</time>
      </trkpt>
      <trkpt lat="44.07631" lon="6.85779">
        <ele>773</ele>
        <time>2020-06-05T06:29:59.000Z</time>
      </trkpt>
      <trkpt lat="44.07631" lon="6.85779">
        <ele>773</ele>
        <time>2020-06-05T06:30:00.000Z</time>
      </trkpt>
      <trkpt lat="44.07631" lon="6.85778">
        <ele>773</ele>
        <time>2020-06-05T06:30:01.000Z</time>
      </trkpt>
      <trkpt lat="44.07631" lon="6.85778">
        <ele>773</ele>
        <time>2020-06-05T06:30:02.000Z</time>
      </trkpt>
      <trkpt lat="44.07631" lon="6.85778">
        <ele>773</ele>
        <time>2020-06-05T06:30:03.000Z</time>
      </trkpt>
      <trkpt lat="44.07632" lon="6.85777">
        <ele>773</ele>
        <time>2020-06-05T06:30:04.000Z</time>
      </trkpt>
      <trkpt lat="44.07632" lon="6.85776">
        <ele>773</ele>
        <time>2020-06-05T06:30:05.000Z</time>
      </trkpt>
      <trkpt lat="44.07633" lon="6.85777">
        <ele>773</ele>
        <time>2020-06-05T06:30:06.000Z</time>
      </trkpt>
      <trkpt lat="44.07634" lon="6.85778">
        <ele>773</ele>
        <time>2020-06-05T06:30:07.000Z</time>
      </trkpt>
      <trkpt lat="44.07634" lon="6.85778">
        <ele>773</ele>
        <time>2020-06-05T06:30:08.000Z</time>
      </trkpt>
      <trkpt lat="44.07634" lon="6.85778">
        <ele>772</ele>
        <time>2020-06-05T06:30:09.000Z</time>
      </trkpt>
      <trkpt lat="44.07634" lon="6.85778">
        <ele>772</ele>
        <time>2020-06-05T06:30:10.000Z</time>
      </trkpt>
      <trkpt lat="44.07634" lon="6.85778">
        <ele>772</ele>
        <time>2020-06-05T06:30:11.000Z</time>
      </trkpt>
      <trkpt lat="44.07634" lon="6.85778">
        <ele>772</ele>
        <time>2020-06-05T06:30:12.000Z</time>
      </trkpt>
      <trkpt lat="44.07634" lon="6.85778">
        <ele>772</ele>
        <time>2020-06-05T06:30:13.000Z</time>
      </trkpt>
      <trkpt lat="44.07634" lon="6.85778">
        <ele>772</ele>
        <time>2020-06-05T06:30:14.000Z</time>
      </trkpt>
      <trkpt lat="44.07634" lon="6.85778">
        <ele>772</ele>
        <time>2020-06-05T06:30:15.000Z</time>
      </trkpt>
      <trkpt lat="44.07634" lon="6.85778">
        <ele>772</ele>
        <time>2020-06-05T06:30:16.000Z</time>
      </trkpt>
      <trkpt lat="44.07634" lon="6.85778">
        <ele>772</ele>
        <time>2020-06-05T06:30:17.000Z</time>
      </trkpt>
      <trkpt lat="44.07634" lon="6.85778">
        <ele>772</ele>
        <time>2020-06-05T06:30:18.000Z</time>
      </trkpt>
      <trkpt lat="44.07634" lon="6.85778">
        <ele>772</ele>
        <time>2020-06-05T06:30:19.000Z</time>
      </trkpt>
      <trkpt lat="44.07634" lon="6.85778">
        <ele>772</ele>
        <time>2020-06-05T06:30:20.000Z</time>
      </trkpt>
      <trkpt lat="44.07634" lon="6.85778">
        <ele>772</ele>
        <time>2020-06-05T06:30:21.000Z</time>
      </trkpt>
      <trkpt lat="44.07634" lon="6.85778">
        <ele>772</ele>
        <time>2020-06-05T06:30:22.000Z</time>
      </trkpt>
      <trkpt lat="44.07634" lon="6.85779">
        <ele>772</ele>
        <time>2020-06-05T06:30:23.000Z</time>
      </trkpt>
      <trkpt lat="44.07634" lon="6.85779">
        <ele>771</ele>
        <time>2020-06-05T06:30:24.000Z</time>
      </trkpt>
      <trkpt lat="44.07634" lon="6.85779">
        <ele>771</ele>
        <time>2020-06-05T06:30:25.000Z</time>
      </trkpt>
      <trkpt lat="44.07634" lon="6.85779">
        <ele>771</ele>
        <time>2020-06-05T06:30:26.000Z</time>
      </trkpt>
      <trkpt lat="44.07634" lon="6.85779">
        <ele>771</ele>
        <time>2020-06-05T06:30:27.000Z</time>
      </trkpt>
      <trkpt lat="44.07634" lon="6.85779">
        <ele>771</ele>
        <time>2020-06-05T06:30:28.000Z</time>
      </trkpt>
      <trkpt lat="44.07634" lon="6.85779">
        <ele>771</ele>
        <time>2020-06-05T06:30:29.000Z</time>
      </trkpt>
      <trkpt lat="44.07634" lon="6.85779">
        <ele>771</ele>
        <time>2020-06-05T06:30:30.000Z</time>
      </trkpt>
      <trkpt lat="44.07634" lon="6.85779">
        <ele>771</ele>
        <time>2020-06-05T06:30:31.000Z</time>
      </trkpt>
      <trkpt lat="44.07634" lon="6.8578">
        <ele>771</ele>
        <time>2020-06-05T06:30:32.000Z</time>
      </trkpt>
      <trkpt lat="44.07634" lon="6.8578">
        <ele>771</ele>
        <time>2020-06-05T06:30:33.000Z</time>
      </trkpt>
      <trkpt lat="44.07634" lon="6.8578">
        <ele>771</ele>
        <time>2020-06-05T06:30:34.000Z</time>
      </trkpt>
      <trkpt lat="44.07634" lon="6.8578">
        <ele>771</ele>
        <time>2020-06-05T06:30:35.000Z</time>
      </trkpt>
      <trkpt lat="44.07634" lon="6.85781">
        <ele>771</ele>
        <time>2020-06-05T06:30:36.000Z</time>
      </trkpt>
      <trkpt lat="44.07635" lon="6.85781">
        <ele>771</ele>
        <time>2020-06-05T06:30:37.000Z</time>
      </trkpt>
      <trkpt lat="44.07635" lon="6.85781">
        <ele>770</ele>
        <time>2020-06-05T06:30:38.000Z</time>
      </trkpt>
      <trkpt lat="44.07635" lon="6.85781">
        <ele>770</ele>
        <time>2020-06-05T06:30:39.000Z</time>
      </trkpt>
      <trkpt lat="44.07635" lon="6.85781">
        <ele>770</ele>
        <time>2020-06-05T06:30:40.000Z</time>
      </trkpt>
      <trkpt lat="44.07635" lon="6.85781">
        <ele>770</ele>
        <time>2020-06-05T06:30:41.000Z</time>
      </trkpt>
      <trkpt lat="44.07635" lon="6.85781">
        <ele>770</ele>
        <time>2020-06-05T06:30:42.000Z</time>
      </trkpt>
      <trkpt lat="44.07635" lon="6.85781">
        <ele>770</ele>
        <time>2020-06-05T06:30:43.000Z</time>
      </trkpt>
      <trkpt lat="44.07635" lon="6.85781">
        <ele>770</ele>
        <time>2020-06-05T06:30:44.000Z</time>
      </trkpt>
      <trkpt lat="44.07636" lon="6.85781">
        <ele>770</ele>
        <time>2020-06-05T06:30:45.000Z</time>
      </trkpt>
      <trkpt lat="44.07636" lon="6.85781">
        <ele>770</ele>
        <time>2020-06-05T06:30:46.000Z</time>
      </trkpt>
      <trkpt lat="44.07636" lon="6.85781">
        <ele>769</ele>
        <time>2020-06-05T06:30:47.000Z</time>
      </trkpt>
      <trkpt lat="44.07636" lon="6.85781">
        <ele>769</ele>
        <time>2020-06-05T06:30:48.000Z</time>
      </trkpt>
      <trkpt lat="44.07636" lon="6.85781">
        <ele>769</ele>
        <time>2020-06-05T06:30:49.000Z</time>
      </trkpt>
      <trkpt lat="44.07636" lon="6.85781">
        <ele>769</ele>
        <time>2020-06-05T06:30:50.000Z</time>
      </trkpt>
      <trkpt lat="44.07636" lon="6.85781">
        <ele>769</ele>
        <time>2020-06-05T06:30:51.000Z</time>
      </trkpt>
      <trkpt lat="44.07636" lon="6.85781">
        <ele>769</ele>
        <time>2020-06-05T06:30:52.000Z</time>
      </trkpt>
      <trkpt lat="44.07636" lon="6.85781">
        <ele>769</ele>
        <time>2020-06-05T06:30:53.000Z</time>
      </trkpt>
      <trkpt lat="44.07636" lon="6.85781">
        <ele>769</ele>
        <time>2020-06-05T06:30:54.000Z</time>
      </trkpt>
      <trkpt lat="44.07636" lon="6.85782">
        <ele>769</ele>
        <time>2020-06-05T06:30:55.000Z</time>
      </trkpt>
      <trkpt lat="44.07636" lon="6.85782">
        <ele>769</ele>
        <time>2020-06-05T06:30:56.000Z</time>
      </trkpt>
      <trkpt lat="44.07636" lon="6.85781">
        <ele>769</ele>
        <time>2020-06-05T06:30:57.000Z</time>
      </trkpt>
      <trkpt lat="44.07636" lon="6.85781">
        <ele>769</ele>
        <time>2020-06-05T06:30:58.000Z</time>
      </trkpt>
      <trkpt lat="44.07636" lon="6.85781">
        <ele>769</ele>
        <time>2020-06-05T06:30:59.000Z</time>
      </trkpt>
      <trkpt lat="44.07636" lon="6.85781">
        <ele>769</ele>
        <time>2020-06-05T06:31:00.000Z</time>
      </trkpt>
      <trkpt lat="44.07636" lon="6.85781">
        <ele>769</ele>
        <time>2020-06-05T06:31:01.000Z</time>
      </trkpt>
      <trkpt lat="44.07636" lon="6.85781">
        <ele>769</ele>
        <time>2020-06-05T06:31:02.000Z</time>
      </trkpt>
      <trkpt lat="44.07636" lon="6.85781">
        <ele>769</ele>
        <time>2020-06-05T06:31:03.000Z</time>
      </trkpt>
      <trkpt lat="44.07636" lon="6.85781">
        <ele>769</ele>
        <time>2020-06-05T06:31:04.000Z</time>
      </trkpt>
      <trkpt lat="44.07636" lon="6.85781">
        <ele>769</ele>
        <time>2020-06-05T06:31:05.000Z</time>
      </trkpt>
      <trkpt lat="44.07636" lon="6.85781">
        <ele>769</ele>
        <time>2020-06-05T06:31:06.000Z</time>
      </trkpt>
      <trkpt lat="44.07636" lon="6.85781">
        <ele>769</ele>
        <time>2020-06-05T06:31:07.000Z</time>
      </trkpt>
      <trkpt lat="44.07636" lon="6.85781">
        <ele>769</ele>
        <time>2020-06-05T06:31:08.000Z</time>
      </trkpt>
      <trkpt lat="44.07636" lon="6.85781">
        <ele>769</ele>
        <time>2020-06-05T06:31:09.000Z</time>
      </trkpt>
      <trkpt lat="44.07636" lon="6.85781">
        <ele>769</ele>
        <time>2020-06-05T06:31:10.000Z</time>
      </trkpt>
      <trkpt lat="44.07636" lon="6.85781">
        <ele>769</ele>
        <time>2020-06-05T06:31:11.000Z</time>
      </trkpt>
      <trkpt lat="44.07636" lon="6.85781">
        <ele>769</ele>
        <time>2020-06-05T06:31:12.000Z</time>
      </trkpt>
      <trkpt lat="44.07636" lon="6.85781">
        <ele>769</ele>
        <time>2020-06-05T06:31:13.000Z</time>
      </trkpt>
      <trkpt lat="44.07636" lon="6.85781">
        <ele>769</ele>
        <time>2020-06-05T06:31:14.000Z</time>
      </trkpt>
      <trkpt lat="44.07636" lon="6.85781">
        <ele>769</ele>
        <time>2020-06-05T06:31:15.000Z</time>
      </trkpt>
      <trkpt lat="44.07636" lon="6.85781">
        <ele>769</ele>
        <time>2020-06-05T06:31:16.000Z</time>
      </trkpt>
      <trkpt lat="44.07636" lon="6.85781">
        <ele>769</ele>
        <time>2020-06-05T06:31:17.000Z</time>
      </trkpt>
      <trkpt lat="44.07636" lon="6.85781">
        <ele>769</ele>
        <time>2020-06-05T06:31:18.000Z</time>
      </trkpt>
      <trkpt lat="44.07636" lon="6.85781">
        <ele>769</ele>
        <time>2020-06-05T06:31:19.000Z</time>
      </trkpt>
      <trkpt lat="44.07636" lon="6.85781">
        <ele>769</ele>
        <time>2020-06-05T06:31:20.000Z</time>
      </trkpt>
      <trkpt lat="44.07636" lon="6.85781">
        <ele>769</ele>
        <time>2020-06-05T06:31:21.000Z</time>
      </trkpt>
      <trkpt lat="44.07636" lon="6.85781">
        <ele>769</ele>
        <time>2020-06-05T06:31:22.000Z</time>
      </trkpt>
      <trkpt lat="44.07636" lon="6.85781">
        <ele>769</ele>
        <time>2020-06-05T06:31:23.000Z</time>
      </trkpt>
      <trkpt lat="44.07636" lon="6.85781">
        <ele>769</ele>
        <time>2020-06-05T06:31:24.000Z</time>
      </trkpt>
      <trkpt lat="44.07636" lon="6.85781">
        <ele>769</ele>
        <time>2020-06-05T06:31:25.000Z</time>
      </trkpt>
      <trkpt lat="44.07636" lon="6.85781">
        <ele>769</ele>
        <time>2020-06-05T06:31:26.000Z</time>
      </trkpt>
      <trkpt lat="44.07636" lon="6.85781">
        <ele>769</ele>
        <time>2020-06-05T06:31:27.000Z</time>
      </trkpt>
      <trkpt lat="44.07636" lon="6.85781">
        <ele>769</ele>
        <time>2020-06-05T06:31:28.000Z</time>
      </trkpt>
      <trkpt lat="44.07636" lon="6.8578">
        <ele>769</ele>
        <time>2020-06-05T06:31:29.000Z</time>
      </trkpt>
      <trkpt lat="44.07635" lon="6.8578">
        <ele>769</ele>
        <time>2020-06-05T06:31:30.000Z</time>
      </trkpt>
      <trkpt lat="44.07636" lon="6.8578">
        <ele>770</ele>
        <time>2020-06-05T06:31:31.000Z</time>
      </trkpt>
      <trkpt lat="44.07636" lon="6.8578">
        <ele>770</ele>
        <time>2020-06-05T06:31:32.000Z</time>
      </trkpt>
      <trkpt lat="44.07635" lon="6.8578">
        <ele>770</ele>
        <time>2020-06-05T06:31:33.000Z</time>
      </trkpt>
      <trkpt lat="44.07635" lon="6.8578">
        <ele>770</ele>
        <time>2020-06-05T06:31:34.000Z</time>
      </trkpt>
      <trkpt lat="44.07635" lon="6.8578">
        <ele>770</ele>
        <time>2020-06-05T06:31:35.000Z</time>
      </trkpt>
      <trkpt lat="44.07635" lon="6.8578">
        <ele>770</ele>
        <time>2020-06-05T06:31:36.000Z</time>
      </trkpt>
      <trkpt lat="44.07635" lon="6.8578">
        <ele>770</ele>
        <time>2020-06-05T06:31:37.000Z</time>
      </trkpt>
      <trkpt lat="44.07635" lon="6.8578">
        <ele>770</ele>
        <time>2020-06-05T06:31:38.000Z</time>
      </trkpt>
      <trkpt lat="44.07635" lon="6.8578">
        <ele>770</ele>
        <time>2020-06-05T06:31:39.000Z</time>
      </trkpt>
      <trkpt lat="44.07635" lon="6.8578">
        <ele>770</ele>
        <time>2020-06-05T06:31:40.000Z</time>
      </trkpt>
      <trkpt lat="44.07635" lon="6.8578">
        <ele>770</ele>
        <time>2020-06-05T06:31:41.000Z</time>
      </trkpt>
      <trkpt lat="44.07635" lon="6.8578">
        <ele>770</ele>
        <time>2020-06-05T06:31:42.000Z</time>
      </trkpt>
      <trkpt lat="44.07635" lon="6.85781">
        <ele>770</ele>
        <time>2020-06-05T06:31:43.000Z</time>
      </trkpt>
      <trkpt lat="44.07635" lon="6.85781">
        <ele>770</ele>
        <time>2020-06-05T06:31:44.000Z</time>
      </trkpt>
      <trkpt lat="44.07635" lon="6.85781">
        <ele>770</ele>
        <time>2020-06-05T06:31:45.000Z</time>
      </trkpt>
      <trkpt lat="44.07635" lon="6.85781">
        <ele>770</ele>
        <time>2020-06-05T06:31:46.000Z</time>
      </trkpt>
      <trkpt lat="44.07635" lon="6.85781">
        <ele>770</ele>
        <time>2020-06-05T06:31:47.000Z</time>
      </trkpt>
      <trkpt lat="44.07635" lon="6.85781">
        <ele>770</ele>
        <time>2020-06-05T06:31:48.000Z</time>
      </trkpt>
      <trkpt lat="44.07635" lon="6.85781">
        <ele>770</ele>
        <time>2020-06-05T06:31:49.000Z</time>
      </trkpt>
      <trkpt lat="44.07635" lon="6.85781">
        <ele>770</ele>
        <time>2020-06-05T06:31:50.000Z</time>
      </trkpt>
      <trkpt lat="44.07635" lon="6.85781">
        <ele>770</ele>
        <time>2020-06-05T06:31:51.000Z</time>
      </trkpt>
      <trkpt lat="44.07635" lon="6.85781">
        <ele>770</ele>
        <time>2020-06-05T06:31:52.000Z</time>
      </trkpt>
      <trkpt lat="44.07635" lon="6.85781">
        <ele>770</ele>
        <time>2020-06-05T06:31:53.000Z</time>
      </trkpt>
      <trkpt lat="44.07635" lon="6.85781">
        <ele>770</ele>
        <time>2020-06-05T06:31:54.000Z</time>
      </trkpt>
      <trkpt lat="44.07635" lon="6.85781">
        <ele>770</ele>
        <time>2020-06-05T06:31:55.000Z</time>
      </trkpt>
      <trkpt lat="44.07635" lon="6.85781">
        <ele>770</ele>
        <time>2020-06-05T06:31:56.000Z</time>
      </trkpt>
      <trkpt lat="44.07635" lon="6.85781">
        <ele>770</ele>
        <time>2020-06-05T06:31:57.000Z</time>
      </trkpt>
      <trkpt lat="44.07635" lon="6.85781">
        <ele>770</ele>
        <time>2020-06-05T06:31:58.000Z</time>
      </trkpt>
      <trkpt lat="44.07635" lon="6.85781">
        <ele>770</ele>
        <time>2020-06-05T06:31:59.000Z</time>
      </trkpt>
      <trkpt lat="44.07635" lon="6.85781">
        <ele>770</ele>
        <time>2020-06-05T06:32:00.000Z</time>
      </trkpt>
      <trkpt lat="44.07634" lon="6.85781">
        <ele>770</ele>
        <time>2020-06-05T06:32:01.000Z</time>
      </trkpt>
      <trkpt lat="44.07634" lon="6.8578">
        <ele>770</ele>
        <time>2020-06-05T06:32:02.000Z</time>
      </trkpt>
      <trkpt lat="44.07633" lon="6.8578">
        <ele>770</ele>
        <time>2020-06-05T06:32:03.000Z</time>
      </trkpt>
      <trkpt lat="44.07633" lon="6.85781">
        <ele>770</ele>
        <time>2020-06-05T06:32:04.000Z</time>
      </trkpt>
      <trkpt lat="44.07634" lon="6.85781">
        <ele>770</ele>
        <time>2020-06-05T06:32:05.000Z</time>
      </trkpt>
      <trkpt lat="44.07634" lon="6.85781">
        <ele>770</ele>
        <time>2020-06-05T06:32:06.000Z</time>
      </trkpt>
      <trkpt lat="44.07634" lon="6.85782">
        <ele>770</ele>
        <time>2020-06-05T06:32:07.000Z</time>
      </trkpt>
      <trkpt lat="44.07634" lon="6.85782">
        <ele>770</ele>
        <time>2020-06-05T06:32:08.000Z</time>
      </trkpt>
      <trkpt lat="44.07634" lon="6.85782">
        <ele>770</ele>
        <time>2020-06-05T06:32:09.000Z</time>
      </trkpt>
      <trkpt lat="44.07634" lon="6.85781">
        <ele>770</ele>
        <time>2020-06-05T06:32:10.000Z</time>
      </trkpt>
      <trkpt lat="44.07634" lon="6.85781">
        <ele>770</ele>
        <time>2020-06-05T06:32:11.000Z</time>
      </trkpt>
      <trkpt lat="44.07634" lon="6.85782">
        <ele>770</ele>
        <time>2020-06-05T06:32:12.000Z</time>
      </trkpt>
      <trkpt lat="44.07635" lon="6.85782">
        <ele>770</ele>
        <time>2020-06-05T06:32:13.000Z</time>
      </trkpt>
      <trkpt lat="44.07635" lon="6.85783">
        <ele>769</ele>
        <time>2020-06-05T06:32:14.000Z</time>
      </trkpt>
      <trkpt lat="44.07635" lon="6.85784">
        <ele>769</ele>
        <time>2020-06-05T06:32:15.000Z</time>
      </trkpt>
      <trkpt lat="44.07635" lon="6.85784">
        <ele>769</ele>
        <time>2020-06-05T06:32:16.000Z</time>
      </trkpt>
      <trkpt lat="44.07635" lon="6.85784">
        <ele>769</ele>
        <time>2020-06-05T06:32:17.000Z</time>
      </trkpt>
      <trkpt lat="44.07635" lon="6.85784">
        <ele>769</ele>
        <time>2020-06-05T06:32:18.000Z</time>
      </trkpt>
      <trkpt lat="44.07634" lon="6.85783">
        <ele>769</ele>
        <time>2020-06-05T06:32:19.000Z</time>
      </trkpt>
      <trkpt lat="44.07634" lon="6.85783">
        <ele>769</ele>
        <time>2020-06-05T06:32:20.000Z</time>
      </trkpt>
      <trkpt lat="44.07634" lon="6.85783">
        <ele>769</ele>
        <time>2020-06-05T06:32:21.000Z</time>
      </trkpt>
      <trkpt lat="44.07633" lon="6.85783">
        <ele>769</ele>
        <time>2020-06-05T06:32:22.000Z</time>
      </trkpt>
      <trkpt lat="44.07633" lon="6.85783">
        <ele>769</ele>
        <time>2020-06-05T06:32:23.000Z</time>
      </trkpt>
      <trkpt lat="44.07633" lon="6.85783">
        <ele>769</ele>
        <time>2020-06-05T06:32:24.000Z</time>
      </trkpt>
      <trkpt lat="44.07633" lon="6.85783">
        <ele>769</ele>
        <time>2020-06-05T06:32:25.000Z</time>
      </trkpt>
      <trkpt lat="44.07633" lon="6.85783">
        <ele>769</ele>
        <time>2020-06-05T06:32:26.000Z</time>
      </trkpt>
      <trkpt lat="44.07633" lon="6.85782">
        <ele>769</ele>
        <time>2020-06-05T06:32:27.000Z</time>
      </trkpt>
      <trkpt lat="44.07633" lon="6.85782">
        <ele>769</ele>
        <time>2020-06-05T06:32:28.000Z</time>
      </trkpt>
      <trkpt lat="44.07633" lon="6.85782">
        <ele>769</ele>
        <time>2020-06-05T06:32:29.000Z</time>
      </trkpt>
      <trkpt lat="44.07633" lon="6.85782">
        <ele>769</ele>
        <time>2020-06-05T06:32:30.000Z</time>
      </trkpt>
      <trkpt lat="44.07633" lon="6.85782">
        <ele>769</ele>
        <time>2020-06-05T06:32:31.000Z</time>
      </trkpt>
      <trkpt lat="44.07633" lon="6.85782">
        <ele>769</ele>
        <time>2020-06-05T06:32:32.000Z</time>
      </trkpt>
      <trkpt lat="44.07633" lon="6.85782">
        <ele>769</ele>
        <time>2020-06-05T06:32:33.000Z</time>
      </trkpt>
      <trkpt lat="44.07632" lon="6.85782">
        <ele>769</ele>
        <time>2020-06-05T06:32:34.000Z</time>
      </trkpt>
      <trkpt lat="44.07632" lon="6.85782">
        <ele>769</ele>
        <time>2020-06-05T06:32:35.000Z</time>
      </trkpt>
      <trkpt lat="44.07633" lon="6.85782">
        <ele>769</ele>
        <time>2020-06-05T06:32:36.000Z</time>
      </trkpt>
      <trkpt lat="44.07633" lon="6.85782">
        <ele>769</ele>
        <time>2020-06-05T06:32:37.000Z</time>
      </trkpt>
      <trkpt lat="44.07633" lon="6.85783">
        <ele>769</ele>
        <time>2020-06-05T06:32:38.000Z</time>
      </trkpt>
      <trkpt lat="44.07633" lon="6.85783">
        <ele>768</ele>
        <time>2020-06-05T06:32:39.000Z</time>
      </trkpt>
      <trkpt lat="44.07633" lon="6.85783">
        <ele>768</ele>
        <time>2020-06-05T06:32:40.000Z</time>
      </trkpt>
      <trkpt lat="44.07633" lon="6.85783">
        <ele>768</ele>
        <time>2020-06-05T06:32:41.000Z</time>
      </trkpt>
      <trkpt lat="44.07633" lon="6.85783">
        <ele>769</ele>
        <time>2020-06-05T06:32:42.000Z</time>
      </trkpt>
      <trkpt lat="44.07633" lon="6.85783">
        <ele>769</ele>
        <time>2020-06-05T06:32:43.000Z</time>
      </trkpt>
      <trkpt lat="44.07633" lon="6.85783">
        <ele>768</ele>
        <time>2020-06-05T06:32:44.000Z</time>
      </trkpt>
      <trkpt lat="44.07633" lon="6.85783">
        <ele>768</ele>
        <time>2020-06-05T06:32:45.000Z</time>
      </trkpt>
      <trkpt lat="44.07633" lon="6.85783">
        <ele>768</ele>
        <time>2020-06-05T06:32:46.000Z</time>
      </trkpt>
      <trkpt lat="44.07633" lon="6.85783">
        <ele>768</ele>
        <time>2020-06-05T06:32:47.000Z</time>
      </trkpt>
      <trkpt lat="44.07633" lon="6.85783">
        <ele>768</ele>
        <time>2020-06-05T06:32:48.000Z</time>
      </trkpt>
      <trkpt lat="44.07633" lon="6.85783">
        <ele>768</ele>
        <time>2020-06-05T06:32:49.000Z</time>
      </trkpt>
      <trkpt lat="44.07633" lon="6.85783">
        <ele>768</ele>
        <time>2020-06-05T06:32:50.000Z</time>
      </trkpt>
      <trkpt lat="44.07633" lon="6.85783">
        <ele>768</ele>
        <time>2020-06-05T06:32:51.000Z</time>
      </trkpt>
      <trkpt lat="44.07633" lon="6.85783">
        <ele>768</ele>
        <time>2020-06-05T06:32:52.000Z</time>
      </trkpt>
      <trkpt lat="44.07633" lon="6.85783">
        <ele>768</ele>
        <time>2020-06-05T06:32:53.000Z</time>
      </trkpt>
      <trkpt lat="44.07633" lon="6.85783">
        <ele>768</ele>
        <time>2020-06-05T06:32:54.000Z</time>
      </trkpt>
      <trkpt lat="44.07633" lon="6.85783">
        <ele>768</ele>
        <time>2020-06-05T06:32:55.000Z</time>
      </trkpt>
      <trkpt lat="44.07633" lon="6.85783">
        <ele>768</ele>
        <time>2020-06-05T06:32:56.000Z</time>
      </trkpt>
      <trkpt lat="44.07633" lon="6.85784">
        <ele>768</ele>
        <time>2020-06-05T06:32:57.000Z</time>
      </trkpt>
      <trkpt lat="44.07633" lon="6.85784">
        <ele>768</ele>
        <time>2020-06-05T06:32:58.000Z</time>
      </trkpt>
      <trkpt lat="44.07633" lon="6.85783">
        <ele>768</ele>
        <time>2020-06-05T06:32:59.000Z</time>
      </trkpt>
      <trkpt lat="44.07633" lon="6.85783">
        <ele>768</ele>
        <time>2020-06-05T06:33:00.000Z</time>
      </trkpt>
      <trkpt lat="44.07634" lon="6.85784">
        <ele>768</ele>
        <time>2020-06-05T06:33:01.000Z</time>
      </trkpt>
      <trkpt lat="44.07634" lon="6.85784">
        <ele>768</ele>
        <time>2020-06-05T06:33:02.000Z</time>
      </trkpt>
      <trkpt lat="44.07634" lon="6.85785">
        <ele>768</ele>
        <time>2020-06-05T06:33:03.000Z</time>
      </trkpt>
      <trkpt lat="44.07634" lon="6.85786">
        <ele>768</ele>
        <time>2020-06-05T06:33:04.000Z</time>
      </trkpt>
      <trkpt lat="44.07634" lon="6.85786">
        <ele>768</ele>
        <time>2020-06-05T06:33:05.000Z</time>
      </trkpt>
      <trkpt lat="44.07635" lon="6.85787">
        <ele>768</ele>
        <time>2020-06-05T06:33:06.000Z</time>
      </trkpt>
      <trkpt lat="44.07635" lon="6.85788">
        <ele>769</ele>
        <time>2020-06-05T06:33:07.000Z</time>
      </trkpt>
      <trkpt lat="44.07635" lon="6.85788">
        <ele>769</ele>
        <time>2020-06-05T06:33:08.000Z</time>
      </trkpt>
      <trkpt lat="44.07635" lon="6.85788">
        <ele>769</ele>
        <time>2020-06-05T06:33:09.000Z</time>
      </trkpt>
      <trkpt lat="44.07634" lon="6.85788">
        <ele>769</ele>
        <time>2020-06-05T06:33:10.000Z</time>
      </trkpt>
      <trkpt lat="44.07634" lon="6.85787">
        <ele>769</ele>
        <time>2020-06-05T06:33:11.000Z</time>
      </trkpt>
      <trkpt lat="44.07634" lon="6.85787">
        <ele>769</ele>
        <time>2020-06-05T06:33:12.000Z</time>
      </trkpt>
      <trkpt lat="44.07634" lon="6.85786">
        <ele>769</ele>
        <time>2020-06-05T06:33:13.000Z</time>
      </trkpt>
      <trkpt lat="44.07634" lon="6.85785">
        <ele>769</ele>
        <time>2020-06-05T06:33:14.000Z</time>
      </trkpt>
      <trkpt lat="44.07635" lon="6.85785">
        <ele>769</ele>
        <time>2020-06-05T06:33:15.000Z</time>
      </trkpt>
      <trkpt lat="44.07635" lon="6.85784">
        <ele>769</ele>
        <time>2020-06-05T06:33:16.000Z</time>
      </trkpt>
      <trkpt lat="44.07634" lon="6.85784">
        <ele>769</ele>
        <time>2020-06-05T06:33:17.000Z</time>
      </trkpt>
      <trkpt lat="44.07634" lon="6.85783">
        <ele>769</ele>
        <time>2020-06-05T06:33:18.000Z</time>
      </trkpt>
      <trkpt lat="44.07634" lon="6.85783">
        <ele>769</ele>
        <time>2020-06-05T06:33:19.000Z</time>
      </trkpt>
      <trkpt lat="44.07634" lon="6.85783">
        <ele>769</ele>
        <time>2020-06-05T06:33:20.000Z</time>
      </trkpt>
      <trkpt lat="44.07634" lon="6.85783">
        <ele>769</ele>
        <time>2020-06-05T06:33:21.000Z</time>
      </trkpt>
      <trkpt lat="44.07634" lon="6.85783">
        <ele>769</ele>
        <time>2020-06-05T06:33:22.000Z</time>
      </trkpt>
      <trkpt lat="44.07634" lon="6.85783">
        <ele>769</ele>
        <time>2020-06-05T06:33:23.000Z</time>
      </trkpt>
      <trkpt lat="44.07634" lon="6.85783">
        <ele>769</ele>
        <time>2020-06-05T06:33:24.000Z</time>
      </trkpt>
      <trkpt lat="44.07634" lon="6.85783">
        <ele>769</ele>
        <time>2020-06-05T06:33:25.000Z</time>
      </trkpt>
      <trkpt lat="44.07634" lon="6.85783">
        <ele>769</ele>
        <time>2020-06-05T06:33:26.000Z</time>
      </trkpt>
      <trkpt lat="44.07634" lon="6.85783">
        <ele>769</ele>
        <time>2020-06-05T06:33:27.000Z</time>
      </trkpt>
      <trkpt lat="44.07633" lon="6.85782">
        <ele>769</ele>
        <time>2020-06-05T06:33:28.000Z</time>
      </trkpt>
      <trkpt lat="44.07633" lon="6.85782">
        <ele>769</ele>
        <time>2020-06-05T06:33:29.000Z</time>
      </trkpt>
      <trkpt lat="44.07633" lon="6.85782">
        <ele>770</ele>
        <time>2020-06-05T06:33:30.000Z</time>
      </trkpt>
      <trkpt lat="44.07633" lon="6.85782">
        <ele>770</ele>
        <time>2020-06-05T06:33:31.000Z</time>
      </trkpt>
      <trkpt lat="44.07633" lon="6.85782">
        <ele>770</ele>
        <time>2020-06-05T06:33:32.000Z</time>
      </trkpt>
      <trkpt lat="44.07633" lon="6.85782">
        <ele>770</ele>
        <time>2020-06-05T06:33:33.000Z</time>
      </trkpt>
      <trkpt lat="44.07633" lon="6.85782">
        <ele>770</ele>
        <time>2020-06-05T06:33:34.000Z</time>
      </trkpt>
      <trkpt lat="44.07633" lon="6.85782">
        <ele>770</ele>
        <time>2020-06-05T06:33:35.000Z</time>
      </trkpt>
      <trkpt lat="44.07633" lon="6.85782">
        <ele>770</ele>
        <time>2020-06-05T06:33:36.000Z</time>
      </trkpt>
      <trkpt lat="44.07633" lon="6.85782">
        <ele>770</ele>
        <time>2020-06-05T06:33:37.000Z</time>
      </trkpt>
      <trkpt lat="44.07633" lon="6.85782">
        <ele>770</ele>
        <time>2020-06-05T06:33:38.000Z</time>
      </trkpt>
      <trkpt lat="44.07633" lon="6.85782">
        <ele>770</ele>
        <time>2020-06-05T06:33:39.000Z</time>
      </trkpt>
      <trkpt lat="44.07633" lon="6.85782">
        <ele>770</ele>
        <time>2020-06-05T06:33:40.000Z</time>
      </trkpt>
      <trkpt lat="44.07633" lon="6.85782">
        <ele>770</ele>
        <time>2020-06-05T06:33:41.000Z</time>
      </trkpt>
      <trkpt lat="44.07633" lon="6.85782">
        <ele>770</ele>
        <time>2020-06-05T06:33:42.000Z</time>
      </trkpt>
      <trkpt lat="44.07633" lon="6.85782">
        <ele>770</ele>
        <time>2020-06-05T06:33:43.000Z</time>
      </trkpt>
      <trkpt lat="44.07633" lon="6.85782">
        <ele>770</ele>
        <time>2020-06-05T06:33:44.000Z</time>
      </trkpt>
      <trkpt lat="44.07633" lon="6.85782">
        <ele>770</ele>
        <time>2020-06-05T06:33:45.000Z</time>
      </trkpt>
      <trkpt lat="44.07633" lon="6.85782">
        <ele>770</ele>
        <time>2020-06-05T06:33:46.000Z</time>
      </trkpt>
      <trkpt lat="44.07633" lon="6.85782">
        <ele>770</ele>
        <time>2020-06-05T06:33:47.000Z</time>
      </trkpt>
      <trkpt lat="44.07633" lon="6.85782">
        <ele>770</ele>
        <time>2020-06-05T06:33:48.000Z</time>
      </trkpt>
      <trkpt lat="44.07633" lon="6.85782">
        <ele>770</ele>
        <time>2020-06-05T06:33:49.000Z</time>
      </trkpt>
      <trkpt lat="44.07633" lon="6.85782">
        <ele>770</ele>
        <time>2020-06-05T06:33:50.000Z</time>
      </trkpt>
      <trkpt lat="44.07633" lon="6.85782">
        <ele>770</ele>
        <time>2020-06-05T06:33:51.000Z</time>
      </trkpt>
      <trkpt lat="44.07632" lon="6.85782">
        <ele>770</ele>
        <time>2020-06-05T06:33:52.000Z</time>
      </trkpt>
      <trkpt lat="44.07632" lon="6.85782">
        <ele>770</ele>
        <time>2020-06-05T06:33:53.000Z</time>
      </trkpt>
      <trkpt lat="44.07632" lon="6.85782">
        <ele>770</ele>
        <time>2020-06-05T06:33:54.000Z</time>
      </trkpt>
      <trkpt lat="44.07632" lon="6.85782">
        <ele>770</ele>
        <time>2020-06-05T06:33:55.000Z</time>
      </trkpt>
      <trkpt lat="44.07631" lon="6.85782">
        <ele>770</ele>
        <time>2020-06-05T06:33:56.000Z</time>
      </trkpt>
      <trkpt lat="44.07631" lon="6.85782">
        <ele>770</ele>
        <time>2020-06-05T06:33:57.000Z</time>
      </trkpt>
      <trkpt lat="44.07632" lon="6.85781">
        <ele>770</ele>
        <time>2020-06-05T06:33:58.000Z</time>
      </trkpt>
      <trkpt lat="44.07632" lon="6.85781">
        <ele>770</ele>
        <time>2020-06-05T06:33:59.000Z</time>
      </trkpt>
      <trkpt lat="44.07632" lon="6.85781">
        <ele>770</ele>
        <time>2020-06-05T06:34:00.000Z</time>
      </trkpt>
      <trkpt lat="44.07632" lon="6.85781">
        <ele>770</ele>
        <time>2020-06-05T06:34:01.000Z</time>
      </trkpt>
      <trkpt lat="44.07632" lon="6.85781">
        <ele>770</ele>
        <time>2020-06-05T06:34:02.000Z</time>
      </trkpt>
      <trkpt lat="44.07632" lon="6.85781">
        <ele>770</ele>
        <time>2020-06-05T06:34:03.000Z</time>
      </trkpt>
      <trkpt lat="44.07632" lon="6.85781">
        <ele>770</ele>
        <time>2020-06-05T06:34:04.000Z</time>
      </trkpt>
      <trkpt lat="44.07632" lon="6.85781">
        <ele>770</ele>
        <time>2020-06-05T06:34:05.000Z</time>
      </trkpt>
      <trkpt lat="44.07632" lon="6.85781">
        <ele>770</ele>
        <time>2020-06-05T06:34:06.000Z</time>
      </trkpt>
      <trkpt lat="44.07633" lon="6.85781">
        <ele>770</ele>
        <time>2020-06-05T06:34:07.000Z</time>
      </trkpt>
      <trkpt lat="44.07633" lon="6.85781">
        <ele>769</ele>
        <time>2020-06-05T06:34:08.000Z</time>
      </trkpt>
      <trkpt lat="44.07633" lon="6.85781">
        <ele>769</ele>
        <time>2020-06-05T06:34:09.000Z</time>
      </trkpt>
      <trkpt lat="44.07633" lon="6.85781">
        <ele>769</ele>
        <time>2020-06-05T06:34:10.000Z</time>
      </trkpt>
      <trkpt lat="44.07633" lon="6.85781">
        <ele>769</ele>
        <time>2020-06-05T06:34:11.000Z</time>
      </trkpt>
      <trkpt lat="44.07632" lon="6.85781">
        <ele>769</ele>
        <time>2020-06-05T06:34:12.000Z</time>
      </trkpt>
      <trkpt lat="44.07632" lon="6.85781">
        <ele>769</ele>
        <time>2020-06-05T06:34:13.000Z</time>
      </trkpt>
      <trkpt lat="44.07632" lon="6.85781">
        <ele>769</ele>
        <time>2020-06-05T06:34:14.000Z</time>
      </trkpt>
      <trkpt lat="44.07632" lon="6.85781">
        <ele>769</ele>
        <time>2020-06-05T06:34:15.000Z</time>
      </trkpt>
      <trkpt lat="44.07632" lon="6.85781">
        <ele>769</ele>
        <time>2020-06-05T06:34:16.000Z</time>
      </trkpt>
      <trkpt lat="44.07632" lon="6.85781">
        <ele>769</ele>
        <time>2020-06-05T06:34:17.000Z</time>
      </trkpt>
      <trkpt lat="44.07631" lon="6.85781">
        <ele>769</ele>
        <time>2020-06-05T06:34:18.000Z</time>
      </trkpt>
      <trkpt lat="44.07631" lon="6.85781">
        <ele>769</ele>
        <time>2020-06-05T06:34:19.000Z</time>
      </trkpt>
      <trkpt lat="44.07631" lon="6.85781">
        <ele>769</ele>
        <time>2020-06-05T06:34:20.000Z</time>
      </trkpt>
      <trkpt lat="44.07631" lon="6.85781">
        <ele>769</ele>
        <time>2020-06-05T06:34:21.000Z</time>
      </trkpt>
      <trkpt lat="44.07631" lon="6.85781">
        <ele>769</ele>
        <time>2020-06-05T06:34:22.000Z</time>
      </trkpt>
      <trkpt lat="44.07631" lon="6.85781">
        <ele>769</ele>
        <time>2020-06-05T06:34:23.000Z</time>
      </trkpt>
      <trkpt lat="44.07631" lon="6.85781">
        <ele>769</ele>
        <time>2020-06-05T06:34:24.000Z</time>
      </trkpt>
      <trkpt lat="44.07631" lon="6.85781">
        <ele>769</ele>
        <time>2020-06-05T06:34:25.000Z</time>
      </trkpt>
      <trkpt lat="44.07631" lon="6.85781">
        <ele>769</ele>
        <time>2020-06-05T06:34:26.000Z</time>
      </trkpt>
      <trkpt lat="44.07631" lon="6.85781">
        <ele>769</ele>
        <time>2020-06-05T06:34:27.000Z</time>
      </trkpt>
      <trkpt lat="44.07631" lon="6.85781">
        <ele>769</ele>
        <time>2020-06-05T06:34:28.000Z</time>
      </trkpt>
      <trkpt lat="44.07631" lon="6.8578">
        <ele>769</ele>
        <time>2020-06-05T06:34:29.000Z</time>
      </trkpt>
      <trkpt lat="44.07631" lon="6.85781">
        <ele>769</ele>
        <time>2020-06-05T06:34:30.000Z</time>
      </trkpt>
      <trkpt lat="44.07631" lon="6.85781">
        <ele>769</ele>
        <time>2020-06-05T06:34:31.000Z</time>
      </trkpt>
      <trkpt lat="44.0763" lon="6.85781">
        <ele>769</ele>
        <time>2020-06-05T06:34:32.000Z</time>
      </trkpt>
      <trkpt lat="44.0763" lon="6.85781">
        <ele>769</ele>
        <time>2020-06-05T06:34:33.000Z</time>
      </trkpt>
      <trkpt lat="44.0763" lon="6.85781">
        <ele>769</ele>
        <time>2020-06-05T06:34:34.000Z</time>
      </trkpt>
      <trkpt lat="44.0763" lon="6.85781">
        <ele>769</ele>
        <time>2020-06-05T06:34:35.000Z</time>
      </trkpt>
      <trkpt lat="44.0763" lon="6.85781">
        <ele>769</ele>
        <time>2020-06-05T06:34:36.000Z</time>
      </trkpt>
      <trkpt lat="44.0763" lon="6.85781">
        <ele>769</ele>
        <time>2020-06-05T06:34:37.000Z</time>
      </trkpt>
      <trkpt lat="44.07631" lon="6.8578">
        <ele>769</ele>
        <time>2020-06-05T06:34:38.000Z</time>
      </trkpt>
      <trkpt lat="44.07631" lon="6.8578">
        <ele>769</ele>
        <time>2020-06-05T06:34:39.000Z</time>
      </trkpt>
      <trkpt lat="44.07631" lon="6.8578">
        <ele>769</ele>
        <time>2020-06-05T06:34:40.000Z</time>
      </trkpt>
      <trkpt lat="44.07632" lon="6.8578">
        <ele>769</ele>
        <time>2020-06-05T06:34:41.000Z</time>
      </trkpt>
      <trkpt lat="44.07632" lon="6.85781">
        <ele>769</ele>
        <time>2020-06-05T06:34:42.000Z</time>
      </trkpt>
      <trkpt lat="44.07632" lon="6.85781">
        <ele>769</ele>
        <time>2020-06-05T06:34:43.000Z</time>
      </trkpt>
      <trkpt lat="44.07632" lon="6.85781">
        <ele>769</ele>
        <time>2020-06-05T06:34:44.000Z</time>
      </trkpt>
      <trkpt lat="44.07631" lon="6.85782">
        <ele>769</ele>
        <time>2020-06-05T06:34:45.000Z</time>
      </trkpt>
      <trkpt lat="44.07631" lon="6.85782">
        <ele>769</ele>
        <time>2020-06-05T06:34:46.000Z</time>
      </trkpt>
      <trkpt lat="44.07631" lon="6.85782">
        <ele>769</ele>
        <time>2020-06-05T06:34:47.000Z</time>
      </trkpt>
      <trkpt lat="44.07631" lon="6.85782">
        <ele>769</ele>
        <time>2020-06-05T06:34:48.000Z</time>
      </trkpt>
      <trkpt lat="44.0763" lon="6.85782">
        <ele>769</ele>
        <time>2020-06-05T06:34:49.000Z</time>
      </trkpt>
      <trkpt lat="44.0763" lon="6.85782">
        <ele>770</ele>
        <time>2020-06-05T06:34:50.000Z</time>
      </trkpt>
      <trkpt lat="44.0763" lon="6.85782">
        <ele>770</ele>
        <time>2020-06-05T06:34:51.000Z</time>
      </trkpt>
      <trkpt lat="44.0763" lon="6.85782">
        <ele>770</ele>
        <time>2020-06-05T06:34:52.000Z</time>
      </trkpt>
      <trkpt lat="44.0763" lon="6.85782">
        <ele>770</ele>
        <time>2020-06-05T06:34:53.000Z</time>
      </trkpt>
      <trkpt lat="44.07631" lon="6.85783">
        <ele>770</ele>
        <time>2020-06-05T06:34:54.000Z</time>
      </trkpt>
      <trkpt lat="44.07631" lon="6.85783">
        <ele>770</ele>
        <time>2020-06-05T06:34:55.000Z</time>
      </trkpt>
      <trkpt lat="44.07631" lon="6.85783">
        <ele>770</ele>
        <time>2020-06-05T06:34:56.000Z</time>
      </trkpt>
      <trkpt lat="44.07631" lon="6.85782">
        <ele>770</ele>
        <time>2020-06-05T06:34:57.000Z</time>
      </trkpt>
      <trkpt lat="44.07631" lon="6.85782">
        <ele>770</ele>
        <time>2020-06-05T06:34:58.000Z</time>
      </trkpt>
      <trkpt lat="44.07631" lon="6.85782">
        <ele>770</ele>
        <time>2020-06-05T06:34:59.000Z</time>
      </trkpt>
      <trkpt lat="44.07631" lon="6.85782">
        <ele>770</ele>
        <time>2020-06-05T06:35:00.000Z</time>
      </trkpt>
      <trkpt lat="44.07631" lon="6.85782">
        <ele>770</ele>
        <time>2020-06-05T06:35:01.000Z</time>
      </trkpt>
      <trkpt lat="44.07631" lon="6.85782">
        <ele>770</ele>
        <time>2020-06-05T06:35:02.000Z</time>
      </trkpt>
      <trkpt lat="44.07631" lon="6.85782">
        <ele>770</ele>
        <time>2020-06-05T06:35:03.000Z</time>
      </trkpt>
      <trkpt lat="44.07631" lon="6.85782">
        <ele>770</ele>
        <time>2020-06-05T06:35:04.000Z</time>
      </trkpt>
      <trkpt lat="44.07631" lon="6.85782">
        <ele>770</ele>
        <time>2020-06-05T06:35:05.000Z</time>
      </trkpt>
      <trkpt lat="44.07631" lon="6.85782">
        <ele>770</ele>
        <time>2020-06-05T06:35:06.000Z</time>
      </trkpt>
      <trkpt lat="44.07631" lon="6.85782">
        <ele>770</ele>
        <time>2020-06-05T06:35:07.000Z</time>
      </trkpt>
      <trkpt lat="44.07631" lon="6.85782">
        <ele>770</ele>
        <time>2020-06-05T06:35:08.000Z</time>
      </trkpt>
      <trkpt lat="44.07631" lon="6.85782">
        <ele>770</ele>
        <time>2020-06-05T06:35:09.000Z</time>
      </trkpt>
      <trkpt lat="44.07631" lon="6.85782">
        <ele>770</ele>
        <time>2020-06-05T06:35:10.000Z</time>
      </trkpt>
      <trkpt lat="44.07631" lon="6.85782">
        <ele>770</ele>
        <time>2020-06-05T06:35:11.000Z</time>
      </trkpt>
      <trkpt lat="44.07631" lon="6.85782">
        <ele>770</ele>
        <time>2020-06-05T06:35:12.000Z</time>
      </trkpt>
      <trkpt lat="44.07631" lon="6.85782">
        <ele>770</ele>
        <time>2020-06-05T06:35:13.000Z</time>
      </trkpt>
      <trkpt lat="44.07631" lon="6.85782">
        <ele>770</ele>
        <time>2020-06-05T06:35:14.000Z</time>
      </trkpt>
      <trkpt lat="44.07631" lon="6.85782">
        <ele>770</ele>
        <time>2020-06-05T06:35:15.000Z</time>
      </trkpt>
      <trkpt lat="44.07631" lon="6.85782">
        <ele>770</ele>
        <time>2020-06-05T06:35:16.000Z</time>
      </trkpt>
      <trkpt lat="44.07631" lon="6.85782">
        <ele>770</ele>
        <time>2020-06-05T06:35:17.000Z</time>
      </trkpt>
      <trkpt lat="44.07631" lon="6.85782">
        <ele>770</ele>
        <time>2020-06-05T06:35:18.000Z</time>
      </trkpt>
      <trkpt lat="44.07631" lon="6.85782">
        <ele>770</ele>
        <time>2020-06-05T06:35:19.000Z</time>
      </trkpt>
      <trkpt lat="44.07631" lon="6.85782">
        <ele>770</ele>
        <time>2020-06-05T06:35:20.000Z</time>
      </trkpt>
      <trkpt lat="44.07631" lon="6.85782">
        <ele>770</ele>
        <time>2020-06-05T06:35:21.000Z</time>
      </trkpt>
      <trkpt lat="44.07631" lon="6.85782">
        <ele>770</ele>
        <time>2020-06-05T06:35:22.000Z</time>
      </trkpt>
      <trkpt lat="44.07631" lon="6.85782">
        <ele>770</ele>
        <time>2020-06-05T06:35:23.000Z</time>
      </trkpt>
      <trkpt lat="44.07631" lon="6.85782">
        <ele>770</ele>
        <time>2020-06-05T06:35:24.000Z</time>
      </trkpt>
      <trkpt lat="44.07631" lon="6.85782">
        <ele>770</ele>
        <time>2020-06-05T06:35:25.000Z</time>
      </trkpt>
      <trkpt lat="44.07631" lon="6.85781">
        <ele>770</ele>
        <time>2020-06-05T06:35:26.000Z</time>
      </trkpt>
      <trkpt lat="44.07631" lon="6.85781">
        <ele>770</ele>
        <time>2020-06-05T06:35:27.000Z</time>
      </trkpt>
      <trkpt lat="44.07632" lon="6.85781">
        <ele>770</ele>
        <time>2020-06-05T06:35:28.000Z</time>
      </trkpt>
      <trkpt lat="44.07632" lon="6.85781">
        <ele>769</ele>
        <time>2020-06-05T06:35:29.000Z</time>
      </trkpt>
      <trkpt lat="44.07633" lon="6.85781">
        <ele>769</ele>
        <time>2020-06-05T06:35:30.000Z</time>
      </trkpt>
      <trkpt lat="44.07633" lon="6.85781">
        <ele>769</ele>
        <time>2020-06-05T06:35:31.000Z</time>
      </trkpt>
      <trkpt lat="44.07633" lon="6.85781">
        <ele>769</ele>
        <time>2020-06-05T06:35:32.000Z</time>
      </trkpt>
      <trkpt lat="44.07633" lon="6.85781">
        <ele>769</ele>
        <time>2020-06-05T06:35:33.000Z</time>
      </trkpt>
      <trkpt lat="44.07633" lon="6.85781">
        <ele>769</ele>
        <time>2020-06-05T06:35:34.000Z</time>
      </trkpt>
      <trkpt lat="44.07633" lon="6.85781">
        <ele>769</ele>
        <time>2020-06-05T06:35:35.000Z</time>
      </trkpt>
      <trkpt lat="44.07633" lon="6.8578">
        <ele>769</ele>
        <time>2020-06-05T06:35:36.000Z</time>
      </trkpt>
      <trkpt lat="44.07633" lon="6.8578">
        <ele>769</ele>
        <time>2020-06-05T06:35:37.000Z</time>
      </trkpt>
      <trkpt lat="44.07633" lon="6.85781">
        <ele>769</ele>
        <time>2020-06-05T06:35:38.000Z</time>
      </trkpt>
      <trkpt lat="44.07633" lon="6.8578">
        <ele>769</ele>
        <time>2020-06-05T06:35:39.000Z</time>
      </trkpt>
      <trkpt lat="44.07633" lon="6.8578">
        <ele>769</ele>
        <time>2020-06-05T06:35:40.000Z</time>
      </trkpt>
      <trkpt lat="44.07634" lon="6.8578">
        <ele>769</ele>
        <time>2020-06-05T06:35:41.000Z</time>
      </trkpt>
      <trkpt lat="44.07634" lon="6.8578">
        <ele>768</ele>
        <time>2020-06-05T06:35:42.000Z</time>
      </trkpt>
      <trkpt lat="44.07634" lon="6.8578">
        <ele>768</ele>
        <time>2020-06-05T06:35:43.000Z</time>
      </trkpt>
      <trkpt lat="44.07634" lon="6.8578">
        <ele>768</ele>
        <time>2020-06-05T06:35:44.000Z</time>
      </trkpt>
      <trkpt lat="44.07635" lon="6.85781">
        <ele>768</ele>
        <time>2020-06-05T06:35:45.000Z</time>
      </trkpt>
      <trkpt lat="44.07635" lon="6.85781">
        <ele>768</ele>
        <time>2020-06-05T06:35:46.000Z</time>
      </trkpt>
      <trkpt lat="44.07635" lon="6.85781">
        <ele>768</ele>
        <time>2020-06-05T06:35:47.000Z</time>
      </trkpt>
      <trkpt lat="44.07635" lon="6.85781">
        <ele>768</ele>
        <time>2020-06-05T06:35:48.000Z</time>
      </trkpt>
      <trkpt lat="44.07635" lon="6.85781">
        <ele>768</ele>
        <time>2020-06-05T06:35:49.000Z</time>
      </trkpt>
      <trkpt lat="44.07635" lon="6.85781">
        <ele>768</ele>
        <time>2020-06-05T06:35:50.000Z</time>
      </trkpt>
      <trkpt lat="44.07635" lon="6.85781">
        <ele>768</ele>
        <time>2020-06-05T06:35:51.000Z</time>
      </trkpt>
      <trkpt lat="44.07635" lon="6.85781">
        <ele>768</ele>
        <time>2020-06-05T06:35:52.000Z</time>
      </trkpt>
      <trkpt lat="44.07635" lon="6.85781">
        <ele>768</ele>
        <time>2020-06-05T06:35:53.000Z</time>
      </trkpt>
      <trkpt lat="44.07635" lon="6.85781">
        <ele>768</ele>
        <time>2020-06-05T06:35:54.000Z</time>
      </trkpt>
      <trkpt lat="44.07635" lon="6.85781">
        <ele>768</ele>
        <time>2020-06-05T06:35:55.000Z</time>
      </trkpt>
      <trkpt lat="44.07635" lon="6.85781">
        <ele>768</ele>
        <time>2020-06-05T06:35:56.000Z</time>
      </trkpt>
      <trkpt lat="44.07635" lon="6.85781">
        <ele>768</ele>
        <time>2020-06-05T06:35:57.000Z</time>
      </trkpt>
      <trkpt lat="44.07635" lon="6.85781">
        <ele>768</ele>
        <time>2020-06-05T06:35:58.000Z</time>
      </trkpt>
      <trkpt lat="44.07635" lon="6.85781">
        <ele>768</ele>
        <time>2020-06-05T06:35:59.000Z</time>
      </trkpt>
      <trkpt lat="44.07635" lon="6.85781">
        <ele>768</ele>
        <time>2020-06-05T06:36:00.000Z</time>
      </trkpt>
      <trkpt lat="44.07635" lon="6.85781">
        <ele>768</ele>
        <time>2020-06-05T06:36:01.000Z</time>
      </trkpt>
      <trkpt lat="44.07635" lon="6.85781">
        <ele>768</ele>
        <time>2020-06-05T06:36:02.000Z</time>
      </trkpt>
      <trkpt lat="44.07635" lon="6.85781">
        <ele>768</ele>
        <time>2020-06-05T06:36:03.000Z</time>
      </trkpt>
      <trkpt lat="44.07635" lon="6.85781">
        <ele>768</ele>
        <time>2020-06-05T06:36:04.000Z</time>
      </trkpt>
      <trkpt lat="44.07635" lon="6.85781">
        <ele>768</ele>
        <time>2020-06-05T06:36:05.000Z</time>
      </trkpt>
      <trkpt lat="44.07635" lon="6.85781">
        <ele>768</ele>
        <time>2020-06-05T06:36:06.000Z</time>
      </trkpt>
      <trkpt lat="44.07635" lon="6.85781">
        <ele>768</ele>
        <time>2020-06-05T06:36:07.000Z</time>
      </trkpt>
      <trkpt lat="44.07635" lon="6.85781">
        <ele>768</ele>
        <time>2020-06-05T06:36:08.000Z</time>
      </trkpt>
      <trkpt lat="44.07635" lon="6.85781">
        <ele>768</ele>
        <time>2020-06-05T06:36:09.000Z</time>
      </trkpt>
      <trkpt lat="44.07635" lon="6.85781">
        <ele>769</ele>
        <time>2020-06-05T06:36:10.000Z</time>
      </trkpt>
      <trkpt lat="44.07635" lon="6.85781">
        <ele>769</ele>
        <time>2020-06-05T06:36:11.000Z</time>
      </trkpt>
      <trkpt lat="44.07635" lon="6.85782">
        <ele>769</ele>
        <time>2020-06-05T06:36:12.000Z</time>
      </trkpt>
      <trkpt lat="44.07635" lon="6.85782">
        <ele>769</ele>
        <time>2020-06-05T06:36:13.000Z</time>
      </trkpt>
      <trkpt lat="44.07635" lon="6.85782">
        <ele>769</ele>
        <time>2020-06-05T06:36:14.000Z</time>
      </trkpt>
      <trkpt lat="44.07635" lon="6.85782">
        <ele>769</ele>
        <time>2020-06-05T06:36:15.000Z</time>
      </trkpt>
      <trkpt lat="44.07635" lon="6.85782">
        <ele>769</ele>
        <time>2020-06-05T06:36:16.000Z</time>
      </trkpt>
      <trkpt lat="44.07635" lon="6.85782">
        <ele>769</ele>
        <time>2020-06-05T06:36:17.000Z</time>
      </trkpt>
      <trkpt lat="44.07635" lon="6.85782">
        <ele>769</ele>
        <time>2020-06-05T06:36:18.000Z</time>
      </trkpt>
      <trkpt lat="44.07635" lon="6.85782">
        <ele>769</ele>
        <time>2020-06-05T06:36:19.000Z</time>
      </trkpt>
      <trkpt lat="44.07635" lon="6.85782">
        <ele>769</ele>
        <time>2020-06-05T06:36:20.000Z</time>
      </trkpt>
      <trkpt lat="44.07634" lon="6.85782">
        <ele>769</ele>
        <time>2020-06-05T06:36:21.000Z</time>
      </trkpt>
      <trkpt lat="44.07634" lon="6.85782">
        <ele>769</ele>
        <time>2020-06-05T06:36:22.000Z</time>
      </trkpt>
      <trkpt lat="44.07634" lon="6.85782">
        <ele>769</ele>
        <time>2020-06-05T06:36:23.000Z</time>
      </trkpt>
      <trkpt lat="44.07634" lon="6.85782">
        <ele>769</ele>
        <time>2020-06-05T06:36:24.000Z</time>
      </trkpt>
      <trkpt lat="44.07634" lon="6.85782">
        <ele>769</ele>
        <time>2020-06-05T06:36:25.000Z</time>
      </trkpt>
      <trkpt lat="44.07634" lon="6.85782">
        <ele>769</ele>
        <time>2020-06-05T06:36:26.000Z</time>
      </trkpt>
      <trkpt lat="44.07634" lon="6.85782">
        <ele>769</ele>
        <time>2020-06-05T06:36:27.000Z</time>
      </trkpt>
      <trkpt lat="44.07634" lon="6.85782">
        <ele>769</ele>
        <time>2020-06-05T06:36:28.000Z</time>
      </trkpt>
      <trkpt lat="44.07634" lon="6.85782">
        <ele>769</ele>
        <time>2020-06-05T06:36:29.000Z</time>
      </trkpt>
      <trkpt lat="44.07634" lon="6.85782">
        <ele>769</ele>
        <time>2020-06-05T06:36:30.000Z</time>
      </trkpt>
      <trkpt lat="44.07634" lon="6.85782">
        <ele>769</ele>
        <time>2020-06-05T06:36:31.000Z</time>
      </trkpt>
      <trkpt lat="44.07634" lon="6.85782">
        <ele>769</ele>
        <time>2020-06-05T06:36:32.000Z</time>
      </trkpt>
      <trkpt lat="44.07634" lon="6.85782">
        <ele>769</ele>
        <time>2020-06-05T06:36:33.000Z</time>
      </trkpt>
      <trkpt lat="44.07634" lon="6.85781">
        <ele>769</ele>
        <time>2020-06-05T06:36:34.000Z</time>
      </trkpt>
      <trkpt lat="44.07634" lon="6.85781">
        <ele>769</ele>
        <time>2020-06-05T06:36:35.000Z</time>
      </trkpt>
      <trkpt lat="44.07634" lon="6.85782">
        <ele>769</ele>
        <time>2020-06-05T06:36:36.000Z</time>
      </trkpt>
      <trkpt lat="44.07633" lon="6.85781">
        <ele>768</ele>
        <time>2020-06-05T06:36:37.000Z</time>
      </trkpt>
      <trkpt lat="44.07633" lon="6.85781">
        <ele>768</ele>
        <time>2020-06-05T06:36:38.000Z</time>
      </trkpt>
      <trkpt lat="44.07633" lon="6.85781">
        <ele>768</ele>
        <time>2020-06-05T06:36:39.000Z</time>
      </trkpt>
      <trkpt lat="44.07633" lon="6.85781">
        <ele>768</ele>
        <time>2020-06-05T06:36:40.000Z</time>
      </trkpt>
      <trkpt lat="44.07633" lon="6.85781">
        <ele>768</ele>
        <time>2020-06-05T06:36:41.000Z</time>
      </trkpt>
      <trkpt lat="44.07633" lon="6.85781">
        <ele>768</ele>
        <time>2020-06-05T06:36:42.000Z</time>
      </trkpt>
      <trkpt lat="44.07633" lon="6.85781">
        <ele>768</ele>
        <time>2020-06-05T06:36:43.000Z</time>
      </trkpt>
      <trkpt lat="44.07633" lon="6.85781">
        <ele>768</ele>
        <time>2020-06-05T06:36:44.000Z</time>
      </trkpt>
      <trkpt lat="44.07633" lon="6.85781">
        <ele>768</ele>
        <time>2020-06-05T06:36:45.000Z</time>
      </trkpt>
      <trkpt lat="44.07633" lon="6.85781">
        <ele>768</ele>
        <time>2020-06-05T06:36:46.000Z</time>
      </trkpt>
      <trkpt lat="44.07633" lon="6.85781">
        <ele>768</ele>
        <time>2020-06-05T06:36:47.000Z</time>
      </trkpt>
      <trkpt lat="44.07633" lon="6.85781">
        <ele>768</ele>
        <time>2020-06-05T06:36:48.000Z</time>
      </trkpt>
      <trkpt lat="44.07633" lon="6.85781">
        <ele>768</ele>
        <time>2020-06-05T06:36:49.000Z</time>
      </trkpt>
      <trkpt lat="44.07633" lon="6.85781">
        <ele>768</ele>
        <time>2020-06-05T06:36:50.000Z</time>
      </trkpt>
      <trkpt lat="44.07634" lon="6.85781">
        <ele>768</ele>
        <time>2020-06-05T06:36:51.000Z</time>
      </trkpt>
      <trkpt lat="44.07634" lon="6.85781">
        <ele>768</ele>
        <time>2020-06-05T06:36:52.000Z</time>
      </trkpt>
      <trkpt lat="44.07634" lon="6.85781">
        <ele>768</ele>
        <time>2020-06-05T06:36:53.000Z</time>
      </trkpt>
      <trkpt lat="44.07635" lon="6.85782">
        <ele>768</ele>
        <time>2020-06-05T06:36:54.000Z</time>
      </trkpt>
      <trkpt lat="44.07635" lon="6.85782">
        <ele>768</ele>
        <time>2020-06-05T06:36:55.000Z</time>
      </trkpt>
      <trkpt lat="44.07635" lon="6.85782">
        <ele>768</ele>
        <time>2020-06-05T06:36:56.000Z</time>
      </trkpt>
      <trkpt lat="44.07635" lon="6.85782">
        <ele>768</ele>
        <time>2020-06-05T06:36:57.000Z</time>
      </trkpt>
      <trkpt lat="44.07635" lon="6.85782">
        <ele>767</ele>
        <time>2020-06-05T06:36:58.000Z</time>
      </trkpt>
      <trkpt lat="44.07635" lon="6.85782">
        <ele>767</ele>
        <time>2020-06-05T06:36:59.000Z</time>
      </trkpt>
      <trkpt lat="44.07635" lon="6.85782">
        <ele>767</ele>
        <time>2020-06-05T06:37:00.000Z</time>
      </trkpt>
      <trkpt lat="44.07635" lon="6.85782">
        <ele>767</ele>
        <time>2020-06-05T06:37:01.000Z</time>
      </trkpt>
      <trkpt lat="44.07635" lon="6.85782">
        <ele>768</ele>
        <time>2020-06-05T06:37:02.000Z</time>
      </trkpt>
      <trkpt lat="44.07635" lon="6.85782">
        <ele>768</ele>
        <time>2020-06-05T06:37:03.000Z</time>
      </trkpt>
      <trkpt lat="44.07635" lon="6.85783">
        <ele>768</ele>
        <time>2020-06-05T06:37:04.000Z</time>
      </trkpt>
      <trkpt lat="44.07635" lon="6.85783">
        <ele>768</ele>
        <time>2020-06-05T06:37:05.000Z</time>
      </trkpt>
      <trkpt lat="44.07635" lon="6.85782">
        <ele>768</ele>
        <time>2020-06-05T06:37:06.000Z</time>
      </trkpt>
      <trkpt lat="44.07635" lon="6.85782">
        <ele>767</ele>
        <time>2020-06-05T06:37:07.000Z</time>
      </trkpt>
      <trkpt lat="44.07635" lon="6.85782">
        <ele>767</ele>
        <time>2020-06-05T06:37:08.000Z</time>
      </trkpt>
      <trkpt lat="44.07635" lon="6.85782">
        <ele>767</ele>
        <time>2020-06-05T06:37:09.000Z</time>
      </trkpt>
      <trkpt lat="44.07635" lon="6.85782">
        <ele>767</ele>
        <time>2020-06-05T06:37:10.000Z</time>
      </trkpt>
      <trkpt lat="44.07635" lon="6.85782">
        <ele>767</ele>
        <time>2020-06-05T06:37:11.000Z</time>
      </trkpt>
      <trkpt lat="44.07635" lon="6.85782">
        <ele>767</ele>
        <time>2020-06-05T06:37:12.000Z</time>
      </trkpt>
      <trkpt lat="44.07635" lon="6.85782">
        <ele>767</ele>
        <time>2020-06-05T06:37:13.000Z</time>
      </trkpt>
      <trkpt lat="44.07635" lon="6.85782">
        <ele>767</ele>
        <time>2020-06-05T06:37:14.000Z</time>
      </trkpt>
      <trkpt lat="44.07635" lon="6.85782">
        <ele>767</ele>
        <time>2020-06-05T06:37:15.000Z</time>
      </trkpt>
      <trkpt lat="44.07635" lon="6.85782">
        <ele>767</ele>
        <time>2020-06-05T06:37:16.000Z</time>
      </trkpt>
      <trkpt lat="44.07635" lon="6.85782">
        <ele>767</ele>
        <time>2020-06-05T06:37:17.000Z</time>
      </trkpt>
      <trkpt lat="44.07635" lon="6.85782">
        <ele>767</ele>
        <time>2020-06-05T06:37:18.000Z</time>
      </trkpt>
      <trkpt lat="44.07635" lon="6.85782">
        <ele>767</ele>
        <time>2020-06-05T06:37:19.000Z</time>
      </trkpt>
      <trkpt lat="44.07635" lon="6.85782">
        <ele>767</ele>
        <time>2020-06-05T06:37:20.000Z</time>
      </trkpt>
      <trkpt lat="44.07635" lon="6.85782">
        <ele>767</ele>
        <time>2020-06-05T06:37:21.000Z</time>
      </trkpt>
      <trkpt lat="44.07635" lon="6.85782">
        <ele>767</ele>
        <time>2020-06-05T06:37:22.000Z</time>
      </trkpt>
      <trkpt lat="44.07636" lon="6.85782">
        <ele>767</ele>
        <time>2020-06-05T06:37:23.000Z</time>
      </trkpt>
      <trkpt lat="44.07636" lon="6.85782">
        <ele>767</ele>
        <time>2020-06-05T06:37:24.000Z</time>
      </trkpt>
      <trkpt lat="44.07636" lon="6.85782">
        <ele>767</ele>
        <time>2020-06-05T06:37:25.000Z</time>
      </trkpt>
      <trkpt lat="44.07636" lon="6.85782">
        <ele>767</ele>
        <time>2020-06-05T06:37:26.000Z</time>
      </trkpt>
      <trkpt lat="44.07636" lon="6.85782">
        <ele>767</ele>
        <time>2020-06-05T06:37:27.000Z</time>
      </trkpt>
      <trkpt lat="44.07636" lon="6.85782">
        <ele>767</ele>
        <time>2020-06-05T06:37:28.000Z</time>
      </trkpt>
      <trkpt lat="44.07636" lon="6.85782">
        <ele>767</ele>
        <time>2020-06-05T06:37:29.000Z</time>
      </trkpt>
      <trkpt lat="44.07636" lon="6.85782">
        <ele>767</ele>
        <time>2020-06-05T06:37:30.000Z</time>
      </trkpt>
      <trkpt lat="44.07636" lon="6.85782">
        <ele>767</ele>
        <time>2020-06-05T06:37:31.000Z</time>
      </trkpt>
      <trkpt lat="44.07636" lon="6.85782">
        <ele>767</ele>
        <time>2020-06-05T06:37:32.000Z</time>
      </trkpt>
      <trkpt lat="44.07636" lon="6.85782">
        <ele>767</ele>
        <time>2020-06-05T06:37:33.000Z</time>
      </trkpt>
      <trkpt lat="44.07636" lon="6.85782">
        <ele>767</ele>
        <time>2020-06-05T06:37:34.000Z</time>
      </trkpt>
      <trkpt lat="44.07636" lon="6.85782">
        <ele>767</ele>
        <time>2020-06-05T06:37:35.000Z</time>
      </trkpt>
      <trkpt lat="44.07636" lon="6.85782">
        <ele>767</ele>
        <time>2020-06-05T06:37:36.000Z</time>
      </trkpt>
      <trkpt lat="44.07635" lon="6.85781">
        <ele>767</ele>
        <time>2020-06-05T06:37:37.000Z</time>
      </trkpt>
      <trkpt lat="44.07635" lon="6.85782">
        <ele>767</ele>
        <time>2020-06-05T06:37:38.000Z</time>
      </trkpt>
      <trkpt lat="44.07635" lon="6.85782">
        <ele>767</ele>
        <time>2020-06-05T06:37:39.000Z</time>
      </trkpt>
      <trkpt lat="44.07635" lon="6.85781">
        <ele>767</ele>
        <time>2020-06-05T06:37:40.000Z</time>
      </trkpt>
      <trkpt lat="44.07635" lon="6.85782">
        <ele>767</ele>
        <time>2020-06-05T06:37:41.000Z</time>
      </trkpt>
      <trkpt lat="44.07636" lon="6.85782">
        <ele>767</ele>
        <time>2020-06-05T06:37:42.000Z</time>
      </trkpt>
      <trkpt lat="44.07636" lon="6.85782">
        <ele>767</ele>
        <time>2020-06-05T06:37:43.000Z</time>
      </trkpt>
      <trkpt lat="44.07636" lon="6.85782">
        <ele>767</ele>
        <time>2020-06-05T06:37:44.000Z</time>
      </trkpt>
      <trkpt lat="44.07636" lon="6.85782">
        <ele>767</ele>
        <time>2020-06-05T06:37:45.000Z</time>
      </trkpt>
      <trkpt lat="44.07636" lon="6.85782">
        <ele>767</ele>
        <time>2020-06-05T06:37:46.000Z</time>
      </trkpt>
      <trkpt lat="44.07636" lon="6.85782">
        <ele>767</ele>
        <time>2020-06-05T06:37:47.000Z</time>
      </trkpt>
      <trkpt lat="44.07636" lon="6.85782">
        <ele>767</ele>
        <time>2020-06-05T06:37:48.000Z</time>
      </trkpt>
      <trkpt lat="44.07635" lon="6.85782">
        <ele>767</ele>
        <time>2020-06-05T06:37:49.000Z</time>
      </trkpt>
      <trkpt lat="44.07635" lon="6.85782">
        <ele>767</ele>
        <time>2020-06-05T06:37:50.000Z</time>
      </trkpt>
      <trkpt lat="44.07635" lon="6.85782">
        <ele>767</ele>
        <time>2020-06-05T06:37:51.000Z</time>
      </trkpt>
      <trkpt lat="44.07635" lon="6.85782">
        <ele>767</ele>
        <time>2020-06-05T06:37:52.000Z</time>
      </trkpt>
      <trkpt lat="44.07635" lon="6.85782">
        <ele>767</ele>
        <time>2020-06-05T06:37:53.000Z</time>
      </trkpt>
      <trkpt lat="44.07635" lon="6.85782">
        <ele>767</ele>
        <time>2020-06-05T06:37:54.000Z</time>
      </trkpt>
      <trkpt lat="44.07635" lon="6.85782">
        <ele>767</ele>
        <time>2020-06-05T06:37:55.000Z</time>
      </trkpt>
      <trkpt lat="44.07635" lon="6.85782">
        <ele>767</ele>
        <time>2020-06-05T06:37:56.000Z</time>
      </trkpt>
      <trkpt lat="44.07635" lon="6.85782">
        <ele>767</ele>
        <time>2020-06-05T06:37:57.000Z</time>
      </trkpt>
      <trkpt lat="44.07635" lon="6.85782">
        <ele>767</ele>
        <time>2020-06-05T06:37:58.000Z</time>
      </trkpt>
      <trkpt lat="44.07635" lon="6.85782">
        <ele>767</ele>
        <time>2020-06-05T06:37:59.000Z</time>
      </trkpt>
      <trkpt lat="44.07635" lon="6.85782">
        <ele>767</ele>
        <time>2020-06-05T06:38:00.000Z</time>
      </trkpt>
      <trkpt lat="44.07635" lon="6.85782">
        <ele>767</ele>
        <time>2020-06-05T06:38:01.000Z</time>
      </trkpt>
      <trkpt lat="44.07635" lon="6.85782">
        <ele>767</ele>
        <time>2020-06-05T06:38:02.000Z</time>
      </trkpt>
      <trkpt lat="44.07635" lon="6.85782">
        <ele>767</ele>
        <time>2020-06-05T06:38:03.000Z</time>
      </trkpt>
      <trkpt lat="44.07635" lon="6.85782">
        <ele>767</ele>
        <time>2020-06-05T06:38:04.000Z</time>
      </trkpt>
      <trkpt lat="44.07635" lon="6.85782">
        <ele>767</ele>
        <time>2020-06-05T06:38:05.000Z</time>
      </trkpt>
      <trkpt lat="44.07635" lon="6.85782">
        <ele>767</ele>
        <time>2020-06-05T06:38:06.000Z</time>
      </trkpt>
      <trkpt lat="44.07635" lon="6.85782">
        <ele>767</ele>
        <time>2020-06-05T06:38:07.000Z</time>
      </trkpt>
      <trkpt lat="44.07635" lon="6.85782">
        <ele>767</ele>
        <time>2020-06-05T06:38:08.000Z</time>
      </trkpt>
      <trkpt lat="44.07635" lon="6.85782">
        <ele>767</ele>
        <time>2020-06-05T06:38:09.000Z</time>
      </trkpt>
      <trkpt lat="44.07635" lon="6.85782">
        <ele>767</ele>
        <time>2020-06-05T06:38:10.000Z</time>
      </trkpt>
      <trkpt lat="44.07635" lon="6.85782">
        <ele>767</ele>
        <time>2020-06-05T06:38:11.000Z</time>
      </trkpt>
      <trkpt lat="44.07635" lon="6.85782">
        <ele>767</ele>
        <time>2020-06-05T06:38:12.000Z</time>
      </trkpt>
      <trkpt lat="44.07635" lon="6.85782">
        <ele>767</ele>
        <time>2020-06-05T06:38:13.000Z</time>
      </trkpt>
      <trkpt lat="44.07635" lon="6.85782">
        <ele>767</ele>
        <time>2020-06-05T06:38:14.000Z</time>
      </trkpt>
      <trkpt lat="44.07635" lon="6.85782">
        <ele>767</ele>
        <time>2020-06-05T06:38:15.000Z</time>
      </trkpt>
      <trkpt lat="44.07634" lon="6.85782">
        <ele>767</ele>
        <time>2020-06-05T06:38:16.000Z</time>
      </trkpt>
      <trkpt lat="44.07634" lon="6.85782">
        <ele>767</ele>
        <time>2020-06-05T06:38:17.000Z</time>
      </trkpt>
      <trkpt lat="44.07634" lon="6.85782">
        <ele>767</ele>
        <time>2020-06-05T06:38:18.000Z</time>
      </trkpt>
      <trkpt lat="44.07634" lon="6.85782">
        <ele>767</ele>
        <time>2020-06-05T06:38:19.000Z</time>
      </trkpt>
      <trkpt lat="44.07634" lon="6.85782">
        <ele>767</ele>
        <time>2020-06-05T06:38:20.000Z</time>
      </trkpt>
      <trkpt lat="44.07634" lon="6.85782">
        <ele>767</ele>
        <time>2020-06-05T06:38:21.000Z</time>
      </trkpt>
      <trkpt lat="44.07634" lon="6.85782">
        <ele>767</ele>
        <time>2020-06-05T06:38:22.000Z</time>
      </trkpt>
      <trkpt lat="44.07634" lon="6.85782">
        <ele>767</ele>
        <time>2020-06-05T06:38:23.000Z</time>
      </trkpt>
      <trkpt lat="44.07634" lon="6.85782">
        <ele>767</ele>
        <time>2020-06-05T06:38:24.000Z</time>
      </trkpt>
      <trkpt lat="44.07634" lon="6.85782">
        <ele>767</ele>
        <time>2020-06-05T06:38:25.000Z</time>
      </trkpt>
      <trkpt lat="44.07634" lon="6.85782">
        <ele>767</ele>
        <time>2020-06-05T06:38:26.000Z</time>
      </trkpt>
      <trkpt lat="44.07634" lon="6.85782">
        <ele>767</ele>
        <time>2020-06-05T06:38:27.000Z</time>
      </trkpt>
      <trkpt lat="44.07634" lon="6.85782">
        <ele>767</ele>
        <time>2020-06-05T06:38:28.000Z</time>
      </trkpt>
      <trkpt lat="44.07634" lon="6.85782">
        <ele>767</ele>
        <time>2020-06-05T06:38:29.000Z</time>
      </trkpt>
      <trkpt lat="44.07634" lon="6.85782">
        <ele>767</ele>
        <time>2020-06-05T06:38:30.000Z</time>
      </trkpt>
      <trkpt lat="44.07634" lon="6.85782">
        <ele>767</ele>
        <time>2020-06-05T06:38:31.000Z</time>
      </trkpt>
      <trkpt lat="44.07634" lon="6.85782">
        <ele>767</ele>
        <time>2020-06-05T06:38:32.000Z</time>
      </trkpt>
      <trkpt lat="44.07634" lon="6.85781">
        <ele>767</ele>
        <time>2020-06-05T06:38:33.000Z</time>
      </trkpt>
      <trkpt lat="44.07634" lon="6.85781">
        <ele>767</ele>
        <time>2020-06-05T06:38:34.000Z</time>
      </trkpt>
      <trkpt lat="44.07634" lon="6.85781">
        <ele>767</ele>
        <time>2020-06-05T06:38:35.000Z</time>
      </trkpt>
      <trkpt lat="44.07633" lon="6.85781">
        <ele>768</ele>
        <time>2020-06-05T06:38:36.000Z</time>
      </trkpt>
      <trkpt lat="44.07633" lon="6.85781">
        <ele>768</ele>
        <time>2020-06-05T06:38:37.000Z</time>
      </trkpt>
      <trkpt lat="44.07634" lon="6.8578">
        <ele>768</ele>
        <time>2020-06-05T06:38:38.000Z</time>
      </trkpt>
      <trkpt lat="44.07634" lon="6.8578">
        <ele>768</ele>
        <time>2020-06-05T06:38:39.000Z</time>
      </trkpt>
      <trkpt lat="44.07634" lon="6.8578">
        <ele>768</ele>
        <time>2020-06-05T06:38:40.000Z</time>
      </trkpt>
      <trkpt lat="44.07634" lon="6.8578">
        <ele>768</ele>
        <time>2020-06-05T06:38:41.000Z</time>
      </trkpt>
      <trkpt lat="44.07634" lon="6.8578">
        <ele>768</ele>
        <time>2020-06-05T06:38:42.000Z</time>
      </trkpt>
      <trkpt lat="44.07634" lon="6.8578">
        <ele>768</ele>
        <time>2020-06-05T06:38:43.000Z</time>
      </trkpt>
      <trkpt lat="44.07634" lon="6.8578">
        <ele>768</ele>
        <time>2020-06-05T06:38:44.000Z</time>
      </trkpt>
      <trkpt lat="44.07633" lon="6.85781">
        <ele>768</ele>
        <time>2020-06-05T06:38:45.000Z</time>
      </trkpt>
      <trkpt lat="44.07634" lon="6.85781">
        <ele>768</ele>
        <time>2020-06-05T06:38:46.000Z</time>
      </trkpt>
      <trkpt lat="44.07634" lon="6.85781">
        <ele>769</ele>
        <time>2020-06-05T06:38:47.000Z</time>
      </trkpt>
      <trkpt lat="44.07634" lon="6.85781">
        <ele>769</ele>
        <time>2020-06-05T06:38:48.000Z</time>
      </trkpt>
      <trkpt lat="44.07634" lon="6.85781">
        <ele>769</ele>
        <time>2020-06-05T06:38:49.000Z</time>
      </trkpt>
      <trkpt lat="44.07634" lon="6.85781">
        <ele>769</ele>
        <time>2020-06-05T06:38:50.000Z</time>
      </trkpt>
      <trkpt lat="44.07634" lon="6.85782">
        <ele>769</ele>
        <time>2020-06-05T06:38:51.000Z</time>
      </trkpt>
      <trkpt lat="44.07634" lon="6.85782">
        <ele>769</ele>
        <time>2020-06-05T06:38:52.000Z</time>
      </trkpt>
      <trkpt lat="44.07634" lon="6.85782">
        <ele>769</ele>
        <time>2020-06-05T06:38:53.000Z</time>
      </trkpt>
      <trkpt lat="44.07634" lon="6.85781">
        <ele>769</ele>
        <time>2020-06-05T06:38:54.000Z</time>
      </trkpt>
      <trkpt lat="44.07633" lon="6.85782">
        <ele>769</ele>
        <time>2020-06-05T06:38:55.000Z</time>
      </trkpt>
      <trkpt lat="44.07633" lon="6.85782">
        <ele>769</ele>
        <time>2020-06-05T06:38:56.000Z</time>
      </trkpt>
      <trkpt lat="44.07632" lon="6.85782">
        <ele>769</ele>
        <time>2020-06-05T06:38:57.000Z</time>
      </trkpt>
      <trkpt lat="44.07632" lon="6.85782">
        <ele>769</ele>
        <time>2020-06-05T06:38:58.000Z</time>
      </trkpt>
      <trkpt lat="44.07632" lon="6.85782">
        <ele>769</ele>
        <time>2020-06-05T06:38:59.000Z</time>
      </trkpt>
      <trkpt lat="44.07632" lon="6.85782">
        <ele>769</ele>
        <time>2020-06-05T06:39:00.000Z</time>
      </trkpt>
      <trkpt lat="44.07632" lon="6.85782">
        <ele>769</ele>
        <time>2020-06-05T06:39:01.000Z</time>
      </trkpt>
      <trkpt lat="44.07632" lon="6.85782">
        <ele>769</ele>
        <time>2020-06-05T06:39:02.000Z</time>
      </trkpt>
      <trkpt lat="44.07633" lon="6.85782">
        <ele>769</ele>
        <time>2020-06-05T06:39:03.000Z</time>
      </trkpt>
      <trkpt lat="44.07632" lon="6.85782">
        <ele>769</ele>
        <time>2020-06-05T06:39:04.000Z</time>
      </trkpt>
      <trkpt lat="44.07633" lon="6.85782">
        <ele>769</ele>
        <time>2020-06-05T06:39:05.000Z</time>
      </trkpt>
      <trkpt lat="44.07633" lon="6.85782">
        <ele>769</ele>
        <time>2020-06-05T06:39:06.000Z</time>
      </trkpt>
      <trkpt lat="44.07633" lon="6.85782">
        <ele>769</ele>
        <time>2020-06-05T06:39:07.000Z</time>
      </trkpt>
      <trkpt lat="44.07633" lon="6.85782">
        <ele>769</ele>
        <time>2020-06-05T06:39:08.000Z</time>
      </trkpt>
      <trkpt lat="44.07633" lon="6.85782">
        <ele>769</ele>
        <time>2020-06-05T06:39:09.000Z</time>
      </trkpt>
      <trkpt lat="44.07633" lon="6.85782">
        <ele>769</ele>
        <time>2020-06-05T06:39:10.000Z</time>
      </trkpt>
      <trkpt lat="44.07633" lon="6.85783">
        <ele>769</ele>
        <time>2020-06-05T06:39:11.000Z</time>
      </trkpt>
      <trkpt lat="44.07633" lon="6.85783">
        <ele>769</ele>
        <time>2020-06-05T06:39:12.000Z</time>
      </trkpt>
      <trkpt lat="44.07633" lon="6.85783">
        <ele>769</ele>
        <time>2020-06-05T06:39:13.000Z</time>
      </trkpt>
      <trkpt lat="44.07633" lon="6.85782">
        <ele>769</ele>
        <time>2020-06-05T06:39:14.000Z</time>
      </trkpt>
      <trkpt lat="44.07633" lon="6.85782">
        <ele>769</ele>
        <time>2020-06-05T06:39:15.000Z</time>
      </trkpt>
      <trkpt lat="44.07633" lon="6.85782">
        <ele>769</ele>
        <time>2020-06-05T06:39:16.000Z</time>
      </trkpt>
      <trkpt lat="44.07633" lon="6.85782">
        <ele>769</ele>
        <time>2020-06-05T06:39:17.000Z</time>
      </trkpt>
      <trkpt lat="44.07633" lon="6.85782">
        <ele>769</ele>
        <time>2020-06-05T06:39:18.000Z</time>
      </trkpt>
      <trkpt lat="44.07633" lon="6.85783">
        <ele>770</ele>
        <time>2020-06-05T06:39:19.000Z</time>
      </trkpt>
      <trkpt lat="44.07633" lon="6.85783">
        <ele>770</ele>
        <time>2020-06-05T06:39:20.000Z</time>
      </trkpt>
      <trkpt lat="44.07633" lon="6.85782">
        <ele>770</ele>
        <time>2020-06-05T06:39:21.000Z</time>
      </trkpt>
      <trkpt lat="44.07633" lon="6.85783">
        <ele>770</ele>
        <time>2020-06-05T06:39:22.000Z</time>
      </trkpt>
      <trkpt lat="44.07633" lon="6.85783">
        <ele>770</ele>
        <time>2020-06-05T06:39:23.000Z</time>
      </trkpt>
      <trkpt lat="44.07633" lon="6.85783">
        <ele>769</ele>
        <time>2020-06-05T06:39:24.000Z</time>
      </trkpt>
      <trkpt lat="44.07633" lon="6.85783">
        <ele>769</ele>
        <time>2020-06-05T06:39:25.000Z</time>
      </trkpt>
      <trkpt lat="44.07632" lon="6.85783">
        <ele>770</ele>
        <time>2020-06-05T06:39:26.000Z</time>
      </trkpt>
      <trkpt lat="44.07632" lon="6.85783">
        <ele>770</ele>
        <time>2020-06-05T06:39:27.000Z</time>
      </trkpt>
      <trkpt lat="44.07632" lon="6.85783">
        <ele>770</ele>
        <time>2020-06-05T06:39:28.000Z</time>
      </trkpt>
      <trkpt lat="44.07633" lon="6.85783">
        <ele>770</ele>
        <time>2020-06-05T06:39:29.000Z</time>
      </trkpt>
      <trkpt lat="44.07632" lon="6.85783">
        <ele>769</ele>
        <time>2020-06-05T06:39:30.000Z</time>
      </trkpt>
      <trkpt lat="44.07632" lon="6.85783">
        <ele>769</ele>
        <time>2020-06-05T06:39:31.000Z</time>
      </trkpt>
      <trkpt lat="44.07632" lon="6.85784">
        <ele>769</ele>
        <time>2020-06-05T06:39:32.000Z</time>
      </trkpt>
      <trkpt lat="44.07632" lon="6.85784">
        <ele>770</ele>
        <time>2020-06-05T06:39:33.000Z</time>
      </trkpt>
      <trkpt lat="44.07632" lon="6.85784">
        <ele>770</ele>
        <time>2020-06-05T06:39:34.000Z</time>
      </trkpt>
      <trkpt lat="44.07632" lon="6.85784">
        <ele>769</ele>
        <time>2020-06-05T06:39:35.000Z</time>
      </trkpt>
      <trkpt lat="44.07632" lon="6.85784">
        <ele>769</ele>
        <time>2020-06-05T06:39:36.000Z</time>
      </trkpt>
      <trkpt lat="44.07632" lon="6.85784">
        <ele>769</ele>
        <time>2020-06-05T06:39:37.000Z</time>
      </trkpt>
      <trkpt lat="44.07632" lon="6.85784">
        <ele>769</ele>
        <time>2020-06-05T06:39:38.000Z</time>
      </trkpt>
      <trkpt lat="44.07632" lon="6.85784">
        <ele>769</ele>
        <time>2020-06-05T06:39:39.000Z</time>
      </trkpt>
      <trkpt lat="44.07632" lon="6.85784">
        <ele>769</ele>
        <time>2020-06-05T06:39:40.000Z</time>
      </trkpt>
      <trkpt lat="44.07632" lon="6.85784">
        <ele>769</ele>
        <time>2020-06-05T06:39:41.000Z</time>
      </trkpt>
      <trkpt lat="44.07632" lon="6.85784">
        <ele>769</ele>
        <time>2020-06-05T06:39:42.000Z</time>
      </trkpt>
      <trkpt lat="44.07632" lon="6.85784">
        <ele>769</ele>
        <time>2020-06-05T06:39:43.000Z</time>
      </trkpt>
      <trkpt lat="44.07632" lon="6.85784">
        <ele>769</ele>
        <time>2020-06-05T06:39:44.000Z</time>
      </trkpt>
      <trkpt lat="44.07632" lon="6.85784">
        <ele>769</ele>
        <time>2020-06-05T06:39:45.000Z</time>
      </trkpt>
      <trkpt lat="44.07632" lon="6.85784">
        <ele>769</ele>
        <time>2020-06-05T06:39:46.000Z</time>
      </trkpt>
      <trkpt lat="44.07632" lon="6.85784">
        <ele>769</ele>
        <time>2020-06-05T06:39:47.000Z</time>
      </trkpt>
      <trkpt lat="44.07631" lon="6.85784">
        <ele>769</ele>
        <time>2020-06-05T06:39:48.000Z</time>
      </trkpt>
      <trkpt lat="44.07631" lon="6.85784">
        <ele>769</ele>
        <time>2020-06-05T06:39:49.000Z</time>
      </trkpt>
      <trkpt lat="44.07632" lon="6.85783">
        <ele>769</ele>
        <time>2020-06-05T06:39:50.000Z</time>
      </trkpt>
      <trkpt lat="44.07632" lon="6.85783">
        <ele>769</ele>
        <time>2020-06-05T06:39:51.000Z</time>
      </trkpt>
      <trkpt lat="44.07632" lon="6.85784">
        <ele>769</ele>
        <time>2020-06-05T06:39:52.000Z</time>
      </trkpt>
      <trkpt lat="44.07632" lon="6.85785">
        <ele>769</ele>
        <time>2020-06-05T06:39:53.000Z</time>
      </trkpt>
      <trkpt lat="44.07632" lon="6.85786">
        <ele>770</ele>
        <time>2020-06-05T06:39:54.000Z</time>
      </trkpt>
      <trkpt lat="44.07632" lon="6.85786">
        <ele>770</ele>
        <time>2020-06-05T06:39:55.000Z</time>
      </trkpt>
      <trkpt lat="44.07632" lon="6.85786">
        <ele>770</ele>
        <time>2020-06-05T06:39:56.000Z</time>
      </trkpt>
      <trkpt lat="44.07632" lon="6.85787">
        <ele>770</ele>
        <time>2020-06-05T06:39:57.000Z</time>
      </trkpt>
      <trkpt lat="44.07633" lon="6.85786">
        <ele>770</ele>
        <time>2020-06-05T06:39:58.000Z</time>
      </trkpt>
      <trkpt lat="44.07632" lon="6.85786">
        <ele>770</ele>
        <time>2020-06-05T06:39:59.000Z</time>
      </trkpt>
      <trkpt lat="44.07632" lon="6.85785">
        <ele>770</ele>
        <time>2020-06-05T06:40:00.000Z</time>
      </trkpt>
      <trkpt lat="44.07632" lon="6.85784">
        <ele>770</ele>
        <time>2020-06-05T06:40:01.000Z</time>
      </trkpt>
      <trkpt lat="44.07632" lon="6.85783">
        <ele>770</ele>
        <time>2020-06-05T06:40:02.000Z</time>
      </trkpt>
      <trkpt lat="44.07633" lon="6.85782">
        <ele>770</ele>
        <time>2020-06-05T06:40:03.000Z</time>
      </trkpt>
      <trkpt lat="44.07633" lon="6.85781">
        <ele>770</ele>
        <time>2020-06-05T06:40:04.000Z</time>
      </trkpt>
      <trkpt lat="44.07633" lon="6.85781">
        <ele>770</ele>
        <time>2020-06-05T06:40:05.000Z</time>
      </trkpt>
      <trkpt lat="44.07634" lon="6.85781">
        <ele>770</ele>
        <time>2020-06-05T06:40:06.000Z</time>
      </trkpt>
      <trkpt lat="44.07634" lon="6.85781">
        <ele>770</ele>
        <time>2020-06-05T06:40:07.000Z</time>
      </trkpt>
      <trkpt lat="44.07634" lon="6.85781">
        <ele>770</ele>
        <time>2020-06-05T06:40:08.000Z</time>
      </trkpt>
      <trkpt lat="44.07634" lon="6.85782">
        <ele>770</ele>
        <time>2020-06-05T06:40:09.000Z</time>
      </trkpt>
      <trkpt lat="44.07634" lon="6.85782">
        <ele>770</ele>
        <time>2020-06-05T06:40:10.000Z</time>
      </trkpt>
      <trkpt lat="44.07635" lon="6.85782">
        <ele>770</ele>
        <time>2020-06-05T06:40:11.000Z</time>
      </trkpt>
      <trkpt lat="44.07635" lon="6.85783">
        <ele>770</ele>
        <time>2020-06-05T06:40:12.000Z</time>
      </trkpt>
      <trkpt lat="44.07635" lon="6.85783">
        <ele>770</ele>
        <time>2020-06-05T06:40:13.000Z</time>
      </trkpt>
      <trkpt lat="44.07635" lon="6.85782">
        <ele>770</ele>
        <time>2020-06-05T06:40:14.000Z</time>
      </trkpt>
      <trkpt lat="44.07635" lon="6.85782">
        <ele>770</ele>
        <time>2020-06-05T06:40:15.000Z</time>
      </trkpt>
      <trkpt lat="44.07634" lon="6.85782">
        <ele>770</ele>
        <time>2020-06-05T06:40:16.000Z</time>
      </trkpt>
      <trkpt lat="44.07634" lon="6.85782">
        <ele>770</ele>
        <time>2020-06-05T06:40:17.000Z</time>
      </trkpt>
      <trkpt lat="44.07634" lon="6.85782">
        <ele>770</ele>
        <time>2020-06-05T06:40:18.000Z</time>
      </trkpt>
      <trkpt lat="44.07634" lon="6.85782">
        <ele>770</ele>
        <time>2020-06-05T06:40:19.000Z</time>
      </trkpt>
      <trkpt lat="44.07634" lon="6.85782">
        <ele>770</ele>
        <time>2020-06-05T06:40:20.000Z</time>
      </trkpt>
      <trkpt lat="44.07634" lon="6.85782">
        <ele>770</ele>
        <time>2020-06-05T06:40:21.000Z</time>
      </trkpt>
      <trkpt lat="44.07634" lon="6.85782">
        <ele>770</ele>
        <time>2020-06-05T06:40:22.000Z</time>
      </trkpt>
      <trkpt lat="44.07634" lon="6.85782">
        <ele>770</ele>
        <time>2020-06-05T06:40:23.000Z</time>
      </trkpt>
      <trkpt lat="44.07634" lon="6.85782">
        <ele>770</ele>
        <time>2020-06-05T06:40:24.000Z</time>
      </trkpt>
      <trkpt lat="44.07634" lon="6.85782">
        <ele>770</ele>
        <time>2020-06-05T06:40:25.000Z</time>
      </trkpt>
      <trkpt lat="44.07635" lon="6.85782">
        <ele>770</ele>
        <time>2020-06-05T06:40:26.000Z</time>
      </trkpt>
      <trkpt lat="44.07635" lon="6.85783">
        <ele>770</ele>
        <time>2020-06-05T06:40:27.000Z</time>
      </trkpt>
      <trkpt lat="44.07636" lon="6.85783">
        <ele>770</ele>
        <time>2020-06-05T06:40:28.000Z</time>
      </trkpt>
      <trkpt lat="44.07636" lon="6.85783">
        <ele>770</ele>
        <time>2020-06-05T06:40:29.000Z</time>
      </trkpt>
      <trkpt lat="44.07635" lon="6.85783">
        <ele>770</ele>
        <time>2020-06-05T06:40:30.000Z</time>
      </trkpt>
      <trkpt lat="44.07635" lon="6.85782">
        <ele>770</ele>
        <time>2020-06-05T06:40:31.000Z</time>
      </trkpt>
      <trkpt lat="44.07634" lon="6.85782">
        <ele>770</ele>
        <time>2020-06-05T06:40:32.000Z</time>
      </trkpt>
      <trkpt lat="44.07633" lon="6.85781">
        <ele>770</ele>
        <time>2020-06-05T06:40:33.000Z</time>
      </trkpt>
      <trkpt lat="44.07633" lon="6.85781">
        <ele>770</ele>
        <time>2020-06-05T06:40:34.000Z</time>
      </trkpt>
      <trkpt lat="44.07632" lon="6.85781">
        <ele>770</ele>
        <time>2020-06-05T06:40:35.000Z</time>
      </trkpt>
      <trkpt lat="44.07632" lon="6.85781">
        <ele>770</ele>
        <time>2020-06-05T06:40:36.000Z</time>
      </trkpt>
      <trkpt lat="44.07632" lon="6.85781">
        <ele>770</ele>
        <time>2020-06-05T06:40:37.000Z</time>
      </trkpt>
      <trkpt lat="44.07632" lon="6.85781">
        <ele>770</ele>
        <time>2020-06-05T06:40:38.000Z</time>
      </trkpt>
      <trkpt lat="44.07631" lon="6.85782">
        <ele>770</ele>
        <time>2020-06-05T06:40:39.000Z</time>
      </trkpt>
      <trkpt lat="44.07631" lon="6.85781">
        <ele>770</ele>
        <time>2020-06-05T06:40:40.000Z</time>
      </trkpt>
      <trkpt lat="44.07631" lon="6.85781">
        <ele>770</ele>
        <time>2020-06-05T06:40:41.000Z</time>
      </trkpt>
      <trkpt lat="44.0763" lon="6.85781">
        <ele>770</ele>
        <time>2020-06-05T06:40:42.000Z</time>
      </trkpt>
      <trkpt lat="44.0763" lon="6.85781">
        <ele>770</ele>
        <time>2020-06-05T06:40:43.000Z</time>
      </trkpt>
      <trkpt lat="44.07629" lon="6.8578">
        <ele>770</ele>
        <time>2020-06-05T06:40:44.000Z</time>
      </trkpt>
      <trkpt lat="44.07629" lon="6.8578">
        <ele>770</ele>
        <time>2020-06-05T06:40:45.000Z</time>
      </trkpt>
      <trkpt lat="44.07629" lon="6.85781">
        <ele>770</ele>
        <time>2020-06-05T06:40:46.000Z</time>
      </trkpt>
      <trkpt lat="44.07628" lon="6.85782">
        <ele>770</ele>
        <time>2020-06-05T06:40:47.000Z</time>
      </trkpt>
      <trkpt lat="44.07628" lon="6.85783">
        <ele>770</ele>
        <time>2020-06-05T06:40:48.000Z</time>
      </trkpt>
      <trkpt lat="44.07627" lon="6.85784">
        <ele>770</ele>
        <time>2020-06-05T06:40:49.000Z</time>
      </trkpt>
      <trkpt lat="44.07626" lon="6.85785">
        <ele>770</ele>
        <time>2020-06-05T06:40:50.000Z</time>
      </trkpt>
      <trkpt lat="44.07625" lon="6.85786">
        <ele>770</ele>
        <time>2020-06-05T06:40:51.000Z</time>
      </trkpt>
      <trkpt lat="44.07624" lon="6.85787">
        <ele>770</ele>
        <time>2020-06-05T06:40:52.000Z</time>
      </trkpt>
      <trkpt lat="44.07623" lon="6.85787">
        <ele>770</ele>
        <time>2020-06-05T06:40:53.000Z</time>
      </trkpt>
      <trkpt lat="44.07622" lon="6.85788">
        <ele>770</ele>
        <time>2020-06-05T06:40:54.000Z</time>
      </trkpt>
      <trkpt lat="44.07621" lon="6.85788">
        <ele>770</ele>
        <time>2020-06-05T06:40:55.000Z</time>
      </trkpt>
      <trkpt lat="44.0762" lon="6.85789">
        <ele>770</ele>
        <time>2020-06-05T06:40:56.000Z</time>
      </trkpt>
      <trkpt lat="44.07619" lon="6.8579">
        <ele>770</ele>
        <time>2020-06-05T06:40:57.000Z</time>
      </trkpt>
      <trkpt lat="44.07618" lon="6.8579">
        <ele>771</ele>
        <time>2020-06-05T06:40:58.000Z</time>
      </trkpt>
      <trkpt lat="44.07617" lon="6.85791">
        <ele>771</ele>
        <time>2020-06-05T06:40:59.000Z</time>
      </trkpt>
      <trkpt lat="44.07616" lon="6.85791">
        <ele>771</ele>
        <time>2020-06-05T06:41:00.000Z</time>
      </trkpt>
      <trkpt lat="44.07615" lon="6.85792">
        <ele>771</ele>
        <time>2020-06-05T06:41:01.000Z</time>
      </trkpt>
      <trkpt lat="44.07614" lon="6.85793">
        <ele>771</ele>
        <time>2020-06-05T06:41:02.000Z</time>
      </trkpt>
      <trkpt lat="44.07613" lon="6.85793">
        <ele>771</ele>
        <time>2020-06-05T06:41:03.000Z</time>
      </trkpt>
      <trkpt lat="44.07612" lon="6.85794">
        <ele>771</ele>
        <time>2020-06-05T06:41:04.000Z</time>
      </trkpt>
      <trkpt lat="44.07612" lon="6.85794">
        <ele>771</ele>
        <time>2020-06-05T06:41:05.000Z</time>
      </trkpt>
      <trkpt lat="44.07611" lon="6.85795">
        <ele>771</ele>
        <time>2020-06-05T06:41:06.000Z</time>
      </trkpt>
      <trkpt lat="44.0761" lon="6.85795">
        <ele>771</ele>
        <time>2020-06-05T06:41:07.000Z</time>
      </trkpt>
      <trkpt lat="44.07609" lon="6.85796">
        <ele>771</ele>
        <time>2020-06-05T06:41:08.000Z</time>
      </trkpt>
      <trkpt lat="44.07608" lon="6.85797">
        <ele>771</ele>
        <time>2020-06-05T06:41:09.000Z</time>
      </trkpt>
      <trkpt lat="44.07607" lon="6.85797">
        <ele>771</ele>
        <time>2020-06-05T06:41:10.000Z</time>
      </trkpt>
      <trkpt lat="44.07607" lon="6.85798">
        <ele>771</ele>
        <time>2020-06-05T06:41:11.000Z</time>
      </trkpt>
      <trkpt lat="44.07606" lon="6.85798">
        <ele>771</ele>
        <time>2020-06-05T06:41:12.000Z</time>
      </trkpt>
      <trkpt lat="44.07605" lon="6.85799">
        <ele>771</ele>
        <time>2020-06-05T06:41:13.000Z</time>
      </trkpt>
      <trkpt lat="44.07604" lon="6.858">
        <ele>771</ele>
        <time>2020-06-05T06:41:14.000Z</time>
      </trkpt>
      <trkpt lat="44.07603" lon="6.858">
        <ele>771</ele>
        <time>2020-06-05T06:41:15.000Z</time>
      </trkpt>
      <trkpt lat="44.07602" lon="6.85801">
        <ele>771</ele>
        <time>2020-06-05T06:41:16.000Z</time>
      </trkpt>
      <trkpt lat="44.07601" lon="6.85801">
        <ele>771</ele>
        <time>2020-06-05T06:41:17.000Z</time>
      </trkpt>
      <trkpt lat="44.076" lon="6.85801">
        <ele>771</ele>
        <time>2020-06-05T06:41:18.000Z</time>
      </trkpt>
      <trkpt lat="44.07599" lon="6.85801">
        <ele>771</ele>
        <time>2020-06-05T06:41:19.000Z</time>
      </trkpt>
      <trkpt lat="44.07598" lon="6.85802">
        <ele>771</ele>
        <time>2020-06-05T06:41:20.000Z</time>
      </trkpt>
      <trkpt lat="44.07597" lon="6.85802">
        <ele>771</ele>
        <time>2020-06-05T06:41:21.000Z</time>
      </trkpt>
      <trkpt lat="44.07596" lon="6.85802">
        <ele>771</ele>
        <time>2020-06-05T06:41:22.000Z</time>
      </trkpt>
      <trkpt lat="44.07595" lon="6.85802">
        <ele>771</ele>
        <time>2020-06-05T06:41:23.000Z</time>
      </trkpt>
      <trkpt lat="44.07593" lon="6.85803">
        <ele>771</ele>
        <time>2020-06-05T06:41:24.000Z</time>
      </trkpt>
      <trkpt lat="44.07592" lon="6.85803">
        <ele>772</ele>
        <time>2020-06-05T06:41:25.000Z</time>
      </trkpt>
      <trkpt lat="44.07591" lon="6.85803">
        <ele>772</ele>
        <time>2020-06-05T06:41:26.000Z</time>
      </trkpt>
      <trkpt lat="44.07589" lon="6.85804">
        <ele>772</ele>
        <time>2020-06-05T06:41:27.000Z</time>
      </trkpt>
      <trkpt lat="44.07588" lon="6.85804">
        <ele>772</ele>
        <time>2020-06-05T06:41:28.000Z</time>
      </trkpt>
      <trkpt lat="44.07587" lon="6.85804">
        <ele>772</ele>
        <time>2020-06-05T06:41:29.000Z</time>
      </trkpt>
      <trkpt lat="44.07586" lon="6.85804">
        <ele>772</ele>
        <time>2020-06-05T06:41:30.000Z</time>
      </trkpt>
      <trkpt lat="44.07584" lon="6.85805">
        <ele>772</ele>
        <time>2020-06-05T06:41:31.000Z</time>
      </trkpt>
      <trkpt lat="44.07583" lon="6.85805">
        <ele>772</ele>
        <time>2020-06-05T06:41:32.000Z</time>
      </trkpt>
      <trkpt lat="44.07582" lon="6.85805">
        <ele>773</ele>
        <time>2020-06-05T06:41:33.000Z</time>
      </trkpt>
      <trkpt lat="44.0758" lon="6.85805">
        <ele>773</ele>
        <time>2020-06-05T06:41:34.000Z</time>
      </trkpt>
      <trkpt lat="44.07579" lon="6.85804">
        <ele>773</ele>
        <time>2020-06-05T06:41:35.000Z</time>
      </trkpt>
      <trkpt lat="44.07578" lon="6.85804">
        <ele>773</ele>
        <time>2020-06-05T06:41:36.000Z</time>
      </trkpt>
      <trkpt lat="44.07577" lon="6.85803">
        <ele>773</ele>
        <time>2020-06-05T06:41:37.000Z</time>
      </trkpt>
      <trkpt lat="44.07576" lon="6.85803">
        <ele>773</ele>
        <time>2020-06-05T06:41:38.000Z</time>
      </trkpt>
      <trkpt lat="44.07575" lon="6.85802">
        <ele>773</ele>
        <time>2020-06-05T06:41:39.000Z</time>
      </trkpt>
      <trkpt lat="44.07574" lon="6.85801">
        <ele>773</ele>
        <time>2020-06-05T06:41:40.000Z</time>
      </trkpt>
      <trkpt lat="44.07573" lon="6.858">
        <ele>773</ele>
        <time>2020-06-05T06:41:41.000Z</time>
      </trkpt>
      <trkpt lat="44.07572" lon="6.85799">
        <ele>773</ele>
        <time>2020-06-05T06:41:42.000Z</time>
      </trkpt>
      <trkpt lat="44.07572" lon="6.85798">
        <ele>773</ele>
        <time>2020-06-05T06:41:43.000Z</time>
      </trkpt>
      <trkpt lat="44.07571" lon="6.85796">
        <ele>773</ele>
        <time>2020-06-05T06:41:44.000Z</time>
      </trkpt>
      <trkpt lat="44.0757" lon="6.85795">
        <ele>773</ele>
        <time>2020-06-05T06:41:45.000Z</time>
      </trkpt>
      <trkpt lat="44.07569" lon="6.85794">
        <ele>773</ele>
        <time>2020-06-05T06:41:46.000Z</time>
      </trkpt>
      <trkpt lat="44.07569" lon="6.85793">
        <ele>773</ele>
        <time>2020-06-05T06:41:47.000Z</time>
      </trkpt>
      <trkpt lat="44.07568" lon="6.85792">
        <ele>773</ele>
        <time>2020-06-05T06:41:48.000Z</time>
      </trkpt>
      <trkpt lat="44.07568" lon="6.85791">
        <ele>773</ele>
        <time>2020-06-05T06:41:49.000Z</time>
      </trkpt>
      <trkpt lat="44.07567" lon="6.8579">
        <ele>773</ele>
        <time>2020-06-05T06:41:50.000Z</time>
      </trkpt>
      <trkpt lat="44.07567" lon="6.85788">
        <ele>773</ele>
        <time>2020-06-05T06:41:51.000Z</time>
      </trkpt>
      <trkpt lat="44.07566" lon="6.85787">
        <ele>773</ele>
        <time>2020-06-05T06:41:52.000Z</time>
      </trkpt>
      <trkpt lat="44.07565" lon="6.85786">
        <ele>773</ele>
        <time>2020-06-05T06:41:53.000Z</time>
      </trkpt>
      <trkpt lat="44.07565" lon="6.85785">
        <ele>773</ele>
        <time>2020-06-05T06:41:54.000Z</time>
      </trkpt>
      <trkpt lat="44.07565" lon="6.85783">
        <ele>773</ele>
        <time>2020-06-05T06:41:55.000Z</time>
      </trkpt>
      <trkpt lat="44.07565" lon="6.85782">
        <ele>773</ele>
        <time>2020-06-05T06:41:56.000Z</time>
      </trkpt>
      <trkpt lat="44.07565" lon="6.85781">
        <ele>773</ele>
        <time>2020-06-05T06:41:57.000Z</time>
      </trkpt>
      <trkpt lat="44.07565" lon="6.85779">
        <ele>773</ele>
        <time>2020-06-05T06:41:58.000Z</time>
      </trkpt>
      <trkpt lat="44.07566" lon="6.85778">
        <ele>773</ele>
        <time>2020-06-05T06:41:59.000Z</time>
      </trkpt>
      <trkpt lat="44.07566" lon="6.85777">
        <ele>773</ele>
        <time>2020-06-05T06:42:00.000Z</time>
      </trkpt>
      <trkpt lat="44.07566" lon="6.85776">
        <ele>772</ele>
        <time>2020-06-05T06:42:01.000Z</time>
      </trkpt>
      <trkpt lat="44.07567" lon="6.85775">
        <ele>772</ele>
        <time>2020-06-05T06:42:02.000Z</time>
      </trkpt>
      <trkpt lat="44.07567" lon="6.85773">
        <ele>772</ele>
        <time>2020-06-05T06:42:03.000Z</time>
      </trkpt>
      <trkpt lat="44.07568" lon="6.85772">
        <ele>772</ele>
        <time>2020-06-05T06:42:04.000Z</time>
      </trkpt>
      <trkpt lat="44.07568" lon="6.85772">
        <ele>772</ele>
        <time>2020-06-05T06:42:05.000Z</time>
      </trkpt>
      <trkpt lat="44.07569" lon="6.85771">
        <ele>772</ele>
        <time>2020-06-05T06:42:06.000Z</time>
      </trkpt>
      <trkpt lat="44.07569" lon="6.85771">
        <ele>772</ele>
        <time>2020-06-05T06:42:07.000Z</time>
      </trkpt>
      <trkpt lat="44.0757" lon="6.85771">
        <ele>772</ele>
        <time>2020-06-05T06:42:08.000Z</time>
      </trkpt>
      <trkpt lat="44.0757" lon="6.8577">
        <ele>772</ele>
        <time>2020-06-05T06:42:09.000Z</time>
      </trkpt>
      <trkpt lat="44.0757" lon="6.85769">
        <ele>772</ele>
        <time>2020-06-05T06:42:10.000Z</time>
      </trkpt>
      <trkpt lat="44.07571" lon="6.85767">
        <ele>772</ele>
        <time>2020-06-05T06:42:11.000Z</time>
      </trkpt>
      <trkpt lat="44.07571" lon="6.85766">
        <ele>771</ele>
        <time>2020-06-05T06:42:12.000Z</time>
      </trkpt>
      <trkpt lat="44.07572" lon="6.85765">
        <ele>771</ele>
        <time>2020-06-05T06:42:13.000Z</time>
      </trkpt>
      <trkpt lat="44.07573" lon="6.85764">
        <ele>771</ele>
        <time>2020-06-05T06:42:14.000Z</time>
      </trkpt>
      <trkpt lat="44.07574" lon="6.85763">
        <ele>771</ele>
        <time>2020-06-05T06:42:15.000Z</time>
      </trkpt>
      <trkpt lat="44.07574" lon="6.85762">
        <ele>771</ele>
        <time>2020-06-05T06:42:16.000Z</time>
      </trkpt>
      <trkpt lat="44.07575" lon="6.8576">
        <ele>771</ele>
        <time>2020-06-05T06:42:17.000Z</time>
      </trkpt>
      <trkpt lat="44.07576" lon="6.85759">
        <ele>771</ele>
        <time>2020-06-05T06:42:18.000Z</time>
      </trkpt>
      <trkpt lat="44.07576" lon="6.85758">
        <ele>771</ele>
        <time>2020-06-05T06:42:19.000Z</time>
      </trkpt>
      <trkpt lat="44.07577" lon="6.85757">
        <ele>771</ele>
        <time>2020-06-05T06:42:20.000Z</time>
      </trkpt>
      <trkpt lat="44.07578" lon="6.85756">
        <ele>771</ele>
        <time>2020-06-05T06:42:21.000Z</time>
      </trkpt>
      <trkpt lat="44.07578" lon="6.85755">
        <ele>771</ele>
        <time>2020-06-05T06:42:22.000Z</time>
      </trkpt>
      <trkpt lat="44.07579" lon="6.85753">
        <ele>771</ele>
        <time>2020-06-05T06:42:23.000Z</time>
      </trkpt>
      <trkpt lat="44.07579" lon="6.85752">
        <ele>771</ele>
        <time>2020-06-05T06:42:24.000Z</time>
      </trkpt>
      <trkpt lat="44.0758" lon="6.8575">
        <ele>771</ele>
        <time>2020-06-05T06:42:25.000Z</time>
      </trkpt>
      <trkpt lat="44.0758" lon="6.85749">
        <ele>771</ele>
        <time>2020-06-05T06:42:26.000Z</time>
      </trkpt>
      <trkpt lat="44.07581" lon="6.85748">
        <ele>771</ele>
        <time>2020-06-05T06:42:27.000Z</time>
      </trkpt>
      <trkpt lat="44.07581" lon="6.85747">
        <ele>771</ele>
        <time>2020-06-05T06:42:28.000Z</time>
      </trkpt>
      <trkpt lat="44.07582" lon="6.85745">
        <ele>771</ele>
        <time>2020-06-05T06:42:29.000Z</time>
      </trkpt>
      <trkpt lat="44.07583" lon="6.85744">
        <ele>771</ele>
        <time>2020-06-05T06:42:30.000Z</time>
      </trkpt>
      <trkpt lat="44.07583" lon="6.85742">
        <ele>771</ele>
        <time>2020-06-05T06:42:31.000Z</time>
      </trkpt>
      <trkpt lat="44.07584" lon="6.85741">
        <ele>771</ele>
        <time>2020-06-05T06:42:32.000Z</time>
      </trkpt>
      <trkpt lat="44.07585" lon="6.8574">
        <ele>772</ele>
        <time>2020-06-05T06:42:33.000Z</time>
      </trkpt>
      <trkpt lat="44.07585" lon="6.85739">
        <ele>772</ele>
        <time>2020-06-05T06:42:34.000Z</time>
      </trkpt>
      <trkpt lat="44.07586" lon="6.85738">
        <ele>772</ele>
        <time>2020-06-05T06:42:35.000Z</time>
      </trkpt>
      <trkpt lat="44.07587" lon="6.85736">
        <ele>772</ele>
        <time>2020-06-05T06:42:36.000Z</time>
      </trkpt>
      <trkpt lat="44.07587" lon="6.85735">
        <ele>772</ele>
        <time>2020-06-05T06:42:37.000Z</time>
      </trkpt>
      <trkpt lat="44.07588" lon="6.85734">
        <ele>772</ele>
        <time>2020-06-05T06:42:38.000Z</time>
      </trkpt>
      <trkpt lat="44.07589" lon="6.85733">
        <ele>772</ele>
        <time>2020-06-05T06:42:39.000Z</time>
      </trkpt>
      <trkpt lat="44.0759" lon="6.85732">
        <ele>772</ele>
        <time>2020-06-05T06:42:40.000Z</time>
      </trkpt>
      <trkpt lat="44.07591" lon="6.85731">
        <ele>772</ele>
        <time>2020-06-05T06:42:41.000Z</time>
      </trkpt>
      <trkpt lat="44.07591" lon="6.8573">
        <ele>772</ele>
        <time>2020-06-05T06:42:42.000Z</time>
      </trkpt>
      <trkpt lat="44.07592" lon="6.85729">
        <ele>772</ele>
        <time>2020-06-05T06:42:43.000Z</time>
      </trkpt>
      <trkpt lat="44.07593" lon="6.85728">
        <ele>772</ele>
        <time>2020-06-05T06:42:44.000Z</time>
      </trkpt>
      <trkpt lat="44.07594" lon="6.85727">
        <ele>772</ele>
        <time>2020-06-05T06:42:45.000Z</time>
      </trkpt>
      <trkpt lat="44.07595" lon="6.85727">
        <ele>772</ele>
        <time>2020-06-05T06:42:46.000Z</time>
      </trkpt>
      <trkpt lat="44.07595" lon="6.85726">
        <ele>772</ele>
        <time>2020-06-05T06:42:47.000Z</time>
      </trkpt>
      <trkpt lat="44.07596" lon="6.85725">
        <ele>773</ele>
        <time>2020-06-05T06:42:48.000Z</time>
      </trkpt>
      <trkpt lat="44.07597" lon="6.85724">
        <ele>773</ele>
        <time>2020-06-05T06:42:49.000Z</time>
      </trkpt>
      <trkpt lat="44.07597" lon="6.85723">
        <ele>773</ele>
        <time>2020-06-05T06:42:50.000Z</time>
      </trkpt>
      <trkpt lat="44.07598" lon="6.85722">
        <ele>773</ele>
        <time>2020-06-05T06:42:51.000Z</time>
      </trkpt>
      <trkpt lat="44.07599" lon="6.85721">
        <ele>773</ele>
        <time>2020-06-05T06:42:52.000Z</time>
      </trkpt>
      <trkpt lat="44.07599" lon="6.8572">
        <ele>773</ele>
        <time>2020-06-05T06:42:53.000Z</time>
      </trkpt>
      <trkpt lat="44.076" lon="6.85719">
        <ele>773</ele>
        <time>2020-06-05T06:42:54.000Z</time>
      </trkpt>
      <trkpt lat="44.076" lon="6.85718">
        <ele>773</ele>
        <time>2020-06-05T06:42:55.000Z</time>
      </trkpt>
      <trkpt lat="44.07601" lon="6.85718">
        <ele>773</ele>
        <time>2020-06-05T06:42:56.000Z</time>
      </trkpt>
      <trkpt lat="44.07601" lon="6.85717">
        <ele>773</ele>
        <time>2020-06-05T06:42:57.000Z</time>
      </trkpt>
      <trkpt lat="44.07601" lon="6.85717">
        <ele>773</ele>
        <time>2020-06-05T06:42:58.000Z</time>
      </trkpt>
      <trkpt lat="44.07601" lon="6.85717">
        <ele>774</ele>
        <time>2020-06-05T06:42:59.000Z</time>
      </trkpt>
      <trkpt lat="44.07601" lon="6.85716">
        <ele>774</ele>
        <time>2020-06-05T06:43:00.000Z</time>
      </trkpt>
      <trkpt lat="44.07601" lon="6.85715">
        <ele>774</ele>
        <time>2020-06-05T06:43:01.000Z</time>
      </trkpt>
      <trkpt lat="44.07601" lon="6.85715">
        <ele>774</ele>
        <time>2020-06-05T06:43:02.000Z</time>
      </trkpt>
      <trkpt lat="44.076" lon="6.85714">
        <ele>774</ele>
        <time>2020-06-05T06:43:03.000Z</time>
      </trkpt>
      <trkpt lat="44.076" lon="6.85714">
        <ele>774</ele>
        <time>2020-06-05T06:43:04.000Z</time>
      </trkpt>
      <trkpt lat="44.07599" lon="6.85714">
        <ele>775</ele>
        <time>2020-06-05T06:43:05.000Z</time>
      </trkpt>
      <trkpt lat="44.07599" lon="6.85714">
        <ele>775</ele>
        <time>2020-06-05T06:43:06.000Z</time>
      </trkpt>
      <trkpt lat="44.07599" lon="6.85714">
        <ele>775</ele>
        <time>2020-06-05T06:43:07.000Z</time>
      </trkpt>
      <trkpt lat="44.07598" lon="6.85714">
        <ele>775</ele>
        <time>2020-06-05T06:43:08.000Z</time>
      </trkpt>
      <trkpt lat="44.07598" lon="6.85714">
        <ele>775</ele>
        <time>2020-06-05T06:43:09.000Z</time>
      </trkpt>
      <trkpt lat="44.07597" lon="6.85714">
        <ele>776</ele>
        <time>2020-06-05T06:43:10.000Z</time>
      </trkpt>
      <trkpt lat="44.07596" lon="6.85714">
        <ele>776</ele>
        <time>2020-06-05T06:43:11.000Z</time>
      </trkpt>
      <trkpt lat="44.07596" lon="6.85715">
        <ele>776</ele>
        <time>2020-06-05T06:43:12.000Z</time>
      </trkpt>
      <trkpt lat="44.07596" lon="6.85715">
        <ele>776</ele>
        <time>2020-06-05T06:43:13.000Z</time>
      </trkpt>
      <trkpt lat="44.07595" lon="6.85715">
        <ele>776</ele>
        <time>2020-06-05T06:43:14.000Z</time>
      </trkpt>
      <trkpt lat="44.07595" lon="6.85715">
        <ele>777</ele>
        <time>2020-06-05T06:43:15.000Z</time>
      </trkpt>
      <trkpt lat="44.07594" lon="6.85715">
        <ele>777</ele>
        <time>2020-06-05T06:43:16.000Z</time>
      </trkpt>
      <trkpt lat="44.07594" lon="6.85716">
        <ele>777</ele>
        <time>2020-06-05T06:43:17.000Z</time>
      </trkpt>
      <trkpt lat="44.07594" lon="6.85716">
        <ele>777</ele>
        <time>2020-06-05T06:43:18.000Z</time>
      </trkpt>
      <trkpt lat="44.07593" lon="6.85716">
        <ele>778</ele>
        <time>2020-06-05T06:43:19.000Z</time>
      </trkpt>
      <trkpt lat="44.07593" lon="6.85717">
        <ele>778</ele>
        <time>2020-06-05T06:43:20.000Z</time>
      </trkpt>
      <trkpt lat="44.07592" lon="6.85717">
        <ele>778</ele>
        <time>2020-06-05T06:43:21.000Z</time>
      </trkpt>
      <trkpt lat="44.07592" lon="6.85718">
        <ele>779</ele>
        <time>2020-06-05T06:43:22.000Z</time>
      </trkpt>
      <trkpt lat="44.07592" lon="6.85718">
        <ele>779</ele>
        <time>2020-06-05T06:43:23.000Z</time>
      </trkpt>
      <trkpt lat="44.07591" lon="6.85718">
        <ele>779</ele>
        <time>2020-06-05T06:43:24.000Z</time>
      </trkpt>
      <trkpt lat="44.07591" lon="6.85718">
        <ele>780</ele>
        <time>2020-06-05T06:43:25.000Z</time>
      </trkpt>
      <trkpt lat="44.07591" lon="6.85718">
        <ele>780</ele>
        <time>2020-06-05T06:43:26.000Z</time>
      </trkpt>
      <trkpt lat="44.07591" lon="6.85718">
        <ele>780</ele>
        <time>2020-06-05T06:43:27.000Z</time>
      </trkpt>
      <trkpt lat="44.07591" lon="6.85717">
        <ele>781</ele>
        <time>2020-06-05T06:43:28.000Z</time>
      </trkpt>
      <trkpt lat="44.07591" lon="6.85717">
        <ele>781</ele>
        <time>2020-06-05T06:43:29.000Z</time>
      </trkpt>
      <trkpt lat="44.07591" lon="6.85717">
        <ele>781</ele>
        <time>2020-06-05T06:43:30.000Z</time>
      </trkpt>
      <trkpt lat="44.07591" lon="6.85717">
        <ele>782</ele>
        <time>2020-06-05T06:43:31.000Z</time>
      </trkpt>
      <trkpt lat="44.07592" lon="6.85716">
        <ele>782</ele>
        <time>2020-06-05T06:43:32.000Z</time>
      </trkpt>
      <trkpt lat="44.07592" lon="6.85715">
        <ele>782</ele>
        <time>2020-06-05T06:43:33.000Z</time>
      </trkpt>
      <trkpt lat="44.07592" lon="6.85715">
        <ele>783</ele>
        <time>2020-06-05T06:43:34.000Z</time>
      </trkpt>
      <trkpt lat="44.07593" lon="6.85714">
        <ele>783</ele>
        <time>2020-06-05T06:43:35.000Z</time>
      </trkpt>
      <trkpt lat="44.07593" lon="6.85713">
        <ele>783</ele>
        <time>2020-06-05T06:43:36.000Z</time>
      </trkpt>
      <trkpt lat="44.07594" lon="6.85712">
        <ele>783</ele>
        <time>2020-06-05T06:43:37.000Z</time>
      </trkpt>
      <trkpt lat="44.07594" lon="6.85711">
        <ele>784</ele>
        <time>2020-06-05T06:43:38.000Z</time>
      </trkpt>
      <trkpt lat="44.07595" lon="6.8571">
        <ele>784</ele>
        <time>2020-06-05T06:43:39.000Z</time>
      </trkpt>
      <trkpt lat="44.07595" lon="6.85709">
        <ele>784</ele>
        <time>2020-06-05T06:43:40.000Z</time>
      </trkpt>
      <trkpt lat="44.07595" lon="6.85708">
        <ele>784</ele>
        <time>2020-06-05T06:43:41.000Z</time>
      </trkpt>
      <trkpt lat="44.07595" lon="6.85708">
        <ele>785</ele>
        <time>2020-06-05T06:43:42.000Z</time>
      </trkpt>
      <trkpt lat="44.07595" lon="6.85707">
        <ele>785</ele>
        <time>2020-06-05T06:43:43.000Z</time>
      </trkpt>
      <trkpt lat="44.07595" lon="6.85707">
        <ele>785</ele>
        <time>2020-06-05T06:43:44.000Z</time>
      </trkpt>
      <trkpt lat="44.07594" lon="6.85708">
        <ele>785</ele>
        <time>2020-06-05T06:43:45.000Z</time>
      </trkpt>
      <trkpt lat="44.07593" lon="6.85708">
        <ele>785</ele>
        <time>2020-06-05T06:43:46.000Z</time>
      </trkpt>
      <trkpt lat="44.07593" lon="6.85708">
        <ele>786</ele>
        <time>2020-06-05T06:43:47.000Z</time>
      </trkpt>
      <trkpt lat="44.07592" lon="6.85708">
        <ele>786</ele>
        <time>2020-06-05T06:43:48.000Z</time>
      </trkpt>
      <trkpt lat="44.07591" lon="6.85709">
        <ele>786</ele>
        <time>2020-06-05T06:43:49.000Z</time>
      </trkpt>
      <trkpt lat="44.07591" lon="6.85709">
        <ele>786</ele>
        <time>2020-06-05T06:43:50.000Z</time>
      </trkpt>
      <trkpt lat="44.0759" lon="6.85709">
        <ele>786</ele>
        <time>2020-06-05T06:43:51.000Z</time>
      </trkpt>
      <trkpt lat="44.0759" lon="6.85709">
        <ele>786</ele>
        <time>2020-06-05T06:43:52.000Z</time>
      </trkpt>
      <trkpt lat="44.07589" lon="6.8571">
        <ele>786</ele>
        <time>2020-06-05T06:43:53.000Z</time>
      </trkpt>
      <trkpt lat="44.07589" lon="6.8571">
        <ele>786</ele>
        <time>2020-06-05T06:43:54.000Z</time>
      </trkpt>
      <trkpt lat="44.07589" lon="6.8571">
        <ele>786</ele>
        <time>2020-06-05T06:43:55.000Z</time>
      </trkpt>
      <trkpt lat="44.07588" lon="6.85711">
        <ele>786</ele>
        <time>2020-06-05T06:43:56.000Z</time>
      </trkpt>
      <trkpt lat="44.07588" lon="6.85711">
        <ele>786</ele>
        <time>2020-06-05T06:43:57.000Z</time>
      </trkpt>
      <trkpt lat="44.07588" lon="6.85712">
        <ele>786</ele>
        <time>2020-06-05T06:43:58.000Z</time>
      </trkpt>
      <trkpt lat="44.07587" lon="6.85712">
        <ele>786</ele>
        <time>2020-06-05T06:43:59.000Z</time>
      </trkpt>
      <trkpt lat="44.07587" lon="6.85712">
        <ele>786</ele>
        <time>2020-06-05T06:44:00.000Z</time>
      </trkpt>
      <trkpt lat="44.07587" lon="6.85712">
        <ele>786</ele>
        <time>2020-06-05T06:44:01.000Z</time>
      </trkpt>
      <trkpt lat="44.07586" lon="6.85712">
        <ele>786</ele>
        <time>2020-06-05T06:44:02.000Z</time>
      </trkpt>
      <trkpt lat="44.07586" lon="6.85713">
        <ele>786</ele>
        <time>2020-06-05T06:44:03.000Z</time>
      </trkpt>
      <trkpt lat="44.07586" lon="6.85714">
        <ele>786</ele>
        <time>2020-06-05T06:44:04.000Z</time>
      </trkpt>
      <trkpt lat="44.07585" lon="6.85714">
        <ele>786</ele>
        <time>2020-06-05T06:44:05.000Z</time>
      </trkpt>
      <trkpt lat="44.07585" lon="6.85715">
        <ele>786</ele>
        <time>2020-06-05T06:44:06.000Z</time>
      </trkpt>
      <trkpt lat="44.07585" lon="6.85715">
        <ele>786</ele>
        <time>2020-06-05T06:44:07.000Z</time>
      </trkpt>
      <trkpt lat="44.07585" lon="6.85716">
        <ele>786</ele>
        <time>2020-06-05T06:44:08.000Z</time>
      </trkpt>
      <trkpt lat="44.07584" lon="6.85717">
        <ele>786</ele>
        <time>2020-06-05T06:44:09.000Z</time>
      </trkpt>
      <trkpt lat="44.07584" lon="6.85718">
        <ele>786</ele>
        <time>2020-06-05T06:44:10.000Z</time>
      </trkpt>
      <trkpt lat="44.07583" lon="6.85718">
        <ele>786</ele>
        <time>2020-06-05T06:44:11.000Z</time>
      </trkpt>
      <trkpt lat="44.07582" lon="6.85719">
        <ele>786</ele>
        <time>2020-06-05T06:44:12.000Z</time>
      </trkpt>
      <trkpt lat="44.07582" lon="6.8572">
        <ele>786</ele>
        <time>2020-06-05T06:44:13.000Z</time>
      </trkpt>
      <trkpt lat="44.07581" lon="6.8572">
        <ele>786</ele>
        <time>2020-06-05T06:44:14.000Z</time>
      </trkpt>
      <trkpt lat="44.07581" lon="6.85721">
        <ele>786</ele>
        <time>2020-06-05T06:44:15.000Z</time>
      </trkpt>
      <trkpt lat="44.0758" lon="6.85722">
        <ele>786</ele>
        <time>2020-06-05T06:44:16.000Z</time>
      </trkpt>
      <trkpt lat="44.07579" lon="6.85722">
        <ele>786</ele>
        <time>2020-06-05T06:44:17.000Z</time>
      </trkpt>
      <trkpt lat="44.07579" lon="6.85723">
        <ele>786</ele>
        <time>2020-06-05T06:44:18.000Z</time>
      </trkpt>
      <trkpt lat="44.07578" lon="6.85724">
        <ele>786</ele>
        <time>2020-06-05T06:44:19.000Z</time>
      </trkpt>
      <trkpt lat="44.07577" lon="6.85724">
        <ele>786</ele>
        <time>2020-06-05T06:44:20.000Z</time>
      </trkpt>
      <trkpt lat="44.07577" lon="6.85725">
        <ele>786</ele>
        <time>2020-06-05T06:44:21.000Z</time>
      </trkpt>
      <trkpt lat="44.07576" lon="6.85726">
        <ele>786</ele>
        <time>2020-06-05T06:44:22.000Z</time>
      </trkpt>
      <trkpt lat="44.07576" lon="6.85727">
        <ele>786</ele>
        <time>2020-06-05T06:44:23.000Z</time>
      </trkpt>
      <trkpt lat="44.07575" lon="6.85727">
        <ele>786</ele>
        <time>2020-06-05T06:44:24.000Z</time>
      </trkpt>
      <trkpt lat="44.07574" lon="6.85728">
        <ele>786</ele>
        <time>2020-06-05T06:44:25.000Z</time>
      </trkpt>
      <trkpt lat="44.07573" lon="6.85728">
        <ele>786</ele>
        <time>2020-06-05T06:44:26.000Z</time>
      </trkpt>
      <trkpt lat="44.07573" lon="6.85729">
        <ele>786</ele>
        <time>2020-06-05T06:44:27.000Z</time>
      </trkpt>
      <trkpt lat="44.07572" lon="6.85729">
        <ele>786</ele>
        <time>2020-06-05T06:44:28.000Z</time>
      </trkpt>
      <trkpt lat="44.07572" lon="6.8573">
        <ele>786</ele>
        <time>2020-06-05T06:44:29.000Z</time>
      </trkpt>
      <trkpt lat="44.07571" lon="6.8573">
        <ele>786</ele>
        <time>2020-06-05T06:44:30.000Z</time>
      </trkpt>
      <trkpt lat="44.0757" lon="6.85731">
        <ele>786</ele>
        <time>2020-06-05T06:44:31.000Z</time>
      </trkpt>
      <trkpt lat="44.0757" lon="6.85731">
        <ele>786</ele>
        <time>2020-06-05T06:44:32.000Z</time>
      </trkpt>
      <trkpt lat="44.07569" lon="6.85732">
        <ele>786</ele>
        <time>2020-06-05T06:44:33.000Z</time>
      </trkpt>
      <trkpt lat="44.07569" lon="6.85733">
        <ele>786</ele>
        <time>2020-06-05T06:44:34.000Z</time>
      </trkpt>
      <trkpt lat="44.07568" lon="6.85734">
        <ele>786</ele>
        <time>2020-06-05T06:44:35.000Z</time>
      </trkpt>
      <trkpt lat="44.07568" lon="6.85734">
        <ele>786</ele>
        <time>2020-06-05T06:44:36.000Z</time>
      </trkpt>
      <trkpt lat="44.07567" lon="6.85735">
        <ele>786</ele>
        <time>2020-06-05T06:44:37.000Z</time>
      </trkpt>
      <trkpt lat="44.07567" lon="6.85735">
        <ele>786</ele>
        <time>2020-06-05T06:44:38.000Z</time>
      </trkpt>
      <trkpt lat="44.07567" lon="6.85735">
        <ele>786</ele>
        <time>2020-06-05T06:44:39.000Z</time>
      </trkpt>
      <trkpt lat="44.07567" lon="6.85735">
        <ele>786</ele>
        <time>2020-06-05T06:44:40.000Z</time>
      </trkpt>
      <trkpt lat="44.07567" lon="6.85735">
        <ele>786</ele>
        <time>2020-06-05T06:44:41.000Z</time>
      </trkpt>
      <trkpt lat="44.07567" lon="6.85735">
        <ele>786</ele>
        <time>2020-06-05T06:44:42.000Z</time>
      </trkpt>
      <trkpt lat="44.07567" lon="6.85735">
        <ele>786</ele>
        <time>2020-06-05T06:44:43.000Z</time>
      </trkpt>
      <trkpt lat="44.07567" lon="6.85735">
        <ele>786</ele>
        <time>2020-06-05T06:44:44.000Z</time>
      </trkpt>
      <trkpt lat="44.07567" lon="6.85735">
        <ele>786</ele>
        <time>2020-06-05T06:44:45.000Z</time>
      </trkpt>
      <trkpt lat="44.07567" lon="6.85735">
        <ele>786</ele>
        <time>2020-06-05T06:44:46.000Z</time>
      </trkpt>
      <trkpt lat="44.07567" lon="6.85735">
        <ele>786</ele>
        <time>2020-06-05T06:44:47.000Z</time>
      </trkpt>
      <trkpt lat="44.07567" lon="6.85735">
        <ele>786</ele>
        <time>2020-06-05T06:44:48.000Z</time>
      </trkpt>
      <trkpt lat="44.07567" lon="6.85735">
        <ele>786</ele>
        <time>2020-06-05T06:44:49.000Z</time>
      </trkpt>
      <trkpt lat="44.07567" lon="6.85735">
        <ele>786</ele>
        <time>2020-06-05T06:44:50.000Z</time>
      </trkpt>
      <trkpt lat="44.07567" lon="6.85735">
        <ele>786</ele>
        <time>2020-06-05T06:44:51.000Z</time>
      </trkpt>
      <trkpt lat="44.07567" lon="6.85735">
        <ele>786</ele>
        <time>2020-06-05T06:44:52.000Z</time>
      </trkpt>
      <trkpt lat="44.07567" lon="6.85736">
        <ele>786</ele>
        <time>2020-06-05T06:44:53.000Z</time>
      </trkpt>
      <trkpt lat="44.07567" lon="6.85736">
        <ele>786</ele>
        <time>2020-06-05T06:44:54.000Z</time>
      </trkpt>
      <trkpt lat="44.07566" lon="6.85737">
        <ele>786</ele>
        <time>2020-06-05T06:44:55.000Z</time>
      </trkpt>
      <trkpt lat="44.07566" lon="6.85738">
        <ele>786</ele>
        <time>2020-06-05T06:44:56.000Z</time>
      </trkpt>
      <trkpt lat="44.07565" lon="6.85739">
        <ele>786</ele>
        <time>2020-06-05T06:44:57.000Z</time>
      </trkpt>
      <trkpt lat="44.07564" lon="6.8574">
        <ele>787</ele>
        <time>2020-06-05T06:44:58.000Z</time>
      </trkpt>
      <trkpt lat="44.07564" lon="6.85741">
        <ele>787</ele>
        <time>2020-06-05T06:44:59.000Z</time>
      </trkpt>
      <trkpt lat="44.07563" lon="6.85741">
        <ele>787</ele>
        <time>2020-06-05T06:45:00.000Z</time>
      </trkpt>
      <trkpt lat="44.07562" lon="6.85742">
        <ele>787</ele>
        <time>2020-06-05T06:45:01.000Z</time>
      </trkpt>
      <trkpt lat="44.07562" lon="6.85743">
        <ele>787</ele>
        <time>2020-06-05T06:45:02.000Z</time>
      </trkpt>
      <trkpt lat="44.07562" lon="6.85743">
        <ele>787</ele>
        <time>2020-06-05T06:45:03.000Z</time>
      </trkpt>
      <trkpt lat="44.07561" lon="6.85744">
        <ele>787</ele>
        <time>2020-06-05T06:45:04.000Z</time>
      </trkpt>
      <trkpt lat="44.0756" lon="6.85744">
        <ele>788</ele>
        <time>2020-06-05T06:45:05.000Z</time>
      </trkpt>
      <trkpt lat="44.0756" lon="6.85745">
        <ele>788</ele>
        <time>2020-06-05T06:45:06.000Z</time>
      </trkpt>
      <trkpt lat="44.0756" lon="6.85745">
        <ele>788</ele>
        <time>2020-06-05T06:45:07.000Z</time>
      </trkpt>
      <trkpt lat="44.07559" lon="6.85745">
        <ele>788</ele>
        <time>2020-06-05T06:45:08.000Z</time>
      </trkpt>
      <trkpt lat="44.07559" lon="6.85746">
        <ele>789</ele>
        <time>2020-06-05T06:45:09.000Z</time>
      </trkpt>
      <trkpt lat="44.07558" lon="6.85746">
        <ele>789</ele>
        <time>2020-06-05T06:45:10.000Z</time>
      </trkpt>
      <trkpt lat="44.07558" lon="6.85747">
        <ele>789</ele>
        <time>2020-06-05T06:45:11.000Z</time>
      </trkpt>
      <trkpt lat="44.07557" lon="6.85747">
        <ele>789</ele>
        <time>2020-06-05T06:45:12.000Z</time>
      </trkpt>
      <trkpt lat="44.07557" lon="6.85748">
        <ele>790</ele>
        <time>2020-06-05T06:45:13.000Z</time>
      </trkpt>
      <trkpt lat="44.07557" lon="6.85748">
        <ele>790</ele>
        <time>2020-06-05T06:45:14.000Z</time>
      </trkpt>
      <trkpt lat="44.07556" lon="6.85749">
        <ele>790</ele>
        <time>2020-06-05T06:45:15.000Z</time>
      </trkpt>
      <trkpt lat="44.07556" lon="6.8575">
        <ele>790</ele>
        <time>2020-06-05T06:45:16.000Z</time>
      </trkpt>
      <trkpt lat="44.07556" lon="6.85751">
        <ele>790</ele>
        <time>2020-06-05T06:45:17.000Z</time>
      </trkpt>
      <trkpt lat="44.07555" lon="6.85752">
        <ele>791</ele>
        <time>2020-06-05T06:45:18.000Z</time>
      </trkpt>
      <trkpt lat="44.07555" lon="6.85752">
        <ele>791</ele>
        <time>2020-06-05T06:45:19.000Z</time>
      </trkpt>
      <trkpt lat="44.07554" lon="6.85752">
        <ele>791</ele>
        <time>2020-06-05T06:45:20.000Z</time>
      </trkpt>
      <trkpt lat="44.07554" lon="6.85753">
        <ele>791</ele>
        <time>2020-06-05T06:45:21.000Z</time>
      </trkpt>
      <trkpt lat="44.07553" lon="6.85753">
        <ele>791</ele>
        <time>2020-06-05T06:45:22.000Z</time>
      </trkpt>
      <trkpt lat="44.07553" lon="6.85753">
        <ele>792</ele>
        <time>2020-06-05T06:45:23.000Z</time>
      </trkpt>
      <trkpt lat="44.07552" lon="6.85753">
        <ele>792</ele>
        <time>2020-06-05T06:45:24.000Z</time>
      </trkpt>
      <trkpt lat="44.07552" lon="6.85753">
        <ele>792</ele>
        <time>2020-06-05T06:45:25.000Z</time>
      </trkpt>
      <trkpt lat="44.07552" lon="6.85754">
        <ele>792</ele>
        <time>2020-06-05T06:45:26.000Z</time>
      </trkpt>
      <trkpt lat="44.07551" lon="6.85754">
        <ele>792</ele>
        <time>2020-06-05T06:45:27.000Z</time>
      </trkpt>
      <trkpt lat="44.07551" lon="6.85755">
        <ele>792</ele>
        <time>2020-06-05T06:45:28.000Z</time>
      </trkpt>
      <trkpt lat="44.0755" lon="6.85755">
        <ele>792</ele>
        <time>2020-06-05T06:45:29.000Z</time>
      </trkpt>
      <trkpt lat="44.07549" lon="6.85756">
        <ele>792</ele>
        <time>2020-06-05T06:45:30.000Z</time>
      </trkpt>
      <trkpt lat="44.07548" lon="6.85756">
        <ele>792</ele>
        <time>2020-06-05T06:45:31.000Z</time>
      </trkpt>
      <trkpt lat="44.07547" lon="6.85757">
        <ele>792</ele>
        <time>2020-06-05T06:45:32.000Z</time>
      </trkpt>
      <trkpt lat="44.07546" lon="6.85757">
        <ele>792</ele>
        <time>2020-06-05T06:45:33.000Z</time>
      </trkpt>
      <trkpt lat="44.07545" lon="6.85757">
        <ele>792</ele>
        <time>2020-06-05T06:45:34.000Z</time>
      </trkpt>
      <trkpt lat="44.07544" lon="6.85757">
        <ele>792</ele>
        <time>2020-06-05T06:45:35.000Z</time>
      </trkpt>
      <trkpt lat="44.07543" lon="6.85757">
        <ele>792</ele>
        <time>2020-06-05T06:45:36.000Z</time>
      </trkpt>
      <trkpt lat="44.07542" lon="6.85757">
        <ele>792</ele>
        <time>2020-06-05T06:45:37.000Z</time>
      </trkpt>
      <trkpt lat="44.07541" lon="6.85758">
        <ele>792</ele>
        <time>2020-06-05T06:45:38.000Z</time>
      </trkpt>
      <trkpt lat="44.0754" lon="6.85758">
        <ele>792</ele>
        <time>2020-06-05T06:45:39.000Z</time>
      </trkpt>
      <trkpt lat="44.07539" lon="6.85759">
        <ele>792</ele>
        <time>2020-06-05T06:45:40.000Z</time>
      </trkpt>
      <trkpt lat="44.07538" lon="6.85759">
        <ele>792</ele>
        <time>2020-06-05T06:45:41.000Z</time>
      </trkpt>
      <trkpt lat="44.07538" lon="6.85759">
        <ele>792</ele>
        <time>2020-06-05T06:45:42.000Z</time>
      </trkpt>
      <trkpt lat="44.07537" lon="6.85759">
        <ele>792</ele>
        <time>2020-06-05T06:45:43.000Z</time>
      </trkpt>
      <trkpt lat="44.07536" lon="6.8576">
        <ele>792</ele>
        <time>2020-06-05T06:45:44.000Z</time>
      </trkpt>
      <trkpt lat="44.07535" lon="6.8576">
        <ele>792</ele>
        <time>2020-06-05T06:45:45.000Z</time>
      </trkpt>
      <trkpt lat="44.07534" lon="6.8576">
        <ele>792</ele>
        <time>2020-06-05T06:45:46.000Z</time>
      </trkpt>
      <trkpt lat="44.07533" lon="6.8576">
        <ele>792</ele>
        <time>2020-06-05T06:45:47.000Z</time>
      </trkpt>
      <trkpt lat="44.07532" lon="6.8576">
        <ele>792</ele>
        <time>2020-06-05T06:45:48.000Z</time>
      </trkpt>
      <trkpt lat="44.07532" lon="6.8576">
        <ele>792</ele>
        <time>2020-06-05T06:45:49.000Z</time>
      </trkpt>
      <trkpt lat="44.07532" lon="6.8576">
        <ele>792</ele>
        <time>2020-06-05T06:45:50.000Z</time>
      </trkpt>
      <trkpt lat="44.07531" lon="6.8576">
        <ele>792</ele>
        <time>2020-06-05T06:45:51.000Z</time>
      </trkpt>
      <trkpt lat="44.07531" lon="6.8576">
        <ele>792</ele>
        <time>2020-06-05T06:45:52.000Z</time>
      </trkpt>
      <trkpt lat="44.0753" lon="6.85759">
        <ele>792</ele>
        <time>2020-06-05T06:45:53.000Z</time>
      </trkpt>
      <trkpt lat="44.0753" lon="6.85759">
        <ele>792</ele>
        <time>2020-06-05T06:45:54.000Z</time>
      </trkpt>
      <trkpt lat="44.07529" lon="6.85759">
        <ele>792</ele>
        <time>2020-06-05T06:45:55.000Z</time>
      </trkpt>
      <trkpt lat="44.07528" lon="6.85759">
        <ele>792</ele>
        <time>2020-06-05T06:45:56.000Z</time>
      </trkpt>
      <trkpt lat="44.07527" lon="6.85758">
        <ele>792</ele>
        <time>2020-06-05T06:45:57.000Z</time>
      </trkpt>
      <trkpt lat="44.07526" lon="6.85758">
        <ele>792</ele>
        <time>2020-06-05T06:45:58.000Z</time>
      </trkpt>
      <trkpt lat="44.07525" lon="6.85758">
        <ele>792</ele>
        <time>2020-06-05T06:45:59.000Z</time>
      </trkpt>
      <trkpt lat="44.07524" lon="6.85757">
        <ele>792</ele>
        <time>2020-06-05T06:46:00.000Z</time>
      </trkpt>
      <trkpt lat="44.07523" lon="6.85757">
        <ele>792</ele>
        <time>2020-06-05T06:46:01.000Z</time>
      </trkpt>
      <trkpt lat="44.07522" lon="6.85757">
        <ele>792</ele>
        <time>2020-06-05T06:46:02.000Z</time>
      </trkpt>
      <trkpt lat="44.07521" lon="6.85757">
        <ele>792</ele>
        <time>2020-06-05T06:46:03.000Z</time>
      </trkpt>
      <trkpt lat="44.0752" lon="6.85756">
        <ele>792</ele>
        <time>2020-06-05T06:46:04.000Z</time>
      </trkpt>
      <trkpt lat="44.07518" lon="6.85756">
        <ele>792</ele>
        <time>2020-06-05T06:46:05.000Z</time>
      </trkpt>
      <trkpt lat="44.07517" lon="6.85755">
        <ele>792</ele>
        <time>2020-06-05T06:46:06.000Z</time>
      </trkpt>
      <trkpt lat="44.07516" lon="6.85755">
        <ele>792</ele>
        <time>2020-06-05T06:46:07.000Z</time>
      </trkpt>
      <trkpt lat="44.07515" lon="6.85755">
        <ele>792</ele>
        <time>2020-06-05T06:46:08.000Z</time>
      </trkpt>
      <trkpt lat="44.07515" lon="6.85754">
        <ele>792</ele>
        <time>2020-06-05T06:46:09.000Z</time>
      </trkpt>
      <trkpt lat="44.07514" lon="6.85754">
        <ele>793</ele>
        <time>2020-06-05T06:46:10.000Z</time>
      </trkpt>
      <trkpt lat="44.07513" lon="6.85754">
        <ele>793</ele>
        <time>2020-06-05T06:46:11.000Z</time>
      </trkpt>
      <trkpt lat="44.07512" lon="6.85754">
        <ele>793</ele>
        <time>2020-06-05T06:46:12.000Z</time>
      </trkpt>
      <trkpt lat="44.07511" lon="6.85754">
        <ele>793</ele>
        <time>2020-06-05T06:46:13.000Z</time>
      </trkpt>
      <trkpt lat="44.0751" lon="6.85753">
        <ele>794</ele>
        <time>2020-06-05T06:46:14.000Z</time>
      </trkpt>
      <trkpt lat="44.07509" lon="6.85753">
        <ele>794</ele>
        <time>2020-06-05T06:46:15.000Z</time>
      </trkpt>
      <trkpt lat="44.07508" lon="6.85753">
        <ele>794</ele>
        <time>2020-06-05T06:46:16.000Z</time>
      </trkpt>
      <trkpt lat="44.07507" lon="6.85754">
        <ele>794</ele>
        <time>2020-06-05T06:46:17.000Z</time>
      </trkpt>
      <trkpt lat="44.07506" lon="6.85754">
        <ele>795</ele>
        <time>2020-06-05T06:46:18.000Z</time>
      </trkpt>
      <trkpt lat="44.07505" lon="6.85755">
        <ele>795</ele>
        <time>2020-06-05T06:46:19.000Z</time>
      </trkpt>
      <trkpt lat="44.07504" lon="6.85755">
        <ele>795</ele>
        <time>2020-06-05T06:46:20.000Z</time>
      </trkpt>
      <trkpt lat="44.07503" lon="6.85755">
        <ele>795</ele>
        <time>2020-06-05T06:46:21.000Z</time>
      </trkpt>
      <trkpt lat="44.07502" lon="6.85755">
        <ele>795</ele>
        <time>2020-06-05T06:46:22.000Z</time>
      </trkpt>
      <trkpt lat="44.07501" lon="6.85756">
        <ele>795</ele>
        <time>2020-06-05T06:46:23.000Z</time>
      </trkpt>
      <trkpt lat="44.075" lon="6.85756">
        <ele>795</ele>
        <time>2020-06-05T06:46:24.000Z</time>
      </trkpt>
      <trkpt lat="44.07499" lon="6.85755">
        <ele>795</ele>
        <time>2020-06-05T06:46:25.000Z</time>
      </trkpt>
      <trkpt lat="44.07498" lon="6.85755">
        <ele>795</ele>
        <time>2020-06-05T06:46:26.000Z</time>
      </trkpt>
      <trkpt lat="44.07498" lon="6.85754">
        <ele>795</ele>
        <time>2020-06-05T06:46:27.000Z</time>
      </trkpt>
      <trkpt lat="44.07497" lon="6.85754">
        <ele>795</ele>
        <time>2020-06-05T06:46:28.000Z</time>
      </trkpt>
      <trkpt lat="44.07496" lon="6.85753">
        <ele>795</ele>
        <time>2020-06-05T06:46:29.000Z</time>
      </trkpt>
      <trkpt lat="44.07495" lon="6.85752">
        <ele>796</ele>
        <time>2020-06-05T06:46:30.000Z</time>
      </trkpt>
      <trkpt lat="44.07495" lon="6.85751">
        <ele>796</ele>
        <time>2020-06-05T06:46:31.000Z</time>
      </trkpt>
      <trkpt lat="44.07494" lon="6.8575">
        <ele>796</ele>
        <time>2020-06-05T06:46:32.000Z</time>
      </trkpt>
      <trkpt lat="44.07494" lon="6.8575">
        <ele>796</ele>
        <time>2020-06-05T06:46:33.000Z</time>
      </trkpt>
      <trkpt lat="44.07494" lon="6.85749">
        <ele>796</ele>
        <time>2020-06-05T06:46:34.000Z</time>
      </trkpt>
      <trkpt lat="44.07494" lon="6.85748">
        <ele>796</ele>
        <time>2020-06-05T06:46:35.000Z</time>
      </trkpt>
      <trkpt lat="44.07494" lon="6.85748">
        <ele>796</ele>
        <time>2020-06-05T06:46:36.000Z</time>
      </trkpt>
      <trkpt lat="44.07494" lon="6.85748">
        <ele>797</ele>
        <time>2020-06-05T06:46:37.000Z</time>
      </trkpt>
      <trkpt lat="44.07494" lon="6.85747">
        <ele>797</ele>
        <time>2020-06-05T06:46:38.000Z</time>
      </trkpt>
      <trkpt lat="44.07494" lon="6.85747">
        <ele>797</ele>
        <time>2020-06-05T06:46:39.000Z</time>
      </trkpt>
      <trkpt lat="44.07494" lon="6.85746">
        <ele>797</ele>
        <time>2020-06-05T06:46:40.000Z</time>
      </trkpt>
      <trkpt lat="44.07494" lon="6.85746">
        <ele>797</ele>
        <time>2020-06-05T06:46:41.000Z</time>
      </trkpt>
      <trkpt lat="44.07494" lon="6.85746">
        <ele>797</ele>
        <time>2020-06-05T06:46:42.000Z</time>
      </trkpt>
      <trkpt lat="44.07495" lon="6.85745">
        <ele>797</ele>
        <time>2020-06-05T06:46:43.000Z</time>
      </trkpt>
      <trkpt lat="44.07495" lon="6.85745">
        <ele>797</ele>
        <time>2020-06-05T06:46:44.000Z</time>
      </trkpt>
      <trkpt lat="44.07495" lon="6.85744">
        <ele>797</ele>
        <time>2020-06-05T06:46:45.000Z</time>
      </trkpt>
      <trkpt lat="44.07495" lon="6.85744">
        <ele>798</ele>
        <time>2020-06-05T06:46:46.000Z</time>
      </trkpt>
      <trkpt lat="44.07495" lon="6.85743">
        <ele>798</ele>
        <time>2020-06-05T06:46:47.000Z</time>
      </trkpt>
      <trkpt lat="44.07495" lon="6.85743">
        <ele>798</ele>
        <time>2020-06-05T06:46:48.000Z</time>
      </trkpt>
      <trkpt lat="44.07496" lon="6.85743">
        <ele>798</ele>
        <time>2020-06-05T06:46:49.000Z</time>
      </trkpt>
      <trkpt lat="44.07496" lon="6.85743">
        <ele>798</ele>
        <time>2020-06-05T06:46:50.000Z</time>
      </trkpt>
      <trkpt lat="44.07496" lon="6.85742">
        <ele>798</ele>
        <time>2020-06-05T06:46:51.000Z</time>
      </trkpt>
      <trkpt lat="44.07496" lon="6.85742">
        <ele>798</ele>
        <time>2020-06-05T06:46:52.000Z</time>
      </trkpt>
      <trkpt lat="44.07496" lon="6.85742">
        <ele>799</ele>
        <time>2020-06-05T06:46:53.000Z</time>
      </trkpt>
      <trkpt lat="44.07496" lon="6.85742">
        <ele>799</ele>
        <time>2020-06-05T06:46:54.000Z</time>
      </trkpt>
      <trkpt lat="44.07496" lon="6.85741">
        <ele>799</ele>
        <time>2020-06-05T06:46:55.000Z</time>
      </trkpt>
      <trkpt lat="44.07496" lon="6.85741">
        <ele>799</ele>
        <time>2020-06-05T06:46:56.000Z</time>
      </trkpt>
      <trkpt lat="44.07496" lon="6.85741">
        <ele>799</ele>
        <time>2020-06-05T06:46:57.000Z</time>
      </trkpt>
      <trkpt lat="44.07496" lon="6.8574">
        <ele>799</ele>
        <time>2020-06-05T06:46:58.000Z</time>
      </trkpt>
      <trkpt lat="44.07496" lon="6.85738">
        <ele>799</ele>
        <time>2020-06-05T06:46:59.000Z</time>
      </trkpt>
      <trkpt lat="44.07496" lon="6.85737">
        <ele>799</ele>
        <time>2020-06-05T06:47:00.000Z</time>
      </trkpt>
      <trkpt lat="44.07496" lon="6.85736">
        <ele>799</ele>
        <time>2020-06-05T06:47:01.000Z</time>
      </trkpt>
      <trkpt lat="44.07496" lon="6.85735">
        <ele>799</ele>
        <time>2020-06-05T06:47:02.000Z</time>
      </trkpt>
      <trkpt lat="44.07496" lon="6.85735">
        <ele>799</ele>
        <time>2020-06-05T06:47:03.000Z</time>
      </trkpt>
      <trkpt lat="44.07497" lon="6.85735">
        <ele>799</ele>
        <time>2020-06-05T06:47:04.000Z</time>
      </trkpt>
      <trkpt lat="44.07497" lon="6.85735">
        <ele>800</ele>
        <time>2020-06-05T06:47:05.000Z</time>
      </trkpt>
      <trkpt lat="44.07496" lon="6.85735">
        <ele>800</ele>
        <time>2020-06-05T06:47:06.000Z</time>
      </trkpt>
      <trkpt lat="44.07497" lon="6.85734">
        <ele>800</ele>
        <time>2020-06-05T06:47:07.000Z</time>
      </trkpt>
      <trkpt lat="44.07497" lon="6.85733">
        <ele>800</ele>
        <time>2020-06-05T06:47:08.000Z</time>
      </trkpt>
      <trkpt lat="44.07497" lon="6.85732">
        <ele>800</ele>
        <time>2020-06-05T06:47:09.000Z</time>
      </trkpt>
      <trkpt lat="44.07497" lon="6.85731">
        <ele>800</ele>
        <time>2020-06-05T06:47:10.000Z</time>
      </trkpt>
      <trkpt lat="44.07497" lon="6.8573">
        <ele>800</ele>
        <time>2020-06-05T06:47:11.000Z</time>
      </trkpt>
      <trkpt lat="44.07497" lon="6.8573">
        <ele>800</ele>
        <time>2020-06-05T06:47:12.000Z</time>
      </trkpt>
      <trkpt lat="44.07498" lon="6.85729">
        <ele>800</ele>
        <time>2020-06-05T06:47:13.000Z</time>
      </trkpt>
      <trkpt lat="44.07498" lon="6.85729">
        <ele>800</ele>
        <time>2020-06-05T06:47:14.000Z</time>
      </trkpt>
      <trkpt lat="44.07498" lon="6.85729">
        <ele>800</ele>
        <time>2020-06-05T06:47:15.000Z</time>
      </trkpt>
      <trkpt lat="44.07498" lon="6.85729">
        <ele>800</ele>
        <time>2020-06-05T06:47:16.000Z</time>
      </trkpt>
      <trkpt lat="44.07498" lon="6.85729">
        <ele>800</ele>
        <time>2020-06-05T06:47:17.000Z</time>
      </trkpt>
      <trkpt lat="44.07498" lon="6.85729">
        <ele>800</ele>
        <time>2020-06-05T06:47:18.000Z</time>
      </trkpt>
      <trkpt lat="44.07498" lon="6.85729">
        <ele>800</ele>
        <time>2020-06-05T06:47:19.000Z</time>
      </trkpt>
      <trkpt lat="44.07498" lon="6.85729">
        <ele>800</ele>
        <time>2020-06-05T06:47:20.000Z</time>
      </trkpt>
      <trkpt lat="44.07498" lon="6.85729">
        <ele>800</ele>
        <time>2020-06-05T06:47:21.000Z</time>
      </trkpt>
      <trkpt lat="44.07498" lon="6.85729">
        <ele>800</ele>
        <time>2020-06-05T06:47:22.000Z</time>
      </trkpt>
      <trkpt lat="44.07498" lon="6.85728">
        <ele>800</ele>
        <time>2020-06-05T06:47:23.000Z</time>
      </trkpt>
      <trkpt lat="44.07498" lon="6.85728">
        <ele>800</ele>
        <time>2020-06-05T06:47:24.000Z</time>
      </trkpt>
      <trkpt lat="44.07498" lon="6.85728">
        <ele>800</ele>
        <time>2020-06-05T06:47:25.000Z</time>
      </trkpt>
      <trkpt lat="44.07498" lon="6.85728">
        <ele>800</ele>
        <time>2020-06-05T06:47:26.000Z</time>
      </trkpt>
      <trkpt lat="44.07497" lon="6.85728">
        <ele>800</ele>
        <time>2020-06-05T06:47:27.000Z</time>
      </trkpt>
      <trkpt lat="44.07497" lon="6.85728">
        <ele>800</ele>
        <time>2020-06-05T06:47:28.000Z</time>
      </trkpt>
      <trkpt lat="44.07497" lon="6.85728">
        <ele>800</ele>
        <time>2020-06-05T06:47:29.000Z</time>
      </trkpt>
      <trkpt lat="44.07498" lon="6.85727">
        <ele>800</ele>
        <time>2020-06-05T06:47:30.000Z</time>
      </trkpt>
      <trkpt lat="44.07498" lon="6.85726">
        <ele>800</ele>
        <time>2020-06-05T06:47:31.000Z</time>
      </trkpt>
      <trkpt lat="44.07498" lon="6.85725">
        <ele>800</ele>
        <time>2020-06-05T06:47:32.000Z</time>
      </trkpt>
      <trkpt lat="44.07498" lon="6.85724">
        <ele>800</ele>
        <time>2020-06-05T06:47:33.000Z</time>
      </trkpt>
      <trkpt lat="44.07498" lon="6.85723">
        <ele>800</ele>
        <time>2020-06-05T06:47:34.000Z</time>
      </trkpt>
      <trkpt lat="44.07498" lon="6.85722">
        <ele>800</ele>
        <time>2020-06-05T06:47:35.000Z</time>
      </trkpt>
      <trkpt lat="44.07498" lon="6.85721">
        <ele>800</ele>
        <time>2020-06-05T06:47:36.000Z</time>
      </trkpt>
      <trkpt lat="44.07498" lon="6.8572">
        <ele>800</ele>
        <time>2020-06-05T06:47:37.000Z</time>
      </trkpt>
      <trkpt lat="44.07498" lon="6.85719">
        <ele>800</ele>
        <time>2020-06-05T06:47:38.000Z</time>
      </trkpt>
      <trkpt lat="44.07498" lon="6.85718">
        <ele>800</ele>
        <time>2020-06-05T06:47:39.000Z</time>
      </trkpt>
      <trkpt lat="44.07499" lon="6.85716">
        <ele>800</ele>
        <time>2020-06-05T06:47:40.000Z</time>
      </trkpt>
      <trkpt lat="44.07499" lon="6.85715">
        <ele>800</ele>
        <time>2020-06-05T06:47:41.000Z</time>
      </trkpt>
      <trkpt lat="44.07499" lon="6.85714">
        <ele>800</ele>
        <time>2020-06-05T06:47:42.000Z</time>
      </trkpt>
      <trkpt lat="44.07499" lon="6.85713">
        <ele>800</ele>
        <time>2020-06-05T06:47:43.000Z</time>
      </trkpt>
      <trkpt lat="44.075" lon="6.85711">
        <ele>800</ele>
        <time>2020-06-05T06:47:44.000Z</time>
      </trkpt>
      <trkpt lat="44.075" lon="6.8571">
        <ele>800</ele>
        <time>2020-06-05T06:47:45.000Z</time>
      </trkpt>
      <trkpt lat="44.07499" lon="6.85708">
        <ele>801</ele>
        <time>2020-06-05T06:47:46.000Z</time>
      </trkpt>
      <trkpt lat="44.07499" lon="6.85706">
        <ele>801</ele>
        <time>2020-06-05T06:47:47.000Z</time>
      </trkpt>
      <trkpt lat="44.07499" lon="6.85705">
        <ele>801</ele>
        <time>2020-06-05T06:47:48.000Z</time>
      </trkpt>
      <trkpt lat="44.07499" lon="6.85704">
        <ele>801</ele>
        <time>2020-06-05T06:47:49.000Z</time>
      </trkpt>
      <trkpt lat="44.07499" lon="6.85703">
        <ele>801</ele>
        <time>2020-06-05T06:47:50.000Z</time>
      </trkpt>
      <trkpt lat="44.07499" lon="6.85701">
        <ele>801</ele>
        <time>2020-06-05T06:47:51.000Z</time>
      </trkpt>
      <trkpt lat="44.07499" lon="6.857">
        <ele>801</ele>
        <time>2020-06-05T06:47:52.000Z</time>
      </trkpt>
      <trkpt lat="44.07499" lon="6.85699">
        <ele>801</ele>
        <time>2020-06-05T06:47:53.000Z</time>
      </trkpt>
      <trkpt lat="44.07499" lon="6.85698">
        <ele>801</ele>
        <time>2020-06-05T06:47:54.000Z</time>
      </trkpt>
      <trkpt lat="44.07499" lon="6.85697">
        <ele>801</ele>
        <time>2020-06-05T06:47:55.000Z</time>
      </trkpt>
      <trkpt lat="44.07499" lon="6.85696">
        <ele>801</ele>
        <time>2020-06-05T06:47:56.000Z</time>
      </trkpt>
      <trkpt lat="44.07499" lon="6.85694">
        <ele>801</ele>
        <time>2020-06-05T06:47:57.000Z</time>
      </trkpt>
      <trkpt lat="44.07499" lon="6.85693">
        <ele>802</ele>
        <time>2020-06-05T06:47:58.000Z</time>
      </trkpt>
      <trkpt lat="44.07499" lon="6.85692">
        <ele>802</ele>
        <time>2020-06-05T06:47:59.000Z</time>
      </trkpt>
      <trkpt lat="44.07499" lon="6.8569">
        <ele>802</ele>
        <time>2020-06-05T06:48:00.000Z</time>
      </trkpt>
      <trkpt lat="44.07499" lon="6.85689">
        <ele>802</ele>
        <time>2020-06-05T06:48:01.000Z</time>
      </trkpt>
      <trkpt lat="44.07499" lon="6.85688">
        <ele>802</ele>
        <time>2020-06-05T06:48:02.000Z</time>
      </trkpt>
      <trkpt lat="44.07499" lon="6.85686">
        <ele>802</ele>
        <time>2020-06-05T06:48:03.000Z</time>
      </trkpt>
      <trkpt lat="44.075" lon="6.85685">
        <ele>802</ele>
        <time>2020-06-05T06:48:04.000Z</time>
      </trkpt>
      <trkpt lat="44.075" lon="6.85684">
        <ele>802</ele>
        <time>2020-06-05T06:48:05.000Z</time>
      </trkpt>
      <trkpt lat="44.075" lon="6.85682">
        <ele>802</ele>
        <time>2020-06-05T06:48:06.000Z</time>
      </trkpt>
      <trkpt lat="44.075" lon="6.8568">
        <ele>802</ele>
        <time>2020-06-05T06:48:07.000Z</time>
      </trkpt>
      <trkpt lat="44.075" lon="6.85679">
        <ele>802</ele>
        <time>2020-06-05T06:48:08.000Z</time>
      </trkpt>
      <trkpt lat="44.075" lon="6.85678">
        <ele>802</ele>
        <time>2020-06-05T06:48:09.000Z</time>
      </trkpt>
      <trkpt lat="44.07499" lon="6.85676">
        <ele>802</ele>
        <time>2020-06-05T06:48:10.000Z</time>
      </trkpt>
      <trkpt lat="44.07499" lon="6.85675">
        <ele>802</ele>
        <time>2020-06-05T06:48:11.000Z</time>
      </trkpt>
      <trkpt lat="44.07499" lon="6.85674">
        <ele>802</ele>
        <time>2020-06-05T06:48:12.000Z</time>
      </trkpt>
      <trkpt lat="44.07498" lon="6.85672">
        <ele>802</ele>
        <time>2020-06-05T06:48:13.000Z</time>
      </trkpt>
      <trkpt lat="44.07498" lon="6.85671">
        <ele>802</ele>
        <time>2020-06-05T06:48:14.000Z</time>
      </trkpt>
      <trkpt lat="44.07497" lon="6.8567">
        <ele>802</ele>
        <time>2020-06-05T06:48:15.000Z</time>
      </trkpt>
      <trkpt lat="44.07497" lon="6.85668">
        <ele>802</ele>
        <time>2020-06-05T06:48:16.000Z</time>
      </trkpt>
      <trkpt lat="44.07496" lon="6.85667">
        <ele>802</ele>
        <time>2020-06-05T06:48:17.000Z</time>
      </trkpt>
      <trkpt lat="44.07496" lon="6.85666">
        <ele>802</ele>
        <time>2020-06-05T06:48:18.000Z</time>
      </trkpt>
      <trkpt lat="44.07495" lon="6.85664">
        <ele>802</ele>
        <time>2020-06-05T06:48:19.000Z</time>
      </trkpt>
      <trkpt lat="44.07494" lon="6.85663">
        <ele>802</ele>
        <time>2020-06-05T06:48:20.000Z</time>
      </trkpt>
      <trkpt lat="44.07494" lon="6.85661">
        <ele>803</ele>
        <time>2020-06-05T06:48:21.000Z</time>
      </trkpt>
      <trkpt lat="44.07493" lon="6.8566">
        <ele>803</ele>
        <time>2020-06-05T06:48:22.000Z</time>
      </trkpt>
      <trkpt lat="44.07492" lon="6.85659">
        <ele>803</ele>
        <time>2020-06-05T06:48:23.000Z</time>
      </trkpt>
      <trkpt lat="44.07492" lon="6.85658">
        <ele>803</ele>
        <time>2020-06-05T06:48:24.000Z</time>
      </trkpt>
      <trkpt lat="44.07491" lon="6.85657">
        <ele>803</ele>
        <time>2020-06-05T06:48:25.000Z</time>
      </trkpt>
      <trkpt lat="44.0749" lon="6.85656">
        <ele>804</ele>
        <time>2020-06-05T06:48:26.000Z</time>
      </trkpt>
      <trkpt lat="44.0749" lon="6.85654">
        <ele>804</ele>
        <time>2020-06-05T06:48:27.000Z</time>
      </trkpt>
      <trkpt lat="44.07489" lon="6.85653">
        <ele>804</ele>
        <time>2020-06-05T06:48:28.000Z</time>
      </trkpt>
      <trkpt lat="44.07489" lon="6.85653">
        <ele>804</ele>
        <time>2020-06-05T06:48:29.000Z</time>
      </trkpt>
      <trkpt lat="44.07488" lon="6.85652">
        <ele>804</ele>
        <time>2020-06-05T06:48:30.000Z</time>
      </trkpt>
      <trkpt lat="44.07488" lon="6.85652">
        <ele>805</ele>
        <time>2020-06-05T06:48:31.000Z</time>
      </trkpt>
      <trkpt lat="44.07488" lon="6.85651">
        <ele>805</ele>
        <time>2020-06-05T06:48:32.000Z</time>
      </trkpt>
      <trkpt lat="44.07488" lon="6.85651">
        <ele>805</ele>
        <time>2020-06-05T06:48:33.000Z</time>
      </trkpt>
      <trkpt lat="44.07488" lon="6.85651">
        <ele>805</ele>
        <time>2020-06-05T06:48:34.000Z</time>
      </trkpt>
      <trkpt lat="44.07487" lon="6.85651">
        <ele>805</ele>
        <time>2020-06-05T06:48:35.000Z</time>
      </trkpt>
      <trkpt lat="44.07487" lon="6.8565">
        <ele>805</ele>
        <time>2020-06-05T06:48:36.000Z</time>
      </trkpt>
      <trkpt lat="44.07487" lon="6.8565">
        <ele>805</ele>
        <time>2020-06-05T06:48:37.000Z</time>
      </trkpt>
      <trkpt lat="44.07487" lon="6.8565">
        <ele>805</ele>
        <time>2020-06-05T06:48:38.000Z</time>
      </trkpt>
      <trkpt lat="44.07487" lon="6.8565">
        <ele>805</ele>
        <time>2020-06-05T06:48:39.000Z</time>
      </trkpt>
      <trkpt lat="44.07487" lon="6.85649">
        <ele>806</ele>
        <time>2020-06-05T06:48:40.000Z</time>
      </trkpt>
      <trkpt lat="44.07487" lon="6.85649">
        <ele>806</ele>
        <time>2020-06-05T06:48:41.000Z</time>
      </trkpt>
      <trkpt lat="44.07487" lon="6.85649">
        <ele>806</ele>
        <time>2020-06-05T06:48:42.000Z</time>
      </trkpt>
      <trkpt lat="44.07487" lon="6.85649">
        <ele>806</ele>
        <time>2020-06-05T06:48:43.000Z</time>
      </trkpt>
      <trkpt lat="44.07487" lon="6.85649">
        <ele>806</ele>
        <time>2020-06-05T06:48:44.000Z</time>
      </trkpt>
      <trkpt lat="44.07487" lon="6.85649">
        <ele>806</ele>
        <time>2020-06-05T06:48:45.000Z</time>
      </trkpt>
      <trkpt lat="44.07486" lon="6.85649">
        <ele>806</ele>
        <time>2020-06-05T06:48:46.000Z</time>
      </trkpt>
      <trkpt lat="44.07486" lon="6.85648">
        <ele>806</ele>
        <time>2020-06-05T06:48:47.000Z</time>
      </trkpt>
      <trkpt lat="44.07486" lon="6.85648">
        <ele>806</ele>
        <time>2020-06-05T06:48:48.000Z</time>
      </trkpt>
      <trkpt lat="44.07486" lon="6.85648">
        <ele>806</ele>
        <time>2020-06-05T06:48:49.000Z</time>
      </trkpt>
      <trkpt lat="44.07486" lon="6.85648">
        <ele>806</ele>
        <time>2020-06-05T06:48:50.000Z</time>
      </trkpt>
      <trkpt lat="44.07486" lon="6.85648">
        <ele>807</ele>
        <time>2020-06-05T06:48:51.000Z</time>
      </trkpt>
      <trkpt lat="44.07486" lon="6.85648">
        <ele>807</ele>
        <time>2020-06-05T06:48:52.000Z</time>
      </trkpt>
      <trkpt lat="44.07486" lon="6.85648">
        <ele>807</ele>
        <time>2020-06-05T06:48:53.000Z</time>
      </trkpt>
      <trkpt lat="44.07486" lon="6.85648">
        <ele>807</ele>
        <time>2020-06-05T06:48:54.000Z</time>
      </trkpt>
      <trkpt lat="44.07486" lon="6.85648">
        <ele>807</ele>
        <time>2020-06-05T06:48:55.000Z</time>
      </trkpt>
      <trkpt lat="44.07485" lon="6.85647">
        <ele>807</ele>
        <time>2020-06-05T06:48:56.000Z</time>
      </trkpt>
      <trkpt lat="44.07485" lon="6.85647">
        <ele>807</ele>
        <time>2020-06-05T06:48:57.000Z</time>
      </trkpt>
      <trkpt lat="44.07485" lon="6.85647">
        <ele>807</ele>
        <time>2020-06-05T06:48:58.000Z</time>
      </trkpt>
      <trkpt lat="44.07485" lon="6.85647">
        <ele>807</ele>
        <time>2020-06-05T06:48:59.000Z</time>
      </trkpt>
      <trkpt lat="44.07485" lon="6.85647">
        <ele>807</ele>
        <time>2020-06-05T06:49:00.000Z</time>
      </trkpt>
      <trkpt lat="44.07485" lon="6.85647">
        <ele>807</ele>
        <time>2020-06-05T06:49:01.000Z</time>
      </trkpt>
      <trkpt lat="44.07485" lon="6.85647">
        <ele>807</ele>
        <time>2020-06-05T06:49:02.000Z</time>
      </trkpt>
      <trkpt lat="44.07485" lon="6.85646">
        <ele>807</ele>
        <time>2020-06-05T06:49:03.000Z</time>
      </trkpt>
      <trkpt lat="44.07485" lon="6.85646">
        <ele>807</ele>
        <time>2020-06-05T06:49:04.000Z</time>
      </trkpt>
      <trkpt lat="44.07485" lon="6.85646">
        <ele>807</ele>
        <time>2020-06-05T06:49:05.000Z</time>
      </trkpt>
      <trkpt lat="44.07485" lon="6.85646">
        <ele>807</ele>
        <time>2020-06-05T06:49:06.000Z</time>
      </trkpt>
      <trkpt lat="44.07485" lon="6.85646">
        <ele>807</ele>
        <time>2020-06-05T06:49:07.000Z</time>
      </trkpt>
      <trkpt lat="44.07485" lon="6.85647">
        <ele>807</ele>
        <time>2020-06-05T06:49:08.000Z</time>
      </trkpt>
      <trkpt lat="44.07485" lon="6.85647">
        <ele>807</ele>
        <time>2020-06-05T06:49:09.000Z</time>
      </trkpt>
      <trkpt lat="44.07485" lon="6.85647">
        <ele>807</ele>
        <time>2020-06-05T06:49:10.000Z</time>
      </trkpt>
      <trkpt lat="44.07485" lon="6.85647">
        <ele>807</ele>
        <time>2020-06-05T06:49:11.000Z</time>
      </trkpt>
      <trkpt lat="44.07485" lon="6.85647">
        <ele>807</ele>
        <time>2020-06-05T06:49:12.000Z</time>
      </trkpt>
      <trkpt lat="44.07485" lon="6.85647">
        <ele>807</ele>
        <time>2020-06-05T06:49:13.000Z</time>
      </trkpt>
      <trkpt lat="44.07484" lon="6.85647">
        <ele>807</ele>
        <time>2020-06-05T06:49:14.000Z</time>
      </trkpt>
      <trkpt lat="44.07484" lon="6.85647">
        <ele>807</ele>
        <time>2020-06-05T06:49:15.000Z</time>
      </trkpt>
      <trkpt lat="44.07483" lon="6.85646">
        <ele>807</ele>
        <time>2020-06-05T06:49:16.000Z</time>
      </trkpt>
      <trkpt lat="44.07483" lon="6.85645">
        <ele>808</ele>
        <time>2020-06-05T06:49:17.000Z</time>
      </trkpt>
      <trkpt lat="44.07482" lon="6.85645">
        <ele>808</ele>
        <time>2020-06-05T06:49:18.000Z</time>
      </trkpt>
      <trkpt lat="44.07481" lon="6.85644">
        <ele>808</ele>
        <time>2020-06-05T06:49:19.000Z</time>
      </trkpt>
      <trkpt lat="44.07481" lon="6.85644">
        <ele>808</ele>
        <time>2020-06-05T06:49:20.000Z</time>
      </trkpt>
      <trkpt lat="44.0748" lon="6.85644">
        <ele>808</ele>
        <time>2020-06-05T06:49:21.000Z</time>
      </trkpt>
      <trkpt lat="44.07479" lon="6.85644">
        <ele>808</ele>
        <time>2020-06-05T06:49:22.000Z</time>
      </trkpt>
      <trkpt lat="44.07478" lon="6.85643">
        <ele>808</ele>
        <time>2020-06-05T06:49:23.000Z</time>
      </trkpt>
      <trkpt lat="44.07477" lon="6.85643">
        <ele>808</ele>
        <time>2020-06-05T06:49:24.000Z</time>
      </trkpt>
      <trkpt lat="44.07476" lon="6.85643">
        <ele>808</ele>
        <time>2020-06-05T06:49:25.000Z</time>
      </trkpt>
      <trkpt lat="44.07476" lon="6.85642">
        <ele>808</ele>
        <time>2020-06-05T06:49:26.000Z</time>
      </trkpt>
      <trkpt lat="44.07475" lon="6.85642">
        <ele>808</ele>
        <time>2020-06-05T06:49:27.000Z</time>
      </trkpt>
      <trkpt lat="44.07475" lon="6.85642">
        <ele>808</ele>
        <time>2020-06-05T06:49:28.000Z</time>
      </trkpt>
      <trkpt lat="44.07474" lon="6.85641">
        <ele>808</ele>
        <time>2020-06-05T06:49:29.000Z</time>
      </trkpt>
      <trkpt lat="44.07474" lon="6.85641">
        <ele>808</ele>
        <time>2020-06-05T06:49:30.000Z</time>
      </trkpt>
      <trkpt lat="44.07473" lon="6.8564">
        <ele>808</ele>
        <time>2020-06-05T06:49:31.000Z</time>
      </trkpt>
      <trkpt lat="44.07473" lon="6.8564">
        <ele>809</ele>
        <time>2020-06-05T06:49:32.000Z</time>
      </trkpt>
      <trkpt lat="44.07473" lon="6.8564">
        <ele>809</ele>
        <time>2020-06-05T06:49:33.000Z</time>
      </trkpt>
      <trkpt lat="44.07473" lon="6.8564">
        <ele>809</ele>
        <time>2020-06-05T06:49:34.000Z</time>
      </trkpt>
      <trkpt lat="44.07473" lon="6.8564">
        <ele>809</ele>
        <time>2020-06-05T06:49:35.000Z</time>
      </trkpt>
      <trkpt lat="44.07473" lon="6.8564">
        <ele>809</ele>
        <time>2020-06-05T06:49:36.000Z</time>
      </trkpt>
      <trkpt lat="44.07473" lon="6.8564">
        <ele>809</ele>
        <time>2020-06-05T06:49:37.000Z</time>
      </trkpt>
      <trkpt lat="44.07473" lon="6.8564">
        <ele>809</ele>
        <time>2020-06-05T06:49:38.000Z</time>
      </trkpt>
      <trkpt lat="44.07473" lon="6.8564">
        <ele>809</ele>
        <time>2020-06-05T06:49:39.000Z</time>
      </trkpt>
      <trkpt lat="44.07473" lon="6.8564">
        <ele>809</ele>
        <time>2020-06-05T06:49:40.000Z</time>
      </trkpt>
      <trkpt lat="44.07473" lon="6.8564">
        <ele>809</ele>
        <time>2020-06-05T06:49:41.000Z</time>
      </trkpt>
      <trkpt lat="44.07473" lon="6.8564">
        <ele>809</ele>
        <time>2020-06-05T06:49:42.000Z</time>
      </trkpt>
      <trkpt lat="44.07473" lon="6.85639">
        <ele>809</ele>
        <time>2020-06-05T06:49:43.000Z</time>
      </trkpt>
      <trkpt lat="44.07473" lon="6.85639">
        <ele>809</ele>
        <time>2020-06-05T06:49:44.000Z</time>
      </trkpt>
      <trkpt lat="44.07472" lon="6.85638">
        <ele>809</ele>
        <time>2020-06-05T06:49:45.000Z</time>
      </trkpt>
      <trkpt lat="44.07472" lon="6.85638">
        <ele>809</ele>
        <time>2020-06-05T06:49:46.000Z</time>
      </trkpt>
      <trkpt lat="44.07471" lon="6.85638">
        <ele>809</ele>
        <time>2020-06-05T06:49:47.000Z</time>
      </trkpt>
      <trkpt lat="44.07471" lon="6.85638">
        <ele>809</ele>
        <time>2020-06-05T06:49:48.000Z</time>
      </trkpt>
      <trkpt lat="44.07471" lon="6.85637">
        <ele>809</ele>
        <time>2020-06-05T06:49:49.000Z</time>
      </trkpt>
      <trkpt lat="44.0747" lon="6.85637">
        <ele>809</ele>
        <time>2020-06-05T06:49:50.000Z</time>
      </trkpt>
      <trkpt lat="44.07469" lon="6.85638">
        <ele>809</ele>
        <time>2020-06-05T06:49:51.000Z</time>
      </trkpt>
      <trkpt lat="44.07469" lon="6.85637">
        <ele>809</ele>
        <time>2020-06-05T06:49:52.000Z</time>
      </trkpt>
      <trkpt lat="44.07468" lon="6.85637">
        <ele>809</ele>
        <time>2020-06-05T06:49:53.000Z</time>
      </trkpt>
      <trkpt lat="44.07467" lon="6.85637">
        <ele>809</ele>
        <time>2020-06-05T06:49:54.000Z</time>
      </trkpt>
      <trkpt lat="44.07466" lon="6.85637">
        <ele>809</ele>
        <time>2020-06-05T06:49:55.000Z</time>
      </trkpt>
      <trkpt lat="44.07464" lon="6.85636">
        <ele>809</ele>
        <time>2020-06-05T06:49:56.000Z</time>
      </trkpt>
      <trkpt lat="44.07463" lon="6.85636">
        <ele>809</ele>
        <time>2020-06-05T06:49:57.000Z</time>
      </trkpt>
      <trkpt lat="44.07462" lon="6.85636">
        <ele>809</ele>
        <time>2020-06-05T06:49:58.000Z</time>
      </trkpt>
      <trkpt lat="44.07461" lon="6.85636">
        <ele>809</ele>
        <time>2020-06-05T06:49:59.000Z</time>
      </trkpt>
      <trkpt lat="44.07459" lon="6.85636">
        <ele>809</ele>
        <time>2020-06-05T06:50:00.000Z</time>
      </trkpt>
      <trkpt lat="44.07458" lon="6.85637">
        <ele>809</ele>
        <time>2020-06-05T06:50:01.000Z</time>
      </trkpt>
      <trkpt lat="44.07457" lon="6.85637">
        <ele>809</ele>
        <time>2020-06-05T06:50:02.000Z</time>
      </trkpt>
      <trkpt lat="44.07456" lon="6.85637">
        <ele>809</ele>
        <time>2020-06-05T06:50:03.000Z</time>
      </trkpt>
      <trkpt lat="44.07455" lon="6.85638">
        <ele>809</ele>
        <time>2020-06-05T06:50:04.000Z</time>
      </trkpt>
      <trkpt lat="44.07454" lon="6.85638">
        <ele>809</ele>
        <time>2020-06-05T06:50:05.000Z</time>
      </trkpt>
      <trkpt lat="44.07453" lon="6.85639">
        <ele>809</ele>
        <time>2020-06-05T06:50:06.000Z</time>
      </trkpt>
      <trkpt lat="44.07452" lon="6.85639">
        <ele>809</ele>
        <time>2020-06-05T06:50:07.000Z</time>
      </trkpt>
      <trkpt lat="44.07451" lon="6.85639">
        <ele>809</ele>
        <time>2020-06-05T06:50:08.000Z</time>
      </trkpt>
      <trkpt lat="44.0745" lon="6.85639">
        <ele>809</ele>
        <time>2020-06-05T06:50:09.000Z</time>
      </trkpt>
      <trkpt lat="44.07449" lon="6.85639">
        <ele>809</ele>
        <time>2020-06-05T06:50:10.000Z</time>
      </trkpt>
      <trkpt lat="44.07448" lon="6.85639">
        <ele>809</ele>
        <time>2020-06-05T06:50:11.000Z</time>
      </trkpt>
      <trkpt lat="44.07447" lon="6.85639">
        <ele>810</ele>
        <time>2020-06-05T06:50:12.000Z</time>
      </trkpt>
      <trkpt lat="44.07446" lon="6.85639">
        <ele>810</ele>
        <time>2020-06-05T06:50:13.000Z</time>
      </trkpt>
      <trkpt lat="44.07445" lon="6.85639">
        <ele>810</ele>
        <time>2020-06-05T06:50:14.000Z</time>
      </trkpt>
      <trkpt lat="44.07444" lon="6.85638">
        <ele>810</ele>
        <time>2020-06-05T06:50:15.000Z</time>
      </trkpt>
      <trkpt lat="44.07443" lon="6.85638">
        <ele>810</ele>
        <time>2020-06-05T06:50:16.000Z</time>
      </trkpt>
      <trkpt lat="44.07442" lon="6.85637">
        <ele>810</ele>
        <time>2020-06-05T06:50:17.000Z</time>
      </trkpt>
      <trkpt lat="44.07442" lon="6.85636">
        <ele>810</ele>
        <time>2020-06-05T06:50:18.000Z</time>
      </trkpt>
      <trkpt lat="44.07441" lon="6.85636">
        <ele>811</ele>
        <time>2020-06-05T06:50:19.000Z</time>
      </trkpt>
      <trkpt lat="44.0744" lon="6.85636">
        <ele>811</ele>
        <time>2020-06-05T06:50:20.000Z</time>
      </trkpt>
      <trkpt lat="44.0744" lon="6.85635">
        <ele>811</ele>
        <time>2020-06-05T06:50:21.000Z</time>
      </trkpt>
      <trkpt lat="44.07439" lon="6.85634">
        <ele>811</ele>
        <time>2020-06-05T06:50:22.000Z</time>
      </trkpt>
      <trkpt lat="44.07439" lon="6.85634">
        <ele>811</ele>
        <time>2020-06-05T06:50:23.000Z</time>
      </trkpt>
      <trkpt lat="44.07438" lon="6.85633">
        <ele>811</ele>
        <time>2020-06-05T06:50:24.000Z</time>
      </trkpt>
      <trkpt lat="44.07438" lon="6.85632">
        <ele>811</ele>
        <time>2020-06-05T06:50:25.000Z</time>
      </trkpt>
      <trkpt lat="44.07437" lon="6.85631">
        <ele>811</ele>
        <time>2020-06-05T06:50:26.000Z</time>
      </trkpt>
      <trkpt lat="44.07437" lon="6.8563">
        <ele>811</ele>
        <time>2020-06-05T06:50:27.000Z</time>
      </trkpt>
      <trkpt lat="44.07436" lon="6.8563">
        <ele>812</ele>
        <time>2020-06-05T06:50:28.000Z</time>
      </trkpt>
      <trkpt lat="44.07436" lon="6.85629">
        <ele>812</ele>
        <time>2020-06-05T06:50:29.000Z</time>
      </trkpt>
      <trkpt lat="44.07435" lon="6.85628">
        <ele>812</ele>
        <time>2020-06-05T06:50:30.000Z</time>
      </trkpt>
      <trkpt lat="44.07435" lon="6.85627">
        <ele>812</ele>
        <time>2020-06-05T06:50:31.000Z</time>
      </trkpt>
      <trkpt lat="44.07434" lon="6.85626">
        <ele>812</ele>
        <time>2020-06-05T06:50:32.000Z</time>
      </trkpt>
      <trkpt lat="44.07434" lon="6.85625">
        <ele>812</ele>
        <time>2020-06-05T06:50:33.000Z</time>
      </trkpt>
      <trkpt lat="44.07433" lon="6.85624">
        <ele>813</ele>
        <time>2020-06-05T06:50:34.000Z</time>
      </trkpt>
      <trkpt lat="44.07433" lon="6.85624">
        <ele>813</ele>
        <time>2020-06-05T06:50:35.000Z</time>
      </trkpt>
      <trkpt lat="44.07433" lon="6.85624">
        <ele>813</ele>
        <time>2020-06-05T06:50:36.000Z</time>
      </trkpt>
      <trkpt lat="44.07432" lon="6.85623">
        <ele>813</ele>
        <time>2020-06-05T06:50:37.000Z</time>
      </trkpt>
      <trkpt lat="44.07432" lon="6.85622">
        <ele>813</ele>
        <time>2020-06-05T06:50:38.000Z</time>
      </trkpt>
      <trkpt lat="44.07431" lon="6.85622">
        <ele>814</ele>
        <time>2020-06-05T06:50:39.000Z</time>
      </trkpt>
      <trkpt lat="44.0743" lon="6.85621">
        <ele>814</ele>
        <time>2020-06-05T06:50:40.000Z</time>
      </trkpt>
      <trkpt lat="44.07429" lon="6.85621">
        <ele>814</ele>
        <time>2020-06-05T06:50:41.000Z</time>
      </trkpt>
      <trkpt lat="44.07428" lon="6.8562">
        <ele>814</ele>
        <time>2020-06-05T06:50:42.000Z</time>
      </trkpt>
      <trkpt lat="44.07427" lon="6.8562">
        <ele>815</ele>
        <time>2020-06-05T06:50:43.000Z</time>
      </trkpt>
      <trkpt lat="44.07426" lon="6.85619">
        <ele>815</ele>
        <time>2020-06-05T06:50:44.000Z</time>
      </trkpt>
      <trkpt lat="44.07425" lon="6.85619">
        <ele>815</ele>
        <time>2020-06-05T06:50:45.000Z</time>
      </trkpt>
      <trkpt lat="44.07424" lon="6.85619">
        <ele>815</ele>
        <time>2020-06-05T06:50:46.000Z</time>
      </trkpt>
      <trkpt lat="44.07423" lon="6.85618">
        <ele>815</ele>
        <time>2020-06-05T06:50:47.000Z</time>
      </trkpt>
      <trkpt lat="44.07422" lon="6.85618">
        <ele>816</ele>
        <time>2020-06-05T06:50:48.000Z</time>
      </trkpt>
      <trkpt lat="44.07421" lon="6.85618">
        <ele>816</ele>
        <time>2020-06-05T06:50:49.000Z</time>
      </trkpt>
      <trkpt lat="44.0742" lon="6.85618">
        <ele>816</ele>
        <time>2020-06-05T06:50:50.000Z</time>
      </trkpt>
      <trkpt lat="44.07418" lon="6.85618">
        <ele>816</ele>
        <time>2020-06-05T06:50:51.000Z</time>
      </trkpt>
      <trkpt lat="44.07417" lon="6.85618">
        <ele>816</ele>
        <time>2020-06-05T06:50:52.000Z</time>
      </trkpt>
      <trkpt lat="44.07417" lon="6.85618">
        <ele>816</ele>
        <time>2020-06-05T06:50:53.000Z</time>
      </trkpt>
      <trkpt lat="44.07416" lon="6.85618">
        <ele>817</ele>
        <time>2020-06-05T06:50:54.000Z</time>
      </trkpt>
      <trkpt lat="44.07415" lon="6.85618">
        <ele>817</ele>
        <time>2020-06-05T06:50:55.000Z</time>
      </trkpt>
      <trkpt lat="44.07414" lon="6.85618">
        <ele>817</ele>
        <time>2020-06-05T06:50:56.000Z</time>
      </trkpt>
      <trkpt lat="44.07413" lon="6.85617">
        <ele>817</ele>
        <time>2020-06-05T06:50:57.000Z</time>
      </trkpt>
      <trkpt lat="44.07412" lon="6.85617">
        <ele>817</ele>
        <time>2020-06-05T06:50:58.000Z</time>
      </trkpt>
      <trkpt lat="44.07412" lon="6.85617">
        <ele>817</ele>
        <time>2020-06-05T06:50:59.000Z</time>
      </trkpt>
      <trkpt lat="44.07411" lon="6.85616">
        <ele>817</ele>
        <time>2020-06-05T06:51:00.000Z</time>
      </trkpt>
      <trkpt lat="44.0741" lon="6.85616">
        <ele>817</ele>
        <time>2020-06-05T06:51:01.000Z</time>
      </trkpt>
      <trkpt lat="44.07409" lon="6.85615">
        <ele>817</ele>
        <time>2020-06-05T06:51:02.000Z</time>
      </trkpt>
      <trkpt lat="44.07408" lon="6.85614">
        <ele>818</ele>
        <time>2020-06-05T06:51:03.000Z</time>
      </trkpt>
      <trkpt lat="44.07407" lon="6.85614">
        <ele>818</ele>
        <time>2020-06-05T06:51:04.000Z</time>
      </trkpt>
      <trkpt lat="44.07406" lon="6.85613">
        <ele>818</ele>
        <time>2020-06-05T06:51:05.000Z</time>
      </trkpt>
      <trkpt lat="44.07406" lon="6.85612">
        <ele>818</ele>
        <time>2020-06-05T06:51:06.000Z</time>
      </trkpt>
      <trkpt lat="44.07405" lon="6.85611">
        <ele>818</ele>
        <time>2020-06-05T06:51:07.000Z</time>
      </trkpt>
      <trkpt lat="44.07404" lon="6.8561">
        <ele>818</ele>
        <time>2020-06-05T06:51:08.000Z</time>
      </trkpt>
      <trkpt lat="44.07403" lon="6.85609">
        <ele>818</ele>
        <time>2020-06-05T06:51:09.000Z</time>
      </trkpt>
      <trkpt lat="44.07402" lon="6.85608">
        <ele>818</ele>
        <time>2020-06-05T06:51:10.000Z</time>
      </trkpt>
      <trkpt lat="44.07401" lon="6.85607">
        <ele>818</ele>
        <time>2020-06-05T06:51:11.000Z</time>
      </trkpt>
      <trkpt lat="44.074" lon="6.85606">
        <ele>818</ele>
        <time>2020-06-05T06:51:12.000Z</time>
      </trkpt>
      <trkpt lat="44.07399" lon="6.85605">
        <ele>818</ele>
        <time>2020-06-05T06:51:13.000Z</time>
      </trkpt>
      <trkpt lat="44.07399" lon="6.85605">
        <ele>818</ele>
        <time>2020-06-05T06:51:14.000Z</time>
      </trkpt>
      <trkpt lat="44.07399" lon="6.85604">
        <ele>818</ele>
        <time>2020-06-05T06:51:15.000Z</time>
      </trkpt>
      <trkpt lat="44.07398" lon="6.85603">
        <ele>818</ele>
        <time>2020-06-05T06:51:16.000Z</time>
      </trkpt>
      <trkpt lat="44.07398" lon="6.85602">
        <ele>818</ele>
        <time>2020-06-05T06:51:17.000Z</time>
      </trkpt>
      <trkpt lat="44.07397" lon="6.85601">
        <ele>819</ele>
        <time>2020-06-05T06:51:18.000Z</time>
      </trkpt>
      <trkpt lat="44.07396" lon="6.856">
        <ele>819</ele>
        <time>2020-06-05T06:51:19.000Z</time>
      </trkpt>
      <trkpt lat="44.07396" lon="6.85599">
        <ele>819</ele>
        <time>2020-06-05T06:51:20.000Z</time>
      </trkpt>
      <trkpt lat="44.07395" lon="6.85599">
        <ele>819</ele>
        <time>2020-06-05T06:51:21.000Z</time>
      </trkpt>
      <trkpt lat="44.07395" lon="6.85598">
        <ele>819</ele>
        <time>2020-06-05T06:51:22.000Z</time>
      </trkpt>
      <trkpt lat="44.07394" lon="6.85597">
        <ele>819</ele>
        <time>2020-06-05T06:51:23.000Z</time>
      </trkpt>
      <trkpt lat="44.07393" lon="6.85597">
        <ele>819</ele>
        <time>2020-06-05T06:51:24.000Z</time>
      </trkpt>
      <trkpt lat="44.07392" lon="6.85597">
        <ele>819</ele>
        <time>2020-06-05T06:51:25.000Z</time>
      </trkpt>
      <trkpt lat="44.07391" lon="6.85596">
        <ele>819</ele>
        <time>2020-06-05T06:51:26.000Z</time>
      </trkpt>
      <trkpt lat="44.0739" lon="6.85596">
        <ele>819</ele>
        <time>2020-06-05T06:51:27.000Z</time>
      </trkpt>
      <trkpt lat="44.07389" lon="6.85597">
        <ele>819</ele>
        <time>2020-06-05T06:51:28.000Z</time>
      </trkpt>
      <trkpt lat="44.07388" lon="6.85597">
        <ele>819</ele>
        <time>2020-06-05T06:51:29.000Z</time>
      </trkpt>
      <trkpt lat="44.07387" lon="6.85598">
        <ele>819</ele>
        <time>2020-06-05T06:51:30.000Z</time>
      </trkpt>
      <trkpt lat="44.07386" lon="6.85599">
        <ele>819</ele>
        <time>2020-06-05T06:51:31.000Z</time>
      </trkpt>
      <trkpt lat="44.07385" lon="6.85599">
        <ele>819</ele>
        <time>2020-06-05T06:51:32.000Z</time>
      </trkpt>
      <trkpt lat="44.07385" lon="6.856">
        <ele>819</ele>
        <time>2020-06-05T06:51:33.000Z</time>
      </trkpt>
      <trkpt lat="44.07384" lon="6.85601">
        <ele>820</ele>
        <time>2020-06-05T06:51:34.000Z</time>
      </trkpt>
      <trkpt lat="44.07383" lon="6.85602">
        <ele>820</ele>
        <time>2020-06-05T06:51:35.000Z</time>
      </trkpt>
      <trkpt lat="44.07383" lon="6.85603">
        <ele>820</ele>
        <time>2020-06-05T06:51:36.000Z</time>
      </trkpt>
      <trkpt lat="44.07382" lon="6.85604">
        <ele>820</ele>
        <time>2020-06-05T06:51:37.000Z</time>
      </trkpt>
      <trkpt lat="44.07382" lon="6.85604">
        <ele>820</ele>
        <time>2020-06-05T06:51:38.000Z</time>
      </trkpt>
      <trkpt lat="44.07382" lon="6.85605">
        <ele>820</ele>
        <time>2020-06-05T06:51:39.000Z</time>
      </trkpt>
      <trkpt lat="44.07382" lon="6.85606">
        <ele>820</ele>
        <time>2020-06-05T06:51:40.000Z</time>
      </trkpt>
      <trkpt lat="44.07382" lon="6.85606">
        <ele>820</ele>
        <time>2020-06-05T06:51:41.000Z</time>
      </trkpt>
      <trkpt lat="44.07382" lon="6.85607">
        <ele>820</ele>
        <time>2020-06-05T06:51:42.000Z</time>
      </trkpt>
      <trkpt lat="44.07382" lon="6.85608">
        <ele>820</ele>
        <time>2020-06-05T06:51:43.000Z</time>
      </trkpt>
      <trkpt lat="44.07382" lon="6.85609">
        <ele>820</ele>
        <time>2020-06-05T06:51:44.000Z</time>
      </trkpt>
      <trkpt lat="44.07382" lon="6.85611">
        <ele>820</ele>
        <time>2020-06-05T06:51:45.000Z</time>
      </trkpt>
      <trkpt lat="44.07381" lon="6.85612">
        <ele>820</ele>
        <time>2020-06-05T06:51:46.000Z</time>
      </trkpt>
      <trkpt lat="44.07381" lon="6.85613">
        <ele>820</ele>
        <time>2020-06-05T06:51:47.000Z</time>
      </trkpt>
      <trkpt lat="44.07381" lon="6.85614">
        <ele>820</ele>
        <time>2020-06-05T06:51:48.000Z</time>
      </trkpt>
      <trkpt lat="44.0738" lon="6.85615">
        <ele>820</ele>
        <time>2020-06-05T06:51:49.000Z</time>
      </trkpt>
      <trkpt lat="44.0738" lon="6.85616">
        <ele>820</ele>
        <time>2020-06-05T06:51:50.000Z</time>
      </trkpt>
      <trkpt lat="44.07379" lon="6.85617">
        <ele>821</ele>
        <time>2020-06-05T06:51:51.000Z</time>
      </trkpt>
      <trkpt lat="44.07379" lon="6.85618">
        <ele>820</ele>
        <time>2020-06-05T06:51:52.000Z</time>
      </trkpt>
      <trkpt lat="44.07378" lon="6.85619">
        <ele>820</ele>
        <time>2020-06-05T06:51:53.000Z</time>
      </trkpt>
      <trkpt lat="44.07377" lon="6.85619">
        <ele>820</ele>
        <time>2020-06-05T06:51:54.000Z</time>
      </trkpt>
      <trkpt lat="44.07376" lon="6.8562">
        <ele>820</ele>
        <time>2020-06-05T06:51:55.000Z</time>
      </trkpt>
      <trkpt lat="44.07375" lon="6.8562">
        <ele>820</ele>
        <time>2020-06-05T06:51:56.000Z</time>
      </trkpt>
      <trkpt lat="44.07375" lon="6.85621">
        <ele>820</ele>
        <time>2020-06-05T06:51:57.000Z</time>
      </trkpt>
      <trkpt lat="44.07374" lon="6.85621">
        <ele>820</ele>
        <time>2020-06-05T06:51:58.000Z</time>
      </trkpt>
      <trkpt lat="44.07374" lon="6.85621">
        <ele>820</ele>
        <time>2020-06-05T06:51:59.000Z</time>
      </trkpt>
      <trkpt lat="44.07373" lon="6.85622">
        <ele>820</ele>
        <time>2020-06-05T06:52:00.000Z</time>
      </trkpt>
      <trkpt lat="44.07372" lon="6.85622">
        <ele>821</ele>
        <time>2020-06-05T06:52:01.000Z</time>
      </trkpt>
      <trkpt lat="44.07372" lon="6.85622">
        <ele>821</ele>
        <time>2020-06-05T06:52:02.000Z</time>
      </trkpt>
      <trkpt lat="44.07371" lon="6.85623">
        <ele>821</ele>
        <time>2020-06-05T06:52:03.000Z</time>
      </trkpt>
      <trkpt lat="44.07371" lon="6.85623">
        <ele>821</ele>
        <time>2020-06-05T06:52:04.000Z</time>
      </trkpt>
      <trkpt lat="44.0737" lon="6.85623">
        <ele>821</ele>
        <time>2020-06-05T06:52:05.000Z</time>
      </trkpt>
      <trkpt lat="44.07369" lon="6.85623">
        <ele>821</ele>
        <time>2020-06-05T06:52:06.000Z</time>
      </trkpt>
      <trkpt lat="44.07369" lon="6.85623">
        <ele>821</ele>
        <time>2020-06-05T06:52:07.000Z</time>
      </trkpt>
      <trkpt lat="44.07368" lon="6.85624">
        <ele>821</ele>
        <time>2020-06-05T06:52:08.000Z</time>
      </trkpt>
      <trkpt lat="44.07367" lon="6.85624">
        <ele>821</ele>
        <time>2020-06-05T06:52:09.000Z</time>
      </trkpt>
      <trkpt lat="44.07367" lon="6.85624">
        <ele>821</ele>
        <time>2020-06-05T06:52:10.000Z</time>
      </trkpt>
      <trkpt lat="44.07366" lon="6.85624">
        <ele>821</ele>
        <time>2020-06-05T06:52:11.000Z</time>
      </trkpt>
      <trkpt lat="44.07365" lon="6.85625">
        <ele>821</ele>
        <time>2020-06-05T06:52:12.000Z</time>
      </trkpt>
      <trkpt lat="44.07364" lon="6.85625">
        <ele>821</ele>
        <time>2020-06-05T06:52:13.000Z</time>
      </trkpt>
      <trkpt lat="44.07363" lon="6.85625">
        <ele>821</ele>
        <time>2020-06-05T06:52:14.000Z</time>
      </trkpt>
      <trkpt lat="44.07363" lon="6.85625">
        <ele>821</ele>
        <time>2020-06-05T06:52:15.000Z</time>
      </trkpt>
      <trkpt lat="44.07362" lon="6.85626">
        <ele>821</ele>
        <time>2020-06-05T06:52:16.000Z</time>
      </trkpt>
      <trkpt lat="44.07361" lon="6.85626">
        <ele>822</ele>
        <time>2020-06-05T06:52:17.000Z</time>
      </trkpt>
      <trkpt lat="44.0736" lon="6.85626">
        <ele>822</ele>
        <time>2020-06-05T06:52:18.000Z</time>
      </trkpt>
      <trkpt lat="44.0736" lon="6.85626">
        <ele>822</ele>
        <time>2020-06-05T06:52:19.000Z</time>
      </trkpt>
      <trkpt lat="44.07359" lon="6.85626">
        <ele>822</ele>
        <time>2020-06-05T06:52:20.000Z</time>
      </trkpt>
      <trkpt lat="44.07358" lon="6.85626">
        <ele>822</ele>
        <time>2020-06-05T06:52:21.000Z</time>
      </trkpt>
      <trkpt lat="44.07358" lon="6.85626">
        <ele>822</ele>
        <time>2020-06-05T06:52:22.000Z</time>
      </trkpt>
      <trkpt lat="44.07357" lon="6.85626">
        <ele>822</ele>
        <time>2020-06-05T06:52:23.000Z</time>
      </trkpt>
      <trkpt lat="44.07356" lon="6.85627">
        <ele>822</ele>
        <time>2020-06-05T06:52:24.000Z</time>
      </trkpt>
      <trkpt lat="44.07355" lon="6.85627">
        <ele>822</ele>
        <time>2020-06-05T06:52:25.000Z</time>
      </trkpt>
      <trkpt lat="44.07354" lon="6.85627">
        <ele>822</ele>
        <time>2020-06-05T06:52:26.000Z</time>
      </trkpt>
      <trkpt lat="44.07354" lon="6.85626">
        <ele>822</ele>
        <time>2020-06-05T06:52:27.000Z</time>
      </trkpt>
      <trkpt lat="44.07353" lon="6.85626">
        <ele>822</ele>
        <time>2020-06-05T06:52:28.000Z</time>
      </trkpt>
      <trkpt lat="44.07353" lon="6.85626">
        <ele>822</ele>
        <time>2020-06-05T06:52:29.000Z</time>
      </trkpt>
      <trkpt lat="44.07352" lon="6.85626">
        <ele>823</ele>
        <time>2020-06-05T06:52:30.000Z</time>
      </trkpt>
      <trkpt lat="44.07352" lon="6.85626">
        <ele>823</ele>
        <time>2020-06-05T06:52:31.000Z</time>
      </trkpt>
      <trkpt lat="44.07351" lon="6.85626">
        <ele>823</ele>
        <time>2020-06-05T06:52:32.000Z</time>
      </trkpt>
      <trkpt lat="44.07351" lon="6.85626">
        <ele>823</ele>
        <time>2020-06-05T06:52:33.000Z</time>
      </trkpt>
      <trkpt lat="44.0735" lon="6.85626">
        <ele>823</ele>
        <time>2020-06-05T06:52:34.000Z</time>
      </trkpt>
      <trkpt lat="44.07349" lon="6.85626">
        <ele>823</ele>
        <time>2020-06-05T06:52:35.000Z</time>
      </trkpt>
      <trkpt lat="44.07348" lon="6.85626">
        <ele>823</ele>
        <time>2020-06-05T06:52:36.000Z</time>
      </trkpt>
      <trkpt lat="44.07347" lon="6.85626">
        <ele>823</ele>
        <time>2020-06-05T06:52:37.000Z</time>
      </trkpt>
      <trkpt lat="44.07346" lon="6.85626">
        <ele>823</ele>
        <time>2020-06-05T06:52:38.000Z</time>
      </trkpt>
      <trkpt lat="44.07344" lon="6.85626">
        <ele>823</ele>
        <time>2020-06-05T06:52:39.000Z</time>
      </trkpt>
      <trkpt lat="44.07343" lon="6.85626">
        <ele>823</ele>
        <time>2020-06-05T06:52:40.000Z</time>
      </trkpt>
      <trkpt lat="44.07342" lon="6.85626">
        <ele>824</ele>
        <time>2020-06-05T06:52:41.000Z</time>
      </trkpt>
      <trkpt lat="44.07341" lon="6.85625">
        <ele>824</ele>
        <time>2020-06-05T06:52:42.000Z</time>
      </trkpt>
      <trkpt lat="44.07341" lon="6.85625">
        <ele>824</ele>
        <time>2020-06-05T06:52:43.000Z</time>
      </trkpt>
      <trkpt lat="44.0734" lon="6.85625">
        <ele>824</ele>
        <time>2020-06-05T06:52:44.000Z</time>
      </trkpt>
      <trkpt lat="44.07339" lon="6.85625">
        <ele>824</ele>
        <time>2020-06-05T06:52:45.000Z</time>
      </trkpt>
      <trkpt lat="44.07338" lon="6.85625">
        <ele>824</ele>
        <time>2020-06-05T06:52:46.000Z</time>
      </trkpt>
      <trkpt lat="44.07337" lon="6.85625">
        <ele>824</ele>
        <time>2020-06-05T06:52:47.000Z</time>
      </trkpt>
      <trkpt lat="44.07336" lon="6.85625">
        <ele>825</ele>
        <time>2020-06-05T06:52:48.000Z</time>
      </trkpt>
      <trkpt lat="44.07335" lon="6.85624">
        <ele>825</ele>
        <time>2020-06-05T06:52:49.000Z</time>
      </trkpt>
      <trkpt lat="44.07334" lon="6.85624">
        <ele>825</ele>
        <time>2020-06-05T06:52:50.000Z</time>
      </trkpt>
      <trkpt lat="44.07333" lon="6.85624">
        <ele>825</ele>
        <time>2020-06-05T06:52:51.000Z</time>
      </trkpt>
      <trkpt lat="44.07333" lon="6.85623">
        <ele>825</ele>
        <time>2020-06-05T06:52:52.000Z</time>
      </trkpt>
      <trkpt lat="44.07332" lon="6.85623">
        <ele>826</ele>
        <time>2020-06-05T06:52:53.000Z</time>
      </trkpt>
      <trkpt lat="44.07331" lon="6.85623">
        <ele>826</ele>
        <time>2020-06-05T06:52:54.000Z</time>
      </trkpt>
      <trkpt lat="44.0733" lon="6.85622">
        <ele>826</ele>
        <time>2020-06-05T06:52:55.000Z</time>
      </trkpt>
      <trkpt lat="44.07329" lon="6.85622">
        <ele>826</ele>
        <time>2020-06-05T06:52:56.000Z</time>
      </trkpt>
      <trkpt lat="44.07328" lon="6.85622">
        <ele>826</ele>
        <time>2020-06-05T06:52:57.000Z</time>
      </trkpt>
      <trkpt lat="44.07328" lon="6.85621">
        <ele>826</ele>
        <time>2020-06-05T06:52:58.000Z</time>
      </trkpt>
      <trkpt lat="44.07327" lon="6.8562">
        <ele>826</ele>
        <time>2020-06-05T06:52:59.000Z</time>
      </trkpt>
      <trkpt lat="44.07326" lon="6.8562">
        <ele>826</ele>
        <time>2020-06-05T06:53:00.000Z</time>
      </trkpt>
      <trkpt lat="44.07326" lon="6.85619">
        <ele>827</ele>
        <time>2020-06-05T06:53:01.000Z</time>
      </trkpt>
      <trkpt lat="44.07326" lon="6.85618">
        <ele>827</ele>
        <time>2020-06-05T06:53:02.000Z</time>
      </trkpt>
      <trkpt lat="44.07325" lon="6.85618">
        <ele>827</ele>
        <time>2020-06-05T06:53:03.000Z</time>
      </trkpt>
      <trkpt lat="44.07324" lon="6.85618">
        <ele>827</ele>
        <time>2020-06-05T06:53:04.000Z</time>
      </trkpt>
      <trkpt lat="44.07323" lon="6.85618">
        <ele>827</ele>
        <time>2020-06-05T06:53:05.000Z</time>
      </trkpt>
      <trkpt lat="44.07322" lon="6.85618">
        <ele>827</ele>
        <time>2020-06-05T06:53:06.000Z</time>
      </trkpt>
      <trkpt lat="44.07322" lon="6.85618">
        <ele>828</ele>
        <time>2020-06-05T06:53:07.000Z</time>
      </trkpt>
      <trkpt lat="44.07321" lon="6.85618">
        <ele>828</ele>
        <time>2020-06-05T06:53:08.000Z</time>
      </trkpt>
      <trkpt lat="44.07321" lon="6.85618">
        <ele>828</ele>
        <time>2020-06-05T06:53:09.000Z</time>
      </trkpt>
      <trkpt lat="44.0732" lon="6.85618">
        <ele>828</ele>
        <time>2020-06-05T06:53:10.000Z</time>
      </trkpt>
      <trkpt lat="44.0732" lon="6.85618">
        <ele>828</ele>
        <time>2020-06-05T06:53:11.000Z</time>
      </trkpt>
      <trkpt lat="44.07319" lon="6.85619">
        <ele>828</ele>
        <time>2020-06-05T06:53:12.000Z</time>
      </trkpt>
      <trkpt lat="44.07319" lon="6.85619">
        <ele>828</ele>
        <time>2020-06-05T06:53:13.000Z</time>
      </trkpt>
      <trkpt lat="44.07318" lon="6.85619">
        <ele>829</ele>
        <time>2020-06-05T06:53:14.000Z</time>
      </trkpt>
      <trkpt lat="44.07318" lon="6.8562">
        <ele>829</ele>
        <time>2020-06-05T06:53:15.000Z</time>
      </trkpt>
      <trkpt lat="44.07317" lon="6.8562">
        <ele>829</ele>
        <time>2020-06-05T06:53:16.000Z</time>
      </trkpt>
      <trkpt lat="44.07316" lon="6.85619">
        <ele>829</ele>
        <time>2020-06-05T06:53:17.000Z</time>
      </trkpt>
      <trkpt lat="44.07315" lon="6.85619">
        <ele>829</ele>
        <time>2020-06-05T06:53:18.000Z</time>
      </trkpt>
      <trkpt lat="44.07315" lon="6.85619">
        <ele>829</ele>
        <time>2020-06-05T06:53:19.000Z</time>
      </trkpt>
      <trkpt lat="44.07314" lon="6.85618">
        <ele>829</ele>
        <time>2020-06-05T06:53:20.000Z</time>
      </trkpt>
      <trkpt lat="44.07313" lon="6.85618">
        <ele>829</ele>
        <time>2020-06-05T06:53:21.000Z</time>
      </trkpt>
      <trkpt lat="44.07312" lon="6.85618">
        <ele>829</ele>
        <time>2020-06-05T06:53:22.000Z</time>
      </trkpt>
      <trkpt lat="44.07312" lon="6.85617">
        <ele>830</ele>
        <time>2020-06-05T06:53:23.000Z</time>
      </trkpt>
      <trkpt lat="44.07311" lon="6.85617">
        <ele>830</ele>
        <time>2020-06-05T06:53:24.000Z</time>
      </trkpt>
      <trkpt lat="44.0731" lon="6.85617">
        <ele>830</ele>
        <time>2020-06-05T06:53:25.000Z</time>
      </trkpt>
      <trkpt lat="44.07309" lon="6.85617">
        <ele>830</ele>
        <time>2020-06-05T06:53:26.000Z</time>
      </trkpt>
      <trkpt lat="44.07308" lon="6.85616">
        <ele>830</ele>
        <time>2020-06-05T06:53:27.000Z</time>
      </trkpt>
      <trkpt lat="44.07308" lon="6.85616">
        <ele>830</ele>
        <time>2020-06-05T06:53:28.000Z</time>
      </trkpt>
      <trkpt lat="44.07307" lon="6.85616">
        <ele>830</ele>
        <time>2020-06-05T06:53:29.000Z</time>
      </trkpt>
      <trkpt lat="44.07306" lon="6.85617">
        <ele>831</ele>
        <time>2020-06-05T06:53:30.000Z</time>
      </trkpt>
      <trkpt lat="44.07305" lon="6.85617">
        <ele>831</ele>
        <time>2020-06-05T06:53:31.000Z</time>
      </trkpt>
      <trkpt lat="44.07305" lon="6.85616">
        <ele>831</ele>
        <time>2020-06-05T06:53:32.000Z</time>
      </trkpt>
      <trkpt lat="44.07304" lon="6.85617">
        <ele>831</ele>
        <time>2020-06-05T06:53:33.000Z</time>
      </trkpt>
      <trkpt lat="44.07304" lon="6.85617">
        <ele>832</ele>
        <time>2020-06-05T06:53:34.000Z</time>
      </trkpt>
      <trkpt lat="44.07303" lon="6.85617">
        <ele>832</ele>
        <time>2020-06-05T06:53:35.000Z</time>
      </trkpt>
      <trkpt lat="44.07303" lon="6.85617">
        <ele>832</ele>
        <time>2020-06-05T06:53:36.000Z</time>
      </trkpt>
      <trkpt lat="44.07302" lon="6.85617">
        <ele>833</ele>
        <time>2020-06-05T06:53:37.000Z</time>
      </trkpt>
      <trkpt lat="44.07302" lon="6.85617">
        <ele>833</ele>
        <time>2020-06-05T06:53:38.000Z</time>
      </trkpt>
      <trkpt lat="44.07301" lon="6.85617">
        <ele>833</ele>
        <time>2020-06-05T06:53:39.000Z</time>
      </trkpt>
      <trkpt lat="44.07301" lon="6.85617">
        <ele>833</ele>
        <time>2020-06-05T06:53:40.000Z</time>
      </trkpt>
      <trkpt lat="44.073" lon="6.85617">
        <ele>834</ele>
        <time>2020-06-05T06:53:41.000Z</time>
      </trkpt>
      <trkpt lat="44.073" lon="6.85616">
        <ele>834</ele>
        <time>2020-06-05T06:53:42.000Z</time>
      </trkpt>
      <trkpt lat="44.07299" lon="6.85616">
        <ele>834</ele>
        <time>2020-06-05T06:53:43.000Z</time>
      </trkpt>
      <trkpt lat="44.07299" lon="6.85615">
        <ele>834</ele>
        <time>2020-06-05T06:53:44.000Z</time>
      </trkpt>
      <trkpt lat="44.07298" lon="6.85615">
        <ele>834</ele>
        <time>2020-06-05T06:53:45.000Z</time>
      </trkpt>
      <trkpt lat="44.07298" lon="6.85615">
        <ele>835</ele>
        <time>2020-06-05T06:53:46.000Z</time>
      </trkpt>
      <trkpt lat="44.07297" lon="6.85615">
        <ele>835</ele>
        <time>2020-06-05T06:53:47.000Z</time>
      </trkpt>
      <trkpt lat="44.07297" lon="6.85615">
        <ele>835</ele>
        <time>2020-06-05T06:53:48.000Z</time>
      </trkpt>
      <trkpt lat="44.07296" lon="6.85615">
        <ele>835</ele>
        <time>2020-06-05T06:53:49.000Z</time>
      </trkpt>
      <trkpt lat="44.07296" lon="6.85616">
        <ele>835</ele>
        <time>2020-06-05T06:53:50.000Z</time>
      </trkpt>
      <trkpt lat="44.07295" lon="6.85616">
        <ele>835</ele>
        <time>2020-06-05T06:53:51.000Z</time>
      </trkpt>
      <trkpt lat="44.07294" lon="6.85616">
        <ele>836</ele>
        <time>2020-06-05T06:53:52.000Z</time>
      </trkpt>
      <trkpt lat="44.07293" lon="6.85616">
        <ele>836</ele>
        <time>2020-06-05T06:53:53.000Z</time>
      </trkpt>
      <trkpt lat="44.07292" lon="6.85616">
        <ele>836</ele>
        <time>2020-06-05T06:53:54.000Z</time>
      </trkpt>
      <trkpt lat="44.07291" lon="6.85616">
        <ele>836</ele>
        <time>2020-06-05T06:53:55.000Z</time>
      </trkpt>
      <trkpt lat="44.07291" lon="6.85616">
        <ele>837</ele>
        <time>2020-06-05T06:53:56.000Z</time>
      </trkpt>
      <trkpt lat="44.0729" lon="6.85616">
        <ele>837</ele>
        <time>2020-06-05T06:53:57.000Z</time>
      </trkpt>
      <trkpt lat="44.07289" lon="6.85616">
        <ele>837</ele>
        <time>2020-06-05T06:53:58.000Z</time>
      </trkpt>
      <trkpt lat="44.07288" lon="6.85615">
        <ele>837</ele>
        <time>2020-06-05T06:53:59.000Z</time>
      </trkpt>
      <trkpt lat="44.07288" lon="6.85614">
        <ele>837</ele>
        <time>2020-06-05T06:54:00.000Z</time>
      </trkpt>
      <trkpt lat="44.07287" lon="6.85614">
        <ele>837</ele>
        <time>2020-06-05T06:54:01.000Z</time>
      </trkpt>
      <trkpt lat="44.07286" lon="6.85614">
        <ele>838</ele>
        <time>2020-06-05T06:54:02.000Z</time>
      </trkpt>
      <trkpt lat="44.07285" lon="6.85613">
        <ele>838</ele>
        <time>2020-06-05T06:54:03.000Z</time>
      </trkpt>
      <trkpt lat="44.07284" lon="6.85613">
        <ele>838</ele>
        <time>2020-06-05T06:54:04.000Z</time>
      </trkpt>
      <trkpt lat="44.07283" lon="6.85612">
        <ele>838</ele>
        <time>2020-06-05T06:54:05.000Z</time>
      </trkpt>
      <trkpt lat="44.07282" lon="6.85612">
        <ele>838</ele>
        <time>2020-06-05T06:54:06.000Z</time>
      </trkpt>
      <trkpt lat="44.07282" lon="6.85611">
        <ele>838</ele>
        <time>2020-06-05T06:54:07.000Z</time>
      </trkpt>
      <trkpt lat="44.07281" lon="6.85611">
        <ele>838</ele>
        <time>2020-06-05T06:54:08.000Z</time>
      </trkpt>
      <trkpt lat="44.0728" lon="6.85611">
        <ele>839</ele>
        <time>2020-06-05T06:54:09.000Z</time>
      </trkpt>
      <trkpt lat="44.07279" lon="6.8561">
        <ele>839</ele>
        <time>2020-06-05T06:54:10.000Z</time>
      </trkpt>
      <trkpt lat="44.07279" lon="6.8561">
        <ele>839</ele>
        <time>2020-06-05T06:54:11.000Z</time>
      </trkpt>
      <trkpt lat="44.07278" lon="6.8561">
        <ele>839</ele>
        <time>2020-06-05T06:54:12.000Z</time>
      </trkpt>
      <trkpt lat="44.07277" lon="6.85609">
        <ele>840</ele>
        <time>2020-06-05T06:54:13.000Z</time>
      </trkpt>
      <trkpt lat="44.07276" lon="6.85609">
        <ele>840</ele>
        <time>2020-06-05T06:54:14.000Z</time>
      </trkpt>
      <trkpt lat="44.07276" lon="6.85609">
        <ele>840</ele>
        <time>2020-06-05T06:54:15.000Z</time>
      </trkpt>
      <trkpt lat="44.07275" lon="6.85608">
        <ele>840</ele>
        <time>2020-06-05T06:54:16.000Z</time>
      </trkpt>
      <trkpt lat="44.07275" lon="6.85608">
        <ele>840</ele>
        <time>2020-06-05T06:54:17.000Z</time>
      </trkpt>
      <trkpt lat="44.07274" lon="6.85607">
        <ele>840</ele>
        <time>2020-06-05T06:54:18.000Z</time>
      </trkpt>
      <trkpt lat="44.07274" lon="6.85607">
        <ele>841</ele>
        <time>2020-06-05T06:54:19.000Z</time>
      </trkpt>
      <trkpt lat="44.07274" lon="6.85607">
        <ele>841</ele>
        <time>2020-06-05T06:54:20.000Z</time>
      </trkpt>
      <trkpt lat="44.07274" lon="6.85607">
        <ele>841</ele>
        <time>2020-06-05T06:54:21.000Z</time>
      </trkpt>
      <trkpt lat="44.07274" lon="6.85606">
        <ele>841</ele>
        <time>2020-06-05T06:54:22.000Z</time>
      </trkpt>
      <trkpt lat="44.07273" lon="6.85606">
        <ele>841</ele>
        <time>2020-06-05T06:54:23.000Z</time>
      </trkpt>
      <trkpt lat="44.07272" lon="6.85605">
        <ele>841</ele>
        <time>2020-06-05T06:54:24.000Z</time>
      </trkpt>
      <trkpt lat="44.07272" lon="6.85604">
        <ele>841</ele>
        <time>2020-06-05T06:54:25.000Z</time>
      </trkpt>
      <trkpt lat="44.07271" lon="6.85604">
        <ele>841</ele>
        <time>2020-06-05T06:54:26.000Z</time>
      </trkpt>
      <trkpt lat="44.07271" lon="6.85603">
        <ele>841</ele>
        <time>2020-06-05T06:54:27.000Z</time>
      </trkpt>
      <trkpt lat="44.0727" lon="6.85603">
        <ele>842</ele>
        <time>2020-06-05T06:54:28.000Z</time>
      </trkpt>
      <trkpt lat="44.07269" lon="6.85602">
        <ele>842</ele>
        <time>2020-06-05T06:54:29.000Z</time>
      </trkpt>
      <trkpt lat="44.07269" lon="6.85602">
        <ele>842</ele>
        <time>2020-06-05T06:54:30.000Z</time>
      </trkpt>
      <trkpt lat="44.07268" lon="6.85601">
        <ele>842</ele>
        <time>2020-06-05T06:54:31.000Z</time>
      </trkpt>
      <trkpt lat="44.07267" lon="6.85601">
        <ele>842</ele>
        <time>2020-06-05T06:54:32.000Z</time>
      </trkpt>
      <trkpt lat="44.07267" lon="6.856">
        <ele>842</ele>
        <time>2020-06-05T06:54:33.000Z</time>
      </trkpt>
      <trkpt lat="44.07266" lon="6.85599">
        <ele>842</ele>
        <time>2020-06-05T06:54:34.000Z</time>
      </trkpt>
      <trkpt lat="44.07266" lon="6.85599">
        <ele>842</ele>
        <time>2020-06-05T06:54:35.000Z</time>
      </trkpt>
      <trkpt lat="44.07265" lon="6.85598">
        <ele>843</ele>
        <time>2020-06-05T06:54:36.000Z</time>
      </trkpt>
      <trkpt lat="44.07264" lon="6.85598">
        <ele>843</ele>
        <time>2020-06-05T06:54:37.000Z</time>
      </trkpt>
      <trkpt lat="44.07264" lon="6.85597">
        <ele>843</ele>
        <time>2020-06-05T06:54:38.000Z</time>
      </trkpt>
      <trkpt lat="44.07263" lon="6.85597">
        <ele>843</ele>
        <time>2020-06-05T06:54:39.000Z</time>
      </trkpt>
      <trkpt lat="44.07262" lon="6.85597">
        <ele>843</ele>
        <time>2020-06-05T06:54:40.000Z</time>
      </trkpt>
      <trkpt lat="44.07261" lon="6.85597">
        <ele>843</ele>
        <time>2020-06-05T06:54:41.000Z</time>
      </trkpt>
      <trkpt lat="44.07261" lon="6.85596">
        <ele>843</ele>
        <time>2020-06-05T06:54:42.000Z</time>
      </trkpt>
      <trkpt lat="44.0726" lon="6.85596">
        <ele>843</ele>
        <time>2020-06-05T06:54:43.000Z</time>
      </trkpt>
      <trkpt lat="44.0726" lon="6.85595">
        <ele>844</ele>
        <time>2020-06-05T06:54:44.000Z</time>
      </trkpt>
      <trkpt lat="44.07259" lon="6.85595">
        <ele>844</ele>
        <time>2020-06-05T06:54:45.000Z</time>
      </trkpt>
      <trkpt lat="44.07259" lon="6.85595">
        <ele>844</ele>
        <time>2020-06-05T06:54:46.000Z</time>
      </trkpt>
      <trkpt lat="44.07258" lon="6.85595">
        <ele>844</ele>
        <time>2020-06-05T06:54:47.000Z</time>
      </trkpt>
      <trkpt lat="44.07258" lon="6.85595">
        <ele>844</ele>
        <time>2020-06-05T06:54:48.000Z</time>
      </trkpt>
      <trkpt lat="44.07257" lon="6.85594">
        <ele>845</ele>
        <time>2020-06-05T06:54:49.000Z</time>
      </trkpt>
      <trkpt lat="44.07257" lon="6.85593">
        <ele>845</ele>
        <time>2020-06-05T06:54:50.000Z</time>
      </trkpt>
      <trkpt lat="44.07256" lon="6.85593">
        <ele>845</ele>
        <time>2020-06-05T06:54:51.000Z</time>
      </trkpt>
      <trkpt lat="44.07256" lon="6.85593">
        <ele>845</ele>
        <time>2020-06-05T06:54:52.000Z</time>
      </trkpt>
      <trkpt lat="44.07256" lon="6.85592">
        <ele>845</ele>
        <time>2020-06-05T06:54:53.000Z</time>
      </trkpt>
      <trkpt lat="44.07255" lon="6.85592">
        <ele>846</ele>
        <time>2020-06-05T06:54:54.000Z</time>
      </trkpt>
      <trkpt lat="44.07254" lon="6.85591">
        <ele>846</ele>
        <time>2020-06-05T06:54:55.000Z</time>
      </trkpt>
      <trkpt lat="44.07254" lon="6.8559">
        <ele>846</ele>
        <time>2020-06-05T06:54:56.000Z</time>
      </trkpt>
      <trkpt lat="44.07254" lon="6.8559">
        <ele>846</ele>
        <time>2020-06-05T06:54:57.000Z</time>
      </trkpt>
      <trkpt lat="44.07253" lon="6.85589">
        <ele>846</ele>
        <time>2020-06-05T06:54:58.000Z</time>
      </trkpt>
      <trkpt lat="44.07252" lon="6.85588">
        <ele>847</ele>
        <time>2020-06-05T06:54:59.000Z</time>
      </trkpt>
      <trkpt lat="44.07252" lon="6.85588">
        <ele>847</ele>
        <time>2020-06-05T06:55:00.000Z</time>
      </trkpt>
      <trkpt lat="44.07251" lon="6.85588">
        <ele>847</ele>
        <time>2020-06-05T06:55:01.000Z</time>
      </trkpt>
      <trkpt lat="44.07251" lon="6.85587">
        <ele>847</ele>
        <time>2020-06-05T06:55:02.000Z</time>
      </trkpt>
      <trkpt lat="44.0725" lon="6.85587">
        <ele>847</ele>
        <time>2020-06-05T06:55:03.000Z</time>
      </trkpt>
      <trkpt lat="44.0725" lon="6.85586">
        <ele>847</ele>
        <time>2020-06-05T06:55:04.000Z</time>
      </trkpt>
      <trkpt lat="44.07249" lon="6.85586">
        <ele>847</ele>
        <time>2020-06-05T06:55:05.000Z</time>
      </trkpt>
      <trkpt lat="44.07248" lon="6.85586">
        <ele>848</ele>
        <time>2020-06-05T06:55:06.000Z</time>
      </trkpt>
      <trkpt lat="44.07247" lon="6.85585">
        <ele>848</ele>
        <time>2020-06-05T06:55:07.000Z</time>
      </trkpt>
      <trkpt lat="44.07247" lon="6.85584">
        <ele>848</ele>
        <time>2020-06-05T06:55:08.000Z</time>
      </trkpt>
      <trkpt lat="44.07246" lon="6.85584">
        <ele>848</ele>
        <time>2020-06-05T06:55:09.000Z</time>
      </trkpt>
      <trkpt lat="44.07245" lon="6.85583">
        <ele>848</ele>
        <time>2020-06-05T06:55:10.000Z</time>
      </trkpt>
      <trkpt lat="44.07245" lon="6.85583">
        <ele>848</ele>
        <time>2020-06-05T06:55:11.000Z</time>
      </trkpt>
      <trkpt lat="44.07244" lon="6.85582">
        <ele>848</ele>
        <time>2020-06-05T06:55:12.000Z</time>
      </trkpt>
      <trkpt lat="44.07244" lon="6.85582">
        <ele>848</ele>
        <time>2020-06-05T06:55:13.000Z</time>
      </trkpt>
      <trkpt lat="44.07243" lon="6.85582">
        <ele>848</ele>
        <time>2020-06-05T06:55:14.000Z</time>
      </trkpt>
      <trkpt lat="44.07243" lon="6.85581">
        <ele>848</ele>
        <time>2020-06-05T06:55:15.000Z</time>
      </trkpt>
      <trkpt lat="44.07243" lon="6.85581">
        <ele>848</ele>
        <time>2020-06-05T06:55:16.000Z</time>
      </trkpt>
      <trkpt lat="44.07243" lon="6.85581">
        <ele>849</ele>
        <time>2020-06-05T06:55:17.000Z</time>
      </trkpt>
      <trkpt lat="44.07243" lon="6.8558">
        <ele>849</ele>
        <time>2020-06-05T06:55:18.000Z</time>
      </trkpt>
      <trkpt lat="44.07243" lon="6.8558">
        <ele>849</ele>
        <time>2020-06-05T06:55:19.000Z</time>
      </trkpt>
      <trkpt lat="44.07243" lon="6.8558">
        <ele>849</ele>
        <time>2020-06-05T06:55:20.000Z</time>
      </trkpt>
      <trkpt lat="44.07243" lon="6.8558">
        <ele>849</ele>
        <time>2020-06-05T06:55:21.000Z</time>
      </trkpt>
      <trkpt lat="44.07243" lon="6.8558">
        <ele>849</ele>
        <time>2020-06-05T06:55:22.000Z</time>
      </trkpt>
      <trkpt lat="44.07243" lon="6.8558">
        <ele>849</ele>
        <time>2020-06-05T06:55:23.000Z</time>
      </trkpt>
      <trkpt lat="44.07243" lon="6.8558">
        <ele>849</ele>
        <time>2020-06-05T06:55:24.000Z</time>
      </trkpt>
      <trkpt lat="44.07243" lon="6.8558">
        <ele>849</ele>
        <time>2020-06-05T06:55:25.000Z</time>
      </trkpt>
      <trkpt lat="44.07243" lon="6.85579">
        <ele>849</ele>
        <time>2020-06-05T06:55:26.000Z</time>
      </trkpt>
      <trkpt lat="44.07243" lon="6.85579">
        <ele>849</ele>
        <time>2020-06-05T06:55:27.000Z</time>
      </trkpt>
      <trkpt lat="44.07243" lon="6.85579">
        <ele>849</ele>
        <time>2020-06-05T06:55:28.000Z</time>
      </trkpt>
      <trkpt lat="44.07243" lon="6.85579">
        <ele>850</ele>
        <time>2020-06-05T06:55:29.000Z</time>
      </trkpt>
      <trkpt lat="44.07243" lon="6.85579">
        <ele>850</ele>
        <time>2020-06-05T06:55:30.000Z</time>
      </trkpt>
      <trkpt lat="44.07243" lon="6.85579">
        <ele>850</ele>
        <time>2020-06-05T06:55:31.000Z</time>
      </trkpt>
      <trkpt lat="44.07243" lon="6.85579">
        <ele>850</ele>
        <time>2020-06-05T06:55:32.000Z</time>
      </trkpt>
      <trkpt lat="44.07243" lon="6.85579">
        <ele>850</ele>
        <time>2020-06-05T06:55:33.000Z</time>
      </trkpt>
      <trkpt lat="44.07243" lon="6.85579">
        <ele>850</ele>
        <time>2020-06-05T06:55:34.000Z</time>
      </trkpt>
      <trkpt lat="44.07243" lon="6.85578">
        <ele>850</ele>
        <time>2020-06-05T06:55:35.000Z</time>
      </trkpt>
      <trkpt lat="44.07243" lon="6.85578">
        <ele>850</ele>
        <time>2020-06-05T06:55:36.000Z</time>
      </trkpt>
      <trkpt lat="44.07243" lon="6.85578">
        <ele>850</ele>
        <time>2020-06-05T06:55:37.000Z</time>
      </trkpt>
      <trkpt lat="44.07243" lon="6.85578">
        <ele>850</ele>
        <time>2020-06-05T06:55:38.000Z</time>
      </trkpt>
      <trkpt lat="44.07243" lon="6.85578">
        <ele>850</ele>
        <time>2020-06-05T06:55:39.000Z</time>
      </trkpt>
      <trkpt lat="44.07243" lon="6.85578">
        <ele>850</ele>
        <time>2020-06-05T06:55:40.000Z</time>
      </trkpt>
      <trkpt lat="44.07244" lon="6.85578">
        <ele>850</ele>
        <time>2020-06-05T06:55:41.000Z</time>
      </trkpt>
      <trkpt lat="44.07243" lon="6.85577">
        <ele>850</ele>
        <time>2020-06-05T06:55:42.000Z</time>
      </trkpt>
      <trkpt lat="44.07243" lon="6.85577">
        <ele>850</ele>
        <time>2020-06-05T06:55:43.000Z</time>
      </trkpt>
      <trkpt lat="44.07243" lon="6.85577">
        <ele>850</ele>
        <time>2020-06-05T06:55:44.000Z</time>
      </trkpt>
      <trkpt lat="44.07243" lon="6.85577">
        <ele>850</ele>
        <time>2020-06-05T06:55:45.000Z</time>
      </trkpt>
      <trkpt lat="44.07243" lon="6.85577">
        <ele>850</ele>
        <time>2020-06-05T06:55:46.000Z</time>
      </trkpt>
      <trkpt lat="44.07243" lon="6.85577">
        <ele>850</ele>
        <time>2020-06-05T06:55:47.000Z</time>
      </trkpt>
      <trkpt lat="44.07243" lon="6.85576">
        <ele>850</ele>
        <time>2020-06-05T06:55:48.000Z</time>
      </trkpt>
      <trkpt lat="44.07243" lon="6.85576">
        <ele>850</ele>
        <time>2020-06-05T06:55:49.000Z</time>
      </trkpt>
      <trkpt lat="44.07243" lon="6.85576">
        <ele>850</ele>
        <time>2020-06-05T06:55:50.000Z</time>
      </trkpt>
      <trkpt lat="44.07243" lon="6.85576">
        <ele>850</ele>
        <time>2020-06-05T06:55:51.000Z</time>
      </trkpt>
      <trkpt lat="44.07243" lon="6.85576">
        <ele>850</ele>
        <time>2020-06-05T06:55:52.000Z</time>
      </trkpt>
      <trkpt lat="44.07243" lon="6.85576">
        <ele>850</ele>
        <time>2020-06-05T06:55:53.000Z</time>
      </trkpt>
      <trkpt lat="44.07243" lon="6.85576">
        <ele>850</ele>
        <time>2020-06-05T06:55:54.000Z</time>
      </trkpt>
      <trkpt lat="44.07243" lon="6.85575">
        <ele>850</ele>
        <time>2020-06-05T06:55:55.000Z</time>
      </trkpt>
      <trkpt lat="44.07243" lon="6.85575">
        <ele>850</ele>
        <time>2020-06-05T06:55:56.000Z</time>
      </trkpt>
      <trkpt lat="44.07243" lon="6.85574">
        <ele>851</ele>
        <time>2020-06-05T06:55:57.000Z</time>
      </trkpt>
      <trkpt lat="44.07243" lon="6.85573">
        <ele>851</ele>
        <time>2020-06-05T06:55:58.000Z</time>
      </trkpt>
      <trkpt lat="44.07243" lon="6.85573">
        <ele>851</ele>
        <time>2020-06-05T06:55:59.000Z</time>
      </trkpt>
      <trkpt lat="44.07244" lon="6.85572">
        <ele>851</ele>
        <time>2020-06-05T06:56:00.000Z</time>
      </trkpt>
      <trkpt lat="44.07244" lon="6.85572">
        <ele>851</ele>
        <time>2020-06-05T06:56:01.000Z</time>
      </trkpt>
      <trkpt lat="44.07245" lon="6.85571">
        <ele>851</ele>
        <time>2020-06-05T06:56:02.000Z</time>
      </trkpt>
      <trkpt lat="44.07245" lon="6.85571">
        <ele>851</ele>
        <time>2020-06-05T06:56:03.000Z</time>
      </trkpt>
      <trkpt lat="44.07246" lon="6.8557">
        <ele>851</ele>
        <time>2020-06-05T06:56:04.000Z</time>
      </trkpt>
      <trkpt lat="44.07246" lon="6.8557">
        <ele>851</ele>
        <time>2020-06-05T06:56:05.000Z</time>
      </trkpt>
      <trkpt lat="44.07246" lon="6.85569">
        <ele>851</ele>
        <time>2020-06-05T06:56:06.000Z</time>
      </trkpt>
      <trkpt lat="44.07246" lon="6.85569">
        <ele>852</ele>
        <time>2020-06-05T06:56:07.000Z</time>
      </trkpt>
      <trkpt lat="44.07246" lon="6.85569">
        <ele>852</ele>
        <time>2020-06-05T06:56:08.000Z</time>
      </trkpt>
      <trkpt lat="44.07247" lon="6.85568">
        <ele>852</ele>
        <time>2020-06-05T06:56:09.000Z</time>
      </trkpt>
      <trkpt lat="44.07247" lon="6.85568">
        <ele>852</ele>
        <time>2020-06-05T06:56:10.000Z</time>
      </trkpt>
      <trkpt lat="44.07247" lon="6.85568">
        <ele>852</ele>
        <time>2020-06-05T06:56:11.000Z</time>
      </trkpt>
      <trkpt lat="44.07248" lon="6.85567">
        <ele>852</ele>
        <time>2020-06-05T06:56:12.000Z</time>
      </trkpt>
      <trkpt lat="44.07248" lon="6.85567">
        <ele>852</ele>
        <time>2020-06-05T06:56:13.000Z</time>
      </trkpt>
      <trkpt lat="44.07248" lon="6.85566">
        <ele>852</ele>
        <time>2020-06-05T06:56:14.000Z</time>
      </trkpt>
      <trkpt lat="44.07248" lon="6.85566">
        <ele>852</ele>
        <time>2020-06-05T06:56:15.000Z</time>
      </trkpt>
      <trkpt lat="44.07248" lon="6.85566">
        <ele>852</ele>
        <time>2020-06-05T06:56:16.000Z</time>
      </trkpt>
      <trkpt lat="44.07248" lon="6.85566">
        <ele>853</ele>
        <time>2020-06-05T06:56:17.000Z</time>
      </trkpt>
      <trkpt lat="44.07248" lon="6.85566">
        <ele>853</ele>
        <time>2020-06-05T06:56:18.000Z</time>
      </trkpt>
      <trkpt lat="44.07249" lon="6.85565">
        <ele>853</ele>
        <time>2020-06-05T06:56:19.000Z</time>
      </trkpt>
      <trkpt lat="44.07249" lon="6.85565">
        <ele>853</ele>
        <time>2020-06-05T06:56:20.000Z</time>
      </trkpt>
      <trkpt lat="44.07249" lon="6.85565">
        <ele>853</ele>
        <time>2020-06-05T06:56:21.000Z</time>
      </trkpt>
      <trkpt lat="44.0725" lon="6.85565">
        <ele>853</ele>
        <time>2020-06-05T06:56:22.000Z</time>
      </trkpt>
      <trkpt lat="44.0725" lon="6.85565">
        <ele>853</ele>
        <time>2020-06-05T06:56:23.000Z</time>
      </trkpt>
      <trkpt lat="44.07251" lon="6.85564">
        <ele>853</ele>
        <time>2020-06-05T06:56:24.000Z</time>
      </trkpt>
      <trkpt lat="44.07251" lon="6.85564">
        <ele>853</ele>
        <time>2020-06-05T06:56:25.000Z</time>
      </trkpt>
      <trkpt lat="44.07252" lon="6.85563">
        <ele>853</ele>
        <time>2020-06-05T06:56:26.000Z</time>
      </trkpt>
      <trkpt lat="44.07252" lon="6.85563">
        <ele>853</ele>
        <time>2020-06-05T06:56:27.000Z</time>
      </trkpt>
      <trkpt lat="44.07253" lon="6.85563">
        <ele>853</ele>
        <time>2020-06-05T06:56:28.000Z</time>
      </trkpt>
      <trkpt lat="44.07254" lon="6.85562">
        <ele>854</ele>
        <time>2020-06-05T06:56:29.000Z</time>
      </trkpt>
      <trkpt lat="44.07255" lon="6.85562">
        <ele>854</ele>
        <time>2020-06-05T06:56:30.000Z</time>
      </trkpt>
      <trkpt lat="44.07256" lon="6.85561">
        <ele>854</ele>
        <time>2020-06-05T06:56:31.000Z</time>
      </trkpt>
      <trkpt lat="44.07256" lon="6.8556">
        <ele>854</ele>
        <time>2020-06-05T06:56:32.000Z</time>
      </trkpt>
      <trkpt lat="44.07257" lon="6.85559">
        <ele>854</ele>
        <time>2020-06-05T06:56:33.000Z</time>
      </trkpt>
      <trkpt lat="44.07258" lon="6.85558">
        <ele>855</ele>
        <time>2020-06-05T06:56:34.000Z</time>
      </trkpt>
      <trkpt lat="44.07258" lon="6.85558">
        <ele>855</ele>
        <time>2020-06-05T06:56:35.000Z</time>
      </trkpt>
      <trkpt lat="44.07259" lon="6.85557">
        <ele>855</ele>
        <time>2020-06-05T06:56:36.000Z</time>
      </trkpt>
      <trkpt lat="44.07259" lon="6.85556">
        <ele>855</ele>
        <time>2020-06-05T06:56:37.000Z</time>
      </trkpt>
      <trkpt lat="44.07259" lon="6.85556">
        <ele>856</ele>
        <time>2020-06-05T06:56:38.000Z</time>
      </trkpt>
      <trkpt lat="44.07259" lon="6.85555">
        <ele>856</ele>
        <time>2020-06-05T06:56:39.000Z</time>
      </trkpt>
      <trkpt lat="44.07259" lon="6.85554">
        <ele>856</ele>
        <time>2020-06-05T06:56:40.000Z</time>
      </trkpt>
      <trkpt lat="44.07259" lon="6.85554">
        <ele>856</ele>
        <time>2020-06-05T06:56:41.000Z</time>
      </trkpt>
      <trkpt lat="44.07258" lon="6.85554">
        <ele>856</ele>
        <time>2020-06-05T06:56:42.000Z</time>
      </trkpt>
      <trkpt lat="44.07258" lon="6.85553">
        <ele>856</ele>
        <time>2020-06-05T06:56:43.000Z</time>
      </trkpt>
      <trkpt lat="44.07257" lon="6.85553">
        <ele>856</ele>
        <time>2020-06-05T06:56:44.000Z</time>
      </trkpt>
      <trkpt lat="44.07257" lon="6.85553">
        <ele>857</ele>
        <time>2020-06-05T06:56:45.000Z</time>
      </trkpt>
      <trkpt lat="44.07256" lon="6.85553">
        <ele>857</ele>
        <time>2020-06-05T06:56:46.000Z</time>
      </trkpt>
      <trkpt lat="44.07256" lon="6.85552">
        <ele>857</ele>
        <time>2020-06-05T06:56:47.000Z</time>
      </trkpt>
      <trkpt lat="44.07255" lon="6.85552">
        <ele>857</ele>
        <time>2020-06-05T06:56:48.000Z</time>
      </trkpt>
      <trkpt lat="44.07254" lon="6.85552">
        <ele>857</ele>
        <time>2020-06-05T06:56:49.000Z</time>
      </trkpt>
      <trkpt lat="44.07254" lon="6.85552">
        <ele>857</ele>
        <time>2020-06-05T06:56:50.000Z</time>
      </trkpt>
      <trkpt lat="44.07253" lon="6.85552">
        <ele>858</ele>
        <time>2020-06-05T06:56:51.000Z</time>
      </trkpt>
      <trkpt lat="44.07252" lon="6.85553">
        <ele>858</ele>
        <time>2020-06-05T06:56:52.000Z</time>
      </trkpt>
      <trkpt lat="44.07252" lon="6.85553">
        <ele>858</ele>
        <time>2020-06-05T06:56:53.000Z</time>
      </trkpt>
      <trkpt lat="44.07251" lon="6.85553">
        <ele>858</ele>
        <time>2020-06-05T06:56:54.000Z</time>
      </trkpt>
      <trkpt lat="44.07251" lon="6.85553">
        <ele>858</ele>
        <time>2020-06-05T06:56:55.000Z</time>
      </trkpt>
      <trkpt lat="44.0725" lon="6.85553">
        <ele>858</ele>
        <time>2020-06-05T06:56:56.000Z</time>
      </trkpt>
      <trkpt lat="44.07249" lon="6.85554">
        <ele>858</ele>
        <time>2020-06-05T06:56:57.000Z</time>
      </trkpt>
      <trkpt lat="44.07249" lon="6.85554">
        <ele>859</ele>
        <time>2020-06-05T06:56:58.000Z</time>
      </trkpt>
      <trkpt lat="44.07248" lon="6.85554">
        <ele>859</ele>
        <time>2020-06-05T06:56:59.000Z</time>
      </trkpt>
      <trkpt lat="44.07247" lon="6.85554">
        <ele>859</ele>
        <time>2020-06-05T06:57:00.000Z</time>
      </trkpt>
      <trkpt lat="44.07246" lon="6.85554">
        <ele>859</ele>
        <time>2020-06-05T06:57:01.000Z</time>
      </trkpt>
      <trkpt lat="44.07245" lon="6.85554">
        <ele>859</ele>
        <time>2020-06-05T06:57:02.000Z</time>
      </trkpt>
      <trkpt lat="44.07245" lon="6.85554">
        <ele>859</ele>
        <time>2020-06-05T06:57:03.000Z</time>
      </trkpt>
      <trkpt lat="44.07244" lon="6.85554">
        <ele>860</ele>
        <time>2020-06-05T06:57:04.000Z</time>
      </trkpt>
      <trkpt lat="44.07243" lon="6.85554">
        <ele>860</ele>
        <time>2020-06-05T06:57:05.000Z</time>
      </trkpt>
      <trkpt lat="44.07242" lon="6.85554">
        <ele>860</ele>
        <time>2020-06-05T06:57:06.000Z</time>
      </trkpt>
      <trkpt lat="44.07242" lon="6.85554">
        <ele>860</ele>
        <time>2020-06-05T06:57:07.000Z</time>
      </trkpt>
      <trkpt lat="44.07241" lon="6.85554">
        <ele>861</ele>
        <time>2020-06-05T06:57:08.000Z</time>
      </trkpt>
      <trkpt lat="44.0724" lon="6.85554">
        <ele>861</ele>
        <time>2020-06-05T06:57:09.000Z</time>
      </trkpt>
      <trkpt lat="44.07239" lon="6.85554">
        <ele>861</ele>
        <time>2020-06-05T06:57:10.000Z</time>
      </trkpt>
      <trkpt lat="44.07239" lon="6.85555">
        <ele>861</ele>
        <time>2020-06-05T06:57:11.000Z</time>
      </trkpt>
      <trkpt lat="44.07238" lon="6.85555">
        <ele>861</ele>
        <time>2020-06-05T06:57:12.000Z</time>
      </trkpt>
      <trkpt lat="44.07237" lon="6.85555">
        <ele>861</ele>
        <time>2020-06-05T06:57:13.000Z</time>
      </trkpt>
      <trkpt lat="44.07236" lon="6.85556">
        <ele>861</ele>
        <time>2020-06-05T06:57:14.000Z</time>
      </trkpt>
      <trkpt lat="44.07235" lon="6.85556">
        <ele>862</ele>
        <time>2020-06-05T06:57:15.000Z</time>
      </trkpt>
      <trkpt lat="44.07235" lon="6.85556">
        <ele>862</ele>
        <time>2020-06-05T06:57:16.000Z</time>
      </trkpt>
      <trkpt lat="44.07234" lon="6.85556">
        <ele>862</ele>
        <time>2020-06-05T06:57:17.000Z</time>
      </trkpt>
      <trkpt lat="44.07233" lon="6.85556">
        <ele>862</ele>
        <time>2020-06-05T06:57:18.000Z</time>
      </trkpt>
      <trkpt lat="44.07232" lon="6.85556">
        <ele>862</ele>
        <time>2020-06-05T06:57:19.000Z</time>
      </trkpt>
      <trkpt lat="44.07232" lon="6.85556">
        <ele>862</ele>
        <time>2020-06-05T06:57:20.000Z</time>
      </trkpt>
      <trkpt lat="44.07231" lon="6.85557">
        <ele>863</ele>
        <time>2020-06-05T06:57:21.000Z</time>
      </trkpt>
      <trkpt lat="44.0723" lon="6.85557">
        <ele>863</ele>
        <time>2020-06-05T06:57:22.000Z</time>
      </trkpt>
      <trkpt lat="44.0723" lon="6.85557">
        <ele>863</ele>
        <time>2020-06-05T06:57:23.000Z</time>
      </trkpt>
      <trkpt lat="44.07229" lon="6.85557">
        <ele>863</ele>
        <time>2020-06-05T06:57:24.000Z</time>
      </trkpt>
      <trkpt lat="44.07228" lon="6.85557">
        <ele>863</ele>
        <time>2020-06-05T06:57:25.000Z</time>
      </trkpt>
      <trkpt lat="44.07227" lon="6.85557">
        <ele>864</ele>
        <time>2020-06-05T06:57:26.000Z</time>
      </trkpt>
      <trkpt lat="44.07226" lon="6.85557">
        <ele>864</ele>
        <time>2020-06-05T06:57:27.000Z</time>
      </trkpt>
      <trkpt lat="44.07226" lon="6.85557">
        <ele>864</ele>
        <time>2020-06-05T06:57:28.000Z</time>
      </trkpt>
      <trkpt lat="44.07225" lon="6.85557">
        <ele>864</ele>
        <time>2020-06-05T06:57:29.000Z</time>
      </trkpt>
      <trkpt lat="44.07224" lon="6.85557">
        <ele>864</ele>
        <time>2020-06-05T06:57:30.000Z</time>
      </trkpt>
      <trkpt lat="44.07224" lon="6.85557">
        <ele>864</ele>
        <time>2020-06-05T06:57:31.000Z</time>
      </trkpt>
      <trkpt lat="44.07223" lon="6.85558">
        <ele>865</ele>
        <time>2020-06-05T06:57:32.000Z</time>
      </trkpt>
      <trkpt lat="44.07223" lon="6.85559">
        <ele>865</ele>
        <time>2020-06-05T06:57:33.000Z</time>
      </trkpt>
      <trkpt lat="44.07223" lon="6.85559">
        <ele>865</ele>
        <time>2020-06-05T06:57:34.000Z</time>
      </trkpt>
      <trkpt lat="44.07222" lon="6.8556">
        <ele>865</ele>
        <time>2020-06-05T06:57:35.000Z</time>
      </trkpt>
      <trkpt lat="44.07221" lon="6.8556">
        <ele>865</ele>
        <time>2020-06-05T06:57:36.000Z</time>
      </trkpt>
      <trkpt lat="44.0722" lon="6.85561">
        <ele>865</ele>
        <time>2020-06-05T06:57:37.000Z</time>
      </trkpt>
      <trkpt lat="44.0722" lon="6.85561">
        <ele>865</ele>
        <time>2020-06-05T06:57:38.000Z</time>
      </trkpt>
      <trkpt lat="44.07219" lon="6.85561">
        <ele>865</ele>
        <time>2020-06-05T06:57:39.000Z</time>
      </trkpt>
      <trkpt lat="44.07218" lon="6.85561">
        <ele>866</ele>
        <time>2020-06-05T06:57:40.000Z</time>
      </trkpt>
      <trkpt lat="44.07218" lon="6.85561">
        <ele>866</ele>
        <time>2020-06-05T06:57:41.000Z</time>
      </trkpt>
      <trkpt lat="44.07217" lon="6.85561">
        <ele>866</ele>
        <time>2020-06-05T06:57:42.000Z</time>
      </trkpt>
      <trkpt lat="44.07217" lon="6.85561">
        <ele>866</ele>
        <time>2020-06-05T06:57:43.000Z</time>
      </trkpt>
      <trkpt lat="44.07216" lon="6.85561">
        <ele>866</ele>
        <time>2020-06-05T06:57:44.000Z</time>
      </trkpt>
      <trkpt lat="44.07216" lon="6.8556">
        <ele>866</ele>
        <time>2020-06-05T06:57:45.000Z</time>
      </trkpt>
      <trkpt lat="44.07215" lon="6.8556">
        <ele>866</ele>
        <time>2020-06-05T06:57:46.000Z</time>
      </trkpt>
      <trkpt lat="44.07215" lon="6.8556">
        <ele>867</ele>
        <time>2020-06-05T06:57:47.000Z</time>
      </trkpt>
      <trkpt lat="44.07215" lon="6.8556">
        <ele>867</ele>
        <time>2020-06-05T06:57:48.000Z</time>
      </trkpt>
      <trkpt lat="44.07215" lon="6.8556">
        <ele>867</ele>
        <time>2020-06-05T06:57:49.000Z</time>
      </trkpt>
      <trkpt lat="44.07214" lon="6.8556">
        <ele>867</ele>
        <time>2020-06-05T06:57:50.000Z</time>
      </trkpt>
      <trkpt lat="44.07213" lon="6.8556">
        <ele>867</ele>
        <time>2020-06-05T06:57:51.000Z</time>
      </trkpt>
      <trkpt lat="44.07213" lon="6.8556">
        <ele>867</ele>
        <time>2020-06-05T06:57:52.000Z</time>
      </trkpt>
      <trkpt lat="44.07212" lon="6.8556">
        <ele>867</ele>
        <time>2020-06-05T06:57:53.000Z</time>
      </trkpt>
      <trkpt lat="44.07212" lon="6.85561">
        <ele>867</ele>
        <time>2020-06-05T06:57:54.000Z</time>
      </trkpt>
      <trkpt lat="44.07211" lon="6.85561">
        <ele>867</ele>
        <time>2020-06-05T06:57:55.000Z</time>
      </trkpt>
      <trkpt lat="44.07211" lon="6.85561">
        <ele>868</ele>
        <time>2020-06-05T06:57:56.000Z</time>
      </trkpt>
      <trkpt lat="44.0721" lon="6.85562">
        <ele>868</ele>
        <time>2020-06-05T06:57:57.000Z</time>
      </trkpt>
      <trkpt lat="44.0721" lon="6.85562">
        <ele>868</ele>
        <time>2020-06-05T06:57:58.000Z</time>
      </trkpt>
      <trkpt lat="44.07209" lon="6.85562">
        <ele>868</ele>
        <time>2020-06-05T06:57:59.000Z</time>
      </trkpt>
      <trkpt lat="44.07208" lon="6.85562">
        <ele>868</ele>
        <time>2020-06-05T06:58:00.000Z</time>
      </trkpt>
      <trkpt lat="44.07207" lon="6.85562">
        <ele>868</ele>
        <time>2020-06-05T06:58:01.000Z</time>
      </trkpt>
      <trkpt lat="44.07207" lon="6.85562">
        <ele>868</ele>
        <time>2020-06-05T06:58:02.000Z</time>
      </trkpt>
      <trkpt lat="44.07206" lon="6.85562">
        <ele>868</ele>
        <time>2020-06-05T06:58:03.000Z</time>
      </trkpt>
      <trkpt lat="44.07205" lon="6.85562">
        <ele>868</ele>
        <time>2020-06-05T06:58:04.000Z</time>
      </trkpt>
      <trkpt lat="44.07204" lon="6.85563">
        <ele>869</ele>
        <time>2020-06-05T06:58:05.000Z</time>
      </trkpt>
      <trkpt lat="44.07204" lon="6.85563">
        <ele>869</ele>
        <time>2020-06-05T06:58:06.000Z</time>
      </trkpt>
      <trkpt lat="44.07203" lon="6.85563">
        <ele>869</ele>
        <time>2020-06-05T06:58:07.000Z</time>
      </trkpt>
      <trkpt lat="44.07202" lon="6.85563">
        <ele>869</ele>
        <time>2020-06-05T06:58:08.000Z</time>
      </trkpt>
      <trkpt lat="44.07202" lon="6.85564">
        <ele>869</ele>
        <time>2020-06-05T06:58:09.000Z</time>
      </trkpt>
      <trkpt lat="44.07201" lon="6.85564">
        <ele>869</ele>
        <time>2020-06-05T06:58:10.000Z</time>
      </trkpt>
      <trkpt lat="44.072" lon="6.85565">
        <ele>869</ele>
        <time>2020-06-05T06:58:11.000Z</time>
      </trkpt>
      <trkpt lat="44.072" lon="6.85566">
        <ele>870</ele>
        <time>2020-06-05T06:58:12.000Z</time>
      </trkpt>
      <trkpt lat="44.07199" lon="6.85566">
        <ele>870</ele>
        <time>2020-06-05T06:58:13.000Z</time>
      </trkpt>
      <trkpt lat="44.07198" lon="6.85566">
        <ele>870</ele>
        <time>2020-06-05T06:58:14.000Z</time>
      </trkpt>
      <trkpt lat="44.07197" lon="6.85567">
        <ele>870</ele>
        <time>2020-06-05T06:58:15.000Z</time>
      </trkpt>
      <trkpt lat="44.07197" lon="6.85567">
        <ele>870</ele>
        <time>2020-06-05T06:58:16.000Z</time>
      </trkpt>
      <trkpt lat="44.07196" lon="6.85567">
        <ele>870</ele>
        <time>2020-06-05T06:58:17.000Z</time>
      </trkpt>
      <trkpt lat="44.07196" lon="6.85567">
        <ele>870</ele>
        <time>2020-06-05T06:58:18.000Z</time>
      </trkpt>
      <trkpt lat="44.07195" lon="6.85567">
        <ele>870</ele>
        <time>2020-06-05T06:58:19.000Z</time>
      </trkpt>
      <trkpt lat="44.07195" lon="6.85568">
        <ele>870</ele>
        <time>2020-06-05T06:58:20.000Z</time>
      </trkpt>
      <trkpt lat="44.07194" lon="6.85568">
        <ele>870</ele>
        <time>2020-06-05T06:58:21.000Z</time>
      </trkpt>
      <trkpt lat="44.07194" lon="6.85568">
        <ele>871</ele>
        <time>2020-06-05T06:58:22.000Z</time>
      </trkpt>
      <trkpt lat="44.07193" lon="6.85568">
        <ele>871</ele>
        <time>2020-06-05T06:58:23.000Z</time>
      </trkpt>
      <trkpt lat="44.07192" lon="6.85568">
        <ele>871</ele>
        <time>2020-06-05T06:58:24.000Z</time>
      </trkpt>
      <trkpt lat="44.07191" lon="6.85568">
        <ele>871</ele>
        <time>2020-06-05T06:58:25.000Z</time>
      </trkpt>
      <trkpt lat="44.07191" lon="6.85569">
        <ele>871</ele>
        <time>2020-06-05T06:58:26.000Z</time>
      </trkpt>
      <trkpt lat="44.0719" lon="6.85569">
        <ele>871</ele>
        <time>2020-06-05T06:58:27.000Z</time>
      </trkpt>
      <trkpt lat="44.07189" lon="6.85569">
        <ele>871</ele>
        <time>2020-06-05T06:58:28.000Z</time>
      </trkpt>
      <trkpt lat="44.07188" lon="6.8557">
        <ele>871</ele>
        <time>2020-06-05T06:58:29.000Z</time>
      </trkpt>
      <trkpt lat="44.07187" lon="6.8557">
        <ele>871</ele>
        <time>2020-06-05T06:58:30.000Z</time>
      </trkpt>
      <trkpt lat="44.07186" lon="6.8557">
        <ele>872</ele>
        <time>2020-06-05T06:58:31.000Z</time>
      </trkpt>
      <trkpt lat="44.07185" lon="6.8557">
        <ele>872</ele>
        <time>2020-06-05T06:58:32.000Z</time>
      </trkpt>
      <trkpt lat="44.07184" lon="6.8557">
        <ele>872</ele>
        <time>2020-06-05T06:58:33.000Z</time>
      </trkpt>
      <trkpt lat="44.07184" lon="6.8557">
        <ele>872</ele>
        <time>2020-06-05T06:58:34.000Z</time>
      </trkpt>
      <trkpt lat="44.07183" lon="6.8557">
        <ele>872</ele>
        <time>2020-06-05T06:58:35.000Z</time>
      </trkpt>
      <trkpt lat="44.07183" lon="6.85571">
        <ele>872</ele>
        <time>2020-06-05T06:58:36.000Z</time>
      </trkpt>
      <trkpt lat="44.07182" lon="6.85571">
        <ele>872</ele>
        <time>2020-06-05T06:58:37.000Z</time>
      </trkpt>
      <trkpt lat="44.07181" lon="6.85571">
        <ele>872</ele>
        <time>2020-06-05T06:58:38.000Z</time>
      </trkpt>
      <trkpt lat="44.07181" lon="6.85571">
        <ele>872</ele>
        <time>2020-06-05T06:58:39.000Z</time>
      </trkpt>
      <trkpt lat="44.0718" lon="6.85571">
        <ele>872</ele>
        <time>2020-06-05T06:58:40.000Z</time>
      </trkpt>
      <trkpt lat="44.07179" lon="6.85571">
        <ele>872</ele>
        <time>2020-06-05T06:58:41.000Z</time>
      </trkpt>
      <trkpt lat="44.07178" lon="6.85571">
        <ele>872</ele>
        <time>2020-06-05T06:58:42.000Z</time>
      </trkpt>
      <trkpt lat="44.07178" lon="6.85571">
        <ele>872</ele>
        <time>2020-06-05T06:58:43.000Z</time>
      </trkpt>
      <trkpt lat="44.07177" lon="6.85571">
        <ele>872</ele>
        <time>2020-06-05T06:58:44.000Z</time>
      </trkpt>
      <trkpt lat="44.07176" lon="6.85571">
        <ele>872</ele>
        <time>2020-06-05T06:58:45.000Z</time>
      </trkpt>
      <trkpt lat="44.07176" lon="6.85571">
        <ele>872</ele>
        <time>2020-06-05T06:58:46.000Z</time>
      </trkpt>
      <trkpt lat="44.07175" lon="6.85571">
        <ele>873</ele>
        <time>2020-06-05T06:58:47.000Z</time>
      </trkpt>
      <trkpt lat="44.07174" lon="6.85571">
        <ele>873</ele>
        <time>2020-06-05T06:58:48.000Z</time>
      </trkpt>
      <trkpt lat="44.07174" lon="6.85571">
        <ele>873</ele>
        <time>2020-06-05T06:58:49.000Z</time>
      </trkpt>
      <trkpt lat="44.07173" lon="6.85571">
        <ele>873</ele>
        <time>2020-06-05T06:58:50.000Z</time>
      </trkpt>
      <trkpt lat="44.07173" lon="6.85571">
        <ele>873</ele>
        <time>2020-06-05T06:58:51.000Z</time>
      </trkpt>
      <trkpt lat="44.07172" lon="6.85571">
        <ele>873</ele>
        <time>2020-06-05T06:58:52.000Z</time>
      </trkpt>
      <trkpt lat="44.07172" lon="6.85571">
        <ele>874</ele>
        <time>2020-06-05T06:58:53.000Z</time>
      </trkpt>
      <trkpt lat="44.07171" lon="6.8557">
        <ele>874</ele>
        <time>2020-06-05T06:58:54.000Z</time>
      </trkpt>
      <trkpt lat="44.0717" lon="6.8557">
        <ele>874</ele>
        <time>2020-06-05T06:58:55.000Z</time>
      </trkpt>
      <trkpt lat="44.0717" lon="6.8557">
        <ele>874</ele>
        <time>2020-06-05T06:58:56.000Z</time>
      </trkpt>
      <trkpt lat="44.07169" lon="6.8557">
        <ele>874</ele>
        <time>2020-06-05T06:58:57.000Z</time>
      </trkpt>
      <trkpt lat="44.07168" lon="6.85571">
        <ele>875</ele>
        <time>2020-06-05T06:58:58.000Z</time>
      </trkpt>
      <trkpt lat="44.07167" lon="6.85571">
        <ele>875</ele>
        <time>2020-06-05T06:58:59.000Z</time>
      </trkpt>
      <trkpt lat="44.07166" lon="6.85571">
        <ele>875</ele>
        <time>2020-06-05T06:59:00.000Z</time>
      </trkpt>
      <trkpt lat="44.07165" lon="6.85571">
        <ele>875</ele>
        <time>2020-06-05T06:59:01.000Z</time>
      </trkpt>
      <trkpt lat="44.07165" lon="6.85571">
        <ele>875</ele>
        <time>2020-06-05T06:59:02.000Z</time>
      </trkpt>
      <trkpt lat="44.07164" lon="6.85571">
        <ele>875</ele>
        <time>2020-06-05T06:59:03.000Z</time>
      </trkpt>
      <trkpt lat="44.07163" lon="6.85571">
        <ele>875</ele>
        <time>2020-06-05T06:59:04.000Z</time>
      </trkpt>
      <trkpt lat="44.07162" lon="6.85571">
        <ele>875</ele>
        <time>2020-06-05T06:59:05.000Z</time>
      </trkpt>
      <trkpt lat="44.07162" lon="6.85571">
        <ele>875</ele>
        <time>2020-06-05T06:59:06.000Z</time>
      </trkpt>
      <trkpt lat="44.07161" lon="6.85571">
        <ele>875</ele>
        <time>2020-06-05T06:59:07.000Z</time>
      </trkpt>
      <trkpt lat="44.0716" lon="6.85571">
        <ele>875</ele>
        <time>2020-06-05T06:59:08.000Z</time>
      </trkpt>
      <trkpt lat="44.07159" lon="6.85571">
        <ele>875</ele>
        <time>2020-06-05T06:59:09.000Z</time>
      </trkpt>
      <trkpt lat="44.07158" lon="6.85571">
        <ele>875</ele>
        <time>2020-06-05T06:59:10.000Z</time>
      </trkpt>
      <trkpt lat="44.07157" lon="6.85571">
        <ele>874</ele>
        <time>2020-06-05T06:59:11.000Z</time>
      </trkpt>
      <trkpt lat="44.07156" lon="6.8557">
        <ele>874</ele>
        <time>2020-06-05T06:59:12.000Z</time>
      </trkpt>
      <trkpt lat="44.07156" lon="6.8557">
        <ele>874</ele>
        <time>2020-06-05T06:59:13.000Z</time>
      </trkpt>
      <trkpt lat="44.07154" lon="6.8557">
        <ele>874</ele>
        <time>2020-06-05T06:59:14.000Z</time>
      </trkpt>
      <trkpt lat="44.07154" lon="6.8557">
        <ele>874</ele>
        <time>2020-06-05T06:59:15.000Z</time>
      </trkpt>
      <trkpt lat="44.07153" lon="6.85569">
        <ele>875</ele>
        <time>2020-06-05T06:59:16.000Z</time>
      </trkpt>
      <trkpt lat="44.07152" lon="6.85568">
        <ele>875</ele>
        <time>2020-06-05T06:59:17.000Z</time>
      </trkpt>
      <trkpt lat="44.07151" lon="6.85568">
        <ele>875</ele>
        <time>2020-06-05T06:59:18.000Z</time>
      </trkpt>
      <trkpt lat="44.0715" lon="6.85567">
        <ele>875</ele>
        <time>2020-06-05T06:59:19.000Z</time>
      </trkpt>
      <trkpt lat="44.0715" lon="6.85566">
        <ele>875</ele>
        <time>2020-06-05T06:59:20.000Z</time>
      </trkpt>
      <trkpt lat="44.07149" lon="6.85565">
        <ele>875</ele>
        <time>2020-06-05T06:59:21.000Z</time>
      </trkpt>
      <trkpt lat="44.07148" lon="6.85565">
        <ele>875</ele>
        <time>2020-06-05T06:59:22.000Z</time>
      </trkpt>
      <trkpt lat="44.07147" lon="6.85564">
        <ele>875</ele>
        <time>2020-06-05T06:59:23.000Z</time>
      </trkpt>
      <trkpt lat="44.07146" lon="6.85563">
        <ele>875</ele>
        <time>2020-06-05T06:59:24.000Z</time>
      </trkpt>
      <trkpt lat="44.07145" lon="6.85563">
        <ele>875</ele>
        <time>2020-06-05T06:59:25.000Z</time>
      </trkpt>
      <trkpt lat="44.07144" lon="6.85563">
        <ele>875</ele>
        <time>2020-06-05T06:59:26.000Z</time>
      </trkpt>
      <trkpt lat="44.07144" lon="6.85562">
        <ele>875</ele>
        <time>2020-06-05T06:59:27.000Z</time>
      </trkpt>
      <trkpt lat="44.07143" lon="6.85562">
        <ele>875</ele>
        <time>2020-06-05T06:59:28.000Z</time>
      </trkpt>
      <trkpt lat="44.07142" lon="6.85562">
        <ele>875</ele>
        <time>2020-06-05T06:59:29.000Z</time>
      </trkpt>
      <trkpt lat="44.07141" lon="6.85561">
        <ele>875</ele>
        <time>2020-06-05T06:59:30.000Z</time>
      </trkpt>
      <trkpt lat="44.07141" lon="6.85561">
        <ele>876</ele>
        <time>2020-06-05T06:59:31.000Z</time>
      </trkpt>
      <trkpt lat="44.0714" lon="6.85561">
        <ele>876</ele>
        <time>2020-06-05T06:59:32.000Z</time>
      </trkpt>
      <trkpt lat="44.07139" lon="6.85561">
        <ele>876</ele>
        <time>2020-06-05T06:59:33.000Z</time>
      </trkpt>
      <trkpt lat="44.07138" lon="6.85561">
        <ele>876</ele>
        <time>2020-06-05T06:59:34.000Z</time>
      </trkpt>
      <trkpt lat="44.07138" lon="6.85561">
        <ele>876</ele>
        <time>2020-06-05T06:59:35.000Z</time>
      </trkpt>
      <trkpt lat="44.07137" lon="6.8556">
        <ele>876</ele>
        <time>2020-06-05T06:59:36.000Z</time>
      </trkpt>
      <trkpt lat="44.07136" lon="6.8556">
        <ele>876</ele>
        <time>2020-06-05T06:59:37.000Z</time>
      </trkpt>
      <trkpt lat="44.07135" lon="6.8556">
        <ele>876</ele>
        <time>2020-06-05T06:59:38.000Z</time>
      </trkpt>
      <trkpt lat="44.07135" lon="6.85559">
        <ele>876</ele>
        <time>2020-06-05T06:59:39.000Z</time>
      </trkpt>
      <trkpt lat="44.07134" lon="6.85558">
        <ele>876</ele>
        <time>2020-06-05T06:59:40.000Z</time>
      </trkpt>
      <trkpt lat="44.07133" lon="6.85558">
        <ele>876</ele>
        <time>2020-06-05T06:59:41.000Z</time>
      </trkpt>
      <trkpt lat="44.07132" lon="6.85557">
        <ele>877</ele>
        <time>2020-06-05T06:59:42.000Z</time>
      </trkpt>
      <trkpt lat="44.07132" lon="6.85557">
        <ele>877</ele>
        <time>2020-06-05T06:59:43.000Z</time>
      </trkpt>
      <trkpt lat="44.07131" lon="6.85556">
        <ele>877</ele>
        <time>2020-06-05T06:59:44.000Z</time>
      </trkpt>
      <trkpt lat="44.0713" lon="6.85555">
        <ele>877</ele>
        <time>2020-06-05T06:59:45.000Z</time>
      </trkpt>
      <trkpt lat="44.0713" lon="6.85555">
        <ele>877</ele>
        <time>2020-06-05T06:59:46.000Z</time>
      </trkpt>
      <trkpt lat="44.07129" lon="6.85554">
        <ele>877</ele>
        <time>2020-06-05T06:59:47.000Z</time>
      </trkpt>
      <trkpt lat="44.07129" lon="6.85553">
        <ele>877</ele>
        <time>2020-06-05T06:59:48.000Z</time>
      </trkpt>
      <trkpt lat="44.07128" lon="6.85553">
        <ele>877</ele>
        <time>2020-06-05T06:59:49.000Z</time>
      </trkpt>
      <trkpt lat="44.07127" lon="6.85552">
        <ele>877</ele>
        <time>2020-06-05T06:59:50.000Z</time>
      </trkpt>
      <trkpt lat="44.07127" lon="6.85552">
        <ele>877</ele>
        <time>2020-06-05T06:59:51.000Z</time>
      </trkpt>
      <trkpt lat="44.07126" lon="6.85552">
        <ele>878</ele>
        <time>2020-06-05T06:59:52.000Z</time>
      </trkpt>
      <trkpt lat="44.07126" lon="6.85552">
        <ele>878</ele>
        <time>2020-06-05T06:59:53.000Z</time>
      </trkpt>
      <trkpt lat="44.07125" lon="6.85551">
        <ele>878</ele>
        <time>2020-06-05T06:59:54.000Z</time>
      </trkpt>
      <trkpt lat="44.07125" lon="6.85551">
        <ele>878</ele>
        <time>2020-06-05T06:59:55.000Z</time>
      </trkpt>
      <trkpt lat="44.07125" lon="6.85551">
        <ele>878</ele>
        <time>2020-06-05T06:59:56.000Z</time>
      </trkpt>
      <trkpt lat="44.07125" lon="6.85551">
        <ele>878</ele>
        <time>2020-06-05T06:59:57.000Z</time>
      </trkpt>
      <trkpt lat="44.07125" lon="6.85551">
        <ele>878</ele>
        <time>2020-06-05T06:59:58.000Z</time>
      </trkpt>
      <trkpt lat="44.07125" lon="6.85551">
        <ele>879</ele>
        <time>2020-06-05T06:59:59.000Z</time>
      </trkpt>
      <trkpt lat="44.07125" lon="6.85551">
        <ele>879</ele>
        <time>2020-06-05T07:00:00.000Z</time>
      </trkpt>
      <trkpt lat="44.07125" lon="6.85551">
        <ele>879</ele>
        <time>2020-06-05T07:00:01.000Z</time>
      </trkpt>
      <trkpt lat="44.07125" lon="6.85551">
        <ele>879</ele>
        <time>2020-06-05T07:00:02.000Z</time>
      </trkpt>
      <trkpt lat="44.07125" lon="6.85552">
        <ele>879</ele>
        <time>2020-06-05T07:00:03.000Z</time>
      </trkpt>
      <trkpt lat="44.07125" lon="6.85552">
        <ele>879</ele>
        <time>2020-06-05T07:00:04.000Z</time>
      </trkpt>
      <trkpt lat="44.07125" lon="6.85552">
        <ele>879</ele>
        <time>2020-06-05T07:00:05.000Z</time>
      </trkpt>
      <trkpt lat="44.07125" lon="6.85552">
        <ele>879</ele>
        <time>2020-06-05T07:00:06.000Z</time>
      </trkpt>
      <trkpt lat="44.07125" lon="6.85551">
        <ele>879</ele>
        <time>2020-06-05T07:00:07.000Z</time>
      </trkpt>
      <trkpt lat="44.07125" lon="6.85552">
        <ele>879</ele>
        <time>2020-06-05T07:00:08.000Z</time>
      </trkpt>
      <trkpt lat="44.07125" lon="6.85552">
        <ele>879</ele>
        <time>2020-06-05T07:00:09.000Z</time>
      </trkpt>
      <trkpt lat="44.07125" lon="6.85551">
        <ele>879</ele>
        <time>2020-06-05T07:00:10.000Z</time>
      </trkpt>
      <trkpt lat="44.07125" lon="6.85551">
        <ele>879</ele>
        <time>2020-06-05T07:00:11.000Z</time>
      </trkpt>
      <trkpt lat="44.07125" lon="6.85551">
        <ele>879</ele>
        <time>2020-06-05T07:00:12.000Z</time>
      </trkpt>
      <trkpt lat="44.07125" lon="6.85551">
        <ele>879</ele>
        <time>2020-06-05T07:00:13.000Z</time>
      </trkpt>
      <trkpt lat="44.07125" lon="6.85551">
        <ele>879</ele>
        <time>2020-06-05T07:00:14.000Z</time>
      </trkpt>
      <trkpt lat="44.07125" lon="6.85552">
        <ele>879</ele>
        <time>2020-06-05T07:00:15.000Z</time>
      </trkpt>
      <trkpt lat="44.07125" lon="6.85552">
        <ele>879</ele>
        <time>2020-06-05T07:00:16.000Z</time>
      </trkpt>
      <trkpt lat="44.07125" lon="6.85552">
        <ele>879</ele>
        <time>2020-06-05T07:00:17.000Z</time>
      </trkpt>
      <trkpt lat="44.07125" lon="6.85552">
        <ele>879</ele>
        <time>2020-06-05T07:00:18.000Z</time>
      </trkpt>
      <trkpt lat="44.07125" lon="6.85552">
        <ele>879</ele>
        <time>2020-06-05T07:00:19.000Z</time>
      </trkpt>
      <trkpt lat="44.07125" lon="6.85551">
        <ele>879</ele>
        <time>2020-06-05T07:00:20.000Z</time>
      </trkpt>
      <trkpt lat="44.07125" lon="6.85552">
        <ele>879</ele>
        <time>2020-06-05T07:00:21.000Z</time>
      </trkpt>
      <trkpt lat="44.07125" lon="6.85552">
        <ele>880</ele>
        <time>2020-06-05T07:00:22.000Z</time>
      </trkpt>
      <trkpt lat="44.07125" lon="6.85552">
        <ele>880</ele>
        <time>2020-06-05T07:00:23.000Z</time>
      </trkpt>
      <trkpt lat="44.07125" lon="6.85552">
        <ele>880</ele>
        <time>2020-06-05T07:00:24.000Z</time>
      </trkpt>
      <trkpt lat="44.07125" lon="6.85552">
        <ele>880</ele>
        <time>2020-06-05T07:00:25.000Z</time>
      </trkpt>
      <trkpt lat="44.07125" lon="6.85552">
        <ele>880</ele>
        <time>2020-06-05T07:00:26.000Z</time>
      </trkpt>
      <trkpt lat="44.07125" lon="6.85552">
        <ele>880</ele>
        <time>2020-06-05T07:00:27.000Z</time>
      </trkpt>
      <trkpt lat="44.07125" lon="6.85552">
        <ele>880</ele>
        <time>2020-06-05T07:00:28.000Z</time>
      </trkpt>
      <trkpt lat="44.07125" lon="6.85552">
        <ele>880</ele>
        <time>2020-06-05T07:00:29.000Z</time>
      </trkpt>
      <trkpt lat="44.07125" lon="6.85553">
        <ele>880</ele>
        <time>2020-06-05T07:00:30.000Z</time>
      </trkpt>
      <trkpt lat="44.07125" lon="6.85553">
        <ele>880</ele>
        <time>2020-06-05T07:00:31.000Z</time>
      </trkpt>
      <trkpt lat="44.07125" lon="6.85553">
        <ele>880</ele>
        <time>2020-06-05T07:00:32.000Z</time>
      </trkpt>
      <trkpt lat="44.07125" lon="6.85553">
        <ele>880</ele>
        <time>2020-06-05T07:00:33.000Z</time>
      </trkpt>
      <trkpt lat="44.07125" lon="6.85553">
        <ele>880</ele>
        <time>2020-06-05T07:00:34.000Z</time>
      </trkpt>
      <trkpt lat="44.07125" lon="6.85553">
        <ele>880</ele>
        <time>2020-06-05T07:00:35.000Z</time>
      </trkpt>
      <trkpt lat="44.07125" lon="6.85552">
        <ele>880</ele>
        <time>2020-06-05T07:00:36.000Z</time>
      </trkpt>
      <trkpt lat="44.07125" lon="6.85552">
        <ele>880</ele>
        <time>2020-06-05T07:00:37.000Z</time>
      </trkpt>
      <trkpt lat="44.07125" lon="6.85552">
        <ele>880</ele>
        <time>2020-06-05T07:00:38.000Z</time>
      </trkpt>
      <trkpt lat="44.07125" lon="6.85552">
        <ele>880</ele>
        <time>2020-06-05T07:00:39.000Z</time>
      </trkpt>
      <trkpt lat="44.07125" lon="6.85552">
        <ele>880</ele>
        <time>2020-06-05T07:00:40.000Z</time>
      </trkpt>
      <trkpt lat="44.07125" lon="6.85552">
        <ele>880</ele>
        <time>2020-06-05T07:00:41.000Z</time>
      </trkpt>
      <trkpt lat="44.07125" lon="6.85552">
        <ele>881</ele>
        <time>2020-06-05T07:00:42.000Z</time>
      </trkpt>
      <trkpt lat="44.07125" lon="6.85552">
        <ele>880</ele>
        <time>2020-06-05T07:00:43.000Z</time>
      </trkpt>
      <trkpt lat="44.07125" lon="6.85552">
        <ele>880</ele>
        <time>2020-06-05T07:00:44.000Z</time>
      </trkpt>
      <trkpt lat="44.07125" lon="6.85552">
        <ele>880</ele>
        <time>2020-06-05T07:00:45.000Z</time>
      </trkpt>
      <trkpt lat="44.07125" lon="6.85552">
        <ele>880</ele>
        <time>2020-06-05T07:00:46.000Z</time>
      </trkpt>
      <trkpt lat="44.07125" lon="6.85552">
        <ele>880</ele>
        <time>2020-06-05T07:00:47.000Z</time>
      </trkpt>
      <trkpt lat="44.07125" lon="6.85552">
        <ele>880</ele>
        <time>2020-06-05T07:00:48.000Z</time>
      </trkpt>
      <trkpt lat="44.07125" lon="6.85552">
        <ele>880</ele>
        <time>2020-06-05T07:00:49.000Z</time>
      </trkpt>
      <trkpt lat="44.07125" lon="6.85552">
        <ele>880</ele>
        <time>2020-06-05T07:00:50.000Z</time>
      </trkpt>
      <trkpt lat="44.07125" lon="6.85552">
        <ele>880</ele>
        <time>2020-06-05T07:00:51.000Z</time>
      </trkpt>
      <trkpt lat="44.07125" lon="6.85552">
        <ele>880</ele>
        <time>2020-06-05T07:00:52.000Z</time>
      </trkpt>
      <trkpt lat="44.07125" lon="6.85552">
        <ele>880</ele>
        <time>2020-06-05T07:00:53.000Z</time>
      </trkpt>
      <trkpt lat="44.07125" lon="6.85553">
        <ele>880</ele>
        <time>2020-06-05T07:00:54.000Z</time>
      </trkpt>
      <trkpt lat="44.07125" lon="6.85553">
        <ele>880</ele>
        <time>2020-06-05T07:00:55.000Z</time>
      </trkpt>
      <trkpt lat="44.07125" lon="6.85553">
        <ele>880</ele>
        <time>2020-06-05T07:00:56.000Z</time>
      </trkpt>
      <trkpt lat="44.07125" lon="6.85553">
        <ele>880</ele>
        <time>2020-06-05T07:00:57.000Z</time>
      </trkpt>
      <trkpt lat="44.07125" lon="6.85552">
        <ele>880</ele>
        <time>2020-06-05T07:00:58.000Z</time>
      </trkpt>
      <trkpt lat="44.07125" lon="6.85552">
        <ele>880</ele>
        <time>2020-06-05T07:00:59.000Z</time>
      </trkpt>
      <trkpt lat="44.07125" lon="6.85552">
        <ele>880</ele>
        <time>2020-06-05T07:01:00.000Z</time>
      </trkpt>
      <trkpt lat="44.07125" lon="6.85553">
        <ele>880</ele>
        <time>2020-06-05T07:01:01.000Z</time>
      </trkpt>
      <trkpt lat="44.07125" lon="6.85553">
        <ele>880</ele>
        <time>2020-06-05T07:01:02.000Z</time>
      </trkpt>
      <trkpt lat="44.07125" lon="6.85553">
        <ele>880</ele>
        <time>2020-06-05T07:01:03.000Z</time>
      </trkpt>
      <trkpt lat="44.07125" lon="6.85553">
        <ele>881</ele>
        <time>2020-06-05T07:01:04.000Z</time>
      </trkpt>
      <trkpt lat="44.07125" lon="6.85553">
        <ele>881</ele>
        <time>2020-06-05T07:01:05.000Z</time>
      </trkpt>
      <trkpt lat="44.07125" lon="6.85553">
        <ele>881</ele>
        <time>2020-06-05T07:01:06.000Z</time>
      </trkpt>
      <trkpt lat="44.07125" lon="6.85553">
        <ele>881</ele>
        <time>2020-06-05T07:01:07.000Z</time>
      </trkpt>
      <trkpt lat="44.07125" lon="6.85553">
        <ele>881</ele>
        <time>2020-06-05T07:01:08.000Z</time>
      </trkpt>
      <trkpt lat="44.07125" lon="6.85552">
        <ele>881</ele>
        <time>2020-06-05T07:01:09.000Z</time>
      </trkpt>
      <trkpt lat="44.07125" lon="6.85552">
        <ele>881</ele>
        <time>2020-06-05T07:01:10.000Z</time>
      </trkpt>
      <trkpt lat="44.07125" lon="6.85552">
        <ele>881</ele>
        <time>2020-06-05T07:01:11.000Z</time>
      </trkpt>
      <trkpt lat="44.07125" lon="6.85552">
        <ele>881</ele>
        <time>2020-06-05T07:01:12.000Z</time>
      </trkpt>
      <trkpt lat="44.07125" lon="6.85553">
        <ele>881</ele>
        <time>2020-06-05T07:01:13.000Z</time>
      </trkpt>
      <trkpt lat="44.07125" lon="6.85553">
        <ele>881</ele>
        <time>2020-06-05T07:01:14.000Z</time>
      </trkpt>
      <trkpt lat="44.07125" lon="6.85553">
        <ele>881</ele>
        <time>2020-06-05T07:01:15.000Z</time>
      </trkpt>
      <trkpt lat="44.07125" lon="6.85553">
        <ele>881</ele>
        <time>2020-06-05T07:01:16.000Z</time>
      </trkpt>
      <trkpt lat="44.07125" lon="6.85553">
        <ele>881</ele>
        <time>2020-06-05T07:01:17.000Z</time>
      </trkpt>
      <trkpt lat="44.07125" lon="6.85553">
        <ele>881</ele>
        <time>2020-06-05T07:01:18.000Z</time>
      </trkpt>
      <trkpt lat="44.07125" lon="6.85553">
        <ele>881</ele>
        <time>2020-06-05T07:01:19.000Z</time>
      </trkpt>
      <trkpt lat="44.07125" lon="6.85553">
        <ele>881</ele>
        <time>2020-06-05T07:01:20.000Z</time>
      </trkpt>
      <trkpt lat="44.07125" lon="6.85553">
        <ele>881</ele>
        <time>2020-06-05T07:01:21.000Z</time>
      </trkpt>
      <trkpt lat="44.07125" lon="6.85553">
        <ele>881</ele>
        <time>2020-06-05T07:01:22.000Z</time>
      </trkpt>
      <trkpt lat="44.07125" lon="6.85553">
        <ele>881</ele>
        <time>2020-06-05T07:01:23.000Z</time>
      </trkpt>
      <trkpt lat="44.07125" lon="6.85553">
        <ele>881</ele>
        <time>2020-06-05T07:01:24.000Z</time>
      </trkpt>
      <trkpt lat="44.07125" lon="6.85553">
        <ele>881</ele>
        <time>2020-06-05T07:01:25.000Z</time>
      </trkpt>
      <trkpt lat="44.07125" lon="6.85553">
        <ele>881</ele>
        <time>2020-06-05T07:01:26.000Z</time>
      </trkpt>
      <trkpt lat="44.07125" lon="6.85553">
        <ele>881</ele>
        <time>2020-06-05T07:01:27.000Z</time>
      </trkpt>
      <trkpt lat="44.07125" lon="6.85553">
        <ele>881</ele>
        <time>2020-06-05T07:01:28.000Z</time>
      </trkpt>
      <trkpt lat="44.07125" lon="6.85553">
        <ele>881</ele>
        <time>2020-06-05T07:01:29.000Z</time>
      </trkpt>
      <trkpt lat="44.07125" lon="6.85553">
        <ele>881</ele>
        <time>2020-06-05T07:01:30.000Z</time>
      </trkpt>
      <trkpt lat="44.07125" lon="6.85553">
        <ele>881</ele>
        <time>2020-06-05T07:01:31.000Z</time>
      </trkpt>
      <trkpt lat="44.07125" lon="6.85553">
        <ele>881</ele>
        <time>2020-06-05T07:01:32.000Z</time>
      </trkpt>
      <trkpt lat="44.07125" lon="6.85553">
        <ele>881</ele>
        <time>2020-06-05T07:01:33.000Z</time>
      </trkpt>
      <trkpt lat="44.07125" lon="6.85553">
        <ele>881</ele>
        <time>2020-06-05T07:01:34.000Z</time>
      </trkpt>
      <trkpt lat="44.07125" lon="6.85553">
        <ele>881</ele>
        <time>2020-06-05T07:01:35.000Z</time>
      </trkpt>
      <trkpt lat="44.07125" lon="6.85553">
        <ele>881</ele>
        <time>2020-06-05T07:01:36.000Z</time>
      </trkpt>
      <trkpt lat="44.07125" lon="6.85553">
        <ele>881</ele>
        <time>2020-06-05T07:01:37.000Z</time>
      </trkpt>
      <trkpt lat="44.07124" lon="6.85553">
        <ele>881</ele>
        <time>2020-06-05T07:01:38.000Z</time>
      </trkpt>
      <trkpt lat="44.07124" lon="6.85553">
        <ele>881</ele>
        <time>2020-06-05T07:01:39.000Z</time>
      </trkpt>
      <trkpt lat="44.07124" lon="6.85553">
        <ele>881</ele>
        <time>2020-06-05T07:01:40.000Z</time>
      </trkpt>
      <trkpt lat="44.07124" lon="6.85553">
        <ele>881</ele>
        <time>2020-06-05T07:01:41.000Z</time>
      </trkpt>
      <trkpt lat="44.07124" lon="6.85553">
        <ele>881</ele>
        <time>2020-06-05T07:01:42.000Z</time>
      </trkpt>
      <trkpt lat="44.07124" lon="6.85553">
        <ele>881</ele>
        <time>2020-06-05T07:01:43.000Z</time>
      </trkpt>
      <trkpt lat="44.07125" lon="6.85553">
        <ele>881</ele>
        <time>2020-06-05T07:01:44.000Z</time>
      </trkpt>
      <trkpt lat="44.07125" lon="6.85553">
        <ele>881</ele>
        <time>2020-06-05T07:01:45.000Z</time>
      </trkpt>
      <trkpt lat="44.07125" lon="6.85553">
        <ele>881</ele>
        <time>2020-06-05T07:01:46.000Z</time>
      </trkpt>
      <trkpt lat="44.07125" lon="6.85553">
        <ele>881</ele>
        <time>2020-06-05T07:01:47.000Z</time>
      </trkpt>
      <trkpt lat="44.07124" lon="6.85553">
        <ele>881</ele>
        <time>2020-06-05T07:01:48.000Z</time>
      </trkpt>
      <trkpt lat="44.07125" lon="6.85553">
        <ele>881</ele>
        <time>2020-06-05T07:01:49.000Z</time>
      </trkpt>
      <trkpt lat="44.07125" lon="6.85553">
        <ele>881</ele>
        <time>2020-06-05T07:01:50.000Z</time>
      </trkpt>
      <trkpt lat="44.07125" lon="6.85553">
        <ele>881</ele>
        <time>2020-06-05T07:01:51.000Z</time>
      </trkpt>
      <trkpt lat="44.07125" lon="6.85553">
        <ele>881</ele>
        <time>2020-06-05T07:01:52.000Z</time>
      </trkpt>
      <trkpt lat="44.07124" lon="6.85553">
        <ele>881</ele>
        <time>2020-06-05T07:01:53.000Z</time>
      </trkpt>
      <trkpt lat="44.07124" lon="6.85553">
        <ele>881</ele>
        <time>2020-06-05T07:01:54.000Z</time>
      </trkpt>
      <trkpt lat="44.07124" lon="6.85553">
        <ele>881</ele>
        <time>2020-06-05T07:01:55.000Z</time>
      </trkpt>
      <trkpt lat="44.07125" lon="6.85552">
        <ele>881</ele>
        <time>2020-06-05T07:01:56.000Z</time>
      </trkpt>
      <trkpt lat="44.07125" lon="6.85553">
        <ele>881</ele>
        <time>2020-06-05T07:01:57.000Z</time>
      </trkpt>
      <trkpt lat="44.07125" lon="6.85553">
        <ele>881</ele>
        <time>2020-06-05T07:01:58.000Z</time>
      </trkpt>
      <trkpt lat="44.07125" lon="6.85552">
        <ele>881</ele>
        <time>2020-06-05T07:01:59.000Z</time>
      </trkpt>
      <trkpt lat="44.07125" lon="6.85553">
        <ele>881</ele>
        <time>2020-06-05T07:02:00.000Z</time>
      </trkpt>
      <trkpt lat="44.07125" lon="6.85552">
        <ele>881</ele>
        <time>2020-06-05T07:02:01.000Z</time>
      </trkpt>
      <trkpt lat="44.07124" lon="6.85552">
        <ele>881</ele>
        <time>2020-06-05T07:02:02.000Z</time>
      </trkpt>
      <trkpt lat="44.07124" lon="6.85551">
        <ele>881</ele>
        <time>2020-06-05T07:02:03.000Z</time>
      </trkpt>
      <trkpt lat="44.07123" lon="6.8555">
        <ele>881</ele>
        <time>2020-06-05T07:02:04.000Z</time>
      </trkpt>
      <trkpt lat="44.07123" lon="6.85549">
        <ele>881</ele>
        <time>2020-06-05T07:02:05.000Z</time>
      </trkpt>
      <trkpt lat="44.07123" lon="6.85547">
        <ele>881</ele>
        <time>2020-06-05T07:02:06.000Z</time>
      </trkpt>
      <trkpt lat="44.07123" lon="6.85546">
        <ele>881</ele>
        <time>2020-06-05T07:02:07.000Z</time>
      </trkpt>
      <trkpt lat="44.07122" lon="6.85545">
        <ele>881</ele>
        <time>2020-06-05T07:02:08.000Z</time>
      </trkpt>
      <trkpt lat="44.07122" lon="6.85543">
        <ele>881</ele>
        <time>2020-06-05T07:02:09.000Z</time>
      </trkpt>
      <trkpt lat="44.07122" lon="6.85542">
        <ele>881</ele>
        <time>2020-06-05T07:02:10.000Z</time>
      </trkpt>
      <trkpt lat="44.07122" lon="6.8554">
        <ele>881</ele>
        <time>2020-06-05T07:02:11.000Z</time>
      </trkpt>
      <trkpt lat="44.07122" lon="6.85538">
        <ele>881</ele>
        <time>2020-06-05T07:02:12.000Z</time>
      </trkpt>
      <trkpt lat="44.07122" lon="6.85537">
        <ele>881</ele>
        <time>2020-06-05T07:02:13.000Z</time>
      </trkpt>
      <trkpt lat="44.07122" lon="6.85536">
        <ele>881</ele>
        <time>2020-06-05T07:02:14.000Z</time>
      </trkpt>
      <trkpt lat="44.07121" lon="6.85535">
        <ele>881</ele>
        <time>2020-06-05T07:02:15.000Z</time>
      </trkpt>
      <trkpt lat="44.07121" lon="6.85534">
        <ele>882</ele>
        <time>2020-06-05T07:02:16.000Z</time>
      </trkpt>
      <trkpt lat="44.07121" lon="6.85533">
        <ele>882</ele>
        <time>2020-06-05T07:02:17.000Z</time>
      </trkpt>
      <trkpt lat="44.07121" lon="6.85532">
        <ele>882</ele>
        <time>2020-06-05T07:02:18.000Z</time>
      </trkpt>
      <trkpt lat="44.0712" lon="6.85531">
        <ele>882</ele>
        <time>2020-06-05T07:02:19.000Z</time>
      </trkpt>
      <trkpt lat="44.0712" lon="6.8553">
        <ele>882</ele>
        <time>2020-06-05T07:02:20.000Z</time>
      </trkpt>
      <trkpt lat="44.0712" lon="6.85529">
        <ele>882</ele>
        <time>2020-06-05T07:02:21.000Z</time>
      </trkpt>
      <trkpt lat="44.0712" lon="6.85528">
        <ele>882</ele>
        <time>2020-06-05T07:02:22.000Z</time>
      </trkpt>
      <trkpt lat="44.0712" lon="6.85526">
        <ele>882</ele>
        <time>2020-06-05T07:02:23.000Z</time>
      </trkpt>
      <trkpt lat="44.07119" lon="6.85525">
        <ele>882</ele>
        <time>2020-06-05T07:02:24.000Z</time>
      </trkpt>
      <trkpt lat="44.07119" lon="6.85524">
        <ele>882</ele>
        <time>2020-06-05T07:02:25.000Z</time>
      </trkpt>
      <trkpt lat="44.07119" lon="6.85523">
        <ele>882</ele>
        <time>2020-06-05T07:02:26.000Z</time>
      </trkpt>
      <trkpt lat="44.07119" lon="6.85522">
        <ele>882</ele>
        <time>2020-06-05T07:02:27.000Z</time>
      </trkpt>
      <trkpt lat="44.07119" lon="6.85521">
        <ele>882</ele>
        <time>2020-06-05T07:02:28.000Z</time>
      </trkpt>
      <trkpt lat="44.07118" lon="6.85519">
        <ele>882</ele>
        <time>2020-06-05T07:02:29.000Z</time>
      </trkpt>
      <trkpt lat="44.07118" lon="6.85518">
        <ele>882</ele>
        <time>2020-06-05T07:02:30.000Z</time>
      </trkpt>
      <trkpt lat="44.07117" lon="6.85517">
        <ele>882</ele>
        <time>2020-06-05T07:02:31.000Z</time>
      </trkpt>
      <trkpt lat="44.07117" lon="6.85516">
        <ele>882</ele>
        <time>2020-06-05T07:02:32.000Z</time>
      </trkpt>
      <trkpt lat="44.07116" lon="6.85515">
        <ele>882</ele>
        <time>2020-06-05T07:02:33.000Z</time>
      </trkpt>
      <trkpt lat="44.07116" lon="6.85513">
        <ele>882</ele>
        <time>2020-06-05T07:02:34.000Z</time>
      </trkpt>
      <trkpt lat="44.07115" lon="6.85512">
        <ele>882</ele>
        <time>2020-06-05T07:02:35.000Z</time>
      </trkpt>
      <trkpt lat="44.07115" lon="6.85511">
        <ele>882</ele>
        <time>2020-06-05T07:02:36.000Z</time>
      </trkpt>
      <trkpt lat="44.07115" lon="6.8551">
        <ele>882</ele>
        <time>2020-06-05T07:02:37.000Z</time>
      </trkpt>
      <trkpt lat="44.07114" lon="6.85508">
        <ele>882</ele>
        <time>2020-06-05T07:02:38.000Z</time>
      </trkpt>
      <trkpt lat="44.07114" lon="6.85507">
        <ele>882</ele>
        <time>2020-06-05T07:02:39.000Z</time>
      </trkpt>
      <trkpt lat="44.07113" lon="6.85506">
        <ele>882</ele>
        <time>2020-06-05T07:02:40.000Z</time>
      </trkpt>
      <trkpt lat="44.07113" lon="6.85505">
        <ele>882</ele>
        <time>2020-06-05T07:02:41.000Z</time>
      </trkpt>
      <trkpt lat="44.07113" lon="6.85503">
        <ele>882</ele>
        <time>2020-06-05T07:02:42.000Z</time>
      </trkpt>
      <trkpt lat="44.07112" lon="6.85502">
        <ele>882</ele>
        <time>2020-06-05T07:02:43.000Z</time>
      </trkpt>
      <trkpt lat="44.07112" lon="6.85501">
        <ele>882</ele>
        <time>2020-06-05T07:02:44.000Z</time>
      </trkpt>
      <trkpt lat="44.07112" lon="6.855">
        <ele>882</ele>
        <time>2020-06-05T07:02:45.000Z</time>
      </trkpt>
      <trkpt lat="44.07112" lon="6.85499">
        <ele>882</ele>
        <time>2020-06-05T07:02:46.000Z</time>
      </trkpt>
      <trkpt lat="44.07111" lon="6.85498">
        <ele>882</ele>
        <time>2020-06-05T07:02:47.000Z</time>
      </trkpt>
      <trkpt lat="44.07111" lon="6.85497">
        <ele>882</ele>
        <time>2020-06-05T07:02:48.000Z</time>
      </trkpt>
      <trkpt lat="44.07111" lon="6.85496">
        <ele>882</ele>
        <time>2020-06-05T07:02:49.000Z</time>
      </trkpt>
      <trkpt lat="44.0711" lon="6.85495">
        <ele>882</ele>
        <time>2020-06-05T07:02:50.000Z</time>
      </trkpt>
      <trkpt lat="44.0711" lon="6.85494">
        <ele>882</ele>
        <time>2020-06-05T07:02:51.000Z</time>
      </trkpt>
      <trkpt lat="44.07109" lon="6.85492">
        <ele>882</ele>
        <time>2020-06-05T07:02:52.000Z</time>
      </trkpt>
      <trkpt lat="44.07108" lon="6.85492">
        <ele>883</ele>
        <time>2020-06-05T07:02:53.000Z</time>
      </trkpt>
      <trkpt lat="44.07108" lon="6.85491">
        <ele>883</ele>
        <time>2020-06-05T07:02:54.000Z</time>
      </trkpt>
      <trkpt lat="44.07107" lon="6.8549">
        <ele>883</ele>
        <time>2020-06-05T07:02:55.000Z</time>
      </trkpt>
      <trkpt lat="44.07106" lon="6.85489">
        <ele>883</ele>
        <time>2020-06-05T07:02:56.000Z</time>
      </trkpt>
      <trkpt lat="44.07105" lon="6.85488">
        <ele>883</ele>
        <time>2020-06-05T07:02:57.000Z</time>
      </trkpt>
      <trkpt lat="44.07104" lon="6.85487">
        <ele>883</ele>
        <time>2020-06-05T07:02:58.000Z</time>
      </trkpt>
      <trkpt lat="44.07103" lon="6.85486">
        <ele>883</ele>
        <time>2020-06-05T07:02:59.000Z</time>
      </trkpt>
      <trkpt lat="44.07102" lon="6.85485">
        <ele>884</ele>
        <time>2020-06-05T07:03:00.000Z</time>
      </trkpt>
      <trkpt lat="44.07102" lon="6.85485">
        <ele>884</ele>
        <time>2020-06-05T07:03:01.000Z</time>
      </trkpt>
      <trkpt lat="44.07101" lon="6.85484">
        <ele>884</ele>
        <time>2020-06-05T07:03:02.000Z</time>
      </trkpt>
      <trkpt lat="44.071" lon="6.85483">
        <ele>884</ele>
        <time>2020-06-05T07:03:03.000Z</time>
      </trkpt>
      <trkpt lat="44.07099" lon="6.85482">
        <ele>884</ele>
        <time>2020-06-05T07:03:04.000Z</time>
      </trkpt>
      <trkpt lat="44.07098" lon="6.85482">
        <ele>885</ele>
        <time>2020-06-05T07:03:05.000Z</time>
      </trkpt>
      <trkpt lat="44.07097" lon="6.85481">
        <ele>885</ele>
        <time>2020-06-05T07:03:06.000Z</time>
      </trkpt>
      <trkpt lat="44.07096" lon="6.8548">
        <ele>885</ele>
        <time>2020-06-05T07:03:07.000Z</time>
      </trkpt>
      <trkpt lat="44.07095" lon="6.85479">
        <ele>886</ele>
        <time>2020-06-05T07:03:08.000Z</time>
      </trkpt>
      <trkpt lat="44.07095" lon="6.85479">
        <ele>886</ele>
        <time>2020-06-05T07:03:09.000Z</time>
      </trkpt>
      <trkpt lat="44.07094" lon="6.85478">
        <ele>886</ele>
        <time>2020-06-05T07:03:10.000Z</time>
      </trkpt>
      <trkpt lat="44.07093" lon="6.85478">
        <ele>886</ele>
        <time>2020-06-05T07:03:11.000Z</time>
      </trkpt>
      <trkpt lat="44.07092" lon="6.85477">
        <ele>886</ele>
        <time>2020-06-05T07:03:12.000Z</time>
      </trkpt>
      <trkpt lat="44.07091" lon="6.85476">
        <ele>886</ele>
        <time>2020-06-05T07:03:13.000Z</time>
      </trkpt>
      <trkpt lat="44.0709" lon="6.85475">
        <ele>886</ele>
        <time>2020-06-05T07:03:14.000Z</time>
      </trkpt>
      <trkpt lat="44.07089" lon="6.85474">
        <ele>887</ele>
        <time>2020-06-05T07:03:15.000Z</time>
      </trkpt>
      <trkpt lat="44.07089" lon="6.85473">
        <ele>887</ele>
        <time>2020-06-05T07:03:16.000Z</time>
      </trkpt>
      <trkpt lat="44.07088" lon="6.85473">
        <ele>887</ele>
        <time>2020-06-05T07:03:17.000Z</time>
      </trkpt>
      <trkpt lat="44.07087" lon="6.85472">
        <ele>887</ele>
        <time>2020-06-05T07:03:18.000Z</time>
      </trkpt>
      <trkpt lat="44.07086" lon="6.85471">
        <ele>887</ele>
        <time>2020-06-05T07:03:19.000Z</time>
      </trkpt>
      <trkpt lat="44.07086" lon="6.8547">
        <ele>887</ele>
        <time>2020-06-05T07:03:20.000Z</time>
      </trkpt>
      <trkpt lat="44.07085" lon="6.85469">
        <ele>887</ele>
        <time>2020-06-05T07:03:21.000Z</time>
      </trkpt>
      <trkpt lat="44.07085" lon="6.85468">
        <ele>887</ele>
        <time>2020-06-05T07:03:22.000Z</time>
      </trkpt>
      <trkpt lat="44.07084" lon="6.85466">
        <ele>887</ele>
        <time>2020-06-05T07:03:23.000Z</time>
      </trkpt>
      <trkpt lat="44.07084" lon="6.85465">
        <ele>887</ele>
        <time>2020-06-05T07:03:24.000Z</time>
      </trkpt>
      <trkpt lat="44.07084" lon="6.85464">
        <ele>887</ele>
        <time>2020-06-05T07:03:25.000Z</time>
      </trkpt>
      <trkpt lat="44.07083" lon="6.85462">
        <ele>887</ele>
        <time>2020-06-05T07:03:26.000Z</time>
      </trkpt>
      <trkpt lat="44.07083" lon="6.85461">
        <ele>887</ele>
        <time>2020-06-05T07:03:27.000Z</time>
      </trkpt>
      <trkpt lat="44.07082" lon="6.8546">
        <ele>887</ele>
        <time>2020-06-05T07:03:28.000Z</time>
      </trkpt>
      <trkpt lat="44.07081" lon="6.85459">
        <ele>887</ele>
        <time>2020-06-05T07:03:29.000Z</time>
      </trkpt>
      <trkpt lat="44.07081" lon="6.85457">
        <ele>887</ele>
        <time>2020-06-05T07:03:30.000Z</time>
      </trkpt>
      <trkpt lat="44.07081" lon="6.85456">
        <ele>887</ele>
        <time>2020-06-05T07:03:31.000Z</time>
      </trkpt>
      <trkpt lat="44.0708" lon="6.85455">
        <ele>887</ele>
        <time>2020-06-05T07:03:32.000Z</time>
      </trkpt>
      <trkpt lat="44.0708" lon="6.85453">
        <ele>887</ele>
        <time>2020-06-05T07:03:33.000Z</time>
      </trkpt>
      <trkpt lat="44.0708" lon="6.85452">
        <ele>887</ele>
        <time>2020-06-05T07:03:34.000Z</time>
      </trkpt>
      <trkpt lat="44.0708" lon="6.8545">
        <ele>887</ele>
        <time>2020-06-05T07:03:35.000Z</time>
      </trkpt>
      <trkpt lat="44.0708" lon="6.85449">
        <ele>887</ele>
        <time>2020-06-05T07:03:36.000Z</time>
      </trkpt>
      <trkpt lat="44.0708" lon="6.85448">
        <ele>887</ele>
        <time>2020-06-05T07:03:37.000Z</time>
      </trkpt>
      <trkpt lat="44.0708" lon="6.85446">
        <ele>887</ele>
        <time>2020-06-05T07:03:38.000Z</time>
      </trkpt>
      <trkpt lat="44.0708" lon="6.85445">
        <ele>887</ele>
        <time>2020-06-05T07:03:39.000Z</time>
      </trkpt>
      <trkpt lat="44.0708" lon="6.85443">
        <ele>887</ele>
        <time>2020-06-05T07:03:40.000Z</time>
      </trkpt>
      <trkpt lat="44.0708" lon="6.85442">
        <ele>887</ele>
        <time>2020-06-05T07:03:41.000Z</time>
      </trkpt>
      <trkpt lat="44.0708" lon="6.8544">
        <ele>887</ele>
        <time>2020-06-05T07:03:42.000Z</time>
      </trkpt>
      <trkpt lat="44.0708" lon="6.85439">
        <ele>887</ele>
        <time>2020-06-05T07:03:43.000Z</time>
      </trkpt>
      <trkpt lat="44.0708" lon="6.85438">
        <ele>887</ele>
        <time>2020-06-05T07:03:44.000Z</time>
      </trkpt>
      <trkpt lat="44.0708" lon="6.85437">
        <ele>887</ele>
        <time>2020-06-05T07:03:45.000Z</time>
      </trkpt>
      <trkpt lat="44.0708" lon="6.85436">
        <ele>887</ele>
        <time>2020-06-05T07:03:46.000Z</time>
      </trkpt>
      <trkpt lat="44.0708" lon="6.85435">
        <ele>887</ele>
        <time>2020-06-05T07:03:47.000Z</time>
      </trkpt>
      <trkpt lat="44.0708" lon="6.85434">
        <ele>887</ele>
        <time>2020-06-05T07:03:48.000Z</time>
      </trkpt>
      <trkpt lat="44.0708" lon="6.85432">
        <ele>887</ele>
        <time>2020-06-05T07:03:49.000Z</time>
      </trkpt>
      <trkpt lat="44.07079" lon="6.85431">
        <ele>887</ele>
        <time>2020-06-05T07:03:50.000Z</time>
      </trkpt>
      <trkpt lat="44.07079" lon="6.8543">
        <ele>887</ele>
        <time>2020-06-05T07:03:51.000Z</time>
      </trkpt>
      <trkpt lat="44.07078" lon="6.85429">
        <ele>887</ele>
        <time>2020-06-05T07:03:52.000Z</time>
      </trkpt>
      <trkpt lat="44.07078" lon="6.85428">
        <ele>888</ele>
        <time>2020-06-05T07:03:53.000Z</time>
      </trkpt>
      <trkpt lat="44.07078" lon="6.85426">
        <ele>888</ele>
        <time>2020-06-05T07:03:54.000Z</time>
      </trkpt>
      <trkpt lat="44.07077" lon="6.85425">
        <ele>888</ele>
        <time>2020-06-05T07:03:55.000Z</time>
      </trkpt>
      <trkpt lat="44.07076" lon="6.85423">
        <ele>888</ele>
        <time>2020-06-05T07:03:56.000Z</time>
      </trkpt>
      <trkpt lat="44.07076" lon="6.85422">
        <ele>888</ele>
        <time>2020-06-05T07:03:57.000Z</time>
      </trkpt>
      <trkpt lat="44.07076" lon="6.85421">
        <ele>888</ele>
        <time>2020-06-05T07:03:58.000Z</time>
      </trkpt>
      <trkpt lat="44.07075" lon="6.85419">
        <ele>888</ele>
        <time>2020-06-05T07:03:59.000Z</time>
      </trkpt>
      <trkpt lat="44.07075" lon="6.85418">
        <ele>888</ele>
        <time>2020-06-05T07:04:00.000Z</time>
      </trkpt>
      <trkpt lat="44.07075" lon="6.85416">
        <ele>888</ele>
        <time>2020-06-05T07:04:01.000Z</time>
      </trkpt>
      <trkpt lat="44.07074" lon="6.85415">
        <ele>888</ele>
        <time>2020-06-05T07:04:02.000Z</time>
      </trkpt>
      <trkpt lat="44.07074" lon="6.85414">
        <ele>888</ele>
        <time>2020-06-05T07:04:03.000Z</time>
      </trkpt>
      <trkpt lat="44.07073" lon="6.85412">
        <ele>888</ele>
        <time>2020-06-05T07:04:04.000Z</time>
      </trkpt>
      <trkpt lat="44.07073" lon="6.85411">
        <ele>888</ele>
        <time>2020-06-05T07:04:05.000Z</time>
      </trkpt>
      <trkpt lat="44.07073" lon="6.8541">
        <ele>888</ele>
        <time>2020-06-05T07:04:06.000Z</time>
      </trkpt>
      <trkpt lat="44.07072" lon="6.85409">
        <ele>888</ele>
        <time>2020-06-05T07:04:07.000Z</time>
      </trkpt>
      <trkpt lat="44.07072" lon="6.85408">
        <ele>888</ele>
        <time>2020-06-05T07:04:08.000Z</time>
      </trkpt>
      <trkpt lat="44.07071" lon="6.85406">
        <ele>888</ele>
        <time>2020-06-05T07:04:09.000Z</time>
      </trkpt>
      <trkpt lat="44.07071" lon="6.85405">
        <ele>888</ele>
        <time>2020-06-05T07:04:10.000Z</time>
      </trkpt>
      <trkpt lat="44.0707" lon="6.85404">
        <ele>888</ele>
        <time>2020-06-05T07:04:11.000Z</time>
      </trkpt>
      <trkpt lat="44.0707" lon="6.85403">
        <ele>888</ele>
        <time>2020-06-05T07:04:12.000Z</time>
      </trkpt>
      <trkpt lat="44.07069" lon="6.85402">
        <ele>888</ele>
        <time>2020-06-05T07:04:13.000Z</time>
      </trkpt>
      <trkpt lat="44.07068" lon="6.85401">
        <ele>888</ele>
        <time>2020-06-05T07:04:14.000Z</time>
      </trkpt>
      <trkpt lat="44.07068" lon="6.854">
        <ele>888</ele>
        <time>2020-06-05T07:04:15.000Z</time>
      </trkpt>
      <trkpt lat="44.07067" lon="6.85399">
        <ele>888</ele>
        <time>2020-06-05T07:04:16.000Z</time>
      </trkpt>
      <trkpt lat="44.07067" lon="6.85398">
        <ele>888</ele>
        <time>2020-06-05T07:04:17.000Z</time>
      </trkpt>
      <trkpt lat="44.07066" lon="6.85396">
        <ele>888</ele>
        <time>2020-06-05T07:04:18.000Z</time>
      </trkpt>
      <trkpt lat="44.07065" lon="6.85394">
        <ele>888</ele>
        <time>2020-06-05T07:04:19.000Z</time>
      </trkpt>
      <trkpt lat="44.07065" lon="6.85393">
        <ele>889</ele>
        <time>2020-06-05T07:04:20.000Z</time>
      </trkpt>
      <trkpt lat="44.07065" lon="6.85392">
        <ele>889</ele>
        <time>2020-06-05T07:04:21.000Z</time>
      </trkpt>
      <trkpt lat="44.07064" lon="6.8539">
        <ele>889</ele>
        <time>2020-06-05T07:04:22.000Z</time>
      </trkpt>
      <trkpt lat="44.07064" lon="6.85389">
        <ele>889</ele>
        <time>2020-06-05T07:04:23.000Z</time>
      </trkpt>
      <trkpt lat="44.07064" lon="6.85388">
        <ele>889</ele>
        <time>2020-06-05T07:04:24.000Z</time>
      </trkpt>
      <trkpt lat="44.07063" lon="6.85386">
        <ele>889</ele>
        <time>2020-06-05T07:04:25.000Z</time>
      </trkpt>
      <trkpt lat="44.07063" lon="6.85385">
        <ele>889</ele>
        <time>2020-06-05T07:04:26.000Z</time>
      </trkpt>
      <trkpt lat="44.07062" lon="6.85384">
        <ele>889</ele>
        <time>2020-06-05T07:04:27.000Z</time>
      </trkpt>
      <trkpt lat="44.07062" lon="6.85383">
        <ele>889</ele>
        <time>2020-06-05T07:04:28.000Z</time>
      </trkpt>
      <trkpt lat="44.07061" lon="6.85381">
        <ele>889</ele>
        <time>2020-06-05T07:04:29.000Z</time>
      </trkpt>
      <trkpt lat="44.07061" lon="6.8538">
        <ele>889</ele>
        <time>2020-06-05T07:04:30.000Z</time>
      </trkpt>
      <trkpt lat="44.0706" lon="6.85379">
        <ele>889</ele>
        <time>2020-06-05T07:04:31.000Z</time>
      </trkpt>
      <trkpt lat="44.0706" lon="6.85377">
        <ele>889</ele>
        <time>2020-06-05T07:04:32.000Z</time>
      </trkpt>
      <trkpt lat="44.07059" lon="6.85376">
        <ele>889</ele>
        <time>2020-06-05T07:04:33.000Z</time>
      </trkpt>
      <trkpt lat="44.07058" lon="6.85374">
        <ele>889</ele>
        <time>2020-06-05T07:04:34.000Z</time>
      </trkpt>
      <trkpt lat="44.07058" lon="6.85373">
        <ele>889</ele>
        <time>2020-06-05T07:04:35.000Z</time>
      </trkpt>
      <trkpt lat="44.07057" lon="6.85372">
        <ele>889</ele>
        <time>2020-06-05T07:04:36.000Z</time>
      </trkpt>
      <trkpt lat="44.07056" lon="6.85371">
        <ele>889</ele>
        <time>2020-06-05T07:04:37.000Z</time>
      </trkpt>
      <trkpt lat="44.07056" lon="6.8537">
        <ele>889</ele>
        <time>2020-06-05T07:04:38.000Z</time>
      </trkpt>
      <trkpt lat="44.07055" lon="6.85369">
        <ele>889</ele>
        <time>2020-06-05T07:04:39.000Z</time>
      </trkpt>
      <trkpt lat="44.07054" lon="6.85368">
        <ele>889</ele>
        <time>2020-06-05T07:04:40.000Z</time>
      </trkpt>
      <trkpt lat="44.07053" lon="6.85367">
        <ele>889</ele>
        <time>2020-06-05T07:04:41.000Z</time>
      </trkpt>
      <trkpt lat="44.07052" lon="6.85366">
        <ele>889</ele>
        <time>2020-06-05T07:04:42.000Z</time>
      </trkpt>
      <trkpt lat="44.07051" lon="6.85365">
        <ele>889</ele>
        <time>2020-06-05T07:04:43.000Z</time>
      </trkpt>
      <trkpt lat="44.0705" lon="6.85364">
        <ele>889</ele>
        <time>2020-06-05T07:04:44.000Z</time>
      </trkpt>
      <trkpt lat="44.07049" lon="6.85363">
        <ele>889</ele>
        <time>2020-06-05T07:04:45.000Z</time>
      </trkpt>
      <trkpt lat="44.07048" lon="6.85362">
        <ele>889</ele>
        <time>2020-06-05T07:04:46.000Z</time>
      </trkpt>
      <trkpt lat="44.07047" lon="6.85361">
        <ele>889</ele>
        <time>2020-06-05T07:04:47.000Z</time>
      </trkpt>
      <trkpt lat="44.07046" lon="6.8536">
        <ele>889</ele>
        <time>2020-06-05T07:04:48.000Z</time>
      </trkpt>
      <trkpt lat="44.07046" lon="6.85359">
        <ele>889</ele>
        <time>2020-06-05T07:04:49.000Z</time>
      </trkpt>
      <trkpt lat="44.07045" lon="6.85358">
        <ele>889</ele>
        <time>2020-06-05T07:04:50.000Z</time>
      </trkpt>
      <trkpt lat="44.07044" lon="6.85357">
        <ele>889</ele>
        <time>2020-06-05T07:04:51.000Z</time>
      </trkpt>
      <trkpt lat="44.07043" lon="6.85356">
        <ele>889</ele>
        <time>2020-06-05T07:04:52.000Z</time>
      </trkpt>
      <trkpt lat="44.07042" lon="6.85355">
        <ele>889</ele>
        <time>2020-06-05T07:04:53.000Z</time>
      </trkpt>
      <trkpt lat="44.07042" lon="6.85353">
        <ele>889</ele>
        <time>2020-06-05T07:04:54.000Z</time>
      </trkpt>
      <trkpt lat="44.07041" lon="6.85352">
        <ele>890</ele>
        <time>2020-06-05T07:04:55.000Z</time>
      </trkpt>
      <trkpt lat="44.0704" lon="6.8535">
        <ele>890</ele>
        <time>2020-06-05T07:04:56.000Z</time>
      </trkpt>
      <trkpt lat="44.07039" lon="6.85349">
        <ele>890</ele>
        <time>2020-06-05T07:04:57.000Z</time>
      </trkpt>
      <trkpt lat="44.07039" lon="6.85347">
        <ele>890</ele>
        <time>2020-06-05T07:04:58.000Z</time>
      </trkpt>
      <trkpt lat="44.07039" lon="6.85346">
        <ele>890</ele>
        <time>2020-06-05T07:04:59.000Z</time>
      </trkpt>
      <trkpt lat="44.07039" lon="6.85344">
        <ele>890</ele>
        <time>2020-06-05T07:05:00.000Z</time>
      </trkpt>
      <trkpt lat="44.07039" lon="6.85343">
        <ele>890</ele>
        <time>2020-06-05T07:05:01.000Z</time>
      </trkpt>
      <trkpt lat="44.07039" lon="6.85342">
        <ele>890</ele>
        <time>2020-06-05T07:05:02.000Z</time>
      </trkpt>
      <trkpt lat="44.07039" lon="6.85341">
        <ele>890</ele>
        <time>2020-06-05T07:05:03.000Z</time>
      </trkpt>
      <trkpt lat="44.07039" lon="6.85339">
        <ele>890</ele>
        <time>2020-06-05T07:05:04.000Z</time>
      </trkpt>
      <trkpt lat="44.07038" lon="6.85338">
        <ele>890</ele>
        <time>2020-06-05T07:05:05.000Z</time>
      </trkpt>
      <trkpt lat="44.07038" lon="6.85338">
        <ele>890</ele>
        <time>2020-06-05T07:05:06.000Z</time>
      </trkpt>
      <trkpt lat="44.07037" lon="6.85337">
        <ele>890</ele>
        <time>2020-06-05T07:05:07.000Z</time>
      </trkpt>
      <trkpt lat="44.07037" lon="6.85336">
        <ele>890</ele>
        <time>2020-06-05T07:05:08.000Z</time>
      </trkpt>
      <trkpt lat="44.07036" lon="6.85336">
        <ele>890</ele>
        <time>2020-06-05T07:05:09.000Z</time>
      </trkpt>
      <trkpt lat="44.07035" lon="6.85335">
        <ele>890</ele>
        <time>2020-06-05T07:05:10.000Z</time>
      </trkpt>
      <trkpt lat="44.07034" lon="6.85334">
        <ele>890</ele>
        <time>2020-06-05T07:05:11.000Z</time>
      </trkpt>
      <trkpt lat="44.07033" lon="6.85334">
        <ele>890</ele>
        <time>2020-06-05T07:05:12.000Z</time>
      </trkpt>
      <trkpt lat="44.07032" lon="6.85333">
        <ele>890</ele>
        <time>2020-06-05T07:05:13.000Z</time>
      </trkpt>
      <trkpt lat="44.07031" lon="6.85332">
        <ele>890</ele>
        <time>2020-06-05T07:05:14.000Z</time>
      </trkpt>
      <trkpt lat="44.0703" lon="6.85332">
        <ele>890</ele>
        <time>2020-06-05T07:05:15.000Z</time>
      </trkpt>
      <trkpt lat="44.07029" lon="6.85332">
        <ele>890</ele>
        <time>2020-06-05T07:05:16.000Z</time>
      </trkpt>
      <trkpt lat="44.07029" lon="6.85331">
        <ele>890</ele>
        <time>2020-06-05T07:05:17.000Z</time>
      </trkpt>
      <trkpt lat="44.07028" lon="6.85331">
        <ele>890</ele>
        <time>2020-06-05T07:05:18.000Z</time>
      </trkpt>
      <trkpt lat="44.07027" lon="6.8533">
        <ele>890</ele>
        <time>2020-06-05T07:05:19.000Z</time>
      </trkpt>
      <trkpt lat="44.07027" lon="6.8533">
        <ele>890</ele>
        <time>2020-06-05T07:05:20.000Z</time>
      </trkpt>
      <trkpt lat="44.07026" lon="6.85329">
        <ele>890</ele>
        <time>2020-06-05T07:05:21.000Z</time>
      </trkpt>
      <trkpt lat="44.07025" lon="6.85329">
        <ele>890</ele>
        <time>2020-06-05T07:05:22.000Z</time>
      </trkpt>
      <trkpt lat="44.07024" lon="6.85329">
        <ele>890</ele>
        <time>2020-06-05T07:05:23.000Z</time>
      </trkpt>
      <trkpt lat="44.07023" lon="6.85328">
        <ele>890</ele>
        <time>2020-06-05T07:05:24.000Z</time>
      </trkpt>
      <trkpt lat="44.07022" lon="6.85327">
        <ele>890</ele>
        <time>2020-06-05T07:05:25.000Z</time>
      </trkpt>
      <trkpt lat="44.07021" lon="6.85326">
        <ele>890</ele>
        <time>2020-06-05T07:05:26.000Z</time>
      </trkpt>
      <trkpt lat="44.0702" lon="6.85325">
        <ele>890</ele>
        <time>2020-06-05T07:05:27.000Z</time>
      </trkpt>
      <trkpt lat="44.07019" lon="6.85324">
        <ele>889</ele>
        <time>2020-06-05T07:05:28.000Z</time>
      </trkpt>
      <trkpt lat="44.07018" lon="6.85324">
        <ele>889</ele>
        <time>2020-06-05T07:05:29.000Z</time>
      </trkpt>
      <trkpt lat="44.07017" lon="6.85323">
        <ele>889</ele>
        <time>2020-06-05T07:05:30.000Z</time>
      </trkpt>
      <trkpt lat="44.07016" lon="6.85322">
        <ele>889</ele>
        <time>2020-06-05T07:05:31.000Z</time>
      </trkpt>
      <trkpt lat="44.07015" lon="6.85321">
        <ele>889</ele>
        <time>2020-06-05T07:05:32.000Z</time>
      </trkpt>
      <trkpt lat="44.07015" lon="6.8532">
        <ele>889</ele>
        <time>2020-06-05T07:05:33.000Z</time>
      </trkpt>
      <trkpt lat="44.07014" lon="6.85319">
        <ele>889</ele>
        <time>2020-06-05T07:05:34.000Z</time>
      </trkpt>
      <trkpt lat="44.07013" lon="6.85318">
        <ele>889</ele>
        <time>2020-06-05T07:05:35.000Z</time>
      </trkpt>
      <trkpt lat="44.07012" lon="6.85317">
        <ele>889</ele>
        <time>2020-06-05T07:05:36.000Z</time>
      </trkpt>
      <trkpt lat="44.07011" lon="6.85317">
        <ele>889</ele>
        <time>2020-06-05T07:05:37.000Z</time>
      </trkpt>
      <trkpt lat="44.0701" lon="6.85316">
        <ele>888</ele>
        <time>2020-06-05T07:05:38.000Z</time>
      </trkpt>
      <trkpt lat="44.0701" lon="6.85316">
        <ele>888</ele>
        <time>2020-06-05T07:05:39.000Z</time>
      </trkpt>
      <trkpt lat="44.07009" lon="6.85315">
        <ele>888</ele>
        <time>2020-06-05T07:05:40.000Z</time>
      </trkpt>
      <trkpt lat="44.07008" lon="6.85315">
        <ele>888</ele>
        <time>2020-06-05T07:05:41.000Z</time>
      </trkpt>
      <trkpt lat="44.07006" lon="6.85315">
        <ele>888</ele>
        <time>2020-06-05T07:05:42.000Z</time>
      </trkpt>
      <trkpt lat="44.07005" lon="6.85315">
        <ele>888</ele>
        <time>2020-06-05T07:05:43.000Z</time>
      </trkpt>
      <trkpt lat="44.07004" lon="6.85314">
        <ele>888</ele>
        <time>2020-06-05T07:05:44.000Z</time>
      </trkpt>
      <trkpt lat="44.07003" lon="6.85314">
        <ele>888</ele>
        <time>2020-06-05T07:05:45.000Z</time>
      </trkpt>
      <trkpt lat="44.07002" lon="6.85314">
        <ele>888</ele>
        <time>2020-06-05T07:05:46.000Z</time>
      </trkpt>
      <trkpt lat="44.07001" lon="6.85313">
        <ele>888</ele>
        <time>2020-06-05T07:05:47.000Z</time>
      </trkpt>
      <trkpt lat="44.07" lon="6.85313">
        <ele>888</ele>
        <time>2020-06-05T07:05:48.000Z</time>
      </trkpt>
      <trkpt lat="44.06999" lon="6.85313">
        <ele>888</ele>
        <time>2020-06-05T07:05:49.000Z</time>
      </trkpt>
      <trkpt lat="44.06998" lon="6.85312">
        <ele>888</ele>
        <time>2020-06-05T07:05:50.000Z</time>
      </trkpt>
      <trkpt lat="44.06997" lon="6.85312">
        <ele>888</ele>
        <time>2020-06-05T07:05:51.000Z</time>
      </trkpt>
      <trkpt lat="44.06996" lon="6.85312">
        <ele>888</ele>
        <time>2020-06-05T07:05:52.000Z</time>
      </trkpt>
      <trkpt lat="44.06995" lon="6.85311">
        <ele>888</ele>
        <time>2020-06-05T07:05:53.000Z</time>
      </trkpt>
      <trkpt lat="44.06994" lon="6.85311">
        <ele>888</ele>
        <time>2020-06-05T07:05:54.000Z</time>
      </trkpt>
      <trkpt lat="44.06993" lon="6.8531">
        <ele>888</ele>
        <time>2020-06-05T07:05:55.000Z</time>
      </trkpt>
      <trkpt lat="44.06993" lon="6.85309">
        <ele>887</ele>
        <time>2020-06-05T07:05:56.000Z</time>
      </trkpt>
      <trkpt lat="44.06992" lon="6.85309">
        <ele>887</ele>
        <time>2020-06-05T07:05:57.000Z</time>
      </trkpt>
      <trkpt lat="44.06991" lon="6.85308">
        <ele>887</ele>
        <time>2020-06-05T07:05:58.000Z</time>
      </trkpt>
      <trkpt lat="44.06991" lon="6.85308">
        <ele>887</ele>
        <time>2020-06-05T07:05:59.000Z</time>
      </trkpt>
      <trkpt lat="44.0699" lon="6.85307">
        <ele>887</ele>
        <time>2020-06-05T07:06:00.000Z</time>
      </trkpt>
      <trkpt lat="44.06989" lon="6.85306">
        <ele>887</ele>
        <time>2020-06-05T07:06:01.000Z</time>
      </trkpt>
      <trkpt lat="44.06989" lon="6.85306">
        <ele>887</ele>
        <time>2020-06-05T07:06:02.000Z</time>
      </trkpt>
      <trkpt lat="44.06988" lon="6.85305">
        <ele>887</ele>
        <time>2020-06-05T07:06:03.000Z</time>
      </trkpt>
      <trkpt lat="44.06987" lon="6.85304">
        <ele>887</ele>
        <time>2020-06-05T07:06:04.000Z</time>
      </trkpt>
      <trkpt lat="44.06986" lon="6.85303">
        <ele>886</ele>
        <time>2020-06-05T07:06:05.000Z</time>
      </trkpt>
      <trkpt lat="44.06986" lon="6.85303">
        <ele>886</ele>
        <time>2020-06-05T07:06:06.000Z</time>
      </trkpt>
      <trkpt lat="44.06985" lon="6.85302">
        <ele>886</ele>
        <time>2020-06-05T07:06:07.000Z</time>
      </trkpt>
      <trkpt lat="44.06985" lon="6.85301">
        <ele>886</ele>
        <time>2020-06-05T07:06:08.000Z</time>
      </trkpt>
      <trkpt lat="44.06984" lon="6.85299">
        <ele>886</ele>
        <time>2020-06-05T07:06:09.000Z</time>
      </trkpt>
      <trkpt lat="44.06984" lon="6.85298">
        <ele>886</ele>
        <time>2020-06-05T07:06:10.000Z</time>
      </trkpt>
      <trkpt lat="44.06983" lon="6.85297">
        <ele>886</ele>
        <time>2020-06-05T07:06:11.000Z</time>
      </trkpt>
      <trkpt lat="44.06982" lon="6.85296">
        <ele>886</ele>
        <time>2020-06-05T07:06:12.000Z</time>
      </trkpt>
      <trkpt lat="44.06981" lon="6.85296">
        <ele>886</ele>
        <time>2020-06-05T07:06:13.000Z</time>
      </trkpt>
      <trkpt lat="44.06981" lon="6.85295">
        <ele>886</ele>
        <time>2020-06-05T07:06:14.000Z</time>
      </trkpt>
      <trkpt lat="44.0698" lon="6.85295">
        <ele>886</ele>
        <time>2020-06-05T07:06:15.000Z</time>
      </trkpt>
      <trkpt lat="44.06979" lon="6.85294">
        <ele>886</ele>
        <time>2020-06-05T07:06:16.000Z</time>
      </trkpt>
      <trkpt lat="44.06978" lon="6.85293">
        <ele>886</ele>
        <time>2020-06-05T07:06:17.000Z</time>
      </trkpt>
      <trkpt lat="44.06977" lon="6.85293">
        <ele>886</ele>
        <time>2020-06-05T07:06:18.000Z</time>
      </trkpt>
      <trkpt lat="44.06976" lon="6.85292">
        <ele>886</ele>
        <time>2020-06-05T07:06:19.000Z</time>
      </trkpt>
      <trkpt lat="44.06976" lon="6.85292">
        <ele>886</ele>
        <time>2020-06-05T07:06:20.000Z</time>
      </trkpt>
      <trkpt lat="44.06975" lon="6.85291">
        <ele>886</ele>
        <time>2020-06-05T07:06:21.000Z</time>
      </trkpt>
      <trkpt lat="44.06975" lon="6.85291">
        <ele>886</ele>
        <time>2020-06-05T07:06:22.000Z</time>
      </trkpt>
      <trkpt lat="44.06974" lon="6.85291">
        <ele>886</ele>
        <time>2020-06-05T07:06:23.000Z</time>
      </trkpt>
      <trkpt lat="44.06973" lon="6.85291">
        <ele>886</ele>
        <time>2020-06-05T07:06:24.000Z</time>
      </trkpt>
      <trkpt lat="44.06973" lon="6.8529">
        <ele>886</ele>
        <time>2020-06-05T07:06:25.000Z</time>
      </trkpt>
      <trkpt lat="44.06972" lon="6.8529">
        <ele>886</ele>
        <time>2020-06-05T07:06:26.000Z</time>
      </trkpt>
      <trkpt lat="44.06971" lon="6.8529">
        <ele>886</ele>
        <time>2020-06-05T07:06:27.000Z</time>
      </trkpt>
      <trkpt lat="44.0697" lon="6.8529">
        <ele>886</ele>
        <time>2020-06-05T07:06:28.000Z</time>
      </trkpt>
      <trkpt lat="44.06969" lon="6.8529">
        <ele>886</ele>
        <time>2020-06-05T07:06:29.000Z</time>
      </trkpt>
      <trkpt lat="44.06968" lon="6.85289">
        <ele>886</ele>
        <time>2020-06-05T07:06:30.000Z</time>
      </trkpt>
      <trkpt lat="44.06967" lon="6.85289">
        <ele>886</ele>
        <time>2020-06-05T07:06:31.000Z</time>
      </trkpt>
      <trkpt lat="44.06966" lon="6.85289">
        <ele>886</ele>
        <time>2020-06-05T07:06:32.000Z</time>
      </trkpt>
      <trkpt lat="44.06964" lon="6.85288">
        <ele>886</ele>
        <time>2020-06-05T07:06:33.000Z</time>
      </trkpt>
      <trkpt lat="44.06963" lon="6.85287">
        <ele>886</ele>
        <time>2020-06-05T07:06:34.000Z</time>
      </trkpt>
      <trkpt lat="44.06963" lon="6.85287">
        <ele>886</ele>
        <time>2020-06-05T07:06:35.000Z</time>
      </trkpt>
      <trkpt lat="44.06962" lon="6.85286">
        <ele>886</ele>
        <time>2020-06-05T07:06:36.000Z</time>
      </trkpt>
      <trkpt lat="44.06961" lon="6.85285">
        <ele>886</ele>
        <time>2020-06-05T07:06:37.000Z</time>
      </trkpt>
      <trkpt lat="44.06959" lon="6.85285">
        <ele>885</ele>
        <time>2020-06-05T07:06:38.000Z</time>
      </trkpt>
      <trkpt lat="44.06958" lon="6.85284">
        <ele>885</ele>
        <time>2020-06-05T07:06:39.000Z</time>
      </trkpt>
      <trkpt lat="44.06957" lon="6.85283">
        <ele>885</ele>
        <time>2020-06-05T07:06:40.000Z</time>
      </trkpt>
      <trkpt lat="44.06956" lon="6.85282">
        <ele>885</ele>
        <time>2020-06-05T07:06:41.000Z</time>
      </trkpt>
      <trkpt lat="44.06956" lon="6.85281">
        <ele>885</ele>
        <time>2020-06-05T07:06:42.000Z</time>
      </trkpt>
      <trkpt lat="44.06955" lon="6.8528">
        <ele>885</ele>
        <time>2020-06-05T07:06:43.000Z</time>
      </trkpt>
      <trkpt lat="44.06954" lon="6.8528">
        <ele>884</ele>
        <time>2020-06-05T07:06:44.000Z</time>
      </trkpt>
      <trkpt lat="44.06953" lon="6.85279">
        <ele>884</ele>
        <time>2020-06-05T07:06:45.000Z</time>
      </trkpt>
      <trkpt lat="44.06953" lon="6.85278">
        <ele>884</ele>
        <time>2020-06-05T07:06:46.000Z</time>
      </trkpt>
      <trkpt lat="44.06952" lon="6.85277">
        <ele>884</ele>
        <time>2020-06-05T07:06:47.000Z</time>
      </trkpt>
      <trkpt lat="44.06951" lon="6.85276">
        <ele>884</ele>
        <time>2020-06-05T07:06:48.000Z</time>
      </trkpt>
      <trkpt lat="44.0695" lon="6.85276">
        <ele>883</ele>
        <time>2020-06-05T07:06:49.000Z</time>
      </trkpt>
      <trkpt lat="44.06949" lon="6.85275">
        <ele>883</ele>
        <time>2020-06-05T07:06:50.000Z</time>
      </trkpt>
      <trkpt lat="44.06948" lon="6.85274">
        <ele>883</ele>
        <time>2020-06-05T07:06:51.000Z</time>
      </trkpt>
      <trkpt lat="44.06947" lon="6.85273">
        <ele>883</ele>
        <time>2020-06-05T07:06:52.000Z</time>
      </trkpt>
      <trkpt lat="44.06946" lon="6.85272">
        <ele>883</ele>
        <time>2020-06-05T07:06:53.000Z</time>
      </trkpt>
      <trkpt lat="44.06945" lon="6.85271">
        <ele>882</ele>
        <time>2020-06-05T07:06:54.000Z</time>
      </trkpt>
      <trkpt lat="44.06944" lon="6.85271">
        <ele>882</ele>
        <time>2020-06-05T07:06:55.000Z</time>
      </trkpt>
      <trkpt lat="44.06943" lon="6.8527">
        <ele>882</ele>
        <time>2020-06-05T07:06:56.000Z</time>
      </trkpt>
      <trkpt lat="44.06942" lon="6.85269">
        <ele>882</ele>
        <time>2020-06-05T07:06:57.000Z</time>
      </trkpt>
      <trkpt lat="44.06941" lon="6.85268">
        <ele>881</ele>
        <time>2020-06-05T07:06:58.000Z</time>
      </trkpt>
      <trkpt lat="44.0694" lon="6.85267">
        <ele>881</ele>
        <time>2020-06-05T07:06:59.000Z</time>
      </trkpt>
      <trkpt lat="44.06939" lon="6.85266">
        <ele>881</ele>
        <time>2020-06-05T07:07:00.000Z</time>
      </trkpt>
      <trkpt lat="44.06939" lon="6.85265">
        <ele>881</ele>
        <time>2020-06-05T07:07:01.000Z</time>
      </trkpt>
      <trkpt lat="44.06938" lon="6.85265">
        <ele>881</ele>
        <time>2020-06-05T07:07:02.000Z</time>
      </trkpt>
      <trkpt lat="44.06937" lon="6.85264">
        <ele>881</ele>
        <time>2020-06-05T07:07:03.000Z</time>
      </trkpt>
      <trkpt lat="44.06936" lon="6.85264">
        <ele>881</ele>
        <time>2020-06-05T07:07:04.000Z</time>
      </trkpt>
      <trkpt lat="44.06935" lon="6.85263">
        <ele>881</ele>
        <time>2020-06-05T07:07:05.000Z</time>
      </trkpt>
      <trkpt lat="44.06935" lon="6.85263">
        <ele>881</ele>
        <time>2020-06-05T07:07:06.000Z</time>
      </trkpt>
      <trkpt lat="44.06934" lon="6.85262">
        <ele>881</ele>
        <time>2020-06-05T07:07:07.000Z</time>
      </trkpt>
      <trkpt lat="44.06933" lon="6.85261">
        <ele>881</ele>
        <time>2020-06-05T07:07:08.000Z</time>
      </trkpt>
      <trkpt lat="44.06933" lon="6.8526">
        <ele>881</ele>
        <time>2020-06-05T07:07:09.000Z</time>
      </trkpt>
      <trkpt lat="44.06933" lon="6.85259">
        <ele>881</ele>
        <time>2020-06-05T07:07:10.000Z</time>
      </trkpt>
      <trkpt lat="44.06932" lon="6.85259">
        <ele>881</ele>
        <time>2020-06-05T07:07:11.000Z</time>
      </trkpt>
      <trkpt lat="44.06932" lon="6.85259">
        <ele>881</ele>
        <time>2020-06-05T07:07:12.000Z</time>
      </trkpt>
      <trkpt lat="44.06932" lon="6.85258">
        <ele>881</ele>
        <time>2020-06-05T07:07:13.000Z</time>
      </trkpt>
      <trkpt lat="44.06932" lon="6.85258">
        <ele>881</ele>
        <time>2020-06-05T07:07:14.000Z</time>
      </trkpt>
      <trkpt lat="44.06931" lon="6.85258">
        <ele>881</ele>
        <time>2020-06-05T07:07:15.000Z</time>
      </trkpt>
      <trkpt lat="44.0693" lon="6.85258">
        <ele>881</ele>
        <time>2020-06-05T07:07:16.000Z</time>
      </trkpt>
      <trkpt lat="44.0693" lon="6.85258">
        <ele>881</ele>
        <time>2020-06-05T07:07:17.000Z</time>
      </trkpt>
      <trkpt lat="44.06929" lon="6.85257">
        <ele>881</ele>
        <time>2020-06-05T07:07:18.000Z</time>
      </trkpt>
      <trkpt lat="44.06928" lon="6.85256">
        <ele>881</ele>
        <time>2020-06-05T07:07:19.000Z</time>
      </trkpt>
      <trkpt lat="44.06928" lon="6.85255">
        <ele>881</ele>
        <time>2020-06-05T07:07:20.000Z</time>
      </trkpt>
      <trkpt lat="44.06927" lon="6.85254">
        <ele>881</ele>
        <time>2020-06-05T07:07:21.000Z</time>
      </trkpt>
      <trkpt lat="44.06926" lon="6.85254">
        <ele>881</ele>
        <time>2020-06-05T07:07:22.000Z</time>
      </trkpt>
      <trkpt lat="44.06925" lon="6.85253">
        <ele>881</ele>
        <time>2020-06-05T07:07:23.000Z</time>
      </trkpt>
      <trkpt lat="44.06925" lon="6.85252">
        <ele>880</ele>
        <time>2020-06-05T07:07:24.000Z</time>
      </trkpt>
      <trkpt lat="44.06924" lon="6.85251">
        <ele>880</ele>
        <time>2020-06-05T07:07:25.000Z</time>
      </trkpt>
      <trkpt lat="44.06923" lon="6.85251">
        <ele>880</ele>
        <time>2020-06-05T07:07:26.000Z</time>
      </trkpt>
      <trkpt lat="44.06923" lon="6.8525">
        <ele>880</ele>
        <time>2020-06-05T07:07:27.000Z</time>
      </trkpt>
      <trkpt lat="44.06922" lon="6.85249">
        <ele>880</ele>
        <time>2020-06-05T07:07:28.000Z</time>
      </trkpt>
      <trkpt lat="44.06921" lon="6.85248">
        <ele>880</ele>
        <time>2020-06-05T07:07:29.000Z</time>
      </trkpt>
      <trkpt lat="44.06921" lon="6.85248">
        <ele>880</ele>
        <time>2020-06-05T07:07:30.000Z</time>
      </trkpt>
      <trkpt lat="44.0692" lon="6.85247">
        <ele>880</ele>
        <time>2020-06-05T07:07:31.000Z</time>
      </trkpt>
      <trkpt lat="44.0692" lon="6.85246">
        <ele>880</ele>
        <time>2020-06-05T07:07:32.000Z</time>
      </trkpt>
      <trkpt lat="44.06919" lon="6.85246">
        <ele>880</ele>
        <time>2020-06-05T07:07:33.000Z</time>
      </trkpt>
      <trkpt lat="44.06918" lon="6.85245">
        <ele>880</ele>
        <time>2020-06-05T07:07:34.000Z</time>
      </trkpt>
      <trkpt lat="44.06917" lon="6.85244">
        <ele>880</ele>
        <time>2020-06-05T07:07:35.000Z</time>
      </trkpt>
      <trkpt lat="44.06917" lon="6.85242">
        <ele>880</ele>
        <time>2020-06-05T07:07:36.000Z</time>
      </trkpt>
      <trkpt lat="44.06916" lon="6.85241">
        <ele>880</ele>
        <time>2020-06-05T07:07:37.000Z</time>
      </trkpt>
      <trkpt lat="44.06915" lon="6.8524">
        <ele>880</ele>
        <time>2020-06-05T07:07:38.000Z</time>
      </trkpt>
      <trkpt lat="44.06915" lon="6.85239">
        <ele>880</ele>
        <time>2020-06-05T07:07:39.000Z</time>
      </trkpt>
      <trkpt lat="44.06914" lon="6.85238">
        <ele>880</ele>
        <time>2020-06-05T07:07:40.000Z</time>
      </trkpt>
      <trkpt lat="44.06913" lon="6.85238">
        <ele>880</ele>
        <time>2020-06-05T07:07:41.000Z</time>
      </trkpt>
      <trkpt lat="44.06913" lon="6.85237">
        <ele>880</ele>
        <time>2020-06-05T07:07:42.000Z</time>
      </trkpt>
      <trkpt lat="44.06912" lon="6.85235">
        <ele>880</ele>
        <time>2020-06-05T07:07:43.000Z</time>
      </trkpt>
      <trkpt lat="44.06911" lon="6.85234">
        <ele>880</ele>
        <time>2020-06-05T07:07:44.000Z</time>
      </trkpt>
      <trkpt lat="44.0691" lon="6.85233">
        <ele>880</ele>
        <time>2020-06-05T07:07:45.000Z</time>
      </trkpt>
      <trkpt lat="44.0691" lon="6.85232">
        <ele>880</ele>
        <time>2020-06-05T07:07:46.000Z</time>
      </trkpt>
      <trkpt lat="44.06909" lon="6.85231">
        <ele>880</ele>
        <time>2020-06-05T07:07:47.000Z</time>
      </trkpt>
      <trkpt lat="44.06909" lon="6.8523">
        <ele>880</ele>
        <time>2020-06-05T07:07:48.000Z</time>
      </trkpt>
      <trkpt lat="44.06908" lon="6.85229">
        <ele>880</ele>
        <time>2020-06-05T07:07:49.000Z</time>
      </trkpt>
      <trkpt lat="44.06908" lon="6.85228">
        <ele>880</ele>
        <time>2020-06-05T07:07:50.000Z</time>
      </trkpt>
      <trkpt lat="44.06907" lon="6.85228">
        <ele>880</ele>
        <time>2020-06-05T07:07:51.000Z</time>
      </trkpt>
      <trkpt lat="44.06907" lon="6.85227">
        <ele>880</ele>
        <time>2020-06-05T07:07:52.000Z</time>
      </trkpt>
      <trkpt lat="44.06906" lon="6.85226">
        <ele>880</ele>
        <time>2020-06-05T07:07:53.000Z</time>
      </trkpt>
      <trkpt lat="44.06906" lon="6.85226">
        <ele>879</ele>
        <time>2020-06-05T07:07:54.000Z</time>
      </trkpt>
      <trkpt lat="44.06905" lon="6.85225">
        <ele>879</ele>
        <time>2020-06-05T07:07:55.000Z</time>
      </trkpt>
      <trkpt lat="44.06904" lon="6.85224">
        <ele>879</ele>
        <time>2020-06-05T07:07:56.000Z</time>
      </trkpt>
      <trkpt lat="44.06903" lon="6.85223">
        <ele>879</ele>
        <time>2020-06-05T07:07:57.000Z</time>
      </trkpt>
      <trkpt lat="44.06903" lon="6.85222">
        <ele>879</ele>
        <time>2020-06-05T07:07:58.000Z</time>
      </trkpt>
      <trkpt lat="44.06902" lon="6.85221">
        <ele>879</ele>
        <time>2020-06-05T07:07:59.000Z</time>
      </trkpt>
      <trkpt lat="44.06901" lon="6.8522">
        <ele>879</ele>
        <time>2020-06-05T07:08:00.000Z</time>
      </trkpt>
      <trkpt lat="44.06901" lon="6.8522">
        <ele>879</ele>
        <time>2020-06-05T07:08:01.000Z</time>
      </trkpt>
      <trkpt lat="44.069" lon="6.85219">
        <ele>878</ele>
        <time>2020-06-05T07:08:02.000Z</time>
      </trkpt>
      <trkpt lat="44.069" lon="6.85219">
        <ele>878</ele>
        <time>2020-06-05T07:08:03.000Z</time>
      </trkpt>
      <trkpt lat="44.06899" lon="6.85218">
        <ele>878</ele>
        <time>2020-06-05T07:08:04.000Z</time>
      </trkpt>
      <trkpt lat="44.06898" lon="6.85218">
        <ele>878</ele>
        <time>2020-06-05T07:08:05.000Z</time>
      </trkpt>
      <trkpt lat="44.06897" lon="6.85217">
        <ele>878</ele>
        <time>2020-06-05T07:08:06.000Z</time>
      </trkpt>
      <trkpt lat="44.06897" lon="6.85217">
        <ele>877</ele>
        <time>2020-06-05T07:08:07.000Z</time>
      </trkpt>
      <trkpt lat="44.06896" lon="6.85216">
        <ele>877</ele>
        <time>2020-06-05T07:08:08.000Z</time>
      </trkpt>
      <trkpt lat="44.06896" lon="6.85215">
        <ele>877</ele>
        <time>2020-06-05T07:08:09.000Z</time>
      </trkpt>
      <trkpt lat="44.06895" lon="6.85215">
        <ele>877</ele>
        <time>2020-06-05T07:08:10.000Z</time>
      </trkpt>
      <trkpt lat="44.06894" lon="6.85215">
        <ele>876</ele>
        <time>2020-06-05T07:08:11.000Z</time>
      </trkpt>
      <trkpt lat="44.06894" lon="6.85214">
        <ele>876</ele>
        <time>2020-06-05T07:08:12.000Z</time>
      </trkpt>
      <trkpt lat="44.06893" lon="6.85214">
        <ele>876</ele>
        <time>2020-06-05T07:08:13.000Z</time>
      </trkpt>
      <trkpt lat="44.06892" lon="6.85214">
        <ele>876</ele>
        <time>2020-06-05T07:08:14.000Z</time>
      </trkpt>
      <trkpt lat="44.06892" lon="6.85214">
        <ele>876</ele>
        <time>2020-06-05T07:08:15.000Z</time>
      </trkpt>
      <trkpt lat="44.06891" lon="6.85213">
        <ele>875</ele>
        <time>2020-06-05T07:08:16.000Z</time>
      </trkpt>
      <trkpt lat="44.06891" lon="6.85213">
        <ele>875</ele>
        <time>2020-06-05T07:08:17.000Z</time>
      </trkpt>
      <trkpt lat="44.0689" lon="6.85213">
        <ele>875</ele>
        <time>2020-06-05T07:08:18.000Z</time>
      </trkpt>
      <trkpt lat="44.0689" lon="6.85213">
        <ele>875</ele>
        <time>2020-06-05T07:08:19.000Z</time>
      </trkpt>
      <trkpt lat="44.06889" lon="6.85213">
        <ele>875</ele>
        <time>2020-06-05T07:08:20.000Z</time>
      </trkpt>
      <trkpt lat="44.06889" lon="6.85213">
        <ele>875</ele>
        <time>2020-06-05T07:08:21.000Z</time>
      </trkpt>
      <trkpt lat="44.06888" lon="6.85213">
        <ele>875</ele>
        <time>2020-06-05T07:08:22.000Z</time>
      </trkpt>
      <trkpt lat="44.06888" lon="6.85213">
        <ele>875</ele>
        <time>2020-06-05T07:08:23.000Z</time>
      </trkpt>
      <trkpt lat="44.06888" lon="6.85213">
        <ele>875</ele>
        <time>2020-06-05T07:08:24.000Z</time>
      </trkpt>
      <trkpt lat="44.06887" lon="6.85213">
        <ele>875</ele>
        <time>2020-06-05T07:08:25.000Z</time>
      </trkpt>
      <trkpt lat="44.06887" lon="6.85213">
        <ele>875</ele>
        <time>2020-06-05T07:08:26.000Z</time>
      </trkpt>
      <trkpt lat="44.06886" lon="6.85213">
        <ele>875</ele>
        <time>2020-06-05T07:08:27.000Z</time>
      </trkpt>
      <trkpt lat="44.06885" lon="6.85213">
        <ele>875</ele>
        <time>2020-06-05T07:08:28.000Z</time>
      </trkpt>
      <trkpt lat="44.06885" lon="6.85213">
        <ele>875</ele>
        <time>2020-06-05T07:08:29.000Z</time>
      </trkpt>
      <trkpt lat="44.06884" lon="6.85213">
        <ele>875</ele>
        <time>2020-06-05T07:08:30.000Z</time>
      </trkpt>
      <trkpt lat="44.06883" lon="6.85213">
        <ele>875</ele>
        <time>2020-06-05T07:08:31.000Z</time>
      </trkpt>
      <trkpt lat="44.06882" lon="6.85213">
        <ele>875</ele>
        <time>2020-06-05T07:08:32.000Z</time>
      </trkpt>
      <trkpt lat="44.06882" lon="6.85213">
        <ele>875</ele>
        <time>2020-06-05T07:08:33.000Z</time>
      </trkpt>
      <trkpt lat="44.06881" lon="6.85213">
        <ele>875</ele>
        <time>2020-06-05T07:08:34.000Z</time>
      </trkpt>
      <trkpt lat="44.0688" lon="6.85212">
        <ele>875</ele>
        <time>2020-06-05T07:08:35.000Z</time>
      </trkpt>
      <trkpt lat="44.06879" lon="6.85212">
        <ele>875</ele>
        <time>2020-06-05T07:08:36.000Z</time>
      </trkpt>
      <trkpt lat="44.06879" lon="6.85212">
        <ele>875</ele>
        <time>2020-06-05T07:08:37.000Z</time>
      </trkpt>
      <trkpt lat="44.06878" lon="6.85212">
        <ele>875</ele>
        <time>2020-06-05T07:08:38.000Z</time>
      </trkpt>
      <trkpt lat="44.06877" lon="6.85212">
        <ele>875</ele>
        <time>2020-06-05T07:08:39.000Z</time>
      </trkpt>
      <trkpt lat="44.06876" lon="6.85212">
        <ele>874</ele>
        <time>2020-06-05T07:08:40.000Z</time>
      </trkpt>
      <trkpt lat="44.06875" lon="6.85211">
        <ele>874</ele>
        <time>2020-06-05T07:08:41.000Z</time>
      </trkpt>
      <trkpt lat="44.06875" lon="6.85211">
        <ele>874</ele>
        <time>2020-06-05T07:08:42.000Z</time>
      </trkpt>
      <trkpt lat="44.06874" lon="6.85211">
        <ele>874</ele>
        <time>2020-06-05T07:08:43.000Z</time>
      </trkpt>
      <trkpt lat="44.06873" lon="6.8521">
        <ele>874</ele>
        <time>2020-06-05T07:08:44.000Z</time>
      </trkpt>
      <trkpt lat="44.06872" lon="6.8521">
        <ele>874</ele>
        <time>2020-06-05T07:08:45.000Z</time>
      </trkpt>
      <trkpt lat="44.06871" lon="6.85209">
        <ele>874</ele>
        <time>2020-06-05T07:08:46.000Z</time>
      </trkpt>
      <trkpt lat="44.0687" lon="6.85209">
        <ele>874</ele>
        <time>2020-06-05T07:08:47.000Z</time>
      </trkpt>
      <trkpt lat="44.0687" lon="6.85208">
        <ele>874</ele>
        <time>2020-06-05T07:08:48.000Z</time>
      </trkpt>
      <trkpt lat="44.06869" lon="6.85208">
        <ele>874</ele>
        <time>2020-06-05T07:08:49.000Z</time>
      </trkpt>
      <trkpt lat="44.06868" lon="6.85207">
        <ele>874</ele>
        <time>2020-06-05T07:08:50.000Z</time>
      </trkpt>
      <trkpt lat="44.06867" lon="6.85206">
        <ele>874</ele>
        <time>2020-06-05T07:08:51.000Z</time>
      </trkpt>
      <trkpt lat="44.06867" lon="6.85205">
        <ele>873</ele>
        <time>2020-06-05T07:08:52.000Z</time>
      </trkpt>
      <trkpt lat="44.06866" lon="6.85205">
        <ele>873</ele>
        <time>2020-06-05T07:08:53.000Z</time>
      </trkpt>
      <trkpt lat="44.06865" lon="6.85204">
        <ele>873</ele>
        <time>2020-06-05T07:08:54.000Z</time>
      </trkpt>
      <trkpt lat="44.06864" lon="6.85204">
        <ele>873</ele>
        <time>2020-06-05T07:08:55.000Z</time>
      </trkpt>
      <trkpt lat="44.06863" lon="6.85204">
        <ele>873</ele>
        <time>2020-06-05T07:08:56.000Z</time>
      </trkpt>
      <trkpt lat="44.06862" lon="6.85203">
        <ele>873</ele>
        <time>2020-06-05T07:08:57.000Z</time>
      </trkpt>
      <trkpt lat="44.06861" lon="6.85203">
        <ele>873</ele>
        <time>2020-06-05T07:08:58.000Z</time>
      </trkpt>
      <trkpt lat="44.06861" lon="6.85203">
        <ele>873</ele>
        <time>2020-06-05T07:08:59.000Z</time>
      </trkpt>
      <trkpt lat="44.0686" lon="6.85203">
        <ele>873</ele>
        <time>2020-06-05T07:09:00.000Z</time>
      </trkpt>
      <trkpt lat="44.06859" lon="6.85203">
        <ele>873</ele>
        <time>2020-06-05T07:09:01.000Z</time>
      </trkpt>
      <trkpt lat="44.06858" lon="6.85204">
        <ele>873</ele>
        <time>2020-06-05T07:09:02.000Z</time>
      </trkpt>
      <trkpt lat="44.06856" lon="6.85204">
        <ele>873</ele>
        <time>2020-06-05T07:09:03.000Z</time>
      </trkpt>
      <trkpt lat="44.06855" lon="6.85204">
        <ele>873</ele>
        <time>2020-06-05T07:09:04.000Z</time>
      </trkpt>
      <trkpt lat="44.06854" lon="6.85205">
        <ele>873</ele>
        <time>2020-06-05T07:09:05.000Z</time>
      </trkpt>
      <trkpt lat="44.06854" lon="6.85205">
        <ele>873</ele>
        <time>2020-06-05T07:09:06.000Z</time>
      </trkpt>
      <trkpt lat="44.06853" lon="6.85205">
        <ele>873</ele>
        <time>2020-06-05T07:09:07.000Z</time>
      </trkpt>
      <trkpt lat="44.06852" lon="6.85205">
        <ele>873</ele>
        <time>2020-06-05T07:09:08.000Z</time>
      </trkpt>
      <trkpt lat="44.0685" lon="6.85206">
        <ele>873</ele>
        <time>2020-06-05T07:09:09.000Z</time>
      </trkpt>
      <trkpt lat="44.06849" lon="6.85206">
        <ele>873</ele>
        <time>2020-06-05T07:09:10.000Z</time>
      </trkpt>
      <trkpt lat="44.06848" lon="6.85206">
        <ele>872</ele>
        <time>2020-06-05T07:09:11.000Z</time>
      </trkpt>
      <trkpt lat="44.06847" lon="6.85206">
        <ele>872</ele>
        <time>2020-06-05T07:09:12.000Z</time>
      </trkpt>
      <trkpt lat="44.06846" lon="6.85206">
        <ele>872</ele>
        <time>2020-06-05T07:09:13.000Z</time>
      </trkpt>
      <trkpt lat="44.06845" lon="6.85207">
        <ele>872</ele>
        <time>2020-06-05T07:09:14.000Z</time>
      </trkpt>
      <trkpt lat="44.06844" lon="6.85207">
        <ele>872</ele>
        <time>2020-06-05T07:09:15.000Z</time>
      </trkpt>
      <trkpt lat="44.06843" lon="6.85208">
        <ele>872</ele>
        <time>2020-06-05T07:09:16.000Z</time>
      </trkpt>
      <trkpt lat="44.06842" lon="6.85208">
        <ele>872</ele>
        <time>2020-06-05T07:09:17.000Z</time>
      </trkpt>
      <trkpt lat="44.06841" lon="6.85208">
        <ele>872</ele>
        <time>2020-06-05T07:09:18.000Z</time>
      </trkpt>
      <trkpt lat="44.0684" lon="6.85208">
        <ele>872</ele>
        <time>2020-06-05T07:09:19.000Z</time>
      </trkpt>
      <trkpt lat="44.06839" lon="6.85209">
        <ele>872</ele>
        <time>2020-06-05T07:09:20.000Z</time>
      </trkpt>
      <trkpt lat="44.06838" lon="6.85209">
        <ele>872</ele>
        <time>2020-06-05T07:09:21.000Z</time>
      </trkpt>
      <trkpt lat="44.06838" lon="6.85209">
        <ele>872</ele>
        <time>2020-06-05T07:09:22.000Z</time>
      </trkpt>
      <trkpt lat="44.06837" lon="6.8521">
        <ele>872</ele>
        <time>2020-06-05T07:09:23.000Z</time>
      </trkpt>
      <trkpt lat="44.06836" lon="6.85211">
        <ele>872</ele>
        <time>2020-06-05T07:09:24.000Z</time>
      </trkpt>
      <trkpt lat="44.06835" lon="6.85211">
        <ele>872</ele>
        <time>2020-06-05T07:09:25.000Z</time>
      </trkpt>
      <trkpt lat="44.06835" lon="6.85211">
        <ele>872</ele>
        <time>2020-06-05T07:09:26.000Z</time>
      </trkpt>
      <trkpt lat="44.06834" lon="6.85211">
        <ele>872</ele>
        <time>2020-06-05T07:09:27.000Z</time>
      </trkpt>
      <trkpt lat="44.06834" lon="6.85211">
        <ele>872</ele>
        <time>2020-06-05T07:09:28.000Z</time>
      </trkpt>
      <trkpt lat="44.06834" lon="6.85211">
        <ele>872</ele>
        <time>2020-06-05T07:09:29.000Z</time>
      </trkpt>
      <trkpt lat="44.06833" lon="6.85212">
        <ele>872</ele>
        <time>2020-06-05T07:09:30.000Z</time>
      </trkpt>
      <trkpt lat="44.06833" lon="6.85212">
        <ele>872</ele>
        <time>2020-06-05T07:09:31.000Z</time>
      </trkpt>
      <trkpt lat="44.06832" lon="6.85213">
        <ele>872</ele>
        <time>2020-06-05T07:09:32.000Z</time>
      </trkpt>
      <trkpt lat="44.06831" lon="6.85213">
        <ele>872</ele>
        <time>2020-06-05T07:09:33.000Z</time>
      </trkpt>
      <trkpt lat="44.0683" lon="6.85214">
        <ele>872</ele>
        <time>2020-06-05T07:09:34.000Z</time>
      </trkpt>
      <trkpt lat="44.06829" lon="6.85215">
        <ele>872</ele>
        <time>2020-06-05T07:09:35.000Z</time>
      </trkpt>
      <trkpt lat="44.06829" lon="6.85215">
        <ele>873</ele>
        <time>2020-06-05T07:09:36.000Z</time>
      </trkpt>
      <trkpt lat="44.06828" lon="6.85215">
        <ele>873</ele>
        <time>2020-06-05T07:09:37.000Z</time>
      </trkpt>
      <trkpt lat="44.06827" lon="6.85216">
        <ele>873</ele>
        <time>2020-06-05T07:09:38.000Z</time>
      </trkpt>
      <trkpt lat="44.06826" lon="6.85216">
        <ele>873</ele>
        <time>2020-06-05T07:09:39.000Z</time>
      </trkpt>
      <trkpt lat="44.06825" lon="6.85217">
        <ele>873</ele>
        <time>2020-06-05T07:09:40.000Z</time>
      </trkpt>
      <trkpt lat="44.06824" lon="6.85217">
        <ele>873</ele>
        <time>2020-06-05T07:09:41.000Z</time>
      </trkpt>
      <trkpt lat="44.06823" lon="6.85217">
        <ele>873</ele>
        <time>2020-06-05T07:09:42.000Z</time>
      </trkpt>
      <trkpt lat="44.06822" lon="6.85217">
        <ele>872</ele>
        <time>2020-06-05T07:09:43.000Z</time>
      </trkpt>
      <trkpt lat="44.0682" lon="6.85217">
        <ele>872</ele>
        <time>2020-06-05T07:09:44.000Z</time>
      </trkpt>
      <trkpt lat="44.06819" lon="6.85217">
        <ele>872</ele>
        <time>2020-06-05T07:09:45.000Z</time>
      </trkpt>
      <trkpt lat="44.06818" lon="6.85218">
        <ele>872</ele>
        <time>2020-06-05T07:09:46.000Z</time>
      </trkpt>
      <trkpt lat="44.06817" lon="6.85218">
        <ele>872</ele>
        <time>2020-06-05T07:09:47.000Z</time>
      </trkpt>
      <trkpt lat="44.06816" lon="6.85218">
        <ele>872</ele>
        <time>2020-06-05T07:09:48.000Z</time>
      </trkpt>
      <trkpt lat="44.06815" lon="6.85218">
        <ele>872</ele>
        <time>2020-06-05T07:09:49.000Z</time>
      </trkpt>
      <trkpt lat="44.06815" lon="6.85218">
        <ele>872</ele>
        <time>2020-06-05T07:09:50.000Z</time>
      </trkpt>
      <trkpt lat="44.06814" lon="6.85218">
        <ele>871</ele>
        <time>2020-06-05T07:09:51.000Z</time>
      </trkpt>
      <trkpt lat="44.06813" lon="6.85218">
        <ele>871</ele>
        <time>2020-06-05T07:09:52.000Z</time>
      </trkpt>
      <trkpt lat="44.06813" lon="6.85219">
        <ele>871</ele>
        <time>2020-06-05T07:09:53.000Z</time>
      </trkpt>
      <trkpt lat="44.06812" lon="6.85219">
        <ele>871</ele>
        <time>2020-06-05T07:09:54.000Z</time>
      </trkpt>
      <trkpt lat="44.06811" lon="6.85219">
        <ele>871</ele>
        <time>2020-06-05T07:09:55.000Z</time>
      </trkpt>
      <trkpt lat="44.0681" lon="6.85219">
        <ele>871</ele>
        <time>2020-06-05T07:09:56.000Z</time>
      </trkpt>
      <trkpt lat="44.06809" lon="6.8522">
        <ele>871</ele>
        <time>2020-06-05T07:09:57.000Z</time>
      </trkpt>
      <trkpt lat="44.06808" lon="6.8522">
        <ele>870</ele>
        <time>2020-06-05T07:09:58.000Z</time>
      </trkpt>
      <trkpt lat="44.06806" lon="6.8522">
        <ele>870</ele>
        <time>2020-06-05T07:09:59.000Z</time>
      </trkpt>
      <trkpt lat="44.06805" lon="6.85221">
        <ele>870</ele>
        <time>2020-06-05T07:10:00.000Z</time>
      </trkpt>
      <trkpt lat="44.06804" lon="6.85221">
        <ele>870</ele>
        <time>2020-06-05T07:10:01.000Z</time>
      </trkpt>
      <trkpt lat="44.06803" lon="6.85221">
        <ele>870</ele>
        <time>2020-06-05T07:10:02.000Z</time>
      </trkpt>
      <trkpt lat="44.06801" lon="6.85222">
        <ele>870</ele>
        <time>2020-06-05T07:10:03.000Z</time>
      </trkpt>
      <trkpt lat="44.068" lon="6.85223">
        <ele>870</ele>
        <time>2020-06-05T07:10:04.000Z</time>
      </trkpt>
      <trkpt lat="44.06799" lon="6.85223">
        <ele>870</ele>
        <time>2020-06-05T07:10:05.000Z</time>
      </trkpt>
      <trkpt lat="44.06798" lon="6.85223">
        <ele>869</ele>
        <time>2020-06-05T07:10:06.000Z</time>
      </trkpt>
      <trkpt lat="44.06796" lon="6.85224">
        <ele>869</ele>
        <time>2020-06-05T07:10:07.000Z</time>
      </trkpt>
      <trkpt lat="44.06795" lon="6.85224">
        <ele>869</ele>
        <time>2020-06-05T07:10:08.000Z</time>
      </trkpt>
      <trkpt lat="44.06793" lon="6.85224">
        <ele>869</ele>
        <time>2020-06-05T07:10:09.000Z</time>
      </trkpt>
      <trkpt lat="44.06792" lon="6.85225">
        <ele>869</ele>
        <time>2020-06-05T07:10:10.000Z</time>
      </trkpt>
      <trkpt lat="44.0679" lon="6.85225">
        <ele>869</ele>
        <time>2020-06-05T07:10:11.000Z</time>
      </trkpt>
      <trkpt lat="44.06789" lon="6.85224">
        <ele>869</ele>
        <time>2020-06-05T07:10:12.000Z</time>
      </trkpt>
      <trkpt lat="44.06788" lon="6.85224">
        <ele>869</ele>
        <time>2020-06-05T07:10:13.000Z</time>
      </trkpt>
      <trkpt lat="44.06787" lon="6.85223">
        <ele>869</ele>
        <time>2020-06-05T07:10:14.000Z</time>
      </trkpt>
      <trkpt lat="44.06786" lon="6.85223">
        <ele>869</ele>
        <time>2020-06-05T07:10:15.000Z</time>
      </trkpt>
      <trkpt lat="44.06785" lon="6.85224">
        <ele>868</ele>
        <time>2020-06-05T07:10:16.000Z</time>
      </trkpt>
      <trkpt lat="44.06784" lon="6.85224">
        <ele>868</ele>
        <time>2020-06-05T07:10:17.000Z</time>
      </trkpt>
      <trkpt lat="44.06783" lon="6.85224">
        <ele>868</ele>
        <time>2020-06-05T07:10:18.000Z</time>
      </trkpt>
      <trkpt lat="44.06782" lon="6.85224">
        <ele>868</ele>
        <time>2020-06-05T07:10:19.000Z</time>
      </trkpt>
      <trkpt lat="44.06781" lon="6.85225">
        <ele>868</ele>
        <time>2020-06-05T07:10:20.000Z</time>
      </trkpt>
      <trkpt lat="44.06781" lon="6.85225">
        <ele>868</ele>
        <time>2020-06-05T07:10:21.000Z</time>
      </trkpt>
      <trkpt lat="44.0678" lon="6.85225">
        <ele>868</ele>
        <time>2020-06-05T07:10:22.000Z</time>
      </trkpt>
      <trkpt lat="44.06779" lon="6.85225">
        <ele>868</ele>
        <time>2020-06-05T07:10:23.000Z</time>
      </trkpt>
      <trkpt lat="44.06778" lon="6.85225">
        <ele>867</ele>
        <time>2020-06-05T07:10:24.000Z</time>
      </trkpt>
      <trkpt lat="44.06777" lon="6.85225">
        <ele>867</ele>
        <time>2020-06-05T07:10:25.000Z</time>
      </trkpt>
      <trkpt lat="44.06775" lon="6.85225">
        <ele>867</ele>
        <time>2020-06-05T07:10:26.000Z</time>
      </trkpt>
      <trkpt lat="44.06774" lon="6.85225">
        <ele>867</ele>
        <time>2020-06-05T07:10:27.000Z</time>
      </trkpt>
      <trkpt lat="44.06773" lon="6.85225">
        <ele>867</ele>
        <time>2020-06-05T07:10:28.000Z</time>
      </trkpt>
      <trkpt lat="44.06771" lon="6.85224">
        <ele>867</ele>
        <time>2020-06-05T07:10:29.000Z</time>
      </trkpt>
      <trkpt lat="44.0677" lon="6.85224">
        <ele>866</ele>
        <time>2020-06-05T07:10:30.000Z</time>
      </trkpt>
      <trkpt lat="44.06769" lon="6.85223">
        <ele>866</ele>
        <time>2020-06-05T07:10:31.000Z</time>
      </trkpt>
      <trkpt lat="44.06768" lon="6.85223">
        <ele>866</ele>
        <time>2020-06-05T07:10:32.000Z</time>
      </trkpt>
      <trkpt lat="44.06767" lon="6.85223">
        <ele>866</ele>
        <time>2020-06-05T07:10:33.000Z</time>
      </trkpt>
      <trkpt lat="44.06765" lon="6.85223">
        <ele>865</ele>
        <time>2020-06-05T07:10:34.000Z</time>
      </trkpt>
      <trkpt lat="44.06764" lon="6.85223">
        <ele>865</ele>
        <time>2020-06-05T07:10:35.000Z</time>
      </trkpt>
      <trkpt lat="44.06763" lon="6.85222">
        <ele>865</ele>
        <time>2020-06-05T07:10:36.000Z</time>
      </trkpt>
      <trkpt lat="44.06762" lon="6.85222">
        <ele>865</ele>
        <time>2020-06-05T07:10:37.000Z</time>
      </trkpt>
      <trkpt lat="44.06761" lon="6.85222">
        <ele>865</ele>
        <time>2020-06-05T07:10:38.000Z</time>
      </trkpt>
      <trkpt lat="44.06759" lon="6.85222">
        <ele>865</ele>
        <time>2020-06-05T07:10:39.000Z</time>
      </trkpt>
      <trkpt lat="44.06758" lon="6.85222">
        <ele>864</ele>
        <time>2020-06-05T07:10:40.000Z</time>
      </trkpt>
      <trkpt lat="44.06757" lon="6.85222">
        <ele>864</ele>
        <time>2020-06-05T07:10:41.000Z</time>
      </trkpt>
      <trkpt lat="44.06757" lon="6.85222">
        <ele>864</ele>
        <time>2020-06-05T07:10:42.000Z</time>
      </trkpt>
      <trkpt lat="44.06756" lon="6.85221">
        <ele>864</ele>
        <time>2020-06-05T07:10:43.000Z</time>
      </trkpt>
      <trkpt lat="44.06755" lon="6.85221">
        <ele>864</ele>
        <time>2020-06-05T07:10:44.000Z</time>
      </trkpt>
      <trkpt lat="44.06754" lon="6.85221">
        <ele>864</ele>
        <time>2020-06-05T07:10:45.000Z</time>
      </trkpt>
      <trkpt lat="44.06753" lon="6.85221">
        <ele>864</ele>
        <time>2020-06-05T07:10:46.000Z</time>
      </trkpt>
      <trkpt lat="44.06752" lon="6.85221">
        <ele>863</ele>
        <time>2020-06-05T07:10:47.000Z</time>
      </trkpt>
      <trkpt lat="44.06751" lon="6.85221">
        <ele>863</ele>
        <time>2020-06-05T07:10:48.000Z</time>
      </trkpt>
      <trkpt lat="44.0675" lon="6.85221">
        <ele>863</ele>
        <time>2020-06-05T07:10:49.000Z</time>
      </trkpt>
      <trkpt lat="44.06749" lon="6.85221">
        <ele>863</ele>
        <time>2020-06-05T07:10:50.000Z</time>
      </trkpt>
      <trkpt lat="44.06748" lon="6.85221">
        <ele>863</ele>
        <time>2020-06-05T07:10:51.000Z</time>
      </trkpt>
      <trkpt lat="44.06748" lon="6.85221">
        <ele>863</ele>
        <time>2020-06-05T07:10:52.000Z</time>
      </trkpt>
      <trkpt lat="44.06747" lon="6.85221">
        <ele>863</ele>
        <time>2020-06-05T07:10:53.000Z</time>
      </trkpt>
      <trkpt lat="44.06746" lon="6.85221">
        <ele>863</ele>
        <time>2020-06-05T07:10:54.000Z</time>
      </trkpt>
      <trkpt lat="44.06745" lon="6.85222">
        <ele>863</ele>
        <time>2020-06-05T07:10:55.000Z</time>
      </trkpt>
      <trkpt lat="44.06745" lon="6.85222">
        <ele>863</ele>
        <time>2020-06-05T07:10:56.000Z</time>
      </trkpt>
      <trkpt lat="44.06744" lon="6.85222">
        <ele>863</ele>
        <time>2020-06-05T07:10:57.000Z</time>
      </trkpt>
      <trkpt lat="44.06743" lon="6.85222">
        <ele>863</ele>
        <time>2020-06-05T07:10:58.000Z</time>
      </trkpt>
      <trkpt lat="44.06743" lon="6.85222">
        <ele>863</ele>
        <time>2020-06-05T07:10:59.000Z</time>
      </trkpt>
      <trkpt lat="44.06742" lon="6.85222">
        <ele>863</ele>
        <time>2020-06-05T07:11:00.000Z</time>
      </trkpt>
      <trkpt lat="44.06741" lon="6.85223">
        <ele>863</ele>
        <time>2020-06-05T07:11:01.000Z</time>
      </trkpt>
      <trkpt lat="44.06741" lon="6.85223">
        <ele>863</ele>
        <time>2020-06-05T07:11:02.000Z</time>
      </trkpt>
      <trkpt lat="44.0674" lon="6.85223">
        <ele>863</ele>
        <time>2020-06-05T07:11:03.000Z</time>
      </trkpt>
      <trkpt lat="44.06738" lon="6.85223">
        <ele>862</ele>
        <time>2020-06-05T07:11:04.000Z</time>
      </trkpt>
      <trkpt lat="44.06737" lon="6.85223">
        <ele>862</ele>
        <time>2020-06-05T07:11:05.000Z</time>
      </trkpt>
      <trkpt lat="44.06736" lon="6.85223">
        <ele>862</ele>
        <time>2020-06-05T07:11:06.000Z</time>
      </trkpt>
      <trkpt lat="44.06735" lon="6.85223">
        <ele>862</ele>
        <time>2020-06-05T07:11:07.000Z</time>
      </trkpt>
      <trkpt lat="44.06734" lon="6.85224">
        <ele>863</ele>
        <time>2020-06-05T07:11:08.000Z</time>
      </trkpt>
      <trkpt lat="44.06733" lon="6.85224">
        <ele>863</ele>
        <time>2020-06-05T07:11:09.000Z</time>
      </trkpt>
      <trkpt lat="44.06731" lon="6.85224">
        <ele>863</ele>
        <time>2020-06-05T07:11:10.000Z</time>
      </trkpt>
      <trkpt lat="44.0673" lon="6.85225">
        <ele>863</ele>
        <time>2020-06-05T07:11:11.000Z</time>
      </trkpt>
      <trkpt lat="44.06729" lon="6.85225">
        <ele>863</ele>
        <time>2020-06-05T07:11:12.000Z</time>
      </trkpt>
      <trkpt lat="44.06728" lon="6.85225">
        <ele>863</ele>
        <time>2020-06-05T07:11:13.000Z</time>
      </trkpt>
      <trkpt lat="44.06727" lon="6.85225">
        <ele>862</ele>
        <time>2020-06-05T07:11:14.000Z</time>
      </trkpt>
      <trkpt lat="44.06726" lon="6.85225">
        <ele>862</ele>
        <time>2020-06-05T07:11:15.000Z</time>
      </trkpt>
      <trkpt lat="44.06725" lon="6.85225">
        <ele>862</ele>
        <time>2020-06-05T07:11:16.000Z</time>
      </trkpt>
      <trkpt lat="44.06724" lon="6.85225">
        <ele>862</ele>
        <time>2020-06-05T07:11:17.000Z</time>
      </trkpt>
      <trkpt lat="44.06722" lon="6.85224">
        <ele>862</ele>
        <time>2020-06-05T07:11:18.000Z</time>
      </trkpt>
      <trkpt lat="44.06721" lon="6.85224">
        <ele>862</ele>
        <time>2020-06-05T07:11:19.000Z</time>
      </trkpt>
      <trkpt lat="44.0672" lon="6.85224">
        <ele>862</ele>
        <time>2020-06-05T07:11:20.000Z</time>
      </trkpt>
      <trkpt lat="44.06718" lon="6.85224">
        <ele>862</ele>
        <time>2020-06-05T07:11:21.000Z</time>
      </trkpt>
      <trkpt lat="44.06717" lon="6.85224">
        <ele>862</ele>
        <time>2020-06-05T07:11:22.000Z</time>
      </trkpt>
      <trkpt lat="44.06715" lon="6.85224">
        <ele>862</ele>
        <time>2020-06-05T07:11:23.000Z</time>
      </trkpt>
      <trkpt lat="44.06714" lon="6.85224">
        <ele>862</ele>
        <time>2020-06-05T07:11:24.000Z</time>
      </trkpt>
      <trkpt lat="44.06713" lon="6.85224">
        <ele>862</ele>
        <time>2020-06-05T07:11:25.000Z</time>
      </trkpt>
      <trkpt lat="44.06712" lon="6.85224">
        <ele>862</ele>
        <time>2020-06-05T07:11:26.000Z</time>
      </trkpt>
      <trkpt lat="44.06711" lon="6.85224">
        <ele>862</ele>
        <time>2020-06-05T07:11:27.000Z</time>
      </trkpt>
      <trkpt lat="44.0671" lon="6.85224">
        <ele>861</ele>
        <time>2020-06-05T07:11:28.000Z</time>
      </trkpt>
      <trkpt lat="44.06709" lon="6.85224">
        <ele>861</ele>
        <time>2020-06-05T07:11:29.000Z</time>
      </trkpt>
      <trkpt lat="44.06708" lon="6.85224">
        <ele>861</ele>
        <time>2020-06-05T07:11:30.000Z</time>
      </trkpt>
      <trkpt lat="44.06707" lon="6.85224">
        <ele>861</ele>
        <time>2020-06-05T07:11:31.000Z</time>
      </trkpt>
      <trkpt lat="44.06707" lon="6.85224">
        <ele>861</ele>
        <time>2020-06-05T07:11:32.000Z</time>
      </trkpt>
      <trkpt lat="44.06706" lon="6.85224">
        <ele>861</ele>
        <time>2020-06-05T07:11:33.000Z</time>
      </trkpt>
      <trkpt lat="44.06705" lon="6.85224">
        <ele>861</ele>
        <time>2020-06-05T07:11:34.000Z</time>
      </trkpt>
      <trkpt lat="44.06704" lon="6.85224">
        <ele>861</ele>
        <time>2020-06-05T07:11:35.000Z</time>
      </trkpt>
      <trkpt lat="44.06703" lon="6.85224">
        <ele>860</ele>
        <time>2020-06-05T07:11:36.000Z</time>
      </trkpt>
      <trkpt lat="44.06702" lon="6.85224">
        <ele>860</ele>
        <time>2020-06-05T07:11:37.000Z</time>
      </trkpt>
      <trkpt lat="44.067" lon="6.85224">
        <ele>860</ele>
        <time>2020-06-05T07:11:38.000Z</time>
      </trkpt>
      <trkpt lat="44.06699" lon="6.85224">
        <ele>860</ele>
        <time>2020-06-05T07:11:39.000Z</time>
      </trkpt>
      <trkpt lat="44.06698" lon="6.85223">
        <ele>860</ele>
        <time>2020-06-05T07:11:40.000Z</time>
      </trkpt>
      <trkpt lat="44.06697" lon="6.85223">
        <ele>860</ele>
        <time>2020-06-05T07:11:41.000Z</time>
      </trkpt>
      <trkpt lat="44.06696" lon="6.85223">
        <ele>860</ele>
        <time>2020-06-05T07:11:42.000Z</time>
      </trkpt>
      <trkpt lat="44.06695" lon="6.85222">
        <ele>860</ele>
        <time>2020-06-05T07:11:43.000Z</time>
      </trkpt>
      <trkpt lat="44.06694" lon="6.85222">
        <ele>860</ele>
        <time>2020-06-05T07:11:44.000Z</time>
      </trkpt>
      <trkpt lat="44.06694" lon="6.85222">
        <ele>859</ele>
        <time>2020-06-05T07:11:45.000Z</time>
      </trkpt>
      <trkpt lat="44.06693" lon="6.85221">
        <ele>859</ele>
        <time>2020-06-05T07:11:46.000Z</time>
      </trkpt>
      <trkpt lat="44.06692" lon="6.85221">
        <ele>859</ele>
        <time>2020-06-05T07:11:47.000Z</time>
      </trkpt>
      <trkpt lat="44.06691" lon="6.8522">
        <ele>859</ele>
        <time>2020-06-05T07:11:48.000Z</time>
      </trkpt>
      <trkpt lat="44.0669" lon="6.8522">
        <ele>859</ele>
        <time>2020-06-05T07:11:49.000Z</time>
      </trkpt>
      <trkpt lat="44.06689" lon="6.8522">
        <ele>859</ele>
        <time>2020-06-05T07:11:50.000Z</time>
      </trkpt>
      <trkpt lat="44.06688" lon="6.8522">
        <ele>859</ele>
        <time>2020-06-05T07:11:51.000Z</time>
      </trkpt>
      <trkpt lat="44.06687" lon="6.85219">
        <ele>858</ele>
        <time>2020-06-05T07:11:52.000Z</time>
      </trkpt>
      <trkpt lat="44.06686" lon="6.85219">
        <ele>858</ele>
        <time>2020-06-05T07:11:53.000Z</time>
      </trkpt>
      <trkpt lat="44.06686" lon="6.85219">
        <ele>858</ele>
        <time>2020-06-05T07:11:54.000Z</time>
      </trkpt>
      <trkpt lat="44.06685" lon="6.85218">
        <ele>858</ele>
        <time>2020-06-05T07:11:55.000Z</time>
      </trkpt>
      <trkpt lat="44.06684" lon="6.85218">
        <ele>858</ele>
        <time>2020-06-05T07:11:56.000Z</time>
      </trkpt>
      <trkpt lat="44.06683" lon="6.85218">
        <ele>858</ele>
        <time>2020-06-05T07:11:57.000Z</time>
      </trkpt>
      <trkpt lat="44.06683" lon="6.85217">
        <ele>858</ele>
        <time>2020-06-05T07:11:58.000Z</time>
      </trkpt>
      <trkpt lat="44.06683" lon="6.85217">
        <ele>858</ele>
        <time>2020-06-05T07:11:59.000Z</time>
      </trkpt>
      <trkpt lat="44.06683" lon="6.85217">
        <ele>858</ele>
        <time>2020-06-05T07:12:00.000Z</time>
      </trkpt>
      <trkpt lat="44.06683" lon="6.85217">
        <ele>858</ele>
        <time>2020-06-05T07:12:01.000Z</time>
      </trkpt>
      <trkpt lat="44.06683" lon="6.85217">
        <ele>858</ele>
        <time>2020-06-05T07:12:02.000Z</time>
      </trkpt>
      <trkpt lat="44.06683" lon="6.85217">
        <ele>858</ele>
        <time>2020-06-05T07:12:03.000Z</time>
      </trkpt>
      <trkpt lat="44.06682" lon="6.85217">
        <ele>858</ele>
        <time>2020-06-05T07:12:04.000Z</time>
      </trkpt>
      <trkpt lat="44.06682" lon="6.85217">
        <ele>858</ele>
        <time>2020-06-05T07:12:05.000Z</time>
      </trkpt>
      <trkpt lat="44.06682" lon="6.85217">
        <ele>858</ele>
        <time>2020-06-05T07:12:06.000Z</time>
      </trkpt>
      <trkpt lat="44.06681" lon="6.85217">
        <ele>858</ele>
        <time>2020-06-05T07:12:07.000Z</time>
      </trkpt>
      <trkpt lat="44.0668" lon="6.85217">
        <ele>858</ele>
        <time>2020-06-05T07:12:08.000Z</time>
      </trkpt>
      <trkpt lat="44.0668" lon="6.85217">
        <ele>858</ele>
        <time>2020-06-05T07:12:09.000Z</time>
      </trkpt>
      <trkpt lat="44.06679" lon="6.85217">
        <ele>858</ele>
        <time>2020-06-05T07:12:10.000Z</time>
      </trkpt>
      <trkpt lat="44.06678" lon="6.85216">
        <ele>858</ele>
        <time>2020-06-05T07:12:11.000Z</time>
      </trkpt>
      <trkpt lat="44.06677" lon="6.85215">
        <ele>858</ele>
        <time>2020-06-05T07:12:12.000Z</time>
      </trkpt>
      <trkpt lat="44.06676" lon="6.85215">
        <ele>858</ele>
        <time>2020-06-05T07:12:13.000Z</time>
      </trkpt>
      <trkpt lat="44.06676" lon="6.85214">
        <ele>858</ele>
        <time>2020-06-05T07:12:14.000Z</time>
      </trkpt>
      <trkpt lat="44.06676" lon="6.85214">
        <ele>858</ele>
        <time>2020-06-05T07:12:15.000Z</time>
      </trkpt>
      <trkpt lat="44.06676" lon="6.85214">
        <ele>858</ele>
        <time>2020-06-05T07:12:16.000Z</time>
      </trkpt>
      <trkpt lat="44.06676" lon="6.85214">
        <ele>858</ele>
        <time>2020-06-05T07:12:17.000Z</time>
      </trkpt>
      <trkpt lat="44.06676" lon="6.85214">
        <ele>858</ele>
        <time>2020-06-05T07:12:18.000Z</time>
      </trkpt>
      <trkpt lat="44.06675" lon="6.85214">
        <ele>858</ele>
        <time>2020-06-05T07:12:19.000Z</time>
      </trkpt>
      <trkpt lat="44.06674" lon="6.85215">
        <ele>858</ele>
        <time>2020-06-05T07:12:20.000Z</time>
      </trkpt>
      <trkpt lat="44.06673" lon="6.85214">
        <ele>858</ele>
        <time>2020-06-05T07:12:21.000Z</time>
      </trkpt>
      <trkpt lat="44.06672" lon="6.85214">
        <ele>858</ele>
        <time>2020-06-05T07:12:22.000Z</time>
      </trkpt>
      <trkpt lat="44.06672" lon="6.85214">
        <ele>858</ele>
        <time>2020-06-05T07:12:23.000Z</time>
      </trkpt>
      <trkpt lat="44.06671" lon="6.85213">
        <ele>858</ele>
        <time>2020-06-05T07:12:24.000Z</time>
      </trkpt>
      <trkpt lat="44.06669" lon="6.85213">
        <ele>858</ele>
        <time>2020-06-05T07:12:25.000Z</time>
      </trkpt>
      <trkpt lat="44.06668" lon="6.85213">
        <ele>857</ele>
        <time>2020-06-05T07:12:26.000Z</time>
      </trkpt>
      <trkpt lat="44.06667" lon="6.85212">
        <ele>857</ele>
        <time>2020-06-05T07:12:27.000Z</time>
      </trkpt>
      <trkpt lat="44.06666" lon="6.85212">
        <ele>857</ele>
        <time>2020-06-05T07:12:28.000Z</time>
      </trkpt>
      <trkpt lat="44.06665" lon="6.85212">
        <ele>857</ele>
        <time>2020-06-05T07:12:29.000Z</time>
      </trkpt>
      <trkpt lat="44.06664" lon="6.85211">
        <ele>857</ele>
        <time>2020-06-05T07:12:30.000Z</time>
      </trkpt>
      <trkpt lat="44.06662" lon="6.85211">
        <ele>857</ele>
        <time>2020-06-05T07:12:31.000Z</time>
      </trkpt>
      <trkpt lat="44.06661" lon="6.85211">
        <ele>857</ele>
        <time>2020-06-05T07:12:32.000Z</time>
      </trkpt>
      <trkpt lat="44.0666" lon="6.85211">
        <ele>857</ele>
        <time>2020-06-05T07:12:33.000Z</time>
      </trkpt>
      <trkpt lat="44.06659" lon="6.85211">
        <ele>857</ele>
        <time>2020-06-05T07:12:34.000Z</time>
      </trkpt>
      <trkpt lat="44.06658" lon="6.8521">
        <ele>857</ele>
        <time>2020-06-05T07:12:35.000Z</time>
      </trkpt>
      <trkpt lat="44.06656" lon="6.8521">
        <ele>857</ele>
        <time>2020-06-05T07:12:36.000Z</time>
      </trkpt>
      <trkpt lat="44.06655" lon="6.85211">
        <ele>857</ele>
        <time>2020-06-05T07:12:37.000Z</time>
      </trkpt>
      <trkpt lat="44.06654" lon="6.85211">
        <ele>857</ele>
        <time>2020-06-05T07:12:38.000Z</time>
      </trkpt>
      <trkpt lat="44.06653" lon="6.85211">
        <ele>857</ele>
        <time>2020-06-05T07:12:39.000Z</time>
      </trkpt>
      <trkpt lat="44.06652" lon="6.85212">
        <ele>857</ele>
        <time>2020-06-05T07:12:40.000Z</time>
      </trkpt>
      <trkpt lat="44.06651" lon="6.85212">
        <ele>857</ele>
        <time>2020-06-05T07:12:41.000Z</time>
      </trkpt>
      <trkpt lat="44.0665" lon="6.85212">
        <ele>857</ele>
        <time>2020-06-05T07:12:42.000Z</time>
      </trkpt>
      <trkpt lat="44.06649" lon="6.85212">
        <ele>857</ele>
        <time>2020-06-05T07:12:43.000Z</time>
      </trkpt>
      <trkpt lat="44.06648" lon="6.85212">
        <ele>857</ele>
        <time>2020-06-05T07:12:44.000Z</time>
      </trkpt>
      <trkpt lat="44.06646" lon="6.85212">
        <ele>857</ele>
        <time>2020-06-05T07:12:45.000Z</time>
      </trkpt>
      <trkpt lat="44.06645" lon="6.85212">
        <ele>857</ele>
        <time>2020-06-05T07:12:46.000Z</time>
      </trkpt>
      <trkpt lat="44.06644" lon="6.85212">
        <ele>857</ele>
        <time>2020-06-05T07:12:47.000Z</time>
      </trkpt>
      <trkpt lat="44.06643" lon="6.85212">
        <ele>857</ele>
        <time>2020-06-05T07:12:48.000Z</time>
      </trkpt>
      <trkpt lat="44.06642" lon="6.85212">
        <ele>857</ele>
        <time>2020-06-05T07:12:49.000Z</time>
      </trkpt>
      <trkpt lat="44.06641" lon="6.85212">
        <ele>857</ele>
        <time>2020-06-05T07:12:50.000Z</time>
      </trkpt>
      <trkpt lat="44.0664" lon="6.85213">
        <ele>857</ele>
        <time>2020-06-05T07:12:51.000Z</time>
      </trkpt>
      <trkpt lat="44.06639" lon="6.85213">
        <ele>857</ele>
        <time>2020-06-05T07:12:52.000Z</time>
      </trkpt>
      <trkpt lat="44.06638" lon="6.85213">
        <ele>857</ele>
        <time>2020-06-05T07:12:53.000Z</time>
      </trkpt>
      <trkpt lat="44.06637" lon="6.85214">
        <ele>857</ele>
        <time>2020-06-05T07:12:54.000Z</time>
      </trkpt>
      <trkpt lat="44.06636" lon="6.85214">
        <ele>857</ele>
        <time>2020-06-05T07:12:55.000Z</time>
      </trkpt>
      <trkpt lat="44.06635" lon="6.85214">
        <ele>857</ele>
        <time>2020-06-05T07:12:56.000Z</time>
      </trkpt>
      <trkpt lat="44.06634" lon="6.85214">
        <ele>857</ele>
        <time>2020-06-05T07:12:57.000Z</time>
      </trkpt>
      <trkpt lat="44.06633" lon="6.85214">
        <ele>857</ele>
        <time>2020-06-05T07:12:58.000Z</time>
      </trkpt>
      <trkpt lat="44.06632" lon="6.85214">
        <ele>857</ele>
        <time>2020-06-05T07:12:59.000Z</time>
      </trkpt>
      <trkpt lat="44.06631" lon="6.85214">
        <ele>856</ele>
        <time>2020-06-05T07:13:00.000Z</time>
      </trkpt>
      <trkpt lat="44.0663" lon="6.85215">
        <ele>856</ele>
        <time>2020-06-05T07:13:01.000Z</time>
      </trkpt>
      <trkpt lat="44.0663" lon="6.85215">
        <ele>856</ele>
        <time>2020-06-05T07:13:02.000Z</time>
      </trkpt>
      <trkpt lat="44.06629" lon="6.85215">
        <ele>856</ele>
        <time>2020-06-05T07:13:03.000Z</time>
      </trkpt>
      <trkpt lat="44.06628" lon="6.85216">
        <ele>856</ele>
        <time>2020-06-05T07:13:04.000Z</time>
      </trkpt>
      <trkpt lat="44.06627" lon="6.85216">
        <ele>856</ele>
        <time>2020-06-05T07:13:05.000Z</time>
      </trkpt>
      <trkpt lat="44.06626" lon="6.85216">
        <ele>856</ele>
        <time>2020-06-05T07:13:06.000Z</time>
      </trkpt>
      <trkpt lat="44.06625" lon="6.85216">
        <ele>856</ele>
        <time>2020-06-05T07:13:07.000Z</time>
      </trkpt>
      <trkpt lat="44.06624" lon="6.85217">
        <ele>856</ele>
        <time>2020-06-05T07:13:08.000Z</time>
      </trkpt>
      <trkpt lat="44.06623" lon="6.85217">
        <ele>856</ele>
        <time>2020-06-05T07:13:09.000Z</time>
      </trkpt>
      <trkpt lat="44.06622" lon="6.85217">
        <ele>856</ele>
        <time>2020-06-05T07:13:10.000Z</time>
      </trkpt>
      <trkpt lat="44.06621" lon="6.85217">
        <ele>856</ele>
        <time>2020-06-05T07:13:11.000Z</time>
      </trkpt>
      <trkpt lat="44.0662" lon="6.85217">
        <ele>856</ele>
        <time>2020-06-05T07:13:12.000Z</time>
      </trkpt>
      <trkpt lat="44.06619" lon="6.85217">
        <ele>856</ele>
        <time>2020-06-05T07:13:13.000Z</time>
      </trkpt>
      <trkpt lat="44.06618" lon="6.85218">
        <ele>856</ele>
        <time>2020-06-05T07:13:14.000Z</time>
      </trkpt>
      <trkpt lat="44.06618" lon="6.85218">
        <ele>856</ele>
        <time>2020-06-05T07:13:15.000Z</time>
      </trkpt>
      <trkpt lat="44.06617" lon="6.85218">
        <ele>856</ele>
        <time>2020-06-05T07:13:16.000Z</time>
      </trkpt>
      <trkpt lat="44.06617" lon="6.85218">
        <ele>856</ele>
        <time>2020-06-05T07:13:17.000Z</time>
      </trkpt>
      <trkpt lat="44.06617" lon="6.85218">
        <ele>856</ele>
        <time>2020-06-05T07:13:18.000Z</time>
      </trkpt>
      <trkpt lat="44.06617" lon="6.85218">
        <ele>856</ele>
        <time>2020-06-05T07:13:19.000Z</time>
      </trkpt>
      <trkpt lat="44.06617" lon="6.85217">
        <ele>856</ele>
        <time>2020-06-05T07:13:20.000Z</time>
      </trkpt>
      <trkpt lat="44.06617" lon="6.85217">
        <ele>856</ele>
        <time>2020-06-05T07:13:21.000Z</time>
      </trkpt>
      <trkpt lat="44.06616" lon="6.85216">
        <ele>856</ele>
        <time>2020-06-05T07:13:22.000Z</time>
      </trkpt>
      <trkpt lat="44.06616" lon="6.85216">
        <ele>856</ele>
        <time>2020-06-05T07:13:23.000Z</time>
      </trkpt>
      <trkpt lat="44.06616" lon="6.85216">
        <ele>856</ele>
        <time>2020-06-05T07:13:24.000Z</time>
      </trkpt>
      <trkpt lat="44.06615" lon="6.85216">
        <ele>856</ele>
        <time>2020-06-05T07:13:25.000Z</time>
      </trkpt>
      <trkpt lat="44.06615" lon="6.85217">
        <ele>856</ele>
        <time>2020-06-05T07:13:26.000Z</time>
      </trkpt>
      <trkpt lat="44.06614" lon="6.85217">
        <ele>856</ele>
        <time>2020-06-05T07:13:27.000Z</time>
      </trkpt>
      <trkpt lat="44.06614" lon="6.85218">
        <ele>856</ele>
        <time>2020-06-05T07:13:28.000Z</time>
      </trkpt>
      <trkpt lat="44.06613" lon="6.85218">
        <ele>856</ele>
        <time>2020-06-05T07:13:29.000Z</time>
      </trkpt>
      <trkpt lat="44.06612" lon="6.85218">
        <ele>856</ele>
        <time>2020-06-05T07:13:30.000Z</time>
      </trkpt>
      <trkpt lat="44.06611" lon="6.85218">
        <ele>856</ele>
        <time>2020-06-05T07:13:31.000Z</time>
      </trkpt>
      <trkpt lat="44.0661" lon="6.85218">
        <ele>856</ele>
        <time>2020-06-05T07:13:32.000Z</time>
      </trkpt>
      <trkpt lat="44.06609" lon="6.85218">
        <ele>855</ele>
        <time>2020-06-05T07:13:33.000Z</time>
      </trkpt>
      <trkpt lat="44.06607" lon="6.85218">
        <ele>855</ele>
        <time>2020-06-05T07:13:34.000Z</time>
      </trkpt>
      <trkpt lat="44.06606" lon="6.85219">
        <ele>855</ele>
        <time>2020-06-05T07:13:35.000Z</time>
      </trkpt>
      <trkpt lat="44.06605" lon="6.85219">
        <ele>855</ele>
        <time>2020-06-05T07:13:36.000Z</time>
      </trkpt>
      <trkpt lat="44.06604" lon="6.85219">
        <ele>855</ele>
        <time>2020-06-05T07:13:37.000Z</time>
      </trkpt>
      <trkpt lat="44.06603" lon="6.85219">
        <ele>855</ele>
        <time>2020-06-05T07:13:38.000Z</time>
      </trkpt>
      <trkpt lat="44.06602" lon="6.85219">
        <ele>855</ele>
        <time>2020-06-05T07:13:39.000Z</time>
      </trkpt>
      <trkpt lat="44.06601" lon="6.85219">
        <ele>855</ele>
        <time>2020-06-05T07:13:40.000Z</time>
      </trkpt>
      <trkpt lat="44.066" lon="6.8522">
        <ele>855</ele>
        <time>2020-06-05T07:13:41.000Z</time>
      </trkpt>
      <trkpt lat="44.06599" lon="6.8522">
        <ele>855</ele>
        <time>2020-06-05T07:13:42.000Z</time>
      </trkpt>
      <trkpt lat="44.06598" lon="6.85221">
        <ele>855</ele>
        <time>2020-06-05T07:13:43.000Z</time>
      </trkpt>
      <trkpt lat="44.06598" lon="6.85221">
        <ele>855</ele>
        <time>2020-06-05T07:13:44.000Z</time>
      </trkpt>
      <trkpt lat="44.06597" lon="6.85221">
        <ele>855</ele>
        <time>2020-06-05T07:13:45.000Z</time>
      </trkpt>
      <trkpt lat="44.06597" lon="6.85221">
        <ele>855</ele>
        <time>2020-06-05T07:13:46.000Z</time>
      </trkpt>
      <trkpt lat="44.06597" lon="6.85221">
        <ele>855</ele>
        <time>2020-06-05T07:13:47.000Z</time>
      </trkpt>
      <trkpt lat="44.06597" lon="6.85221">
        <ele>855</ele>
        <time>2020-06-05T07:13:48.000Z</time>
      </trkpt>
      <trkpt lat="44.06597" lon="6.85221">
        <ele>855</ele>
        <time>2020-06-05T07:13:49.000Z</time>
      </trkpt>
      <trkpt lat="44.06596" lon="6.85221">
        <ele>855</ele>
        <time>2020-06-05T07:13:50.000Z</time>
      </trkpt>
      <trkpt lat="44.06595" lon="6.85221">
        <ele>855</ele>
        <time>2020-06-05T07:13:51.000Z</time>
      </trkpt>
      <trkpt lat="44.06594" lon="6.85221">
        <ele>855</ele>
        <time>2020-06-05T07:13:52.000Z</time>
      </trkpt>
      <trkpt lat="44.06593" lon="6.85222">
        <ele>855</ele>
        <time>2020-06-05T07:13:53.000Z</time>
      </trkpt>
      <trkpt lat="44.06591" lon="6.85222">
        <ele>855</ele>
        <time>2020-06-05T07:13:54.000Z</time>
      </trkpt>
      <trkpt lat="44.0659" lon="6.85221">
        <ele>855</ele>
        <time>2020-06-05T07:13:55.000Z</time>
      </trkpt>
      <trkpt lat="44.06589" lon="6.85221">
        <ele>855</ele>
        <time>2020-06-05T07:13:56.000Z</time>
      </trkpt>
      <trkpt lat="44.06588" lon="6.85221">
        <ele>855</ele>
        <time>2020-06-05T07:13:57.000Z</time>
      </trkpt>
      <trkpt lat="44.06587" lon="6.85221">
        <ele>855</ele>
        <time>2020-06-05T07:13:58.000Z</time>
      </trkpt>
      <trkpt lat="44.06586" lon="6.8522">
        <ele>855</ele>
        <time>2020-06-05T07:13:59.000Z</time>
      </trkpt>
      <trkpt lat="44.06585" lon="6.8522">
        <ele>855</ele>
        <time>2020-06-05T07:14:00.000Z</time>
      </trkpt>
      <trkpt lat="44.06584" lon="6.8522">
        <ele>855</ele>
        <time>2020-06-05T07:14:01.000Z</time>
      </trkpt>
      <trkpt lat="44.06583" lon="6.8522">
        <ele>855</ele>
        <time>2020-06-05T07:14:02.000Z</time>
      </trkpt>
      <trkpt lat="44.06582" lon="6.8522">
        <ele>855</ele>
        <time>2020-06-05T07:14:03.000Z</time>
      </trkpt>
      <trkpt lat="44.06581" lon="6.8522">
        <ele>855</ele>
        <time>2020-06-05T07:14:04.000Z</time>
      </trkpt>
      <trkpt lat="44.06581" lon="6.8522">
        <ele>855</ele>
        <time>2020-06-05T07:14:05.000Z</time>
      </trkpt>
      <trkpt lat="44.0658" lon="6.8522">
        <ele>855</ele>
        <time>2020-06-05T07:14:06.000Z</time>
      </trkpt>
      <trkpt lat="44.06579" lon="6.8522">
        <ele>855</ele>
        <time>2020-06-05T07:14:07.000Z</time>
      </trkpt>
      <trkpt lat="44.06579" lon="6.8522">
        <ele>855</ele>
        <time>2020-06-05T07:14:08.000Z</time>
      </trkpt>
      <trkpt lat="44.06578" lon="6.8522">
        <ele>855</ele>
        <time>2020-06-05T07:14:09.000Z</time>
      </trkpt>
      <trkpt lat="44.06577" lon="6.8522">
        <ele>855</ele>
        <time>2020-06-05T07:14:10.000Z</time>
      </trkpt>
      <trkpt lat="44.06576" lon="6.8522">
        <ele>855</ele>
        <time>2020-06-05T07:14:11.000Z</time>
      </trkpt>
      <trkpt lat="44.06576" lon="6.8522">
        <ele>855</ele>
        <time>2020-06-05T07:14:12.000Z</time>
      </trkpt>
      <trkpt lat="44.06575" lon="6.8522">
        <ele>855</ele>
        <time>2020-06-05T07:14:13.000Z</time>
      </trkpt>
      <trkpt lat="44.06574" lon="6.8522">
        <ele>856</ele>
        <time>2020-06-05T07:14:14.000Z</time>
      </trkpt>
      <trkpt lat="44.06573" lon="6.8522">
        <ele>856</ele>
        <time>2020-06-05T07:14:15.000Z</time>
      </trkpt>
      <trkpt lat="44.06572" lon="6.8522">
        <ele>856</ele>
        <time>2020-06-05T07:14:16.000Z</time>
      </trkpt>
      <trkpt lat="44.06571" lon="6.8522">
        <ele>856</ele>
        <time>2020-06-05T07:14:17.000Z</time>
      </trkpt>
      <trkpt lat="44.0657" lon="6.8522">
        <ele>856</ele>
        <time>2020-06-05T07:14:18.000Z</time>
      </trkpt>
      <trkpt lat="44.06569" lon="6.85221">
        <ele>856</ele>
        <time>2020-06-05T07:14:19.000Z</time>
      </trkpt>
      <trkpt lat="44.06568" lon="6.85221">
        <ele>856</ele>
        <time>2020-06-05T07:14:20.000Z</time>
      </trkpt>
      <trkpt lat="44.06567" lon="6.85221">
        <ele>856</ele>
        <time>2020-06-05T07:14:21.000Z</time>
      </trkpt>
      <trkpt lat="44.06566" lon="6.85221">
        <ele>856</ele>
        <time>2020-06-05T07:14:22.000Z</time>
      </trkpt>
      <trkpt lat="44.06565" lon="6.85221">
        <ele>856</ele>
        <time>2020-06-05T07:14:23.000Z</time>
      </trkpt>
      <trkpt lat="44.06564" lon="6.85221">
        <ele>856</ele>
        <time>2020-06-05T07:14:24.000Z</time>
      </trkpt>
      <trkpt lat="44.06563" lon="6.85222">
        <ele>856</ele>
        <time>2020-06-05T07:14:25.000Z</time>
      </trkpt>
      <trkpt lat="44.06562" lon="6.85222">
        <ele>856</ele>
        <time>2020-06-05T07:14:26.000Z</time>
      </trkpt>
      <trkpt lat="44.06561" lon="6.85222">
        <ele>856</ele>
        <time>2020-06-05T07:14:27.000Z</time>
      </trkpt>
      <trkpt lat="44.06561" lon="6.85222">
        <ele>856</ele>
        <time>2020-06-05T07:14:28.000Z</time>
      </trkpt>
      <trkpt lat="44.06561" lon="6.85222">
        <ele>856</ele>
        <time>2020-06-05T07:14:29.000Z</time>
      </trkpt>
      <trkpt lat="44.0656" lon="6.85222">
        <ele>856</ele>
        <time>2020-06-05T07:14:30.000Z</time>
      </trkpt>
      <trkpt lat="44.06559" lon="6.85222">
        <ele>856</ele>
        <time>2020-06-05T07:14:31.000Z</time>
      </trkpt>
      <trkpt lat="44.06559" lon="6.85222">
        <ele>856</ele>
        <time>2020-06-05T07:14:32.000Z</time>
      </trkpt>
      <trkpt lat="44.06558" lon="6.85222">
        <ele>856</ele>
        <time>2020-06-05T07:14:33.000Z</time>
      </trkpt>
      <trkpt lat="44.06557" lon="6.85222">
        <ele>856</ele>
        <time>2020-06-05T07:14:34.000Z</time>
      </trkpt>
      <trkpt lat="44.06556" lon="6.85222">
        <ele>856</ele>
        <time>2020-06-05T07:14:35.000Z</time>
      </trkpt>
      <trkpt lat="44.06555" lon="6.85222">
        <ele>855</ele>
        <time>2020-06-05T07:14:36.000Z</time>
      </trkpt>
      <trkpt lat="44.06554" lon="6.85223">
        <ele>855</ele>
        <time>2020-06-05T07:14:37.000Z</time>
      </trkpt>
      <trkpt lat="44.06553" lon="6.85223">
        <ele>855</ele>
        <time>2020-06-05T07:14:38.000Z</time>
      </trkpt>
      <trkpt lat="44.06553" lon="6.85223">
        <ele>855</ele>
        <time>2020-06-05T07:14:39.000Z</time>
      </trkpt>
      <trkpt lat="44.06552" lon="6.85223">
        <ele>855</ele>
        <time>2020-06-05T07:14:40.000Z</time>
      </trkpt>
      <trkpt lat="44.06551" lon="6.85223">
        <ele>855</ele>
        <time>2020-06-05T07:14:41.000Z</time>
      </trkpt>
      <trkpt lat="44.0655" lon="6.85222">
        <ele>855</ele>
        <time>2020-06-05T07:14:42.000Z</time>
      </trkpt>
      <trkpt lat="44.06549" lon="6.85222">
        <ele>855</ele>
        <time>2020-06-05T07:14:43.000Z</time>
      </trkpt>
      <trkpt lat="44.06548" lon="6.85222">
        <ele>855</ele>
        <time>2020-06-05T07:14:44.000Z</time>
      </trkpt>
      <trkpt lat="44.06547" lon="6.85223">
        <ele>855</ele>
        <time>2020-06-05T07:14:45.000Z</time>
      </trkpt>
      <trkpt lat="44.06546" lon="6.85223">
        <ele>854</ele>
        <time>2020-06-05T07:14:46.000Z</time>
      </trkpt>
      <trkpt lat="44.06545" lon="6.85223">
        <ele>854</ele>
        <time>2020-06-05T07:14:47.000Z</time>
      </trkpt>
      <trkpt lat="44.06545" lon="6.85223">
        <ele>854</ele>
        <time>2020-06-05T07:14:48.000Z</time>
      </trkpt>
      <trkpt lat="44.06544" lon="6.85223">
        <ele>854</ele>
        <time>2020-06-05T07:14:49.000Z</time>
      </trkpt>
      <trkpt lat="44.06543" lon="6.85223">
        <ele>854</ele>
        <time>2020-06-05T07:14:50.000Z</time>
      </trkpt>
      <trkpt lat="44.06542" lon="6.85223">
        <ele>854</ele>
        <time>2020-06-05T07:14:51.000Z</time>
      </trkpt>
      <trkpt lat="44.06541" lon="6.85223">
        <ele>854</ele>
        <time>2020-06-05T07:14:52.000Z</time>
      </trkpt>
      <trkpt lat="44.0654" lon="6.85223">
        <ele>854</ele>
        <time>2020-06-05T07:14:53.000Z</time>
      </trkpt>
      <trkpt lat="44.06539" lon="6.85222">
        <ele>854</ele>
        <time>2020-06-05T07:14:54.000Z</time>
      </trkpt>
      <trkpt lat="44.06538" lon="6.85222">
        <ele>854</ele>
        <time>2020-06-05T07:14:55.000Z</time>
      </trkpt>
      <trkpt lat="44.06537" lon="6.85222">
        <ele>853</ele>
        <time>2020-06-05T07:14:56.000Z</time>
      </trkpt>
      <trkpt lat="44.06536" lon="6.85222">
        <ele>853</ele>
        <time>2020-06-05T07:14:57.000Z</time>
      </trkpt>
      <trkpt lat="44.06535" lon="6.85223">
        <ele>853</ele>
        <time>2020-06-05T07:14:58.000Z</time>
      </trkpt>
      <trkpt lat="44.06534" lon="6.85223">
        <ele>853</ele>
        <time>2020-06-05T07:14:59.000Z</time>
      </trkpt>
      <trkpt lat="44.06533" lon="6.85223">
        <ele>853</ele>
        <time>2020-06-05T07:15:00.000Z</time>
      </trkpt>
      <trkpt lat="44.06532" lon="6.85222">
        <ele>853</ele>
        <time>2020-06-05T07:15:01.000Z</time>
      </trkpt>
      <trkpt lat="44.06531" lon="6.85222">
        <ele>853</ele>
        <time>2020-06-05T07:15:02.000Z</time>
      </trkpt>
      <trkpt lat="44.0653" lon="6.85222">
        <ele>853</ele>
        <time>2020-06-05T07:15:03.000Z</time>
      </trkpt>
      <trkpt lat="44.06529" lon="6.85222">
        <ele>852</ele>
        <time>2020-06-05T07:15:04.000Z</time>
      </trkpt>
      <trkpt lat="44.06528" lon="6.85222">
        <ele>852</ele>
        <time>2020-06-05T07:15:05.000Z</time>
      </trkpt>
      <trkpt lat="44.06527" lon="6.85222">
        <ele>852</ele>
        <time>2020-06-05T07:15:06.000Z</time>
      </trkpt>
      <trkpt lat="44.06526" lon="6.85222">
        <ele>852</ele>
        <time>2020-06-05T07:15:07.000Z</time>
      </trkpt>
      <trkpt lat="44.06525" lon="6.85221">
        <ele>852</ele>
        <time>2020-06-05T07:15:08.000Z</time>
      </trkpt>
      <trkpt lat="44.06524" lon="6.85222">
        <ele>852</ele>
        <time>2020-06-05T07:15:09.000Z</time>
      </trkpt>
      <trkpt lat="44.06523" lon="6.85222">
        <ele>852</ele>
        <time>2020-06-05T07:15:10.000Z</time>
      </trkpt>
      <trkpt lat="44.06522" lon="6.85222">
        <ele>852</ele>
        <time>2020-06-05T07:15:11.000Z</time>
      </trkpt>
      <trkpt lat="44.06521" lon="6.85223">
        <ele>852</ele>
        <time>2020-06-05T07:15:12.000Z</time>
      </trkpt>
      <trkpt lat="44.0652" lon="6.85223">
        <ele>852</ele>
        <time>2020-06-05T07:15:13.000Z</time>
      </trkpt>
      <trkpt lat="44.0652" lon="6.85223">
        <ele>852</ele>
        <time>2020-06-05T07:15:14.000Z</time>
      </trkpt>
      <trkpt lat="44.06519" lon="6.85223">
        <ele>852</ele>
        <time>2020-06-05T07:15:15.000Z</time>
      </trkpt>
      <trkpt lat="44.06518" lon="6.85223">
        <ele>852</ele>
        <time>2020-06-05T07:15:16.000Z</time>
      </trkpt>
      <trkpt lat="44.06517" lon="6.85223">
        <ele>852</ele>
        <time>2020-06-05T07:15:17.000Z</time>
      </trkpt>
      <trkpt lat="44.06516" lon="6.85223">
        <ele>852</ele>
        <time>2020-06-05T07:15:18.000Z</time>
      </trkpt>
      <trkpt lat="44.06515" lon="6.85224">
        <ele>852</ele>
        <time>2020-06-05T07:15:19.000Z</time>
      </trkpt>
      <trkpt lat="44.06514" lon="6.85224">
        <ele>852</ele>
        <time>2020-06-05T07:15:20.000Z</time>
      </trkpt>
      <trkpt lat="44.06513" lon="6.85224">
        <ele>852</ele>
        <time>2020-06-05T07:15:21.000Z</time>
      </trkpt>
      <trkpt lat="44.06512" lon="6.85225">
        <ele>852</ele>
        <time>2020-06-05T07:15:22.000Z</time>
      </trkpt>
      <trkpt lat="44.06511" lon="6.85225">
        <ele>852</ele>
        <time>2020-06-05T07:15:23.000Z</time>
      </trkpt>
      <trkpt lat="44.0651" lon="6.85226">
        <ele>852</ele>
        <time>2020-06-05T07:15:24.000Z</time>
      </trkpt>
      <trkpt lat="44.06509" lon="6.85226">
        <ele>852</ele>
        <time>2020-06-05T07:15:25.000Z</time>
      </trkpt>
      <trkpt lat="44.06507" lon="6.85227">
        <ele>852</ele>
        <time>2020-06-05T07:15:26.000Z</time>
      </trkpt>
      <trkpt lat="44.06506" lon="6.85227">
        <ele>851</ele>
        <time>2020-06-05T07:15:27.000Z</time>
      </trkpt>
      <trkpt lat="44.06504" lon="6.85227">
        <ele>851</ele>
        <time>2020-06-05T07:15:28.000Z</time>
      </trkpt>
      <trkpt lat="44.06503" lon="6.85227">
        <ele>851</ele>
        <time>2020-06-05T07:15:29.000Z</time>
      </trkpt>
      <trkpt lat="44.06502" lon="6.85227">
        <ele>851</ele>
        <time>2020-06-05T07:15:30.000Z</time>
      </trkpt>
      <trkpt lat="44.06501" lon="6.85227">
        <ele>851</ele>
        <time>2020-06-05T07:15:31.000Z</time>
      </trkpt>
      <trkpt lat="44.06499" lon="6.85226">
        <ele>851</ele>
        <time>2020-06-05T07:15:32.000Z</time>
      </trkpt>
      <trkpt lat="44.06498" lon="6.85226">
        <ele>851</ele>
        <time>2020-06-05T07:15:33.000Z</time>
      </trkpt>
      <trkpt lat="44.06497" lon="6.85226">
        <ele>851</ele>
        <time>2020-06-05T07:15:34.000Z</time>
      </trkpt>
      <trkpt lat="44.06496" lon="6.85225">
        <ele>851</ele>
        <time>2020-06-05T07:15:35.000Z</time>
      </trkpt>
      <trkpt lat="44.06495" lon="6.85224">
        <ele>851</ele>
        <time>2020-06-05T07:15:36.000Z</time>
      </trkpt>
      <trkpt lat="44.06495" lon="6.85223">
        <ele>851</ele>
        <time>2020-06-05T07:15:37.000Z</time>
      </trkpt>
      <trkpt lat="44.06495" lon="6.85222">
        <ele>851</ele>
        <time>2020-06-05T07:15:38.000Z</time>
      </trkpt>
      <trkpt lat="44.06494" lon="6.85222">
        <ele>850</ele>
        <time>2020-06-05T07:15:39.000Z</time>
      </trkpt>
      <trkpt lat="44.06494" lon="6.85222">
        <ele>850</ele>
        <time>2020-06-05T07:15:40.000Z</time>
      </trkpt>
      <trkpt lat="44.06494" lon="6.85222">
        <ele>850</ele>
        <time>2020-06-05T07:15:41.000Z</time>
      </trkpt>
      <trkpt lat="44.06494" lon="6.85222">
        <ele>850</ele>
        <time>2020-06-05T07:15:42.000Z</time>
      </trkpt>
      <trkpt lat="44.06494" lon="6.85222">
        <ele>850</ele>
        <time>2020-06-05T07:15:43.000Z</time>
      </trkpt>
      <trkpt lat="44.06494" lon="6.85222">
        <ele>850</ele>
        <time>2020-06-05T07:15:44.000Z</time>
      </trkpt>
      <trkpt lat="44.06493" lon="6.85222">
        <ele>850</ele>
        <time>2020-06-05T07:15:45.000Z</time>
      </trkpt>
      <trkpt lat="44.06493" lon="6.85222">
        <ele>850</ele>
        <time>2020-06-05T07:15:46.000Z</time>
      </trkpt>
      <trkpt lat="44.06493" lon="6.85222">
        <ele>850</ele>
        <time>2020-06-05T07:15:47.000Z</time>
      </trkpt>
      <trkpt lat="44.06493" lon="6.85222">
        <ele>850</ele>
        <time>2020-06-05T07:15:48.000Z</time>
      </trkpt>
      <trkpt lat="44.06493" lon="6.85222">
        <ele>850</ele>
        <time>2020-06-05T07:15:49.000Z</time>
      </trkpt>
      <trkpt lat="44.06493" lon="6.85221">
        <ele>850</ele>
        <time>2020-06-05T07:15:50.000Z</time>
      </trkpt>
      <trkpt lat="44.06493" lon="6.85221">
        <ele>850</ele>
        <time>2020-06-05T07:15:51.000Z</time>
      </trkpt>
      <trkpt lat="44.06492" lon="6.85221">
        <ele>850</ele>
        <time>2020-06-05T07:15:52.000Z</time>
      </trkpt>
      <trkpt lat="44.06492" lon="6.85221">
        <ele>850</ele>
        <time>2020-06-05T07:15:53.000Z</time>
      </trkpt>
      <trkpt lat="44.06492" lon="6.8522">
        <ele>850</ele>
        <time>2020-06-05T07:15:54.000Z</time>
      </trkpt>
      <trkpt lat="44.06491" lon="6.8522">
        <ele>850</ele>
        <time>2020-06-05T07:15:55.000Z</time>
      </trkpt>
      <trkpt lat="44.06491" lon="6.8522">
        <ele>850</ele>
        <time>2020-06-05T07:15:56.000Z</time>
      </trkpt>
      <trkpt lat="44.06491" lon="6.8522">
        <ele>850</ele>
        <time>2020-06-05T07:15:57.000Z</time>
      </trkpt>
      <trkpt lat="44.06491" lon="6.8522">
        <ele>850</ele>
        <time>2020-06-05T07:15:58.000Z</time>
      </trkpt>
      <trkpt lat="44.06491" lon="6.85219">
        <ele>850</ele>
        <time>2020-06-05T07:15:59.000Z</time>
      </trkpt>
      <trkpt lat="44.06491" lon="6.85219">
        <ele>850</ele>
        <time>2020-06-05T07:16:00.000Z</time>
      </trkpt>
      <trkpt lat="44.0649" lon="6.85219">
        <ele>850</ele>
        <time>2020-06-05T07:16:01.000Z</time>
      </trkpt>
      <trkpt lat="44.0649" lon="6.85219">
        <ele>850</ele>
        <time>2020-06-05T07:16:02.000Z</time>
      </trkpt>
      <trkpt lat="44.0649" lon="6.85219">
        <ele>850</ele>
        <time>2020-06-05T07:16:03.000Z</time>
      </trkpt>
      <trkpt lat="44.0649" lon="6.85219">
        <ele>849</ele>
        <time>2020-06-05T07:16:04.000Z</time>
      </trkpt>
      <trkpt lat="44.0649" lon="6.85219">
        <ele>849</ele>
        <time>2020-06-05T07:16:05.000Z</time>
      </trkpt>
      <trkpt lat="44.0649" lon="6.85219">
        <ele>849</ele>
        <time>2020-06-05T07:16:06.000Z</time>
      </trkpt>
      <trkpt lat="44.0649" lon="6.8522">
        <ele>849</ele>
        <time>2020-06-05T07:16:07.000Z</time>
      </trkpt>
      <trkpt lat="44.0649" lon="6.85219">
        <ele>849</ele>
        <time>2020-06-05T07:16:08.000Z</time>
      </trkpt>
      <trkpt lat="44.0649" lon="6.8522">
        <ele>849</ele>
        <time>2020-06-05T07:16:09.000Z</time>
      </trkpt>
      <trkpt lat="44.0649" lon="6.85219">
        <ele>849</ele>
        <time>2020-06-05T07:16:10.000Z</time>
      </trkpt>
      <trkpt lat="44.0649" lon="6.85219">
        <ele>849</ele>
        <time>2020-06-05T07:16:11.000Z</time>
      </trkpt>
      <trkpt lat="44.0649" lon="6.85219">
        <ele>849</ele>
        <time>2020-06-05T07:16:12.000Z</time>
      </trkpt>
      <trkpt lat="44.0649" lon="6.85219">
        <ele>849</ele>
        <time>2020-06-05T07:16:13.000Z</time>
      </trkpt>
      <trkpt lat="44.0649" lon="6.85219">
        <ele>849</ele>
        <time>2020-06-05T07:16:14.000Z</time>
      </trkpt>
      <trkpt lat="44.0649" lon="6.85219">
        <ele>849</ele>
        <time>2020-06-05T07:16:15.000Z</time>
      </trkpt>
      <trkpt lat="44.06489" lon="6.85219">
        <ele>849</ele>
        <time>2020-06-05T07:16:16.000Z</time>
      </trkpt>
      <trkpt lat="44.06488" lon="6.85219">
        <ele>849</ele>
        <time>2020-06-05T07:16:17.000Z</time>
      </trkpt>
      <trkpt lat="44.06488" lon="6.85219">
        <ele>849</ele>
        <time>2020-06-05T07:16:18.000Z</time>
      </trkpt>
      <trkpt lat="44.06487" lon="6.85218">
        <ele>849</ele>
        <time>2020-06-05T07:16:19.000Z</time>
      </trkpt>
      <trkpt lat="44.06486" lon="6.85218">
        <ele>849</ele>
        <time>2020-06-05T07:16:20.000Z</time>
      </trkpt>
      <trkpt lat="44.06486" lon="6.85218">
        <ele>849</ele>
        <time>2020-06-05T07:16:21.000Z</time>
      </trkpt>
      <trkpt lat="44.06485" lon="6.85218">
        <ele>849</ele>
        <time>2020-06-05T07:16:22.000Z</time>
      </trkpt>
      <trkpt lat="44.06484" lon="6.85217">
        <ele>849</ele>
        <time>2020-06-05T07:16:23.000Z</time>
      </trkpt>
      <trkpt lat="44.06483" lon="6.85216">
        <ele>849</ele>
        <time>2020-06-05T07:16:24.000Z</time>
      </trkpt>
      <trkpt lat="44.06483" lon="6.85216">
        <ele>849</ele>
        <time>2020-06-05T07:16:25.000Z</time>
      </trkpt>
      <trkpt lat="44.06482" lon="6.85216">
        <ele>849</ele>
        <time>2020-06-05T07:16:26.000Z</time>
      </trkpt>
      <trkpt lat="44.06481" lon="6.85215">
        <ele>849</ele>
        <time>2020-06-05T07:16:27.000Z</time>
      </trkpt>
      <trkpt lat="44.0648" lon="6.85215">
        <ele>849</ele>
        <time>2020-06-05T07:16:28.000Z</time>
      </trkpt>
      <trkpt lat="44.06479" lon="6.85214">
        <ele>849</ele>
        <time>2020-06-05T07:16:29.000Z</time>
      </trkpt>
      <trkpt lat="44.06478" lon="6.85214">
        <ele>849</ele>
        <time>2020-06-05T07:16:30.000Z</time>
      </trkpt>
      <trkpt lat="44.06477" lon="6.85214">
        <ele>849</ele>
        <time>2020-06-05T07:16:31.000Z</time>
      </trkpt>
      <trkpt lat="44.06476" lon="6.85213">
        <ele>849</ele>
        <time>2020-06-05T07:16:32.000Z</time>
      </trkpt>
      <trkpt lat="44.06476" lon="6.85214">
        <ele>849</ele>
        <time>2020-06-05T07:16:33.000Z</time>
      </trkpt>
      <trkpt lat="44.06475" lon="6.85214">
        <ele>849</ele>
        <time>2020-06-05T07:16:34.000Z</time>
      </trkpt>
      <trkpt lat="44.06475" lon="6.85213">
        <ele>849</ele>
        <time>2020-06-05T07:16:35.000Z</time>
      </trkpt>
      <trkpt lat="44.06474" lon="6.85213">
        <ele>849</ele>
        <time>2020-06-05T07:16:36.000Z</time>
      </trkpt>
      <trkpt lat="44.06474" lon="6.85212">
        <ele>849</ele>
        <time>2020-06-05T07:16:37.000Z</time>
      </trkpt>
      <trkpt lat="44.06474" lon="6.85212">
        <ele>849</ele>
        <time>2020-06-05T07:16:38.000Z</time>
      </trkpt>
      <trkpt lat="44.06474" lon="6.85211">
        <ele>849</ele>
        <time>2020-06-05T07:16:39.000Z</time>
      </trkpt>
      <trkpt lat="44.06474" lon="6.8521">
        <ele>849</ele>
        <time>2020-06-05T07:16:40.000Z</time>
      </trkpt>
      <trkpt lat="44.06474" lon="6.85209">
        <ele>849</ele>
        <time>2020-06-05T07:16:41.000Z</time>
      </trkpt>
      <trkpt lat="44.06473" lon="6.85208">
        <ele>849</ele>
        <time>2020-06-05T07:16:42.000Z</time>
      </trkpt>
      <trkpt lat="44.06472" lon="6.85207">
        <ele>849</ele>
        <time>2020-06-05T07:16:43.000Z</time>
      </trkpt>
      <trkpt lat="44.06472" lon="6.85207">
        <ele>849</ele>
        <time>2020-06-05T07:16:44.000Z</time>
      </trkpt>
      <trkpt lat="44.06471" lon="6.85206">
        <ele>849</ele>
        <time>2020-06-05T07:16:45.000Z</time>
      </trkpt>
      <trkpt lat="44.06471" lon="6.85205">
        <ele>848</ele>
        <time>2020-06-05T07:16:46.000Z</time>
      </trkpt>
      <trkpt lat="44.06471" lon="6.85204">
        <ele>848</ele>
        <time>2020-06-05T07:16:47.000Z</time>
      </trkpt>
      <trkpt lat="44.06471" lon="6.85203">
        <ele>848</ele>
        <time>2020-06-05T07:16:48.000Z</time>
      </trkpt>
      <trkpt lat="44.0647" lon="6.85202">
        <ele>848</ele>
        <time>2020-06-05T07:16:49.000Z</time>
      </trkpt>
      <trkpt lat="44.0647" lon="6.852">
        <ele>848</ele>
        <time>2020-06-05T07:16:50.000Z</time>
      </trkpt>
      <trkpt lat="44.0647" lon="6.85199">
        <ele>848</ele>
        <time>2020-06-05T07:16:51.000Z</time>
      </trkpt>
      <trkpt lat="44.0647" lon="6.85198">
        <ele>848</ele>
        <time>2020-06-05T07:16:52.000Z</time>
      </trkpt>
      <trkpt lat="44.06469" lon="6.85197">
        <ele>848</ele>
        <time>2020-06-05T07:16:53.000Z</time>
      </trkpt>
      <trkpt lat="44.06469" lon="6.85195">
        <ele>848</ele>
        <time>2020-06-05T07:16:54.000Z</time>
      </trkpt>
      <trkpt lat="44.06469" lon="6.85194">
        <ele>848</ele>
        <time>2020-06-05T07:16:55.000Z</time>
      </trkpt>
      <trkpt lat="44.06469" lon="6.85193">
        <ele>848</ele>
        <time>2020-06-05T07:16:56.000Z</time>
      </trkpt>
      <trkpt lat="44.06468" lon="6.85192">
        <ele>848</ele>
        <time>2020-06-05T07:16:57.000Z</time>
      </trkpt>
      <trkpt lat="44.06468" lon="6.85191">
        <ele>847</ele>
        <time>2020-06-05T07:16:58.000Z</time>
      </trkpt>
      <trkpt lat="44.06467" lon="6.85189">
        <ele>847</ele>
        <time>2020-06-05T07:16:59.000Z</time>
      </trkpt>
      <trkpt lat="44.06467" lon="6.85188">
        <ele>847</ele>
        <time>2020-06-05T07:17:00.000Z</time>
      </trkpt>
      <trkpt lat="44.06467" lon="6.85187">
        <ele>847</ele>
        <time>2020-06-05T07:17:01.000Z</time>
      </trkpt>
      <trkpt lat="44.06467" lon="6.85186">
        <ele>847</ele>
        <time>2020-06-05T07:17:02.000Z</time>
      </trkpt>
      <trkpt lat="44.06467" lon="6.85184">
        <ele>847</ele>
        <time>2020-06-05T07:17:03.000Z</time>
      </trkpt>
      <trkpt lat="44.06467" lon="6.85183">
        <ele>848</ele>
        <time>2020-06-05T07:17:04.000Z</time>
      </trkpt>
      <trkpt lat="44.06466" lon="6.85182">
        <ele>848</ele>
        <time>2020-06-05T07:17:05.000Z</time>
      </trkpt>
      <trkpt lat="44.06466" lon="6.85181">
        <ele>848</ele>
        <time>2020-06-05T07:17:06.000Z</time>
      </trkpt>
      <trkpt lat="44.06466" lon="6.8518">
        <ele>848</ele>
        <time>2020-06-05T07:17:07.000Z</time>
      </trkpt>
      <trkpt lat="44.06465" lon="6.85179">
        <ele>848</ele>
        <time>2020-06-05T07:17:08.000Z</time>
      </trkpt>
      <trkpt lat="44.06465" lon="6.85178">
        <ele>848</ele>
        <time>2020-06-05T07:17:09.000Z</time>
      </trkpt>
      <trkpt lat="44.06465" lon="6.85176">
        <ele>848</ele>
        <time>2020-06-05T07:17:10.000Z</time>
      </trkpt>
      <trkpt lat="44.06464" lon="6.85175">
        <ele>848</ele>
        <time>2020-06-05T07:17:11.000Z</time>
      </trkpt>
      <trkpt lat="44.06464" lon="6.85174">
        <ele>848</ele>
        <time>2020-06-05T07:17:12.000Z</time>
      </trkpt>
      <trkpt lat="44.06464" lon="6.85173">
        <ele>848</ele>
        <time>2020-06-05T07:17:13.000Z</time>
      </trkpt>
      <trkpt lat="44.06463" lon="6.85173">
        <ele>848</ele>
        <time>2020-06-05T07:17:14.000Z</time>
      </trkpt>
      <trkpt lat="44.06463" lon="6.85172">
        <ele>848</ele>
        <time>2020-06-05T07:17:15.000Z</time>
      </trkpt>
      <trkpt lat="44.06463" lon="6.85171">
        <ele>848</ele>
        <time>2020-06-05T07:17:16.000Z</time>
      </trkpt>
      <trkpt lat="44.06463" lon="6.8517">
        <ele>848</ele>
        <time>2020-06-05T07:17:17.000Z</time>
      </trkpt>
      <trkpt lat="44.06462" lon="6.85169">
        <ele>848</ele>
        <time>2020-06-05T07:17:18.000Z</time>
      </trkpt>
      <trkpt lat="44.06462" lon="6.85168">
        <ele>848</ele>
        <time>2020-06-05T07:17:19.000Z</time>
      </trkpt>
      <trkpt lat="44.06462" lon="6.85167">
        <ele>848</ele>
        <time>2020-06-05T07:17:20.000Z</time>
      </trkpt>
      <trkpt lat="44.06461" lon="6.85165">
        <ele>848</ele>
        <time>2020-06-05T07:17:21.000Z</time>
      </trkpt>
      <trkpt lat="44.06461" lon="6.85164">
        <ele>848</ele>
        <time>2020-06-05T07:17:22.000Z</time>
      </trkpt>
      <trkpt lat="44.06461" lon="6.85163">
        <ele>848</ele>
        <time>2020-06-05T07:17:23.000Z</time>
      </trkpt>
      <trkpt lat="44.0646" lon="6.85162">
        <ele>848</ele>
        <time>2020-06-05T07:17:24.000Z</time>
      </trkpt>
      <trkpt lat="44.0646" lon="6.8516">
        <ele>848</ele>
        <time>2020-06-05T07:17:25.000Z</time>
      </trkpt>
      <trkpt lat="44.0646" lon="6.85159">
        <ele>848</ele>
        <time>2020-06-05T07:17:26.000Z</time>
      </trkpt>
      <trkpt lat="44.0646" lon="6.85158">
        <ele>848</ele>
        <time>2020-06-05T07:17:27.000Z</time>
      </trkpt>
      <trkpt lat="44.0646" lon="6.85156">
        <ele>848</ele>
        <time>2020-06-05T07:17:28.000Z</time>
      </trkpt>
      <trkpt lat="44.0646" lon="6.85155">
        <ele>848</ele>
        <time>2020-06-05T07:17:29.000Z</time>
      </trkpt>
      <trkpt lat="44.0646" lon="6.85154">
        <ele>848</ele>
        <time>2020-06-05T07:17:30.000Z</time>
      </trkpt>
      <trkpt lat="44.0646" lon="6.85152">
        <ele>848</ele>
        <time>2020-06-05T07:17:31.000Z</time>
      </trkpt>
      <trkpt lat="44.0646" lon="6.85151">
        <ele>848</ele>
        <time>2020-06-05T07:17:32.000Z</time>
      </trkpt>
      <trkpt lat="44.0646" lon="6.8515">
        <ele>848</ele>
        <time>2020-06-05T07:17:33.000Z</time>
      </trkpt>
      <trkpt lat="44.0646" lon="6.85148">
        <ele>848</ele>
        <time>2020-06-05T07:17:34.000Z</time>
      </trkpt>
      <trkpt lat="44.0646" lon="6.85148">
        <ele>848</ele>
        <time>2020-06-05T07:17:35.000Z</time>
      </trkpt>
      <trkpt lat="44.06459" lon="6.85148">
        <ele>848</ele>
        <time>2020-06-05T07:17:36.000Z</time>
      </trkpt>
      <trkpt lat="44.06459" lon="6.85148">
        <ele>848</ele>
        <time>2020-06-05T07:17:37.000Z</time>
      </trkpt>
      <trkpt lat="44.06459" lon="6.85148">
        <ele>848</ele>
        <time>2020-06-05T07:17:38.000Z</time>
      </trkpt>
      <trkpt lat="44.06459" lon="6.85149">
        <ele>848</ele>
        <time>2020-06-05T07:17:39.000Z</time>
      </trkpt>
      <trkpt lat="44.06459" lon="6.85151">
        <ele>848</ele>
        <time>2020-06-05T07:17:40.000Z</time>
      </trkpt>
      <trkpt lat="44.06459" lon="6.85152">
        <ele>848</ele>
        <time>2020-06-05T07:17:41.000Z</time>
      </trkpt>
      <trkpt lat="44.06459" lon="6.85154">
        <ele>848</ele>
        <time>2020-06-05T07:17:42.000Z</time>
      </trkpt>
      <trkpt lat="44.06458" lon="6.85155">
        <ele>848</ele>
        <time>2020-06-05T07:17:43.000Z</time>
      </trkpt>
      <trkpt lat="44.06458" lon="6.85155">
        <ele>848</ele>
        <time>2020-06-05T07:17:44.000Z</time>
      </trkpt>
      <trkpt lat="44.06457" lon="6.85155">
        <ele>848</ele>
        <time>2020-06-05T07:17:45.000Z</time>
      </trkpt>
      <trkpt lat="44.06457" lon="6.85154">
        <ele>847</ele>
        <time>2020-06-05T07:17:46.000Z</time>
      </trkpt>
      <trkpt lat="44.06456" lon="6.85154">
        <ele>847</ele>
        <time>2020-06-05T07:17:47.000Z</time>
      </trkpt>
      <trkpt lat="44.06456" lon="6.85153">
        <ele>847</ele>
        <time>2020-06-05T07:17:48.000Z</time>
      </trkpt>
      <trkpt lat="44.06455" lon="6.85152">
        <ele>847</ele>
        <time>2020-06-05T07:17:49.000Z</time>
      </trkpt>
      <trkpt lat="44.06455" lon="6.85151">
        <ele>847</ele>
        <time>2020-06-05T07:17:50.000Z</time>
      </trkpt>
      <trkpt lat="44.06455" lon="6.8515">
        <ele>847</ele>
        <time>2020-06-05T07:17:51.000Z</time>
      </trkpt>
      <trkpt lat="44.06454" lon="6.8515">
        <ele>847</ele>
        <time>2020-06-05T07:17:52.000Z</time>
      </trkpt>
      <trkpt lat="44.06454" lon="6.85149">
        <ele>846</ele>
        <time>2020-06-05T07:17:53.000Z</time>
      </trkpt>
      <trkpt lat="44.06454" lon="6.85148">
        <ele>846</ele>
        <time>2020-06-05T07:17:54.000Z</time>
      </trkpt>
      <trkpt lat="44.06454" lon="6.85147">
        <ele>846</ele>
        <time>2020-06-05T07:17:55.000Z</time>
      </trkpt>
      <trkpt lat="44.06454" lon="6.85147">
        <ele>846</ele>
        <time>2020-06-05T07:17:56.000Z</time>
      </trkpt>
      <trkpt lat="44.06454" lon="6.85147">
        <ele>846</ele>
        <time>2020-06-05T07:17:57.000Z</time>
      </trkpt>
      <trkpt lat="44.06453" lon="6.85146">
        <ele>846</ele>
        <time>2020-06-05T07:17:58.000Z</time>
      </trkpt>
      <trkpt lat="44.06453" lon="6.85146">
        <ele>846</ele>
        <time>2020-06-05T07:17:59.000Z</time>
      </trkpt>
      <trkpt lat="44.06453" lon="6.85146">
        <ele>846</ele>
        <time>2020-06-05T07:18:00.000Z</time>
      </trkpt>
      <trkpt lat="44.06453" lon="6.85146">
        <ele>846</ele>
        <time>2020-06-05T07:18:01.000Z</time>
      </trkpt>
      <trkpt lat="44.06453" lon="6.85146">
        <ele>846</ele>
        <time>2020-06-05T07:18:02.000Z</time>
      </trkpt>
      <trkpt lat="44.06452" lon="6.85145">
        <ele>846</ele>
        <time>2020-06-05T07:18:03.000Z</time>
      </trkpt>
      <trkpt lat="44.06452" lon="6.85145">
        <ele>846</ele>
        <time>2020-06-05T07:18:04.000Z</time>
      </trkpt>
      <trkpt lat="44.06452" lon="6.85145">
        <ele>846</ele>
        <time>2020-06-05T07:18:05.000Z</time>
      </trkpt>
      <trkpt lat="44.06452" lon="6.85145">
        <ele>846</ele>
        <time>2020-06-05T07:18:06.000Z</time>
      </trkpt>
      <trkpt lat="44.06452" lon="6.85145">
        <ele>846</ele>
        <time>2020-06-05T07:18:07.000Z</time>
      </trkpt>
      <trkpt lat="44.06451" lon="6.85145">
        <ele>846</ele>
        <time>2020-06-05T07:18:08.000Z</time>
      </trkpt>
      <trkpt lat="44.06451" lon="6.85145">
        <ele>846</ele>
        <time>2020-06-05T07:18:09.000Z</time>
      </trkpt>
      <trkpt lat="44.0645" lon="6.85144">
        <ele>846</ele>
        <time>2020-06-05T07:18:10.000Z</time>
      </trkpt>
      <trkpt lat="44.0645" lon="6.85144">
        <ele>846</ele>
        <time>2020-06-05T07:18:11.000Z</time>
      </trkpt>
      <trkpt lat="44.0645" lon="6.85144">
        <ele>846</ele>
        <time>2020-06-05T07:18:12.000Z</time>
      </trkpt>
      <trkpt lat="44.0645" lon="6.85144">
        <ele>846</ele>
        <time>2020-06-05T07:18:13.000Z</time>
      </trkpt>
      <trkpt lat="44.0645" lon="6.85145">
        <ele>845</ele>
        <time>2020-06-05T07:18:14.000Z</time>
      </trkpt>
      <trkpt lat="44.0645" lon="6.85145">
        <ele>845</ele>
        <time>2020-06-05T07:18:15.000Z</time>
      </trkpt>
      <trkpt lat="44.0645" lon="6.85146">
        <ele>845</ele>
        <time>2020-06-05T07:18:16.000Z</time>
      </trkpt>
      <trkpt lat="44.06449" lon="6.85148">
        <ele>845</ele>
        <time>2020-06-05T07:18:17.000Z</time>
      </trkpt>
      <trkpt lat="44.06449" lon="6.85149">
        <ele>845</ele>
        <time>2020-06-05T07:18:18.000Z</time>
      </trkpt>
      <trkpt lat="44.06449" lon="6.8515">
        <ele>845</ele>
        <time>2020-06-05T07:18:19.000Z</time>
      </trkpt>
      <trkpt lat="44.06449" lon="6.8515">
        <ele>845</ele>
        <time>2020-06-05T07:18:20.000Z</time>
      </trkpt>
      <trkpt lat="44.06449" lon="6.85149">
        <ele>844</ele>
        <time>2020-06-05T07:18:21.000Z</time>
      </trkpt>
      <trkpt lat="44.06449" lon="6.85149">
        <ele>844</ele>
        <time>2020-06-05T07:18:22.000Z</time>
      </trkpt>
      <trkpt lat="44.06449" lon="6.85149">
        <ele>844</ele>
        <time>2020-06-05T07:18:23.000Z</time>
      </trkpt>
      <trkpt lat="44.06449" lon="6.85149">
        <ele>844</ele>
        <time>2020-06-05T07:18:24.000Z</time>
      </trkpt>
      <trkpt lat="44.06449" lon="6.8515">
        <ele>844</ele>
        <time>2020-06-05T07:18:25.000Z</time>
      </trkpt>
      <trkpt lat="44.06449" lon="6.85151">
        <ele>844</ele>
        <time>2020-06-05T07:18:26.000Z</time>
      </trkpt>
      <trkpt lat="44.06448" lon="6.85153">
        <ele>844</ele>
        <time>2020-06-05T07:18:27.000Z</time>
      </trkpt>
      <trkpt lat="44.06448" lon="6.85154">
        <ele>844</ele>
        <time>2020-06-05T07:18:28.000Z</time>
      </trkpt>
      <trkpt lat="44.06448" lon="6.85155">
        <ele>843</ele>
        <time>2020-06-05T07:18:29.000Z</time>
      </trkpt>
      <trkpt lat="44.06448" lon="6.85157">
        <ele>843</ele>
        <time>2020-06-05T07:18:30.000Z</time>
      </trkpt>
      <trkpt lat="44.06448" lon="6.85158">
        <ele>843</ele>
        <time>2020-06-05T07:18:31.000Z</time>
      </trkpt>
      <trkpt lat="44.06447" lon="6.85159">
        <ele>843</ele>
        <time>2020-06-05T07:18:32.000Z</time>
      </trkpt>
      <trkpt lat="44.06447" lon="6.8516">
        <ele>843</ele>
        <time>2020-06-05T07:18:33.000Z</time>
      </trkpt>
      <trkpt lat="44.06446" lon="6.85161">
        <ele>842</ele>
        <time>2020-06-05T07:18:34.000Z</time>
      </trkpt>
      <trkpt lat="44.06446" lon="6.85163">
        <ele>842</ele>
        <time>2020-06-05T07:18:35.000Z</time>
      </trkpt>
      <trkpt lat="44.06446" lon="6.85164">
        <ele>842</ele>
        <time>2020-06-05T07:18:36.000Z</time>
      </trkpt>
      <trkpt lat="44.06445" lon="6.85165">
        <ele>842</ele>
        <time>2020-06-05T07:18:37.000Z</time>
      </trkpt>
      <trkpt lat="44.06445" lon="6.85166">
        <ele>841</ele>
        <time>2020-06-05T07:18:38.000Z</time>
      </trkpt>
      <trkpt lat="44.06445" lon="6.85167">
        <ele>841</ele>
        <time>2020-06-05T07:18:39.000Z</time>
      </trkpt>
      <trkpt lat="44.06445" lon="6.85169">
        <ele>841</ele>
        <time>2020-06-05T07:18:40.000Z</time>
      </trkpt>
      <trkpt lat="44.06444" lon="6.8517">
        <ele>841</ele>
        <time>2020-06-05T07:18:41.000Z</time>
      </trkpt>
      <trkpt lat="44.06444" lon="6.85171">
        <ele>841</ele>
        <time>2020-06-05T07:18:42.000Z</time>
      </trkpt>
      <trkpt lat="44.06444" lon="6.85172">
        <ele>840</ele>
        <time>2020-06-05T07:18:43.000Z</time>
      </trkpt>
      <trkpt lat="44.06444" lon="6.85173">
        <ele>840</ele>
        <time>2020-06-05T07:18:44.000Z</time>
      </trkpt>
      <trkpt lat="44.06444" lon="6.85174">
        <ele>840</ele>
        <time>2020-06-05T07:18:45.000Z</time>
      </trkpt>
      <trkpt lat="44.06444" lon="6.85176">
        <ele>840</ele>
        <time>2020-06-05T07:18:46.000Z</time>
      </trkpt>
      <trkpt lat="44.06444" lon="6.85176">
        <ele>839</ele>
        <time>2020-06-05T07:18:47.000Z</time>
      </trkpt>
      <trkpt lat="44.06444" lon="6.85177">
        <ele>839</ele>
        <time>2020-06-05T07:18:48.000Z</time>
      </trkpt>
      <trkpt lat="44.06444" lon="6.85179">
        <ele>839</ele>
        <time>2020-06-05T07:18:49.000Z</time>
      </trkpt>
      <trkpt lat="44.06444" lon="6.8518">
        <ele>839</ele>
        <time>2020-06-05T07:18:50.000Z</time>
      </trkpt>
      <trkpt lat="44.06444" lon="6.85182">
        <ele>838</ele>
        <time>2020-06-05T07:18:51.000Z</time>
      </trkpt>
      <trkpt lat="44.06444" lon="6.85184">
        <ele>838</ele>
        <time>2020-06-05T07:18:52.000Z</time>
      </trkpt>
      <trkpt lat="44.06444" lon="6.85185">
        <ele>838</ele>
        <time>2020-06-05T07:18:53.000Z</time>
      </trkpt>
      <trkpt lat="44.06444" lon="6.85186">
        <ele>838</ele>
        <time>2020-06-05T07:18:54.000Z</time>
      </trkpt>
      <trkpt lat="44.06444" lon="6.85188">
        <ele>838</ele>
        <time>2020-06-05T07:18:55.000Z</time>
      </trkpt>
      <trkpt lat="44.06444" lon="6.85189">
        <ele>838</ele>
        <time>2020-06-05T07:18:56.000Z</time>
      </trkpt>
      <trkpt lat="44.06443" lon="6.85191">
        <ele>838</ele>
        <time>2020-06-05T07:18:57.000Z</time>
      </trkpt>
      <trkpt lat="44.06443" lon="6.85192">
        <ele>837</ele>
        <time>2020-06-05T07:18:58.000Z</time>
      </trkpt>
      <trkpt lat="44.06443" lon="6.85193">
        <ele>837</ele>
        <time>2020-06-05T07:18:59.000Z</time>
      </trkpt>
      <trkpt lat="44.06443" lon="6.85195">
        <ele>837</ele>
        <time>2020-06-05T07:19:00.000Z</time>
      </trkpt>
      <trkpt lat="44.06443" lon="6.85196">
        <ele>837</ele>
        <time>2020-06-05T07:19:01.000Z</time>
      </trkpt>
      <trkpt lat="44.06442" lon="6.85197">
        <ele>837</ele>
        <time>2020-06-05T07:19:02.000Z</time>
      </trkpt>
      <trkpt lat="44.06442" lon="6.85199">
        <ele>837</ele>
        <time>2020-06-05T07:19:03.000Z</time>
      </trkpt>
      <trkpt lat="44.06442" lon="6.852">
        <ele>837</ele>
        <time>2020-06-05T07:19:04.000Z</time>
      </trkpt>
      <trkpt lat="44.06442" lon="6.85202">
        <ele>837</ele>
        <time>2020-06-05T07:19:05.000Z</time>
      </trkpt>
      <trkpt lat="44.06442" lon="6.85203">
        <ele>837</ele>
        <time>2020-06-05T07:19:06.000Z</time>
      </trkpt>
      <trkpt lat="44.06442" lon="6.85204">
        <ele>837</ele>
        <time>2020-06-05T07:19:07.000Z</time>
      </trkpt>
      <trkpt lat="44.06442" lon="6.85206">
        <ele>837</ele>
        <time>2020-06-05T07:19:08.000Z</time>
      </trkpt>
      <trkpt lat="44.06442" lon="6.85207">
        <ele>837</ele>
        <time>2020-06-05T07:19:09.000Z</time>
      </trkpt>
      <trkpt lat="44.06442" lon="6.85209">
        <ele>837</ele>
        <time>2020-06-05T07:19:10.000Z</time>
      </trkpt>
      <trkpt lat="44.06442" lon="6.8521">
        <ele>837</ele>
        <time>2020-06-05T07:19:11.000Z</time>
      </trkpt>
      <trkpt lat="44.06442" lon="6.85211">
        <ele>836</ele>
        <time>2020-06-05T07:19:12.000Z</time>
      </trkpt>
      <trkpt lat="44.06442" lon="6.85212">
        <ele>836</ele>
        <time>2020-06-05T07:19:13.000Z</time>
      </trkpt>
      <trkpt lat="44.06442" lon="6.85213">
        <ele>836</ele>
        <time>2020-06-05T07:19:14.000Z</time>
      </trkpt>
      <trkpt lat="44.06441" lon="6.85214">
        <ele>836</ele>
        <time>2020-06-05T07:19:15.000Z</time>
      </trkpt>
      <trkpt lat="44.06441" lon="6.85215">
        <ele>836</ele>
        <time>2020-06-05T07:19:16.000Z</time>
      </trkpt>
      <trkpt lat="44.0644" lon="6.85215">
        <ele>836</ele>
        <time>2020-06-05T07:19:17.000Z</time>
      </trkpt>
      <trkpt lat="44.06439" lon="6.85215">
        <ele>836</ele>
        <time>2020-06-05T07:19:18.000Z</time>
      </trkpt>
      <trkpt lat="44.06438" lon="6.85214">
        <ele>836</ele>
        <time>2020-06-05T07:19:19.000Z</time>
      </trkpt>
      <trkpt lat="44.06438" lon="6.85213">
        <ele>836</ele>
        <time>2020-06-05T07:19:20.000Z</time>
      </trkpt>
      <trkpt lat="44.06438" lon="6.85212">
        <ele>836</ele>
        <time>2020-06-05T07:19:21.000Z</time>
      </trkpt>
      <trkpt lat="44.06437" lon="6.85211">
        <ele>836</ele>
        <time>2020-06-05T07:19:22.000Z</time>
      </trkpt>
      <trkpt lat="44.06437" lon="6.8521">
        <ele>836</ele>
        <time>2020-06-05T07:19:23.000Z</time>
      </trkpt>
      <trkpt lat="44.06436" lon="6.85209">
        <ele>836</ele>
        <time>2020-06-05T07:19:24.000Z</time>
      </trkpt>
      <trkpt lat="44.06435" lon="6.85208">
        <ele>836</ele>
        <time>2020-06-05T07:19:25.000Z</time>
      </trkpt>
      <trkpt lat="44.06435" lon="6.85207">
        <ele>835</ele>
        <time>2020-06-05T07:19:26.000Z</time>
      </trkpt>
      <trkpt lat="44.06435" lon="6.85207">
        <ele>835</ele>
        <time>2020-06-05T07:19:27.000Z</time>
      </trkpt>
      <trkpt lat="44.06435" lon="6.85205">
        <ele>835</ele>
        <time>2020-06-05T07:19:28.000Z</time>
      </trkpt>
      <trkpt lat="44.06435" lon="6.85204">
        <ele>835</ele>
        <time>2020-06-05T07:19:29.000Z</time>
      </trkpt>
      <trkpt lat="44.06434" lon="6.85203">
        <ele>835</ele>
        <time>2020-06-05T07:19:30.000Z</time>
      </trkpt>
      <trkpt lat="44.06434" lon="6.85202">
        <ele>835</ele>
        <time>2020-06-05T07:19:31.000Z</time>
      </trkpt>
      <trkpt lat="44.06433" lon="6.85201">
        <ele>834</ele>
        <time>2020-06-05T07:19:32.000Z</time>
      </trkpt>
      <trkpt lat="44.06433" lon="6.852">
        <ele>834</ele>
        <time>2020-06-05T07:19:33.000Z</time>
      </trkpt>
      <trkpt lat="44.06432" lon="6.85199">
        <ele>834</ele>
        <time>2020-06-05T07:19:34.000Z</time>
      </trkpt>
      <trkpt lat="44.06432" lon="6.85198">
        <ele>834</ele>
        <time>2020-06-05T07:19:35.000Z</time>
      </trkpt>
      <trkpt lat="44.06432" lon="6.85197">
        <ele>834</ele>
        <time>2020-06-05T07:19:36.000Z</time>
      </trkpt>
      <trkpt lat="44.06431" lon="6.85196">
        <ele>834</ele>
        <time>2020-06-05T07:19:37.000Z</time>
      </trkpt>
      <trkpt lat="44.06431" lon="6.85195">
        <ele>833</ele>
        <time>2020-06-05T07:19:38.000Z</time>
      </trkpt>
      <trkpt lat="44.0643" lon="6.85194">
        <ele>833</ele>
        <time>2020-06-05T07:19:39.000Z</time>
      </trkpt>
      <trkpt lat="44.06429" lon="6.85193">
        <ele>833</ele>
        <time>2020-06-05T07:19:40.000Z</time>
      </trkpt>
      <trkpt lat="44.06429" lon="6.85192">
        <ele>833</ele>
        <time>2020-06-05T07:19:41.000Z</time>
      </trkpt>
      <trkpt lat="44.06428" lon="6.85191">
        <ele>833</ele>
        <time>2020-06-05T07:19:42.000Z</time>
      </trkpt>
      <trkpt lat="44.06427" lon="6.8519">
        <ele>833</ele>
        <time>2020-06-05T07:19:43.000Z</time>
      </trkpt>
      <trkpt lat="44.06427" lon="6.8519">
        <ele>832</ele>
        <time>2020-06-05T07:19:44.000Z</time>
      </trkpt>
      <trkpt lat="44.06426" lon="6.85189">
        <ele>832</ele>
        <time>2020-06-05T07:19:45.000Z</time>
      </trkpt>
      <trkpt lat="44.06425" lon="6.85188">
        <ele>832</ele>
        <time>2020-06-05T07:19:46.000Z</time>
      </trkpt>
      <trkpt lat="44.06425" lon="6.85187">
        <ele>832</ele>
        <time>2020-06-05T07:19:47.000Z</time>
      </trkpt>
      <trkpt lat="44.06424" lon="6.85186">
        <ele>832</ele>
        <time>2020-06-05T07:19:48.000Z</time>
      </trkpt>
      <trkpt lat="44.06424" lon="6.85185">
        <ele>832</ele>
        <time>2020-06-05T07:19:49.000Z</time>
      </trkpt>
      <trkpt lat="44.06423" lon="6.85183">
        <ele>831</ele>
        <time>2020-06-05T07:19:50.000Z</time>
      </trkpt>
      <trkpt lat="44.06422" lon="6.85182">
        <ele>831</ele>
        <time>2020-06-05T07:19:51.000Z</time>
      </trkpt>
      <trkpt lat="44.06422" lon="6.85181">
        <ele>831</ele>
        <time>2020-06-05T07:19:52.000Z</time>
      </trkpt>
      <trkpt lat="44.06421" lon="6.8518">
        <ele>831</ele>
        <time>2020-06-05T07:19:53.000Z</time>
      </trkpt>
      <trkpt lat="44.06421" lon="6.85179">
        <ele>831</ele>
        <time>2020-06-05T07:19:54.000Z</time>
      </trkpt>
      <trkpt lat="44.06421" lon="6.85179">
        <ele>831</ele>
        <time>2020-06-05T07:19:55.000Z</time>
      </trkpt>
      <trkpt lat="44.06421" lon="6.85179">
        <ele>831</ele>
        <time>2020-06-05T07:19:56.000Z</time>
      </trkpt>
      <trkpt lat="44.0642" lon="6.8518">
        <ele>830</ele>
        <time>2020-06-05T07:19:57.000Z</time>
      </trkpt>
      <trkpt lat="44.0642" lon="6.85181">
        <ele>830</ele>
        <time>2020-06-05T07:19:58.000Z</time>
      </trkpt>
      <trkpt lat="44.06419" lon="6.85182">
        <ele>830</ele>
        <time>2020-06-05T07:19:59.000Z</time>
      </trkpt>
      <trkpt lat="44.06419" lon="6.85182">
        <ele>830</ele>
        <time>2020-06-05T07:20:00.000Z</time>
      </trkpt>
      <trkpt lat="44.06418" lon="6.85181">
        <ele>830</ele>
        <time>2020-06-05T07:20:01.000Z</time>
      </trkpt>
      <trkpt lat="44.06417" lon="6.85181">
        <ele>829</ele>
        <time>2020-06-05T07:20:02.000Z</time>
      </trkpt>
      <trkpt lat="44.06417" lon="6.8518">
        <ele>829</ele>
        <time>2020-06-05T07:20:03.000Z</time>
      </trkpt>
      <trkpt lat="44.06416" lon="6.85179">
        <ele>829</ele>
        <time>2020-06-05T07:20:04.000Z</time>
      </trkpt>
      <trkpt lat="44.06416" lon="6.85179">
        <ele>829</ele>
        <time>2020-06-05T07:20:05.000Z</time>
      </trkpt>
      <trkpt lat="44.06415" lon="6.85178">
        <ele>829</ele>
        <time>2020-06-05T07:20:06.000Z</time>
      </trkpt>
      <trkpt lat="44.06415" lon="6.85177">
        <ele>829</ele>
        <time>2020-06-05T07:20:07.000Z</time>
      </trkpt>
      <trkpt lat="44.06415" lon="6.85176">
        <ele>829</ele>
        <time>2020-06-05T07:20:08.000Z</time>
      </trkpt>
      <trkpt lat="44.06415" lon="6.85176">
        <ele>829</ele>
        <time>2020-06-05T07:20:09.000Z</time>
      </trkpt>
      <trkpt lat="44.06414" lon="6.85175">
        <ele>829</ele>
        <time>2020-06-05T07:20:10.000Z</time>
      </trkpt>
      <trkpt lat="44.06414" lon="6.85174">
        <ele>829</ele>
        <time>2020-06-05T07:20:11.000Z</time>
      </trkpt>
      <trkpt lat="44.06413" lon="6.85173">
        <ele>828</ele>
        <time>2020-06-05T07:20:12.000Z</time>
      </trkpt>
      <trkpt lat="44.06413" lon="6.85172">
        <ele>828</ele>
        <time>2020-06-05T07:20:13.000Z</time>
      </trkpt>
      <trkpt lat="44.06412" lon="6.85172">
        <ele>828</ele>
        <time>2020-06-05T07:20:14.000Z</time>
      </trkpt>
      <trkpt lat="44.06411" lon="6.85171">
        <ele>828</ele>
        <time>2020-06-05T07:20:15.000Z</time>
      </trkpt>
      <trkpt lat="44.06411" lon="6.8517">
        <ele>828</ele>
        <time>2020-06-05T07:20:16.000Z</time>
      </trkpt>
      <trkpt lat="44.0641" lon="6.8517">
        <ele>828</ele>
        <time>2020-06-05T07:20:17.000Z</time>
      </trkpt>
      <trkpt lat="44.06409" lon="6.85169">
        <ele>828</ele>
        <time>2020-06-05T07:20:18.000Z</time>
      </trkpt>
      <trkpt lat="44.06409" lon="6.85168">
        <ele>828</ele>
        <time>2020-06-05T07:20:19.000Z</time>
      </trkpt>
      <trkpt lat="44.06408" lon="6.85168">
        <ele>828</ele>
        <time>2020-06-05T07:20:20.000Z</time>
      </trkpt>
      <trkpt lat="44.06407" lon="6.85167">
        <ele>828</ele>
        <time>2020-06-05T07:20:21.000Z</time>
      </trkpt>
      <trkpt lat="44.06406" lon="6.85167">
        <ele>828</ele>
        <time>2020-06-05T07:20:22.000Z</time>
      </trkpt>
      <trkpt lat="44.06406" lon="6.85166">
        <ele>828</ele>
        <time>2020-06-05T07:20:23.000Z</time>
      </trkpt>
      <trkpt lat="44.06405" lon="6.85165">
        <ele>828</ele>
        <time>2020-06-05T07:20:24.000Z</time>
      </trkpt>
      <trkpt lat="44.06404" lon="6.85164">
        <ele>828</ele>
        <time>2020-06-05T07:20:25.000Z</time>
      </trkpt>
      <trkpt lat="44.06404" lon="6.85164">
        <ele>828</ele>
        <time>2020-06-05T07:20:26.000Z</time>
      </trkpt>
      <trkpt lat="44.06403" lon="6.85163">
        <ele>827</ele>
        <time>2020-06-05T07:20:27.000Z</time>
      </trkpt>
      <trkpt lat="44.06403" lon="6.85162">
        <ele>827</ele>
        <time>2020-06-05T07:20:28.000Z</time>
      </trkpt>
      <trkpt lat="44.06402" lon="6.85161">
        <ele>827</ele>
        <time>2020-06-05T07:20:29.000Z</time>
      </trkpt>
      <trkpt lat="44.06402" lon="6.8516">
        <ele>827</ele>
        <time>2020-06-05T07:20:30.000Z</time>
      </trkpt>
      <trkpt lat="44.06401" lon="6.85159">
        <ele>827</ele>
        <time>2020-06-05T07:20:31.000Z</time>
      </trkpt>
      <trkpt lat="44.06401" lon="6.85158">
        <ele>827</ele>
        <time>2020-06-05T07:20:32.000Z</time>
      </trkpt>
      <trkpt lat="44.064" lon="6.85157">
        <ele>827</ele>
        <time>2020-06-05T07:20:33.000Z</time>
      </trkpt>
      <trkpt lat="44.064" lon="6.85156">
        <ele>827</ele>
        <time>2020-06-05T07:20:34.000Z</time>
      </trkpt>
      <trkpt lat="44.06399" lon="6.85155">
        <ele>827</ele>
        <time>2020-06-05T07:20:35.000Z</time>
      </trkpt>
      <trkpt lat="44.06399" lon="6.85154">
        <ele>827</ele>
        <time>2020-06-05T07:20:36.000Z</time>
      </trkpt>
      <trkpt lat="44.06398" lon="6.85153">
        <ele>826</ele>
        <time>2020-06-05T07:20:37.000Z</time>
      </trkpt>
      <trkpt lat="44.06398" lon="6.85152">
        <ele>826</ele>
        <time>2020-06-05T07:20:38.000Z</time>
      </trkpt>
      <trkpt lat="44.06397" lon="6.85151">
        <ele>826</ele>
        <time>2020-06-05T07:20:39.000Z</time>
      </trkpt>
      <trkpt lat="44.06397" lon="6.85149">
        <ele>826</ele>
        <time>2020-06-05T07:20:40.000Z</time>
      </trkpt>
      <trkpt lat="44.06397" lon="6.85148">
        <ele>826</ele>
        <time>2020-06-05T07:20:41.000Z</time>
      </trkpt>
      <trkpt lat="44.06396" lon="6.85147">
        <ele>826</ele>
        <time>2020-06-05T07:20:42.000Z</time>
      </trkpt>
      <trkpt lat="44.06396" lon="6.85146">
        <ele>825</ele>
        <time>2020-06-05T07:20:43.000Z</time>
      </trkpt>
      <trkpt lat="44.06395" lon="6.85145">
        <ele>825</ele>
        <time>2020-06-05T07:20:44.000Z</time>
      </trkpt>
      <trkpt lat="44.06395" lon="6.85143">
        <ele>825</ele>
        <time>2020-06-05T07:20:45.000Z</time>
      </trkpt>
      <trkpt lat="44.06395" lon="6.85143">
        <ele>825</ele>
        <time>2020-06-05T07:20:46.000Z</time>
      </trkpt>
      <trkpt lat="44.06394" lon="6.85143">
        <ele>824</ele>
        <time>2020-06-05T07:20:47.000Z</time>
      </trkpt>
      <trkpt lat="44.06394" lon="6.85143">
        <ele>824</ele>
        <time>2020-06-05T07:20:48.000Z</time>
      </trkpt>
      <trkpt lat="44.06393" lon="6.85143">
        <ele>824</ele>
        <time>2020-06-05T07:20:49.000Z</time>
      </trkpt>
      <trkpt lat="44.06393" lon="6.85144">
        <ele>824</ele>
        <time>2020-06-05T07:20:50.000Z</time>
      </trkpt>
      <trkpt lat="44.06392" lon="6.85145">
        <ele>824</ele>
        <time>2020-06-05T07:20:51.000Z</time>
      </trkpt>
      <trkpt lat="44.06392" lon="6.85146">
        <ele>823</ele>
        <time>2020-06-05T07:20:52.000Z</time>
      </trkpt>
      <trkpt lat="44.06392" lon="6.85147">
        <ele>823</ele>
        <time>2020-06-05T07:20:53.000Z</time>
      </trkpt>
      <trkpt lat="44.06392" lon="6.85149">
        <ele>823</ele>
        <time>2020-06-05T07:20:54.000Z</time>
      </trkpt>
      <trkpt lat="44.06391" lon="6.8515">
        <ele>822</ele>
        <time>2020-06-05T07:20:55.000Z</time>
      </trkpt>
      <trkpt lat="44.06391" lon="6.85151">
        <ele>822</ele>
        <time>2020-06-05T07:20:56.000Z</time>
      </trkpt>
      <trkpt lat="44.0639" lon="6.85152">
        <ele>822</ele>
        <time>2020-06-05T07:20:57.000Z</time>
      </trkpt>
      <trkpt lat="44.0639" lon="6.85152">
        <ele>821</ele>
        <time>2020-06-05T07:20:58.000Z</time>
      </trkpt>
      <trkpt lat="44.06389" lon="6.85153">
        <ele>821</ele>
        <time>2020-06-05T07:20:59.000Z</time>
      </trkpt>
      <trkpt lat="44.06388" lon="6.85154">
        <ele>821</ele>
        <time>2020-06-05T07:21:00.000Z</time>
      </trkpt>
      <trkpt lat="44.06387" lon="6.85155">
        <ele>821</ele>
        <time>2020-06-05T07:21:01.000Z</time>
      </trkpt>
      <trkpt lat="44.06387" lon="6.85156">
        <ele>820</ele>
        <time>2020-06-05T07:21:02.000Z</time>
      </trkpt>
      <trkpt lat="44.06386" lon="6.85157">
        <ele>820</ele>
        <time>2020-06-05T07:21:03.000Z</time>
      </trkpt>
      <trkpt lat="44.06385" lon="6.85158">
        <ele>820</ele>
        <time>2020-06-05T07:21:04.000Z</time>
      </trkpt>
      <trkpt lat="44.06385" lon="6.85159">
        <ele>819</ele>
        <time>2020-06-05T07:21:05.000Z</time>
      </trkpt>
      <trkpt lat="44.06384" lon="6.8516">
        <ele>819</ele>
        <time>2020-06-05T07:21:06.000Z</time>
      </trkpt>
      <trkpt lat="44.06384" lon="6.85161">
        <ele>819</ele>
        <time>2020-06-05T07:21:07.000Z</time>
      </trkpt>
      <trkpt lat="44.06383" lon="6.85162">
        <ele>818</ele>
        <time>2020-06-05T07:21:08.000Z</time>
      </trkpt>
      <trkpt lat="44.06382" lon="6.85163">
        <ele>818</ele>
        <time>2020-06-05T07:21:09.000Z</time>
      </trkpt>
      <trkpt lat="44.06381" lon="6.85164">
        <ele>818</ele>
        <time>2020-06-05T07:21:10.000Z</time>
      </trkpt>
      <trkpt lat="44.06381" lon="6.85164">
        <ele>818</ele>
        <time>2020-06-05T07:21:11.000Z</time>
      </trkpt>
      <trkpt lat="44.0638" lon="6.85165">
        <ele>817</ele>
        <time>2020-06-05T07:21:12.000Z</time>
      </trkpt>
      <trkpt lat="44.0638" lon="6.85166">
        <ele>817</ele>
        <time>2020-06-05T07:21:13.000Z</time>
      </trkpt>
      <trkpt lat="44.06379" lon="6.85167">
        <ele>817</ele>
        <time>2020-06-05T07:21:14.000Z</time>
      </trkpt>
      <trkpt lat="44.06378" lon="6.85168">
        <ele>817</ele>
        <time>2020-06-05T07:21:15.000Z</time>
      </trkpt>
      <trkpt lat="44.06378" lon="6.85168">
        <ele>817</ele>
        <time>2020-06-05T07:21:16.000Z</time>
      </trkpt>
      <trkpt lat="44.06377" lon="6.85169">
        <ele>816</ele>
        <time>2020-06-05T07:21:17.000Z</time>
      </trkpt>
      <trkpt lat="44.06376" lon="6.85169">
        <ele>816</ele>
        <time>2020-06-05T07:21:18.000Z</time>
      </trkpt>
      <trkpt lat="44.06375" lon="6.8517">
        <ele>816</ele>
        <time>2020-06-05T07:21:19.000Z</time>
      </trkpt>
      <trkpt lat="44.06375" lon="6.85172">
        <ele>816</ele>
        <time>2020-06-05T07:21:20.000Z</time>
      </trkpt>
      <trkpt lat="44.06374" lon="6.85173">
        <ele>816</ele>
        <time>2020-06-05T07:21:21.000Z</time>
      </trkpt>
      <trkpt lat="44.06373" lon="6.85175">
        <ele>816</ele>
        <time>2020-06-05T07:21:22.000Z</time>
      </trkpt>
      <trkpt lat="44.06372" lon="6.85176">
        <ele>816</ele>
        <time>2020-06-05T07:21:23.000Z</time>
      </trkpt>
      <trkpt lat="44.06372" lon="6.85178">
        <ele>816</ele>
        <time>2020-06-05T07:21:24.000Z</time>
      </trkpt>
      <trkpt lat="44.06372" lon="6.85179">
        <ele>816</ele>
        <time>2020-06-05T07:21:25.000Z</time>
      </trkpt>
      <trkpt lat="44.06372" lon="6.8518">
        <ele>815</ele>
        <time>2020-06-05T07:21:26.000Z</time>
      </trkpt>
      <trkpt lat="44.06372" lon="6.85181">
        <ele>815</ele>
        <time>2020-06-05T07:21:27.000Z</time>
      </trkpt>
      <trkpt lat="44.06371" lon="6.85183">
        <ele>815</ele>
        <time>2020-06-05T07:21:28.000Z</time>
      </trkpt>
      <trkpt lat="44.06371" lon="6.85184">
        <ele>815</ele>
        <time>2020-06-05T07:21:29.000Z</time>
      </trkpt>
      <trkpt lat="44.06371" lon="6.85185">
        <ele>815</ele>
        <time>2020-06-05T07:21:30.000Z</time>
      </trkpt>
      <trkpt lat="44.06371" lon="6.85185">
        <ele>815</ele>
        <time>2020-06-05T07:21:31.000Z</time>
      </trkpt>
      <trkpt lat="44.06371" lon="6.85186">
        <ele>815</ele>
        <time>2020-06-05T07:21:32.000Z</time>
      </trkpt>
      <trkpt lat="44.06371" lon="6.85187">
        <ele>814</ele>
        <time>2020-06-05T07:21:33.000Z</time>
      </trkpt>
      <trkpt lat="44.06371" lon="6.85187">
        <ele>814</ele>
        <time>2020-06-05T07:21:34.000Z</time>
      </trkpt>
      <trkpt lat="44.06371" lon="6.85188">
        <ele>814</ele>
        <time>2020-06-05T07:21:35.000Z</time>
      </trkpt>
      <trkpt lat="44.06371" lon="6.85188">
        <ele>814</ele>
        <time>2020-06-05T07:21:36.000Z</time>
      </trkpt>
      <trkpt lat="44.06371" lon="6.85188">
        <ele>814</ele>
        <time>2020-06-05T07:21:37.000Z</time>
      </trkpt>
      <trkpt lat="44.0637" lon="6.85187">
        <ele>814</ele>
        <time>2020-06-05T07:21:38.000Z</time>
      </trkpt>
      <trkpt lat="44.0637" lon="6.85187">
        <ele>813</ele>
        <time>2020-06-05T07:21:39.000Z</time>
      </trkpt>
      <trkpt lat="44.0637" lon="6.85186">
        <ele>813</ele>
        <time>2020-06-05T07:21:40.000Z</time>
      </trkpt>
      <trkpt lat="44.0637" lon="6.85185">
        <ele>813</ele>
        <time>2020-06-05T07:21:41.000Z</time>
      </trkpt>
      <trkpt lat="44.0637" lon="6.85184">
        <ele>813</ele>
        <time>2020-06-05T07:21:42.000Z</time>
      </trkpt>
      <trkpt lat="44.0637" lon="6.85183">
        <ele>812</ele>
        <time>2020-06-05T07:21:43.000Z</time>
      </trkpt>
      <trkpt lat="44.06371" lon="6.85182">
        <ele>812</ele>
        <time>2020-06-05T07:21:44.000Z</time>
      </trkpt>
      <trkpt lat="44.06371" lon="6.85181">
        <ele>812</ele>
        <time>2020-06-05T07:21:45.000Z</time>
      </trkpt>
      <trkpt lat="44.06371" lon="6.8518">
        <ele>812</ele>
        <time>2020-06-05T07:21:46.000Z</time>
      </trkpt>
      <trkpt lat="44.06371" lon="6.8518">
        <ele>812</ele>
        <time>2020-06-05T07:21:47.000Z</time>
      </trkpt>
      <trkpt lat="44.06371" lon="6.85179">
        <ele>812</ele>
        <time>2020-06-05T07:21:48.000Z</time>
      </trkpt>
      <trkpt lat="44.06371" lon="6.85178">
        <ele>812</ele>
        <time>2020-06-05T07:21:49.000Z</time>
      </trkpt>
      <trkpt lat="44.06371" lon="6.85178">
        <ele>812</ele>
        <time>2020-06-05T07:21:50.000Z</time>
      </trkpt>
      <trkpt lat="44.06371" lon="6.85177">
        <ele>812</ele>
        <time>2020-06-05T07:21:51.000Z</time>
      </trkpt>
      <trkpt lat="44.06371" lon="6.85176">
        <ele>812</ele>
        <time>2020-06-05T07:21:52.000Z</time>
      </trkpt>
      <trkpt lat="44.0637" lon="6.85175">
        <ele>811</ele>
        <time>2020-06-05T07:21:53.000Z</time>
      </trkpt>
      <trkpt lat="44.0637" lon="6.85174">
        <ele>811</ele>
        <time>2020-06-05T07:21:54.000Z</time>
      </trkpt>
      <trkpt lat="44.06371" lon="6.85172">
        <ele>811</ele>
        <time>2020-06-05T07:21:55.000Z</time>
      </trkpt>
      <trkpt lat="44.06371" lon="6.85171">
        <ele>811</ele>
        <time>2020-06-05T07:21:56.000Z</time>
      </trkpt>
      <trkpt lat="44.06371" lon="6.8517">
        <ele>811</ele>
        <time>2020-06-05T07:21:57.000Z</time>
      </trkpt>
      <trkpt lat="44.06371" lon="6.85169">
        <ele>811</ele>
        <time>2020-06-05T07:21:58.000Z</time>
      </trkpt>
      <trkpt lat="44.06371" lon="6.85167">
        <ele>811</ele>
        <time>2020-06-05T07:21:59.000Z</time>
      </trkpt>
      <trkpt lat="44.06371" lon="6.85165">
        <ele>811</ele>
        <time>2020-06-05T07:22:00.000Z</time>
      </trkpt>
      <trkpt lat="44.06372" lon="6.85164">
        <ele>810</ele>
        <time>2020-06-05T07:22:01.000Z</time>
      </trkpt>
      <trkpt lat="44.06372" lon="6.85162">
        <ele>810</ele>
        <time>2020-06-05T07:22:02.000Z</time>
      </trkpt>
      <trkpt lat="44.06372" lon="6.8516">
        <ele>810</ele>
        <time>2020-06-05T07:22:03.000Z</time>
      </trkpt>
      <trkpt lat="44.06372" lon="6.85159">
        <ele>810</ele>
        <time>2020-06-05T07:22:04.000Z</time>
      </trkpt>
      <trkpt lat="44.06372" lon="6.85157">
        <ele>810</ele>
        <time>2020-06-05T07:22:05.000Z</time>
      </trkpt>
      <trkpt lat="44.06372" lon="6.85156">
        <ele>810</ele>
        <time>2020-06-05T07:22:06.000Z</time>
      </trkpt>
      <trkpt lat="44.06373" lon="6.85154">
        <ele>810</ele>
        <time>2020-06-05T07:22:07.000Z</time>
      </trkpt>
      <trkpt lat="44.06373" lon="6.85152">
        <ele>809</ele>
        <time>2020-06-05T07:22:08.000Z</time>
      </trkpt>
      <trkpt lat="44.06373" lon="6.85151">
        <ele>809</ele>
        <time>2020-06-05T07:22:09.000Z</time>
      </trkpt>
      <trkpt lat="44.06372" lon="6.85149">
        <ele>809</ele>
        <time>2020-06-05T07:22:10.000Z</time>
      </trkpt>
      <trkpt lat="44.06372" lon="6.85148">
        <ele>809</ele>
        <time>2020-06-05T07:22:11.000Z</time>
      </trkpt>
      <trkpt lat="44.06372" lon="6.85147">
        <ele>809</ele>
        <time>2020-06-05T07:22:12.000Z</time>
      </trkpt>
      <trkpt lat="44.06372" lon="6.85145">
        <ele>809</ele>
        <time>2020-06-05T07:22:13.000Z</time>
      </trkpt>
      <trkpt lat="44.06373" lon="6.85143">
        <ele>809</ele>
        <time>2020-06-05T07:22:14.000Z</time>
      </trkpt>
      <trkpt lat="44.06373" lon="6.85142">
        <ele>809</ele>
        <time>2020-06-05T07:22:15.000Z</time>
      </trkpt>
      <trkpt lat="44.06373" lon="6.85141">
        <ele>808</ele>
        <time>2020-06-05T07:22:16.000Z</time>
      </trkpt>
      <trkpt lat="44.06374" lon="6.85139">
        <ele>808</ele>
        <time>2020-06-05T07:22:17.000Z</time>
      </trkpt>
      <trkpt lat="44.06374" lon="6.85138">
        <ele>808</ele>
        <time>2020-06-05T07:22:18.000Z</time>
      </trkpt>
      <trkpt lat="44.06374" lon="6.85136">
        <ele>808</ele>
        <time>2020-06-05T07:22:19.000Z</time>
      </trkpt>
      <trkpt lat="44.06374" lon="6.85134">
        <ele>808</ele>
        <time>2020-06-05T07:22:20.000Z</time>
      </trkpt>
      <trkpt lat="44.06374" lon="6.85133">
        <ele>807</ele>
        <time>2020-06-05T07:22:21.000Z</time>
      </trkpt>
      <trkpt lat="44.06374" lon="6.85131">
        <ele>807</ele>
        <time>2020-06-05T07:22:22.000Z</time>
      </trkpt>
      <trkpt lat="44.06374" lon="6.8513">
        <ele>807</ele>
        <time>2020-06-05T07:22:23.000Z</time>
      </trkpt>
      <trkpt lat="44.06374" lon="6.85129">
        <ele>807</ele>
        <time>2020-06-05T07:22:24.000Z</time>
      </trkpt>
      <trkpt lat="44.06374" lon="6.85128">
        <ele>807</ele>
        <time>2020-06-05T07:22:25.000Z</time>
      </trkpt>
      <trkpt lat="44.06374" lon="6.85127">
        <ele>807</ele>
        <time>2020-06-05T07:22:26.000Z</time>
      </trkpt>
      <trkpt lat="44.06374" lon="6.85126">
        <ele>806</ele>
        <time>2020-06-05T07:22:27.000Z</time>
      </trkpt>
      <trkpt lat="44.06373" lon="6.85127">
        <ele>806</ele>
        <time>2020-06-05T07:22:28.000Z</time>
      </trkpt>
      <trkpt lat="44.06373" lon="6.85128">
        <ele>806</ele>
        <time>2020-06-05T07:22:29.000Z</time>
      </trkpt>
      <trkpt lat="44.06373" lon="6.85129">
        <ele>806</ele>
        <time>2020-06-05T07:22:30.000Z</time>
      </trkpt>
      <trkpt lat="44.06372" lon="6.85129">
        <ele>806</ele>
        <time>2020-06-05T07:22:31.000Z</time>
      </trkpt>
      <trkpt lat="44.06372" lon="6.8513">
        <ele>806</ele>
        <time>2020-06-05T07:22:32.000Z</time>
      </trkpt>
      <trkpt lat="44.06371" lon="6.8513">
        <ele>805</ele>
        <time>2020-06-05T07:22:33.000Z</time>
      </trkpt>
      <trkpt lat="44.06371" lon="6.85129">
        <ele>805</ele>
        <time>2020-06-05T07:22:34.000Z</time>
      </trkpt>
      <trkpt lat="44.06371" lon="6.85128">
        <ele>805</ele>
        <time>2020-06-05T07:22:35.000Z</time>
      </trkpt>
      <trkpt lat="44.06371" lon="6.85127">
        <ele>804</ele>
        <time>2020-06-05T07:22:36.000Z</time>
      </trkpt>
      <trkpt lat="44.06371" lon="6.85126">
        <ele>804</ele>
        <time>2020-06-05T07:22:37.000Z</time>
      </trkpt>
      <trkpt lat="44.06372" lon="6.85125">
        <ele>804</ele>
        <time>2020-06-05T07:22:38.000Z</time>
      </trkpt>
      <trkpt lat="44.06372" lon="6.85124">
        <ele>804</ele>
        <time>2020-06-05T07:22:39.000Z</time>
      </trkpt>
      <trkpt lat="44.06372" lon="6.85123">
        <ele>803</ele>
        <time>2020-06-05T07:22:40.000Z</time>
      </trkpt>
      <trkpt lat="44.06372" lon="6.85122">
        <ele>803</ele>
        <time>2020-06-05T07:22:41.000Z</time>
      </trkpt>
      <trkpt lat="44.06371" lon="6.85121">
        <ele>803</ele>
        <time>2020-06-05T07:22:42.000Z</time>
      </trkpt>
      <trkpt lat="44.06371" lon="6.8512">
        <ele>803</ele>
        <time>2020-06-05T07:22:43.000Z</time>
      </trkpt>
      <trkpt lat="44.06371" lon="6.85119">
        <ele>803</ele>
        <time>2020-06-05T07:22:44.000Z</time>
      </trkpt>
      <trkpt lat="44.06371" lon="6.85118">
        <ele>803</ele>
        <time>2020-06-05T07:22:45.000Z</time>
      </trkpt>
      <trkpt lat="44.0637" lon="6.85117">
        <ele>802</ele>
        <time>2020-06-05T07:22:46.000Z</time>
      </trkpt>
      <trkpt lat="44.0637" lon="6.85116">
        <ele>802</ele>
        <time>2020-06-05T07:22:47.000Z</time>
      </trkpt>
      <trkpt lat="44.0637" lon="6.85114">
        <ele>802</ele>
        <time>2020-06-05T07:22:48.000Z</time>
      </trkpt>
      <trkpt lat="44.06369" lon="6.85113">
        <ele>802</ele>
        <time>2020-06-05T07:22:49.000Z</time>
      </trkpt>
      <trkpt lat="44.06369" lon="6.85112">
        <ele>802</ele>
        <time>2020-06-05T07:22:50.000Z</time>
      </trkpt>
      <trkpt lat="44.06369" lon="6.85111">
        <ele>802</ele>
        <time>2020-06-05T07:22:51.000Z</time>
      </trkpt>
      <trkpt lat="44.06368" lon="6.8511">
        <ele>802</ele>
        <time>2020-06-05T07:22:52.000Z</time>
      </trkpt>
      <trkpt lat="44.06368" lon="6.85108">
        <ele>801</ele>
        <time>2020-06-05T07:22:53.000Z</time>
      </trkpt>
      <trkpt lat="44.06368" lon="6.85107">
        <ele>801</ele>
        <time>2020-06-05T07:22:54.000Z</time>
      </trkpt>
      <trkpt lat="44.06367" lon="6.85106">
        <ele>801</ele>
        <time>2020-06-05T07:22:55.000Z</time>
      </trkpt>
      <trkpt lat="44.06367" lon="6.85105">
        <ele>801</ele>
        <time>2020-06-05T07:22:56.000Z</time>
      </trkpt>
      <trkpt lat="44.06366" lon="6.85104">
        <ele>801</ele>
        <time>2020-06-05T07:22:57.000Z</time>
      </trkpt>
      <trkpt lat="44.06366" lon="6.85103">
        <ele>800</ele>
        <time>2020-06-05T07:22:58.000Z</time>
      </trkpt>
      <trkpt lat="44.06365" lon="6.85102">
        <ele>800</ele>
        <time>2020-06-05T07:22:59.000Z</time>
      </trkpt>
      <trkpt lat="44.06365" lon="6.85102">
        <ele>800</ele>
        <time>2020-06-05T07:23:00.000Z</time>
      </trkpt>
      <trkpt lat="44.06364" lon="6.85101">
        <ele>800</ele>
        <time>2020-06-05T07:23:01.000Z</time>
      </trkpt>
      <trkpt lat="44.06364" lon="6.85101">
        <ele>800</ele>
        <time>2020-06-05T07:23:02.000Z</time>
      </trkpt>
      <trkpt lat="44.06363" lon="6.85101">
        <ele>799</ele>
        <time>2020-06-05T07:23:03.000Z</time>
      </trkpt>
      <trkpt lat="44.06363" lon="6.85101">
        <ele>799</ele>
        <time>2020-06-05T07:23:04.000Z</time>
      </trkpt>
      <trkpt lat="44.06363" lon="6.85102">
        <ele>799</ele>
        <time>2020-06-05T07:23:05.000Z</time>
      </trkpt>
      <trkpt lat="44.06363" lon="6.85102">
        <ele>798</ele>
        <time>2020-06-05T07:23:06.000Z</time>
      </trkpt>
      <trkpt lat="44.06363" lon="6.85103">
        <ele>798</ele>
        <time>2020-06-05T07:23:07.000Z</time>
      </trkpt>
      <trkpt lat="44.06363" lon="6.85104">
        <ele>798</ele>
        <time>2020-06-05T07:23:08.000Z</time>
      </trkpt>
      <trkpt lat="44.06362" lon="6.85105">
        <ele>798</ele>
        <time>2020-06-05T07:23:09.000Z</time>
      </trkpt>
      <trkpt lat="44.06362" lon="6.85106">
        <ele>797</ele>
        <time>2020-06-05T07:23:10.000Z</time>
      </trkpt>
      <trkpt lat="44.06362" lon="6.85108">
        <ele>797</ele>
        <time>2020-06-05T07:23:11.000Z</time>
      </trkpt>
      <trkpt lat="44.06362" lon="6.85109">
        <ele>797</ele>
        <time>2020-06-05T07:23:12.000Z</time>
      </trkpt>
      <trkpt lat="44.06362" lon="6.8511">
        <ele>797</ele>
        <time>2020-06-05T07:23:13.000Z</time>
      </trkpt>
      <trkpt lat="44.06361" lon="6.85111">
        <ele>797</ele>
        <time>2020-06-05T07:23:14.000Z</time>
      </trkpt>
      <trkpt lat="44.06361" lon="6.85112">
        <ele>797</ele>
        <time>2020-06-05T07:23:15.000Z</time>
      </trkpt>
      <trkpt lat="44.06361" lon="6.85113">
        <ele>797</ele>
        <time>2020-06-05T07:23:16.000Z</time>
      </trkpt>
      <trkpt lat="44.0636" lon="6.85114">
        <ele>796</ele>
        <time>2020-06-05T07:23:17.000Z</time>
      </trkpt>
      <trkpt lat="44.0636" lon="6.85115">
        <ele>796</ele>
        <time>2020-06-05T07:23:18.000Z</time>
      </trkpt>
      <trkpt lat="44.0636" lon="6.85117">
        <ele>796</ele>
        <time>2020-06-05T07:23:19.000Z</time>
      </trkpt>
      <trkpt lat="44.0636" lon="6.85118">
        <ele>796</ele>
        <time>2020-06-05T07:23:20.000Z</time>
      </trkpt>
      <trkpt lat="44.06359" lon="6.85119">
        <ele>796</ele>
        <time>2020-06-05T07:23:21.000Z</time>
      </trkpt>
      <trkpt lat="44.06359" lon="6.8512">
        <ele>796</ele>
        <time>2020-06-05T07:23:22.000Z</time>
      </trkpt>
      <trkpt lat="44.06359" lon="6.85122">
        <ele>796</ele>
        <time>2020-06-05T07:23:23.000Z</time>
      </trkpt>
      <trkpt lat="44.06359" lon="6.85123">
        <ele>796</ele>
        <time>2020-06-05T07:23:24.000Z</time>
      </trkpt>
      <trkpt lat="44.06358" lon="6.85124">
        <ele>795</ele>
        <time>2020-06-05T07:23:25.000Z</time>
      </trkpt>
      <trkpt lat="44.06358" lon="6.85125">
        <ele>795</ele>
        <time>2020-06-05T07:23:26.000Z</time>
      </trkpt>
      <trkpt lat="44.06358" lon="6.85125">
        <ele>795</ele>
        <time>2020-06-05T07:23:27.000Z</time>
      </trkpt>
      <trkpt lat="44.06357" lon="6.85124">
        <ele>795</ele>
        <time>2020-06-05T07:23:28.000Z</time>
      </trkpt>
      <trkpt lat="44.06357" lon="6.85123">
        <ele>795</ele>
        <time>2020-06-05T07:23:29.000Z</time>
      </trkpt>
      <trkpt lat="44.06357" lon="6.85122">
        <ele>795</ele>
        <time>2020-06-05T07:23:30.000Z</time>
      </trkpt>
      <trkpt lat="44.06357" lon="6.85121">
        <ele>794</ele>
        <time>2020-06-05T07:23:31.000Z</time>
      </trkpt>
      <trkpt lat="44.06357" lon="6.8512">
        <ele>794</ele>
        <time>2020-06-05T07:23:32.000Z</time>
      </trkpt>
      <trkpt lat="44.06357" lon="6.8512">
        <ele>794</ele>
        <time>2020-06-05T07:23:33.000Z</time>
      </trkpt>
      <trkpt lat="44.06356" lon="6.85121">
        <ele>794</ele>
        <time>2020-06-05T07:23:34.000Z</time>
      </trkpt>
      <trkpt lat="44.06356" lon="6.85122">
        <ele>793</ele>
        <time>2020-06-05T07:23:35.000Z</time>
      </trkpt>
      <trkpt lat="44.06355" lon="6.85123">
        <ele>793</ele>
        <time>2020-06-05T07:23:36.000Z</time>
      </trkpt>
      <trkpt lat="44.06355" lon="6.85125">
        <ele>793</ele>
        <time>2020-06-05T07:23:37.000Z</time>
      </trkpt>
      <trkpt lat="44.06355" lon="6.85126">
        <ele>792</ele>
        <time>2020-06-05T07:23:38.000Z</time>
      </trkpt>
      <trkpt lat="44.06355" lon="6.85127">
        <ele>792</ele>
        <time>2020-06-05T07:23:39.000Z</time>
      </trkpt>
      <trkpt lat="44.06355" lon="6.85128">
        <ele>792</ele>
        <time>2020-06-05T07:23:40.000Z</time>
      </trkpt>
      <trkpt lat="44.06355" lon="6.85129">
        <ele>792</ele>
        <time>2020-06-05T07:23:41.000Z</time>
      </trkpt>
      <trkpt lat="44.06355" lon="6.8513">
        <ele>791</ele>
        <time>2020-06-05T07:23:42.000Z</time>
      </trkpt>
      <trkpt lat="44.06354" lon="6.85131">
        <ele>791</ele>
        <time>2020-06-05T07:23:43.000Z</time>
      </trkpt>
      <trkpt lat="44.06354" lon="6.85133">
        <ele>790</ele>
        <time>2020-06-05T07:23:44.000Z</time>
      </trkpt>
      <trkpt lat="44.06354" lon="6.85134">
        <ele>790</ele>
        <time>2020-06-05T07:23:45.000Z</time>
      </trkpt>
      <trkpt lat="44.06353" lon="6.85136">
        <ele>790</ele>
        <time>2020-06-05T07:23:46.000Z</time>
      </trkpt>
      <trkpt lat="44.06352" lon="6.85136">
        <ele>789</ele>
        <time>2020-06-05T07:23:47.000Z</time>
      </trkpt>
      <trkpt lat="44.06352" lon="6.85136">
        <ele>789</ele>
        <time>2020-06-05T07:23:48.000Z</time>
      </trkpt>
      <trkpt lat="44.06352" lon="6.85135">
        <ele>789</ele>
        <time>2020-06-05T07:23:49.000Z</time>
      </trkpt>
      <trkpt lat="44.06352" lon="6.85134">
        <ele>789</ele>
        <time>2020-06-05T07:23:50.000Z</time>
      </trkpt>
      <trkpt lat="44.06352" lon="6.85132">
        <ele>788</ele>
        <time>2020-06-05T07:23:51.000Z</time>
      </trkpt>
      <trkpt lat="44.06352" lon="6.85131">
        <ele>788</ele>
        <time>2020-06-05T07:23:52.000Z</time>
      </trkpt>
      <trkpt lat="44.06352" lon="6.8513">
        <ele>788</ele>
        <time>2020-06-05T07:23:53.000Z</time>
      </trkpt>
      <trkpt lat="44.06352" lon="6.85129">
        <ele>788</ele>
        <time>2020-06-05T07:23:54.000Z</time>
      </trkpt>
      <trkpt lat="44.06353" lon="6.85128">
        <ele>788</ele>
        <time>2020-06-05T07:23:55.000Z</time>
      </trkpt>
      <trkpt lat="44.06353" lon="6.85127">
        <ele>788</ele>
        <time>2020-06-05T07:23:56.000Z</time>
      </trkpt>
      <trkpt lat="44.06353" lon="6.85126">
        <ele>787</ele>
        <time>2020-06-05T07:23:57.000Z</time>
      </trkpt>
      <trkpt lat="44.06353" lon="6.85124">
        <ele>787</ele>
        <time>2020-06-05T07:23:58.000Z</time>
      </trkpt>
      <trkpt lat="44.06353" lon="6.85123">
        <ele>787</ele>
        <time>2020-06-05T07:23:59.000Z</time>
      </trkpt>
      <trkpt lat="44.06353" lon="6.85122">
        <ele>787</ele>
        <time>2020-06-05T07:24:00.000Z</time>
      </trkpt>
      <trkpt lat="44.06353" lon="6.85122">
        <ele>787</ele>
        <time>2020-06-05T07:24:01.000Z</time>
      </trkpt>
      <trkpt lat="44.06353" lon="6.85122">
        <ele>787</ele>
        <time>2020-06-05T07:24:02.000Z</time>
      </trkpt>
      <trkpt lat="44.06353" lon="6.85122">
        <ele>786</ele>
        <time>2020-06-05T07:24:03.000Z</time>
      </trkpt>
      <trkpt lat="44.06353" lon="6.85122">
        <ele>786</ele>
        <time>2020-06-05T07:24:04.000Z</time>
      </trkpt>
      <trkpt lat="44.06353" lon="6.85121">
        <ele>786</ele>
        <time>2020-06-05T07:24:05.000Z</time>
      </trkpt>
      <trkpt lat="44.06353" lon="6.85121">
        <ele>786</ele>
        <time>2020-06-05T07:24:06.000Z</time>
      </trkpt>
      <trkpt lat="44.06353" lon="6.8512">
        <ele>786</ele>
        <time>2020-06-05T07:24:07.000Z</time>
      </trkpt>
      <trkpt lat="44.06353" lon="6.85118">
        <ele>786</ele>
        <time>2020-06-05T07:24:08.000Z</time>
      </trkpt>
      <trkpt lat="44.06353" lon="6.85117">
        <ele>786</ele>
        <time>2020-06-05T07:24:09.000Z</time>
      </trkpt>
      <trkpt lat="44.06353" lon="6.85116">
        <ele>786</ele>
        <time>2020-06-05T07:24:10.000Z</time>
      </trkpt>
      <trkpt lat="44.06353" lon="6.85116">
        <ele>786</ele>
        <time>2020-06-05T07:24:11.000Z</time>
      </trkpt>
      <trkpt lat="44.06353" lon="6.85116">
        <ele>786</ele>
        <time>2020-06-05T07:24:12.000Z</time>
      </trkpt>
      <trkpt lat="44.06353" lon="6.85115">
        <ele>785</ele>
        <time>2020-06-05T07:24:13.000Z</time>
      </trkpt>
      <trkpt lat="44.06353" lon="6.85114">
        <ele>785</ele>
        <time>2020-06-05T07:24:14.000Z</time>
      </trkpt>
      <trkpt lat="44.06353" lon="6.85113">
        <ele>785</ele>
        <time>2020-06-05T07:24:15.000Z</time>
      </trkpt>
      <trkpt lat="44.06353" lon="6.85111">
        <ele>785</ele>
        <time>2020-06-05T07:24:16.000Z</time>
      </trkpt>
      <trkpt lat="44.06353" lon="6.8511">
        <ele>785</ele>
        <time>2020-06-05T07:24:17.000Z</time>
      </trkpt>
      <trkpt lat="44.06353" lon="6.85108">
        <ele>785</ele>
        <time>2020-06-05T07:24:18.000Z</time>
      </trkpt>
      <trkpt lat="44.06353" lon="6.85107">
        <ele>785</ele>
        <time>2020-06-05T07:24:19.000Z</time>
      </trkpt>
      <trkpt lat="44.06353" lon="6.85106">
        <ele>785</ele>
        <time>2020-06-05T07:24:20.000Z</time>
      </trkpt>
      <trkpt lat="44.06352" lon="6.85104">
        <ele>785</ele>
        <time>2020-06-05T07:24:21.000Z</time>
      </trkpt>
      <trkpt lat="44.06352" lon="6.85103">
        <ele>785</ele>
        <time>2020-06-05T07:24:22.000Z</time>
      </trkpt>
      <trkpt lat="44.06352" lon="6.85101">
        <ele>785</ele>
        <time>2020-06-05T07:24:23.000Z</time>
      </trkpt>
      <trkpt lat="44.06352" lon="6.851">
        <ele>785</ele>
        <time>2020-06-05T07:24:24.000Z</time>
      </trkpt>
      <trkpt lat="44.06352" lon="6.85098">
        <ele>785</ele>
        <time>2020-06-05T07:24:25.000Z</time>
      </trkpt>
      <trkpt lat="44.06352" lon="6.85097">
        <ele>784</ele>
        <time>2020-06-05T07:24:26.000Z</time>
      </trkpt>
      <trkpt lat="44.06352" lon="6.85095">
        <ele>784</ele>
        <time>2020-06-05T07:24:27.000Z</time>
      </trkpt>
      <trkpt lat="44.06351" lon="6.85094">
        <ele>784</ele>
        <time>2020-06-05T07:24:28.000Z</time>
      </trkpt>
      <trkpt lat="44.06351" lon="6.85092">
        <ele>784</ele>
        <time>2020-06-05T07:24:29.000Z</time>
      </trkpt>
      <trkpt lat="44.06351" lon="6.8509">
        <ele>784</ele>
        <time>2020-06-05T07:24:30.000Z</time>
      </trkpt>
      <trkpt lat="44.06351" lon="6.85089">
        <ele>784</ele>
        <time>2020-06-05T07:24:31.000Z</time>
      </trkpt>
      <trkpt lat="44.0635" lon="6.85087">
        <ele>784</ele>
        <time>2020-06-05T07:24:32.000Z</time>
      </trkpt>
      <trkpt lat="44.0635" lon="6.85085">
        <ele>783</ele>
        <time>2020-06-05T07:24:33.000Z</time>
      </trkpt>
      <trkpt lat="44.0635" lon="6.85083">
        <ele>783</ele>
        <time>2020-06-05T07:24:34.000Z</time>
      </trkpt>
      <trkpt lat="44.0635" lon="6.85082">
        <ele>783</ele>
        <time>2020-06-05T07:24:35.000Z</time>
      </trkpt>
      <trkpt lat="44.06349" lon="6.8508">
        <ele>783</ele>
        <time>2020-06-05T07:24:36.000Z</time>
      </trkpt>
      <trkpt lat="44.06349" lon="6.85078">
        <ele>783</ele>
        <time>2020-06-05T07:24:37.000Z</time>
      </trkpt>
      <trkpt lat="44.06349" lon="6.85076">
        <ele>783</ele>
        <time>2020-06-05T07:24:38.000Z</time>
      </trkpt>
      <trkpt lat="44.06348" lon="6.85075">
        <ele>783</ele>
        <time>2020-06-05T07:24:39.000Z</time>
      </trkpt>
      <trkpt lat="44.06348" lon="6.85073">
        <ele>783</ele>
        <time>2020-06-05T07:24:40.000Z</time>
      </trkpt>
      <trkpt lat="44.06348" lon="6.85071">
        <ele>783</ele>
        <time>2020-06-05T07:24:41.000Z</time>
      </trkpt>
      <trkpt lat="44.06348" lon="6.8507">
        <ele>783</ele>
        <time>2020-06-05T07:24:42.000Z</time>
      </trkpt>
      <trkpt lat="44.06348" lon="6.85068">
        <ele>783</ele>
        <time>2020-06-05T07:24:43.000Z</time>
      </trkpt>
      <trkpt lat="44.06347" lon="6.85066">
        <ele>783</ele>
        <time>2020-06-05T07:24:44.000Z</time>
      </trkpt>
      <trkpt lat="44.06347" lon="6.85065">
        <ele>783</ele>
        <time>2020-06-05T07:24:45.000Z</time>
      </trkpt>
      <trkpt lat="44.06347" lon="6.85064">
        <ele>783</ele>
        <time>2020-06-05T07:24:46.000Z</time>
      </trkpt>
      <trkpt lat="44.06347" lon="6.85064">
        <ele>783</ele>
        <time>2020-06-05T07:24:47.000Z</time>
      </trkpt>
      <trkpt lat="44.06348" lon="6.85064">
        <ele>784</ele>
        <time>2020-06-05T07:24:48.000Z</time>
      </trkpt>
      <trkpt lat="44.06348" lon="6.85064">
        <ele>784</ele>
        <time>2020-06-05T07:24:49.000Z</time>
      </trkpt>
      <trkpt lat="44.06348" lon="6.85063">
        <ele>784</ele>
        <time>2020-06-05T07:24:50.000Z</time>
      </trkpt>
      <trkpt lat="44.06347" lon="6.85062">
        <ele>784</ele>
        <time>2020-06-05T07:24:51.000Z</time>
      </trkpt>
      <trkpt lat="44.06347" lon="6.8506">
        <ele>784</ele>
        <time>2020-06-05T07:24:52.000Z</time>
      </trkpt>
      <trkpt lat="44.06347" lon="6.85059">
        <ele>784</ele>
        <time>2020-06-05T07:24:53.000Z</time>
      </trkpt>
      <trkpt lat="44.06346" lon="6.85057">
        <ele>783</ele>
        <time>2020-06-05T07:24:54.000Z</time>
      </trkpt>
      <trkpt lat="44.06346" lon="6.85055">
        <ele>783</ele>
        <time>2020-06-05T07:24:55.000Z</time>
      </trkpt>
      <trkpt lat="44.06346" lon="6.85054">
        <ele>783</ele>
        <time>2020-06-05T07:24:56.000Z</time>
      </trkpt>
      <trkpt lat="44.06346" lon="6.85052">
        <ele>783</ele>
        <time>2020-06-05T07:24:57.000Z</time>
      </trkpt>
      <trkpt lat="44.06345" lon="6.85051">
        <ele>783</ele>
        <time>2020-06-05T07:24:58.000Z</time>
      </trkpt>
      <trkpt lat="44.06344" lon="6.8505">
        <ele>783</ele>
        <time>2020-06-05T07:24:59.000Z</time>
      </trkpt>
      <trkpt lat="44.06344" lon="6.85048">
        <ele>783</ele>
        <time>2020-06-05T07:25:00.000Z</time>
      </trkpt>
      <trkpt lat="44.06344" lon="6.85046">
        <ele>783</ele>
        <time>2020-06-05T07:25:01.000Z</time>
      </trkpt>
      <trkpt lat="44.06344" lon="6.85044">
        <ele>783</ele>
        <time>2020-06-05T07:25:02.000Z</time>
      </trkpt>
      <trkpt lat="44.06344" lon="6.85042">
        <ele>783</ele>
        <time>2020-06-05T07:25:03.000Z</time>
      </trkpt>
      <trkpt lat="44.06344" lon="6.85041">
        <ele>783</ele>
        <time>2020-06-05T07:25:04.000Z</time>
      </trkpt>
      <trkpt lat="44.06343" lon="6.85039">
        <ele>783</ele>
        <time>2020-06-05T07:25:05.000Z</time>
      </trkpt>
      <trkpt lat="44.06343" lon="6.85038">
        <ele>783</ele>
        <time>2020-06-05T07:25:06.000Z</time>
      </trkpt>
      <trkpt lat="44.06342" lon="6.85036">
        <ele>783</ele>
        <time>2020-06-05T07:25:07.000Z</time>
      </trkpt>
      <trkpt lat="44.06342" lon="6.85034">
        <ele>783</ele>
        <time>2020-06-05T07:25:08.000Z</time>
      </trkpt>
      <trkpt lat="44.06342" lon="6.85033">
        <ele>783</ele>
        <time>2020-06-05T07:25:09.000Z</time>
      </trkpt>
      <trkpt lat="44.06342" lon="6.85031">
        <ele>783</ele>
        <time>2020-06-05T07:25:10.000Z</time>
      </trkpt>
      <trkpt lat="44.06341" lon="6.85029">
        <ele>783</ele>
        <time>2020-06-05T07:25:11.000Z</time>
      </trkpt>
      <trkpt lat="44.06341" lon="6.85027">
        <ele>783</ele>
        <time>2020-06-05T07:25:12.000Z</time>
      </trkpt>
      <trkpt lat="44.06341" lon="6.85026">
        <ele>783</ele>
        <time>2020-06-05T07:25:13.000Z</time>
      </trkpt>
      <trkpt lat="44.0634" lon="6.85024">
        <ele>783</ele>
        <time>2020-06-05T07:25:14.000Z</time>
      </trkpt>
      <trkpt lat="44.0634" lon="6.85023">
        <ele>783</ele>
        <time>2020-06-05T07:25:15.000Z</time>
      </trkpt>
      <trkpt lat="44.0634" lon="6.85021">
        <ele>783</ele>
        <time>2020-06-05T07:25:16.000Z</time>
      </trkpt>
      <trkpt lat="44.0634" lon="6.8502">
        <ele>783</ele>
        <time>2020-06-05T07:25:17.000Z</time>
      </trkpt>
      <trkpt lat="44.0634" lon="6.85018">
        <ele>783</ele>
        <time>2020-06-05T07:25:18.000Z</time>
      </trkpt>
      <trkpt lat="44.06339" lon="6.85016">
        <ele>783</ele>
        <time>2020-06-05T07:25:19.000Z</time>
      </trkpt>
      <trkpt lat="44.06339" lon="6.85015">
        <ele>783</ele>
        <time>2020-06-05T07:25:20.000Z</time>
      </trkpt>
      <trkpt lat="44.06339" lon="6.85013">
        <ele>783</ele>
        <time>2020-06-05T07:25:21.000Z</time>
      </trkpt>
      <trkpt lat="44.06339" lon="6.85012">
        <ele>783</ele>
        <time>2020-06-05T07:25:22.000Z</time>
      </trkpt>
      <trkpt lat="44.06338" lon="6.8501">
        <ele>783</ele>
        <time>2020-06-05T07:25:23.000Z</time>
      </trkpt>
      <trkpt lat="44.06338" lon="6.85009">
        <ele>783</ele>
        <time>2020-06-05T07:25:24.000Z</time>
      </trkpt>
      <trkpt lat="44.06338" lon="6.85007">
        <ele>783</ele>
        <time>2020-06-05T07:25:25.000Z</time>
      </trkpt>
      <trkpt lat="44.06337" lon="6.85006">
        <ele>783</ele>
        <time>2020-06-05T07:25:26.000Z</time>
      </trkpt>
      <trkpt lat="44.06337" lon="6.85004">
        <ele>783</ele>
        <time>2020-06-05T07:25:27.000Z</time>
      </trkpt>
      <trkpt lat="44.06337" lon="6.85002">
        <ele>783</ele>
        <time>2020-06-05T07:25:28.000Z</time>
      </trkpt>
      <trkpt lat="44.06337" lon="6.85001">
        <ele>783</ele>
        <time>2020-06-05T07:25:29.000Z</time>
      </trkpt>
      <trkpt lat="44.06337" lon="6.85">
        <ele>783</ele>
        <time>2020-06-05T07:25:30.000Z</time>
      </trkpt>
      <trkpt lat="44.06336" lon="6.84999">
        <ele>783</ele>
        <time>2020-06-05T07:25:31.000Z</time>
      </trkpt>
      <trkpt lat="44.06336" lon="6.84998">
        <ele>783</ele>
        <time>2020-06-05T07:25:32.000Z</time>
      </trkpt>
      <trkpt lat="44.06336" lon="6.84998">
        <ele>783</ele>
        <time>2020-06-05T07:25:33.000Z</time>
      </trkpt>
      <trkpt lat="44.06336" lon="6.84997">
        <ele>783</ele>
        <time>2020-06-05T07:25:34.000Z</time>
      </trkpt>
      <trkpt lat="44.06336" lon="6.84996">
        <ele>783</ele>
        <time>2020-06-05T07:25:35.000Z</time>
      </trkpt>
      <trkpt lat="44.06337" lon="6.84994">
        <ele>783</ele>
        <time>2020-06-05T07:25:36.000Z</time>
      </trkpt>
      <trkpt lat="44.06337" lon="6.84993">
        <ele>783</ele>
        <time>2020-06-05T07:25:37.000Z</time>
      </trkpt>
      <trkpt lat="44.06337" lon="6.84992">
        <ele>783</ele>
        <time>2020-06-05T07:25:38.000Z</time>
      </trkpt>
      <trkpt lat="44.06337" lon="6.8499">
        <ele>783</ele>
        <time>2020-06-05T07:25:39.000Z</time>
      </trkpt>
      <trkpt lat="44.06337" lon="6.84989">
        <ele>783</ele>
        <time>2020-06-05T07:25:40.000Z</time>
      </trkpt>
      <trkpt lat="44.06336" lon="6.84988">
        <ele>783</ele>
        <time>2020-06-05T07:25:41.000Z</time>
      </trkpt>
      <trkpt lat="44.06336" lon="6.84986">
        <ele>783</ele>
        <time>2020-06-05T07:25:42.000Z</time>
      </trkpt>
      <trkpt lat="44.06336" lon="6.84985">
        <ele>783</ele>
        <time>2020-06-05T07:25:43.000Z</time>
      </trkpt>
      <trkpt lat="44.06336" lon="6.84983">
        <ele>783</ele>
        <time>2020-06-05T07:25:44.000Z</time>
      </trkpt>
      <trkpt lat="44.06335" lon="6.84982">
        <ele>783</ele>
        <time>2020-06-05T07:25:45.000Z</time>
      </trkpt>
      <trkpt lat="44.06335" lon="6.8498">
        <ele>783</ele>
        <time>2020-06-05T07:25:46.000Z</time>
      </trkpt>
      <trkpt lat="44.06335" lon="6.84979">
        <ele>783</ele>
        <time>2020-06-05T07:25:47.000Z</time>
      </trkpt>
      <trkpt lat="44.06334" lon="6.84977">
        <ele>783</ele>
        <time>2020-06-05T07:25:48.000Z</time>
      </trkpt>
      <trkpt lat="44.06334" lon="6.84975">
        <ele>783</ele>
        <time>2020-06-05T07:25:49.000Z</time>
      </trkpt>
      <trkpt lat="44.06334" lon="6.84974">
        <ele>783</ele>
        <time>2020-06-05T07:25:50.000Z</time>
      </trkpt>
      <trkpt lat="44.06334" lon="6.84972">
        <ele>783</ele>
        <time>2020-06-05T07:25:51.000Z</time>
      </trkpt>
      <trkpt lat="44.06333" lon="6.84971">
        <ele>783</ele>
        <time>2020-06-05T07:25:52.000Z</time>
      </trkpt>
      <trkpt lat="44.06333" lon="6.84969">
        <ele>783</ele>
        <time>2020-06-05T07:25:53.000Z</time>
      </trkpt>
      <trkpt lat="44.06333" lon="6.84967">
        <ele>783</ele>
        <time>2020-06-05T07:25:54.000Z</time>
      </trkpt>
      <trkpt lat="44.06332" lon="6.84966">
        <ele>783</ele>
        <time>2020-06-05T07:25:55.000Z</time>
      </trkpt>
      <trkpt lat="44.06332" lon="6.84964">
        <ele>783</ele>
        <time>2020-06-05T07:25:56.000Z</time>
      </trkpt>
      <trkpt lat="44.06332" lon="6.84963">
        <ele>783</ele>
        <time>2020-06-05T07:25:57.000Z</time>
      </trkpt>
      <trkpt lat="44.06331" lon="6.84961">
        <ele>783</ele>
        <time>2020-06-05T07:25:58.000Z</time>
      </trkpt>
      <trkpt lat="44.06331" lon="6.84959">
        <ele>783</ele>
        <time>2020-06-05T07:25:59.000Z</time>
      </trkpt>
      <trkpt lat="44.06331" lon="6.84957">
        <ele>782</ele>
        <time>2020-06-05T07:26:00.000Z</time>
      </trkpt>
      <trkpt lat="44.06331" lon="6.84956">
        <ele>782</ele>
        <time>2020-06-05T07:26:01.000Z</time>
      </trkpt>
      <trkpt lat="44.06331" lon="6.84954">
        <ele>782</ele>
        <time>2020-06-05T07:26:02.000Z</time>
      </trkpt>
      <trkpt lat="44.06331" lon="6.84953">
        <ele>782</ele>
        <time>2020-06-05T07:26:03.000Z</time>
      </trkpt>
      <trkpt lat="44.0633" lon="6.84951">
        <ele>782</ele>
        <time>2020-06-05T07:26:04.000Z</time>
      </trkpt>
      <trkpt lat="44.0633" lon="6.8495">
        <ele>782</ele>
        <time>2020-06-05T07:26:05.000Z</time>
      </trkpt>
      <trkpt lat="44.0633" lon="6.84948">
        <ele>782</ele>
        <time>2020-06-05T07:26:06.000Z</time>
      </trkpt>
      <trkpt lat="44.0633" lon="6.84947">
        <ele>782</ele>
        <time>2020-06-05T07:26:07.000Z</time>
      </trkpt>
      <trkpt lat="44.0633" lon="6.84945">
        <ele>782</ele>
        <time>2020-06-05T07:26:08.000Z</time>
      </trkpt>
      <trkpt lat="44.06329" lon="6.84944">
        <ele>781</ele>
        <time>2020-06-05T07:26:09.000Z</time>
      </trkpt>
      <trkpt lat="44.06329" lon="6.84942">
        <ele>781</ele>
        <time>2020-06-05T07:26:10.000Z</time>
      </trkpt>
      <trkpt lat="44.06329" lon="6.84941">
        <ele>781</ele>
        <time>2020-06-05T07:26:11.000Z</time>
      </trkpt>
      <trkpt lat="44.06329" lon="6.84939">
        <ele>781</ele>
        <time>2020-06-05T07:26:12.000Z</time>
      </trkpt>
      <trkpt lat="44.06329" lon="6.84937">
        <ele>781</ele>
        <time>2020-06-05T07:26:13.000Z</time>
      </trkpt>
      <trkpt lat="44.06329" lon="6.84936">
        <ele>781</ele>
        <time>2020-06-05T07:26:14.000Z</time>
      </trkpt>
      <trkpt lat="44.06328" lon="6.84935">
        <ele>781</ele>
        <time>2020-06-05T07:26:15.000Z</time>
      </trkpt>
      <trkpt lat="44.06328" lon="6.84933">
        <ele>781</ele>
        <time>2020-06-05T07:26:16.000Z</time>
      </trkpt>
      <trkpt lat="44.06328" lon="6.84932">
        <ele>781</ele>
        <time>2020-06-05T07:26:17.000Z</time>
      </trkpt>
      <trkpt lat="44.06328" lon="6.8493">
        <ele>781</ele>
        <time>2020-06-05T07:26:18.000Z</time>
      </trkpt>
      <trkpt lat="44.06327" lon="6.84928">
        <ele>781</ele>
        <time>2020-06-05T07:26:19.000Z</time>
      </trkpt>
      <trkpt lat="44.06327" lon="6.84926">
        <ele>781</ele>
        <time>2020-06-05T07:26:20.000Z</time>
      </trkpt>
      <trkpt lat="44.06327" lon="6.84924">
        <ele>781</ele>
        <time>2020-06-05T07:26:21.000Z</time>
      </trkpt>
      <trkpt lat="44.06327" lon="6.84923">
        <ele>781</ele>
        <time>2020-06-05T07:26:22.000Z</time>
      </trkpt>
      <trkpt lat="44.06327" lon="6.84921">
        <ele>781</ele>
        <time>2020-06-05T07:26:23.000Z</time>
      </trkpt>
      <trkpt lat="44.06327" lon="6.84919">
        <ele>781</ele>
        <time>2020-06-05T07:26:24.000Z</time>
      </trkpt>
      <trkpt lat="44.06327" lon="6.84918">
        <ele>781</ele>
        <time>2020-06-05T07:26:25.000Z</time>
      </trkpt>
      <trkpt lat="44.06327" lon="6.84916">
        <ele>781</ele>
        <time>2020-06-05T07:26:26.000Z</time>
      </trkpt>
      <trkpt lat="44.06326" lon="6.84914">
        <ele>781</ele>
        <time>2020-06-05T07:26:27.000Z</time>
      </trkpt>
      <trkpt lat="44.06326" lon="6.84913">
        <ele>781</ele>
        <time>2020-06-05T07:26:28.000Z</time>
      </trkpt>
      <trkpt lat="44.06326" lon="6.84911">
        <ele>781</ele>
        <time>2020-06-05T07:26:29.000Z</time>
      </trkpt>
      <trkpt lat="44.06325" lon="6.8491">
        <ele>781</ele>
        <time>2020-06-05T07:26:30.000Z</time>
      </trkpt>
      <trkpt lat="44.06325" lon="6.84908">
        <ele>781</ele>
        <time>2020-06-05T07:26:31.000Z</time>
      </trkpt>
      <trkpt lat="44.06325" lon="6.84907">
        <ele>781</ele>
        <time>2020-06-05T07:26:32.000Z</time>
      </trkpt>
      <trkpt lat="44.06324" lon="6.84907">
        <ele>781</ele>
        <time>2020-06-05T07:26:33.000Z</time>
      </trkpt>
      <trkpt lat="44.06323" lon="6.84905">
        <ele>781</ele>
        <time>2020-06-05T07:26:34.000Z</time>
      </trkpt>
      <trkpt lat="44.06322" lon="6.84904">
        <ele>781</ele>
        <time>2020-06-05T07:26:35.000Z</time>
      </trkpt>
      <trkpt lat="44.06321" lon="6.84903">
        <ele>781</ele>
        <time>2020-06-05T07:26:36.000Z</time>
      </trkpt>
      <trkpt lat="44.0632" lon="6.84902">
        <ele>781</ele>
        <time>2020-06-05T07:26:37.000Z</time>
      </trkpt>
      <trkpt lat="44.0632" lon="6.84901">
        <ele>781</ele>
        <time>2020-06-05T07:26:38.000Z</time>
      </trkpt>
      <trkpt lat="44.06319" lon="6.849">
        <ele>781</ele>
        <time>2020-06-05T07:26:39.000Z</time>
      </trkpt>
      <trkpt lat="44.06318" lon="6.84899">
        <ele>781</ele>
        <time>2020-06-05T07:26:40.000Z</time>
      </trkpt>
      <trkpt lat="44.06318" lon="6.84897">
        <ele>781</ele>
        <time>2020-06-05T07:26:41.000Z</time>
      </trkpt>
      <trkpt lat="44.06317" lon="6.84896">
        <ele>781</ele>
        <time>2020-06-05T07:26:42.000Z</time>
      </trkpt>
      <trkpt lat="44.06317" lon="6.84895">
        <ele>781</ele>
        <time>2020-06-05T07:26:43.000Z</time>
      </trkpt>
      <trkpt lat="44.06316" lon="6.84893">
        <ele>781</ele>
        <time>2020-06-05T07:26:44.000Z</time>
      </trkpt>
      <trkpt lat="44.06316" lon="6.84892">
        <ele>781</ele>
        <time>2020-06-05T07:26:45.000Z</time>
      </trkpt>
      <trkpt lat="44.06315" lon="6.8489">
        <ele>781</ele>
        <time>2020-06-05T07:26:46.000Z</time>
      </trkpt>
      <trkpt lat="44.06314" lon="6.84889">
        <ele>781</ele>
        <time>2020-06-05T07:26:47.000Z</time>
      </trkpt>
      <trkpt lat="44.06314" lon="6.84888">
        <ele>781</ele>
        <time>2020-06-05T07:26:48.000Z</time>
      </trkpt>
      <trkpt lat="44.06313" lon="6.84887">
        <ele>781</ele>
        <time>2020-06-05T07:26:49.000Z</time>
      </trkpt>
      <trkpt lat="44.06313" lon="6.84886">
        <ele>780</ele>
        <time>2020-06-05T07:26:50.000Z</time>
      </trkpt>
      <trkpt lat="44.06312" lon="6.84885">
        <ele>780</ele>
        <time>2020-06-05T07:26:51.000Z</time>
      </trkpt>
      <trkpt lat="44.06311" lon="6.84884">
        <ele>780</ele>
        <time>2020-06-05T07:26:52.000Z</time>
      </trkpt>
      <trkpt lat="44.0631" lon="6.84883">
        <ele>780</ele>
        <time>2020-06-05T07:26:53.000Z</time>
      </trkpt>
      <trkpt lat="44.06309" lon="6.84882">
        <ele>780</ele>
        <time>2020-06-05T07:26:54.000Z</time>
      </trkpt>
      <trkpt lat="44.06309" lon="6.84881">
        <ele>780</ele>
        <time>2020-06-05T07:26:55.000Z</time>
      </trkpt>
      <trkpt lat="44.06307" lon="6.84881">
        <ele>780</ele>
        <time>2020-06-05T07:26:56.000Z</time>
      </trkpt>
      <trkpt lat="44.06306" lon="6.8488">
        <ele>780</ele>
        <time>2020-06-05T07:26:57.000Z</time>
      </trkpt>
      <trkpt lat="44.06305" lon="6.84879">
        <ele>780</ele>
        <time>2020-06-05T07:26:58.000Z</time>
      </trkpt>
      <trkpt lat="44.06304" lon="6.84879">
        <ele>780</ele>
        <time>2020-06-05T07:26:59.000Z</time>
      </trkpt>
      <trkpt lat="44.06303" lon="6.84878">
        <ele>780</ele>
        <time>2020-06-05T07:27:00.000Z</time>
      </trkpt>
      <trkpt lat="44.06302" lon="6.84877">
        <ele>780</ele>
        <time>2020-06-05T07:27:01.000Z</time>
      </trkpt>
      <trkpt lat="44.06301" lon="6.84877">
        <ele>780</ele>
        <time>2020-06-05T07:27:02.000Z</time>
      </trkpt>
      <trkpt lat="44.063" lon="6.84877">
        <ele>780</ele>
        <time>2020-06-05T07:27:03.000Z</time>
      </trkpt>
      <trkpt lat="44.063" lon="6.84876">
        <ele>780</ele>
        <time>2020-06-05T07:27:04.000Z</time>
      </trkpt>
      <trkpt lat="44.063" lon="6.84876">
        <ele>780</ele>
        <time>2020-06-05T07:27:05.000Z</time>
      </trkpt>
      <trkpt lat="44.06299" lon="6.84876">
        <ele>780</ele>
        <time>2020-06-05T07:27:06.000Z</time>
      </trkpt>
      <trkpt lat="44.06299" lon="6.84875">
        <ele>779</ele>
        <time>2020-06-05T07:27:07.000Z</time>
      </trkpt>
      <trkpt lat="44.06299" lon="6.84874">
        <ele>779</ele>
        <time>2020-06-05T07:27:08.000Z</time>
      </trkpt>
      <trkpt lat="44.06299" lon="6.84873">
        <ele>779</ele>
        <time>2020-06-05T07:27:09.000Z</time>
      </trkpt>
      <trkpt lat="44.06298" lon="6.84871">
        <ele>779</ele>
        <time>2020-06-05T07:27:10.000Z</time>
      </trkpt>
      <trkpt lat="44.06297" lon="6.8487">
        <ele>779</ele>
        <time>2020-06-05T07:27:11.000Z</time>
      </trkpt>
      <trkpt lat="44.06297" lon="6.84869">
        <ele>779</ele>
        <time>2020-06-05T07:27:12.000Z</time>
      </trkpt>
      <trkpt lat="44.06296" lon="6.84868">
        <ele>779</ele>
        <time>2020-06-05T07:27:13.000Z</time>
      </trkpt>
      <trkpt lat="44.06295" lon="6.84867">
        <ele>779</ele>
        <time>2020-06-05T07:27:14.000Z</time>
      </trkpt>
      <trkpt lat="44.06294" lon="6.84867">
        <ele>779</ele>
        <time>2020-06-05T07:27:15.000Z</time>
      </trkpt>
      <trkpt lat="44.06292" lon="6.84866">
        <ele>779</ele>
        <time>2020-06-05T07:27:16.000Z</time>
      </trkpt>
      <trkpt lat="44.06291" lon="6.84866">
        <ele>779</ele>
        <time>2020-06-05T07:27:17.000Z</time>
      </trkpt>
      <trkpt lat="44.0629" lon="6.84866">
        <ele>779</ele>
        <time>2020-06-05T07:27:18.000Z</time>
      </trkpt>
      <trkpt lat="44.06289" lon="6.84865">
        <ele>779</ele>
        <time>2020-06-05T07:27:19.000Z</time>
      </trkpt>
      <trkpt lat="44.06287" lon="6.84865">
        <ele>778</ele>
        <time>2020-06-05T07:27:20.000Z</time>
      </trkpt>
      <trkpt lat="44.06286" lon="6.84865">
        <ele>779</ele>
        <time>2020-06-05T07:27:21.000Z</time>
      </trkpt>
      <trkpt lat="44.06285" lon="6.84865">
        <ele>779</ele>
        <time>2020-06-05T07:27:22.000Z</time>
      </trkpt>
      <trkpt lat="44.06284" lon="6.84865">
        <ele>779</ele>
        <time>2020-06-05T07:27:23.000Z</time>
      </trkpt>
      <trkpt lat="44.06282" lon="6.84865">
        <ele>779</ele>
        <time>2020-06-05T07:27:24.000Z</time>
      </trkpt>
      <trkpt lat="44.06281" lon="6.84865">
        <ele>779</ele>
        <time>2020-06-05T07:27:25.000Z</time>
      </trkpt>
      <trkpt lat="44.0628" lon="6.84865">
        <ele>779</ele>
        <time>2020-06-05T07:27:26.000Z</time>
      </trkpt>
      <trkpt lat="44.06278" lon="6.84865">
        <ele>779</ele>
        <time>2020-06-05T07:27:27.000Z</time>
      </trkpt>
      <trkpt lat="44.06277" lon="6.84865">
        <ele>779</ele>
        <time>2020-06-05T07:27:28.000Z</time>
      </trkpt>
      <trkpt lat="44.06276" lon="6.84865">
        <ele>779</ele>
        <time>2020-06-05T07:27:29.000Z</time>
      </trkpt>
      <trkpt lat="44.06275" lon="6.84866">
        <ele>779</ele>
        <time>2020-06-05T07:27:30.000Z</time>
      </trkpt>
      <trkpt lat="44.06274" lon="6.84866">
        <ele>779</ele>
        <time>2020-06-05T07:27:31.000Z</time>
      </trkpt>
      <trkpt lat="44.06273" lon="6.84866">
        <ele>779</ele>
        <time>2020-06-05T07:27:32.000Z</time>
      </trkpt>
      <trkpt lat="44.06271" lon="6.84866">
        <ele>779</ele>
        <time>2020-06-05T07:27:33.000Z</time>
      </trkpt>
      <trkpt lat="44.0627" lon="6.84866">
        <ele>779</ele>
        <time>2020-06-05T07:27:34.000Z</time>
      </trkpt>
      <trkpt lat="44.06269" lon="6.84866">
        <ele>779</ele>
        <time>2020-06-05T07:27:35.000Z</time>
      </trkpt>
      <trkpt lat="44.06268" lon="6.84866">
        <ele>779</ele>
        <time>2020-06-05T07:27:36.000Z</time>
      </trkpt>
      <trkpt lat="44.06266" lon="6.84866">
        <ele>779</ele>
        <time>2020-06-05T07:27:37.000Z</time>
      </trkpt>
      <trkpt lat="44.06265" lon="6.84866">
        <ele>779</ele>
        <time>2020-06-05T07:27:38.000Z</time>
      </trkpt>
      <trkpt lat="44.06264" lon="6.84867">
        <ele>779</ele>
        <time>2020-06-05T07:27:39.000Z</time>
      </trkpt>
      <trkpt lat="44.06263" lon="6.84866">
        <ele>779</ele>
        <time>2020-06-05T07:27:40.000Z</time>
      </trkpt>
      <trkpt lat="44.06262" lon="6.84866">
        <ele>779</ele>
        <time>2020-06-05T07:27:41.000Z</time>
      </trkpt>
      <trkpt lat="44.0626" lon="6.84866">
        <ele>779</ele>
        <time>2020-06-05T07:27:42.000Z</time>
      </trkpt>
      <trkpt lat="44.06259" lon="6.84866">
        <ele>779</ele>
        <time>2020-06-05T07:27:43.000Z</time>
      </trkpt>
      <trkpt lat="44.06258" lon="6.84866">
        <ele>779</ele>
        <time>2020-06-05T07:27:44.000Z</time>
      </trkpt>
      <trkpt lat="44.06256" lon="6.84866">
        <ele>779</ele>
        <time>2020-06-05T07:27:45.000Z</time>
      </trkpt>
      <trkpt lat="44.06255" lon="6.84866">
        <ele>779</ele>
        <time>2020-06-05T07:27:46.000Z</time>
      </trkpt>
      <trkpt lat="44.06254" lon="6.84866">
        <ele>779</ele>
        <time>2020-06-05T07:27:47.000Z</time>
      </trkpt>
      <trkpt lat="44.06252" lon="6.84866">
        <ele>779</ele>
        <time>2020-06-05T07:27:48.000Z</time>
      </trkpt>
      <trkpt lat="44.06251" lon="6.84866">
        <ele>779</ele>
        <time>2020-06-05T07:27:49.000Z</time>
      </trkpt>
      <trkpt lat="44.0625" lon="6.84866">
        <ele>779</ele>
        <time>2020-06-05T07:27:50.000Z</time>
      </trkpt>
      <trkpt lat="44.06248" lon="6.84866">
        <ele>779</ele>
        <time>2020-06-05T07:27:51.000Z</time>
      </trkpt>
      <trkpt lat="44.06247" lon="6.84867">
        <ele>779</ele>
        <time>2020-06-05T07:27:52.000Z</time>
      </trkpt>
      <trkpt lat="44.06246" lon="6.84867">
        <ele>779</ele>
        <time>2020-06-05T07:27:53.000Z</time>
      </trkpt>
      <trkpt lat="44.06245" lon="6.84867">
        <ele>779</ele>
        <time>2020-06-05T07:27:54.000Z</time>
      </trkpt>
      <trkpt lat="44.06243" lon="6.84867">
        <ele>779</ele>
        <time>2020-06-05T07:27:55.000Z</time>
      </trkpt>
      <trkpt lat="44.06242" lon="6.84866">
        <ele>779</ele>
        <time>2020-06-05T07:27:56.000Z</time>
      </trkpt>
      <trkpt lat="44.06241" lon="6.84866">
        <ele>779</ele>
        <time>2020-06-05T07:27:57.000Z</time>
      </trkpt>
      <trkpt lat="44.0624" lon="6.84867">
        <ele>779</ele>
        <time>2020-06-05T07:27:58.000Z</time>
      </trkpt>
      <trkpt lat="44.06239" lon="6.84867">
        <ele>779</ele>
        <time>2020-06-05T07:27:59.000Z</time>
      </trkpt>
      <trkpt lat="44.06238" lon="6.84867">
        <ele>779</ele>
        <time>2020-06-05T07:28:00.000Z</time>
      </trkpt>
      <trkpt lat="44.06236" lon="6.84867">
        <ele>779</ele>
        <time>2020-06-05T07:28:01.000Z</time>
      </trkpt>
      <trkpt lat="44.06235" lon="6.84867">
        <ele>779</ele>
        <time>2020-06-05T07:28:02.000Z</time>
      </trkpt>
      <trkpt lat="44.06234" lon="6.84868">
        <ele>779</ele>
        <time>2020-06-05T07:28:03.000Z</time>
      </trkpt>
      <trkpt lat="44.06233" lon="6.84869">
        <ele>779</ele>
        <time>2020-06-05T07:28:04.000Z</time>
      </trkpt>
      <trkpt lat="44.06232" lon="6.84869">
        <ele>779</ele>
        <time>2020-06-05T07:28:05.000Z</time>
      </trkpt>
      <trkpt lat="44.06231" lon="6.8487">
        <ele>779</ele>
        <time>2020-06-05T07:28:06.000Z</time>
      </trkpt>
      <trkpt lat="44.0623" lon="6.8487">
        <ele>779</ele>
        <time>2020-06-05T07:28:07.000Z</time>
      </trkpt>
      <trkpt lat="44.06229" lon="6.8487">
        <ele>780</ele>
        <time>2020-06-05T07:28:08.000Z</time>
      </trkpt>
      <trkpt lat="44.06229" lon="6.84871">
        <ele>780</ele>
        <time>2020-06-05T07:28:09.000Z</time>
      </trkpt>
      <trkpt lat="44.06228" lon="6.84871">
        <ele>780</ele>
        <time>2020-06-05T07:28:10.000Z</time>
      </trkpt>
      <trkpt lat="44.06228" lon="6.84872">
        <ele>780</ele>
        <time>2020-06-05T07:28:11.000Z</time>
      </trkpt>
      <trkpt lat="44.06227" lon="6.84872">
        <ele>780</ele>
        <time>2020-06-05T07:28:12.000Z</time>
      </trkpt>
      <trkpt lat="44.06227" lon="6.84872">
        <ele>780</ele>
        <time>2020-06-05T07:28:13.000Z</time>
      </trkpt>
      <trkpt lat="44.06226" lon="6.84872">
        <ele>780</ele>
        <time>2020-06-05T07:28:14.000Z</time>
      </trkpt>
      <trkpt lat="44.06226" lon="6.84872">
        <ele>780</ele>
        <time>2020-06-05T07:28:15.000Z</time>
      </trkpt>
      <trkpt lat="44.06226" lon="6.84872">
        <ele>781</ele>
        <time>2020-06-05T07:28:16.000Z</time>
      </trkpt>
      <trkpt lat="44.06226" lon="6.84872">
        <ele>781</ele>
        <time>2020-06-05T07:28:17.000Z</time>
      </trkpt>
      <trkpt lat="44.06226" lon="6.84873">
        <ele>781</ele>
        <time>2020-06-05T07:28:18.000Z</time>
      </trkpt>
      <trkpt lat="44.06225" lon="6.84873">
        <ele>781</ele>
        <time>2020-06-05T07:28:19.000Z</time>
      </trkpt>
      <trkpt lat="44.06224" lon="6.84874">
        <ele>781</ele>
        <time>2020-06-05T07:28:20.000Z</time>
      </trkpt>
      <trkpt lat="44.06223" lon="6.84874">
        <ele>781</ele>
        <time>2020-06-05T07:28:21.000Z</time>
      </trkpt>
      <trkpt lat="44.06223" lon="6.84874">
        <ele>781</ele>
        <time>2020-06-05T07:28:22.000Z</time>
      </trkpt>
      <trkpt lat="44.06223" lon="6.84874">
        <ele>782</ele>
        <time>2020-06-05T07:28:23.000Z</time>
      </trkpt>
      <trkpt lat="44.06223" lon="6.84875">
        <ele>782</ele>
        <time>2020-06-05T07:28:24.000Z</time>
      </trkpt>
      <trkpt lat="44.06222" lon="6.84876">
        <ele>782</ele>
        <time>2020-06-05T07:28:25.000Z</time>
      </trkpt>
      <trkpt lat="44.06221" lon="6.84876">
        <ele>782</ele>
        <time>2020-06-05T07:28:26.000Z</time>
      </trkpt>
      <trkpt lat="44.0622" lon="6.84877">
        <ele>782</ele>
        <time>2020-06-05T07:28:27.000Z</time>
      </trkpt>
      <trkpt lat="44.06219" lon="6.84878">
        <ele>782</ele>
        <time>2020-06-05T07:28:28.000Z</time>
      </trkpt>
      <trkpt lat="44.06218" lon="6.84879">
        <ele>782</ele>
        <time>2020-06-05T07:28:29.000Z</time>
      </trkpt>
      <trkpt lat="44.06217" lon="6.8488">
        <ele>782</ele>
        <time>2020-06-05T07:28:30.000Z</time>
      </trkpt>
      <trkpt lat="44.06216" lon="6.8488">
        <ele>782</ele>
        <time>2020-06-05T07:28:31.000Z</time>
      </trkpt>
      <trkpt lat="44.06215" lon="6.8488">
        <ele>782</ele>
        <time>2020-06-05T07:28:32.000Z</time>
      </trkpt>
      <trkpt lat="44.06215" lon="6.84881">
        <ele>782</ele>
        <time>2020-06-05T07:28:33.000Z</time>
      </trkpt>
      <trkpt lat="44.06214" lon="6.84881">
        <ele>782</ele>
        <time>2020-06-05T07:28:34.000Z</time>
      </trkpt>
      <trkpt lat="44.06214" lon="6.84881">
        <ele>782</ele>
        <time>2020-06-05T07:28:35.000Z</time>
      </trkpt>
      <trkpt lat="44.06213" lon="6.84881">
        <ele>782</ele>
        <time>2020-06-05T07:28:36.000Z</time>
      </trkpt>
      <trkpt lat="44.06213" lon="6.84882">
        <ele>782</ele>
        <time>2020-06-05T07:28:37.000Z</time>
      </trkpt>
      <trkpt lat="44.06212" lon="6.84882">
        <ele>782</ele>
        <time>2020-06-05T07:28:38.000Z</time>
      </trkpt>
      <trkpt lat="44.06211" lon="6.84881">
        <ele>782</ele>
        <time>2020-06-05T07:28:39.000Z</time>
      </trkpt>
      <trkpt lat="44.0621" lon="6.84881">
        <ele>782</ele>
        <time>2020-06-05T07:28:40.000Z</time>
      </trkpt>
      <trkpt lat="44.0621" lon="6.84881">
        <ele>782</ele>
        <time>2020-06-05T07:28:41.000Z</time>
      </trkpt>
      <trkpt lat="44.0621" lon="6.8488">
        <ele>782</ele>
        <time>2020-06-05T07:28:42.000Z</time>
      </trkpt>
      <trkpt lat="44.06209" lon="6.8488">
        <ele>782</ele>
        <time>2020-06-05T07:28:43.000Z</time>
      </trkpt>
      <trkpt lat="44.06209" lon="6.8488">
        <ele>782</ele>
        <time>2020-06-05T07:28:44.000Z</time>
      </trkpt>
      <trkpt lat="44.06209" lon="6.8488">
        <ele>782</ele>
        <time>2020-06-05T07:28:45.000Z</time>
      </trkpt>
      <trkpt lat="44.06209" lon="6.8488">
        <ele>782</ele>
        <time>2020-06-05T07:28:46.000Z</time>
      </trkpt>
      <trkpt lat="44.06209" lon="6.8488">
        <ele>782</ele>
        <time>2020-06-05T07:28:47.000Z</time>
      </trkpt>
      <trkpt lat="44.06209" lon="6.8488">
        <ele>782</ele>
        <time>2020-06-05T07:28:48.000Z</time>
      </trkpt>
      <trkpt lat="44.06209" lon="6.8488">
        <ele>782</ele>
        <time>2020-06-05T07:28:49.000Z</time>
      </trkpt>
      <trkpt lat="44.06209" lon="6.8488">
        <ele>782</ele>
        <time>2020-06-05T07:28:50.000Z</time>
      </trkpt>
      <trkpt lat="44.06209" lon="6.8488">
        <ele>782</ele>
        <time>2020-06-05T07:28:51.000Z</time>
      </trkpt>
      <trkpt lat="44.06209" lon="6.8488">
        <ele>782</ele>
        <time>2020-06-05T07:28:52.000Z</time>
      </trkpt>
      <trkpt lat="44.06208" lon="6.8488">
        <ele>782</ele>
        <time>2020-06-05T07:28:53.000Z</time>
      </trkpt>
      <trkpt lat="44.06208" lon="6.84879">
        <ele>782</ele>
        <time>2020-06-05T07:28:54.000Z</time>
      </trkpt>
      <trkpt lat="44.06208" lon="6.84879">
        <ele>782</ele>
        <time>2020-06-05T07:28:55.000Z</time>
      </trkpt>
      <trkpt lat="44.06208" lon="6.84879">
        <ele>782</ele>
        <time>2020-06-05T07:28:56.000Z</time>
      </trkpt>
      <trkpt lat="44.06208" lon="6.84879">
        <ele>782</ele>
        <time>2020-06-05T07:28:57.000Z</time>
      </trkpt>
      <trkpt lat="44.06208" lon="6.84879">
        <ele>782</ele>
        <time>2020-06-05T07:28:58.000Z</time>
      </trkpt>
      <trkpt lat="44.06208" lon="6.84879">
        <ele>782</ele>
        <time>2020-06-05T07:28:59.000Z</time>
      </trkpt>
      <trkpt lat="44.06208" lon="6.84879">
        <ele>782</ele>
        <time>2020-06-05T07:29:00.000Z</time>
      </trkpt>
      <trkpt lat="44.06208" lon="6.84879">
        <ele>782</ele>
        <time>2020-06-05T07:29:01.000Z</time>
      </trkpt>
      <trkpt lat="44.06208" lon="6.84879">
        <ele>782</ele>
        <time>2020-06-05T07:29:02.000Z</time>
      </trkpt>
      <trkpt lat="44.06208" lon="6.84879">
        <ele>782</ele>
        <time>2020-06-05T07:29:03.000Z</time>
      </trkpt>
      <trkpt lat="44.06207" lon="6.84878">
        <ele>782</ele>
        <time>2020-06-05T07:29:04.000Z</time>
      </trkpt>
      <trkpt lat="44.06207" lon="6.84877">
        <ele>782</ele>
        <time>2020-06-05T07:29:05.000Z</time>
      </trkpt>
      <trkpt lat="44.06207" lon="6.84876">
        <ele>782</ele>
        <time>2020-06-05T07:29:06.000Z</time>
      </trkpt>
      <trkpt lat="44.06207" lon="6.84875">
        <ele>782</ele>
        <time>2020-06-05T07:29:07.000Z</time>
      </trkpt>
      <trkpt lat="44.06207" lon="6.84874">
        <ele>782</ele>
        <time>2020-06-05T07:29:08.000Z</time>
      </trkpt>
      <trkpt lat="44.06206" lon="6.84874">
        <ele>782</ele>
        <time>2020-06-05T07:29:09.000Z</time>
      </trkpt>
      <trkpt lat="44.06206" lon="6.84873">
        <ele>781</ele>
        <time>2020-06-05T07:29:10.000Z</time>
      </trkpt>
      <trkpt lat="44.06206" lon="6.84872">
        <ele>781</ele>
        <time>2020-06-05T07:29:11.000Z</time>
      </trkpt>
      <trkpt lat="44.06206" lon="6.84871">
        <ele>781</ele>
        <time>2020-06-05T07:29:12.000Z</time>
      </trkpt>
      <trkpt lat="44.06205" lon="6.8487">
        <ele>781</ele>
        <time>2020-06-05T07:29:13.000Z</time>
      </trkpt>
      <trkpt lat="44.06205" lon="6.84869">
        <ele>781</ele>
        <time>2020-06-05T07:29:14.000Z</time>
      </trkpt>
      <trkpt lat="44.06205" lon="6.84868">
        <ele>781</ele>
        <time>2020-06-05T07:29:15.000Z</time>
      </trkpt>
      <trkpt lat="44.06205" lon="6.84867">
        <ele>781</ele>
        <time>2020-06-05T07:29:16.000Z</time>
      </trkpt>
      <trkpt lat="44.06205" lon="6.84867">
        <ele>781</ele>
        <time>2020-06-05T07:29:17.000Z</time>
      </trkpt>
      <trkpt lat="44.06204" lon="6.84866">
        <ele>781</ele>
        <time>2020-06-05T07:29:18.000Z</time>
      </trkpt>
      <trkpt lat="44.06204" lon="6.84865">
        <ele>781</ele>
        <time>2020-06-05T07:29:19.000Z</time>
      </trkpt>
      <trkpt lat="44.06204" lon="6.84864">
        <ele>781</ele>
        <time>2020-06-05T07:29:20.000Z</time>
      </trkpt>
      <trkpt lat="44.06204" lon="6.84864">
        <ele>782</ele>
        <time>2020-06-05T07:29:21.000Z</time>
      </trkpt>
      <trkpt lat="44.06204" lon="6.84863">
        <ele>781</ele>
        <time>2020-06-05T07:29:22.000Z</time>
      </trkpt>
      <trkpt lat="44.06203" lon="6.84861">
        <ele>781</ele>
        <time>2020-06-05T07:29:23.000Z</time>
      </trkpt>
      <trkpt lat="44.06203" lon="6.84861">
        <ele>781</ele>
        <time>2020-06-05T07:29:24.000Z</time>
      </trkpt>
      <trkpt lat="44.06203" lon="6.8486">
        <ele>781</ele>
        <time>2020-06-05T07:29:25.000Z</time>
      </trkpt>
      <trkpt lat="44.06203" lon="6.84859">
        <ele>781</ele>
        <time>2020-06-05T07:29:26.000Z</time>
      </trkpt>
      <trkpt lat="44.06203" lon="6.84858">
        <ele>781</ele>
        <time>2020-06-05T07:29:27.000Z</time>
      </trkpt>
      <trkpt lat="44.06202" lon="6.84857">
        <ele>782</ele>
        <time>2020-06-05T07:29:28.000Z</time>
      </trkpt>
      <trkpt lat="44.06202" lon="6.84857">
        <ele>782</ele>
        <time>2020-06-05T07:29:29.000Z</time>
      </trkpt>
      <trkpt lat="44.06202" lon="6.84856">
        <ele>782</ele>
        <time>2020-06-05T07:29:30.000Z</time>
      </trkpt>
      <trkpt lat="44.06202" lon="6.84855">
        <ele>782</ele>
        <time>2020-06-05T07:29:31.000Z</time>
      </trkpt>
      <trkpt lat="44.06202" lon="6.84854">
        <ele>782</ele>
        <time>2020-06-05T07:29:32.000Z</time>
      </trkpt>
      <trkpt lat="44.06202" lon="6.84853">
        <ele>782</ele>
        <time>2020-06-05T07:29:33.000Z</time>
      </trkpt>
      <trkpt lat="44.06202" lon="6.84852">
        <ele>782</ele>
        <time>2020-06-05T07:29:34.000Z</time>
      </trkpt>
      <trkpt lat="44.06202" lon="6.84851">
        <ele>782</ele>
        <time>2020-06-05T07:29:35.000Z</time>
      </trkpt>
      <trkpt lat="44.06202" lon="6.8485">
        <ele>782</ele>
        <time>2020-06-05T07:29:36.000Z</time>
      </trkpt>
      <trkpt lat="44.06202" lon="6.8485">
        <ele>782</ele>
        <time>2020-06-05T07:29:37.000Z</time>
      </trkpt>
      <trkpt lat="44.06202" lon="6.84849">
        <ele>782</ele>
        <time>2020-06-05T07:29:38.000Z</time>
      </trkpt>
      <trkpt lat="44.06202" lon="6.84848">
        <ele>782</ele>
        <time>2020-06-05T07:29:39.000Z</time>
      </trkpt>
      <trkpt lat="44.06202" lon="6.84847">
        <ele>782</ele>
        <time>2020-06-05T07:29:40.000Z</time>
      </trkpt>
      <trkpt lat="44.06202" lon="6.84847">
        <ele>783</ele>
        <time>2020-06-05T07:29:41.000Z</time>
      </trkpt>
      <trkpt lat="44.06202" lon="6.84846">
        <ele>783</ele>
        <time>2020-06-05T07:29:42.000Z</time>
      </trkpt>
      <trkpt lat="44.06202" lon="6.84845">
        <ele>783</ele>
        <time>2020-06-05T07:29:43.000Z</time>
      </trkpt>
      <trkpt lat="44.06202" lon="6.84844">
        <ele>783</ele>
        <time>2020-06-05T07:29:44.000Z</time>
      </trkpt>
      <trkpt lat="44.06201" lon="6.84843">
        <ele>783</ele>
        <time>2020-06-05T07:29:45.000Z</time>
      </trkpt>
      <trkpt lat="44.06201" lon="6.84842">
        <ele>783</ele>
        <time>2020-06-05T07:29:46.000Z</time>
      </trkpt>
      <trkpt lat="44.06201" lon="6.84841">
        <ele>783</ele>
        <time>2020-06-05T07:29:47.000Z</time>
      </trkpt>
      <trkpt lat="44.06201" lon="6.8484">
        <ele>784</ele>
        <time>2020-06-05T07:29:48.000Z</time>
      </trkpt>
      <trkpt lat="44.06201" lon="6.84839">
        <ele>784</ele>
        <time>2020-06-05T07:29:49.000Z</time>
      </trkpt>
      <trkpt lat="44.06202" lon="6.84838">
        <ele>784</ele>
        <time>2020-06-05T07:29:50.000Z</time>
      </trkpt>
      <trkpt lat="44.06202" lon="6.84837">
        <ele>784</ele>
        <time>2020-06-05T07:29:51.000Z</time>
      </trkpt>
      <trkpt lat="44.06202" lon="6.84836">
        <ele>784</ele>
        <time>2020-06-05T07:29:52.000Z</time>
      </trkpt>
      <trkpt lat="44.06202" lon="6.84835">
        <ele>784</ele>
        <time>2020-06-05T07:29:53.000Z</time>
      </trkpt>
      <trkpt lat="44.06201" lon="6.84835">
        <ele>784</ele>
        <time>2020-06-05T07:29:54.000Z</time>
      </trkpt>
      <trkpt lat="44.06201" lon="6.84834">
        <ele>784</ele>
        <time>2020-06-05T07:29:55.000Z</time>
      </trkpt>
      <trkpt lat="44.06201" lon="6.84833">
        <ele>785</ele>
        <time>2020-06-05T07:29:56.000Z</time>
      </trkpt>
      <trkpt lat="44.06201" lon="6.84832">
        <ele>785</ele>
        <time>2020-06-05T07:29:57.000Z</time>
      </trkpt>
      <trkpt lat="44.06201" lon="6.84831">
        <ele>785</ele>
        <time>2020-06-05T07:29:58.000Z</time>
      </trkpt>
      <trkpt lat="44.06201" lon="6.8483">
        <ele>785</ele>
        <time>2020-06-05T07:29:59.000Z</time>
      </trkpt>
      <trkpt lat="44.06201" lon="6.84829">
        <ele>785</ele>
        <time>2020-06-05T07:30:00.000Z</time>
      </trkpt>
      <trkpt lat="44.06201" lon="6.84828">
        <ele>785</ele>
        <time>2020-06-05T07:30:01.000Z</time>
      </trkpt>
      <trkpt lat="44.06201" lon="6.84827">
        <ele>785</ele>
        <time>2020-06-05T07:30:02.000Z</time>
      </trkpt>
      <trkpt lat="44.06201" lon="6.84827">
        <ele>785</ele>
        <time>2020-06-05T07:30:03.000Z</time>
      </trkpt>
      <trkpt lat="44.06201" lon="6.84826">
        <ele>786</ele>
        <time>2020-06-05T07:30:04.000Z</time>
      </trkpt>
      <trkpt lat="44.06202" lon="6.84825">
        <ele>786</ele>
        <time>2020-06-05T07:30:05.000Z</time>
      </trkpt>
      <trkpt lat="44.06202" lon="6.84825">
        <ele>786</ele>
        <time>2020-06-05T07:30:06.000Z</time>
      </trkpt>
      <trkpt lat="44.06202" lon="6.84824">
        <ele>786</ele>
        <time>2020-06-05T07:30:07.000Z</time>
      </trkpt>
      <trkpt lat="44.06202" lon="6.84823">
        <ele>786</ele>
        <time>2020-06-05T07:30:08.000Z</time>
      </trkpt>
      <trkpt lat="44.06202" lon="6.84822">
        <ele>786</ele>
        <time>2020-06-05T07:30:09.000Z</time>
      </trkpt>
      <trkpt lat="44.06202" lon="6.84821">
        <ele>786</ele>
        <time>2020-06-05T07:30:10.000Z</time>
      </trkpt>
      <trkpt lat="44.06202" lon="6.8482">
        <ele>786</ele>
        <time>2020-06-05T07:30:11.000Z</time>
      </trkpt>
      <trkpt lat="44.06202" lon="6.84819">
        <ele>787</ele>
        <time>2020-06-05T07:30:12.000Z</time>
      </trkpt>
      <trkpt lat="44.06202" lon="6.84818">
        <ele>787</ele>
        <time>2020-06-05T07:30:13.000Z</time>
      </trkpt>
      <trkpt lat="44.06202" lon="6.84817">
        <ele>787</ele>
        <time>2020-06-05T07:30:14.000Z</time>
      </trkpt>
      <trkpt lat="44.06202" lon="6.84816">
        <ele>787</ele>
        <time>2020-06-05T07:30:15.000Z</time>
      </trkpt>
      <trkpt lat="44.06202" lon="6.84815">
        <ele>787</ele>
        <time>2020-06-05T07:30:16.000Z</time>
      </trkpt>
      <trkpt lat="44.06202" lon="6.84813">
        <ele>787</ele>
        <time>2020-06-05T07:30:17.000Z</time>
      </trkpt>
      <trkpt lat="44.06202" lon="6.84812">
        <ele>787</ele>
        <time>2020-06-05T07:30:18.000Z</time>
      </trkpt>
      <trkpt lat="44.06202" lon="6.84811">
        <ele>787</ele>
        <time>2020-06-05T07:30:19.000Z</time>
      </trkpt>
      <trkpt lat="44.06202" lon="6.84809">
        <ele>787</ele>
        <time>2020-06-05T07:30:20.000Z</time>
      </trkpt>
      <trkpt lat="44.06202" lon="6.84808">
        <ele>787</ele>
        <time>2020-06-05T07:30:21.000Z</time>
      </trkpt>
      <trkpt lat="44.06202" lon="6.84807">
        <ele>787</ele>
        <time>2020-06-05T07:30:22.000Z</time>
      </trkpt>
      <trkpt lat="44.06202" lon="6.84805">
        <ele>788</ele>
        <time>2020-06-05T07:30:23.000Z</time>
      </trkpt>
      <trkpt lat="44.06202" lon="6.84804">
        <ele>788</ele>
        <time>2020-06-05T07:30:24.000Z</time>
      </trkpt>
      <trkpt lat="44.06202" lon="6.84803">
        <ele>788</ele>
        <time>2020-06-05T07:30:25.000Z</time>
      </trkpt>
      <trkpt lat="44.06202" lon="6.84802">
        <ele>788</ele>
        <time>2020-06-05T07:30:26.000Z</time>
      </trkpt>
      <trkpt lat="44.06202" lon="6.84801">
        <ele>788</ele>
        <time>2020-06-05T07:30:27.000Z</time>
      </trkpt>
      <trkpt lat="44.06202" lon="6.84799">
        <ele>788</ele>
        <time>2020-06-05T07:30:28.000Z</time>
      </trkpt>
      <trkpt lat="44.06202" lon="6.84798">
        <ele>788</ele>
        <time>2020-06-05T07:30:29.000Z</time>
      </trkpt>
      <trkpt lat="44.06202" lon="6.84797">
        <ele>788</ele>
        <time>2020-06-05T07:30:30.000Z</time>
      </trkpt>
      <trkpt lat="44.06202" lon="6.84796">
        <ele>788</ele>
        <time>2020-06-05T07:30:31.000Z</time>
      </trkpt>
      <trkpt lat="44.06202" lon="6.84795">
        <ele>788</ele>
        <time>2020-06-05T07:30:32.000Z</time>
      </trkpt>
      <trkpt lat="44.06202" lon="6.84793">
        <ele>788</ele>
        <time>2020-06-05T07:30:33.000Z</time>
      </trkpt>
      <trkpt lat="44.06201" lon="6.84791">
        <ele>788</ele>
        <time>2020-06-05T07:30:34.000Z</time>
      </trkpt>
      <trkpt lat="44.06201" lon="6.8479">
        <ele>788</ele>
        <time>2020-06-05T07:30:35.000Z</time>
      </trkpt>
      <trkpt lat="44.062" lon="6.84789">
        <ele>788</ele>
        <time>2020-06-05T07:30:36.000Z</time>
      </trkpt>
      <trkpt lat="44.062" lon="6.84787">
        <ele>788</ele>
        <time>2020-06-05T07:30:37.000Z</time>
      </trkpt>
      <trkpt lat="44.062" lon="6.84786">
        <ele>788</ele>
        <time>2020-06-05T07:30:38.000Z</time>
      </trkpt>
      <trkpt lat="44.06199" lon="6.84784">
        <ele>788</ele>
        <time>2020-06-05T07:30:39.000Z</time>
      </trkpt>
      <trkpt lat="44.06199" lon="6.84783">
        <ele>788</ele>
        <time>2020-06-05T07:30:40.000Z</time>
      </trkpt>
      <trkpt lat="44.06199" lon="6.84783">
        <ele>788</ele>
        <time>2020-06-05T07:30:41.000Z</time>
      </trkpt>
      <trkpt lat="44.06199" lon="6.84781">
        <ele>788</ele>
        <time>2020-06-05T07:30:42.000Z</time>
      </trkpt>
      <trkpt lat="44.06199" lon="6.8478">
        <ele>788</ele>
        <time>2020-06-05T07:30:43.000Z</time>
      </trkpt>
      <trkpt lat="44.06199" lon="6.8478">
        <ele>788</ele>
        <time>2020-06-05T07:30:44.000Z</time>
      </trkpt>
      <trkpt lat="44.06199" lon="6.84779">
        <ele>788</ele>
        <time>2020-06-05T07:30:45.000Z</time>
      </trkpt>
      <trkpt lat="44.06199" lon="6.84778">
        <ele>789</ele>
        <time>2020-06-05T07:30:46.000Z</time>
      </trkpt>
      <trkpt lat="44.06199" lon="6.84777">
        <ele>789</ele>
        <time>2020-06-05T07:30:47.000Z</time>
      </trkpt>
      <trkpt lat="44.06199" lon="6.84776">
        <ele>789</ele>
        <time>2020-06-05T07:30:48.000Z</time>
      </trkpt>
      <trkpt lat="44.06199" lon="6.84775">
        <ele>789</ele>
        <time>2020-06-05T07:30:49.000Z</time>
      </trkpt>
      <trkpt lat="44.06199" lon="6.84774">
        <ele>789</ele>
        <time>2020-06-05T07:30:50.000Z</time>
      </trkpt>
      <trkpt lat="44.06199" lon="6.84773">
        <ele>789</ele>
        <time>2020-06-05T07:30:51.000Z</time>
      </trkpt>
      <trkpt lat="44.06199" lon="6.84772">
        <ele>789</ele>
        <time>2020-06-05T07:30:52.000Z</time>
      </trkpt>
      <trkpt lat="44.06199" lon="6.8477">
        <ele>789</ele>
        <time>2020-06-05T07:30:53.000Z</time>
      </trkpt>
      <trkpt lat="44.06199" lon="6.84769">
        <ele>789</ele>
        <time>2020-06-05T07:30:54.000Z</time>
      </trkpt>
      <trkpt lat="44.06199" lon="6.84768">
        <ele>789</ele>
        <time>2020-06-05T07:30:55.000Z</time>
      </trkpt>
      <trkpt lat="44.06199" lon="6.84767">
        <ele>789</ele>
        <time>2020-06-05T07:30:56.000Z</time>
      </trkpt>
      <trkpt lat="44.06199" lon="6.84766">
        <ele>789</ele>
        <time>2020-06-05T07:30:57.000Z</time>
      </trkpt>
      <trkpt lat="44.06199" lon="6.84765">
        <ele>789</ele>
        <time>2020-06-05T07:30:58.000Z</time>
      </trkpt>
      <trkpt lat="44.06199" lon="6.84764">
        <ele>789</ele>
        <time>2020-06-05T07:30:59.000Z</time>
      </trkpt>
      <trkpt lat="44.06199" lon="6.84763">
        <ele>789</ele>
        <time>2020-06-05T07:31:00.000Z</time>
      </trkpt>
      <trkpt lat="44.06199" lon="6.84763">
        <ele>789</ele>
        <time>2020-06-05T07:31:01.000Z</time>
      </trkpt>
      <trkpt lat="44.06199" lon="6.84763">
        <ele>789</ele>
        <time>2020-06-05T07:31:02.000Z</time>
      </trkpt>
      <trkpt lat="44.06199" lon="6.84762">
        <ele>789</ele>
        <time>2020-06-05T07:31:03.000Z</time>
      </trkpt>
      <trkpt lat="44.06199" lon="6.84762">
        <ele>790</ele>
        <time>2020-06-05T07:31:04.000Z</time>
      </trkpt>
      <trkpt lat="44.06199" lon="6.84762">
        <ele>790</ele>
        <time>2020-06-05T07:31:05.000Z</time>
      </trkpt>
      <trkpt lat="44.06199" lon="6.84762">
        <ele>790</ele>
        <time>2020-06-05T07:31:06.000Z</time>
      </trkpt>
      <trkpt lat="44.06199" lon="6.84761">
        <ele>790</ele>
        <time>2020-06-05T07:31:07.000Z</time>
      </trkpt>
      <trkpt lat="44.06199" lon="6.84762">
        <ele>790</ele>
        <time>2020-06-05T07:31:08.000Z</time>
      </trkpt>
      <trkpt lat="44.06199" lon="6.84762">
        <ele>790</ele>
        <time>2020-06-05T07:31:09.000Z</time>
      </trkpt>
      <trkpt lat="44.06199" lon="6.84761">
        <ele>790</ele>
        <time>2020-06-05T07:31:10.000Z</time>
      </trkpt>
      <trkpt lat="44.06199" lon="6.84761">
        <ele>790</ele>
        <time>2020-06-05T07:31:11.000Z</time>
      </trkpt>
      <trkpt lat="44.06199" lon="6.84761">
        <ele>790</ele>
        <time>2020-06-05T07:31:12.000Z</time>
      </trkpt>
      <trkpt lat="44.06199" lon="6.84761">
        <ele>790</ele>
        <time>2020-06-05T07:31:13.000Z</time>
      </trkpt>
      <trkpt lat="44.06199" lon="6.84761">
        <ele>790</ele>
        <time>2020-06-05T07:31:14.000Z</time>
      </trkpt>
      <trkpt lat="44.06199" lon="6.84761">
        <ele>790</ele>
        <time>2020-06-05T07:31:15.000Z</time>
      </trkpt>
      <trkpt lat="44.06199" lon="6.8476">
        <ele>790</ele>
        <time>2020-06-05T07:31:16.000Z</time>
      </trkpt>
      <trkpt lat="44.06199" lon="6.8476">
        <ele>791</ele>
        <time>2020-06-05T07:31:17.000Z</time>
      </trkpt>
      <trkpt lat="44.06199" lon="6.8476">
        <ele>791</ele>
        <time>2020-06-05T07:31:18.000Z</time>
      </trkpt>
      <trkpt lat="44.06199" lon="6.8476">
        <ele>791</ele>
        <time>2020-06-05T07:31:19.000Z</time>
      </trkpt>
      <trkpt lat="44.062" lon="6.8476">
        <ele>791</ele>
        <time>2020-06-05T07:31:20.000Z</time>
      </trkpt>
      <trkpt lat="44.062" lon="6.8476">
        <ele>791</ele>
        <time>2020-06-05T07:31:21.000Z</time>
      </trkpt>
      <trkpt lat="44.062" lon="6.8476">
        <ele>791</ele>
        <time>2020-06-05T07:31:22.000Z</time>
      </trkpt>
      <trkpt lat="44.062" lon="6.8476">
        <ele>791</ele>
        <time>2020-06-05T07:31:23.000Z</time>
      </trkpt>
      <trkpt lat="44.062" lon="6.8476">
        <ele>791</ele>
        <time>2020-06-05T07:31:24.000Z</time>
      </trkpt>
      <trkpt lat="44.062" lon="6.84759">
        <ele>791</ele>
        <time>2020-06-05T07:31:25.000Z</time>
      </trkpt>
      <trkpt lat="44.06201" lon="6.84759">
        <ele>791</ele>
        <time>2020-06-05T07:31:26.000Z</time>
      </trkpt>
      <trkpt lat="44.06201" lon="6.84758">
        <ele>791</ele>
        <time>2020-06-05T07:31:27.000Z</time>
      </trkpt>
      <trkpt lat="44.06201" lon="6.84758">
        <ele>791</ele>
        <time>2020-06-05T07:31:28.000Z</time>
      </trkpt>
      <trkpt lat="44.06201" lon="6.84757">
        <ele>791</ele>
        <time>2020-06-05T07:31:29.000Z</time>
      </trkpt>
      <trkpt lat="44.06201" lon="6.84756">
        <ele>791</ele>
        <time>2020-06-05T07:31:30.000Z</time>
      </trkpt>
      <trkpt lat="44.06201" lon="6.84755">
        <ele>791</ele>
        <time>2020-06-05T07:31:31.000Z</time>
      </trkpt>
      <trkpt lat="44.062" lon="6.84754">
        <ele>791</ele>
        <time>2020-06-05T07:31:32.000Z</time>
      </trkpt>
      <trkpt lat="44.062" lon="6.84754">
        <ele>791</ele>
        <time>2020-06-05T07:31:33.000Z</time>
      </trkpt>
      <trkpt lat="44.062" lon="6.84753">
        <ele>791</ele>
        <time>2020-06-05T07:31:34.000Z</time>
      </trkpt>
      <trkpt lat="44.062" lon="6.84752">
        <ele>791</ele>
        <time>2020-06-05T07:31:35.000Z</time>
      </trkpt>
      <trkpt lat="44.062" lon="6.84751">
        <ele>791</ele>
        <time>2020-06-05T07:31:36.000Z</time>
      </trkpt>
      <trkpt lat="44.06199" lon="6.84751">
        <ele>791</ele>
        <time>2020-06-05T07:31:37.000Z</time>
      </trkpt>
      <trkpt lat="44.06199" lon="6.8475">
        <ele>791</ele>
        <time>2020-06-05T07:31:38.000Z</time>
      </trkpt>
      <trkpt lat="44.06199" lon="6.8475">
        <ele>791</ele>
        <time>2020-06-05T07:31:39.000Z</time>
      </trkpt>
      <trkpt lat="44.06199" lon="6.84749">
        <ele>792</ele>
        <time>2020-06-05T07:31:40.000Z</time>
      </trkpt>
      <trkpt lat="44.06198" lon="6.84749">
        <ele>792</ele>
        <time>2020-06-05T07:31:41.000Z</time>
      </trkpt>
      <trkpt lat="44.06198" lon="6.8475">
        <ele>792</ele>
        <time>2020-06-05T07:31:42.000Z</time>
      </trkpt>
      <trkpt lat="44.06198" lon="6.8475">
        <ele>792</ele>
        <time>2020-06-05T07:31:43.000Z</time>
      </trkpt>
      <trkpt lat="44.06197" lon="6.84751">
        <ele>792</ele>
        <time>2020-06-05T07:31:44.000Z</time>
      </trkpt>
      <trkpt lat="44.06197" lon="6.84752">
        <ele>792</ele>
        <time>2020-06-05T07:31:45.000Z</time>
      </trkpt>
      <trkpt lat="44.06197" lon="6.84753">
        <ele>792</ele>
        <time>2020-06-05T07:31:46.000Z</time>
      </trkpt>
      <trkpt lat="44.06197" lon="6.84754">
        <ele>792</ele>
        <time>2020-06-05T07:31:47.000Z</time>
      </trkpt>
      <trkpt lat="44.06197" lon="6.84755">
        <ele>793</ele>
        <time>2020-06-05T07:31:48.000Z</time>
      </trkpt>
      <trkpt lat="44.06196" lon="6.84756">
        <ele>793</ele>
        <time>2020-06-05T07:31:49.000Z</time>
      </trkpt>
      <trkpt lat="44.06196" lon="6.84757">
        <ele>793</ele>
        <time>2020-06-05T07:31:50.000Z</time>
      </trkpt>
      <trkpt lat="44.06196" lon="6.84758">
        <ele>793</ele>
        <time>2020-06-05T07:31:51.000Z</time>
      </trkpt>
      <trkpt lat="44.06196" lon="6.84759">
        <ele>793</ele>
        <time>2020-06-05T07:31:52.000Z</time>
      </trkpt>
      <trkpt lat="44.06196" lon="6.8476">
        <ele>793</ele>
        <time>2020-06-05T07:31:53.000Z</time>
      </trkpt>
      <trkpt lat="44.06196" lon="6.84761">
        <ele>793</ele>
        <time>2020-06-05T07:31:54.000Z</time>
      </trkpt>
      <trkpt lat="44.06196" lon="6.84762">
        <ele>794</ele>
        <time>2020-06-05T07:31:55.000Z</time>
      </trkpt>
      <trkpt lat="44.06195" lon="6.84764">
        <ele>794</ele>
        <time>2020-06-05T07:31:56.000Z</time>
      </trkpt>
      <trkpt lat="44.06195" lon="6.84765">
        <ele>794</ele>
        <time>2020-06-05T07:31:57.000Z</time>
      </trkpt>
      <trkpt lat="44.06195" lon="6.84766">
        <ele>794</ele>
        <time>2020-06-05T07:31:58.000Z</time>
      </trkpt>
      <trkpt lat="44.06195" lon="6.84767">
        <ele>794</ele>
        <time>2020-06-05T07:31:59.000Z</time>
      </trkpt>
      <trkpt lat="44.06196" lon="6.84768">
        <ele>794</ele>
        <time>2020-06-05T07:32:00.000Z</time>
      </trkpt>
      <trkpt lat="44.06196" lon="6.84769">
        <ele>795</ele>
        <time>2020-06-05T07:32:01.000Z</time>
      </trkpt>
      <trkpt lat="44.06195" lon="6.84771">
        <ele>795</ele>
        <time>2020-06-05T07:32:02.000Z</time>
      </trkpt>
      <trkpt lat="44.06195" lon="6.84772">
        <ele>795</ele>
        <time>2020-06-05T07:32:03.000Z</time>
      </trkpt>
      <trkpt lat="44.06196" lon="6.84773">
        <ele>795</ele>
        <time>2020-06-05T07:32:04.000Z</time>
      </trkpt>
      <trkpt lat="44.06196" lon="6.84774">
        <ele>795</ele>
        <time>2020-06-05T07:32:05.000Z</time>
      </trkpt>
      <trkpt lat="44.06196" lon="6.84776">
        <ele>795</ele>
        <time>2020-06-05T07:32:06.000Z</time>
      </trkpt>
      <trkpt lat="44.06196" lon="6.84777">
        <ele>795</ele>
        <time>2020-06-05T07:32:07.000Z</time>
      </trkpt>
      <trkpt lat="44.06196" lon="6.84778">
        <ele>795</ele>
        <time>2020-06-05T07:32:08.000Z</time>
      </trkpt>
      <trkpt lat="44.06196" lon="6.84779">
        <ele>796</ele>
        <time>2020-06-05T07:32:09.000Z</time>
      </trkpt>
      <trkpt lat="44.06196" lon="6.8478">
        <ele>796</ele>
        <time>2020-06-05T07:32:10.000Z</time>
      </trkpt>
      <trkpt lat="44.06196" lon="6.84782">
        <ele>796</ele>
        <time>2020-06-05T07:32:11.000Z</time>
      </trkpt>
      <trkpt lat="44.06196" lon="6.84783">
        <ele>796</ele>
        <time>2020-06-05T07:32:12.000Z</time>
      </trkpt>
      <trkpt lat="44.06196" lon="6.84784">
        <ele>797</ele>
        <time>2020-06-05T07:32:13.000Z</time>
      </trkpt>
      <trkpt lat="44.06196" lon="6.84784">
        <ele>797</ele>
        <time>2020-06-05T07:32:14.000Z</time>
      </trkpt>
      <trkpt lat="44.06196" lon="6.84785">
        <ele>797</ele>
        <time>2020-06-05T07:32:15.000Z</time>
      </trkpt>
      <trkpt lat="44.06196" lon="6.84787">
        <ele>797</ele>
        <time>2020-06-05T07:32:16.000Z</time>
      </trkpt>
      <trkpt lat="44.06196" lon="6.84788">
        <ele>797</ele>
        <time>2020-06-05T07:32:17.000Z</time>
      </trkpt>
      <trkpt lat="44.06196" lon="6.84789">
        <ele>798</ele>
        <time>2020-06-05T07:32:18.000Z</time>
      </trkpt>
      <trkpt lat="44.06195" lon="6.8479">
        <ele>798</ele>
        <time>2020-06-05T07:32:19.000Z</time>
      </trkpt>
      <trkpt lat="44.06195" lon="6.84791">
        <ele>798</ele>
        <time>2020-06-05T07:32:20.000Z</time>
      </trkpt>
      <trkpt lat="44.06195" lon="6.84792">
        <ele>798</ele>
        <time>2020-06-05T07:32:21.000Z</time>
      </trkpt>
      <trkpt lat="44.06195" lon="6.84793">
        <ele>798</ele>
        <time>2020-06-05T07:32:22.000Z</time>
      </trkpt>
      <trkpt lat="44.06195" lon="6.84794">
        <ele>798</ele>
        <time>2020-06-05T07:32:23.000Z</time>
      </trkpt>
      <trkpt lat="44.06195" lon="6.84795">
        <ele>798</ele>
        <time>2020-06-05T07:32:24.000Z</time>
      </trkpt>
      <trkpt lat="44.06194" lon="6.84796">
        <ele>799</ele>
        <time>2020-06-05T07:32:25.000Z</time>
      </trkpt>
      <trkpt lat="44.06194" lon="6.84796">
        <ele>799</ele>
        <time>2020-06-05T07:32:26.000Z</time>
      </trkpt>
      <trkpt lat="44.06194" lon="6.84797">
        <ele>799</ele>
        <time>2020-06-05T07:32:27.000Z</time>
      </trkpt>
      <trkpt lat="44.06194" lon="6.84798">
        <ele>799</ele>
        <time>2020-06-05T07:32:28.000Z</time>
      </trkpt>
      <trkpt lat="44.06194" lon="6.84799">
        <ele>799</ele>
        <time>2020-06-05T07:32:29.000Z</time>
      </trkpt>
      <trkpt lat="44.06194" lon="6.84801">
        <ele>799</ele>
        <time>2020-06-05T07:32:30.000Z</time>
      </trkpt>
      <trkpt lat="44.06194" lon="6.84801">
        <ele>800</ele>
        <time>2020-06-05T07:32:31.000Z</time>
      </trkpt>
      <trkpt lat="44.06194" lon="6.84802">
        <ele>800</ele>
        <time>2020-06-05T07:32:32.000Z</time>
      </trkpt>
      <trkpt lat="44.06193" lon="6.84804">
        <ele>800</ele>
        <time>2020-06-05T07:32:33.000Z</time>
      </trkpt>
      <trkpt lat="44.06193" lon="6.84804">
        <ele>800</ele>
        <time>2020-06-05T07:32:34.000Z</time>
      </trkpt>
      <trkpt lat="44.06192" lon="6.84805">
        <ele>800</ele>
        <time>2020-06-05T07:32:35.000Z</time>
      </trkpt>
      <trkpt lat="44.06191" lon="6.84806">
        <ele>801</ele>
        <time>2020-06-05T07:32:36.000Z</time>
      </trkpt>
      <trkpt lat="44.0619" lon="6.84807">
        <ele>801</ele>
        <time>2020-06-05T07:32:37.000Z</time>
      </trkpt>
      <trkpt lat="44.0619" lon="6.84808">
        <ele>801</ele>
        <time>2020-06-05T07:32:38.000Z</time>
      </trkpt>
      <trkpt lat="44.06189" lon="6.84809">
        <ele>801</ele>
        <time>2020-06-05T07:32:39.000Z</time>
      </trkpt>
      <trkpt lat="44.06188" lon="6.84809">
        <ele>801</ele>
        <time>2020-06-05T07:32:40.000Z</time>
      </trkpt>
      <trkpt lat="44.06188" lon="6.8481">
        <ele>801</ele>
        <time>2020-06-05T07:32:41.000Z</time>
      </trkpt>
      <trkpt lat="44.06187" lon="6.8481">
        <ele>801</ele>
        <time>2020-06-05T07:32:42.000Z</time>
      </trkpt>
      <trkpt lat="44.06186" lon="6.84811">
        <ele>801</ele>
        <time>2020-06-05T07:32:43.000Z</time>
      </trkpt>
      <trkpt lat="44.06185" lon="6.84812">
        <ele>801</ele>
        <time>2020-06-05T07:32:44.000Z</time>
      </trkpt>
      <trkpt lat="44.06185" lon="6.84812">
        <ele>801</ele>
        <time>2020-06-05T07:32:45.000Z</time>
      </trkpt>
      <trkpt lat="44.06184" lon="6.84813">
        <ele>801</ele>
        <time>2020-06-05T07:32:46.000Z</time>
      </trkpt>
      <trkpt lat="44.06183" lon="6.84813">
        <ele>801</ele>
        <time>2020-06-05T07:32:47.000Z</time>
      </trkpt>
      <trkpt lat="44.06183" lon="6.84814">
        <ele>801</ele>
        <time>2020-06-05T07:32:48.000Z</time>
      </trkpt>
      <trkpt lat="44.06182" lon="6.84815">
        <ele>801</ele>
        <time>2020-06-05T07:32:49.000Z</time>
      </trkpt>
      <trkpt lat="44.06181" lon="6.84815">
        <ele>801</ele>
        <time>2020-06-05T07:32:50.000Z</time>
      </trkpt>
      <trkpt lat="44.0618" lon="6.84816">
        <ele>801</ele>
        <time>2020-06-05T07:32:51.000Z</time>
      </trkpt>
      <trkpt lat="44.0618" lon="6.84817">
        <ele>802</ele>
        <time>2020-06-05T07:32:52.000Z</time>
      </trkpt>
      <trkpt lat="44.0618" lon="6.84817">
        <ele>802</ele>
        <time>2020-06-05T07:32:53.000Z</time>
      </trkpt>
      <trkpt lat="44.0618" lon="6.84818">
        <ele>802</ele>
        <time>2020-06-05T07:32:54.000Z</time>
      </trkpt>
      <trkpt lat="44.06179" lon="6.84819">
        <ele>802</ele>
        <time>2020-06-05T07:32:55.000Z</time>
      </trkpt>
      <trkpt lat="44.06179" lon="6.8482">
        <ele>802</ele>
        <time>2020-06-05T07:32:56.000Z</time>
      </trkpt>
      <trkpt lat="44.06179" lon="6.84821">
        <ele>802</ele>
        <time>2020-06-05T07:32:57.000Z</time>
      </trkpt>
      <trkpt lat="44.06179" lon="6.84822">
        <ele>802</ele>
        <time>2020-06-05T07:32:58.000Z</time>
      </trkpt>
      <trkpt lat="44.06179" lon="6.84822">
        <ele>803</ele>
        <time>2020-06-05T07:32:59.000Z</time>
      </trkpt>
      <trkpt lat="44.06178" lon="6.84823">
        <ele>803</ele>
        <time>2020-06-05T07:33:00.000Z</time>
      </trkpt>
      <trkpt lat="44.06178" lon="6.84824">
        <ele>803</ele>
        <time>2020-06-05T07:33:01.000Z</time>
      </trkpt>
      <trkpt lat="44.06177" lon="6.84824">
        <ele>803</ele>
        <time>2020-06-05T07:33:02.000Z</time>
      </trkpt>
      <trkpt lat="44.06177" lon="6.84825">
        <ele>803</ele>
        <time>2020-06-05T07:33:03.000Z</time>
      </trkpt>
      <trkpt lat="44.06177" lon="6.84825">
        <ele>804</ele>
        <time>2020-06-05T07:33:04.000Z</time>
      </trkpt>
      <trkpt lat="44.06176" lon="6.84826">
        <ele>804</ele>
        <time>2020-06-05T07:33:05.000Z</time>
      </trkpt>
      <trkpt lat="44.06175" lon="6.84826">
        <ele>804</ele>
        <time>2020-06-05T07:33:06.000Z</time>
      </trkpt>
      <trkpt lat="44.06175" lon="6.84827">
        <ele>804</ele>
        <time>2020-06-05T07:33:07.000Z</time>
      </trkpt>
      <trkpt lat="44.06174" lon="6.84828">
        <ele>804</ele>
        <time>2020-06-05T07:33:08.000Z</time>
      </trkpt>
      <trkpt lat="44.06173" lon="6.84828">
        <ele>804</ele>
        <time>2020-06-05T07:33:09.000Z</time>
      </trkpt>
      <trkpt lat="44.06173" lon="6.84829">
        <ele>804</ele>
        <time>2020-06-05T07:33:10.000Z</time>
      </trkpt>
      <trkpt lat="44.06172" lon="6.84829">
        <ele>804</ele>
        <time>2020-06-05T07:33:11.000Z</time>
      </trkpt>
      <trkpt lat="44.06172" lon="6.8483">
        <ele>804</ele>
        <time>2020-06-05T07:33:12.000Z</time>
      </trkpt>
      <trkpt lat="44.06171" lon="6.84831">
        <ele>804</ele>
        <time>2020-06-05T07:33:13.000Z</time>
      </trkpt>
      <trkpt lat="44.06171" lon="6.84832">
        <ele>805</ele>
        <time>2020-06-05T07:33:14.000Z</time>
      </trkpt>
      <trkpt lat="44.0617" lon="6.84832">
        <ele>805</ele>
        <time>2020-06-05T07:33:15.000Z</time>
      </trkpt>
      <trkpt lat="44.0617" lon="6.84833">
        <ele>805</ele>
        <time>2020-06-05T07:33:16.000Z</time>
      </trkpt>
      <trkpt lat="44.06169" lon="6.84834">
        <ele>805</ele>
        <time>2020-06-05T07:33:17.000Z</time>
      </trkpt>
      <trkpt lat="44.06169" lon="6.84835">
        <ele>806</ele>
        <time>2020-06-05T07:33:18.000Z</time>
      </trkpt>
      <trkpt lat="44.06168" lon="6.84835">
        <ele>806</ele>
        <time>2020-06-05T07:33:19.000Z</time>
      </trkpt>
      <trkpt lat="44.06168" lon="6.84836">
        <ele>806</ele>
        <time>2020-06-05T07:33:20.000Z</time>
      </trkpt>
      <trkpt lat="44.06168" lon="6.84837">
        <ele>806</ele>
        <time>2020-06-05T07:33:21.000Z</time>
      </trkpt>
      <trkpt lat="44.06167" lon="6.84837">
        <ele>806</ele>
        <time>2020-06-05T07:33:22.000Z</time>
      </trkpt>
      <trkpt lat="44.06167" lon="6.84838">
        <ele>807</ele>
        <time>2020-06-05T07:33:23.000Z</time>
      </trkpt>
      <trkpt lat="44.06166" lon="6.84839">
        <ele>807</ele>
        <time>2020-06-05T07:33:24.000Z</time>
      </trkpt>
      <trkpt lat="44.06166" lon="6.8484">
        <ele>807</ele>
        <time>2020-06-05T07:33:25.000Z</time>
      </trkpt>
      <trkpt lat="44.06166" lon="6.84842">
        <ele>807</ele>
        <time>2020-06-05T07:33:26.000Z</time>
      </trkpt>
      <trkpt lat="44.06166" lon="6.84842">
        <ele>808</ele>
        <time>2020-06-05T07:33:27.000Z</time>
      </trkpt>
      <trkpt lat="44.06166" lon="6.84843">
        <ele>808</ele>
        <time>2020-06-05T07:33:28.000Z</time>
      </trkpt>
      <trkpt lat="44.06166" lon="6.84844">
        <ele>808</ele>
        <time>2020-06-05T07:33:29.000Z</time>
      </trkpt>
      <trkpt lat="44.06166" lon="6.84844">
        <ele>809</ele>
        <time>2020-06-05T07:33:30.000Z</time>
      </trkpt>
      <trkpt lat="44.06165" lon="6.84845">
        <ele>809</ele>
        <time>2020-06-05T07:33:31.000Z</time>
      </trkpt>
      <trkpt lat="44.06165" lon="6.84846">
        <ele>809</ele>
        <time>2020-06-05T07:33:32.000Z</time>
      </trkpt>
      <trkpt lat="44.06165" lon="6.84846">
        <ele>809</ele>
        <time>2020-06-05T07:33:33.000Z</time>
      </trkpt>
      <trkpt lat="44.06165" lon="6.84847">
        <ele>809</ele>
        <time>2020-06-05T07:33:34.000Z</time>
      </trkpt>
      <trkpt lat="44.06164" lon="6.84848">
        <ele>809</ele>
        <time>2020-06-05T07:33:35.000Z</time>
      </trkpt>
      <trkpt lat="44.06164" lon="6.84849">
        <ele>809</ele>
        <time>2020-06-05T07:33:36.000Z</time>
      </trkpt>
      <trkpt lat="44.06164" lon="6.84849">
        <ele>810</ele>
        <time>2020-06-05T07:33:37.000Z</time>
      </trkpt>
      <trkpt lat="44.06163" lon="6.8485">
        <ele>810</ele>
        <time>2020-06-05T07:33:38.000Z</time>
      </trkpt>
      <trkpt lat="44.06163" lon="6.8485">
        <ele>810</ele>
        <time>2020-06-05T07:33:39.000Z</time>
      </trkpt>
      <trkpt lat="44.06163" lon="6.84851">
        <ele>810</ele>
        <time>2020-06-05T07:33:40.000Z</time>
      </trkpt>
      <trkpt lat="44.06163" lon="6.84851">
        <ele>810</ele>
        <time>2020-06-05T07:33:41.000Z</time>
      </trkpt>
      <trkpt lat="44.06162" lon="6.84852">
        <ele>810</ele>
        <time>2020-06-05T07:33:42.000Z</time>
      </trkpt>
      <trkpt lat="44.06162" lon="6.84853">
        <ele>810</ele>
        <time>2020-06-05T07:33:43.000Z</time>
      </trkpt>
      <trkpt lat="44.06161" lon="6.84854">
        <ele>810</ele>
        <time>2020-06-05T07:33:44.000Z</time>
      </trkpt>
      <trkpt lat="44.06161" lon="6.84855">
        <ele>811</ele>
        <time>2020-06-05T07:33:45.000Z</time>
      </trkpt>
      <trkpt lat="44.0616" lon="6.84855">
        <ele>811</ele>
        <time>2020-06-05T07:33:46.000Z</time>
      </trkpt>
      <trkpt lat="44.0616" lon="6.84856">
        <ele>811</ele>
        <time>2020-06-05T07:33:47.000Z</time>
      </trkpt>
      <trkpt lat="44.06159" lon="6.84856">
        <ele>811</ele>
        <time>2020-06-05T07:33:48.000Z</time>
      </trkpt>
      <trkpt lat="44.06159" lon="6.84857">
        <ele>811</ele>
        <time>2020-06-05T07:33:49.000Z</time>
      </trkpt>
      <trkpt lat="44.06158" lon="6.84858">
        <ele>811</ele>
        <time>2020-06-05T07:33:50.000Z</time>
      </trkpt>
      <trkpt lat="44.06157" lon="6.84859">
        <ele>811</ele>
        <time>2020-06-05T07:33:51.000Z</time>
      </trkpt>
      <trkpt lat="44.06157" lon="6.84859">
        <ele>811</ele>
        <time>2020-06-05T07:33:52.000Z</time>
      </trkpt>
      <trkpt lat="44.06157" lon="6.8486">
        <ele>811</ele>
        <time>2020-06-05T07:33:53.000Z</time>
      </trkpt>
      <trkpt lat="44.06156" lon="6.84861">
        <ele>811</ele>
        <time>2020-06-05T07:33:54.000Z</time>
      </trkpt>
      <trkpt lat="44.06156" lon="6.84862">
        <ele>812</ele>
        <time>2020-06-05T07:33:55.000Z</time>
      </trkpt>
      <trkpt lat="44.06156" lon="6.84863">
        <ele>812</ele>
        <time>2020-06-05T07:33:56.000Z</time>
      </trkpt>
      <trkpt lat="44.06156" lon="6.84863">
        <ele>812</ele>
        <time>2020-06-05T07:33:57.000Z</time>
      </trkpt>
      <trkpt lat="44.06155" lon="6.84864">
        <ele>812</ele>
        <time>2020-06-05T07:33:58.000Z</time>
      </trkpt>
      <trkpt lat="44.06155" lon="6.84865">
        <ele>812</ele>
        <time>2020-06-05T07:33:59.000Z</time>
      </trkpt>
      <trkpt lat="44.06154" lon="6.84865">
        <ele>812</ele>
        <time>2020-06-05T07:34:00.000Z</time>
      </trkpt>
      <trkpt lat="44.06154" lon="6.84866">
        <ele>813</ele>
        <time>2020-06-05T07:34:01.000Z</time>
      </trkpt>
      <trkpt lat="44.06154" lon="6.84867">
        <ele>813</ele>
        <time>2020-06-05T07:34:02.000Z</time>
      </trkpt>
      <trkpt lat="44.06154" lon="6.84868">
        <ele>813</ele>
        <time>2020-06-05T07:34:03.000Z</time>
      </trkpt>
      <trkpt lat="44.06153" lon="6.84869">
        <ele>814</ele>
        <time>2020-06-05T07:34:04.000Z</time>
      </trkpt>
      <trkpt lat="44.06153" lon="6.8487">
        <ele>814</ele>
        <time>2020-06-05T07:34:05.000Z</time>
      </trkpt>
      <trkpt lat="44.06153" lon="6.84871">
        <ele>814</ele>
        <time>2020-06-05T07:34:06.000Z</time>
      </trkpt>
      <trkpt lat="44.06152" lon="6.84871">
        <ele>815</ele>
        <time>2020-06-05T07:34:07.000Z</time>
      </trkpt>
      <trkpt lat="44.06152" lon="6.84872">
        <ele>815</ele>
        <time>2020-06-05T07:34:08.000Z</time>
      </trkpt>
      <trkpt lat="44.06152" lon="6.84873">
        <ele>815</ele>
        <time>2020-06-05T07:34:09.000Z</time>
      </trkpt>
      <trkpt lat="44.06151" lon="6.84873">
        <ele>816</ele>
        <time>2020-06-05T07:34:10.000Z</time>
      </trkpt>
      <trkpt lat="44.06151" lon="6.84874">
        <ele>816</ele>
        <time>2020-06-05T07:34:11.000Z</time>
      </trkpt>
      <trkpt lat="44.0615" lon="6.84874">
        <ele>816</ele>
        <time>2020-06-05T07:34:12.000Z</time>
      </trkpt>
      <trkpt lat="44.0615" lon="6.84875">
        <ele>817</ele>
        <time>2020-06-05T07:34:13.000Z</time>
      </trkpt>
      <trkpt lat="44.0615" lon="6.84876">
        <ele>817</ele>
        <time>2020-06-05T07:34:14.000Z</time>
      </trkpt>
      <trkpt lat="44.06149" lon="6.84876">
        <ele>817</ele>
        <time>2020-06-05T07:34:15.000Z</time>
      </trkpt>
      <trkpt lat="44.06149" lon="6.84876">
        <ele>817</ele>
        <time>2020-06-05T07:34:16.000Z</time>
      </trkpt>
      <trkpt lat="44.06149" lon="6.84877">
        <ele>817</ele>
        <time>2020-06-05T07:34:17.000Z</time>
      </trkpt>
      <trkpt lat="44.06148" lon="6.84877">
        <ele>818</ele>
        <time>2020-06-05T07:34:18.000Z</time>
      </trkpt>
      <trkpt lat="44.06148" lon="6.84877">
        <ele>818</ele>
        <time>2020-06-05T07:34:19.000Z</time>
      </trkpt>
      <trkpt lat="44.06147" lon="6.84878">
        <ele>818</ele>
        <time>2020-06-05T07:34:20.000Z</time>
      </trkpt>
      <trkpt lat="44.06147" lon="6.84878">
        <ele>818</ele>
        <time>2020-06-05T07:34:21.000Z</time>
      </trkpt>
      <trkpt lat="44.06146" lon="6.84879">
        <ele>818</ele>
        <time>2020-06-05T07:34:22.000Z</time>
      </trkpt>
      <trkpt lat="44.06146" lon="6.8488">
        <ele>819</ele>
        <time>2020-06-05T07:34:23.000Z</time>
      </trkpt>
      <trkpt lat="44.06145" lon="6.8488">
        <ele>819</ele>
        <time>2020-06-05T07:34:24.000Z</time>
      </trkpt>
      <trkpt lat="44.06144" lon="6.84881">
        <ele>819</ele>
        <time>2020-06-05T07:34:25.000Z</time>
      </trkpt>
      <trkpt lat="44.06144" lon="6.84881">
        <ele>819</ele>
        <time>2020-06-05T07:34:26.000Z</time>
      </trkpt>
      <trkpt lat="44.06143" lon="6.84881">
        <ele>819</ele>
        <time>2020-06-05T07:34:27.000Z</time>
      </trkpt>
      <trkpt lat="44.06143" lon="6.84882">
        <ele>820</ele>
        <time>2020-06-05T07:34:28.000Z</time>
      </trkpt>
      <trkpt lat="44.06143" lon="6.84882">
        <ele>820</ele>
        <time>2020-06-05T07:34:29.000Z</time>
      </trkpt>
      <trkpt lat="44.06142" lon="6.84883">
        <ele>820</ele>
        <time>2020-06-05T07:34:30.000Z</time>
      </trkpt>
      <trkpt lat="44.06142" lon="6.84883">
        <ele>820</ele>
        <time>2020-06-05T07:34:31.000Z</time>
      </trkpt>
      <trkpt lat="44.06142" lon="6.84883">
        <ele>820</ele>
        <time>2020-06-05T07:34:32.000Z</time>
      </trkpt>
      <trkpt lat="44.06142" lon="6.84883">
        <ele>820</ele>
        <time>2020-06-05T07:34:33.000Z</time>
      </trkpt>
      <trkpt lat="44.06142" lon="6.84883">
        <ele>820</ele>
        <time>2020-06-05T07:34:34.000Z</time>
      </trkpt>
      <trkpt lat="44.06142" lon="6.84883">
        <ele>820</ele>
        <time>2020-06-05T07:34:35.000Z</time>
      </trkpt>
      <trkpt lat="44.06142" lon="6.84884">
        <ele>820</ele>
        <time>2020-06-05T07:34:36.000Z</time>
      </trkpt>
      <trkpt lat="44.06142" lon="6.84884">
        <ele>820</ele>
        <time>2020-06-05T07:34:37.000Z</time>
      </trkpt>
      <trkpt lat="44.06142" lon="6.84884">
        <ele>821</ele>
        <time>2020-06-05T07:34:38.000Z</time>
      </trkpt>
      <trkpt lat="44.06142" lon="6.84884">
        <ele>821</ele>
        <time>2020-06-05T07:34:39.000Z</time>
      </trkpt>
      <trkpt lat="44.06142" lon="6.84884">
        <ele>821</ele>
        <time>2020-06-05T07:34:40.000Z</time>
      </trkpt>
      <trkpt lat="44.06142" lon="6.84884">
        <ele>821</ele>
        <time>2020-06-05T07:34:41.000Z</time>
      </trkpt>
      <trkpt lat="44.06142" lon="6.84885">
        <ele>821</ele>
        <time>2020-06-05T07:34:42.000Z</time>
      </trkpt>
      <trkpt lat="44.06142" lon="6.84885">
        <ele>821</ele>
        <time>2020-06-05T07:34:43.000Z</time>
      </trkpt>
      <trkpt lat="44.06142" lon="6.84885">
        <ele>821</ele>
        <time>2020-06-05T07:34:44.000Z</time>
      </trkpt>
      <trkpt lat="44.06142" lon="6.84885">
        <ele>821</ele>
        <time>2020-06-05T07:34:45.000Z</time>
      </trkpt>
      <trkpt lat="44.06142" lon="6.84885">
        <ele>821</ele>
        <time>2020-06-05T07:34:46.000Z</time>
      </trkpt>
      <trkpt lat="44.06142" lon="6.84885">
        <ele>821</ele>
        <time>2020-06-05T07:34:47.000Z</time>
      </trkpt>
      <trkpt lat="44.06142" lon="6.84885">
        <ele>821</ele>
        <time>2020-06-05T07:34:48.000Z</time>
      </trkpt>
      <trkpt lat="44.06142" lon="6.84886">
        <ele>821</ele>
        <time>2020-06-05T07:34:49.000Z</time>
      </trkpt>
      <trkpt lat="44.06142" lon="6.84886">
        <ele>821</ele>
        <time>2020-06-05T07:34:50.000Z</time>
      </trkpt>
      <trkpt lat="44.06142" lon="6.84886">
        <ele>821</ele>
        <time>2020-06-05T07:34:51.000Z</time>
      </trkpt>
      <trkpt lat="44.06142" lon="6.84886">
        <ele>821</ele>
        <time>2020-06-05T07:34:52.000Z</time>
      </trkpt>
      <trkpt lat="44.06142" lon="6.84886">
        <ele>821</ele>
        <time>2020-06-05T07:34:53.000Z</time>
      </trkpt>
      <trkpt lat="44.06142" lon="6.84887">
        <ele>821</ele>
        <time>2020-06-05T07:34:54.000Z</time>
      </trkpt>
      <trkpt lat="44.06142" lon="6.84887">
        <ele>821</ele>
        <time>2020-06-05T07:34:55.000Z</time>
      </trkpt>
      <trkpt lat="44.06142" lon="6.84887">
        <ele>821</ele>
        <time>2020-06-05T07:34:56.000Z</time>
      </trkpt>
      <trkpt lat="44.06142" lon="6.84887">
        <ele>821</ele>
        <time>2020-06-05T07:34:57.000Z</time>
      </trkpt>
      <trkpt lat="44.06142" lon="6.84887">
        <ele>821</ele>
        <time>2020-06-05T07:34:58.000Z</time>
      </trkpt>
      <trkpt lat="44.06142" lon="6.84887">
        <ele>821</ele>
        <time>2020-06-05T07:34:59.000Z</time>
      </trkpt>
      <trkpt lat="44.06142" lon="6.84888">
        <ele>821</ele>
        <time>2020-06-05T07:35:00.000Z</time>
      </trkpt>
      <trkpt lat="44.06142" lon="6.84888">
        <ele>821</ele>
        <time>2020-06-05T07:35:01.000Z</time>
      </trkpt>
      <trkpt lat="44.06142" lon="6.84888">
        <ele>821</ele>
        <time>2020-06-05T07:35:02.000Z</time>
      </trkpt>
      <trkpt lat="44.06142" lon="6.84888">
        <ele>821</ele>
        <time>2020-06-05T07:35:03.000Z</time>
      </trkpt>
      <trkpt lat="44.06141" lon="6.84888">
        <ele>821</ele>
        <time>2020-06-05T07:35:04.000Z</time>
      </trkpt>
      <trkpt lat="44.06141" lon="6.84889">
        <ele>821</ele>
        <time>2020-06-05T07:35:05.000Z</time>
      </trkpt>
      <trkpt lat="44.0614" lon="6.84889">
        <ele>822</ele>
        <time>2020-06-05T07:35:06.000Z</time>
      </trkpt>
      <trkpt lat="44.06139" lon="6.84889">
        <ele>822</ele>
        <time>2020-06-05T07:35:07.000Z</time>
      </trkpt>
      <trkpt lat="44.06139" lon="6.84889">
        <ele>822</ele>
        <time>2020-06-05T07:35:08.000Z</time>
      </trkpt>
      <trkpt lat="44.06138" lon="6.84889">
        <ele>822</ele>
        <time>2020-06-05T07:35:09.000Z</time>
      </trkpt>
      <trkpt lat="44.06138" lon="6.84889">
        <ele>822</ele>
        <time>2020-06-05T07:35:10.000Z</time>
      </trkpt>
      <trkpt lat="44.06137" lon="6.84889">
        <ele>822</ele>
        <time>2020-06-05T07:35:11.000Z</time>
      </trkpt>
      <trkpt lat="44.06137" lon="6.8489">
        <ele>822</ele>
        <time>2020-06-05T07:35:12.000Z</time>
      </trkpt>
      <trkpt lat="44.06136" lon="6.8489">
        <ele>822</ele>
        <time>2020-06-05T07:35:13.000Z</time>
      </trkpt>
      <trkpt lat="44.06136" lon="6.84891">
        <ele>823</ele>
        <time>2020-06-05T07:35:14.000Z</time>
      </trkpt>
      <trkpt lat="44.06136" lon="6.84891">
        <ele>823</ele>
        <time>2020-06-05T07:35:15.000Z</time>
      </trkpt>
      <trkpt lat="44.06135" lon="6.84892">
        <ele>823</ele>
        <time>2020-06-05T07:35:16.000Z</time>
      </trkpt>
      <trkpt lat="44.06135" lon="6.84892">
        <ele>823</ele>
        <time>2020-06-05T07:35:17.000Z</time>
      </trkpt>
      <trkpt lat="44.06135" lon="6.84893">
        <ele>823</ele>
        <time>2020-06-05T07:35:18.000Z</time>
      </trkpt>
      <trkpt lat="44.06134" lon="6.84894">
        <ele>824</ele>
        <time>2020-06-05T07:35:19.000Z</time>
      </trkpt>
      <trkpt lat="44.06134" lon="6.84894">
        <ele>824</ele>
        <time>2020-06-05T07:35:20.000Z</time>
      </trkpt>
      <trkpt lat="44.06134" lon="6.84895">
        <ele>824</ele>
        <time>2020-06-05T07:35:21.000Z</time>
      </trkpt>
      <trkpt lat="44.06134" lon="6.84896">
        <ele>824</ele>
        <time>2020-06-05T07:35:22.000Z</time>
      </trkpt>
      <trkpt lat="44.06133" lon="6.84897">
        <ele>825</ele>
        <time>2020-06-05T07:35:23.000Z</time>
      </trkpt>
      <trkpt lat="44.06133" lon="6.84897">
        <ele>825</ele>
        <time>2020-06-05T07:35:24.000Z</time>
      </trkpt>
      <trkpt lat="44.06133" lon="6.84898">
        <ele>825</ele>
        <time>2020-06-05T07:35:25.000Z</time>
      </trkpt>
      <trkpt lat="44.06132" lon="6.84899">
        <ele>825</ele>
        <time>2020-06-05T07:35:26.000Z</time>
      </trkpt>
      <trkpt lat="44.06132" lon="6.84899">
        <ele>826</ele>
        <time>2020-06-05T07:35:27.000Z</time>
      </trkpt>
      <trkpt lat="44.06133" lon="6.849">
        <ele>826</ele>
        <time>2020-06-05T07:35:28.000Z</time>
      </trkpt>
      <trkpt lat="44.06133" lon="6.849">
        <ele>826</ele>
        <time>2020-06-05T07:35:29.000Z</time>
      </trkpt>
      <trkpt lat="44.06133" lon="6.84901">
        <ele>826</ele>
        <time>2020-06-05T07:35:30.000Z</time>
      </trkpt>
      <trkpt lat="44.06133" lon="6.84901">
        <ele>826</ele>
        <time>2020-06-05T07:35:31.000Z</time>
      </trkpt>
      <trkpt lat="44.06133" lon="6.84902">
        <ele>827</ele>
        <time>2020-06-05T07:35:32.000Z</time>
      </trkpt>
      <trkpt lat="44.06133" lon="6.84903">
        <ele>827</ele>
        <time>2020-06-05T07:35:33.000Z</time>
      </trkpt>
      <trkpt lat="44.06134" lon="6.84903">
        <ele>827</ele>
        <time>2020-06-05T07:35:34.000Z</time>
      </trkpt>
      <trkpt lat="44.06134" lon="6.84904">
        <ele>827</ele>
        <time>2020-06-05T07:35:35.000Z</time>
      </trkpt>
      <trkpt lat="44.06134" lon="6.84904">
        <ele>827</ele>
        <time>2020-06-05T07:35:36.000Z</time>
      </trkpt>
      <trkpt lat="44.06134" lon="6.84904">
        <ele>828</ele>
        <time>2020-06-05T07:35:37.000Z</time>
      </trkpt>
      <trkpt lat="44.06134" lon="6.84905">
        <ele>828</ele>
        <time>2020-06-05T07:35:38.000Z</time>
      </trkpt>
      <trkpt lat="44.06133" lon="6.84906">
        <ele>828</ele>
        <time>2020-06-05T07:35:39.000Z</time>
      </trkpt>
      <trkpt lat="44.06133" lon="6.84906">
        <ele>829</ele>
        <time>2020-06-05T07:35:40.000Z</time>
      </trkpt>
      <trkpt lat="44.06133" lon="6.84907">
        <ele>829</ele>
        <time>2020-06-05T07:35:41.000Z</time>
      </trkpt>
      <trkpt lat="44.06133" lon="6.84907">
        <ele>829</ele>
        <time>2020-06-05T07:35:42.000Z</time>
      </trkpt>
      <trkpt lat="44.06132" lon="6.84907">
        <ele>829</ele>
        <time>2020-06-05T07:35:43.000Z</time>
      </trkpt>
      <trkpt lat="44.06132" lon="6.84907">
        <ele>830</ele>
        <time>2020-06-05T07:35:44.000Z</time>
      </trkpt>
      <trkpt lat="44.06132" lon="6.84908">
        <ele>830</ele>
        <time>2020-06-05T07:35:45.000Z</time>
      </trkpt>
      <trkpt lat="44.06131" lon="6.84908">
        <ele>830</ele>
        <time>2020-06-05T07:35:46.000Z</time>
      </trkpt>
      <trkpt lat="44.06131" lon="6.84908">
        <ele>830</ele>
        <time>2020-06-05T07:35:47.000Z</time>
      </trkpt>
      <trkpt lat="44.06131" lon="6.84909">
        <ele>831</ele>
        <time>2020-06-05T07:35:48.000Z</time>
      </trkpt>
      <trkpt lat="44.0613" lon="6.84909">
        <ele>831</ele>
        <time>2020-06-05T07:35:49.000Z</time>
      </trkpt>
      <trkpt lat="44.0613" lon="6.84909">
        <ele>831</ele>
        <time>2020-06-05T07:35:50.000Z</time>
      </trkpt>
      <trkpt lat="44.06129" lon="6.84909">
        <ele>831</ele>
        <time>2020-06-05T07:35:51.000Z</time>
      </trkpt>
      <trkpt lat="44.06129" lon="6.8491">
        <ele>831</ele>
        <time>2020-06-05T07:35:52.000Z</time>
      </trkpt>
      <trkpt lat="44.06128" lon="6.8491">
        <ele>831</ele>
        <time>2020-06-05T07:35:53.000Z</time>
      </trkpt>
      <trkpt lat="44.06128" lon="6.84911">
        <ele>831</ele>
        <time>2020-06-05T07:35:54.000Z</time>
      </trkpt>
      <trkpt lat="44.06128" lon="6.84912">
        <ele>831</ele>
        <time>2020-06-05T07:35:55.000Z</time>
      </trkpt>
      <trkpt lat="44.06128" lon="6.84913">
        <ele>832</ele>
        <time>2020-06-05T07:35:56.000Z</time>
      </trkpt>
      <trkpt lat="44.06128" lon="6.84914">
        <ele>832</ele>
        <time>2020-06-05T07:35:57.000Z</time>
      </trkpt>
      <trkpt lat="44.06128" lon="6.84915">
        <ele>832</ele>
        <time>2020-06-05T07:35:58.000Z</time>
      </trkpt>
      <trkpt lat="44.06127" lon="6.84915">
        <ele>832</ele>
        <time>2020-06-05T07:35:59.000Z</time>
      </trkpt>
      <trkpt lat="44.06127" lon="6.84916">
        <ele>832</ele>
        <time>2020-06-05T07:36:00.000Z</time>
      </trkpt>
      <trkpt lat="44.06127" lon="6.84916">
        <ele>832</ele>
        <time>2020-06-05T07:36:01.000Z</time>
      </trkpt>
      <trkpt lat="44.06127" lon="6.84917">
        <ele>832</ele>
        <time>2020-06-05T07:36:02.000Z</time>
      </trkpt>
      <trkpt lat="44.06127" lon="6.84918">
        <ele>833</ele>
        <time>2020-06-05T07:36:03.000Z</time>
      </trkpt>
      <trkpt lat="44.06127" lon="6.84919">
        <ele>833</ele>
        <time>2020-06-05T07:36:04.000Z</time>
      </trkpt>
      <trkpt lat="44.06127" lon="6.84919">
        <ele>833</ele>
        <time>2020-06-05T07:36:05.000Z</time>
      </trkpt>
      <trkpt lat="44.06127" lon="6.8492">
        <ele>833</ele>
        <time>2020-06-05T07:36:06.000Z</time>
      </trkpt>
      <trkpt lat="44.06126" lon="6.8492">
        <ele>833</ele>
        <time>2020-06-05T07:36:07.000Z</time>
      </trkpt>
      <trkpt lat="44.06126" lon="6.84921">
        <ele>833</ele>
        <time>2020-06-05T07:36:08.000Z</time>
      </trkpt>
      <trkpt lat="44.06126" lon="6.84922">
        <ele>834</ele>
        <time>2020-06-05T07:36:09.000Z</time>
      </trkpt>
      <trkpt lat="44.06126" lon="6.84922">
        <ele>834</ele>
        <time>2020-06-05T07:36:10.000Z</time>
      </trkpt>
      <trkpt lat="44.06126" lon="6.84923">
        <ele>834</ele>
        <time>2020-06-05T07:36:11.000Z</time>
      </trkpt>
      <trkpt lat="44.06126" lon="6.84923">
        <ele>834</ele>
        <time>2020-06-05T07:36:12.000Z</time>
      </trkpt>
      <trkpt lat="44.06126" lon="6.84924">
        <ele>834</ele>
        <time>2020-06-05T07:36:13.000Z</time>
      </trkpt>
      <trkpt lat="44.06126" lon="6.84925">
        <ele>835</ele>
        <time>2020-06-05T07:36:14.000Z</time>
      </trkpt>
      <trkpt lat="44.06126" lon="6.84926">
        <ele>835</ele>
        <time>2020-06-05T07:36:15.000Z</time>
      </trkpt>
      <trkpt lat="44.06126" lon="6.84926">
        <ele>835</ele>
        <time>2020-06-05T07:36:16.000Z</time>
      </trkpt>
      <trkpt lat="44.06126" lon="6.84927">
        <ele>835</ele>
        <time>2020-06-05T07:36:17.000Z</time>
      </trkpt>
      <trkpt lat="44.06126" lon="6.84928">
        <ele>835</ele>
        <time>2020-06-05T07:36:18.000Z</time>
      </trkpt>
      <trkpt lat="44.06126" lon="6.84929">
        <ele>835</ele>
        <time>2020-06-05T07:36:19.000Z</time>
      </trkpt>
      <trkpt lat="44.06126" lon="6.84929">
        <ele>836</ele>
        <time>2020-06-05T07:36:20.000Z</time>
      </trkpt>
      <trkpt lat="44.06126" lon="6.8493">
        <ele>836</ele>
        <time>2020-06-05T07:36:21.000Z</time>
      </trkpt>
      <trkpt lat="44.06126" lon="6.84932">
        <ele>836</ele>
        <time>2020-06-05T07:36:22.000Z</time>
      </trkpt>
      <trkpt lat="44.06125" lon="6.84933">
        <ele>836</ele>
        <time>2020-06-05T07:36:23.000Z</time>
      </trkpt>
      <trkpt lat="44.06125" lon="6.84933">
        <ele>836</ele>
        <time>2020-06-05T07:36:24.000Z</time>
      </trkpt>
      <trkpt lat="44.06124" lon="6.84934">
        <ele>836</ele>
        <time>2020-06-05T07:36:25.000Z</time>
      </trkpt>
      <trkpt lat="44.06124" lon="6.84935">
        <ele>836</ele>
        <time>2020-06-05T07:36:26.000Z</time>
      </trkpt>
      <trkpt lat="44.06123" lon="6.84936">
        <ele>836</ele>
        <time>2020-06-05T07:36:27.000Z</time>
      </trkpt>
      <trkpt lat="44.06123" lon="6.84937">
        <ele>836</ele>
        <time>2020-06-05T07:36:28.000Z</time>
      </trkpt>
      <trkpt lat="44.06122" lon="6.84938">
        <ele>836</ele>
        <time>2020-06-05T07:36:29.000Z</time>
      </trkpt>
      <trkpt lat="44.06122" lon="6.84939">
        <ele>836</ele>
        <time>2020-06-05T07:36:30.000Z</time>
      </trkpt>
      <trkpt lat="44.06122" lon="6.84939">
        <ele>836</ele>
        <time>2020-06-05T07:36:31.000Z</time>
      </trkpt>
      <trkpt lat="44.06122" lon="6.8494">
        <ele>836</ele>
        <time>2020-06-05T07:36:32.000Z</time>
      </trkpt>
      <trkpt lat="44.06122" lon="6.84941">
        <ele>836</ele>
        <time>2020-06-05T07:36:33.000Z</time>
      </trkpt>
      <trkpt lat="44.06121" lon="6.84942">
        <ele>837</ele>
        <time>2020-06-05T07:36:34.000Z</time>
      </trkpt>
      <trkpt lat="44.06121" lon="6.84944">
        <ele>837</ele>
        <time>2020-06-05T07:36:35.000Z</time>
      </trkpt>
      <trkpt lat="44.06121" lon="6.84945">
        <ele>837</ele>
        <time>2020-06-05T07:36:36.000Z</time>
      </trkpt>
      <trkpt lat="44.06121" lon="6.84946">
        <ele>837</ele>
        <time>2020-06-05T07:36:37.000Z</time>
      </trkpt>
      <trkpt lat="44.06121" lon="6.84947">
        <ele>837</ele>
        <time>2020-06-05T07:36:38.000Z</time>
      </trkpt>
      <trkpt lat="44.0612" lon="6.84948">
        <ele>837</ele>
        <time>2020-06-05T07:36:39.000Z</time>
      </trkpt>
      <trkpt lat="44.0612" lon="6.84949">
        <ele>837</ele>
        <time>2020-06-05T07:36:40.000Z</time>
      </trkpt>
      <trkpt lat="44.0612" lon="6.8495">
        <ele>837</ele>
        <time>2020-06-05T07:36:41.000Z</time>
      </trkpt>
      <trkpt lat="44.0612" lon="6.84951">
        <ele>837</ele>
        <time>2020-06-05T07:36:42.000Z</time>
      </trkpt>
      <trkpt lat="44.0612" lon="6.84952">
        <ele>837</ele>
        <time>2020-06-05T07:36:43.000Z</time>
      </trkpt>
      <trkpt lat="44.0612" lon="6.84952">
        <ele>837</ele>
        <time>2020-06-05T07:36:44.000Z</time>
      </trkpt>
      <trkpt lat="44.06119" lon="6.84953">
        <ele>837</ele>
        <time>2020-06-05T07:36:45.000Z</time>
      </trkpt>
      <trkpt lat="44.06119" lon="6.84953">
        <ele>837</ele>
        <time>2020-06-05T07:36:46.000Z</time>
      </trkpt>
      <trkpt lat="44.06119" lon="6.84954">
        <ele>837</ele>
        <time>2020-06-05T07:36:47.000Z</time>
      </trkpt>
      <trkpt lat="44.06118" lon="6.84955">
        <ele>837</ele>
        <time>2020-06-05T07:36:48.000Z</time>
      </trkpt>
      <trkpt lat="44.06118" lon="6.84956">
        <ele>837</ele>
        <time>2020-06-05T07:36:49.000Z</time>
      </trkpt>
      <trkpt lat="44.06118" lon="6.84957">
        <ele>837</ele>
        <time>2020-06-05T07:36:50.000Z</time>
      </trkpt>
      <trkpt lat="44.06118" lon="6.84958">
        <ele>838</ele>
        <time>2020-06-05T07:36:51.000Z</time>
      </trkpt>
      <trkpt lat="44.06118" lon="6.84958">
        <ele>838</ele>
        <time>2020-06-05T07:36:52.000Z</time>
      </trkpt>
      <trkpt lat="44.06118" lon="6.84959">
        <ele>838</ele>
        <time>2020-06-05T07:36:53.000Z</time>
      </trkpt>
      <trkpt lat="44.06118" lon="6.8496">
        <ele>838</ele>
        <time>2020-06-05T07:36:54.000Z</time>
      </trkpt>
      <trkpt lat="44.06118" lon="6.84961">
        <ele>838</ele>
        <time>2020-06-05T07:36:55.000Z</time>
      </trkpt>
      <trkpt lat="44.06118" lon="6.84962">
        <ele>838</ele>
        <time>2020-06-05T07:36:56.000Z</time>
      </trkpt>
      <trkpt lat="44.06118" lon="6.84963">
        <ele>838</ele>
        <time>2020-06-05T07:36:57.000Z</time>
      </trkpt>
      <trkpt lat="44.06118" lon="6.84964">
        <ele>838</ele>
        <time>2020-06-05T07:36:58.000Z</time>
      </trkpt>
      <trkpt lat="44.06118" lon="6.84964">
        <ele>838</ele>
        <time>2020-06-05T07:36:59.000Z</time>
      </trkpt>
      <trkpt lat="44.06118" lon="6.84965">
        <ele>838</ele>
        <time>2020-06-05T07:37:00.000Z</time>
      </trkpt>
      <trkpt lat="44.06119" lon="6.84966">
        <ele>838</ele>
        <time>2020-06-05T07:37:01.000Z</time>
      </trkpt>
      <trkpt lat="44.06119" lon="6.84967">
        <ele>839</ele>
        <time>2020-06-05T07:37:02.000Z</time>
      </trkpt>
      <trkpt lat="44.06119" lon="6.84967">
        <ele>839</ele>
        <time>2020-06-05T07:37:03.000Z</time>
      </trkpt>
      <trkpt lat="44.06119" lon="6.84967">
        <ele>839</ele>
        <time>2020-06-05T07:37:04.000Z</time>
      </trkpt>
      <trkpt lat="44.06119" lon="6.84967">
        <ele>839</ele>
        <time>2020-06-05T07:37:05.000Z</time>
      </trkpt>
      <trkpt lat="44.06119" lon="6.84967">
        <ele>839</ele>
        <time>2020-06-05T07:37:06.000Z</time>
      </trkpt>
      <trkpt lat="44.06119" lon="6.84968">
        <ele>839</ele>
        <time>2020-06-05T07:37:07.000Z</time>
      </trkpt>
      <trkpt lat="44.06119" lon="6.84968">
        <ele>839</ele>
        <time>2020-06-05T07:37:08.000Z</time>
      </trkpt>
      <trkpt lat="44.06119" lon="6.84968">
        <ele>839</ele>
        <time>2020-06-05T07:37:09.000Z</time>
      </trkpt>
      <trkpt lat="44.06119" lon="6.84968">
        <ele>839</ele>
        <time>2020-06-05T07:37:10.000Z</time>
      </trkpt>
      <trkpt lat="44.06119" lon="6.84968">
        <ele>839</ele>
        <time>2020-06-05T07:37:11.000Z</time>
      </trkpt>
      <trkpt lat="44.0612" lon="6.84968">
        <ele>839</ele>
        <time>2020-06-05T07:37:12.000Z</time>
      </trkpt>
      <trkpt lat="44.0612" lon="6.84968">
        <ele>839</ele>
        <time>2020-06-05T07:37:13.000Z</time>
      </trkpt>
      <trkpt lat="44.0612" lon="6.84968">
        <ele>839</ele>
        <time>2020-06-05T07:37:14.000Z</time>
      </trkpt>
      <trkpt lat="44.0612" lon="6.84969">
        <ele>840</ele>
        <time>2020-06-05T07:37:15.000Z</time>
      </trkpt>
      <trkpt lat="44.0612" lon="6.84969">
        <ele>840</ele>
        <time>2020-06-05T07:37:16.000Z</time>
      </trkpt>
      <trkpt lat="44.0612" lon="6.84969">
        <ele>840</ele>
        <time>2020-06-05T07:37:17.000Z</time>
      </trkpt>
      <trkpt lat="44.0612" lon="6.84969">
        <ele>840</ele>
        <time>2020-06-05T07:37:18.000Z</time>
      </trkpt>
      <trkpt lat="44.0612" lon="6.84969">
        <ele>840</ele>
        <time>2020-06-05T07:37:19.000Z</time>
      </trkpt>
      <trkpt lat="44.0612" lon="6.84969">
        <ele>840</ele>
        <time>2020-06-05T07:37:20.000Z</time>
      </trkpt>
      <trkpt lat="44.0612" lon="6.84969">
        <ele>840</ele>
        <time>2020-06-05T07:37:21.000Z</time>
      </trkpt>
      <trkpt lat="44.0612" lon="6.84969">
        <ele>840</ele>
        <time>2020-06-05T07:37:22.000Z</time>
      </trkpt>
      <trkpt lat="44.0612" lon="6.8497">
        <ele>840</ele>
        <time>2020-06-05T07:37:23.000Z</time>
      </trkpt>
      <trkpt lat="44.0612" lon="6.8497">
        <ele>840</ele>
        <time>2020-06-05T07:37:24.000Z</time>
      </trkpt>
      <trkpt lat="44.0612" lon="6.8497">
        <ele>840</ele>
        <time>2020-06-05T07:37:25.000Z</time>
      </trkpt>
      <trkpt lat="44.0612" lon="6.8497">
        <ele>840</ele>
        <time>2020-06-05T07:37:26.000Z</time>
      </trkpt>
      <trkpt lat="44.0612" lon="6.8497">
        <ele>840</ele>
        <time>2020-06-05T07:37:27.000Z</time>
      </trkpt>
      <trkpt lat="44.0612" lon="6.8497">
        <ele>840</ele>
        <time>2020-06-05T07:37:28.000Z</time>
      </trkpt>
      <trkpt lat="44.0612" lon="6.8497">
        <ele>840</ele>
        <time>2020-06-05T07:37:29.000Z</time>
      </trkpt>
      <trkpt lat="44.0612" lon="6.8497">
        <ele>840</ele>
        <time>2020-06-05T07:37:30.000Z</time>
      </trkpt>
      <trkpt lat="44.0612" lon="6.8497">
        <ele>840</ele>
        <time>2020-06-05T07:37:31.000Z</time>
      </trkpt>
      <trkpt lat="44.0612" lon="6.8497">
        <ele>840</ele>
        <time>2020-06-05T07:37:32.000Z</time>
      </trkpt>
      <trkpt lat="44.0612" lon="6.8497">
        <ele>841</ele>
        <time>2020-06-05T07:37:33.000Z</time>
      </trkpt>
      <trkpt lat="44.0612" lon="6.8497">
        <ele>841</ele>
        <time>2020-06-05T07:37:34.000Z</time>
      </trkpt>
      <trkpt lat="44.0612" lon="6.8497">
        <ele>841</ele>
        <time>2020-06-05T07:37:35.000Z</time>
      </trkpt>
      <trkpt lat="44.06119" lon="6.8497">
        <ele>841</ele>
        <time>2020-06-05T07:37:36.000Z</time>
      </trkpt>
      <trkpt lat="44.06119" lon="6.8497">
        <ele>841</ele>
        <time>2020-06-05T07:37:37.000Z</time>
      </trkpt>
      <trkpt lat="44.06119" lon="6.8497">
        <ele>841</ele>
        <time>2020-06-05T07:37:38.000Z</time>
      </trkpt>
      <trkpt lat="44.06119" lon="6.8497">
        <ele>841</ele>
        <time>2020-06-05T07:37:39.000Z</time>
      </trkpt>
      <trkpt lat="44.06119" lon="6.8497">
        <ele>841</ele>
        <time>2020-06-05T07:37:40.000Z</time>
      </trkpt>
      <trkpt lat="44.06119" lon="6.8497">
        <ele>841</ele>
        <time>2020-06-05T07:37:41.000Z</time>
      </trkpt>
      <trkpt lat="44.06119" lon="6.8497">
        <ele>841</ele>
        <time>2020-06-05T07:37:42.000Z</time>
      </trkpt>
      <trkpt lat="44.06119" lon="6.8497">
        <ele>841</ele>
        <time>2020-06-05T07:37:43.000Z</time>
      </trkpt>
      <trkpt lat="44.06119" lon="6.84971">
        <ele>841</ele>
        <time>2020-06-05T07:37:44.000Z</time>
      </trkpt>
      <trkpt lat="44.06119" lon="6.84971">
        <ele>841</ele>
        <time>2020-06-05T07:37:45.000Z</time>
      </trkpt>
      <trkpt lat="44.06119" lon="6.84971">
        <ele>841</ele>
        <time>2020-06-05T07:37:46.000Z</time>
      </trkpt>
      <trkpt lat="44.06119" lon="6.84971">
        <ele>842</ele>
        <time>2020-06-05T07:37:47.000Z</time>
      </trkpt>
      <trkpt lat="44.06119" lon="6.84971">
        <ele>842</ele>
        <time>2020-06-05T07:37:48.000Z</time>
      </trkpt>
      <trkpt lat="44.06119" lon="6.84971">
        <ele>842</ele>
        <time>2020-06-05T07:37:49.000Z</time>
      </trkpt>
      <trkpt lat="44.06119" lon="6.84971">
        <ele>842</ele>
        <time>2020-06-05T07:37:50.000Z</time>
      </trkpt>
      <trkpt lat="44.06119" lon="6.84971">
        <ele>842</ele>
        <time>2020-06-05T07:37:51.000Z</time>
      </trkpt>
      <trkpt lat="44.06119" lon="6.84971">
        <ele>842</ele>
        <time>2020-06-05T07:37:52.000Z</time>
      </trkpt>
      <trkpt lat="44.06119" lon="6.84971">
        <ele>842</ele>
        <time>2020-06-05T07:37:53.000Z</time>
      </trkpt>
      <trkpt lat="44.06119" lon="6.84971">
        <ele>842</ele>
        <time>2020-06-05T07:37:54.000Z</time>
      </trkpt>
      <trkpt lat="44.06119" lon="6.84971">
        <ele>842</ele>
        <time>2020-06-05T07:37:55.000Z</time>
      </trkpt>
      <trkpt lat="44.06119" lon="6.84971">
        <ele>842</ele>
        <time>2020-06-05T07:37:56.000Z</time>
      </trkpt>
      <trkpt lat="44.06119" lon="6.84972">
        <ele>842</ele>
        <time>2020-06-05T07:37:57.000Z</time>
      </trkpt>
      <trkpt lat="44.06119" lon="6.84972">
        <ele>842</ele>
        <time>2020-06-05T07:37:58.000Z</time>
      </trkpt>
      <trkpt lat="44.06119" lon="6.84972">
        <ele>842</ele>
        <time>2020-06-05T07:37:59.000Z</time>
      </trkpt>
      <trkpt lat="44.06119" lon="6.84972">
        <ele>842</ele>
        <time>2020-06-05T07:38:00.000Z</time>
      </trkpt>
      <trkpt lat="44.06119" lon="6.84972">
        <ele>842</ele>
        <time>2020-06-05T07:38:01.000Z</time>
      </trkpt>
      <trkpt lat="44.0612" lon="6.84972">
        <ele>842</ele>
        <time>2020-06-05T07:38:02.000Z</time>
      </trkpt>
      <trkpt lat="44.0612" lon="6.84972">
        <ele>842</ele>
        <time>2020-06-05T07:38:03.000Z</time>
      </trkpt>
      <trkpt lat="44.0612" lon="6.84972">
        <ele>842</ele>
        <time>2020-06-05T07:38:04.000Z</time>
      </trkpt>
      <trkpt lat="44.0612" lon="6.84972">
        <ele>842</ele>
        <time>2020-06-05T07:38:05.000Z</time>
      </trkpt>
      <trkpt lat="44.0612" lon="6.84972">
        <ele>842</ele>
        <time>2020-06-05T07:38:06.000Z</time>
      </trkpt>
      <trkpt lat="44.0612" lon="6.84972">
        <ele>842</ele>
        <time>2020-06-05T07:38:07.000Z</time>
      </trkpt>
      <trkpt lat="44.0612" lon="6.84972">
        <ele>842</ele>
        <time>2020-06-05T07:38:08.000Z</time>
      </trkpt>
      <trkpt lat="44.0612" lon="6.84972">
        <ele>842</ele>
        <time>2020-06-05T07:38:09.000Z</time>
      </trkpt>
      <trkpt lat="44.0612" lon="6.84972">
        <ele>842</ele>
        <time>2020-06-05T07:38:10.000Z</time>
      </trkpt>
      <trkpt lat="44.0612" lon="6.84972">
        <ele>843</ele>
        <time>2020-06-05T07:38:11.000Z</time>
      </trkpt>
      <trkpt lat="44.0612" lon="6.84972">
        <ele>843</ele>
        <time>2020-06-05T07:38:12.000Z</time>
      </trkpt>
      <trkpt lat="44.0612" lon="6.84972">
        <ele>843</ele>
        <time>2020-06-05T07:38:13.000Z</time>
      </trkpt>
      <trkpt lat="44.06119" lon="6.84972">
        <ele>843</ele>
        <time>2020-06-05T07:38:14.000Z</time>
      </trkpt>
      <trkpt lat="44.06119" lon="6.84972">
        <ele>843</ele>
        <time>2020-06-05T07:38:15.000Z</time>
      </trkpt>
      <trkpt lat="44.06119" lon="6.84972">
        <ele>843</ele>
        <time>2020-06-05T07:38:16.000Z</time>
      </trkpt>
      <trkpt lat="44.06119" lon="6.84972">
        <ele>843</ele>
        <time>2020-06-05T07:38:17.000Z</time>
      </trkpt>
      <trkpt lat="44.06119" lon="6.84972">
        <ele>843</ele>
        <time>2020-06-05T07:38:18.000Z</time>
      </trkpt>
      <trkpt lat="44.06119" lon="6.84972">
        <ele>843</ele>
        <time>2020-06-05T07:38:19.000Z</time>
      </trkpt>
      <trkpt lat="44.06119" lon="6.84973">
        <ele>843</ele>
        <time>2020-06-05T07:38:20.000Z</time>
      </trkpt>
      <trkpt lat="44.06119" lon="6.84973">
        <ele>843</ele>
        <time>2020-06-05T07:38:21.000Z</time>
      </trkpt>
      <trkpt lat="44.06119" lon="6.84973">
        <ele>843</ele>
        <time>2020-06-05T07:38:22.000Z</time>
      </trkpt>
      <trkpt lat="44.06119" lon="6.84973">
        <ele>843</ele>
        <time>2020-06-05T07:38:23.000Z</time>
      </trkpt>
      <trkpt lat="44.06119" lon="6.84973">
        <ele>843</ele>
        <time>2020-06-05T07:38:24.000Z</time>
      </trkpt>
      <trkpt lat="44.06119" lon="6.84973">
        <ele>843</ele>
        <time>2020-06-05T07:38:25.000Z</time>
      </trkpt>
      <trkpt lat="44.06119" lon="6.84973">
        <ele>843</ele>
        <time>2020-06-05T07:38:26.000Z</time>
      </trkpt>
      <trkpt lat="44.06119" lon="6.84973">
        <ele>843</ele>
        <time>2020-06-05T07:38:27.000Z</time>
      </trkpt>
      <trkpt lat="44.06119" lon="6.84973">
        <ele>843</ele>
        <time>2020-06-05T07:38:28.000Z</time>
      </trkpt>
      <trkpt lat="44.06119" lon="6.84973">
        <ele>843</ele>
        <time>2020-06-05T07:38:29.000Z</time>
      </trkpt>
      <trkpt lat="44.06119" lon="6.84973">
        <ele>843</ele>
        <time>2020-06-05T07:38:30.000Z</time>
      </trkpt>
      <trkpt lat="44.06118" lon="6.84973">
        <ele>843</ele>
        <time>2020-06-05T07:38:31.000Z</time>
      </trkpt>
      <trkpt lat="44.06119" lon="6.84973">
        <ele>843</ele>
        <time>2020-06-05T07:38:32.000Z</time>
      </trkpt>
      <trkpt lat="44.06118" lon="6.84973">
        <ele>843</ele>
        <time>2020-06-05T07:38:33.000Z</time>
      </trkpt>
      <trkpt lat="44.06118" lon="6.84974">
        <ele>844</ele>
        <time>2020-06-05T07:38:34.000Z</time>
      </trkpt>
      <trkpt lat="44.06118" lon="6.84974">
        <ele>844</ele>
        <time>2020-06-05T07:38:35.000Z</time>
      </trkpt>
      <trkpt lat="44.06118" lon="6.84974">
        <ele>844</ele>
        <time>2020-06-05T07:38:36.000Z</time>
      </trkpt>
      <trkpt lat="44.06118" lon="6.84974">
        <ele>844</ele>
        <time>2020-06-05T07:38:37.000Z</time>
      </trkpt>
      <trkpt lat="44.06118" lon="6.84974">
        <ele>844</ele>
        <time>2020-06-05T07:38:38.000Z</time>
      </trkpt>
      <trkpt lat="44.06118" lon="6.84974">
        <ele>844</ele>
        <time>2020-06-05T07:38:39.000Z</time>
      </trkpt>
      <trkpt lat="44.06118" lon="6.84974">
        <ele>844</ele>
        <time>2020-06-05T07:38:40.000Z</time>
      </trkpt>
      <trkpt lat="44.06118" lon="6.84974">
        <ele>844</ele>
        <time>2020-06-05T07:38:41.000Z</time>
      </trkpt>
      <trkpt lat="44.06118" lon="6.84974">
        <ele>844</ele>
        <time>2020-06-05T07:38:42.000Z</time>
      </trkpt>
      <trkpt lat="44.06118" lon="6.84974">
        <ele>844</ele>
        <time>2020-06-05T07:38:43.000Z</time>
      </trkpt>
      <trkpt lat="44.06118" lon="6.84974">
        <ele>844</ele>
        <time>2020-06-05T07:38:44.000Z</time>
      </trkpt>
      <trkpt lat="44.06118" lon="6.84974">
        <ele>844</ele>
        <time>2020-06-05T07:38:45.000Z</time>
      </trkpt>
      <trkpt lat="44.06118" lon="6.84974">
        <ele>844</ele>
        <time>2020-06-05T07:38:46.000Z</time>
      </trkpt>
      <trkpt lat="44.06118" lon="6.84974">
        <ele>844</ele>
        <time>2020-06-05T07:38:47.000Z</time>
      </trkpt>
      <trkpt lat="44.06118" lon="6.84974">
        <ele>844</ele>
        <time>2020-06-05T07:38:48.000Z</time>
      </trkpt>
      <trkpt lat="44.06118" lon="6.84974">
        <ele>844</ele>
        <time>2020-06-05T07:38:49.000Z</time>
      </trkpt>
      <trkpt lat="44.06118" lon="6.84974">
        <ele>844</ele>
        <time>2020-06-05T07:38:50.000Z</time>
      </trkpt>
      <trkpt lat="44.06118" lon="6.84974">
        <ele>844</ele>
        <time>2020-06-05T07:38:51.000Z</time>
      </trkpt>
      <trkpt lat="44.06118" lon="6.84974">
        <ele>844</ele>
        <time>2020-06-05T07:38:52.000Z</time>
      </trkpt>
      <trkpt lat="44.06118" lon="6.84974">
        <ele>844</ele>
        <time>2020-06-05T07:38:53.000Z</time>
      </trkpt>
      <trkpt lat="44.06118" lon="6.84974">
        <ele>844</ele>
        <time>2020-06-05T07:38:54.000Z</time>
      </trkpt>
      <trkpt lat="44.06118" lon="6.84974">
        <ele>844</ele>
        <time>2020-06-05T07:38:55.000Z</time>
      </trkpt>
      <trkpt lat="44.06118" lon="6.84974">
        <ele>844</ele>
        <time>2020-06-05T07:38:56.000Z</time>
      </trkpt>
      <trkpt lat="44.06118" lon="6.84974">
        <ele>844</ele>
        <time>2020-06-05T07:38:57.000Z</time>
      </trkpt>
      <trkpt lat="44.06118" lon="6.84974">
        <ele>844</ele>
        <time>2020-06-05T07:38:58.000Z</time>
      </trkpt>
      <trkpt lat="44.06118" lon="6.84974">
        <ele>844</ele>
        <time>2020-06-05T07:38:59.000Z</time>
      </trkpt>
      <trkpt lat="44.06118" lon="6.84974">
        <ele>844</ele>
        <time>2020-06-05T07:39:00.000Z</time>
      </trkpt>
      <trkpt lat="44.06118" lon="6.84974">
        <ele>844</ele>
        <time>2020-06-05T07:39:01.000Z</time>
      </trkpt>
      <trkpt lat="44.06118" lon="6.84974">
        <ele>844</ele>
        <time>2020-06-05T07:39:02.000Z</time>
      </trkpt>
      <trkpt lat="44.06118" lon="6.84974">
        <ele>844</ele>
        <time>2020-06-05T07:39:03.000Z</time>
      </trkpt>
      <trkpt lat="44.06118" lon="6.84974">
        <ele>844</ele>
        <time>2020-06-05T07:39:04.000Z</time>
      </trkpt>
      <trkpt lat="44.06118" lon="6.84974">
        <ele>844</ele>
        <time>2020-06-05T07:39:05.000Z</time>
      </trkpt>
      <trkpt lat="44.06118" lon="6.84974">
        <ele>844</ele>
        <time>2020-06-05T07:39:06.000Z</time>
      </trkpt>
      <trkpt lat="44.06118" lon="6.84974">
        <ele>844</ele>
        <time>2020-06-05T07:39:07.000Z</time>
      </trkpt>
      <trkpt lat="44.06118" lon="6.84974">
        <ele>844</ele>
        <time>2020-06-05T07:39:08.000Z</time>
      </trkpt>
      <trkpt lat="44.06119" lon="6.84974">
        <ele>844</ele>
        <time>2020-06-05T07:39:09.000Z</time>
      </trkpt>
      <trkpt lat="44.06119" lon="6.84974">
        <ele>844</ele>
        <time>2020-06-05T07:39:10.000Z</time>
      </trkpt>
      <trkpt lat="44.06119" lon="6.84974">
        <ele>844</ele>
        <time>2020-06-05T07:39:11.000Z</time>
      </trkpt>
      <trkpt lat="44.06119" lon="6.84974">
        <ele>844</ele>
        <time>2020-06-05T07:39:12.000Z</time>
      </trkpt>
      <trkpt lat="44.06119" lon="6.84974">
        <ele>844</ele>
        <time>2020-06-05T07:39:13.000Z</time>
      </trkpt>
      <trkpt lat="44.06119" lon="6.84974">
        <ele>844</ele>
        <time>2020-06-05T07:39:14.000Z</time>
      </trkpt>
      <trkpt lat="44.06119" lon="6.84974">
        <ele>844</ele>
        <time>2020-06-05T07:39:15.000Z</time>
      </trkpt>
      <trkpt lat="44.06119" lon="6.84974">
        <ele>844</ele>
        <time>2020-06-05T07:39:16.000Z</time>
      </trkpt>
      <trkpt lat="44.06119" lon="6.84974">
        <ele>844</ele>
        <time>2020-06-05T07:39:17.000Z</time>
      </trkpt>
      <trkpt lat="44.06119" lon="6.84974">
        <ele>844</ele>
        <time>2020-06-05T07:39:18.000Z</time>
      </trkpt>
      <trkpt lat="44.06119" lon="6.84974">
        <ele>844</ele>
        <time>2020-06-05T07:39:19.000Z</time>
      </trkpt>
      <trkpt lat="44.06119" lon="6.84974">
        <ele>844</ele>
        <time>2020-06-05T07:39:20.000Z</time>
      </trkpt>
      <trkpt lat="44.06119" lon="6.84974">
        <ele>844</ele>
        <time>2020-06-05T07:39:21.000Z</time>
      </trkpt>
      <trkpt lat="44.06119" lon="6.84974">
        <ele>844</ele>
        <time>2020-06-05T07:39:22.000Z</time>
      </trkpt>
      <trkpt lat="44.06118" lon="6.84974">
        <ele>844</ele>
        <time>2020-06-05T07:39:23.000Z</time>
      </trkpt>
      <trkpt lat="44.06118" lon="6.84974">
        <ele>844</ele>
        <time>2020-06-05T07:39:24.000Z</time>
      </trkpt>
      <trkpt lat="44.06119" lon="6.84974">
        <ele>844</ele>
        <time>2020-06-05T07:39:25.000Z</time>
      </trkpt>
      <trkpt lat="44.06119" lon="6.84974">
        <ele>844</ele>
        <time>2020-06-05T07:39:26.000Z</time>
      </trkpt>
      <trkpt lat="44.06119" lon="6.84974">
        <ele>844</ele>
        <time>2020-06-05T07:39:27.000Z</time>
      </trkpt>
      <trkpt lat="44.06119" lon="6.84974">
        <ele>844</ele>
        <time>2020-06-05T07:39:28.000Z</time>
      </trkpt>
      <trkpt lat="44.06119" lon="6.84974">
        <ele>844</ele>
        <time>2020-06-05T07:39:29.000Z</time>
      </trkpt>
      <trkpt lat="44.06119" lon="6.84974">
        <ele>844</ele>
        <time>2020-06-05T07:39:30.000Z</time>
      </trkpt>
      <trkpt lat="44.06119" lon="6.84974">
        <ele>844</ele>
        <time>2020-06-05T07:39:31.000Z</time>
      </trkpt>
      <trkpt lat="44.06119" lon="6.84974">
        <ele>844</ele>
        <time>2020-06-05T07:39:32.000Z</time>
      </trkpt>
      <trkpt lat="44.06119" lon="6.84974">
        <ele>844</ele>
        <time>2020-06-05T07:39:33.000Z</time>
      </trkpt>
      <trkpt lat="44.06119" lon="6.84974">
        <ele>844</ele>
        <time>2020-06-05T07:39:34.000Z</time>
      </trkpt>
      <trkpt lat="44.06119" lon="6.84974">
        <ele>844</ele>
        <time>2020-06-05T07:39:35.000Z</time>
      </trkpt>
      <trkpt lat="44.06119" lon="6.84974">
        <ele>844</ele>
        <time>2020-06-05T07:39:36.000Z</time>
      </trkpt>
      <trkpt lat="44.06119" lon="6.84974">
        <ele>844</ele>
        <time>2020-06-05T07:39:37.000Z</time>
      </trkpt>
      <trkpt lat="44.06119" lon="6.84974">
        <ele>844</ele>
        <time>2020-06-05T07:39:38.000Z</time>
      </trkpt>
      <trkpt lat="44.06119" lon="6.84974">
        <ele>844</ele>
        <time>2020-06-05T07:39:39.000Z</time>
      </trkpt>
      <trkpt lat="44.06119" lon="6.84974">
        <ele>844</ele>
        <time>2020-06-05T07:39:40.000Z</time>
      </trkpt>
      <trkpt lat="44.0612" lon="6.84974">
        <ele>844</ele>
        <time>2020-06-05T07:39:41.000Z</time>
      </trkpt>
      <trkpt lat="44.06119" lon="6.84974">
        <ele>844</ele>
        <time>2020-06-05T07:39:42.000Z</time>
      </trkpt>
      <trkpt lat="44.06119" lon="6.84974">
        <ele>844</ele>
        <time>2020-06-05T07:39:43.000Z</time>
      </trkpt>
      <trkpt lat="44.06119" lon="6.84974">
        <ele>844</ele>
        <time>2020-06-05T07:39:44.000Z</time>
      </trkpt>
      <trkpt lat="44.0612" lon="6.84974">
        <ele>844</ele>
        <time>2020-06-05T07:39:45.000Z</time>
      </trkpt>
      <trkpt lat="44.0612" lon="6.84974">
        <ele>844</ele>
        <time>2020-06-05T07:39:46.000Z</time>
      </trkpt>
      <trkpt lat="44.0612" lon="6.84974">
        <ele>844</ele>
        <time>2020-06-05T07:39:47.000Z</time>
      </trkpt>
      <trkpt lat="44.0612" lon="6.84974">
        <ele>844</ele>
        <time>2020-06-05T07:39:48.000Z</time>
      </trkpt>
      <trkpt lat="44.0612" lon="6.84974">
        <ele>844</ele>
        <time>2020-06-05T07:39:49.000Z</time>
      </trkpt>
      <trkpt lat="44.0612" lon="6.84974">
        <ele>844</ele>
        <time>2020-06-05T07:39:50.000Z</time>
      </trkpt>
      <trkpt lat="44.0612" lon="6.84974">
        <ele>844</ele>
        <time>2020-06-05T07:39:51.000Z</time>
      </trkpt>
      <trkpt lat="44.0612" lon="6.84974">
        <ele>844</ele>
        <time>2020-06-05T07:39:52.000Z</time>
      </trkpt>
      <trkpt lat="44.0612" lon="6.84974">
        <ele>844</ele>
        <time>2020-06-05T07:39:53.000Z</time>
      </trkpt>
      <trkpt lat="44.0612" lon="6.84974">
        <ele>844</ele>
        <time>2020-06-05T07:39:54.000Z</time>
      </trkpt>
      <trkpt lat="44.0612" lon="6.84974">
        <ele>844</ele>
        <time>2020-06-05T07:39:55.000Z</time>
      </trkpt>
      <trkpt lat="44.0612" lon="6.84974">
        <ele>844</ele>
        <time>2020-06-05T07:39:56.000Z</time>
      </trkpt>
      <trkpt lat="44.0612" lon="6.84974">
        <ele>844</ele>
        <time>2020-06-05T07:39:57.000Z</time>
      </trkpt>
      <trkpt lat="44.0612" lon="6.84974">
        <ele>844</ele>
        <time>2020-06-05T07:39:58.000Z</time>
      </trkpt>
      <trkpt lat="44.0612" lon="6.84974">
        <ele>844</ele>
        <time>2020-06-05T07:39:59.000Z</time>
      </trkpt>
      <trkpt lat="44.0612" lon="6.84974">
        <ele>844</ele>
        <time>2020-06-05T07:40:00.000Z</time>
      </trkpt>
      <trkpt lat="44.0612" lon="6.84974">
        <ele>844</ele>
        <time>2020-06-05T07:40:01.000Z</time>
      </trkpt>
      <trkpt lat="44.0612" lon="6.84974">
        <ele>844</ele>
        <time>2020-06-05T07:40:02.000Z</time>
      </trkpt>
      <trkpt lat="44.0612" lon="6.84974">
        <ele>844</ele>
        <time>2020-06-05T07:40:03.000Z</time>
      </trkpt>
      <trkpt lat="44.0612" lon="6.84974">
        <ele>844</ele>
        <time>2020-06-05T07:40:04.000Z</time>
      </trkpt>
      <trkpt lat="44.0612" lon="6.84974">
        <ele>844</ele>
        <time>2020-06-05T07:40:05.000Z</time>
      </trkpt>
      <trkpt lat="44.0612" lon="6.84974">
        <ele>844</ele>
        <time>2020-06-05T07:40:06.000Z</time>
      </trkpt>
      <trkpt lat="44.0612" lon="6.84974">
        <ele>845</ele>
        <time>2020-06-05T07:40:07.000Z</time>
      </trkpt>
      <trkpt lat="44.0612" lon="6.84974">
        <ele>845</ele>
        <time>2020-06-05T07:40:08.000Z</time>
      </trkpt>
      <trkpt lat="44.0612" lon="6.84974">
        <ele>845</ele>
        <time>2020-06-05T07:40:09.000Z</time>
      </trkpt>
      <trkpt lat="44.0612" lon="6.84974">
        <ele>845</ele>
        <time>2020-06-05T07:40:10.000Z</time>
      </trkpt>
      <trkpt lat="44.06121" lon="6.84974">
        <ele>845</ele>
        <time>2020-06-05T07:40:11.000Z</time>
      </trkpt>
      <trkpt lat="44.06121" lon="6.84975">
        <ele>845</ele>
        <time>2020-06-05T07:40:12.000Z</time>
      </trkpt>
      <trkpt lat="44.06121" lon="6.84975">
        <ele>845</ele>
        <time>2020-06-05T07:40:13.000Z</time>
      </trkpt>
      <trkpt lat="44.06121" lon="6.84975">
        <ele>844</ele>
        <time>2020-06-05T07:40:14.000Z</time>
      </trkpt>
      <trkpt lat="44.06121" lon="6.84975">
        <ele>844</ele>
        <time>2020-06-05T07:40:15.000Z</time>
      </trkpt>
      <trkpt lat="44.06121" lon="6.84975">
        <ele>845</ele>
        <time>2020-06-05T07:40:16.000Z</time>
      </trkpt>
      <trkpt lat="44.06121" lon="6.84975">
        <ele>845</ele>
        <time>2020-06-05T07:40:17.000Z</time>
      </trkpt>
      <trkpt lat="44.06121" lon="6.84975">
        <ele>845</ele>
        <time>2020-06-05T07:40:18.000Z</time>
      </trkpt>
      <trkpt lat="44.06121" lon="6.84975">
        <ele>845</ele>
        <time>2020-06-05T07:40:19.000Z</time>
      </trkpt>
      <trkpt lat="44.06121" lon="6.84975">
        <ele>845</ele>
        <time>2020-06-05T07:40:20.000Z</time>
      </trkpt>
      <trkpt lat="44.06121" lon="6.84975">
        <ele>845</ele>
        <time>2020-06-05T07:40:21.000Z</time>
      </trkpt>
      <trkpt lat="44.06121" lon="6.84975">
        <ele>845</ele>
        <time>2020-06-05T07:40:22.000Z</time>
      </trkpt>
      <trkpt lat="44.06121" lon="6.84975">
        <ele>845</ele>
        <time>2020-06-05T07:40:23.000Z</time>
      </trkpt>
      <trkpt lat="44.06121" lon="6.84975">
        <ele>845</ele>
        <time>2020-06-05T07:40:24.000Z</time>
      </trkpt>
      <trkpt lat="44.06121" lon="6.84975">
        <ele>845</ele>
        <time>2020-06-05T07:40:25.000Z</time>
      </trkpt>
      <trkpt lat="44.06121" lon="6.84975">
        <ele>845</ele>
        <time>2020-06-05T07:40:26.000Z</time>
      </trkpt>
      <trkpt lat="44.06121" lon="6.84975">
        <ele>845</ele>
        <time>2020-06-05T07:40:27.000Z</time>
      </trkpt>
      <trkpt lat="44.06121" lon="6.84974">
        <ele>845</ele>
        <time>2020-06-05T07:40:28.000Z</time>
      </trkpt>
      <trkpt lat="44.06121" lon="6.84974">
        <ele>845</ele>
        <time>2020-06-05T07:40:29.000Z</time>
      </trkpt>
      <trkpt lat="44.06121" lon="6.84975">
        <ele>845</ele>
        <time>2020-06-05T07:40:30.000Z</time>
      </trkpt>
      <trkpt lat="44.06121" lon="6.84975">
        <ele>845</ele>
        <time>2020-06-05T07:40:31.000Z</time>
      </trkpt>
      <trkpt lat="44.06121" lon="6.84976">
        <ele>845</ele>
        <time>2020-06-05T07:40:32.000Z</time>
      </trkpt>
      <trkpt lat="44.06121" lon="6.84977">
        <ele>845</ele>
        <time>2020-06-05T07:40:33.000Z</time>
      </trkpt>
      <trkpt lat="44.06121" lon="6.84978">
        <ele>845</ele>
        <time>2020-06-05T07:40:34.000Z</time>
      </trkpt>
      <trkpt lat="44.06121" lon="6.84979">
        <ele>845</ele>
        <time>2020-06-05T07:40:35.000Z</time>
      </trkpt>
      <trkpt lat="44.06121" lon="6.84979">
        <ele>845</ele>
        <time>2020-06-05T07:40:36.000Z</time>
      </trkpt>
      <trkpt lat="44.06121" lon="6.84979">
        <ele>846</ele>
        <time>2020-06-05T07:40:37.000Z</time>
      </trkpt>
      <trkpt lat="44.06121" lon="6.84979">
        <ele>845</ele>
        <time>2020-06-05T07:40:38.000Z</time>
      </trkpt>
      <trkpt lat="44.0612" lon="6.84978">
        <ele>845</ele>
        <time>2020-06-05T07:40:39.000Z</time>
      </trkpt>
      <trkpt lat="44.0612" lon="6.84978">
        <ele>845</ele>
        <time>2020-06-05T07:40:40.000Z</time>
      </trkpt>
      <trkpt lat="44.06119" lon="6.84977">
        <ele>845</ele>
        <time>2020-06-05T07:40:41.000Z</time>
      </trkpt>
      <trkpt lat="44.06119" lon="6.84977">
        <ele>845</ele>
        <time>2020-06-05T07:40:42.000Z</time>
      </trkpt>
      <trkpt lat="44.06118" lon="6.84976">
        <ele>846</ele>
        <time>2020-06-05T07:40:43.000Z</time>
      </trkpt>
      <trkpt lat="44.06118" lon="6.84976">
        <ele>846</ele>
        <time>2020-06-05T07:40:44.000Z</time>
      </trkpt>
      <trkpt lat="44.06117" lon="6.84975">
        <ele>846</ele>
        <time>2020-06-05T07:40:45.000Z</time>
      </trkpt>
      <trkpt lat="44.06117" lon="6.84975">
        <ele>845</ele>
        <time>2020-06-05T07:40:46.000Z</time>
      </trkpt>
      <trkpt lat="44.06117" lon="6.84975">
        <ele>846</ele>
        <time>2020-06-05T07:40:47.000Z</time>
      </trkpt>
      <trkpt lat="44.06117" lon="6.84975">
        <ele>846</ele>
        <time>2020-06-05T07:40:48.000Z</time>
      </trkpt>
      <trkpt lat="44.06117" lon="6.84975">
        <ele>846</ele>
        <time>2020-06-05T07:40:49.000Z</time>
      </trkpt>
      <trkpt lat="44.06117" lon="6.84975">
        <ele>846</ele>
        <time>2020-06-05T07:40:50.000Z</time>
      </trkpt>
      <trkpt lat="44.06116" lon="6.84974">
        <ele>846</ele>
        <time>2020-06-05T07:40:51.000Z</time>
      </trkpt>
      <trkpt lat="44.06116" lon="6.84974">
        <ele>845</ele>
        <time>2020-06-05T07:40:52.000Z</time>
      </trkpt>
      <trkpt lat="44.06116" lon="6.84973">
        <ele>845</ele>
        <time>2020-06-05T07:40:53.000Z</time>
      </trkpt>
      <trkpt lat="44.06116" lon="6.84972">
        <ele>845</ele>
        <time>2020-06-05T07:40:54.000Z</time>
      </trkpt>
      <trkpt lat="44.06116" lon="6.84972">
        <ele>845</ele>
        <time>2020-06-05T07:40:55.000Z</time>
      </trkpt>
      <trkpt lat="44.06116" lon="6.84971">
        <ele>845</ele>
        <time>2020-06-05T07:40:56.000Z</time>
      </trkpt>
      <trkpt lat="44.06115" lon="6.8497">
        <ele>846</ele>
        <time>2020-06-05T07:40:57.000Z</time>
      </trkpt>
      <trkpt lat="44.06115" lon="6.84969">
        <ele>846</ele>
        <time>2020-06-05T07:40:58.000Z</time>
      </trkpt>
      <trkpt lat="44.06114" lon="6.84968">
        <ele>846</ele>
        <time>2020-06-05T07:40:59.000Z</time>
      </trkpt>
      <trkpt lat="44.06113" lon="6.84967">
        <ele>846</ele>
        <time>2020-06-05T07:41:00.000Z</time>
      </trkpt>
      <trkpt lat="44.06112" lon="6.84967">
        <ele>846</ele>
        <time>2020-06-05T07:41:01.000Z</time>
      </trkpt>
      <trkpt lat="44.06112" lon="6.84966">
        <ele>845</ele>
        <time>2020-06-05T07:41:02.000Z</time>
      </trkpt>
      <trkpt lat="44.06111" lon="6.84965">
        <ele>845</ele>
        <time>2020-06-05T07:41:03.000Z</time>
      </trkpt>
      <trkpt lat="44.06111" lon="6.84965">
        <ele>845</ele>
        <time>2020-06-05T07:41:04.000Z</time>
      </trkpt>
      <trkpt lat="44.0611" lon="6.84964">
        <ele>845</ele>
        <time>2020-06-05T07:41:05.000Z</time>
      </trkpt>
      <trkpt lat="44.06109" lon="6.84963">
        <ele>845</ele>
        <time>2020-06-05T07:41:06.000Z</time>
      </trkpt>
      <trkpt lat="44.06109" lon="6.84962">
        <ele>845</ele>
        <time>2020-06-05T07:41:07.000Z</time>
      </trkpt>
      <trkpt lat="44.06108" lon="6.84962">
        <ele>845</ele>
        <time>2020-06-05T07:41:08.000Z</time>
      </trkpt>
      <trkpt lat="44.06108" lon="6.84961">
        <ele>845</ele>
        <time>2020-06-05T07:41:09.000Z</time>
      </trkpt>
      <trkpt lat="44.06107" lon="6.8496">
        <ele>845</ele>
        <time>2020-06-05T07:41:10.000Z</time>
      </trkpt>
      <trkpt lat="44.06107" lon="6.8496">
        <ele>846</ele>
        <time>2020-06-05T07:41:11.000Z</time>
      </trkpt>
      <trkpt lat="44.06106" lon="6.8496">
        <ele>846</ele>
        <time>2020-06-05T07:41:12.000Z</time>
      </trkpt>
      <trkpt lat="44.06106" lon="6.84959">
        <ele>846</ele>
        <time>2020-06-05T07:41:13.000Z</time>
      </trkpt>
      <trkpt lat="44.06105" lon="6.84958">
        <ele>846</ele>
        <time>2020-06-05T07:41:14.000Z</time>
      </trkpt>
      <trkpt lat="44.06104" lon="6.84958">
        <ele>846</ele>
        <time>2020-06-05T07:41:15.000Z</time>
      </trkpt>
      <trkpt lat="44.06104" lon="6.84957">
        <ele>846</ele>
        <time>2020-06-05T07:41:16.000Z</time>
      </trkpt>
      <trkpt lat="44.06103" lon="6.84957">
        <ele>846</ele>
        <time>2020-06-05T07:41:17.000Z</time>
      </trkpt>
      <trkpt lat="44.06102" lon="6.84957">
        <ele>846</ele>
        <time>2020-06-05T07:41:18.000Z</time>
      </trkpt>
      <trkpt lat="44.06102" lon="6.84958">
        <ele>847</ele>
        <time>2020-06-05T07:41:19.000Z</time>
      </trkpt>
      <trkpt lat="44.06101" lon="6.84958">
        <ele>847</ele>
        <time>2020-06-05T07:41:20.000Z</time>
      </trkpt>
      <trkpt lat="44.06101" lon="6.84958">
        <ele>847</ele>
        <time>2020-06-05T07:41:21.000Z</time>
      </trkpt>
      <trkpt lat="44.061" lon="6.84958">
        <ele>847</ele>
        <time>2020-06-05T07:41:22.000Z</time>
      </trkpt>
      <trkpt lat="44.061" lon="6.84959">
        <ele>847</ele>
        <time>2020-06-05T07:41:23.000Z</time>
      </trkpt>
      <trkpt lat="44.06099" lon="6.84959">
        <ele>847</ele>
        <time>2020-06-05T07:41:24.000Z</time>
      </trkpt>
      <trkpt lat="44.06099" lon="6.84959">
        <ele>847</ele>
        <time>2020-06-05T07:41:25.000Z</time>
      </trkpt>
      <trkpt lat="44.06099" lon="6.8496">
        <ele>847</ele>
        <time>2020-06-05T07:41:26.000Z</time>
      </trkpt>
      <trkpt lat="44.06099" lon="6.8496">
        <ele>847</ele>
        <time>2020-06-05T07:41:27.000Z</time>
      </trkpt>
      <trkpt lat="44.06098" lon="6.8496">
        <ele>847</ele>
        <time>2020-06-05T07:41:28.000Z</time>
      </trkpt>
      <trkpt lat="44.06097" lon="6.8496">
        <ele>847</ele>
        <time>2020-06-05T07:41:29.000Z</time>
      </trkpt>
      <trkpt lat="44.06097" lon="6.84959">
        <ele>848</ele>
        <time>2020-06-05T07:41:30.000Z</time>
      </trkpt>
      <trkpt lat="44.06096" lon="6.84959">
        <ele>848</ele>
        <time>2020-06-05T07:41:31.000Z</time>
      </trkpt>
      <trkpt lat="44.06096" lon="6.84958">
        <ele>848</ele>
        <time>2020-06-05T07:41:32.000Z</time>
      </trkpt>
      <trkpt lat="44.06095" lon="6.84958">
        <ele>848</ele>
        <time>2020-06-05T07:41:33.000Z</time>
      </trkpt>
      <trkpt lat="44.06095" lon="6.84957">
        <ele>848</ele>
        <time>2020-06-05T07:41:34.000Z</time>
      </trkpt>
      <trkpt lat="44.06094" lon="6.84956">
        <ele>848</ele>
        <time>2020-06-05T07:41:35.000Z</time>
      </trkpt>
      <trkpt lat="44.06094" lon="6.84955">
        <ele>848</ele>
        <time>2020-06-05T07:41:36.000Z</time>
      </trkpt>
      <trkpt lat="44.06094" lon="6.84955">
        <ele>848</ele>
        <time>2020-06-05T07:41:37.000Z</time>
      </trkpt>
      <trkpt lat="44.06093" lon="6.84954">
        <ele>848</ele>
        <time>2020-06-05T07:41:38.000Z</time>
      </trkpt>
      <trkpt lat="44.06093" lon="6.84953">
        <ele>848</ele>
        <time>2020-06-05T07:41:39.000Z</time>
      </trkpt>
      <trkpt lat="44.06092" lon="6.84953">
        <ele>849</ele>
        <time>2020-06-05T07:41:40.000Z</time>
      </trkpt>
      <trkpt lat="44.06092" lon="6.84952">
        <ele>849</ele>
        <time>2020-06-05T07:41:41.000Z</time>
      </trkpt>
      <trkpt lat="44.06091" lon="6.84951">
        <ele>849</ele>
        <time>2020-06-05T07:41:42.000Z</time>
      </trkpt>
      <trkpt lat="44.06091" lon="6.8495">
        <ele>849</ele>
        <time>2020-06-05T07:41:43.000Z</time>
      </trkpt>
      <trkpt lat="44.06091" lon="6.8495">
        <ele>849</ele>
        <time>2020-06-05T07:41:44.000Z</time>
      </trkpt>
      <trkpt lat="44.0609" lon="6.84949">
        <ele>849</ele>
        <time>2020-06-05T07:41:45.000Z</time>
      </trkpt>
      <trkpt lat="44.0609" lon="6.84948">
        <ele>849</ele>
        <time>2020-06-05T07:41:46.000Z</time>
      </trkpt>
      <trkpt lat="44.06089" lon="6.84948">
        <ele>849</ele>
        <time>2020-06-05T07:41:47.000Z</time>
      </trkpt>
      <trkpt lat="44.06089" lon="6.84947">
        <ele>849</ele>
        <time>2020-06-05T07:41:48.000Z</time>
      </trkpt>
      <trkpt lat="44.06089" lon="6.84946">
        <ele>849</ele>
        <time>2020-06-05T07:41:49.000Z</time>
      </trkpt>
      <trkpt lat="44.06089" lon="6.84946">
        <ele>849</ele>
        <time>2020-06-05T07:41:50.000Z</time>
      </trkpt>
      <trkpt lat="44.06088" lon="6.84946">
        <ele>849</ele>
        <time>2020-06-05T07:41:51.000Z</time>
      </trkpt>
      <trkpt lat="44.06088" lon="6.84946">
        <ele>849</ele>
        <time>2020-06-05T07:41:52.000Z</time>
      </trkpt>
      <trkpt lat="44.06088" lon="6.84945">
        <ele>849</ele>
        <time>2020-06-05T07:41:53.000Z</time>
      </trkpt>
      <trkpt lat="44.06088" lon="6.84944">
        <ele>849</ele>
        <time>2020-06-05T07:41:54.000Z</time>
      </trkpt>
      <trkpt lat="44.06087" lon="6.84943">
        <ele>850</ele>
        <time>2020-06-05T07:41:55.000Z</time>
      </trkpt>
      <trkpt lat="44.06087" lon="6.84943">
        <ele>850</ele>
        <time>2020-06-05T07:41:56.000Z</time>
      </trkpt>
      <trkpt lat="44.06086" lon="6.84942">
        <ele>850</ele>
        <time>2020-06-05T07:41:57.000Z</time>
      </trkpt>
      <trkpt lat="44.06086" lon="6.84942">
        <ele>850</ele>
        <time>2020-06-05T07:41:58.000Z</time>
      </trkpt>
      <trkpt lat="44.06085" lon="6.84941">
        <ele>850</ele>
        <time>2020-06-05T07:41:59.000Z</time>
      </trkpt>
      <trkpt lat="44.06085" lon="6.84941">
        <ele>851</ele>
        <time>2020-06-05T07:42:00.000Z</time>
      </trkpt>
      <trkpt lat="44.06084" lon="6.8494">
        <ele>851</ele>
        <time>2020-06-05T07:42:01.000Z</time>
      </trkpt>
      <trkpt lat="44.06084" lon="6.84939">
        <ele>851</ele>
        <time>2020-06-05T07:42:02.000Z</time>
      </trkpt>
      <trkpt lat="44.06084" lon="6.84938">
        <ele>851</ele>
        <time>2020-06-05T07:42:03.000Z</time>
      </trkpt>
      <trkpt lat="44.06084" lon="6.84938">
        <ele>851</ele>
        <time>2020-06-05T07:42:04.000Z</time>
      </trkpt>
      <trkpt lat="44.06084" lon="6.84937">
        <ele>851</ele>
        <time>2020-06-05T07:42:05.000Z</time>
      </trkpt>
      <trkpt lat="44.06083" lon="6.84937">
        <ele>852</ele>
        <time>2020-06-05T07:42:06.000Z</time>
      </trkpt>
      <trkpt lat="44.06083" lon="6.84936">
        <ele>852</ele>
        <time>2020-06-05T07:42:07.000Z</time>
      </trkpt>
      <trkpt lat="44.06082" lon="6.84935">
        <ele>852</ele>
        <time>2020-06-05T07:42:08.000Z</time>
      </trkpt>
      <trkpt lat="44.06082" lon="6.84935">
        <ele>852</ele>
        <time>2020-06-05T07:42:09.000Z</time>
      </trkpt>
      <trkpt lat="44.06082" lon="6.84934">
        <ele>853</ele>
        <time>2020-06-05T07:42:10.000Z</time>
      </trkpt>
      <trkpt lat="44.06081" lon="6.84934">
        <ele>853</ele>
        <time>2020-06-05T07:42:11.000Z</time>
      </trkpt>
      <trkpt lat="44.06081" lon="6.84934">
        <ele>853</ele>
        <time>2020-06-05T07:42:12.000Z</time>
      </trkpt>
      <trkpt lat="44.0608" lon="6.84933">
        <ele>853</ele>
        <time>2020-06-05T07:42:13.000Z</time>
      </trkpt>
      <trkpt lat="44.0608" lon="6.84933">
        <ele>854</ele>
        <time>2020-06-05T07:42:14.000Z</time>
      </trkpt>
      <trkpt lat="44.06079" lon="6.84932">
        <ele>854</ele>
        <time>2020-06-05T07:42:15.000Z</time>
      </trkpt>
      <trkpt lat="44.06079" lon="6.84931">
        <ele>854</ele>
        <time>2020-06-05T07:42:16.000Z</time>
      </trkpt>
      <trkpt lat="44.06078" lon="6.84931">
        <ele>854</ele>
        <time>2020-06-05T07:42:17.000Z</time>
      </trkpt>
      <trkpt lat="44.06078" lon="6.8493">
        <ele>855</ele>
        <time>2020-06-05T07:42:18.000Z</time>
      </trkpt>
      <trkpt lat="44.06078" lon="6.84929">
        <ele>855</ele>
        <time>2020-06-05T07:42:19.000Z</time>
      </trkpt>
      <trkpt lat="44.06077" lon="6.84928">
        <ele>855</ele>
        <time>2020-06-05T07:42:20.000Z</time>
      </trkpt>
      <trkpt lat="44.06077" lon="6.84927">
        <ele>855</ele>
        <time>2020-06-05T07:42:21.000Z</time>
      </trkpt>
      <trkpt lat="44.06077" lon="6.84926">
        <ele>855</ele>
        <time>2020-06-05T07:42:22.000Z</time>
      </trkpt>
      <trkpt lat="44.06077" lon="6.84924">
        <ele>855</ele>
        <time>2020-06-05T07:42:23.000Z</time>
      </trkpt>
      <trkpt lat="44.06076" lon="6.84924">
        <ele>855</ele>
        <time>2020-06-05T07:42:24.000Z</time>
      </trkpt>
      <trkpt lat="44.06076" lon="6.84924">
        <ele>855</ele>
        <time>2020-06-05T07:42:25.000Z</time>
      </trkpt>
      <trkpt lat="44.06075" lon="6.84923">
        <ele>855</ele>
        <time>2020-06-05T07:42:26.000Z</time>
      </trkpt>
      <trkpt lat="44.06075" lon="6.84923">
        <ele>855</ele>
        <time>2020-06-05T07:42:27.000Z</time>
      </trkpt>
      <trkpt lat="44.06075" lon="6.84923">
        <ele>855</ele>
        <time>2020-06-05T07:42:28.000Z</time>
      </trkpt>
      <trkpt lat="44.06074" lon="6.84923">
        <ele>856</ele>
        <time>2020-06-05T07:42:29.000Z</time>
      </trkpt>
      <trkpt lat="44.06074" lon="6.84924">
        <ele>856</ele>
        <time>2020-06-05T07:42:30.000Z</time>
      </trkpt>
      <trkpt lat="44.06074" lon="6.84924">
        <ele>856</ele>
        <time>2020-06-05T07:42:31.000Z</time>
      </trkpt>
      <trkpt lat="44.06073" lon="6.84925">
        <ele>856</ele>
        <time>2020-06-05T07:42:32.000Z</time>
      </trkpt>
      <trkpt lat="44.06073" lon="6.84925">
        <ele>856</ele>
        <time>2020-06-05T07:42:33.000Z</time>
      </trkpt>
      <trkpt lat="44.06072" lon="6.84926">
        <ele>856</ele>
        <time>2020-06-05T07:42:34.000Z</time>
      </trkpt>
      <trkpt lat="44.06072" lon="6.84926">
        <ele>856</ele>
        <time>2020-06-05T07:42:35.000Z</time>
      </trkpt>
      <trkpt lat="44.06072" lon="6.84927">
        <ele>857</ele>
        <time>2020-06-05T07:42:36.000Z</time>
      </trkpt>
      <trkpt lat="44.06072" lon="6.84928">
        <ele>857</ele>
        <time>2020-06-05T07:42:37.000Z</time>
      </trkpt>
      <trkpt lat="44.06072" lon="6.84928">
        <ele>857</ele>
        <time>2020-06-05T07:42:38.000Z</time>
      </trkpt>
      <trkpt lat="44.06072" lon="6.84929">
        <ele>857</ele>
        <time>2020-06-05T07:42:39.000Z</time>
      </trkpt>
      <trkpt lat="44.06072" lon="6.84929">
        <ele>857</ele>
        <time>2020-06-05T07:42:40.000Z</time>
      </trkpt>
      <trkpt lat="44.06072" lon="6.8493">
        <ele>857</ele>
        <time>2020-06-05T07:42:41.000Z</time>
      </trkpt>
      <trkpt lat="44.06073" lon="6.8493">
        <ele>857</ele>
        <time>2020-06-05T07:42:42.000Z</time>
      </trkpt>
      <trkpt lat="44.06073" lon="6.84931">
        <ele>857</ele>
        <time>2020-06-05T07:42:43.000Z</time>
      </trkpt>
      <trkpt lat="44.06073" lon="6.84931">
        <ele>858</ele>
        <time>2020-06-05T07:42:44.000Z</time>
      </trkpt>
      <trkpt lat="44.06073" lon="6.84932">
        <ele>858</ele>
        <time>2020-06-05T07:42:45.000Z</time>
      </trkpt>
      <trkpt lat="44.06073" lon="6.84933">
        <ele>858</ele>
        <time>2020-06-05T07:42:46.000Z</time>
      </trkpt>
      <trkpt lat="44.06073" lon="6.84934">
        <ele>858</ele>
        <time>2020-06-05T07:42:47.000Z</time>
      </trkpt>
      <trkpt lat="44.06073" lon="6.84934">
        <ele>858</ele>
        <time>2020-06-05T07:42:48.000Z</time>
      </trkpt>
      <trkpt lat="44.06073" lon="6.84935">
        <ele>858</ele>
        <time>2020-06-05T07:42:49.000Z</time>
      </trkpt>
      <trkpt lat="44.06073" lon="6.84936">
        <ele>858</ele>
        <time>2020-06-05T07:42:50.000Z</time>
      </trkpt>
      <trkpt lat="44.06074" lon="6.84937">
        <ele>858</ele>
        <time>2020-06-05T07:42:51.000Z</time>
      </trkpt>
      <trkpt lat="44.06074" lon="6.84938">
        <ele>859</ele>
        <time>2020-06-05T07:42:52.000Z</time>
      </trkpt>
      <trkpt lat="44.06074" lon="6.84938">
        <ele>859</ele>
        <time>2020-06-05T07:42:53.000Z</time>
      </trkpt>
      <trkpt lat="44.06074" lon="6.84939">
        <ele>859</ele>
        <time>2020-06-05T07:42:54.000Z</time>
      </trkpt>
      <trkpt lat="44.06074" lon="6.8494">
        <ele>859</ele>
        <time>2020-06-05T07:42:55.000Z</time>
      </trkpt>
      <trkpt lat="44.06074" lon="6.84941">
        <ele>859</ele>
        <time>2020-06-05T07:42:56.000Z</time>
      </trkpt>
      <trkpt lat="44.06074" lon="6.84941">
        <ele>859</ele>
        <time>2020-06-05T07:42:57.000Z</time>
      </trkpt>
      <trkpt lat="44.06075" lon="6.84942">
        <ele>859</ele>
        <time>2020-06-05T07:42:58.000Z</time>
      </trkpt>
      <trkpt lat="44.06075" lon="6.84943">
        <ele>859</ele>
        <time>2020-06-05T07:42:59.000Z</time>
      </trkpt>
      <trkpt lat="44.06075" lon="6.84943">
        <ele>859</ele>
        <time>2020-06-05T07:43:00.000Z</time>
      </trkpt>
      <trkpt lat="44.06075" lon="6.84944">
        <ele>859</ele>
        <time>2020-06-05T07:43:01.000Z</time>
      </trkpt>
      <trkpt lat="44.06075" lon="6.84945">
        <ele>859</ele>
        <time>2020-06-05T07:43:02.000Z</time>
      </trkpt>
      <trkpt lat="44.06075" lon="6.84946">
        <ele>859</ele>
        <time>2020-06-05T07:43:03.000Z</time>
      </trkpt>
      <trkpt lat="44.06076" lon="6.84947">
        <ele>859</ele>
        <time>2020-06-05T07:43:04.000Z</time>
      </trkpt>
      <trkpt lat="44.06076" lon="6.84948">
        <ele>859</ele>
        <time>2020-06-05T07:43:05.000Z</time>
      </trkpt>
      <trkpt lat="44.06075" lon="6.84949">
        <ele>859</ele>
        <time>2020-06-05T07:43:06.000Z</time>
      </trkpt>
      <trkpt lat="44.06075" lon="6.84949">
        <ele>860</ele>
        <time>2020-06-05T07:43:07.000Z</time>
      </trkpt>
      <trkpt lat="44.06075" lon="6.8495">
        <ele>860</ele>
        <time>2020-06-05T07:43:08.000Z</time>
      </trkpt>
      <trkpt lat="44.06075" lon="6.84951">
        <ele>860</ele>
        <time>2020-06-05T07:43:09.000Z</time>
      </trkpt>
      <trkpt lat="44.06075" lon="6.84952">
        <ele>860</ele>
        <time>2020-06-05T07:43:10.000Z</time>
      </trkpt>
      <trkpt lat="44.06075" lon="6.84953">
        <ele>860</ele>
        <time>2020-06-05T07:43:11.000Z</time>
      </trkpt>
      <trkpt lat="44.06074" lon="6.84954">
        <ele>860</ele>
        <time>2020-06-05T07:43:12.000Z</time>
      </trkpt>
      <trkpt lat="44.06074" lon="6.84955">
        <ele>860</ele>
        <time>2020-06-05T07:43:13.000Z</time>
      </trkpt>
      <trkpt lat="44.06074" lon="6.84956">
        <ele>860</ele>
        <time>2020-06-05T07:43:14.000Z</time>
      </trkpt>
      <trkpt lat="44.06073" lon="6.84957">
        <ele>860</ele>
        <time>2020-06-05T07:43:15.000Z</time>
      </trkpt>
      <trkpt lat="44.06073" lon="6.84957">
        <ele>860</ele>
        <time>2020-06-05T07:43:16.000Z</time>
      </trkpt>
      <trkpt lat="44.06072" lon="6.84958">
        <ele>860</ele>
        <time>2020-06-05T07:43:17.000Z</time>
      </trkpt>
      <trkpt lat="44.06072" lon="6.84959">
        <ele>860</ele>
        <time>2020-06-05T07:43:18.000Z</time>
      </trkpt>
      <trkpt lat="44.06072" lon="6.8496">
        <ele>860</ele>
        <time>2020-06-05T07:43:19.000Z</time>
      </trkpt>
      <trkpt lat="44.06072" lon="6.84961">
        <ele>860</ele>
        <time>2020-06-05T07:43:20.000Z</time>
      </trkpt>
      <trkpt lat="44.06072" lon="6.84961">
        <ele>860</ele>
        <time>2020-06-05T07:43:21.000Z</time>
      </trkpt>
      <trkpt lat="44.06071" lon="6.84963">
        <ele>860</ele>
        <time>2020-06-05T07:43:22.000Z</time>
      </trkpt>
      <trkpt lat="44.06071" lon="6.84964">
        <ele>861</ele>
        <time>2020-06-05T07:43:23.000Z</time>
      </trkpt>
      <trkpt lat="44.0607" lon="6.84965">
        <ele>861</ele>
        <time>2020-06-05T07:43:24.000Z</time>
      </trkpt>
      <trkpt lat="44.0607" lon="6.84966">
        <ele>861</ele>
        <time>2020-06-05T07:43:25.000Z</time>
      </trkpt>
      <trkpt lat="44.0607" lon="6.84967">
        <ele>861</ele>
        <time>2020-06-05T07:43:26.000Z</time>
      </trkpt>
      <trkpt lat="44.0607" lon="6.84968">
        <ele>861</ele>
        <time>2020-06-05T07:43:27.000Z</time>
      </trkpt>
      <trkpt lat="44.06069" lon="6.84969">
        <ele>861</ele>
        <time>2020-06-05T07:43:28.000Z</time>
      </trkpt>
      <trkpt lat="44.06069" lon="6.8497">
        <ele>861</ele>
        <time>2020-06-05T07:43:29.000Z</time>
      </trkpt>
      <trkpt lat="44.06069" lon="6.84971">
        <ele>861</ele>
        <time>2020-06-05T07:43:30.000Z</time>
      </trkpt>
      <trkpt lat="44.06069" lon="6.84971">
        <ele>862</ele>
        <time>2020-06-05T07:43:31.000Z</time>
      </trkpt>
      <trkpt lat="44.06069" lon="6.84972">
        <ele>862</ele>
        <time>2020-06-05T07:43:32.000Z</time>
      </trkpt>
      <trkpt lat="44.0607" lon="6.84973">
        <ele>862</ele>
        <time>2020-06-05T07:43:33.000Z</time>
      </trkpt>
      <trkpt lat="44.0607" lon="6.84974">
        <ele>862</ele>
        <time>2020-06-05T07:43:34.000Z</time>
      </trkpt>
      <trkpt lat="44.06069" lon="6.84975">
        <ele>862</ele>
        <time>2020-06-05T07:43:35.000Z</time>
      </trkpt>
      <trkpt lat="44.06069" lon="6.84976">
        <ele>862</ele>
        <time>2020-06-05T07:43:36.000Z</time>
      </trkpt>
      <trkpt lat="44.06069" lon="6.84978">
        <ele>862</ele>
        <time>2020-06-05T07:43:37.000Z</time>
      </trkpt>
      <trkpt lat="44.0607" lon="6.84979">
        <ele>862</ele>
        <time>2020-06-05T07:43:38.000Z</time>
      </trkpt>
      <trkpt lat="44.0607" lon="6.8498">
        <ele>863</ele>
        <time>2020-06-05T07:43:39.000Z</time>
      </trkpt>
      <trkpt lat="44.0607" lon="6.84981">
        <ele>863</ele>
        <time>2020-06-05T07:43:40.000Z</time>
      </trkpt>
      <trkpt lat="44.0607" lon="6.84982">
        <ele>863</ele>
        <time>2020-06-05T07:43:41.000Z</time>
      </trkpt>
      <trkpt lat="44.06069" lon="6.84982">
        <ele>863</ele>
        <time>2020-06-05T07:43:42.000Z</time>
      </trkpt>
      <trkpt lat="44.06069" lon="6.84983">
        <ele>863</ele>
        <time>2020-06-05T07:43:43.000Z</time>
      </trkpt>
      <trkpt lat="44.06069" lon="6.84984">
        <ele>863</ele>
        <time>2020-06-05T07:43:44.000Z</time>
      </trkpt>
      <trkpt lat="44.06069" lon="6.84985">
        <ele>864</ele>
        <time>2020-06-05T07:43:45.000Z</time>
      </trkpt>
      <trkpt lat="44.06068" lon="6.84986">
        <ele>864</ele>
        <time>2020-06-05T07:43:46.000Z</time>
      </trkpt>
      <trkpt lat="44.06068" lon="6.84988">
        <ele>864</ele>
        <time>2020-06-05T07:43:47.000Z</time>
      </trkpt>
      <trkpt lat="44.06068" lon="6.84989">
        <ele>864</ele>
        <time>2020-06-05T07:43:48.000Z</time>
      </trkpt>
      <trkpt lat="44.06068" lon="6.8499">
        <ele>864</ele>
        <time>2020-06-05T07:43:49.000Z</time>
      </trkpt>
      <trkpt lat="44.06068" lon="6.84991">
        <ele>864</ele>
        <time>2020-06-05T07:43:50.000Z</time>
      </trkpt>
      <trkpt lat="44.06069" lon="6.84992">
        <ele>865</ele>
        <time>2020-06-05T07:43:51.000Z</time>
      </trkpt>
      <trkpt lat="44.06069" lon="6.84993">
        <ele>865</ele>
        <time>2020-06-05T07:43:52.000Z</time>
      </trkpt>
      <trkpt lat="44.06069" lon="6.84994">
        <ele>865</ele>
        <time>2020-06-05T07:43:53.000Z</time>
      </trkpt>
      <trkpt lat="44.06069" lon="6.84995">
        <ele>865</ele>
        <time>2020-06-05T07:43:54.000Z</time>
      </trkpt>
      <trkpt lat="44.06069" lon="6.84996">
        <ele>865</ele>
        <time>2020-06-05T07:43:55.000Z</time>
      </trkpt>
      <trkpt lat="44.06069" lon="6.84997">
        <ele>865</ele>
        <time>2020-06-05T07:43:56.000Z</time>
      </trkpt>
      <trkpt lat="44.06069" lon="6.84998">
        <ele>866</ele>
        <time>2020-06-05T07:43:57.000Z</time>
      </trkpt>
      <trkpt lat="44.06069" lon="6.84999">
        <ele>866</ele>
        <time>2020-06-05T07:43:58.000Z</time>
      </trkpt>
      <trkpt lat="44.06069" lon="6.85">
        <ele>866</ele>
        <time>2020-06-05T07:43:59.000Z</time>
      </trkpt>
      <trkpt lat="44.06068" lon="6.85001">
        <ele>866</ele>
        <time>2020-06-05T07:44:00.000Z</time>
      </trkpt>
      <trkpt lat="44.06068" lon="6.85002">
        <ele>866</ele>
        <time>2020-06-05T07:44:01.000Z</time>
      </trkpt>
      <trkpt lat="44.06068" lon="6.85002">
        <ele>866</ele>
        <time>2020-06-05T07:44:02.000Z</time>
      </trkpt>
      <trkpt lat="44.06068" lon="6.85003">
        <ele>866</ele>
        <time>2020-06-05T07:44:03.000Z</time>
      </trkpt>
      <trkpt lat="44.06068" lon="6.85004">
        <ele>866</ele>
        <time>2020-06-05T07:44:04.000Z</time>
      </trkpt>
      <trkpt lat="44.06068" lon="6.85006">
        <ele>867</ele>
        <time>2020-06-05T07:44:05.000Z</time>
      </trkpt>
      <trkpt lat="44.06069" lon="6.85007">
        <ele>867</ele>
        <time>2020-06-05T07:44:06.000Z</time>
      </trkpt>
      <trkpt lat="44.06068" lon="6.85008">
        <ele>867</ele>
        <time>2020-06-05T07:44:07.000Z</time>
      </trkpt>
      <trkpt lat="44.06068" lon="6.85009">
        <ele>867</ele>
        <time>2020-06-05T07:44:08.000Z</time>
      </trkpt>
      <trkpt lat="44.06068" lon="6.8501">
        <ele>868</ele>
        <time>2020-06-05T07:44:09.000Z</time>
      </trkpt>
      <trkpt lat="44.06068" lon="6.85011">
        <ele>868</ele>
        <time>2020-06-05T07:44:10.000Z</time>
      </trkpt>
      <trkpt lat="44.06068" lon="6.85012">
        <ele>868</ele>
        <time>2020-06-05T07:44:11.000Z</time>
      </trkpt>
      <trkpt lat="44.06068" lon="6.85013">
        <ele>868</ele>
        <time>2020-06-05T07:44:12.000Z</time>
      </trkpt>
      <trkpt lat="44.06068" lon="6.85015">
        <ele>868</ele>
        <time>2020-06-05T07:44:13.000Z</time>
      </trkpt>
      <trkpt lat="44.06067" lon="6.85016">
        <ele>869</ele>
        <time>2020-06-05T07:44:14.000Z</time>
      </trkpt>
      <trkpt lat="44.06067" lon="6.85017">
        <ele>869</ele>
        <time>2020-06-05T07:44:15.000Z</time>
      </trkpt>
      <trkpt lat="44.06066" lon="6.85018">
        <ele>869</ele>
        <time>2020-06-05T07:44:16.000Z</time>
      </trkpt>
      <trkpt lat="44.06066" lon="6.85019">
        <ele>869</ele>
        <time>2020-06-05T07:44:17.000Z</time>
      </trkpt>
      <trkpt lat="44.06066" lon="6.85021">
        <ele>869</ele>
        <time>2020-06-05T07:44:18.000Z</time>
      </trkpt>
      <trkpt lat="44.06065" lon="6.85022">
        <ele>869</ele>
        <time>2020-06-05T07:44:19.000Z</time>
      </trkpt>
      <trkpt lat="44.06065" lon="6.85023">
        <ele>869</ele>
        <time>2020-06-05T07:44:20.000Z</time>
      </trkpt>
      <trkpt lat="44.06064" lon="6.85024">
        <ele>870</ele>
        <time>2020-06-05T07:44:21.000Z</time>
      </trkpt>
      <trkpt lat="44.06063" lon="6.85024">
        <ele>870</ele>
        <time>2020-06-05T07:44:22.000Z</time>
      </trkpt>
      <trkpt lat="44.06063" lon="6.85024">
        <ele>870</ele>
        <time>2020-06-05T07:44:23.000Z</time>
      </trkpt>
      <trkpt lat="44.06062" lon="6.85024">
        <ele>870</ele>
        <time>2020-06-05T07:44:24.000Z</time>
      </trkpt>
      <trkpt lat="44.06061" lon="6.85024">
        <ele>870</ele>
        <time>2020-06-05T07:44:25.000Z</time>
      </trkpt>
      <trkpt lat="44.06061" lon="6.85024">
        <ele>870</ele>
        <time>2020-06-05T07:44:26.000Z</time>
      </trkpt>
      <trkpt lat="44.0606" lon="6.85024">
        <ele>870</ele>
        <time>2020-06-05T07:44:27.000Z</time>
      </trkpt>
      <trkpt lat="44.06059" lon="6.85024">
        <ele>870</ele>
        <time>2020-06-05T07:44:28.000Z</time>
      </trkpt>
      <trkpt lat="44.06059" lon="6.85024">
        <ele>870</ele>
        <time>2020-06-05T07:44:29.000Z</time>
      </trkpt>
      <trkpt lat="44.06058" lon="6.85023">
        <ele>870</ele>
        <time>2020-06-05T07:44:30.000Z</time>
      </trkpt>
      <trkpt lat="44.06058" lon="6.85023">
        <ele>870</ele>
        <time>2020-06-05T07:44:31.000Z</time>
      </trkpt>
      <trkpt lat="44.06058" lon="6.85022">
        <ele>870</ele>
        <time>2020-06-05T07:44:32.000Z</time>
      </trkpt>
      <trkpt lat="44.06057" lon="6.85022">
        <ele>870</ele>
        <time>2020-06-05T07:44:33.000Z</time>
      </trkpt>
      <trkpt lat="44.06057" lon="6.85021">
        <ele>870</ele>
        <time>2020-06-05T07:44:34.000Z</time>
      </trkpt>
      <trkpt lat="44.06057" lon="6.85021">
        <ele>870</ele>
        <time>2020-06-05T07:44:35.000Z</time>
      </trkpt>
      <trkpt lat="44.06057" lon="6.8502">
        <ele>870</ele>
        <time>2020-06-05T07:44:36.000Z</time>
      </trkpt>
      <trkpt lat="44.06056" lon="6.8502">
        <ele>870</ele>
        <time>2020-06-05T07:44:37.000Z</time>
      </trkpt>
      <trkpt lat="44.06056" lon="6.85019">
        <ele>870</ele>
        <time>2020-06-05T07:44:38.000Z</time>
      </trkpt>
      <trkpt lat="44.06056" lon="6.85019">
        <ele>870</ele>
        <time>2020-06-05T07:44:39.000Z</time>
      </trkpt>
      <trkpt lat="44.06055" lon="6.85018">
        <ele>870</ele>
        <time>2020-06-05T07:44:40.000Z</time>
      </trkpt>
      <trkpt lat="44.06055" lon="6.85017">
        <ele>870</ele>
        <time>2020-06-05T07:44:41.000Z</time>
      </trkpt>
      <trkpt lat="44.06055" lon="6.85017">
        <ele>870</ele>
        <time>2020-06-05T07:44:42.000Z</time>
      </trkpt>
      <trkpt lat="44.06054" lon="6.85017">
        <ele>870</ele>
        <time>2020-06-05T07:44:43.000Z</time>
      </trkpt>
      <trkpt lat="44.06054" lon="6.85016">
        <ele>870</ele>
        <time>2020-06-05T07:44:44.000Z</time>
      </trkpt>
      <trkpt lat="44.06054" lon="6.85016">
        <ele>870</ele>
        <time>2020-06-05T07:44:45.000Z</time>
      </trkpt>
      <trkpt lat="44.06054" lon="6.85015">
        <ele>870</ele>
        <time>2020-06-05T07:44:46.000Z</time>
      </trkpt>
      <trkpt lat="44.06053" lon="6.85015">
        <ele>871</ele>
        <time>2020-06-05T07:44:47.000Z</time>
      </trkpt>
      <trkpt lat="44.06053" lon="6.85014">
        <ele>871</ele>
        <time>2020-06-05T07:44:48.000Z</time>
      </trkpt>
      <trkpt lat="44.06053" lon="6.85013">
        <ele>871</ele>
        <time>2020-06-05T07:44:49.000Z</time>
      </trkpt>
      <trkpt lat="44.06053" lon="6.85013">
        <ele>871</ele>
        <time>2020-06-05T07:44:50.000Z</time>
      </trkpt>
      <trkpt lat="44.06052" lon="6.85012">
        <ele>872</ele>
        <time>2020-06-05T07:44:51.000Z</time>
      </trkpt>
      <trkpt lat="44.06052" lon="6.85012">
        <ele>872</ele>
        <time>2020-06-05T07:44:52.000Z</time>
      </trkpt>
      <trkpt lat="44.06052" lon="6.85011">
        <ele>872</ele>
        <time>2020-06-05T07:44:53.000Z</time>
      </trkpt>
      <trkpt lat="44.06051" lon="6.85011">
        <ele>872</ele>
        <time>2020-06-05T07:44:54.000Z</time>
      </trkpt>
      <trkpt lat="44.06051" lon="6.85011">
        <ele>873</ele>
        <time>2020-06-05T07:44:55.000Z</time>
      </trkpt>
      <trkpt lat="44.06051" lon="6.85012">
        <ele>873</ele>
        <time>2020-06-05T07:44:56.000Z</time>
      </trkpt>
      <trkpt lat="44.06051" lon="6.85012">
        <ele>873</ele>
        <time>2020-06-05T07:44:57.000Z</time>
      </trkpt>
      <trkpt lat="44.0605" lon="6.85012">
        <ele>873</ele>
        <time>2020-06-05T07:44:58.000Z</time>
      </trkpt>
      <trkpt lat="44.0605" lon="6.85013">
        <ele>873</ele>
        <time>2020-06-05T07:44:59.000Z</time>
      </trkpt>
      <trkpt lat="44.0605" lon="6.85014">
        <ele>873</ele>
        <time>2020-06-05T07:45:00.000Z</time>
      </trkpt>
      <trkpt lat="44.06049" lon="6.85015">
        <ele>874</ele>
        <time>2020-06-05T07:45:01.000Z</time>
      </trkpt>
      <trkpt lat="44.06049" lon="6.85015">
        <ele>874</ele>
        <time>2020-06-05T07:45:02.000Z</time>
      </trkpt>
      <trkpt lat="44.06048" lon="6.85016">
        <ele>874</ele>
        <time>2020-06-05T07:45:03.000Z</time>
      </trkpt>
      <trkpt lat="44.06048" lon="6.85017">
        <ele>874</ele>
        <time>2020-06-05T07:45:04.000Z</time>
      </trkpt>
      <trkpt lat="44.06048" lon="6.85017">
        <ele>874</ele>
        <time>2020-06-05T07:45:05.000Z</time>
      </trkpt>
      <trkpt lat="44.06047" lon="6.85018">
        <ele>874</ele>
        <time>2020-06-05T07:45:06.000Z</time>
      </trkpt>
      <trkpt lat="44.06047" lon="6.85018">
        <ele>875</ele>
        <time>2020-06-05T07:45:07.000Z</time>
      </trkpt>
      <trkpt lat="44.06047" lon="6.85019">
        <ele>875</ele>
        <time>2020-06-05T07:45:08.000Z</time>
      </trkpt>
      <trkpt lat="44.06046" lon="6.85019">
        <ele>875</ele>
        <time>2020-06-05T07:45:09.000Z</time>
      </trkpt>
      <trkpt lat="44.06046" lon="6.8502">
        <ele>875</ele>
        <time>2020-06-05T07:45:10.000Z</time>
      </trkpt>
      <trkpt lat="44.06045" lon="6.8502">
        <ele>875</ele>
        <time>2020-06-05T07:45:11.000Z</time>
      </trkpt>
      <trkpt lat="44.06045" lon="6.85021">
        <ele>875</ele>
        <time>2020-06-05T07:45:12.000Z</time>
      </trkpt>
      <trkpt lat="44.06044" lon="6.85021">
        <ele>875</ele>
        <time>2020-06-05T07:45:13.000Z</time>
      </trkpt>
      <trkpt lat="44.06044" lon="6.85022">
        <ele>876</ele>
        <time>2020-06-05T07:45:14.000Z</time>
      </trkpt>
      <trkpt lat="44.06044" lon="6.85023">
        <ele>876</ele>
        <time>2020-06-05T07:45:15.000Z</time>
      </trkpt>
      <trkpt lat="44.06043" lon="6.85023">
        <ele>876</ele>
        <time>2020-06-05T07:45:16.000Z</time>
      </trkpt>
      <trkpt lat="44.06042" lon="6.85023">
        <ele>876</ele>
        <time>2020-06-05T07:45:17.000Z</time>
      </trkpt>
      <trkpt lat="44.06042" lon="6.85023">
        <ele>876</ele>
        <time>2020-06-05T07:45:18.000Z</time>
      </trkpt>
      <trkpt lat="44.06042" lon="6.85024">
        <ele>877</ele>
        <time>2020-06-05T07:45:19.000Z</time>
      </trkpt>
      <trkpt lat="44.06042" lon="6.85024">
        <ele>877</ele>
        <time>2020-06-05T07:45:20.000Z</time>
      </trkpt>
      <trkpt lat="44.06042" lon="6.85024">
        <ele>877</ele>
        <time>2020-06-05T07:45:21.000Z</time>
      </trkpt>
      <trkpt lat="44.06041" lon="6.85024">
        <ele>877</ele>
        <time>2020-06-05T07:45:22.000Z</time>
      </trkpt>
      <trkpt lat="44.06041" lon="6.85025">
        <ele>877</ele>
        <time>2020-06-05T07:45:23.000Z</time>
      </trkpt>
      <trkpt lat="44.06041" lon="6.85025">
        <ele>878</ele>
        <time>2020-06-05T07:45:24.000Z</time>
      </trkpt>
      <trkpt lat="44.06041" lon="6.85025">
        <ele>878</ele>
        <time>2020-06-05T07:45:25.000Z</time>
      </trkpt>
      <trkpt lat="44.0604" lon="6.85026">
        <ele>878</ele>
        <time>2020-06-05T07:45:26.000Z</time>
      </trkpt>
      <trkpt lat="44.0604" lon="6.85026">
        <ele>878</ele>
        <time>2020-06-05T07:45:27.000Z</time>
      </trkpt>
      <trkpt lat="44.0604" lon="6.85026">
        <ele>878</ele>
        <time>2020-06-05T07:45:28.000Z</time>
      </trkpt>
      <trkpt lat="44.0604" lon="6.85027">
        <ele>878</ele>
        <time>2020-06-05T07:45:29.000Z</time>
      </trkpt>
      <trkpt lat="44.0604" lon="6.85027">
        <ele>879</ele>
        <time>2020-06-05T07:45:30.000Z</time>
      </trkpt>
      <trkpt lat="44.06039" lon="6.85027">
        <ele>879</ele>
        <time>2020-06-05T07:45:31.000Z</time>
      </trkpt>
      <trkpt lat="44.06039" lon="6.85027">
        <ele>879</ele>
        <time>2020-06-05T07:45:32.000Z</time>
      </trkpt>
      <trkpt lat="44.06039" lon="6.85027">
        <ele>879</ele>
        <time>2020-06-05T07:45:33.000Z</time>
      </trkpt>
      <trkpt lat="44.06038" lon="6.85026">
        <ele>879</ele>
        <time>2020-06-05T07:45:34.000Z</time>
      </trkpt>
      <trkpt lat="44.06037" lon="6.85025">
        <ele>879</ele>
        <time>2020-06-05T07:45:35.000Z</time>
      </trkpt>
      <trkpt lat="44.06037" lon="6.85024">
        <ele>880</ele>
        <time>2020-06-05T07:45:36.000Z</time>
      </trkpt>
      <trkpt lat="44.06036" lon="6.85023">
        <ele>880</ele>
        <time>2020-06-05T07:45:37.000Z</time>
      </trkpt>
      <trkpt lat="44.06035" lon="6.85022">
        <ele>880</ele>
        <time>2020-06-05T07:45:38.000Z</time>
      </trkpt>
      <trkpt lat="44.06035" lon="6.85022">
        <ele>880</ele>
        <time>2020-06-05T07:45:39.000Z</time>
      </trkpt>
      <trkpt lat="44.06034" lon="6.85021">
        <ele>880</ele>
        <time>2020-06-05T07:45:40.000Z</time>
      </trkpt>
      <trkpt lat="44.06034" lon="6.85021">
        <ele>881</ele>
        <time>2020-06-05T07:45:41.000Z</time>
      </trkpt>
      <trkpt lat="44.06034" lon="6.85021">
        <ele>881</ele>
        <time>2020-06-05T07:45:42.000Z</time>
      </trkpt>
      <trkpt lat="44.06034" lon="6.8502">
        <ele>881</ele>
        <time>2020-06-05T07:45:43.000Z</time>
      </trkpt>
      <trkpt lat="44.06034" lon="6.8502">
        <ele>881</ele>
        <time>2020-06-05T07:45:44.000Z</time>
      </trkpt>
      <trkpt lat="44.06034" lon="6.8502">
        <ele>881</ele>
        <time>2020-06-05T07:45:45.000Z</time>
      </trkpt>
      <trkpt lat="44.06034" lon="6.85019">
        <ele>881</ele>
        <time>2020-06-05T07:45:46.000Z</time>
      </trkpt>
      <trkpt lat="44.06034" lon="6.85018">
        <ele>881</ele>
        <time>2020-06-05T07:45:47.000Z</time>
      </trkpt>
      <trkpt lat="44.06034" lon="6.85018">
        <ele>881</ele>
        <time>2020-06-05T07:45:48.000Z</time>
      </trkpt>
      <trkpt lat="44.06034" lon="6.85017">
        <ele>881</ele>
        <time>2020-06-05T07:45:49.000Z</time>
      </trkpt>
      <trkpt lat="44.06034" lon="6.85016">
        <ele>881</ele>
        <time>2020-06-05T07:45:50.000Z</time>
      </trkpt>
      <trkpt lat="44.06034" lon="6.85015">
        <ele>881</ele>
        <time>2020-06-05T07:45:51.000Z</time>
      </trkpt>
      <trkpt lat="44.06034" lon="6.85014">
        <ele>881</ele>
        <time>2020-06-05T07:45:52.000Z</time>
      </trkpt>
      <trkpt lat="44.06034" lon="6.85013">
        <ele>881</ele>
        <time>2020-06-05T07:45:53.000Z</time>
      </trkpt>
      <trkpt lat="44.06034" lon="6.85012">
        <ele>881</ele>
        <time>2020-06-05T07:45:54.000Z</time>
      </trkpt>
      <trkpt lat="44.06034" lon="6.85011">
        <ele>881</ele>
        <time>2020-06-05T07:45:55.000Z</time>
      </trkpt>
      <trkpt lat="44.06033" lon="6.8501">
        <ele>881</ele>
        <time>2020-06-05T07:45:56.000Z</time>
      </trkpt>
      <trkpt lat="44.06033" lon="6.85009">
        <ele>882</ele>
        <time>2020-06-05T07:45:57.000Z</time>
      </trkpt>
      <trkpt lat="44.06033" lon="6.85008">
        <ele>882</ele>
        <time>2020-06-05T07:45:58.000Z</time>
      </trkpt>
      <trkpt lat="44.06033" lon="6.85007">
        <ele>882</ele>
        <time>2020-06-05T07:45:59.000Z</time>
      </trkpt>
      <trkpt lat="44.06032" lon="6.85006">
        <ele>882</ele>
        <time>2020-06-05T07:46:00.000Z</time>
      </trkpt>
      <trkpt lat="44.06032" lon="6.85004">
        <ele>882</ele>
        <time>2020-06-05T07:46:01.000Z</time>
      </trkpt>
      <trkpt lat="44.06032" lon="6.85003">
        <ele>882</ele>
        <time>2020-06-05T07:46:02.000Z</time>
      </trkpt>
      <trkpt lat="44.06031" lon="6.85002">
        <ele>882</ele>
        <time>2020-06-05T07:46:03.000Z</time>
      </trkpt>
      <trkpt lat="44.06031" lon="6.85001">
        <ele>882</ele>
        <time>2020-06-05T07:46:04.000Z</time>
      </trkpt>
      <trkpt lat="44.06031" lon="6.85">
        <ele>882</ele>
        <time>2020-06-05T07:46:05.000Z</time>
      </trkpt>
      <trkpt lat="44.0603" lon="6.84999">
        <ele>882</ele>
        <time>2020-06-05T07:46:06.000Z</time>
      </trkpt>
      <trkpt lat="44.0603" lon="6.84998">
        <ele>882</ele>
        <time>2020-06-05T07:46:07.000Z</time>
      </trkpt>
      <trkpt lat="44.0603" lon="6.84997">
        <ele>882</ele>
        <time>2020-06-05T07:46:08.000Z</time>
      </trkpt>
      <trkpt lat="44.0603" lon="6.84996">
        <ele>883</ele>
        <time>2020-06-05T07:46:09.000Z</time>
      </trkpt>
      <trkpt lat="44.06029" lon="6.84995">
        <ele>883</ele>
        <time>2020-06-05T07:46:10.000Z</time>
      </trkpt>
      <trkpt lat="44.06029" lon="6.84994">
        <ele>883</ele>
        <time>2020-06-05T07:46:11.000Z</time>
      </trkpt>
      <trkpt lat="44.06029" lon="6.84993">
        <ele>883</ele>
        <time>2020-06-05T07:46:12.000Z</time>
      </trkpt>
      <trkpt lat="44.06029" lon="6.84992">
        <ele>883</ele>
        <time>2020-06-05T07:46:13.000Z</time>
      </trkpt>
      <trkpt lat="44.06028" lon="6.84992">
        <ele>883</ele>
        <time>2020-06-05T07:46:14.000Z</time>
      </trkpt>
      <trkpt lat="44.06028" lon="6.84992">
        <ele>884</ele>
        <time>2020-06-05T07:46:15.000Z</time>
      </trkpt>
      <trkpt lat="44.06028" lon="6.84992">
        <ele>884</ele>
        <time>2020-06-05T07:46:16.000Z</time>
      </trkpt>
      <trkpt lat="44.06028" lon="6.84992">
        <ele>884</ele>
        <time>2020-06-05T07:46:17.000Z</time>
      </trkpt>
      <trkpt lat="44.06028" lon="6.84993">
        <ele>884</ele>
        <time>2020-06-05T07:46:18.000Z</time>
      </trkpt>
      <trkpt lat="44.06028" lon="6.84993">
        <ele>884</ele>
        <time>2020-06-05T07:46:19.000Z</time>
      </trkpt>
      <trkpt lat="44.06028" lon="6.84994">
        <ele>884</ele>
        <time>2020-06-05T07:46:20.000Z</time>
      </trkpt>
      <trkpt lat="44.06028" lon="6.84994">
        <ele>884</ele>
        <time>2020-06-05T07:46:21.000Z</time>
      </trkpt>
      <trkpt lat="44.06027" lon="6.84994">
        <ele>885</ele>
        <time>2020-06-05T07:46:22.000Z</time>
      </trkpt>
      <trkpt lat="44.06027" lon="6.84995">
        <ele>885</ele>
        <time>2020-06-05T07:46:23.000Z</time>
      </trkpt>
      <trkpt lat="44.06027" lon="6.84995">
        <ele>885</ele>
        <time>2020-06-05T07:46:24.000Z</time>
      </trkpt>
      <trkpt lat="44.06027" lon="6.84995">
        <ele>885</ele>
        <time>2020-06-05T07:46:25.000Z</time>
      </trkpt>
      <trkpt lat="44.06026" lon="6.84995">
        <ele>886</ele>
        <time>2020-06-05T07:46:26.000Z</time>
      </trkpt>
      <trkpt lat="44.06026" lon="6.84995">
        <ele>886</ele>
        <time>2020-06-05T07:46:27.000Z</time>
      </trkpt>
      <trkpt lat="44.06025" lon="6.84995">
        <ele>886</ele>
        <time>2020-06-05T07:46:28.000Z</time>
      </trkpt>
      <trkpt lat="44.06025" lon="6.84994">
        <ele>886</ele>
        <time>2020-06-05T07:46:29.000Z</time>
      </trkpt>
      <trkpt lat="44.06025" lon="6.84993">
        <ele>886</ele>
        <time>2020-06-05T07:46:30.000Z</time>
      </trkpt>
      <trkpt lat="44.06025" lon="6.84993">
        <ele>886</ele>
        <time>2020-06-05T07:46:31.000Z</time>
      </trkpt>
      <trkpt lat="44.06025" lon="6.84992">
        <ele>886</ele>
        <time>2020-06-05T07:46:32.000Z</time>
      </trkpt>
      <trkpt lat="44.06025" lon="6.84992">
        <ele>886</ele>
        <time>2020-06-05T07:46:33.000Z</time>
      </trkpt>
      <trkpt lat="44.06024" lon="6.84992">
        <ele>886</ele>
        <time>2020-06-05T07:46:34.000Z</time>
      </trkpt>
      <trkpt lat="44.06024" lon="6.84991">
        <ele>886</ele>
        <time>2020-06-05T07:46:35.000Z</time>
      </trkpt>
      <trkpt lat="44.06024" lon="6.8499">
        <ele>886</ele>
        <time>2020-06-05T07:46:36.000Z</time>
      </trkpt>
      <trkpt lat="44.06024" lon="6.8499">
        <ele>886</ele>
        <time>2020-06-05T07:46:37.000Z</time>
      </trkpt>
      <trkpt lat="44.06023" lon="6.84989">
        <ele>886</ele>
        <time>2020-06-05T07:46:38.000Z</time>
      </trkpt>
      <trkpt lat="44.06023" lon="6.84989">
        <ele>887</ele>
        <time>2020-06-05T07:46:39.000Z</time>
      </trkpt>
      <trkpt lat="44.06023" lon="6.84988">
        <ele>887</ele>
        <time>2020-06-05T07:46:40.000Z</time>
      </trkpt>
      <trkpt lat="44.06023" lon="6.84988">
        <ele>887</ele>
        <time>2020-06-05T07:46:41.000Z</time>
      </trkpt>
      <trkpt lat="44.06023" lon="6.84988">
        <ele>887</ele>
        <time>2020-06-05T07:46:42.000Z</time>
      </trkpt>
      <trkpt lat="44.06022" lon="6.84987">
        <ele>887</ele>
        <time>2020-06-05T07:46:43.000Z</time>
      </trkpt>
      <trkpt lat="44.06022" lon="6.84987">
        <ele>887</ele>
        <time>2020-06-05T07:46:44.000Z</time>
      </trkpt>
      <trkpt lat="44.06022" lon="6.84986">
        <ele>887</ele>
        <time>2020-06-05T07:46:45.000Z</time>
      </trkpt>
      <trkpt lat="44.06021" lon="6.84986">
        <ele>887</ele>
        <time>2020-06-05T07:46:46.000Z</time>
      </trkpt>
      <trkpt lat="44.06021" lon="6.84985">
        <ele>887</ele>
        <time>2020-06-05T07:46:47.000Z</time>
      </trkpt>
      <trkpt lat="44.06021" lon="6.84984">
        <ele>887</ele>
        <time>2020-06-05T07:46:48.000Z</time>
      </trkpt>
      <trkpt lat="44.0602" lon="6.84984">
        <ele>887</ele>
        <time>2020-06-05T07:46:49.000Z</time>
      </trkpt>
      <trkpt lat="44.0602" lon="6.84983">
        <ele>887</ele>
        <time>2020-06-05T07:46:50.000Z</time>
      </trkpt>
      <trkpt lat="44.06019" lon="6.84982">
        <ele>887</ele>
        <time>2020-06-05T07:46:51.000Z</time>
      </trkpt>
      <trkpt lat="44.06019" lon="6.84982">
        <ele>888</ele>
        <time>2020-06-05T07:46:52.000Z</time>
      </trkpt>
      <trkpt lat="44.06018" lon="6.84981">
        <ele>888</ele>
        <time>2020-06-05T07:46:53.000Z</time>
      </trkpt>
      <trkpt lat="44.06018" lon="6.8498">
        <ele>888</ele>
        <time>2020-06-05T07:46:54.000Z</time>
      </trkpt>
      <trkpt lat="44.06018" lon="6.8498">
        <ele>888</ele>
        <time>2020-06-05T07:46:55.000Z</time>
      </trkpt>
      <trkpt lat="44.06018" lon="6.84979">
        <ele>888</ele>
        <time>2020-06-05T07:46:56.000Z</time>
      </trkpt>
      <trkpt lat="44.06017" lon="6.84978">
        <ele>888</ele>
        <time>2020-06-05T07:46:57.000Z</time>
      </trkpt>
      <trkpt lat="44.06017" lon="6.84978">
        <ele>888</ele>
        <time>2020-06-05T07:46:58.000Z</time>
      </trkpt>
      <trkpt lat="44.06017" lon="6.84977">
        <ele>888</ele>
        <time>2020-06-05T07:46:59.000Z</time>
      </trkpt>
      <trkpt lat="44.06017" lon="6.84976">
        <ele>888</ele>
        <time>2020-06-05T07:47:00.000Z</time>
      </trkpt>
      <trkpt lat="44.06017" lon="6.84976">
        <ele>888</ele>
        <time>2020-06-05T07:47:01.000Z</time>
      </trkpt>
      <trkpt lat="44.06017" lon="6.84975">
        <ele>888</ele>
        <time>2020-06-05T07:47:02.000Z</time>
      </trkpt>
      <trkpt lat="44.06016" lon="6.84975">
        <ele>889</ele>
        <time>2020-06-05T07:47:03.000Z</time>
      </trkpt>
      <trkpt lat="44.06016" lon="6.84974">
        <ele>889</ele>
        <time>2020-06-05T07:47:04.000Z</time>
      </trkpt>
      <trkpt lat="44.06016" lon="6.84974">
        <ele>889</ele>
        <time>2020-06-05T07:47:05.000Z</time>
      </trkpt>
      <trkpt lat="44.06015" lon="6.84973">
        <ele>889</ele>
        <time>2020-06-05T07:47:06.000Z</time>
      </trkpt>
      <trkpt lat="44.06015" lon="6.84972">
        <ele>889</ele>
        <time>2020-06-05T07:47:07.000Z</time>
      </trkpt>
      <trkpt lat="44.06014" lon="6.84972">
        <ele>889</ele>
        <time>2020-06-05T07:47:08.000Z</time>
      </trkpt>
      <trkpt lat="44.06014" lon="6.84971">
        <ele>889</ele>
        <time>2020-06-05T07:47:09.000Z</time>
      </trkpt>
      <trkpt lat="44.06014" lon="6.8497">
        <ele>890</ele>
        <time>2020-06-05T07:47:10.000Z</time>
      </trkpt>
      <trkpt lat="44.06013" lon="6.84969">
        <ele>890</ele>
        <time>2020-06-05T07:47:11.000Z</time>
      </trkpt>
      <trkpt lat="44.06013" lon="6.84968">
        <ele>890</ele>
        <time>2020-06-05T07:47:12.000Z</time>
      </trkpt>
      <trkpt lat="44.06013" lon="6.84967">
        <ele>890</ele>
        <time>2020-06-05T07:47:13.000Z</time>
      </trkpt>
      <trkpt lat="44.06013" lon="6.84966">
        <ele>890</ele>
        <time>2020-06-05T07:47:14.000Z</time>
      </trkpt>
      <trkpt lat="44.06013" lon="6.84965">
        <ele>890</ele>
        <time>2020-06-05T07:47:15.000Z</time>
      </trkpt>
      <trkpt lat="44.06013" lon="6.84964">
        <ele>890</ele>
        <time>2020-06-05T07:47:16.000Z</time>
      </trkpt>
      <trkpt lat="44.06013" lon="6.84963">
        <ele>890</ele>
        <time>2020-06-05T07:47:17.000Z</time>
      </trkpt>
      <trkpt lat="44.06012" lon="6.84962">
        <ele>890</ele>
        <time>2020-06-05T07:47:18.000Z</time>
      </trkpt>
      <trkpt lat="44.06012" lon="6.84962">
        <ele>890</ele>
        <time>2020-06-05T07:47:19.000Z</time>
      </trkpt>
      <trkpt lat="44.06012" lon="6.84961">
        <ele>890</ele>
        <time>2020-06-05T07:47:20.000Z</time>
      </trkpt>
      <trkpt lat="44.06011" lon="6.84961">
        <ele>890</ele>
        <time>2020-06-05T07:47:21.000Z</time>
      </trkpt>
      <trkpt lat="44.06011" lon="6.84961">
        <ele>890</ele>
        <time>2020-06-05T07:47:22.000Z</time>
      </trkpt>
      <trkpt lat="44.06011" lon="6.84961">
        <ele>890</ele>
        <time>2020-06-05T07:47:23.000Z</time>
      </trkpt>
      <trkpt lat="44.06011" lon="6.84961">
        <ele>890</ele>
        <time>2020-06-05T07:47:24.000Z</time>
      </trkpt>
      <trkpt lat="44.06011" lon="6.8496">
        <ele>890</ele>
        <time>2020-06-05T07:47:25.000Z</time>
      </trkpt>
      <trkpt lat="44.06011" lon="6.8496">
        <ele>891</ele>
        <time>2020-06-05T07:47:26.000Z</time>
      </trkpt>
      <trkpt lat="44.06011" lon="6.8496">
        <ele>891</ele>
        <time>2020-06-05T07:47:27.000Z</time>
      </trkpt>
      <trkpt lat="44.06011" lon="6.8496">
        <ele>891</ele>
        <time>2020-06-05T07:47:28.000Z</time>
      </trkpt>
      <trkpt lat="44.06011" lon="6.8496">
        <ele>891</ele>
        <time>2020-06-05T07:47:29.000Z</time>
      </trkpt>
      <trkpt lat="44.06011" lon="6.8496">
        <ele>891</ele>
        <time>2020-06-05T07:47:30.000Z</time>
      </trkpt>
      <trkpt lat="44.06011" lon="6.8496">
        <ele>891</ele>
        <time>2020-06-05T07:47:31.000Z</time>
      </trkpt>
      <trkpt lat="44.06011" lon="6.8496">
        <ele>891</ele>
        <time>2020-06-05T07:47:32.000Z</time>
      </trkpt>
      <trkpt lat="44.06011" lon="6.8496">
        <ele>891</ele>
        <time>2020-06-05T07:47:33.000Z</time>
      </trkpt>
      <trkpt lat="44.06011" lon="6.8496">
        <ele>891</ele>
        <time>2020-06-05T07:47:34.000Z</time>
      </trkpt>
      <trkpt lat="44.06011" lon="6.8496">
        <ele>892</ele>
        <time>2020-06-05T07:47:35.000Z</time>
      </trkpt>
      <trkpt lat="44.06011" lon="6.8496">
        <ele>892</ele>
        <time>2020-06-05T07:47:36.000Z</time>
      </trkpt>
      <trkpt lat="44.06011" lon="6.8496">
        <ele>892</ele>
        <time>2020-06-05T07:47:37.000Z</time>
      </trkpt>
      <trkpt lat="44.06011" lon="6.8496">
        <ele>892</ele>
        <time>2020-06-05T07:47:38.000Z</time>
      </trkpt>
      <trkpt lat="44.06011" lon="6.8496">
        <ele>892</ele>
        <time>2020-06-05T07:47:39.000Z</time>
      </trkpt>
      <trkpt lat="44.06011" lon="6.8496">
        <ele>892</ele>
        <time>2020-06-05T07:47:40.000Z</time>
      </trkpt>
      <trkpt lat="44.06011" lon="6.8496">
        <ele>892</ele>
        <time>2020-06-05T07:47:41.000Z</time>
      </trkpt>
      <trkpt lat="44.06011" lon="6.8496">
        <ele>892</ele>
        <time>2020-06-05T07:47:42.000Z</time>
      </trkpt>
      <trkpt lat="44.06011" lon="6.8496">
        <ele>892</ele>
        <time>2020-06-05T07:47:43.000Z</time>
      </trkpt>
      <trkpt lat="44.06011" lon="6.8496">
        <ele>892</ele>
        <time>2020-06-05T07:47:44.000Z</time>
      </trkpt>
      <trkpt lat="44.06011" lon="6.8496">
        <ele>892</ele>
        <time>2020-06-05T07:47:45.000Z</time>
      </trkpt>
      <trkpt lat="44.06011" lon="6.8496">
        <ele>892</ele>
        <time>2020-06-05T07:47:46.000Z</time>
      </trkpt>
      <trkpt lat="44.06011" lon="6.8496">
        <ele>892</ele>
        <time>2020-06-05T07:47:47.000Z</time>
      </trkpt>
      <trkpt lat="44.06011" lon="6.8496">
        <ele>893</ele>
        <time>2020-06-05T07:47:48.000Z</time>
      </trkpt>
      <trkpt lat="44.06011" lon="6.8496">
        <ele>893</ele>
        <time>2020-06-05T07:47:49.000Z</time>
      </trkpt>
      <trkpt lat="44.06011" lon="6.8496">
        <ele>893</ele>
        <time>2020-06-05T07:47:50.000Z</time>
      </trkpt>
      <trkpt lat="44.06011" lon="6.8496">
        <ele>893</ele>
        <time>2020-06-05T07:47:51.000Z</time>
      </trkpt>
      <trkpt lat="44.06011" lon="6.8496">
        <ele>893</ele>
        <time>2020-06-05T07:47:52.000Z</time>
      </trkpt>
      <trkpt lat="44.06011" lon="6.8496">
        <ele>893</ele>
        <time>2020-06-05T07:47:53.000Z</time>
      </trkpt>
      <trkpt lat="44.06011" lon="6.8496">
        <ele>893</ele>
        <time>2020-06-05T07:47:54.000Z</time>
      </trkpt>
      <trkpt lat="44.06011" lon="6.8496">
        <ele>893</ele>
        <time>2020-06-05T07:47:55.000Z</time>
      </trkpt>
      <trkpt lat="44.06011" lon="6.8496">
        <ele>893</ele>
        <time>2020-06-05T07:47:56.000Z</time>
      </trkpt>
      <trkpt lat="44.06011" lon="6.8496">
        <ele>893</ele>
        <time>2020-06-05T07:47:57.000Z</time>
      </trkpt>
      <trkpt lat="44.06011" lon="6.8496">
        <ele>893</ele>
        <time>2020-06-05T07:47:58.000Z</time>
      </trkpt>
      <trkpt lat="44.06011" lon="6.8496">
        <ele>893</ele>
        <time>2020-06-05T07:47:59.000Z</time>
      </trkpt>
      <trkpt lat="44.06011" lon="6.8496">
        <ele>893</ele>
        <time>2020-06-05T07:48:00.000Z</time>
      </trkpt>
      <trkpt lat="44.06011" lon="6.8496">
        <ele>893</ele>
        <time>2020-06-05T07:48:01.000Z</time>
      </trkpt>
      <trkpt lat="44.06011" lon="6.8496">
        <ele>893</ele>
        <time>2020-06-05T07:48:02.000Z</time>
      </trkpt>
      <trkpt lat="44.06011" lon="6.8496">
        <ele>893</ele>
        <time>2020-06-05T07:48:03.000Z</time>
      </trkpt>
      <trkpt lat="44.06011" lon="6.8496">
        <ele>893</ele>
        <time>2020-06-05T07:48:04.000Z</time>
      </trkpt>
      <trkpt lat="44.06011" lon="6.8496">
        <ele>893</ele>
        <time>2020-06-05T07:48:05.000Z</time>
      </trkpt>
      <trkpt lat="44.06011" lon="6.8496">
        <ele>893</ele>
        <time>2020-06-05T07:48:06.000Z</time>
      </trkpt>
      <trkpt lat="44.06011" lon="6.8496">
        <ele>893</ele>
        <time>2020-06-05T07:48:07.000Z</time>
      </trkpt>
      <trkpt lat="44.06011" lon="6.8496">
        <ele>893</ele>
        <time>2020-06-05T07:48:08.000Z</time>
      </trkpt>
      <trkpt lat="44.06011" lon="6.8496">
        <ele>894</ele>
        <time>2020-06-05T07:48:09.000Z</time>
      </trkpt>
      <trkpt lat="44.06011" lon="6.8496">
        <ele>894</ele>
        <time>2020-06-05T07:48:10.000Z</time>
      </trkpt>
      <trkpt lat="44.06011" lon="6.8496">
        <ele>894</ele>
        <time>2020-06-05T07:48:11.000Z</time>
      </trkpt>
      <trkpt lat="44.06011" lon="6.8496">
        <ele>894</ele>
        <time>2020-06-05T07:48:12.000Z</time>
      </trkpt>
      <trkpt lat="44.06012" lon="6.8496">
        <ele>894</ele>
        <time>2020-06-05T07:48:13.000Z</time>
      </trkpt>
      <trkpt lat="44.06012" lon="6.8496">
        <ele>894</ele>
        <time>2020-06-05T07:48:14.000Z</time>
      </trkpt>
      <trkpt lat="44.06012" lon="6.8496">
        <ele>894</ele>
        <time>2020-06-05T07:48:15.000Z</time>
      </trkpt>
      <trkpt lat="44.06012" lon="6.8496">
        <ele>894</ele>
        <time>2020-06-05T07:48:16.000Z</time>
      </trkpt>
      <trkpt lat="44.06012" lon="6.8496">
        <ele>894</ele>
        <time>2020-06-05T07:48:17.000Z</time>
      </trkpt>
      <trkpt lat="44.06012" lon="6.8496">
        <ele>895</ele>
        <time>2020-06-05T07:48:18.000Z</time>
      </trkpt>
      <trkpt lat="44.06012" lon="6.8496">
        <ele>895</ele>
        <time>2020-06-05T07:48:19.000Z</time>
      </trkpt>
      <trkpt lat="44.06012" lon="6.8496">
        <ele>895</ele>
        <time>2020-06-05T07:48:20.000Z</time>
      </trkpt>
      <trkpt lat="44.06012" lon="6.8496">
        <ele>895</ele>
        <time>2020-06-05T07:48:21.000Z</time>
      </trkpt>
      <trkpt lat="44.06012" lon="6.8496">
        <ele>895</ele>
        <time>2020-06-05T07:48:22.000Z</time>
      </trkpt>
      <trkpt lat="44.06012" lon="6.8496">
        <ele>895</ele>
        <time>2020-06-05T07:48:23.000Z</time>
      </trkpt>
      <trkpt lat="44.06012" lon="6.8496">
        <ele>895</ele>
        <time>2020-06-05T07:48:24.000Z</time>
      </trkpt>
      <trkpt lat="44.06012" lon="6.8496">
        <ele>895</ele>
        <time>2020-06-05T07:48:25.000Z</time>
      </trkpt>
      <trkpt lat="44.06012" lon="6.8496">
        <ele>895</ele>
        <time>2020-06-05T07:48:26.000Z</time>
      </trkpt>
      <trkpt lat="44.06012" lon="6.84961">
        <ele>895</ele>
        <time>2020-06-05T07:48:27.000Z</time>
      </trkpt>
      <trkpt lat="44.06012" lon="6.84961">
        <ele>895</ele>
        <time>2020-06-05T07:48:28.000Z</time>
      </trkpt>
      <trkpt lat="44.06012" lon="6.84961">
        <ele>895</ele>
        <time>2020-06-05T07:48:29.000Z</time>
      </trkpt>
      <trkpt lat="44.06012" lon="6.84961">
        <ele>895</ele>
        <time>2020-06-05T07:48:30.000Z</time>
      </trkpt>
      <trkpt lat="44.06012" lon="6.84961">
        <ele>895</ele>
        <time>2020-06-05T07:48:31.000Z</time>
      </trkpt>
      <trkpt lat="44.06012" lon="6.84961">
        <ele>895</ele>
        <time>2020-06-05T07:48:32.000Z</time>
      </trkpt>
      <trkpt lat="44.06012" lon="6.84961">
        <ele>895</ele>
        <time>2020-06-05T07:48:33.000Z</time>
      </trkpt>
      <trkpt lat="44.06012" lon="6.84961">
        <ele>895</ele>
        <time>2020-06-05T07:48:34.000Z</time>
      </trkpt>
      <trkpt lat="44.06012" lon="6.84961">
        <ele>896</ele>
        <time>2020-06-05T07:48:35.000Z</time>
      </trkpt>
      <trkpt lat="44.06012" lon="6.84961">
        <ele>896</ele>
        <time>2020-06-05T07:48:36.000Z</time>
      </trkpt>
      <trkpt lat="44.06012" lon="6.84961">
        <ele>896</ele>
        <time>2020-06-05T07:48:37.000Z</time>
      </trkpt>
      <trkpt lat="44.06013" lon="6.8496">
        <ele>896</ele>
        <time>2020-06-05T07:48:38.000Z</time>
      </trkpt>
      <trkpt lat="44.06013" lon="6.8496">
        <ele>896</ele>
        <time>2020-06-05T07:48:39.000Z</time>
      </trkpt>
      <trkpt lat="44.06013" lon="6.8496">
        <ele>896</ele>
        <time>2020-06-05T07:48:40.000Z</time>
      </trkpt>
      <trkpt lat="44.06013" lon="6.8496">
        <ele>896</ele>
        <time>2020-06-05T07:48:41.000Z</time>
      </trkpt>
      <trkpt lat="44.06013" lon="6.84961">
        <ele>896</ele>
        <time>2020-06-05T07:48:42.000Z</time>
      </trkpt>
      <trkpt lat="44.06013" lon="6.84961">
        <ele>896</ele>
        <time>2020-06-05T07:48:43.000Z</time>
      </trkpt>
      <trkpt lat="44.06013" lon="6.84961">
        <ele>896</ele>
        <time>2020-06-05T07:48:44.000Z</time>
      </trkpt>
      <trkpt lat="44.06013" lon="6.84961">
        <ele>896</ele>
        <time>2020-06-05T07:48:45.000Z</time>
      </trkpt>
      <trkpt lat="44.06013" lon="6.84961">
        <ele>896</ele>
        <time>2020-06-05T07:48:46.000Z</time>
      </trkpt>
      <trkpt lat="44.06013" lon="6.84961">
        <ele>896</ele>
        <time>2020-06-05T07:48:47.000Z</time>
      </trkpt>
      <trkpt lat="44.06013" lon="6.84961">
        <ele>896</ele>
        <time>2020-06-05T07:48:48.000Z</time>
      </trkpt>
      <trkpt lat="44.06013" lon="6.84961">
        <ele>896</ele>
        <time>2020-06-05T07:48:49.000Z</time>
      </trkpt>
      <trkpt lat="44.06013" lon="6.84961">
        <ele>896</ele>
        <time>2020-06-05T07:48:50.000Z</time>
      </trkpt>
      <trkpt lat="44.06013" lon="6.84961">
        <ele>896</ele>
        <time>2020-06-05T07:48:51.000Z</time>
      </trkpt>
      <trkpt lat="44.06013" lon="6.84961">
        <ele>896</ele>
        <time>2020-06-05T07:48:52.000Z</time>
      </trkpt>
      <trkpt lat="44.06013" lon="6.84962">
        <ele>896</ele>
        <time>2020-06-05T07:48:53.000Z</time>
      </trkpt>
      <trkpt lat="44.06013" lon="6.84962">
        <ele>896</ele>
        <time>2020-06-05T07:48:54.000Z</time>
      </trkpt>
      <trkpt lat="44.06013" lon="6.84962">
        <ele>896</ele>
        <time>2020-06-05T07:48:55.000Z</time>
      </trkpt>
      <trkpt lat="44.06013" lon="6.84963">
        <ele>896</ele>
        <time>2020-06-05T07:48:56.000Z</time>
      </trkpt>
      <trkpt lat="44.06013" lon="6.84964">
        <ele>896</ele>
        <time>2020-06-05T07:48:57.000Z</time>
      </trkpt>
      <trkpt lat="44.06013" lon="6.84964">
        <ele>896</ele>
        <time>2020-06-05T07:48:58.000Z</time>
      </trkpt>
      <trkpt lat="44.06013" lon="6.84965">
        <ele>897</ele>
        <time>2020-06-05T07:48:59.000Z</time>
      </trkpt>
      <trkpt lat="44.06013" lon="6.84966">
        <ele>897</ele>
        <time>2020-06-05T07:49:00.000Z</time>
      </trkpt>
      <trkpt lat="44.06013" lon="6.84966">
        <ele>897</ele>
        <time>2020-06-05T07:49:01.000Z</time>
      </trkpt>
      <trkpt lat="44.06013" lon="6.84967">
        <ele>897</ele>
        <time>2020-06-05T07:49:02.000Z</time>
      </trkpt>
      <trkpt lat="44.06013" lon="6.84968">
        <ele>897</ele>
        <time>2020-06-05T07:49:03.000Z</time>
      </trkpt>
      <trkpt lat="44.06013" lon="6.84969">
        <ele>897</ele>
        <time>2020-06-05T07:49:04.000Z</time>
      </trkpt>
      <trkpt lat="44.06013" lon="6.8497">
        <ele>897</ele>
        <time>2020-06-05T07:49:05.000Z</time>
      </trkpt>
      <trkpt lat="44.06013" lon="6.8497">
        <ele>897</ele>
        <time>2020-06-05T07:49:06.000Z</time>
      </trkpt>
      <trkpt lat="44.06013" lon="6.84971">
        <ele>897</ele>
        <time>2020-06-05T07:49:07.000Z</time>
      </trkpt>
      <trkpt lat="44.06012" lon="6.84972">
        <ele>897</ele>
        <time>2020-06-05T07:49:08.000Z</time>
      </trkpt>
      <trkpt lat="44.06012" lon="6.84973">
        <ele>898</ele>
        <time>2020-06-05T07:49:09.000Z</time>
      </trkpt>
      <trkpt lat="44.06012" lon="6.84973">
        <ele>898</ele>
        <time>2020-06-05T07:49:10.000Z</time>
      </trkpt>
      <trkpt lat="44.06011" lon="6.84974">
        <ele>898</ele>
        <time>2020-06-05T07:49:11.000Z</time>
      </trkpt>
      <trkpt lat="44.0601" lon="6.84975">
        <ele>898</ele>
        <time>2020-06-05T07:49:12.000Z</time>
      </trkpt>
      <trkpt lat="44.0601" lon="6.84975">
        <ele>898</ele>
        <time>2020-06-05T07:49:13.000Z</time>
      </trkpt>
      <trkpt lat="44.06009" lon="6.84976">
        <ele>897</ele>
        <time>2020-06-05T07:49:14.000Z</time>
      </trkpt>
      <trkpt lat="44.06009" lon="6.84976">
        <ele>897</ele>
        <time>2020-06-05T07:49:15.000Z</time>
      </trkpt>
      <trkpt lat="44.06008" lon="6.84976">
        <ele>897</ele>
        <time>2020-06-05T07:49:16.000Z</time>
      </trkpt>
      <trkpt lat="44.06008" lon="6.84977">
        <ele>897</ele>
        <time>2020-06-05T07:49:17.000Z</time>
      </trkpt>
      <trkpt lat="44.06008" lon="6.84978">
        <ele>897</ele>
        <time>2020-06-05T07:49:18.000Z</time>
      </trkpt>
      <trkpt lat="44.06008" lon="6.84979">
        <ele>897</ele>
        <time>2020-06-05T07:49:19.000Z</time>
      </trkpt>
      <trkpt lat="44.06008" lon="6.8498">
        <ele>897</ele>
        <time>2020-06-05T07:49:20.000Z</time>
      </trkpt>
      <trkpt lat="44.06008" lon="6.8498">
        <ele>897</ele>
        <time>2020-06-05T07:49:21.000Z</time>
      </trkpt>
      <trkpt lat="44.06008" lon="6.84981">
        <ele>897</ele>
        <time>2020-06-05T07:49:22.000Z</time>
      </trkpt>
      <trkpt lat="44.06009" lon="6.84982">
        <ele>897</ele>
        <time>2020-06-05T07:49:23.000Z</time>
      </trkpt>
      <trkpt lat="44.06009" lon="6.84983">
        <ele>898</ele>
        <time>2020-06-05T07:49:24.000Z</time>
      </trkpt>
      <trkpt lat="44.06009" lon="6.84984">
        <ele>898</ele>
        <time>2020-06-05T07:49:25.000Z</time>
      </trkpt>
      <trkpt lat="44.06009" lon="6.84985">
        <ele>898</ele>
        <time>2020-06-05T07:49:26.000Z</time>
      </trkpt>
      <trkpt lat="44.06009" lon="6.84986">
        <ele>898</ele>
        <time>2020-06-05T07:49:27.000Z</time>
      </trkpt>
      <trkpt lat="44.06009" lon="6.84986">
        <ele>898</ele>
        <time>2020-06-05T07:49:28.000Z</time>
      </trkpt>
      <trkpt lat="44.06008" lon="6.84986">
        <ele>898</ele>
        <time>2020-06-05T07:49:29.000Z</time>
      </trkpt>
      <trkpt lat="44.06008" lon="6.84986">
        <ele>898</ele>
        <time>2020-06-05T07:49:30.000Z</time>
      </trkpt>
      <trkpt lat="44.06007" lon="6.84986">
        <ele>898</ele>
        <time>2020-06-05T07:49:31.000Z</time>
      </trkpt>
      <trkpt lat="44.06007" lon="6.84985">
        <ele>898</ele>
        <time>2020-06-05T07:49:32.000Z</time>
      </trkpt>
      <trkpt lat="44.06006" lon="6.84985">
        <ele>898</ele>
        <time>2020-06-05T07:49:33.000Z</time>
      </trkpt>
      <trkpt lat="44.06005" lon="6.84984">
        <ele>898</ele>
        <time>2020-06-05T07:49:34.000Z</time>
      </trkpt>
      <trkpt lat="44.06005" lon="6.84983">
        <ele>898</ele>
        <time>2020-06-05T07:49:35.000Z</time>
      </trkpt>
      <trkpt lat="44.06004" lon="6.84982">
        <ele>899</ele>
        <time>2020-06-05T07:49:36.000Z</time>
      </trkpt>
      <trkpt lat="44.06004" lon="6.84981">
        <ele>899</ele>
        <time>2020-06-05T07:49:37.000Z</time>
      </trkpt>
      <trkpt lat="44.06004" lon="6.8498">
        <ele>899</ele>
        <time>2020-06-05T07:49:38.000Z</time>
      </trkpt>
      <trkpt lat="44.06004" lon="6.84979">
        <ele>899</ele>
        <time>2020-06-05T07:49:39.000Z</time>
      </trkpt>
      <trkpt lat="44.06003" lon="6.84979">
        <ele>899</ele>
        <time>2020-06-05T07:49:40.000Z</time>
      </trkpt>
      <trkpt lat="44.06003" lon="6.84978">
        <ele>899</ele>
        <time>2020-06-05T07:49:41.000Z</time>
      </trkpt>
      <trkpt lat="44.06003" lon="6.84977">
        <ele>899</ele>
        <time>2020-06-05T07:49:42.000Z</time>
      </trkpt>
      <trkpt lat="44.06002" lon="6.84976">
        <ele>899</ele>
        <time>2020-06-05T07:49:43.000Z</time>
      </trkpt>
      <trkpt lat="44.06002" lon="6.84976">
        <ele>899</ele>
        <time>2020-06-05T07:49:44.000Z</time>
      </trkpt>
      <trkpt lat="44.06001" lon="6.84975">
        <ele>899</ele>
        <time>2020-06-05T07:49:45.000Z</time>
      </trkpt>
      <trkpt lat="44.06001" lon="6.84974">
        <ele>899</ele>
        <time>2020-06-05T07:49:46.000Z</time>
      </trkpt>
      <trkpt lat="44.06001" lon="6.84974">
        <ele>900</ele>
        <time>2020-06-05T07:49:47.000Z</time>
      </trkpt>
      <trkpt lat="44.06" lon="6.84973">
        <ele>900</ele>
        <time>2020-06-05T07:49:48.000Z</time>
      </trkpt>
      <trkpt lat="44.06" lon="6.84972">
        <ele>900</ele>
        <time>2020-06-05T07:49:49.000Z</time>
      </trkpt>
      <trkpt lat="44.06" lon="6.84971">
        <ele>900</ele>
        <time>2020-06-05T07:49:50.000Z</time>
      </trkpt>
      <trkpt lat="44.05999" lon="6.8497">
        <ele>900</ele>
        <time>2020-06-05T07:49:51.000Z</time>
      </trkpt>
      <trkpt lat="44.05999" lon="6.8497">
        <ele>900</ele>
        <time>2020-06-05T07:49:52.000Z</time>
      </trkpt>
      <trkpt lat="44.05999" lon="6.84969">
        <ele>900</ele>
        <time>2020-06-05T07:49:53.000Z</time>
      </trkpt>
      <trkpt lat="44.05999" lon="6.84968">
        <ele>900</ele>
        <time>2020-06-05T07:49:54.000Z</time>
      </trkpt>
      <trkpt lat="44.05999" lon="6.84968">
        <ele>900</ele>
        <time>2020-06-05T07:49:55.000Z</time>
      </trkpt>
      <trkpt lat="44.05998" lon="6.84968">
        <ele>900</ele>
        <time>2020-06-05T07:49:56.000Z</time>
      </trkpt>
      <trkpt lat="44.05998" lon="6.84967">
        <ele>900</ele>
        <time>2020-06-05T07:49:57.000Z</time>
      </trkpt>
      <trkpt lat="44.05998" lon="6.84967">
        <ele>900</ele>
        <time>2020-06-05T07:49:58.000Z</time>
      </trkpt>
      <trkpt lat="44.05998" lon="6.84967">
        <ele>901</ele>
        <time>2020-06-05T07:49:59.000Z</time>
      </trkpt>
      <trkpt lat="44.05998" lon="6.84966">
        <ele>901</ele>
        <time>2020-06-05T07:50:00.000Z</time>
      </trkpt>
      <trkpt lat="44.05998" lon="6.84966">
        <ele>901</ele>
        <time>2020-06-05T07:50:01.000Z</time>
      </trkpt>
      <trkpt lat="44.05998" lon="6.84966">
        <ele>901</ele>
        <time>2020-06-05T07:50:02.000Z</time>
      </trkpt>
      <trkpt lat="44.05998" lon="6.84966">
        <ele>901</ele>
        <time>2020-06-05T07:50:03.000Z</time>
      </trkpt>
      <trkpt lat="44.05998" lon="6.84966">
        <ele>901</ele>
        <time>2020-06-05T07:50:04.000Z</time>
      </trkpt>
      <trkpt lat="44.05998" lon="6.84966">
        <ele>901</ele>
        <time>2020-06-05T07:50:05.000Z</time>
      </trkpt>
      <trkpt lat="44.05998" lon="6.84966">
        <ele>901</ele>
        <time>2020-06-05T07:50:06.000Z</time>
      </trkpt>
      <trkpt lat="44.05998" lon="6.84966">
        <ele>901</ele>
        <time>2020-06-05T07:50:07.000Z</time>
      </trkpt>
      <trkpt lat="44.05998" lon="6.84966">
        <ele>901</ele>
        <time>2020-06-05T07:50:08.000Z</time>
      </trkpt>
      <trkpt lat="44.05998" lon="6.84966">
        <ele>901</ele>
        <time>2020-06-05T07:50:09.000Z</time>
      </trkpt>
      <trkpt lat="44.05998" lon="6.84966">
        <ele>901</ele>
        <time>2020-06-05T07:50:10.000Z</time>
      </trkpt>
      <trkpt lat="44.05998" lon="6.84966">
        <ele>901</ele>
        <time>2020-06-05T07:50:11.000Z</time>
      </trkpt>
      <trkpt lat="44.05998" lon="6.84966">
        <ele>901</ele>
        <time>2020-06-05T07:50:12.000Z</time>
      </trkpt>
      <trkpt lat="44.05998" lon="6.84966">
        <ele>901</ele>
        <time>2020-06-05T07:50:13.000Z</time>
      </trkpt>
      <trkpt lat="44.05998" lon="6.84966">
        <ele>902</ele>
        <time>2020-06-05T07:50:14.000Z</time>
      </trkpt>
      <trkpt lat="44.05997" lon="6.84966">
        <ele>902</ele>
        <time>2020-06-05T07:50:15.000Z</time>
      </trkpt>
      <trkpt lat="44.05997" lon="6.84966">
        <ele>902</ele>
        <time>2020-06-05T07:50:16.000Z</time>
      </trkpt>
      <trkpt lat="44.05997" lon="6.84966">
        <ele>902</ele>
        <time>2020-06-05T07:50:17.000Z</time>
      </trkpt>
      <trkpt lat="44.05997" lon="6.84966">
        <ele>902</ele>
        <time>2020-06-05T07:50:18.000Z</time>
      </trkpt>
      <trkpt lat="44.05997" lon="6.84966">
        <ele>902</ele>
        <time>2020-06-05T07:50:19.000Z</time>
      </trkpt>
      <trkpt lat="44.05997" lon="6.84966">
        <ele>902</ele>
        <time>2020-06-05T07:50:20.000Z</time>
      </trkpt>
      <trkpt lat="44.05997" lon="6.84965">
        <ele>902</ele>
        <time>2020-06-05T07:50:21.000Z</time>
      </trkpt>
      <trkpt lat="44.05997" lon="6.84965">
        <ele>902</ele>
        <time>2020-06-05T07:50:22.000Z</time>
      </trkpt>
      <trkpt lat="44.05997" lon="6.84965">
        <ele>902</ele>
        <time>2020-06-05T07:50:23.000Z</time>
      </trkpt>
      <trkpt lat="44.05996" lon="6.84965">
        <ele>902</ele>
        <time>2020-06-05T07:50:24.000Z</time>
      </trkpt>
      <trkpt lat="44.05996" lon="6.84965">
        <ele>902</ele>
        <time>2020-06-05T07:50:25.000Z</time>
      </trkpt>
      <trkpt lat="44.05996" lon="6.84965">
        <ele>902</ele>
        <time>2020-06-05T07:50:26.000Z</time>
      </trkpt>
      <trkpt lat="44.05996" lon="6.84965">
        <ele>902</ele>
        <time>2020-06-05T07:50:27.000Z</time>
      </trkpt>
      <trkpt lat="44.05996" lon="6.84965">
        <ele>902</ele>
        <time>2020-06-05T07:50:28.000Z</time>
      </trkpt>
      <trkpt lat="44.05996" lon="6.84965">
        <ele>902</ele>
        <time>2020-06-05T07:50:29.000Z</time>
      </trkpt>
      <trkpt lat="44.05996" lon="6.84965">
        <ele>903</ele>
        <time>2020-06-05T07:50:30.000Z</time>
      </trkpt>
      <trkpt lat="44.05996" lon="6.84965">
        <ele>903</ele>
        <time>2020-06-05T07:50:31.000Z</time>
      </trkpt>
      <trkpt lat="44.05996" lon="6.84965">
        <ele>903</ele>
        <time>2020-06-05T07:50:32.000Z</time>
      </trkpt>
      <trkpt lat="44.05996" lon="6.84965">
        <ele>903</ele>
        <time>2020-06-05T07:50:33.000Z</time>
      </trkpt>
      <trkpt lat="44.05996" lon="6.84965">
        <ele>903</ele>
        <time>2020-06-05T07:50:34.000Z</time>
      </trkpt>
      <trkpt lat="44.05995" lon="6.84965">
        <ele>903</ele>
        <time>2020-06-05T07:50:35.000Z</time>
      </trkpt>
      <trkpt lat="44.05996" lon="6.84965">
        <ele>903</ele>
        <time>2020-06-05T07:50:36.000Z</time>
      </trkpt>
      <trkpt lat="44.05996" lon="6.84964">
        <ele>903</ele>
        <time>2020-06-05T07:50:37.000Z</time>
      </trkpt>
      <trkpt lat="44.05996" lon="6.84964">
        <ele>903</ele>
        <time>2020-06-05T07:50:38.000Z</time>
      </trkpt>
      <trkpt lat="44.05995" lon="6.84964">
        <ele>903</ele>
        <time>2020-06-05T07:50:39.000Z</time>
      </trkpt>
      <trkpt lat="44.05996" lon="6.84964">
        <ele>903</ele>
        <time>2020-06-05T07:50:40.000Z</time>
      </trkpt>
      <trkpt lat="44.05995" lon="6.84964">
        <ele>903</ele>
        <time>2020-06-05T07:50:41.000Z</time>
      </trkpt>
      <trkpt lat="44.05995" lon="6.84963">
        <ele>903</ele>
        <time>2020-06-05T07:50:42.000Z</time>
      </trkpt>
      <trkpt lat="44.05995" lon="6.84963">
        <ele>903</ele>
        <time>2020-06-05T07:50:43.000Z</time>
      </trkpt>
      <trkpt lat="44.05995" lon="6.84963">
        <ele>903</ele>
        <time>2020-06-05T07:50:44.000Z</time>
      </trkpt>
      <trkpt lat="44.05995" lon="6.84963">
        <ele>903</ele>
        <time>2020-06-05T07:50:45.000Z</time>
      </trkpt>
      <trkpt lat="44.05995" lon="6.84963">
        <ele>903</ele>
        <time>2020-06-05T07:50:46.000Z</time>
      </trkpt>
      <trkpt lat="44.05995" lon="6.84963">
        <ele>903</ele>
        <time>2020-06-05T07:50:47.000Z</time>
      </trkpt>
      <trkpt lat="44.05995" lon="6.84963">
        <ele>903</ele>
        <time>2020-06-05T07:50:48.000Z</time>
      </trkpt>
      <trkpt lat="44.05995" lon="6.84963">
        <ele>903</ele>
        <time>2020-06-05T07:50:49.000Z</time>
      </trkpt>
      <trkpt lat="44.05995" lon="6.84963">
        <ele>903</ele>
        <time>2020-06-05T07:50:50.000Z</time>
      </trkpt>
      <trkpt lat="44.05995" lon="6.84963">
        <ele>904</ele>
        <time>2020-06-05T07:50:51.000Z</time>
      </trkpt>
      <trkpt lat="44.05995" lon="6.84963">
        <ele>904</ele>
        <time>2020-06-05T07:50:52.000Z</time>
      </trkpt>
      <trkpt lat="44.05995" lon="6.84963">
        <ele>904</ele>
        <time>2020-06-05T07:50:53.000Z</time>
      </trkpt>
      <trkpt lat="44.05995" lon="6.84963">
        <ele>904</ele>
        <time>2020-06-05T07:50:54.000Z</time>
      </trkpt>
      <trkpt lat="44.05995" lon="6.84963">
        <ele>904</ele>
        <time>2020-06-05T07:50:55.000Z</time>
      </trkpt>
      <trkpt lat="44.05995" lon="6.84963">
        <ele>904</ele>
        <time>2020-06-05T07:50:56.000Z</time>
      </trkpt>
      <trkpt lat="44.05995" lon="6.84963">
        <ele>904</ele>
        <time>2020-06-05T07:50:57.000Z</time>
      </trkpt>
      <trkpt lat="44.05995" lon="6.84963">
        <ele>904</ele>
        <time>2020-06-05T07:50:58.000Z</time>
      </trkpt>
      <trkpt lat="44.05995" lon="6.84963">
        <ele>904</ele>
        <time>2020-06-05T07:50:59.000Z</time>
      </trkpt>
      <trkpt lat="44.05995" lon="6.84963">
        <ele>904</ele>
        <time>2020-06-05T07:51:00.000Z</time>
      </trkpt>
      <trkpt lat="44.05995" lon="6.84963">
        <ele>904</ele>
        <time>2020-06-05T07:51:01.000Z</time>
      </trkpt>
      <trkpt lat="44.05995" lon="6.84963">
        <ele>904</ele>
        <time>2020-06-05T07:51:02.000Z</time>
      </trkpt>
      <trkpt lat="44.05995" lon="6.84963">
        <ele>904</ele>
        <time>2020-06-05T07:51:03.000Z</time>
      </trkpt>
      <trkpt lat="44.05995" lon="6.84963">
        <ele>904</ele>
        <time>2020-06-05T07:51:04.000Z</time>
      </trkpt>
      <trkpt lat="44.05995" lon="6.84963">
        <ele>904</ele>
        <time>2020-06-05T07:51:05.000Z</time>
      </trkpt>
      <trkpt lat="44.05995" lon="6.84963">
        <ele>904</ele>
        <time>2020-06-05T07:51:06.000Z</time>
      </trkpt>
      <trkpt lat="44.05995" lon="6.84963">
        <ele>904</ele>
        <time>2020-06-05T07:51:07.000Z</time>
      </trkpt>
      <trkpt lat="44.05995" lon="6.84963">
        <ele>904</ele>
        <time>2020-06-05T07:51:08.000Z</time>
      </trkpt>
      <trkpt lat="44.05995" lon="6.84963">
        <ele>904</ele>
        <time>2020-06-05T07:51:09.000Z</time>
      </trkpt>
      <trkpt lat="44.05995" lon="6.84963">
        <ele>904</ele>
        <time>2020-06-05T07:51:10.000Z</time>
      </trkpt>
      <trkpt lat="44.05995" lon="6.84962">
        <ele>904</ele>
        <time>2020-06-05T07:51:11.000Z</time>
      </trkpt>
      <trkpt lat="44.05995" lon="6.84962">
        <ele>904</ele>
        <time>2020-06-05T07:51:12.000Z</time>
      </trkpt>
      <trkpt lat="44.05995" lon="6.84962">
        <ele>904</ele>
        <time>2020-06-05T07:51:13.000Z</time>
      </trkpt>
      <trkpt lat="44.05995" lon="6.84962">
        <ele>904</ele>
        <time>2020-06-05T07:51:14.000Z</time>
      </trkpt>
      <trkpt lat="44.05995" lon="6.84962">
        <ele>904</ele>
        <time>2020-06-05T07:51:15.000Z</time>
      </trkpt>
      <trkpt lat="44.05995" lon="6.84962">
        <ele>904</ele>
        <time>2020-06-05T07:51:16.000Z</time>
      </trkpt>
      <trkpt lat="44.05995" lon="6.84962">
        <ele>904</ele>
        <time>2020-06-05T07:51:17.000Z</time>
      </trkpt>
      <trkpt lat="44.05995" lon="6.84962">
        <ele>904</ele>
        <time>2020-06-05T07:51:18.000Z</time>
      </trkpt>
      <trkpt lat="44.05995" lon="6.84962">
        <ele>904</ele>
        <time>2020-06-05T07:51:19.000Z</time>
      </trkpt>
      <trkpt lat="44.05995" lon="6.84962">
        <ele>904</ele>
        <time>2020-06-05T07:51:20.000Z</time>
      </trkpt>
      <trkpt lat="44.05995" lon="6.84962">
        <ele>904</ele>
        <time>2020-06-05T07:51:21.000Z</time>
      </trkpt>
      <trkpt lat="44.05995" lon="6.84962">
        <ele>904</ele>
        <time>2020-06-05T07:51:22.000Z</time>
      </trkpt>
      <trkpt lat="44.05995" lon="6.84962">
        <ele>904</ele>
        <time>2020-06-05T07:51:23.000Z</time>
      </trkpt>
      <trkpt lat="44.05995" lon="6.84963">
        <ele>904</ele>
        <time>2020-06-05T07:51:24.000Z</time>
      </trkpt>
      <trkpt lat="44.05995" lon="6.84963">
        <ele>904</ele>
        <time>2020-06-05T07:51:25.000Z</time>
      </trkpt>
      <trkpt lat="44.05995" lon="6.84963">
        <ele>904</ele>
        <time>2020-06-05T07:51:26.000Z</time>
      </trkpt>
      <trkpt lat="44.05995" lon="6.84963">
        <ele>904</ele>
        <time>2020-06-05T07:51:27.000Z</time>
      </trkpt>
      <trkpt lat="44.05995" lon="6.84963">
        <ele>904</ele>
        <time>2020-06-05T07:51:28.000Z</time>
      </trkpt>
      <trkpt lat="44.05995" lon="6.84963">
        <ele>904</ele>
        <time>2020-06-05T07:51:29.000Z</time>
      </trkpt>
      <trkpt lat="44.05995" lon="6.84963">
        <ele>904</ele>
        <time>2020-06-05T07:51:30.000Z</time>
      </trkpt>
      <trkpt lat="44.05995" lon="6.84963">
        <ele>904</ele>
        <time>2020-06-05T07:51:31.000Z</time>
      </trkpt>
      <trkpt lat="44.05995" lon="6.84963">
        <ele>904</ele>
        <time>2020-06-05T07:51:32.000Z</time>
      </trkpt>
      <trkpt lat="44.05995" lon="6.84963">
        <ele>904</ele>
        <time>2020-06-05T07:51:33.000Z</time>
      </trkpt>
      <trkpt lat="44.05995" lon="6.84963">
        <ele>904</ele>
        <time>2020-06-05T07:51:34.000Z</time>
      </trkpt>
      <trkpt lat="44.05995" lon="6.84963">
        <ele>904</ele>
        <time>2020-06-05T07:51:35.000Z</time>
      </trkpt>
      <trkpt lat="44.05995" lon="6.84963">
        <ele>904</ele>
        <time>2020-06-05T07:51:36.000Z</time>
      </trkpt>
      <trkpt lat="44.05995" lon="6.84963">
        <ele>904</ele>
        <time>2020-06-05T07:51:37.000Z</time>
      </trkpt>
      <trkpt lat="44.05995" lon="6.84963">
        <ele>904</ele>
        <time>2020-06-05T07:51:38.000Z</time>
      </trkpt>
      <trkpt lat="44.05995" lon="6.84962">
        <ele>904</ele>
        <time>2020-06-05T07:51:39.000Z</time>
      </trkpt>
      <trkpt lat="44.05995" lon="6.84962">
        <ele>904</ele>
        <time>2020-06-05T07:51:40.000Z</time>
      </trkpt>
      <trkpt lat="44.05995" lon="6.84963">
        <ele>904</ele>
        <time>2020-06-05T07:51:41.000Z</time>
      </trkpt>
      <trkpt lat="44.05995" lon="6.84963">
        <ele>904</ele>
        <time>2020-06-05T07:51:42.000Z</time>
      </trkpt>
      <trkpt lat="44.05995" lon="6.84963">
        <ele>904</ele>
        <time>2020-06-05T07:51:43.000Z</time>
      </trkpt>
      <trkpt lat="44.05995" lon="6.84963">
        <ele>904</ele>
        <time>2020-06-05T07:51:44.000Z</time>
      </trkpt>
      <trkpt lat="44.05995" lon="6.84962">
        <ele>904</ele>
        <time>2020-06-05T07:51:45.000Z</time>
      </trkpt>
      <trkpt lat="44.05995" lon="6.84962">
        <ele>904</ele>
        <time>2020-06-05T07:51:46.000Z</time>
      </trkpt>
      <trkpt lat="44.05994" lon="6.84962">
        <ele>904</ele>
        <time>2020-06-05T07:51:47.000Z</time>
      </trkpt>
      <trkpt lat="44.05994" lon="6.84962">
        <ele>904</ele>
        <time>2020-06-05T07:51:48.000Z</time>
      </trkpt>
      <trkpt lat="44.05994" lon="6.84962">
        <ele>904</ele>
        <time>2020-06-05T07:51:49.000Z</time>
      </trkpt>
      <trkpt lat="44.05994" lon="6.84962">
        <ele>904</ele>
        <time>2020-06-05T07:51:50.000Z</time>
      </trkpt>
      <trkpt lat="44.05994" lon="6.84962">
        <ele>904</ele>
        <time>2020-06-05T07:51:51.000Z</time>
      </trkpt>
      <trkpt lat="44.05994" lon="6.84962">
        <ele>904</ele>
        <time>2020-06-05T07:51:52.000Z</time>
      </trkpt>
      <trkpt lat="44.05994" lon="6.84962">
        <ele>904</ele>
        <time>2020-06-05T07:51:53.000Z</time>
      </trkpt>
      <trkpt lat="44.05994" lon="6.84962">
        <ele>904</ele>
        <time>2020-06-05T07:51:54.000Z</time>
      </trkpt>
      <trkpt lat="44.05994" lon="6.84962">
        <ele>904</ele>
        <time>2020-06-05T07:51:55.000Z</time>
      </trkpt>
      <trkpt lat="44.05994" lon="6.84962">
        <ele>904</ele>
        <time>2020-06-05T07:51:56.000Z</time>
      </trkpt>
      <trkpt lat="44.05994" lon="6.84962">
        <ele>904</ele>
        <time>2020-06-05T07:51:57.000Z</time>
      </trkpt>
      <trkpt lat="44.05994" lon="6.84962">
        <ele>904</ele>
        <time>2020-06-05T07:51:58.000Z</time>
      </trkpt>
      <trkpt lat="44.05994" lon="6.84962">
        <ele>904</ele>
        <time>2020-06-05T07:51:59.000Z</time>
      </trkpt>
      <trkpt lat="44.05994" lon="6.84962">
        <ele>904</ele>
        <time>2020-06-05T07:52:00.000Z</time>
      </trkpt>
      <trkpt lat="44.05994" lon="6.84962">
        <ele>904</ele>
        <time>2020-06-05T07:52:01.000Z</time>
      </trkpt>
      <trkpt lat="44.05994" lon="6.84962">
        <ele>904</ele>
        <time>2020-06-05T07:52:02.000Z</time>
      </trkpt>
      <trkpt lat="44.05994" lon="6.84961">
        <ele>904</ele>
        <time>2020-06-05T07:52:03.000Z</time>
      </trkpt>
      <trkpt lat="44.05994" lon="6.84961">
        <ele>904</ele>
        <time>2020-06-05T07:52:04.000Z</time>
      </trkpt>
      <trkpt lat="44.05994" lon="6.84961">
        <ele>904</ele>
        <time>2020-06-05T07:52:05.000Z</time>
      </trkpt>
      <trkpt lat="44.05994" lon="6.84961">
        <ele>904</ele>
        <time>2020-06-05T07:52:06.000Z</time>
      </trkpt>
      <trkpt lat="44.05994" lon="6.84962">
        <ele>904</ele>
        <time>2020-06-05T07:52:07.000Z</time>
      </trkpt>
      <trkpt lat="44.05994" lon="6.84962">
        <ele>904</ele>
        <time>2020-06-05T07:52:08.000Z</time>
      </trkpt>
      <trkpt lat="44.05994" lon="6.84961">
        <ele>904</ele>
        <time>2020-06-05T07:52:09.000Z</time>
      </trkpt>
      <trkpt lat="44.05994" lon="6.84961">
        <ele>904</ele>
        <time>2020-06-05T07:52:10.000Z</time>
      </trkpt>
      <trkpt lat="44.05994" lon="6.84961">
        <ele>904</ele>
        <time>2020-06-05T07:52:11.000Z</time>
      </trkpt>
      <trkpt lat="44.05994" lon="6.84961">
        <ele>904</ele>
        <time>2020-06-05T07:52:12.000Z</time>
      </trkpt>
      <trkpt lat="44.05994" lon="6.84961">
        <ele>904</ele>
        <time>2020-06-05T07:52:13.000Z</time>
      </trkpt>
      <trkpt lat="44.05994" lon="6.84961">
        <ele>904</ele>
        <time>2020-06-05T07:52:14.000Z</time>
      </trkpt>
      <trkpt lat="44.05994" lon="6.84961">
        <ele>904</ele>
        <time>2020-06-05T07:52:15.000Z</time>
      </trkpt>
      <trkpt lat="44.05994" lon="6.84961">
        <ele>904</ele>
        <time>2020-06-05T07:52:16.000Z</time>
      </trkpt>
      <trkpt lat="44.05994" lon="6.84961">
        <ele>904</ele>
        <time>2020-06-05T07:52:17.000Z</time>
      </trkpt>
      <trkpt lat="44.05994" lon="6.84961">
        <ele>904</ele>
        <time>2020-06-05T07:52:18.000Z</time>
      </trkpt>
      <trkpt lat="44.05994" lon="6.84961">
        <ele>904</ele>
        <time>2020-06-05T07:52:19.000Z</time>
      </trkpt>
      <trkpt lat="44.05994" lon="6.84961">
        <ele>904</ele>
        <time>2020-06-05T07:52:20.000Z</time>
      </trkpt>
      <trkpt lat="44.05994" lon="6.84961">
        <ele>904</ele>
        <time>2020-06-05T07:52:21.000Z</time>
      </trkpt>
      <trkpt lat="44.05994" lon="6.84961">
        <ele>904</ele>
        <time>2020-06-05T07:52:22.000Z</time>
      </trkpt>
      <trkpt lat="44.05994" lon="6.84961">
        <ele>904</ele>
        <time>2020-06-05T07:52:23.000Z</time>
      </trkpt>
      <trkpt lat="44.05994" lon="6.84961">
        <ele>904</ele>
        <time>2020-06-05T07:52:24.000Z</time>
      </trkpt>
      <trkpt lat="44.05994" lon="6.84961">
        <ele>904</ele>
        <time>2020-06-05T07:52:25.000Z</time>
      </trkpt>
      <trkpt lat="44.05994" lon="6.84961">
        <ele>904</ele>
        <time>2020-06-05T07:52:26.000Z</time>
      </trkpt>
      <trkpt lat="44.05994" lon="6.84961">
        <ele>904</ele>
        <time>2020-06-05T07:52:27.000Z</time>
      </trkpt>
      <trkpt lat="44.05994" lon="6.84961">
        <ele>904</ele>
        <time>2020-06-05T07:52:28.000Z</time>
      </trkpt>
      <trkpt lat="44.05994" lon="6.84961">
        <ele>904</ele>
        <time>2020-06-05T07:52:29.000Z</time>
      </trkpt>
      <trkpt lat="44.05994" lon="6.84961">
        <ele>904</ele>
        <time>2020-06-05T07:52:30.000Z</time>
      </trkpt>
      <trkpt lat="44.05993" lon="6.84961">
        <ele>904</ele>
        <time>2020-06-05T07:52:31.000Z</time>
      </trkpt>
      <trkpt lat="44.05993" lon="6.8496">
        <ele>904</ele>
        <time>2020-06-05T07:52:32.000Z</time>
      </trkpt>
      <trkpt lat="44.05993" lon="6.8496">
        <ele>904</ele>
        <time>2020-06-05T07:52:33.000Z</time>
      </trkpt>
      <trkpt lat="44.05993" lon="6.84959">
        <ele>904</ele>
        <time>2020-06-05T07:52:34.000Z</time>
      </trkpt>
      <trkpt lat="44.05993" lon="6.84959">
        <ele>904</ele>
        <time>2020-06-05T07:52:35.000Z</time>
      </trkpt>
      <trkpt lat="44.05992" lon="6.84958">
        <ele>904</ele>
        <time>2020-06-05T07:52:36.000Z</time>
      </trkpt>
      <trkpt lat="44.05992" lon="6.84958">
        <ele>904</ele>
        <time>2020-06-05T07:52:37.000Z</time>
      </trkpt>
      <trkpt lat="44.05992" lon="6.84959">
        <ele>904</ele>
        <time>2020-06-05T07:52:38.000Z</time>
      </trkpt>
      <trkpt lat="44.05991" lon="6.84959">
        <ele>904</ele>
        <time>2020-06-05T07:52:39.000Z</time>
      </trkpt>
      <trkpt lat="44.05991" lon="6.8496">
        <ele>904</ele>
        <time>2020-06-05T07:52:40.000Z</time>
      </trkpt>
      <trkpt lat="44.0599" lon="6.8496">
        <ele>904</ele>
        <time>2020-06-05T07:52:41.000Z</time>
      </trkpt>
      <trkpt lat="44.0599" lon="6.8496">
        <ele>904</ele>
        <time>2020-06-05T07:52:42.000Z</time>
      </trkpt>
      <trkpt lat="44.0599" lon="6.8496">
        <ele>904</ele>
        <time>2020-06-05T07:52:43.000Z</time>
      </trkpt>
      <trkpt lat="44.0599" lon="6.8496">
        <ele>904</ele>
        <time>2020-06-05T07:52:44.000Z</time>
      </trkpt>
      <trkpt lat="44.0599" lon="6.84961">
        <ele>904</ele>
        <time>2020-06-05T07:52:45.000Z</time>
      </trkpt>
      <trkpt lat="44.0599" lon="6.84961">
        <ele>904</ele>
        <time>2020-06-05T07:52:46.000Z</time>
      </trkpt>
      <trkpt lat="44.0599" lon="6.84961">
        <ele>904</ele>
        <time>2020-06-05T07:52:47.000Z</time>
      </trkpt>
      <trkpt lat="44.0599" lon="6.84962">
        <ele>904</ele>
        <time>2020-06-05T07:52:48.000Z</time>
      </trkpt>
      <trkpt lat="44.0599" lon="6.84963">
        <ele>905</ele>
        <time>2020-06-05T07:52:49.000Z</time>
      </trkpt>
      <trkpt lat="44.0599" lon="6.84963">
        <ele>905</ele>
        <time>2020-06-05T07:52:50.000Z</time>
      </trkpt>
      <trkpt lat="44.0599" lon="6.84964">
        <ele>905</ele>
        <time>2020-06-05T07:52:51.000Z</time>
      </trkpt>
      <trkpt lat="44.0599" lon="6.84965">
        <ele>905</ele>
        <time>2020-06-05T07:52:52.000Z</time>
      </trkpt>
      <trkpt lat="44.0599" lon="6.84966">
        <ele>905</ele>
        <time>2020-06-05T07:52:53.000Z</time>
      </trkpt>
      <trkpt lat="44.0599" lon="6.84967">
        <ele>905</ele>
        <time>2020-06-05T07:52:54.000Z</time>
      </trkpt>
      <trkpt lat="44.0599" lon="6.84967">
        <ele>905</ele>
        <time>2020-06-05T07:52:55.000Z</time>
      </trkpt>
      <trkpt lat="44.0599" lon="6.84968">
        <ele>905</ele>
        <time>2020-06-05T07:52:56.000Z</time>
      </trkpt>
      <trkpt lat="44.0599" lon="6.84968">
        <ele>905</ele>
        <time>2020-06-05T07:52:57.000Z</time>
      </trkpt>
      <trkpt lat="44.0599" lon="6.84969">
        <ele>905</ele>
        <time>2020-06-05T07:52:58.000Z</time>
      </trkpt>
      <trkpt lat="44.0599" lon="6.8497">
        <ele>905</ele>
        <time>2020-06-05T07:52:59.000Z</time>
      </trkpt>
      <trkpt lat="44.0599" lon="6.8497">
        <ele>906</ele>
        <time>2020-06-05T07:53:00.000Z</time>
      </trkpt>
      <trkpt lat="44.0599" lon="6.84971">
        <ele>906</ele>
        <time>2020-06-05T07:53:01.000Z</time>
      </trkpt>
      <trkpt lat="44.0599" lon="6.84971">
        <ele>906</ele>
        <time>2020-06-05T07:53:02.000Z</time>
      </trkpt>
      <trkpt lat="44.05989" lon="6.84972">
        <ele>906</ele>
        <time>2020-06-05T07:53:03.000Z</time>
      </trkpt>
      <trkpt lat="44.05989" lon="6.84972">
        <ele>907</ele>
        <time>2020-06-05T07:53:04.000Z</time>
      </trkpt>
      <trkpt lat="44.05989" lon="6.84973">
        <ele>907</ele>
        <time>2020-06-05T07:53:05.000Z</time>
      </trkpt>
      <trkpt lat="44.05989" lon="6.84974">
        <ele>907</ele>
        <time>2020-06-05T07:53:06.000Z</time>
      </trkpt>
      <trkpt lat="44.05989" lon="6.84975">
        <ele>907</ele>
        <time>2020-06-05T07:53:07.000Z</time>
      </trkpt>
      <trkpt lat="44.05989" lon="6.84976">
        <ele>907</ele>
        <time>2020-06-05T07:53:08.000Z</time>
      </trkpt>
      <trkpt lat="44.05988" lon="6.84976">
        <ele>908</ele>
        <time>2020-06-05T07:53:09.000Z</time>
      </trkpt>
      <trkpt lat="44.05988" lon="6.84977">
        <ele>908</ele>
        <time>2020-06-05T07:53:10.000Z</time>
      </trkpt>
      <trkpt lat="44.05987" lon="6.84977">
        <ele>908</ele>
        <time>2020-06-05T07:53:11.000Z</time>
      </trkpt>
      <trkpt lat="44.05987" lon="6.84978">
        <ele>908</ele>
        <time>2020-06-05T07:53:12.000Z</time>
      </trkpt>
      <trkpt lat="44.05986" lon="6.84979">
        <ele>908</ele>
        <time>2020-06-05T07:53:13.000Z</time>
      </trkpt>
      <trkpt lat="44.05986" lon="6.8498">
        <ele>908</ele>
        <time>2020-06-05T07:53:14.000Z</time>
      </trkpt>
      <trkpt lat="44.05985" lon="6.84981">
        <ele>908</ele>
        <time>2020-06-05T07:53:15.000Z</time>
      </trkpt>
      <trkpt lat="44.05985" lon="6.84981">
        <ele>908</ele>
        <time>2020-06-05T07:53:16.000Z</time>
      </trkpt>
      <trkpt lat="44.05984" lon="6.84982">
        <ele>908</ele>
        <time>2020-06-05T07:53:17.000Z</time>
      </trkpt>
      <trkpt lat="44.05984" lon="6.84983">
        <ele>909</ele>
        <time>2020-06-05T07:53:18.000Z</time>
      </trkpt>
      <trkpt lat="44.05983" lon="6.84984">
        <ele>909</ele>
        <time>2020-06-05T07:53:19.000Z</time>
      </trkpt>
      <trkpt lat="44.05983" lon="6.84984">
        <ele>909</ele>
        <time>2020-06-05T07:53:20.000Z</time>
      </trkpt>
      <trkpt lat="44.05982" lon="6.84985">
        <ele>909</ele>
        <time>2020-06-05T07:53:21.000Z</time>
      </trkpt>
      <trkpt lat="44.05982" lon="6.84986">
        <ele>909</ele>
        <time>2020-06-05T07:53:22.000Z</time>
      </trkpt>
      <trkpt lat="44.05981" lon="6.84987">
        <ele>909</ele>
        <time>2020-06-05T07:53:23.000Z</time>
      </trkpt>
      <trkpt lat="44.05981" lon="6.84988">
        <ele>909</ele>
        <time>2020-06-05T07:53:24.000Z</time>
      </trkpt>
      <trkpt lat="44.0598" lon="6.84989">
        <ele>909</ele>
        <time>2020-06-05T07:53:25.000Z</time>
      </trkpt>
      <trkpt lat="44.0598" lon="6.84989">
        <ele>909</ele>
        <time>2020-06-05T07:53:26.000Z</time>
      </trkpt>
      <trkpt lat="44.0598" lon="6.8499">
        <ele>909</ele>
        <time>2020-06-05T07:53:27.000Z</time>
      </trkpt>
      <trkpt lat="44.05979" lon="6.84991">
        <ele>910</ele>
        <time>2020-06-05T07:53:28.000Z</time>
      </trkpt>
      <trkpt lat="44.05979" lon="6.84991">
        <ele>910</ele>
        <time>2020-06-05T07:53:29.000Z</time>
      </trkpt>
      <trkpt lat="44.05978" lon="6.84992">
        <ele>910</ele>
        <time>2020-06-05T07:53:30.000Z</time>
      </trkpt>
      <trkpt lat="44.05978" lon="6.84992">
        <ele>910</ele>
        <time>2020-06-05T07:53:31.000Z</time>
      </trkpt>
      <trkpt lat="44.05978" lon="6.84993">
        <ele>910</ele>
        <time>2020-06-05T07:53:32.000Z</time>
      </trkpt>
      <trkpt lat="44.05977" lon="6.84993">
        <ele>910</ele>
        <time>2020-06-05T07:53:33.000Z</time>
      </trkpt>
      <trkpt lat="44.05977" lon="6.84994">
        <ele>910</ele>
        <time>2020-06-05T07:53:34.000Z</time>
      </trkpt>
      <trkpt lat="44.05976" lon="6.84994">
        <ele>911</ele>
        <time>2020-06-05T07:53:35.000Z</time>
      </trkpt>
      <trkpt lat="44.05976" lon="6.84995">
        <ele>911</ele>
        <time>2020-06-05T07:53:36.000Z</time>
      </trkpt>
      <trkpt lat="44.05975" lon="6.84996">
        <ele>911</ele>
        <time>2020-06-05T07:53:37.000Z</time>
      </trkpt>
      <trkpt lat="44.05975" lon="6.84997">
        <ele>911</ele>
        <time>2020-06-05T07:53:38.000Z</time>
      </trkpt>
      <trkpt lat="44.05975" lon="6.84998">
        <ele>911</ele>
        <time>2020-06-05T07:53:39.000Z</time>
      </trkpt>
      <trkpt lat="44.05974" lon="6.84999">
        <ele>912</ele>
        <time>2020-06-05T07:53:40.000Z</time>
      </trkpt>
      <trkpt lat="44.05974" lon="6.84999">
        <ele>912</ele>
        <time>2020-06-05T07:53:41.000Z</time>
      </trkpt>
      <trkpt lat="44.05974" lon="6.85">
        <ele>912</ele>
        <time>2020-06-05T07:53:42.000Z</time>
      </trkpt>
      <trkpt lat="44.05973" lon="6.85001">
        <ele>912</ele>
        <time>2020-06-05T07:53:43.000Z</time>
      </trkpt>
      <trkpt lat="44.05973" lon="6.85002">
        <ele>913</ele>
        <time>2020-06-05T07:53:44.000Z</time>
      </trkpt>
      <trkpt lat="44.05973" lon="6.85003">
        <ele>913</ele>
        <time>2020-06-05T07:53:45.000Z</time>
      </trkpt>
      <trkpt lat="44.05973" lon="6.85004">
        <ele>913</ele>
        <time>2020-06-05T07:53:46.000Z</time>
      </trkpt>
      <trkpt lat="44.05972" lon="6.85005">
        <ele>913</ele>
        <time>2020-06-05T07:53:47.000Z</time>
      </trkpt>
      <trkpt lat="44.05972" lon="6.85006">
        <ele>913</ele>
        <time>2020-06-05T07:53:48.000Z</time>
      </trkpt>
      <trkpt lat="44.05972" lon="6.85007">
        <ele>914</ele>
        <time>2020-06-05T07:53:49.000Z</time>
      </trkpt>
      <trkpt lat="44.05972" lon="6.85008">
        <ele>914</ele>
        <time>2020-06-05T07:53:50.000Z</time>
      </trkpt>
      <trkpt lat="44.05971" lon="6.85009">
        <ele>914</ele>
        <time>2020-06-05T07:53:51.000Z</time>
      </trkpt>
      <trkpt lat="44.05971" lon="6.8501">
        <ele>914</ele>
        <time>2020-06-05T07:53:52.000Z</time>
      </trkpt>
      <trkpt lat="44.0597" lon="6.8501">
        <ele>914</ele>
        <time>2020-06-05T07:53:53.000Z</time>
      </trkpt>
      <trkpt lat="44.05969" lon="6.85011">
        <ele>914</ele>
        <time>2020-06-05T07:53:54.000Z</time>
      </trkpt>
      <trkpt lat="44.05969" lon="6.85012">
        <ele>914</ele>
        <time>2020-06-05T07:53:55.000Z</time>
      </trkpt>
      <trkpt lat="44.05968" lon="6.85013">
        <ele>914</ele>
        <time>2020-06-05T07:53:56.000Z</time>
      </trkpt>
      <trkpt lat="44.05967" lon="6.85013">
        <ele>914</ele>
        <time>2020-06-05T07:53:57.000Z</time>
      </trkpt>
      <trkpt lat="44.05966" lon="6.85014">
        <ele>914</ele>
        <time>2020-06-05T07:53:58.000Z</time>
      </trkpt>
      <trkpt lat="44.05965" lon="6.85015">
        <ele>914</ele>
        <time>2020-06-05T07:53:59.000Z</time>
      </trkpt>
      <trkpt lat="44.05965" lon="6.85015">
        <ele>914</ele>
        <time>2020-06-05T07:54:00.000Z</time>
      </trkpt>
      <trkpt lat="44.05964" lon="6.85016">
        <ele>914</ele>
        <time>2020-06-05T07:54:01.000Z</time>
      </trkpt>
      <trkpt lat="44.05964" lon="6.85017">
        <ele>914</ele>
        <time>2020-06-05T07:54:02.000Z</time>
      </trkpt>
      <trkpt lat="44.05963" lon="6.85018">
        <ele>915</ele>
        <time>2020-06-05T07:54:03.000Z</time>
      </trkpt>
      <trkpt lat="44.05963" lon="6.85019">
        <ele>915</ele>
        <time>2020-06-05T07:54:04.000Z</time>
      </trkpt>
      <trkpt lat="44.05962" lon="6.85019">
        <ele>915</ele>
        <time>2020-06-05T07:54:05.000Z</time>
      </trkpt>
      <trkpt lat="44.05962" lon="6.8502">
        <ele>915</ele>
        <time>2020-06-05T07:54:06.000Z</time>
      </trkpt>
      <trkpt lat="44.05961" lon="6.85021">
        <ele>915</ele>
        <time>2020-06-05T07:54:07.000Z</time>
      </trkpt>
      <trkpt lat="44.05961" lon="6.85022">
        <ele>915</ele>
        <time>2020-06-05T07:54:08.000Z</time>
      </trkpt>
      <trkpt lat="44.05961" lon="6.85023">
        <ele>915</ele>
        <time>2020-06-05T07:54:09.000Z</time>
      </trkpt>
      <trkpt lat="44.0596" lon="6.85024">
        <ele>915</ele>
        <time>2020-06-05T07:54:10.000Z</time>
      </trkpt>
      <trkpt lat="44.0596" lon="6.85025">
        <ele>915</ele>
        <time>2020-06-05T07:54:11.000Z</time>
      </trkpt>
      <trkpt lat="44.0596" lon="6.85025">
        <ele>915</ele>
        <time>2020-06-05T07:54:12.000Z</time>
      </trkpt>
      <trkpt lat="44.05959" lon="6.85026">
        <ele>915</ele>
        <time>2020-06-05T07:54:13.000Z</time>
      </trkpt>
      <trkpt lat="44.05959" lon="6.85027">
        <ele>915</ele>
        <time>2020-06-05T07:54:14.000Z</time>
      </trkpt>
      <trkpt lat="44.05959" lon="6.85028">
        <ele>916</ele>
        <time>2020-06-05T07:54:15.000Z</time>
      </trkpt>
      <trkpt lat="44.05958" lon="6.85028">
        <ele>916</ele>
        <time>2020-06-05T07:54:16.000Z</time>
      </trkpt>
      <trkpt lat="44.05958" lon="6.85029">
        <ele>916</ele>
        <time>2020-06-05T07:54:17.000Z</time>
      </trkpt>
      <trkpt lat="44.05957" lon="6.8503">
        <ele>916</ele>
        <time>2020-06-05T07:54:18.000Z</time>
      </trkpt>
      <trkpt lat="44.05957" lon="6.85031">
        <ele>916</ele>
        <time>2020-06-05T07:54:19.000Z</time>
      </trkpt>
      <trkpt lat="44.05957" lon="6.85032">
        <ele>916</ele>
        <time>2020-06-05T07:54:20.000Z</time>
      </trkpt>
      <trkpt lat="44.05956" lon="6.85033">
        <ele>916</ele>
        <time>2020-06-05T07:54:21.000Z</time>
      </trkpt>
      <trkpt lat="44.05956" lon="6.85033">
        <ele>916</ele>
        <time>2020-06-05T07:54:22.000Z</time>
      </trkpt>
      <trkpt lat="44.05955" lon="6.85034">
        <ele>916</ele>
        <time>2020-06-05T07:54:23.000Z</time>
      </trkpt>
      <trkpt lat="44.05955" lon="6.85034">
        <ele>916</ele>
        <time>2020-06-05T07:54:24.000Z</time>
      </trkpt>
      <trkpt lat="44.05954" lon="6.85034">
        <ele>916</ele>
        <time>2020-06-05T07:54:25.000Z</time>
      </trkpt>
      <trkpt lat="44.05954" lon="6.85035">
        <ele>916</ele>
        <time>2020-06-05T07:54:26.000Z</time>
      </trkpt>
      <trkpt lat="44.05953" lon="6.85035">
        <ele>915</ele>
        <time>2020-06-05T07:54:27.000Z</time>
      </trkpt>
      <trkpt lat="44.05953" lon="6.85035">
        <ele>915</ele>
        <time>2020-06-05T07:54:28.000Z</time>
      </trkpt>
      <trkpt lat="44.05952" lon="6.85036">
        <ele>915</ele>
        <time>2020-06-05T07:54:29.000Z</time>
      </trkpt>
      <trkpt lat="44.05951" lon="6.85036">
        <ele>915</ele>
        <time>2020-06-05T07:54:30.000Z</time>
      </trkpt>
      <trkpt lat="44.05951" lon="6.85037">
        <ele>915</ele>
        <time>2020-06-05T07:54:31.000Z</time>
      </trkpt>
      <trkpt lat="44.0595" lon="6.85037">
        <ele>915</ele>
        <time>2020-06-05T07:54:32.000Z</time>
      </trkpt>
      <trkpt lat="44.0595" lon="6.85038">
        <ele>915</ele>
        <time>2020-06-05T07:54:33.000Z</time>
      </trkpt>
      <trkpt lat="44.0595" lon="6.85038">
        <ele>915</ele>
        <time>2020-06-05T07:54:34.000Z</time>
      </trkpt>
      <trkpt lat="44.0595" lon="6.85038">
        <ele>915</ele>
        <time>2020-06-05T07:54:35.000Z</time>
      </trkpt>
      <trkpt lat="44.0595" lon="6.85038">
        <ele>915</ele>
        <time>2020-06-05T07:54:36.000Z</time>
      </trkpt>
      <trkpt lat="44.0595" lon="6.85038">
        <ele>915</ele>
        <time>2020-06-05T07:54:37.000Z</time>
      </trkpt>
      <trkpt lat="44.0595" lon="6.85038">
        <ele>915</ele>
        <time>2020-06-05T07:54:38.000Z</time>
      </trkpt>
      <trkpt lat="44.0595" lon="6.85038">
        <ele>915</ele>
        <time>2020-06-05T07:54:39.000Z</time>
      </trkpt>
      <trkpt lat="44.05949" lon="6.85039">
        <ele>915</ele>
        <time>2020-06-05T07:54:40.000Z</time>
      </trkpt>
      <trkpt lat="44.05949" lon="6.85039">
        <ele>915</ele>
        <time>2020-06-05T07:54:41.000Z</time>
      </trkpt>
      <trkpt lat="44.05949" lon="6.85039">
        <ele>915</ele>
        <time>2020-06-05T07:54:42.000Z</time>
      </trkpt>
      <trkpt lat="44.05949" lon="6.85039">
        <ele>915</ele>
        <time>2020-06-05T07:54:43.000Z</time>
      </trkpt>
      <trkpt lat="44.05949" lon="6.85039">
        <ele>915</ele>
        <time>2020-06-05T07:54:44.000Z</time>
      </trkpt>
      <trkpt lat="44.05949" lon="6.85039">
        <ele>915</ele>
        <time>2020-06-05T07:54:45.000Z</time>
      </trkpt>
      <trkpt lat="44.05949" lon="6.85039">
        <ele>915</ele>
        <time>2020-06-05T07:54:46.000Z</time>
      </trkpt>
      <trkpt lat="44.05949" lon="6.85039">
        <ele>915</ele>
        <time>2020-06-05T07:54:47.000Z</time>
      </trkpt>
      <trkpt lat="44.05948" lon="6.85039">
        <ele>915</ele>
        <time>2020-06-05T07:54:48.000Z</time>
      </trkpt>
      <trkpt lat="44.05948" lon="6.85039">
        <ele>915</ele>
        <time>2020-06-05T07:54:49.000Z</time>
      </trkpt>
      <trkpt lat="44.05948" lon="6.85039">
        <ele>915</ele>
        <time>2020-06-05T07:54:50.000Z</time>
      </trkpt>
      <trkpt lat="44.05948" lon="6.85039">
        <ele>916</ele>
        <time>2020-06-05T07:54:51.000Z</time>
      </trkpt>
      <trkpt lat="44.05948" lon="6.8504">
        <ele>916</ele>
        <time>2020-06-05T07:54:52.000Z</time>
      </trkpt>
      <trkpt lat="44.05948" lon="6.8504">
        <ele>916</ele>
        <time>2020-06-05T07:54:53.000Z</time>
      </trkpt>
      <trkpt lat="44.05948" lon="6.8504">
        <ele>916</ele>
        <time>2020-06-05T07:54:54.000Z</time>
      </trkpt>
      <trkpt lat="44.05948" lon="6.8504">
        <ele>916</ele>
        <time>2020-06-05T07:54:55.000Z</time>
      </trkpt>
      <trkpt lat="44.05948" lon="6.8504">
        <ele>916</ele>
        <time>2020-06-05T07:54:56.000Z</time>
      </trkpt>
      <trkpt lat="44.05948" lon="6.8504">
        <ele>916</ele>
        <time>2020-06-05T07:54:57.000Z</time>
      </trkpt>
      <trkpt lat="44.05948" lon="6.8504">
        <ele>916</ele>
        <time>2020-06-05T07:54:58.000Z</time>
      </trkpt>
      <trkpt lat="44.05948" lon="6.8504">
        <ele>916</ele>
        <time>2020-06-05T07:54:59.000Z</time>
      </trkpt>
      <trkpt lat="44.05948" lon="6.8504">
        <ele>916</ele>
        <time>2020-06-05T07:55:00.000Z</time>
      </trkpt>
      <trkpt lat="44.05948" lon="6.8504">
        <ele>916</ele>
        <time>2020-06-05T07:55:01.000Z</time>
      </trkpt>
      <trkpt lat="44.05948" lon="6.85041">
        <ele>916</ele>
        <time>2020-06-05T07:55:02.000Z</time>
      </trkpt>
      <trkpt lat="44.05948" lon="6.85041">
        <ele>916</ele>
        <time>2020-06-05T07:55:03.000Z</time>
      </trkpt>
      <trkpt lat="44.05948" lon="6.85041">
        <ele>916</ele>
        <time>2020-06-05T07:55:04.000Z</time>
      </trkpt>
      <trkpt lat="44.05948" lon="6.85041">
        <ele>916</ele>
        <time>2020-06-05T07:55:05.000Z</time>
      </trkpt>
      <trkpt lat="44.05948" lon="6.85041">
        <ele>916</ele>
        <time>2020-06-05T07:55:06.000Z</time>
      </trkpt>
      <trkpt lat="44.05948" lon="6.85041">
        <ele>916</ele>
        <time>2020-06-05T07:55:07.000Z</time>
      </trkpt>
      <trkpt lat="44.05948" lon="6.85041">
        <ele>916</ele>
        <time>2020-06-05T07:55:08.000Z</time>
      </trkpt>
      <trkpt lat="44.05948" lon="6.85041">
        <ele>916</ele>
        <time>2020-06-05T07:55:09.000Z</time>
      </trkpt>
      <trkpt lat="44.05948" lon="6.85041">
        <ele>916</ele>
        <time>2020-06-05T07:55:10.000Z</time>
      </trkpt>
      <trkpt lat="44.05948" lon="6.85041">
        <ele>916</ele>
        <time>2020-06-05T07:55:11.000Z</time>
      </trkpt>
      <trkpt lat="44.05948" lon="6.85042">
        <ele>916</ele>
        <time>2020-06-05T07:55:12.000Z</time>
      </trkpt>
      <trkpt lat="44.05948" lon="6.85042">
        <ele>916</ele>
        <time>2020-06-05T07:55:13.000Z</time>
      </trkpt>
      <trkpt lat="44.05948" lon="6.85042">
        <ele>916</ele>
        <time>2020-06-05T07:55:14.000Z</time>
      </trkpt>
      <trkpt lat="44.05948" lon="6.85042">
        <ele>916</ele>
        <time>2020-06-05T07:55:15.000Z</time>
      </trkpt>
      <trkpt lat="44.05949" lon="6.85042">
        <ele>916</ele>
        <time>2020-06-05T07:55:16.000Z</time>
      </trkpt>
      <trkpt lat="44.05949" lon="6.85042">
        <ele>916</ele>
        <time>2020-06-05T07:55:17.000Z</time>
      </trkpt>
      <trkpt lat="44.05949" lon="6.85042">
        <ele>916</ele>
        <time>2020-06-05T07:55:18.000Z</time>
      </trkpt>
      <trkpt lat="44.05949" lon="6.85042">
        <ele>916</ele>
        <time>2020-06-05T07:55:19.000Z</time>
      </trkpt>
      <trkpt lat="44.05949" lon="6.85042">
        <ele>916</ele>
        <time>2020-06-05T07:55:20.000Z</time>
      </trkpt>
      <trkpt lat="44.05949" lon="6.85042">
        <ele>916</ele>
        <time>2020-06-05T07:55:21.000Z</time>
      </trkpt>
      <trkpt lat="44.05949" lon="6.85042">
        <ele>916</ele>
        <time>2020-06-05T07:55:22.000Z</time>
      </trkpt>
      <trkpt lat="44.05949" lon="6.85042">
        <ele>917</ele>
        <time>2020-06-05T07:55:23.000Z</time>
      </trkpt>
      <trkpt lat="44.05949" lon="6.85042">
        <ele>917</ele>
        <time>2020-06-05T07:55:24.000Z</time>
      </trkpt>
      <trkpt lat="44.05949" lon="6.85042">
        <ele>917</ele>
        <time>2020-06-05T07:55:25.000Z</time>
      </trkpt>
      <trkpt lat="44.05949" lon="6.85042">
        <ele>917</ele>
        <time>2020-06-05T07:55:26.000Z</time>
      </trkpt>
      <trkpt lat="44.05949" lon="6.85042">
        <ele>917</ele>
        <time>2020-06-05T07:55:27.000Z</time>
      </trkpt>
      <trkpt lat="44.05949" lon="6.85042">
        <ele>917</ele>
        <time>2020-06-05T07:55:28.000Z</time>
      </trkpt>
      <trkpt lat="44.05949" lon="6.85042">
        <ele>917</ele>
        <time>2020-06-05T07:55:29.000Z</time>
      </trkpt>
      <trkpt lat="44.05949" lon="6.85042">
        <ele>917</ele>
        <time>2020-06-05T07:55:30.000Z</time>
      </trkpt>
      <trkpt lat="44.05949" lon="6.85042">
        <ele>917</ele>
        <time>2020-06-05T07:55:31.000Z</time>
      </trkpt>
      <trkpt lat="44.05949" lon="6.85042">
        <ele>917</ele>
        <time>2020-06-05T07:55:32.000Z</time>
      </trkpt>
      <trkpt lat="44.05949" lon="6.85042">
        <ele>917</ele>
        <time>2020-06-05T07:55:33.000Z</time>
      </trkpt>
      <trkpt lat="44.05949" lon="6.85042">
        <ele>917</ele>
        <time>2020-06-05T07:55:34.000Z</time>
      </trkpt>
      <trkpt lat="44.05949" lon="6.85042">
        <ele>917</ele>
        <time>2020-06-05T07:55:35.000Z</time>
      </trkpt>
      <trkpt lat="44.05948" lon="6.85042">
        <ele>917</ele>
        <time>2020-06-05T07:55:36.000Z</time>
      </trkpt>
      <trkpt lat="44.05948" lon="6.85042">
        <ele>917</ele>
        <time>2020-06-05T07:55:37.000Z</time>
      </trkpt>
      <trkpt lat="44.05948" lon="6.85042">
        <ele>917</ele>
        <time>2020-06-05T07:55:38.000Z</time>
      </trkpt>
      <trkpt lat="44.05948" lon="6.85042">
        <ele>917</ele>
        <time>2020-06-05T07:55:39.000Z</time>
      </trkpt>
      <trkpt lat="44.05948" lon="6.85042">
        <ele>917</ele>
        <time>2020-06-05T07:55:40.000Z</time>
      </trkpt>
      <trkpt lat="44.05947" lon="6.85042">
        <ele>917</ele>
        <time>2020-06-05T07:55:41.000Z</time>
      </trkpt>
      <trkpt lat="44.05947" lon="6.85043">
        <ele>917</ele>
        <time>2020-06-05T07:55:42.000Z</time>
      </trkpt>
      <trkpt lat="44.05947" lon="6.85043">
        <ele>917</ele>
        <time>2020-06-05T07:55:43.000Z</time>
      </trkpt>
      <trkpt lat="44.05947" lon="6.85043">
        <ele>917</ele>
        <time>2020-06-05T07:55:44.000Z</time>
      </trkpt>
      <trkpt lat="44.05947" lon="6.85043">
        <ele>917</ele>
        <time>2020-06-05T07:55:45.000Z</time>
      </trkpt>
      <trkpt lat="44.05947" lon="6.85042">
        <ele>917</ele>
        <time>2020-06-05T07:55:46.000Z</time>
      </trkpt>
      <trkpt lat="44.05947" lon="6.85042">
        <ele>917</ele>
        <time>2020-06-05T07:55:47.000Z</time>
      </trkpt>
      <trkpt lat="44.05947" lon="6.85042">
        <ele>917</ele>
        <time>2020-06-05T07:55:48.000Z</time>
      </trkpt>
      <trkpt lat="44.05947" lon="6.85042">
        <ele>917</ele>
        <time>2020-06-05T07:55:49.000Z</time>
      </trkpt>
      <trkpt lat="44.05947" lon="6.85042">
        <ele>917</ele>
        <time>2020-06-05T07:55:50.000Z</time>
      </trkpt>
      <trkpt lat="44.05947" lon="6.85043">
        <ele>917</ele>
        <time>2020-06-05T07:55:51.000Z</time>
      </trkpt>
      <trkpt lat="44.05946" lon="6.85043">
        <ele>917</ele>
        <time>2020-06-05T07:55:52.000Z</time>
      </trkpt>
      <trkpt lat="44.05946" lon="6.85043">
        <ele>917</ele>
        <time>2020-06-05T07:55:53.000Z</time>
      </trkpt>
      <trkpt lat="44.05946" lon="6.85043">
        <ele>917</ele>
        <time>2020-06-05T07:55:54.000Z</time>
      </trkpt>
      <trkpt lat="44.05946" lon="6.85043">
        <ele>917</ele>
        <time>2020-06-05T07:55:55.000Z</time>
      </trkpt>
      <trkpt lat="44.05946" lon="6.85043">
        <ele>917</ele>
        <time>2020-06-05T07:55:56.000Z</time>
      </trkpt>
      <trkpt lat="44.05946" lon="6.85043">
        <ele>917</ele>
        <time>2020-06-05T07:55:57.000Z</time>
      </trkpt>
      <trkpt lat="44.05946" lon="6.85043">
        <ele>917</ele>
        <time>2020-06-05T07:55:58.000Z</time>
      </trkpt>
      <trkpt lat="44.05946" lon="6.85043">
        <ele>917</ele>
        <time>2020-06-05T07:55:59.000Z</time>
      </trkpt>
      <trkpt lat="44.05945" lon="6.85043">
        <ele>917</ele>
        <time>2020-06-05T07:56:00.000Z</time>
      </trkpt>
      <trkpt lat="44.05945" lon="6.85043">
        <ele>917</ele>
        <time>2020-06-05T07:56:01.000Z</time>
      </trkpt>
      <trkpt lat="44.05945" lon="6.85043">
        <ele>917</ele>
        <time>2020-06-05T07:56:02.000Z</time>
      </trkpt>
      <trkpt lat="44.05945" lon="6.85043">
        <ele>917</ele>
        <time>2020-06-05T07:56:03.000Z</time>
      </trkpt>
      <trkpt lat="44.05945" lon="6.85043">
        <ele>917</ele>
        <time>2020-06-05T07:56:04.000Z</time>
      </trkpt>
      <trkpt lat="44.05945" lon="6.85042">
        <ele>917</ele>
        <time>2020-06-05T07:56:05.000Z</time>
      </trkpt>
      <trkpt lat="44.05945" lon="6.85042">
        <ele>917</ele>
        <time>2020-06-05T07:56:06.000Z</time>
      </trkpt>
      <trkpt lat="44.05945" lon="6.85042">
        <ele>917</ele>
        <time>2020-06-05T07:56:07.000Z</time>
      </trkpt>
      <trkpt lat="44.05945" lon="6.85042">
        <ele>917</ele>
        <time>2020-06-05T07:56:08.000Z</time>
      </trkpt>
      <trkpt lat="44.05945" lon="6.85042">
        <ele>917</ele>
        <time>2020-06-05T07:56:09.000Z</time>
      </trkpt>
      <trkpt lat="44.05945" lon="6.85042">
        <ele>917</ele>
        <time>2020-06-05T07:56:10.000Z</time>
      </trkpt>
      <trkpt lat="44.05945" lon="6.85042">
        <ele>917</ele>
        <time>2020-06-05T07:56:11.000Z</time>
      </trkpt>
      <trkpt lat="44.05945" lon="6.85042">
        <ele>917</ele>
        <time>2020-06-05T07:56:12.000Z</time>
      </trkpt>
      <trkpt lat="44.05945" lon="6.85042">
        <ele>917</ele>
        <time>2020-06-05T07:56:13.000Z</time>
      </trkpt>
      <trkpt lat="44.05945" lon="6.85042">
        <ele>917</ele>
        <time>2020-06-05T07:56:14.000Z</time>
      </trkpt>
      <trkpt lat="44.05945" lon="6.85042">
        <ele>917</ele>
        <time>2020-06-05T07:56:15.000Z</time>
      </trkpt>
      <trkpt lat="44.05945" lon="6.85042">
        <ele>917</ele>
        <time>2020-06-05T07:56:16.000Z</time>
      </trkpt>
      <trkpt lat="44.05945" lon="6.85042">
        <ele>917</ele>
        <time>2020-06-05T07:56:17.000Z</time>
      </trkpt>
      <trkpt lat="44.05945" lon="6.85042">
        <ele>917</ele>
        <time>2020-06-05T07:56:18.000Z</time>
      </trkpt>
      <trkpt lat="44.05945" lon="6.85042">
        <ele>917</ele>
        <time>2020-06-05T07:56:19.000Z</time>
      </trkpt>
      <trkpt lat="44.05945" lon="6.85042">
        <ele>917</ele>
        <time>2020-06-05T07:56:20.000Z</time>
      </trkpt>
      <trkpt lat="44.05945" lon="6.85042">
        <ele>917</ele>
        <time>2020-06-05T07:56:21.000Z</time>
      </trkpt>
      <trkpt lat="44.05945" lon="6.85042">
        <ele>917</ele>
        <time>2020-06-05T07:56:22.000Z</time>
      </trkpt>
      <trkpt lat="44.05945" lon="6.85042">
        <ele>917</ele>
        <time>2020-06-05T07:56:23.000Z</time>
      </trkpt>
      <trkpt lat="44.05945" lon="6.85042">
        <ele>917</ele>
        <time>2020-06-05T07:56:24.000Z</time>
      </trkpt>
      <trkpt lat="44.05945" lon="6.85042">
        <ele>917</ele>
        <time>2020-06-05T07:56:25.000Z</time>
      </trkpt>
      <trkpt lat="44.05945" lon="6.85042">
        <ele>917</ele>
        <time>2020-06-05T07:56:26.000Z</time>
      </trkpt>
      <trkpt lat="44.05945" lon="6.85042">
        <ele>917</ele>
        <time>2020-06-05T07:56:27.000Z</time>
      </trkpt>
      <trkpt lat="44.05945" lon="6.85042">
        <ele>917</ele>
        <time>2020-06-05T07:56:28.000Z</time>
      </trkpt>
      <trkpt lat="44.05945" lon="6.85042">
        <ele>917</ele>
        <time>2020-06-05T07:56:29.000Z</time>
      </trkpt>
      <trkpt lat="44.05945" lon="6.85042">
        <ele>918</ele>
        <time>2020-06-05T07:56:30.000Z</time>
      </trkpt>
      <trkpt lat="44.05945" lon="6.85042">
        <ele>918</ele>
        <time>2020-06-05T07:56:31.000Z</time>
      </trkpt>
      <trkpt lat="44.05945" lon="6.85042">
        <ele>918</ele>
        <time>2020-06-05T07:56:32.000Z</time>
      </trkpt>
      <trkpt lat="44.05945" lon="6.85041">
        <ele>918</ele>
        <time>2020-06-05T07:56:33.000Z</time>
      </trkpt>
      <trkpt lat="44.05945" lon="6.85041">
        <ele>918</ele>
        <time>2020-06-05T07:56:34.000Z</time>
      </trkpt>
      <trkpt lat="44.05945" lon="6.85041">
        <ele>918</ele>
        <time>2020-06-05T07:56:35.000Z</time>
      </trkpt>
      <trkpt lat="44.05945" lon="6.85041">
        <ele>918</ele>
        <time>2020-06-05T07:56:36.000Z</time>
      </trkpt>
      <trkpt lat="44.05945" lon="6.85041">
        <ele>918</ele>
        <time>2020-06-05T07:56:37.000Z</time>
      </trkpt>
      <trkpt lat="44.05945" lon="6.85041">
        <ele>918</ele>
        <time>2020-06-05T07:56:38.000Z</time>
      </trkpt>
      <trkpt lat="44.05945" lon="6.85041">
        <ele>918</ele>
        <time>2020-06-05T07:56:39.000Z</time>
      </trkpt>
      <trkpt lat="44.05945" lon="6.85041">
        <ele>918</ele>
        <time>2020-06-05T07:56:40.000Z</time>
      </trkpt>
      <trkpt lat="44.05945" lon="6.85041">
        <ele>918</ele>
        <time>2020-06-05T07:56:41.000Z</time>
      </trkpt>
      <trkpt lat="44.05945" lon="6.85041">
        <ele>918</ele>
        <time>2020-06-05T07:56:42.000Z</time>
      </trkpt>
      <trkpt lat="44.05945" lon="6.85041">
        <ele>918</ele>
        <time>2020-06-05T07:56:43.000Z</time>
      </trkpt>
      <trkpt lat="44.05945" lon="6.85041">
        <ele>918</ele>
        <time>2020-06-05T07:56:44.000Z</time>
      </trkpt>
      <trkpt lat="44.05944" lon="6.85041">
        <ele>918</ele>
        <time>2020-06-05T07:56:45.000Z</time>
      </trkpt>
      <trkpt lat="44.05944" lon="6.85041">
        <ele>918</ele>
        <time>2020-06-05T07:56:46.000Z</time>
      </trkpt>
      <trkpt lat="44.05944" lon="6.85041">
        <ele>918</ele>
        <time>2020-06-05T07:56:47.000Z</time>
      </trkpt>
      <trkpt lat="44.05944" lon="6.85041">
        <ele>918</ele>
        <time>2020-06-05T07:56:48.000Z</time>
      </trkpt>
      <trkpt lat="44.05944" lon="6.85041">
        <ele>918</ele>
        <time>2020-06-05T07:56:49.000Z</time>
      </trkpt>
      <trkpt lat="44.05944" lon="6.8504">
        <ele>918</ele>
        <time>2020-06-05T07:56:50.000Z</time>
      </trkpt>
      <trkpt lat="44.05944" lon="6.85039">
        <ele>918</ele>
        <time>2020-06-05T07:56:51.000Z</time>
      </trkpt>
      <trkpt lat="44.05943" lon="6.85038">
        <ele>918</ele>
        <time>2020-06-05T07:56:52.000Z</time>
      </trkpt>
      <trkpt lat="44.05943" lon="6.85038">
        <ele>918</ele>
        <time>2020-06-05T07:56:53.000Z</time>
      </trkpt>
      <trkpt lat="44.05943" lon="6.85037">
        <ele>918</ele>
        <time>2020-06-05T07:56:54.000Z</time>
      </trkpt>
      <trkpt lat="44.05943" lon="6.85036">
        <ele>918</ele>
        <time>2020-06-05T07:56:55.000Z</time>
      </trkpt>
      <trkpt lat="44.05943" lon="6.85036">
        <ele>918</ele>
        <time>2020-06-05T07:56:56.000Z</time>
      </trkpt>
      <trkpt lat="44.05944" lon="6.85035">
        <ele>918</ele>
        <time>2020-06-05T07:56:57.000Z</time>
      </trkpt>
      <trkpt lat="44.05944" lon="6.85034">
        <ele>918</ele>
        <time>2020-06-05T07:56:58.000Z</time>
      </trkpt>
      <trkpt lat="44.05944" lon="6.85034">
        <ele>918</ele>
        <time>2020-06-05T07:56:59.000Z</time>
      </trkpt>
      <trkpt lat="44.05945" lon="6.85033">
        <ele>918</ele>
        <time>2020-06-05T07:57:00.000Z</time>
      </trkpt>
      <trkpt lat="44.05945" lon="6.85032">
        <ele>918</ele>
        <time>2020-06-05T07:57:01.000Z</time>
      </trkpt>
      <trkpt lat="44.05945" lon="6.85032">
        <ele>918</ele>
        <time>2020-06-05T07:57:02.000Z</time>
      </trkpt>
      <trkpt lat="44.05945" lon="6.85031">
        <ele>919</ele>
        <time>2020-06-05T07:57:03.000Z</time>
      </trkpt>
      <trkpt lat="44.05945" lon="6.8503">
        <ele>919</ele>
        <time>2020-06-05T07:57:04.000Z</time>
      </trkpt>
      <trkpt lat="44.05945" lon="6.85029">
        <ele>919</ele>
        <time>2020-06-05T07:57:05.000Z</time>
      </trkpt>
      <trkpt lat="44.05945" lon="6.85029">
        <ele>919</ele>
        <time>2020-06-05T07:57:06.000Z</time>
      </trkpt>
      <trkpt lat="44.05945" lon="6.85028">
        <ele>919</ele>
        <time>2020-06-05T07:57:07.000Z</time>
      </trkpt>
      <trkpt lat="44.05945" lon="6.85027">
        <ele>919</ele>
        <time>2020-06-05T07:57:08.000Z</time>
      </trkpt>
      <trkpt lat="44.05945" lon="6.85026">
        <ele>919</ele>
        <time>2020-06-05T07:57:09.000Z</time>
      </trkpt>
      <trkpt lat="44.05945" lon="6.85025">
        <ele>919</ele>
        <time>2020-06-05T07:57:10.000Z</time>
      </trkpt>
      <trkpt lat="44.05945" lon="6.85024">
        <ele>919</ele>
        <time>2020-06-05T07:57:11.000Z</time>
      </trkpt>
      <trkpt lat="44.05944" lon="6.85023">
        <ele>919</ele>
        <time>2020-06-05T07:57:12.000Z</time>
      </trkpt>
      <trkpt lat="44.05944" lon="6.85022">
        <ele>919</ele>
        <time>2020-06-05T07:57:13.000Z</time>
      </trkpt>
      <trkpt lat="44.05944" lon="6.85022">
        <ele>919</ele>
        <time>2020-06-05T07:57:14.000Z</time>
      </trkpt>
      <trkpt lat="44.05943" lon="6.8502">
        <ele>919</ele>
        <time>2020-06-05T07:57:15.000Z</time>
      </trkpt>
      <trkpt lat="44.05943" lon="6.85019">
        <ele>919</ele>
        <time>2020-06-05T07:57:16.000Z</time>
      </trkpt>
      <trkpt lat="44.05943" lon="6.85018">
        <ele>919</ele>
        <time>2020-06-05T07:57:17.000Z</time>
      </trkpt>
      <trkpt lat="44.05943" lon="6.85017">
        <ele>919</ele>
        <time>2020-06-05T07:57:18.000Z</time>
      </trkpt>
      <trkpt lat="44.05943" lon="6.85017">
        <ele>919</ele>
        <time>2020-06-05T07:57:19.000Z</time>
      </trkpt>
      <trkpt lat="44.05943" lon="6.85016">
        <ele>919</ele>
        <time>2020-06-05T07:57:20.000Z</time>
      </trkpt>
      <trkpt lat="44.05942" lon="6.85016">
        <ele>919</ele>
        <time>2020-06-05T07:57:21.000Z</time>
      </trkpt>
      <trkpt lat="44.05942" lon="6.85016">
        <ele>920</ele>
        <time>2020-06-05T07:57:22.000Z</time>
      </trkpt>
      <trkpt lat="44.05942" lon="6.85016">
        <ele>920</ele>
        <time>2020-06-05T07:57:23.000Z</time>
      </trkpt>
      <trkpt lat="44.05942" lon="6.85017">
        <ele>920</ele>
        <time>2020-06-05T07:57:24.000Z</time>
      </trkpt>
      <trkpt lat="44.05941" lon="6.85017">
        <ele>920</ele>
        <time>2020-06-05T07:57:25.000Z</time>
      </trkpt>
      <trkpt lat="44.05941" lon="6.85018">
        <ele>920</ele>
        <time>2020-06-05T07:57:26.000Z</time>
      </trkpt>
      <trkpt lat="44.05941" lon="6.85018">
        <ele>920</ele>
        <time>2020-06-05T07:57:27.000Z</time>
      </trkpt>
      <trkpt lat="44.0594" lon="6.85018">
        <ele>921</ele>
        <time>2020-06-05T07:57:28.000Z</time>
      </trkpt>
      <trkpt lat="44.0594" lon="6.85019">
        <ele>921</ele>
        <time>2020-06-05T07:57:29.000Z</time>
      </trkpt>
      <trkpt lat="44.0594" lon="6.85019">
        <ele>921</ele>
        <time>2020-06-05T07:57:30.000Z</time>
      </trkpt>
      <trkpt lat="44.05939" lon="6.8502">
        <ele>921</ele>
        <time>2020-06-05T07:57:31.000Z</time>
      </trkpt>
      <trkpt lat="44.05939" lon="6.8502">
        <ele>922</ele>
        <time>2020-06-05T07:57:32.000Z</time>
      </trkpt>
      <trkpt lat="44.05938" lon="6.8502">
        <ele>922</ele>
        <time>2020-06-05T07:57:33.000Z</time>
      </trkpt>
      <trkpt lat="44.05938" lon="6.8502">
        <ele>922</ele>
        <time>2020-06-05T07:57:34.000Z</time>
      </trkpt>
      <trkpt lat="44.05938" lon="6.8502">
        <ele>922</ele>
        <time>2020-06-05T07:57:35.000Z</time>
      </trkpt>
      <trkpt lat="44.05937" lon="6.8502">
        <ele>923</ele>
        <time>2020-06-05T07:57:36.000Z</time>
      </trkpt>
      <trkpt lat="44.05937" lon="6.8502">
        <ele>923</ele>
        <time>2020-06-05T07:57:37.000Z</time>
      </trkpt>
      <trkpt lat="44.05936" lon="6.8502">
        <ele>923</ele>
        <time>2020-06-05T07:57:38.000Z</time>
      </trkpt>
      <trkpt lat="44.05936" lon="6.8502">
        <ele>923</ele>
        <time>2020-06-05T07:57:39.000Z</time>
      </trkpt>
      <trkpt lat="44.05935" lon="6.8502">
        <ele>924</ele>
        <time>2020-06-05T07:57:40.000Z</time>
      </trkpt>
      <trkpt lat="44.05935" lon="6.8502">
        <ele>924</ele>
        <time>2020-06-05T07:57:41.000Z</time>
      </trkpt>
      <trkpt lat="44.05935" lon="6.85021">
        <ele>924</ele>
        <time>2020-06-05T07:57:42.000Z</time>
      </trkpt>
      <trkpt lat="44.05934" lon="6.85021">
        <ele>925</ele>
        <time>2020-06-05T07:57:43.000Z</time>
      </trkpt>
      <trkpt lat="44.05933" lon="6.85021">
        <ele>925</ele>
        <time>2020-06-05T07:57:44.000Z</time>
      </trkpt>
      <trkpt lat="44.05933" lon="6.85022">
        <ele>925</ele>
        <time>2020-06-05T07:57:45.000Z</time>
      </trkpt>
      <trkpt lat="44.05932" lon="6.85022">
        <ele>925</ele>
        <time>2020-06-05T07:57:46.000Z</time>
      </trkpt>
      <trkpt lat="44.05931" lon="6.85022">
        <ele>925</ele>
        <time>2020-06-05T07:57:47.000Z</time>
      </trkpt>
      <trkpt lat="44.05931" lon="6.85023">
        <ele>926</ele>
        <time>2020-06-05T07:57:48.000Z</time>
      </trkpt>
      <trkpt lat="44.0593" lon="6.85023">
        <ele>926</ele>
        <time>2020-06-05T07:57:49.000Z</time>
      </trkpt>
      <trkpt lat="44.0593" lon="6.85024">
        <ele>926</ele>
        <time>2020-06-05T07:57:50.000Z</time>
      </trkpt>
      <trkpt lat="44.05929" lon="6.85024">
        <ele>926</ele>
        <time>2020-06-05T07:57:51.000Z</time>
      </trkpt>
      <trkpt lat="44.05929" lon="6.85025">
        <ele>927</ele>
        <time>2020-06-05T07:57:52.000Z</time>
      </trkpt>
      <trkpt lat="44.05928" lon="6.85025">
        <ele>927</ele>
        <time>2020-06-05T07:57:53.000Z</time>
      </trkpt>
      <trkpt lat="44.05928" lon="6.85026">
        <ele>927</ele>
        <time>2020-06-05T07:57:54.000Z</time>
      </trkpt>
      <trkpt lat="44.05927" lon="6.85026">
        <ele>927</ele>
        <time>2020-06-05T07:57:55.000Z</time>
      </trkpt>
      <trkpt lat="44.05927" lon="6.85027">
        <ele>927</ele>
        <time>2020-06-05T07:57:56.000Z</time>
      </trkpt>
      <trkpt lat="44.05926" lon="6.85027">
        <ele>928</ele>
        <time>2020-06-05T07:57:57.000Z</time>
      </trkpt>
      <trkpt lat="44.05925" lon="6.85027">
        <ele>928</ele>
        <time>2020-06-05T07:57:58.000Z</time>
      </trkpt>
      <trkpt lat="44.05925" lon="6.85027">
        <ele>928</ele>
        <time>2020-06-05T07:57:59.000Z</time>
      </trkpt>
      <trkpt lat="44.05924" lon="6.85028">
        <ele>928</ele>
        <time>2020-06-05T07:58:00.000Z</time>
      </trkpt>
      <trkpt lat="44.05924" lon="6.85027">
        <ele>928</ele>
        <time>2020-06-05T07:58:01.000Z</time>
      </trkpt>
      <trkpt lat="44.05923" lon="6.85027">
        <ele>929</ele>
        <time>2020-06-05T07:58:02.000Z</time>
      </trkpt>
      <trkpt lat="44.05922" lon="6.85026">
        <ele>929</ele>
        <time>2020-06-05T07:58:03.000Z</time>
      </trkpt>
      <trkpt lat="44.05922" lon="6.85025">
        <ele>929</ele>
        <time>2020-06-05T07:58:04.000Z</time>
      </trkpt>
      <trkpt lat="44.05922" lon="6.85024">
        <ele>929</ele>
        <time>2020-06-05T07:58:05.000Z</time>
      </trkpt>
      <trkpt lat="44.05922" lon="6.85023">
        <ele>929</ele>
        <time>2020-06-05T07:58:06.000Z</time>
      </trkpt>
      <trkpt lat="44.05922" lon="6.85022">
        <ele>929</ele>
        <time>2020-06-05T07:58:07.000Z</time>
      </trkpt>
      <trkpt lat="44.05922" lon="6.85022">
        <ele>930</ele>
        <time>2020-06-05T07:58:08.000Z</time>
      </trkpt>
      <trkpt lat="44.05922" lon="6.85021">
        <ele>930</ele>
        <time>2020-06-05T07:58:09.000Z</time>
      </trkpt>
      <trkpt lat="44.05922" lon="6.8502">
        <ele>930</ele>
        <time>2020-06-05T07:58:10.000Z</time>
      </trkpt>
      <trkpt lat="44.05922" lon="6.85019">
        <ele>930</ele>
        <time>2020-06-05T07:58:11.000Z</time>
      </trkpt>
      <trkpt lat="44.05922" lon="6.85019">
        <ele>930</ele>
        <time>2020-06-05T07:58:12.000Z</time>
      </trkpt>
      <trkpt lat="44.05922" lon="6.85018">
        <ele>930</ele>
        <time>2020-06-05T07:58:13.000Z</time>
      </trkpt>
      <trkpt lat="44.05922" lon="6.85018">
        <ele>930</ele>
        <time>2020-06-05T07:58:14.000Z</time>
      </trkpt>
      <trkpt lat="44.05921" lon="6.85018">
        <ele>930</ele>
        <time>2020-06-05T07:58:15.000Z</time>
      </trkpt>
      <trkpt lat="44.05921" lon="6.85018">
        <ele>930</ele>
        <time>2020-06-05T07:58:16.000Z</time>
      </trkpt>
      <trkpt lat="44.0592" lon="6.85019">
        <ele>930</ele>
        <time>2020-06-05T07:58:17.000Z</time>
      </trkpt>
      <trkpt lat="44.0592" lon="6.85019">
        <ele>930</ele>
        <time>2020-06-05T07:58:18.000Z</time>
      </trkpt>
      <trkpt lat="44.0592" lon="6.85019">
        <ele>931</ele>
        <time>2020-06-05T07:58:19.000Z</time>
      </trkpt>
      <trkpt lat="44.0592" lon="6.85019">
        <ele>931</ele>
        <time>2020-06-05T07:58:20.000Z</time>
      </trkpt>
      <trkpt lat="44.0592" lon="6.85019">
        <ele>931</ele>
        <time>2020-06-05T07:58:21.000Z</time>
      </trkpt>
      <trkpt lat="44.0592" lon="6.85019">
        <ele>931</ele>
        <time>2020-06-05T07:58:22.000Z</time>
      </trkpt>
      <trkpt lat="44.0592" lon="6.85019">
        <ele>931</ele>
        <time>2020-06-05T07:58:23.000Z</time>
      </trkpt>
      <trkpt lat="44.0592" lon="6.85019">
        <ele>931</ele>
        <time>2020-06-05T07:58:24.000Z</time>
      </trkpt>
      <trkpt lat="44.0592" lon="6.85019">
        <ele>931</ele>
        <time>2020-06-05T07:58:25.000Z</time>
      </trkpt>
      <trkpt lat="44.0592" lon="6.85019">
        <ele>931</ele>
        <time>2020-06-05T07:58:26.000Z</time>
      </trkpt>
      <trkpt lat="44.0592" lon="6.85019">
        <ele>931</ele>
        <time>2020-06-05T07:58:27.000Z</time>
      </trkpt>
      <trkpt lat="44.0592" lon="6.85019">
        <ele>931</ele>
        <time>2020-06-05T07:58:28.000Z</time>
      </trkpt>
      <trkpt lat="44.05919" lon="6.85019">
        <ele>931</ele>
        <time>2020-06-05T07:58:29.000Z</time>
      </trkpt>
      <trkpt lat="44.05918" lon="6.85019">
        <ele>931</ele>
        <time>2020-06-05T07:58:30.000Z</time>
      </trkpt>
      <trkpt lat="44.05917" lon="6.85019">
        <ele>931</ele>
        <time>2020-06-05T07:58:31.000Z</time>
      </trkpt>
      <trkpt lat="44.05917" lon="6.85018">
        <ele>931</ele>
        <time>2020-06-05T07:58:32.000Z</time>
      </trkpt>
      <trkpt lat="44.05916" lon="6.85018">
        <ele>931</ele>
        <time>2020-06-05T07:58:33.000Z</time>
      </trkpt>
      <trkpt lat="44.05915" lon="6.85018">
        <ele>931</ele>
        <time>2020-06-05T07:58:34.000Z</time>
      </trkpt>
      <trkpt lat="44.05915" lon="6.85019">
        <ele>931</ele>
        <time>2020-06-05T07:58:35.000Z</time>
      </trkpt>
      <trkpt lat="44.05914" lon="6.85019">
        <ele>931</ele>
        <time>2020-06-05T07:58:36.000Z</time>
      </trkpt>
      <trkpt lat="44.05914" lon="6.85019">
        <ele>931</ele>
        <time>2020-06-05T07:58:37.000Z</time>
      </trkpt>
      <trkpt lat="44.05914" lon="6.85019">
        <ele>931</ele>
        <time>2020-06-05T07:58:38.000Z</time>
      </trkpt>
      <trkpt lat="44.05913" lon="6.85019">
        <ele>932</ele>
        <time>2020-06-05T07:58:39.000Z</time>
      </trkpt>
      <trkpt lat="44.05913" lon="6.85019">
        <ele>932</ele>
        <time>2020-06-05T07:58:40.000Z</time>
      </trkpt>
      <trkpt lat="44.05912" lon="6.85019">
        <ele>932</ele>
        <time>2020-06-05T07:58:41.000Z</time>
      </trkpt>
      <trkpt lat="44.05911" lon="6.85019">
        <ele>932</ele>
        <time>2020-06-05T07:58:42.000Z</time>
      </trkpt>
      <trkpt lat="44.0591" lon="6.85019">
        <ele>932</ele>
        <time>2020-06-05T07:58:43.000Z</time>
      </trkpt>
      <trkpt lat="44.0591" lon="6.85018">
        <ele>932</ele>
        <time>2020-06-05T07:58:44.000Z</time>
      </trkpt>
      <trkpt lat="44.05909" lon="6.85018">
        <ele>932</ele>
        <time>2020-06-05T07:58:45.000Z</time>
      </trkpt>
      <trkpt lat="44.05908" lon="6.85018">
        <ele>932</ele>
        <time>2020-06-05T07:58:46.000Z</time>
      </trkpt>
      <trkpt lat="44.05908" lon="6.85018">
        <ele>933</ele>
        <time>2020-06-05T07:58:47.000Z</time>
      </trkpt>
      <trkpt lat="44.05907" lon="6.85018">
        <ele>933</ele>
        <time>2020-06-05T07:58:48.000Z</time>
      </trkpt>
      <trkpt lat="44.05907" lon="6.85018">
        <ele>933</ele>
        <time>2020-06-05T07:58:49.000Z</time>
      </trkpt>
      <trkpt lat="44.05907" lon="6.85017">
        <ele>933</ele>
        <time>2020-06-05T07:58:50.000Z</time>
      </trkpt>
      <trkpt lat="44.05907" lon="6.85017">
        <ele>933</ele>
        <time>2020-06-05T07:58:51.000Z</time>
      </trkpt>
      <trkpt lat="44.05907" lon="6.85017">
        <ele>933</ele>
        <time>2020-06-05T07:58:52.000Z</time>
      </trkpt>
      <trkpt lat="44.05907" lon="6.85018">
        <ele>934</ele>
        <time>2020-06-05T07:58:53.000Z</time>
      </trkpt>
      <trkpt lat="44.05907" lon="6.85018">
        <ele>934</ele>
        <time>2020-06-05T07:58:54.000Z</time>
      </trkpt>
      <trkpt lat="44.05907" lon="6.85018">
        <ele>934</ele>
        <time>2020-06-05T07:58:55.000Z</time>
      </trkpt>
      <trkpt lat="44.05906" lon="6.85018">
        <ele>934</ele>
        <time>2020-06-05T07:58:56.000Z</time>
      </trkpt>
      <trkpt lat="44.05906" lon="6.85018">
        <ele>934</ele>
        <time>2020-06-05T07:58:57.000Z</time>
      </trkpt>
      <trkpt lat="44.05906" lon="6.85018">
        <ele>934</ele>
        <time>2020-06-05T07:58:58.000Z</time>
      </trkpt>
      <trkpt lat="44.05906" lon="6.85018">
        <ele>934</ele>
        <time>2020-06-05T07:58:59.000Z</time>
      </trkpt>
      <trkpt lat="44.05906" lon="6.85018">
        <ele>934</ele>
        <time>2020-06-05T07:59:00.000Z</time>
      </trkpt>
      <trkpt lat="44.05906" lon="6.85017">
        <ele>934</ele>
        <time>2020-06-05T07:59:01.000Z</time>
      </trkpt>
      <trkpt lat="44.05906" lon="6.85017">
        <ele>934</ele>
        <time>2020-06-05T07:59:02.000Z</time>
      </trkpt>
      <trkpt lat="44.05906" lon="6.85017">
        <ele>934</ele>
        <time>2020-06-05T07:59:03.000Z</time>
      </trkpt>
      <trkpt lat="44.05906" lon="6.85017">
        <ele>934</ele>
        <time>2020-06-05T07:59:04.000Z</time>
      </trkpt>
      <trkpt lat="44.05906" lon="6.85017">
        <ele>934</ele>
        <time>2020-06-05T07:59:05.000Z</time>
      </trkpt>
      <trkpt lat="44.05906" lon="6.85017">
        <ele>934</ele>
        <time>2020-06-05T07:59:06.000Z</time>
      </trkpt>
      <trkpt lat="44.05906" lon="6.85017">
        <ele>934</ele>
        <time>2020-06-05T07:59:07.000Z</time>
      </trkpt>
      <trkpt lat="44.05906" lon="6.85017">
        <ele>934</ele>
        <time>2020-06-05T07:59:08.000Z</time>
      </trkpt>
      <trkpt lat="44.05906" lon="6.85017">
        <ele>934</ele>
        <time>2020-06-05T07:59:09.000Z</time>
      </trkpt>
      <trkpt lat="44.05906" lon="6.85017">
        <ele>934</ele>
        <time>2020-06-05T07:59:10.000Z</time>
      </trkpt>
      <trkpt lat="44.05906" lon="6.85017">
        <ele>934</ele>
        <time>2020-06-05T07:59:11.000Z</time>
      </trkpt>
      <trkpt lat="44.05906" lon="6.85017">
        <ele>934</ele>
        <time>2020-06-05T07:59:12.000Z</time>
      </trkpt>
      <trkpt lat="44.05906" lon="6.85017">
        <ele>934</ele>
        <time>2020-06-05T07:59:13.000Z</time>
      </trkpt>
      <trkpt lat="44.05906" lon="6.85017">
        <ele>935</ele>
        <time>2020-06-05T07:59:14.000Z</time>
      </trkpt>
      <trkpt lat="44.05906" lon="6.85017">
        <ele>935</ele>
        <time>2020-06-05T07:59:15.000Z</time>
      </trkpt>
      <trkpt lat="44.05906" lon="6.85017">
        <ele>935</ele>
        <time>2020-06-05T07:59:16.000Z</time>
      </trkpt>
      <trkpt lat="44.05905" lon="6.85017">
        <ele>935</ele>
        <time>2020-06-05T07:59:17.000Z</time>
      </trkpt>
      <trkpt lat="44.05905" lon="6.85016">
        <ele>935</ele>
        <time>2020-06-05T07:59:18.000Z</time>
      </trkpt>
      <trkpt lat="44.05904" lon="6.85016">
        <ele>935</ele>
        <time>2020-06-05T07:59:19.000Z</time>
      </trkpt>
      <trkpt lat="44.05903" lon="6.85016">
        <ele>935</ele>
        <time>2020-06-05T07:59:20.000Z</time>
      </trkpt>
      <trkpt lat="44.05902" lon="6.85015">
        <ele>935</ele>
        <time>2020-06-05T07:59:21.000Z</time>
      </trkpt>
      <trkpt lat="44.05902" lon="6.85015">
        <ele>935</ele>
        <time>2020-06-05T07:59:22.000Z</time>
      </trkpt>
      <trkpt lat="44.05901" lon="6.85014">
        <ele>935</ele>
        <time>2020-06-05T07:59:23.000Z</time>
      </trkpt>
      <trkpt lat="44.059" lon="6.85014">
        <ele>935</ele>
        <time>2020-06-05T07:59:24.000Z</time>
      </trkpt>
      <trkpt lat="44.059" lon="6.85014">
        <ele>935</ele>
        <time>2020-06-05T07:59:25.000Z</time>
      </trkpt>
      <trkpt lat="44.05899" lon="6.85014">
        <ele>935</ele>
        <time>2020-06-05T07:59:26.000Z</time>
      </trkpt>
      <trkpt lat="44.05898" lon="6.85014">
        <ele>935</ele>
        <time>2020-06-05T07:59:27.000Z</time>
      </trkpt>
      <trkpt lat="44.05897" lon="6.85014">
        <ele>935</ele>
        <time>2020-06-05T07:59:28.000Z</time>
      </trkpt>
      <trkpt lat="44.05897" lon="6.85013">
        <ele>935</ele>
        <time>2020-06-05T07:59:29.000Z</time>
      </trkpt>
      <trkpt lat="44.05896" lon="6.85013">
        <ele>935</ele>
        <time>2020-06-05T07:59:30.000Z</time>
      </trkpt>
      <trkpt lat="44.05895" lon="6.85012">
        <ele>935</ele>
        <time>2020-06-05T07:59:31.000Z</time>
      </trkpt>
      <trkpt lat="44.05894" lon="6.85012">
        <ele>935</ele>
        <time>2020-06-05T07:59:32.000Z</time>
      </trkpt>
      <trkpt lat="44.05894" lon="6.85011">
        <ele>935</ele>
        <time>2020-06-05T07:59:33.000Z</time>
      </trkpt>
      <trkpt lat="44.05893" lon="6.85011">
        <ele>935</ele>
        <time>2020-06-05T07:59:34.000Z</time>
      </trkpt>
      <trkpt lat="44.05892" lon="6.8501">
        <ele>935</ele>
        <time>2020-06-05T07:59:35.000Z</time>
      </trkpt>
      <trkpt lat="44.05891" lon="6.8501">
        <ele>935</ele>
        <time>2020-06-05T07:59:36.000Z</time>
      </trkpt>
      <trkpt lat="44.05891" lon="6.8501">
        <ele>935</ele>
        <time>2020-06-05T07:59:37.000Z</time>
      </trkpt>
      <trkpt lat="44.0589" lon="6.8501">
        <ele>935</ele>
        <time>2020-06-05T07:59:38.000Z</time>
      </trkpt>
      <trkpt lat="44.05889" lon="6.85009">
        <ele>935</ele>
        <time>2020-06-05T07:59:39.000Z</time>
      </trkpt>
      <trkpt lat="44.05889" lon="6.85009">
        <ele>936</ele>
        <time>2020-06-05T07:59:40.000Z</time>
      </trkpt>
      <trkpt lat="44.05888" lon="6.85009">
        <ele>936</ele>
        <time>2020-06-05T07:59:41.000Z</time>
      </trkpt>
      <trkpt lat="44.05887" lon="6.85009">
        <ele>936</ele>
        <time>2020-06-05T07:59:42.000Z</time>
      </trkpt>
      <trkpt lat="44.05886" lon="6.85009">
        <ele>936</ele>
        <time>2020-06-05T07:59:43.000Z</time>
      </trkpt>
      <trkpt lat="44.05886" lon="6.85009">
        <ele>936</ele>
        <time>2020-06-05T07:59:44.000Z</time>
      </trkpt>
      <trkpt lat="44.05885" lon="6.85009">
        <ele>936</ele>
        <time>2020-06-05T07:59:45.000Z</time>
      </trkpt>
      <trkpt lat="44.05885" lon="6.8501">
        <ele>936</ele>
        <time>2020-06-05T07:59:46.000Z</time>
      </trkpt>
      <trkpt lat="44.05884" lon="6.8501">
        <ele>936</ele>
        <time>2020-06-05T07:59:47.000Z</time>
      </trkpt>
      <trkpt lat="44.05883" lon="6.8501">
        <ele>936</ele>
        <time>2020-06-05T07:59:48.000Z</time>
      </trkpt>
      <trkpt lat="44.05883" lon="6.8501">
        <ele>936</ele>
        <time>2020-06-05T07:59:49.000Z</time>
      </trkpt>
      <trkpt lat="44.05882" lon="6.8501">
        <ele>936</ele>
        <time>2020-06-05T07:59:50.000Z</time>
      </trkpt>
      <trkpt lat="44.05881" lon="6.8501">
        <ele>936</ele>
        <time>2020-06-05T07:59:51.000Z</time>
      </trkpt>
      <trkpt lat="44.05881" lon="6.8501">
        <ele>937</ele>
        <time>2020-06-05T07:59:52.000Z</time>
      </trkpt>
      <trkpt lat="44.0588" lon="6.85011">
        <ele>937</ele>
        <time>2020-06-05T07:59:53.000Z</time>
      </trkpt>
      <trkpt lat="44.0588" lon="6.85011">
        <ele>937</ele>
        <time>2020-06-05T07:59:54.000Z</time>
      </trkpt>
      <trkpt lat="44.05879" lon="6.85012">
        <ele>937</ele>
        <time>2020-06-05T07:59:55.000Z</time>
      </trkpt>
      <trkpt lat="44.05878" lon="6.85012">
        <ele>937</ele>
        <time>2020-06-05T07:59:56.000Z</time>
      </trkpt>
      <trkpt lat="44.05878" lon="6.85013">
        <ele>937</ele>
        <time>2020-06-05T07:59:57.000Z</time>
      </trkpt>
      <trkpt lat="44.05877" lon="6.85013">
        <ele>937</ele>
        <time>2020-06-05T07:59:58.000Z</time>
      </trkpt>
      <trkpt lat="44.05877" lon="6.85014">
        <ele>937</ele>
        <time>2020-06-05T07:59:59.000Z</time>
      </trkpt>
      <trkpt lat="44.05876" lon="6.85014">
        <ele>938</ele>
        <time>2020-06-05T08:00:00.000Z</time>
      </trkpt>
      <trkpt lat="44.05876" lon="6.85014">
        <ele>938</ele>
        <time>2020-06-05T08:00:01.000Z</time>
      </trkpt>
      <trkpt lat="44.05876" lon="6.85014">
        <ele>938</ele>
        <time>2020-06-05T08:00:02.000Z</time>
      </trkpt>
      <trkpt lat="44.05876" lon="6.85014">
        <ele>938</ele>
        <time>2020-06-05T08:00:03.000Z</time>
      </trkpt>
      <trkpt lat="44.05876" lon="6.85014">
        <ele>938</ele>
        <time>2020-06-05T08:00:04.000Z</time>
      </trkpt>
      <trkpt lat="44.05876" lon="6.85014">
        <ele>938</ele>
        <time>2020-06-05T08:00:05.000Z</time>
      </trkpt>
      <trkpt lat="44.05876" lon="6.85014">
        <ele>938</ele>
        <time>2020-06-05T08:00:06.000Z</time>
      </trkpt>
      <trkpt lat="44.05876" lon="6.85014">
        <ele>938</ele>
        <time>2020-06-05T08:00:07.000Z</time>
      </trkpt>
      <trkpt lat="44.05876" lon="6.85014">
        <ele>938</ele>
        <time>2020-06-05T08:00:08.000Z</time>
      </trkpt>
      <trkpt lat="44.05876" lon="6.85014">
        <ele>938</ele>
        <time>2020-06-05T08:00:09.000Z</time>
      </trkpt>
      <trkpt lat="44.05876" lon="6.85014">
        <ele>938</ele>
        <time>2020-06-05T08:00:10.000Z</time>
      </trkpt>
      <trkpt lat="44.05876" lon="6.85014">
        <ele>938</ele>
        <time>2020-06-05T08:00:11.000Z</time>
      </trkpt>
      <trkpt lat="44.05876" lon="6.85014">
        <ele>939</ele>
        <time>2020-06-05T08:00:12.000Z</time>
      </trkpt>
      <trkpt lat="44.05875" lon="6.85014">
        <ele>939</ele>
        <time>2020-06-05T08:00:13.000Z</time>
      </trkpt>
      <trkpt lat="44.05875" lon="6.85014">
        <ele>939</ele>
        <time>2020-06-05T08:00:14.000Z</time>
      </trkpt>
      <trkpt lat="44.05875" lon="6.85014">
        <ele>939</ele>
        <time>2020-06-05T08:00:15.000Z</time>
      </trkpt>
      <trkpt lat="44.05875" lon="6.85014">
        <ele>939</ele>
        <time>2020-06-05T08:00:16.000Z</time>
      </trkpt>
      <trkpt lat="44.05875" lon="6.85014">
        <ele>939</ele>
        <time>2020-06-05T08:00:17.000Z</time>
      </trkpt>
      <trkpt lat="44.05876" lon="6.85014">
        <ele>939</ele>
        <time>2020-06-05T08:00:18.000Z</time>
      </trkpt>
      <trkpt lat="44.05876" lon="6.85015">
        <ele>939</ele>
        <time>2020-06-05T08:00:19.000Z</time>
      </trkpt>
      <trkpt lat="44.05876" lon="6.85015">
        <ele>939</ele>
        <time>2020-06-05T08:00:20.000Z</time>
      </trkpt>
      <trkpt lat="44.05876" lon="6.85015">
        <ele>939</ele>
        <time>2020-06-05T08:00:21.000Z</time>
      </trkpt>
      <trkpt lat="44.05876" lon="6.85015">
        <ele>939</ele>
        <time>2020-06-05T08:00:22.000Z</time>
      </trkpt>
      <trkpt lat="44.05876" lon="6.85015">
        <ele>939</ele>
        <time>2020-06-05T08:00:23.000Z</time>
      </trkpt>
      <trkpt lat="44.05876" lon="6.85015">
        <ele>939</ele>
        <time>2020-06-05T08:00:24.000Z</time>
      </trkpt>
      <trkpt lat="44.05876" lon="6.85015">
        <ele>939</ele>
        <time>2020-06-05T08:00:25.000Z</time>
      </trkpt>
      <trkpt lat="44.05876" lon="6.85015">
        <ele>939</ele>
        <time>2020-06-05T08:00:26.000Z</time>
      </trkpt>
      <trkpt lat="44.05876" lon="6.85015">
        <ele>939</ele>
        <time>2020-06-05T08:00:27.000Z</time>
      </trkpt>
      <trkpt lat="44.05876" lon="6.85015">
        <ele>940</ele>
        <time>2020-06-05T08:00:28.000Z</time>
      </trkpt>
      <trkpt lat="44.05876" lon="6.85015">
        <ele>940</ele>
        <time>2020-06-05T08:00:29.000Z</time>
      </trkpt>
      <trkpt lat="44.05876" lon="6.85015">
        <ele>940</ele>
        <time>2020-06-05T08:00:30.000Z</time>
      </trkpt>
      <trkpt lat="44.05876" lon="6.85015">
        <ele>940</ele>
        <time>2020-06-05T08:00:31.000Z</time>
      </trkpt>
      <trkpt lat="44.05876" lon="6.85015">
        <ele>940</ele>
        <time>2020-06-05T08:00:32.000Z</time>
      </trkpt>
      <trkpt lat="44.05876" lon="6.85015">
        <ele>940</ele>
        <time>2020-06-05T08:00:33.000Z</time>
      </trkpt>
      <trkpt lat="44.05876" lon="6.85015">
        <ele>940</ele>
        <time>2020-06-05T08:00:34.000Z</time>
      </trkpt>
      <trkpt lat="44.05876" lon="6.85015">
        <ele>940</ele>
        <time>2020-06-05T08:00:35.000Z</time>
      </trkpt>
      <trkpt lat="44.05876" lon="6.85015">
        <ele>940</ele>
        <time>2020-06-05T08:00:36.000Z</time>
      </trkpt>
      <trkpt lat="44.05876" lon="6.85015">
        <ele>940</ele>
        <time>2020-06-05T08:00:37.000Z</time>
      </trkpt>
      <trkpt lat="44.05876" lon="6.85015">
        <ele>940</ele>
        <time>2020-06-05T08:00:38.000Z</time>
      </trkpt>
      <trkpt lat="44.05876" lon="6.85015">
        <ele>940</ele>
        <time>2020-06-05T08:00:39.000Z</time>
      </trkpt>
      <trkpt lat="44.05876" lon="6.85015">
        <ele>940</ele>
        <time>2020-06-05T08:00:40.000Z</time>
      </trkpt>
      <trkpt lat="44.05876" lon="6.85015">
        <ele>940</ele>
        <time>2020-06-05T08:00:41.000Z</time>
      </trkpt>
      <trkpt lat="44.05876" lon="6.85015">
        <ele>940</ele>
        <time>2020-06-05T08:00:42.000Z</time>
      </trkpt>
      <trkpt lat="44.05876" lon="6.85015">
        <ele>940</ele>
        <time>2020-06-05T08:00:43.000Z</time>
      </trkpt>
      <trkpt lat="44.05876" lon="6.85015">
        <ele>940</ele>
        <time>2020-06-05T08:00:44.000Z</time>
      </trkpt>
      <trkpt lat="44.05876" lon="6.85015">
        <ele>940</ele>
        <time>2020-06-05T08:00:45.000Z</time>
      </trkpt>
      <trkpt lat="44.05876" lon="6.85015">
        <ele>940</ele>
        <time>2020-06-05T08:00:46.000Z</time>
      </trkpt>
      <trkpt lat="44.05876" lon="6.85015">
        <ele>940</ele>
        <time>2020-06-05T08:00:47.000Z</time>
      </trkpt>
      <trkpt lat="44.05876" lon="6.85015">
        <ele>940</ele>
        <time>2020-06-05T08:00:48.000Z</time>
      </trkpt>
      <trkpt lat="44.05876" lon="6.85015">
        <ele>940</ele>
        <time>2020-06-05T08:00:49.000Z</time>
      </trkpt>
      <trkpt lat="44.05876" lon="6.85015">
        <ele>940</ele>
        <time>2020-06-05T08:00:50.000Z</time>
      </trkpt>
      <trkpt lat="44.05876" lon="6.85016">
        <ele>940</ele>
        <time>2020-06-05T08:00:51.000Z</time>
      </trkpt>
      <trkpt lat="44.05876" lon="6.85016">
        <ele>940</ele>
        <time>2020-06-05T08:00:52.000Z</time>
      </trkpt>
      <trkpt lat="44.05876" lon="6.85016">
        <ele>940</ele>
        <time>2020-06-05T08:00:53.000Z</time>
      </trkpt>
      <trkpt lat="44.05876" lon="6.85016">
        <ele>940</ele>
        <time>2020-06-05T08:00:54.000Z</time>
      </trkpt>
      <trkpt lat="44.05876" lon="6.85016">
        <ele>940</ele>
        <time>2020-06-05T08:00:55.000Z</time>
      </trkpt>
      <trkpt lat="44.05876" lon="6.85016">
        <ele>940</ele>
        <time>2020-06-05T08:00:56.000Z</time>
      </trkpt>
      <trkpt lat="44.05876" lon="6.85016">
        <ele>940</ele>
        <time>2020-06-05T08:00:57.000Z</time>
      </trkpt>
      <trkpt lat="44.05876" lon="6.85016">
        <ele>940</ele>
        <time>2020-06-05T08:00:58.000Z</time>
      </trkpt>
      <trkpt lat="44.05876" lon="6.85016">
        <ele>940</ele>
        <time>2020-06-05T08:00:59.000Z</time>
      </trkpt>
      <trkpt lat="44.05876" lon="6.85016">
        <ele>940</ele>
        <time>2020-06-05T08:01:00.000Z</time>
      </trkpt>
      <trkpt lat="44.05876" lon="6.85016">
        <ele>940</ele>
        <time>2020-06-05T08:01:01.000Z</time>
      </trkpt>
      <trkpt lat="44.05876" lon="6.85016">
        <ele>940</ele>
        <time>2020-06-05T08:01:02.000Z</time>
      </trkpt>
      <trkpt lat="44.05876" lon="6.85016">
        <ele>940</ele>
        <time>2020-06-05T08:01:03.000Z</time>
      </trkpt>
      <trkpt lat="44.05876" lon="6.85016">
        <ele>940</ele>
        <time>2020-06-05T08:01:04.000Z</time>
      </trkpt>
      <trkpt lat="44.05876" lon="6.85016">
        <ele>940</ele>
        <time>2020-06-05T08:01:05.000Z</time>
      </trkpt>
      <trkpt lat="44.05876" lon="6.85016">
        <ele>940</ele>
        <time>2020-06-05T08:01:06.000Z</time>
      </trkpt>
      <trkpt lat="44.05875" lon="6.85016">
        <ele>940</ele>
        <time>2020-06-05T08:01:07.000Z</time>
      </trkpt>
      <trkpt lat="44.05875" lon="6.85016">
        <ele>940</ele>
        <time>2020-06-05T08:01:08.000Z</time>
      </trkpt>
      <trkpt lat="44.05875" lon="6.85016">
        <ele>940</ele>
        <time>2020-06-05T08:01:09.000Z</time>
      </trkpt>
      <trkpt lat="44.05875" lon="6.85016">
        <ele>940</ele>
        <time>2020-06-05T08:01:10.000Z</time>
      </trkpt>
      <trkpt lat="44.05875" lon="6.85016">
        <ele>940</ele>
        <time>2020-06-05T08:01:11.000Z</time>
      </trkpt>
      <trkpt lat="44.05875" lon="6.85016">
        <ele>940</ele>
        <time>2020-06-05T08:01:12.000Z</time>
      </trkpt>
      <trkpt lat="44.05875" lon="6.85016">
        <ele>940</ele>
        <time>2020-06-05T08:01:13.000Z</time>
      </trkpt>
      <trkpt lat="44.05875" lon="6.85017">
        <ele>940</ele>
        <time>2020-06-05T08:01:14.000Z</time>
      </trkpt>
      <trkpt lat="44.05875" lon="6.85017">
        <ele>940</ele>
        <time>2020-06-05T08:01:15.000Z</time>
      </trkpt>
      <trkpt lat="44.05875" lon="6.85017">
        <ele>940</ele>
        <time>2020-06-05T08:01:16.000Z</time>
      </trkpt>
      <trkpt lat="44.05875" lon="6.85017">
        <ele>940</ele>
        <time>2020-06-05T08:01:17.000Z</time>
      </trkpt>
      <trkpt lat="44.05875" lon="6.85017">
        <ele>940</ele>
        <time>2020-06-05T08:01:18.000Z</time>
      </trkpt>
      <trkpt lat="44.05875" lon="6.85016">
        <ele>940</ele>
        <time>2020-06-05T08:01:19.000Z</time>
      </trkpt>
      <trkpt lat="44.05875" lon="6.85017">
        <ele>940</ele>
        <time>2020-06-05T08:01:20.000Z</time>
      </trkpt>
      <trkpt lat="44.05875" lon="6.85017">
        <ele>940</ele>
        <time>2020-06-05T08:01:21.000Z</time>
      </trkpt>
      <trkpt lat="44.05875" lon="6.85017">
        <ele>940</ele>
        <time>2020-06-05T08:01:22.000Z</time>
      </trkpt>
      <trkpt lat="44.05875" lon="6.85017">
        <ele>940</ele>
        <time>2020-06-05T08:01:23.000Z</time>
      </trkpt>
      <trkpt lat="44.05875" lon="6.85017">
        <ele>941</ele>
        <time>2020-06-05T08:01:24.000Z</time>
      </trkpt>
      <trkpt lat="44.05875" lon="6.85017">
        <ele>941</ele>
        <time>2020-06-05T08:01:25.000Z</time>
      </trkpt>
      <trkpt lat="44.05875" lon="6.85018">
        <ele>941</ele>
        <time>2020-06-05T08:01:26.000Z</time>
      </trkpt>
      <trkpt lat="44.05875" lon="6.85018">
        <ele>941</ele>
        <time>2020-06-05T08:01:27.000Z</time>
      </trkpt>
      <trkpt lat="44.05875" lon="6.85018">
        <ele>941</ele>
        <time>2020-06-05T08:01:28.000Z</time>
      </trkpt>
      <trkpt lat="44.05875" lon="6.85018">
        <ele>941</ele>
        <time>2020-06-05T08:01:29.000Z</time>
      </trkpt>
      <trkpt lat="44.05875" lon="6.85018">
        <ele>941</ele>
        <time>2020-06-05T08:01:30.000Z</time>
      </trkpt>
      <trkpt lat="44.05875" lon="6.85018">
        <ele>941</ele>
        <time>2020-06-05T08:01:31.000Z</time>
      </trkpt>
      <trkpt lat="44.05875" lon="6.85018">
        <ele>941</ele>
        <time>2020-06-05T08:01:32.000Z</time>
      </trkpt>
      <trkpt lat="44.05875" lon="6.85018">
        <ele>941</ele>
        <time>2020-06-05T08:01:33.000Z</time>
      </trkpt>
      <trkpt lat="44.05875" lon="6.85018">
        <ele>941</ele>
        <time>2020-06-05T08:01:34.000Z</time>
      </trkpt>
      <trkpt lat="44.05875" lon="6.85018">
        <ele>941</ele>
        <time>2020-06-05T08:01:35.000Z</time>
      </trkpt>
      <trkpt lat="44.05875" lon="6.85018">
        <ele>941</ele>
        <time>2020-06-05T08:01:36.000Z</time>
      </trkpt>
      <trkpt lat="44.05875" lon="6.85018">
        <ele>941</ele>
        <time>2020-06-05T08:01:37.000Z</time>
      </trkpt>
      <trkpt lat="44.05875" lon="6.85018">
        <ele>941</ele>
        <time>2020-06-05T08:01:38.000Z</time>
      </trkpt>
      <trkpt lat="44.05875" lon="6.85018">
        <ele>941</ele>
        <time>2020-06-05T08:01:39.000Z</time>
      </trkpt>
      <trkpt lat="44.05875" lon="6.85018">
        <ele>941</ele>
        <time>2020-06-05T08:01:40.000Z</time>
      </trkpt>
      <trkpt lat="44.05875" lon="6.85018">
        <ele>941</ele>
        <time>2020-06-05T08:01:41.000Z</time>
      </trkpt>
      <trkpt lat="44.05875" lon="6.85018">
        <ele>941</ele>
        <time>2020-06-05T08:01:42.000Z</time>
      </trkpt>
      <trkpt lat="44.05875" lon="6.85018">
        <ele>941</ele>
        <time>2020-06-05T08:01:43.000Z</time>
      </trkpt>
      <trkpt lat="44.05875" lon="6.85018">
        <ele>941</ele>
        <time>2020-06-05T08:01:44.000Z</time>
      </trkpt>
      <trkpt lat="44.05875" lon="6.85017">
        <ele>941</ele>
        <time>2020-06-05T08:01:45.000Z</time>
      </trkpt>
      <trkpt lat="44.05875" lon="6.85017">
        <ele>941</ele>
        <time>2020-06-05T08:01:46.000Z</time>
      </trkpt>
      <trkpt lat="44.05875" lon="6.85017">
        <ele>941</ele>
        <time>2020-06-05T08:01:47.000Z</time>
      </trkpt>
      <trkpt lat="44.05874" lon="6.85017">
        <ele>941</ele>
        <time>2020-06-05T08:01:48.000Z</time>
      </trkpt>
      <trkpt lat="44.05873" lon="6.85017">
        <ele>941</ele>
        <time>2020-06-05T08:01:49.000Z</time>
      </trkpt>
      <trkpt lat="44.05873" lon="6.85017">
        <ele>941</ele>
        <time>2020-06-05T08:01:50.000Z</time>
      </trkpt>
      <trkpt lat="44.05873" lon="6.85017">
        <ele>941</ele>
        <time>2020-06-05T08:01:51.000Z</time>
      </trkpt>
      <trkpt lat="44.05873" lon="6.85017">
        <ele>941</ele>
        <time>2020-06-05T08:01:52.000Z</time>
      </trkpt>
      <trkpt lat="44.05872" lon="6.85017">
        <ele>941</ele>
        <time>2020-06-05T08:01:53.000Z</time>
      </trkpt>
      <trkpt lat="44.05871" lon="6.85016">
        <ele>941</ele>
        <time>2020-06-05T08:01:54.000Z</time>
      </trkpt>
      <trkpt lat="44.05871" lon="6.85016">
        <ele>941</ele>
        <time>2020-06-05T08:01:55.000Z</time>
      </trkpt>
      <trkpt lat="44.0587" lon="6.85015">
        <ele>941</ele>
        <time>2020-06-05T08:01:56.000Z</time>
      </trkpt>
      <trkpt lat="44.05869" lon="6.85015">
        <ele>941</ele>
        <time>2020-06-05T08:01:57.000Z</time>
      </trkpt>
      <trkpt lat="44.05868" lon="6.85014">
        <ele>941</ele>
        <time>2020-06-05T08:01:58.000Z</time>
      </trkpt>
      <trkpt lat="44.05868" lon="6.85014">
        <ele>941</ele>
        <time>2020-06-05T08:01:59.000Z</time>
      </trkpt>
      <trkpt lat="44.05867" lon="6.85014">
        <ele>941</ele>
        <time>2020-06-05T08:02:00.000Z</time>
      </trkpt>
      <trkpt lat="44.05867" lon="6.85013">
        <ele>941</ele>
        <time>2020-06-05T08:02:01.000Z</time>
      </trkpt>
      <trkpt lat="44.05866" lon="6.85012">
        <ele>941</ele>
        <time>2020-06-05T08:02:02.000Z</time>
      </trkpt>
      <trkpt lat="44.05865" lon="6.85012">
        <ele>941</ele>
        <time>2020-06-05T08:02:03.000Z</time>
      </trkpt>
      <trkpt lat="44.05864" lon="6.85012">
        <ele>940</ele>
        <time>2020-06-05T08:02:04.000Z</time>
      </trkpt>
      <trkpt lat="44.05863" lon="6.85011">
        <ele>940</ele>
        <time>2020-06-05T08:02:05.000Z</time>
      </trkpt>
      <trkpt lat="44.05863" lon="6.8501">
        <ele>940</ele>
        <time>2020-06-05T08:02:06.000Z</time>
      </trkpt>
      <trkpt lat="44.05862" lon="6.8501">
        <ele>940</ele>
        <time>2020-06-05T08:02:07.000Z</time>
      </trkpt>
      <trkpt lat="44.05861" lon="6.85009">
        <ele>940</ele>
        <time>2020-06-05T08:02:08.000Z</time>
      </trkpt>
      <trkpt lat="44.0586" lon="6.85008">
        <ele>940</ele>
        <time>2020-06-05T08:02:09.000Z</time>
      </trkpt>
      <trkpt lat="44.0586" lon="6.85008">
        <ele>940</ele>
        <time>2020-06-05T08:02:10.000Z</time>
      </trkpt>
      <trkpt lat="44.05859" lon="6.85007">
        <ele>940</ele>
        <time>2020-06-05T08:02:11.000Z</time>
      </trkpt>
      <trkpt lat="44.05859" lon="6.85006">
        <ele>940</ele>
        <time>2020-06-05T08:02:12.000Z</time>
      </trkpt>
      <trkpt lat="44.05858" lon="6.85006">
        <ele>940</ele>
        <time>2020-06-05T08:02:13.000Z</time>
      </trkpt>
      <trkpt lat="44.05857" lon="6.85005">
        <ele>940</ele>
        <time>2020-06-05T08:02:14.000Z</time>
      </trkpt>
      <trkpt lat="44.05857" lon="6.85005">
        <ele>940</ele>
        <time>2020-06-05T08:02:15.000Z</time>
      </trkpt>
      <trkpt lat="44.05856" lon="6.85004">
        <ele>940</ele>
        <time>2020-06-05T08:02:16.000Z</time>
      </trkpt>
      <trkpt lat="44.05855" lon="6.85003">
        <ele>940</ele>
        <time>2020-06-05T08:02:17.000Z</time>
      </trkpt>
      <trkpt lat="44.05854" lon="6.85003">
        <ele>940</ele>
        <time>2020-06-05T08:02:18.000Z</time>
      </trkpt>
      <trkpt lat="44.05853" lon="6.85003">
        <ele>940</ele>
        <time>2020-06-05T08:02:19.000Z</time>
      </trkpt>
      <trkpt lat="44.05853" lon="6.85003">
        <ele>940</ele>
        <time>2020-06-05T08:02:20.000Z</time>
      </trkpt>
      <trkpt lat="44.05852" lon="6.85002">
        <ele>940</ele>
        <time>2020-06-05T08:02:21.000Z</time>
      </trkpt>
      <trkpt lat="44.05851" lon="6.85002">
        <ele>940</ele>
        <time>2020-06-05T08:02:22.000Z</time>
      </trkpt>
      <trkpt lat="44.0585" lon="6.85002">
        <ele>940</ele>
        <time>2020-06-05T08:02:23.000Z</time>
      </trkpt>
      <trkpt lat="44.05849" lon="6.85001">
        <ele>940</ele>
        <time>2020-06-05T08:02:24.000Z</time>
      </trkpt>
      <trkpt lat="44.05848" lon="6.85001">
        <ele>940</ele>
        <time>2020-06-05T08:02:25.000Z</time>
      </trkpt>
      <trkpt lat="44.05847" lon="6.85001">
        <ele>940</ele>
        <time>2020-06-05T08:02:26.000Z</time>
      </trkpt>
      <trkpt lat="44.05846" lon="6.85">
        <ele>940</ele>
        <time>2020-06-05T08:02:27.000Z</time>
      </trkpt>
      <trkpt lat="44.05845" lon="6.84999">
        <ele>940</ele>
        <time>2020-06-05T08:02:28.000Z</time>
      </trkpt>
      <trkpt lat="44.05844" lon="6.84999">
        <ele>940</ele>
        <time>2020-06-05T08:02:29.000Z</time>
      </trkpt>
      <trkpt lat="44.05844" lon="6.84998">
        <ele>940</ele>
        <time>2020-06-05T08:02:30.000Z</time>
      </trkpt>
      <trkpt lat="44.05843" lon="6.84997">
        <ele>940</ele>
        <time>2020-06-05T08:02:31.000Z</time>
      </trkpt>
      <trkpt lat="44.05842" lon="6.84996">
        <ele>940</ele>
        <time>2020-06-05T08:02:32.000Z</time>
      </trkpt>
      <trkpt lat="44.05842" lon="6.84996">
        <ele>940</ele>
        <time>2020-06-05T08:02:33.000Z</time>
      </trkpt>
      <trkpt lat="44.05841" lon="6.84995">
        <ele>941</ele>
        <time>2020-06-05T08:02:34.000Z</time>
      </trkpt>
      <trkpt lat="44.05841" lon="6.84995">
        <ele>941</ele>
        <time>2020-06-05T08:02:35.000Z</time>
      </trkpt>
      <trkpt lat="44.0584" lon="6.84994">
        <ele>941</ele>
        <time>2020-06-05T08:02:36.000Z</time>
      </trkpt>
      <trkpt lat="44.05839" lon="6.84994">
        <ele>941</ele>
        <time>2020-06-05T08:02:37.000Z</time>
      </trkpt>
      <trkpt lat="44.05839" lon="6.84993">
        <ele>941</ele>
        <time>2020-06-05T08:02:38.000Z</time>
      </trkpt>
      <trkpt lat="44.05838" lon="6.84992">
        <ele>941</ele>
        <time>2020-06-05T08:02:39.000Z</time>
      </trkpt>
      <trkpt lat="44.05838" lon="6.84992">
        <ele>941</ele>
        <time>2020-06-05T08:02:40.000Z</time>
      </trkpt>
      <trkpt lat="44.05837" lon="6.84991">
        <ele>941</ele>
        <time>2020-06-05T08:02:41.000Z</time>
      </trkpt>
      <trkpt lat="44.05837" lon="6.84991">
        <ele>942</ele>
        <time>2020-06-05T08:02:42.000Z</time>
      </trkpt>
      <trkpt lat="44.05836" lon="6.8499">
        <ele>942</ele>
        <time>2020-06-05T08:02:43.000Z</time>
      </trkpt>
      <trkpt lat="44.05836" lon="6.84989">
        <ele>942</ele>
        <time>2020-06-05T08:02:44.000Z</time>
      </trkpt>
      <trkpt lat="44.05835" lon="6.84989">
        <ele>942</ele>
        <time>2020-06-05T08:02:45.000Z</time>
      </trkpt>
      <trkpt lat="44.05835" lon="6.84988">
        <ele>942</ele>
        <time>2020-06-05T08:02:46.000Z</time>
      </trkpt>
      <trkpt lat="44.05835" lon="6.84987">
        <ele>942</ele>
        <time>2020-06-05T08:02:47.000Z</time>
      </trkpt>
      <trkpt lat="44.05835" lon="6.84986">
        <ele>942</ele>
        <time>2020-06-05T08:02:48.000Z</time>
      </trkpt>
      <trkpt lat="44.05835" lon="6.84985">
        <ele>943</ele>
        <time>2020-06-05T08:02:49.000Z</time>
      </trkpt>
      <trkpt lat="44.05835" lon="6.84984">
        <ele>943</ele>
        <time>2020-06-05T08:02:50.000Z</time>
      </trkpt>
      <trkpt lat="44.05835" lon="6.84983">
        <ele>943</ele>
        <time>2020-06-05T08:02:51.000Z</time>
      </trkpt>
      <trkpt lat="44.05835" lon="6.84982">
        <ele>943</ele>
        <time>2020-06-05T08:02:52.000Z</time>
      </trkpt>
      <trkpt lat="44.05835" lon="6.84981">
        <ele>943</ele>
        <time>2020-06-05T08:02:53.000Z</time>
      </trkpt>
      <trkpt lat="44.05834" lon="6.8498">
        <ele>943</ele>
        <time>2020-06-05T08:02:54.000Z</time>
      </trkpt>
      <trkpt lat="44.05834" lon="6.84979">
        <ele>943</ele>
        <time>2020-06-05T08:02:55.000Z</time>
      </trkpt>
      <trkpt lat="44.05833" lon="6.84978">
        <ele>943</ele>
        <time>2020-06-05T08:02:56.000Z</time>
      </trkpt>
      <trkpt lat="44.05833" lon="6.84977">
        <ele>943</ele>
        <time>2020-06-05T08:02:57.000Z</time>
      </trkpt>
      <trkpt lat="44.05833" lon="6.84976">
        <ele>943</ele>
        <time>2020-06-05T08:02:58.000Z</time>
      </trkpt>
      <trkpt lat="44.05832" lon="6.84974">
        <ele>944</ele>
        <time>2020-06-05T08:02:59.000Z</time>
      </trkpt>
      <trkpt lat="44.05832" lon="6.84973">
        <ele>944</ele>
        <time>2020-06-05T08:03:00.000Z</time>
      </trkpt>
      <trkpt lat="44.05832" lon="6.84973">
        <ele>944</ele>
        <time>2020-06-05T08:03:01.000Z</time>
      </trkpt>
      <trkpt lat="44.05832" lon="6.84972">
        <ele>944</ele>
        <time>2020-06-05T08:03:02.000Z</time>
      </trkpt>
      <trkpt lat="44.05832" lon="6.84971">
        <ele>944</ele>
        <time>2020-06-05T08:03:03.000Z</time>
      </trkpt>
      <trkpt lat="44.05831" lon="6.8497">
        <ele>944</ele>
        <time>2020-06-05T08:03:04.000Z</time>
      </trkpt>
      <trkpt lat="44.05831" lon="6.84969">
        <ele>944</ele>
        <time>2020-06-05T08:03:05.000Z</time>
      </trkpt>
      <trkpt lat="44.05831" lon="6.84968">
        <ele>944</ele>
        <time>2020-06-05T08:03:06.000Z</time>
      </trkpt>
      <trkpt lat="44.05831" lon="6.84966">
        <ele>944</ele>
        <time>2020-06-05T08:03:07.000Z</time>
      </trkpt>
      <trkpt lat="44.05831" lon="6.84965">
        <ele>944</ele>
        <time>2020-06-05T08:03:08.000Z</time>
      </trkpt>
      <trkpt lat="44.0583" lon="6.84965">
        <ele>944</ele>
        <time>2020-06-05T08:03:09.000Z</time>
      </trkpt>
      <trkpt lat="44.0583" lon="6.84964">
        <ele>944</ele>
        <time>2020-06-05T08:03:10.000Z</time>
      </trkpt>
      <trkpt lat="44.05829" lon="6.84962">
        <ele>944</ele>
        <time>2020-06-05T08:03:11.000Z</time>
      </trkpt>
      <trkpt lat="44.05829" lon="6.84961">
        <ele>944</ele>
        <time>2020-06-05T08:03:12.000Z</time>
      </trkpt>
      <trkpt lat="44.05829" lon="6.8496">
        <ele>944</ele>
        <time>2020-06-05T08:03:13.000Z</time>
      </trkpt>
      <trkpt lat="44.05829" lon="6.84958">
        <ele>944</ele>
        <time>2020-06-05T08:03:14.000Z</time>
      </trkpt>
      <trkpt lat="44.05829" lon="6.84957">
        <ele>944</ele>
        <time>2020-06-05T08:03:15.000Z</time>
      </trkpt>
      <trkpt lat="44.05828" lon="6.84955">
        <ele>945</ele>
        <time>2020-06-05T08:03:16.000Z</time>
      </trkpt>
      <trkpt lat="44.05828" lon="6.84954">
        <ele>945</ele>
        <time>2020-06-05T08:03:17.000Z</time>
      </trkpt>
      <trkpt lat="44.05829" lon="6.84953">
        <ele>945</ele>
        <time>2020-06-05T08:03:18.000Z</time>
      </trkpt>
      <trkpt lat="44.05829" lon="6.84951">
        <ele>945</ele>
        <time>2020-06-05T08:03:19.000Z</time>
      </trkpt>
      <trkpt lat="44.05829" lon="6.8495">
        <ele>945</ele>
        <time>2020-06-05T08:03:20.000Z</time>
      </trkpt>
      <trkpt lat="44.05829" lon="6.84949">
        <ele>945</ele>
        <time>2020-06-05T08:03:21.000Z</time>
      </trkpt>
      <trkpt lat="44.0583" lon="6.84948">
        <ele>946</ele>
        <time>2020-06-05T08:03:22.000Z</time>
      </trkpt>
      <trkpt lat="44.0583" lon="6.84947">
        <ele>946</ele>
        <time>2020-06-05T08:03:23.000Z</time>
      </trkpt>
      <trkpt lat="44.0583" lon="6.84946">
        <ele>946</ele>
        <time>2020-06-05T08:03:24.000Z</time>
      </trkpt>
      <trkpt lat="44.05831" lon="6.84945">
        <ele>946</ele>
        <time>2020-06-05T08:03:25.000Z</time>
      </trkpt>
      <trkpt lat="44.05831" lon="6.84944">
        <ele>946</ele>
        <time>2020-06-05T08:03:26.000Z</time>
      </trkpt>
      <trkpt lat="44.05832" lon="6.84943">
        <ele>947</ele>
        <time>2020-06-05T08:03:27.000Z</time>
      </trkpt>
      <trkpt lat="44.05832" lon="6.84941">
        <ele>947</ele>
        <time>2020-06-05T08:03:28.000Z</time>
      </trkpt>
      <trkpt lat="44.05832" lon="6.8494">
        <ele>947</ele>
        <time>2020-06-05T08:03:29.000Z</time>
      </trkpt>
      <trkpt lat="44.05833" lon="6.84939">
        <ele>947</ele>
        <time>2020-06-05T08:03:30.000Z</time>
      </trkpt>
      <trkpt lat="44.05833" lon="6.84937">
        <ele>947</ele>
        <time>2020-06-05T08:03:31.000Z</time>
      </trkpt>
      <trkpt lat="44.05833" lon="6.84935">
        <ele>947</ele>
        <time>2020-06-05T08:03:32.000Z</time>
      </trkpt>
      <trkpt lat="44.05833" lon="6.84933">
        <ele>947</ele>
        <time>2020-06-05T08:03:33.000Z</time>
      </trkpt>
      <trkpt lat="44.05833" lon="6.84932">
        <ele>947</ele>
        <time>2020-06-05T08:03:34.000Z</time>
      </trkpt>
      <trkpt lat="44.05833" lon="6.84931">
        <ele>947</ele>
        <time>2020-06-05T08:03:35.000Z</time>
      </trkpt>
      <trkpt lat="44.05833" lon="6.8493">
        <ele>947</ele>
        <time>2020-06-05T08:03:36.000Z</time>
      </trkpt>
      <trkpt lat="44.05833" lon="6.84928">
        <ele>948</ele>
        <time>2020-06-05T08:03:37.000Z</time>
      </trkpt>
      <trkpt lat="44.05833" lon="6.84927">
        <ele>948</ele>
        <time>2020-06-05T08:03:38.000Z</time>
      </trkpt>
      <trkpt lat="44.05833" lon="6.84927">
        <ele>948</ele>
        <time>2020-06-05T08:03:39.000Z</time>
      </trkpt>
      <trkpt lat="44.05832" lon="6.84925">
        <ele>948</ele>
        <time>2020-06-05T08:03:40.000Z</time>
      </trkpt>
      <trkpt lat="44.05832" lon="6.84924">
        <ele>948</ele>
        <time>2020-06-05T08:03:41.000Z</time>
      </trkpt>
      <trkpt lat="44.05832" lon="6.84923">
        <ele>948</ele>
        <time>2020-06-05T08:03:42.000Z</time>
      </trkpt>
      <trkpt lat="44.05832" lon="6.84922">
        <ele>948</ele>
        <time>2020-06-05T08:03:43.000Z</time>
      </trkpt>
      <trkpt lat="44.05831" lon="6.84921">
        <ele>949</ele>
        <time>2020-06-05T08:03:44.000Z</time>
      </trkpt>
      <trkpt lat="44.05831" lon="6.8492">
        <ele>949</ele>
        <time>2020-06-05T08:03:45.000Z</time>
      </trkpt>
      <trkpt lat="44.05831" lon="6.84919">
        <ele>949</ele>
        <time>2020-06-05T08:03:46.000Z</time>
      </trkpt>
      <trkpt lat="44.0583" lon="6.84918">
        <ele>949</ele>
        <time>2020-06-05T08:03:47.000Z</time>
      </trkpt>
      <trkpt lat="44.0583" lon="6.84917">
        <ele>949</ele>
        <time>2020-06-05T08:03:48.000Z</time>
      </trkpt>
      <trkpt lat="44.05829" lon="6.84916">
        <ele>950</ele>
        <time>2020-06-05T08:03:49.000Z</time>
      </trkpt>
      <trkpt lat="44.05829" lon="6.84914">
        <ele>950</ele>
        <time>2020-06-05T08:03:50.000Z</time>
      </trkpt>
      <trkpt lat="44.05829" lon="6.84913">
        <ele>950</ele>
        <time>2020-06-05T08:03:51.000Z</time>
      </trkpt>
      <trkpt lat="44.05829" lon="6.84912">
        <ele>950</ele>
        <time>2020-06-05T08:03:52.000Z</time>
      </trkpt>
      <trkpt lat="44.05828" lon="6.84911">
        <ele>951</ele>
        <time>2020-06-05T08:03:53.000Z</time>
      </trkpt>
      <trkpt lat="44.05828" lon="6.8491">
        <ele>951</ele>
        <time>2020-06-05T08:03:54.000Z</time>
      </trkpt>
      <trkpt lat="44.05827" lon="6.84909">
        <ele>951</ele>
        <time>2020-06-05T08:03:55.000Z</time>
      </trkpt>
      <trkpt lat="44.05827" lon="6.84908">
        <ele>951</ele>
        <time>2020-06-05T08:03:56.000Z</time>
      </trkpt>
      <trkpt lat="44.05826" lon="6.84907">
        <ele>952</ele>
        <time>2020-06-05T08:03:57.000Z</time>
      </trkpt>
      <trkpt lat="44.05826" lon="6.84906">
        <ele>952</ele>
        <time>2020-06-05T08:03:58.000Z</time>
      </trkpt>
      <trkpt lat="44.05825" lon="6.84905">
        <ele>952</ele>
        <time>2020-06-05T08:03:59.000Z</time>
      </trkpt>
      <trkpt lat="44.05825" lon="6.84903">
        <ele>952</ele>
        <time>2020-06-05T08:04:00.000Z</time>
      </trkpt>
      <trkpt lat="44.05825" lon="6.84902">
        <ele>953</ele>
        <time>2020-06-05T08:04:01.000Z</time>
      </trkpt>
      <trkpt lat="44.05824" lon="6.84901">
        <ele>953</ele>
        <time>2020-06-05T08:04:02.000Z</time>
      </trkpt>
      <trkpt lat="44.05824" lon="6.849">
        <ele>953</ele>
        <time>2020-06-05T08:04:03.000Z</time>
      </trkpt>
      <trkpt lat="44.05824" lon="6.84899">
        <ele>954</ele>
        <time>2020-06-05T08:04:04.000Z</time>
      </trkpt>
      <trkpt lat="44.05824" lon="6.84899">
        <ele>954</ele>
        <time>2020-06-05T08:04:05.000Z</time>
      </trkpt>
      <trkpt lat="44.05823" lon="6.84898">
        <ele>954</ele>
        <time>2020-06-05T08:04:06.000Z</time>
      </trkpt>
      <trkpt lat="44.05823" lon="6.84896">
        <ele>954</ele>
        <time>2020-06-05T08:04:07.000Z</time>
      </trkpt>
      <trkpt lat="44.05823" lon="6.84895">
        <ele>954</ele>
        <time>2020-06-05T08:04:08.000Z</time>
      </trkpt>
      <trkpt lat="44.05823" lon="6.84894">
        <ele>955</ele>
        <time>2020-06-05T08:04:09.000Z</time>
      </trkpt>
      <trkpt lat="44.05823" lon="6.84893">
        <ele>955</ele>
        <time>2020-06-05T08:04:10.000Z</time>
      </trkpt>
      <trkpt lat="44.05822" lon="6.84892">
        <ele>955</ele>
        <time>2020-06-05T08:04:11.000Z</time>
      </trkpt>
      <trkpt lat="44.05822" lon="6.84892">
        <ele>955</ele>
        <time>2020-06-05T08:04:12.000Z</time>
      </trkpt>
      <trkpt lat="44.05822" lon="6.84891">
        <ele>955</ele>
        <time>2020-06-05T08:04:13.000Z</time>
      </trkpt>
      <trkpt lat="44.05822" lon="6.84891">
        <ele>955</ele>
        <time>2020-06-05T08:04:14.000Z</time>
      </trkpt>
      <trkpt lat="44.05821" lon="6.84891">
        <ele>955</ele>
        <time>2020-06-05T08:04:15.000Z</time>
      </trkpt>
      <trkpt lat="44.05821" lon="6.84891">
        <ele>955</ele>
        <time>2020-06-05T08:04:16.000Z</time>
      </trkpt>
      <trkpt lat="44.05821" lon="6.84891">
        <ele>955</ele>
        <time>2020-06-05T08:04:17.000Z</time>
      </trkpt>
      <trkpt lat="44.05821" lon="6.84891">
        <ele>956</ele>
        <time>2020-06-05T08:04:18.000Z</time>
      </trkpt>
      <trkpt lat="44.05821" lon="6.8489">
        <ele>956</ele>
        <time>2020-06-05T08:04:19.000Z</time>
      </trkpt>
      <trkpt lat="44.05821" lon="6.84889">
        <ele>956</ele>
        <time>2020-06-05T08:04:20.000Z</time>
      </trkpt>
      <trkpt lat="44.05821" lon="6.84888">
        <ele>956</ele>
        <time>2020-06-05T08:04:21.000Z</time>
      </trkpt>
      <trkpt lat="44.05821" lon="6.84887">
        <ele>956</ele>
        <time>2020-06-05T08:04:22.000Z</time>
      </trkpt>
      <trkpt lat="44.05821" lon="6.84886">
        <ele>956</ele>
        <time>2020-06-05T08:04:23.000Z</time>
      </trkpt>
      <trkpt lat="44.05821" lon="6.84885">
        <ele>956</ele>
        <time>2020-06-05T08:04:24.000Z</time>
      </trkpt>
      <trkpt lat="44.05821" lon="6.84884">
        <ele>956</ele>
        <time>2020-06-05T08:04:25.000Z</time>
      </trkpt>
      <trkpt lat="44.05821" lon="6.84882">
        <ele>956</ele>
        <time>2020-06-05T08:04:26.000Z</time>
      </trkpt>
      <trkpt lat="44.05821" lon="6.84881">
        <ele>956</ele>
        <time>2020-06-05T08:04:27.000Z</time>
      </trkpt>
      <trkpt lat="44.05821" lon="6.8488">
        <ele>956</ele>
        <time>2020-06-05T08:04:28.000Z</time>
      </trkpt>
      <trkpt lat="44.05821" lon="6.84878">
        <ele>955</ele>
        <time>2020-06-05T08:04:29.000Z</time>
      </trkpt>
      <trkpt lat="44.05821" lon="6.84877">
        <ele>955</ele>
        <time>2020-06-05T08:04:30.000Z</time>
      </trkpt>
      <trkpt lat="44.05821" lon="6.84876">
        <ele>955</ele>
        <time>2020-06-05T08:04:31.000Z</time>
      </trkpt>
      <trkpt lat="44.05821" lon="6.84874">
        <ele>955</ele>
        <time>2020-06-05T08:04:32.000Z</time>
      </trkpt>
      <trkpt lat="44.05821" lon="6.84873">
        <ele>955</ele>
        <time>2020-06-05T08:04:33.000Z</time>
      </trkpt>
      <trkpt lat="44.05821" lon="6.84872">
        <ele>955</ele>
        <time>2020-06-05T08:04:34.000Z</time>
      </trkpt>
      <trkpt lat="44.05821" lon="6.8487">
        <ele>955</ele>
        <time>2020-06-05T08:04:35.000Z</time>
      </trkpt>
      <trkpt lat="44.05821" lon="6.84869">
        <ele>956</ele>
        <time>2020-06-05T08:04:36.000Z</time>
      </trkpt>
      <trkpt lat="44.05821" lon="6.84868">
        <ele>956</ele>
        <time>2020-06-05T08:04:37.000Z</time>
      </trkpt>
      <trkpt lat="44.05821" lon="6.84867">
        <ele>956</ele>
        <time>2020-06-05T08:04:38.000Z</time>
      </trkpt>
      <trkpt lat="44.05821" lon="6.84866">
        <ele>956</ele>
        <time>2020-06-05T08:04:39.000Z</time>
      </trkpt>
      <trkpt lat="44.05821" lon="6.84864">
        <ele>956</ele>
        <time>2020-06-05T08:04:40.000Z</time>
      </trkpt>
      <trkpt lat="44.05821" lon="6.84863">
        <ele>956</ele>
        <time>2020-06-05T08:04:41.000Z</time>
      </trkpt>
      <trkpt lat="44.05821" lon="6.84862">
        <ele>956</ele>
        <time>2020-06-05T08:04:42.000Z</time>
      </trkpt>
      <trkpt lat="44.05821" lon="6.84861">
        <ele>956</ele>
        <time>2020-06-05T08:04:43.000Z</time>
      </trkpt>
      <trkpt lat="44.05821" lon="6.8486">
        <ele>956</ele>
        <time>2020-06-05T08:04:44.000Z</time>
      </trkpt>
      <trkpt lat="44.05821" lon="6.84859">
        <ele>957</ele>
        <time>2020-06-05T08:04:45.000Z</time>
      </trkpt>
      <trkpt lat="44.05821" lon="6.84857">
        <ele>957</ele>
        <time>2020-06-05T08:04:46.000Z</time>
      </trkpt>
      <trkpt lat="44.05821" lon="6.84856">
        <ele>957</ele>
        <time>2020-06-05T08:04:47.000Z</time>
      </trkpt>
      <trkpt lat="44.05821" lon="6.84855">
        <ele>957</ele>
        <time>2020-06-05T08:04:48.000Z</time>
      </trkpt>
      <trkpt lat="44.05821" lon="6.84854">
        <ele>957</ele>
        <time>2020-06-05T08:04:49.000Z</time>
      </trkpt>
      <trkpt lat="44.0582" lon="6.84853">
        <ele>958</ele>
        <time>2020-06-05T08:04:50.000Z</time>
      </trkpt>
      <trkpt lat="44.0582" lon="6.84851">
        <ele>958</ele>
        <time>2020-06-05T08:04:51.000Z</time>
      </trkpt>
      <trkpt lat="44.0582" lon="6.8485">
        <ele>958</ele>
        <time>2020-06-05T08:04:52.000Z</time>
      </trkpt>
      <trkpt lat="44.05819" lon="6.84849">
        <ele>959</ele>
        <time>2020-06-05T08:04:53.000Z</time>
      </trkpt>
      <trkpt lat="44.05819" lon="6.84848">
        <ele>959</ele>
        <time>2020-06-05T08:04:54.000Z</time>
      </trkpt>
      <trkpt lat="44.05819" lon="6.84847">
        <ele>959</ele>
        <time>2020-06-05T08:04:55.000Z</time>
      </trkpt>
      <trkpt lat="44.05819" lon="6.84846">
        <ele>959</ele>
        <time>2020-06-05T08:04:56.000Z</time>
      </trkpt>
      <trkpt lat="44.05818" lon="6.84845">
        <ele>959</ele>
        <time>2020-06-05T08:04:57.000Z</time>
      </trkpt>
      <trkpt lat="44.05818" lon="6.84845">
        <ele>960</ele>
        <time>2020-06-05T08:04:58.000Z</time>
      </trkpt>
      <trkpt lat="44.05818" lon="6.84844">
        <ele>960</ele>
        <time>2020-06-05T08:04:59.000Z</time>
      </trkpt>
      <trkpt lat="44.05817" lon="6.84843">
        <ele>960</ele>
        <time>2020-06-05T08:05:00.000Z</time>
      </trkpt>
      <trkpt lat="44.05817" lon="6.84842">
        <ele>960</ele>
        <time>2020-06-05T08:05:01.000Z</time>
      </trkpt>
      <trkpt lat="44.05817" lon="6.84841">
        <ele>960</ele>
        <time>2020-06-05T08:05:02.000Z</time>
      </trkpt>
      <trkpt lat="44.05816" lon="6.8484">
        <ele>961</ele>
        <time>2020-06-05T08:05:03.000Z</time>
      </trkpt>
      <trkpt lat="44.05816" lon="6.8484">
        <ele>961</ele>
        <time>2020-06-05T08:05:04.000Z</time>
      </trkpt>
      <trkpt lat="44.05816" lon="6.84839">
        <ele>961</ele>
        <time>2020-06-05T08:05:05.000Z</time>
      </trkpt>
      <trkpt lat="44.05815" lon="6.84838">
        <ele>961</ele>
        <time>2020-06-05T08:05:06.000Z</time>
      </trkpt>
      <trkpt lat="44.05815" lon="6.84838">
        <ele>961</ele>
        <time>2020-06-05T08:05:07.000Z</time>
      </trkpt>
      <trkpt lat="44.05814" lon="6.84837">
        <ele>962</ele>
        <time>2020-06-05T08:05:08.000Z</time>
      </trkpt>
      <trkpt lat="44.05814" lon="6.84836">
        <ele>962</ele>
        <time>2020-06-05T08:05:09.000Z</time>
      </trkpt>
      <trkpt lat="44.05814" lon="6.84835">
        <ele>962</ele>
        <time>2020-06-05T08:05:10.000Z</time>
      </trkpt>
      <trkpt lat="44.05814" lon="6.84834">
        <ele>962</ele>
        <time>2020-06-05T08:05:11.000Z</time>
      </trkpt>
      <trkpt lat="44.05813" lon="6.84833">
        <ele>962</ele>
        <time>2020-06-05T08:05:12.000Z</time>
      </trkpt>
      <trkpt lat="44.05813" lon="6.84832">
        <ele>962</ele>
        <time>2020-06-05T08:05:13.000Z</time>
      </trkpt>
      <trkpt lat="44.05813" lon="6.84831">
        <ele>963</ele>
        <time>2020-06-05T08:05:14.000Z</time>
      </trkpt>
      <trkpt lat="44.05812" lon="6.84831">
        <ele>963</ele>
        <time>2020-06-05T08:05:15.000Z</time>
      </trkpt>
      <trkpt lat="44.05812" lon="6.8483">
        <ele>963</ele>
        <time>2020-06-05T08:05:16.000Z</time>
      </trkpt>
      <trkpt lat="44.05811" lon="6.84829">
        <ele>963</ele>
        <time>2020-06-05T08:05:17.000Z</time>
      </trkpt>
      <trkpt lat="44.05811" lon="6.84828">
        <ele>963</ele>
        <time>2020-06-05T08:05:18.000Z</time>
      </trkpt>
      <trkpt lat="44.05811" lon="6.84827">
        <ele>964</ele>
        <time>2020-06-05T08:05:19.000Z</time>
      </trkpt>
      <trkpt lat="44.0581" lon="6.84827">
        <ele>964</ele>
        <time>2020-06-05T08:05:20.000Z</time>
      </trkpt>
      <trkpt lat="44.0581" lon="6.84826">
        <ele>964</ele>
        <time>2020-06-05T08:05:21.000Z</time>
      </trkpt>
      <trkpt lat="44.05809" lon="6.84826">
        <ele>964</ele>
        <time>2020-06-05T08:05:22.000Z</time>
      </trkpt>
      <trkpt lat="44.05808" lon="6.84825">
        <ele>964</ele>
        <time>2020-06-05T08:05:23.000Z</time>
      </trkpt>
      <trkpt lat="44.05808" lon="6.84824">
        <ele>965</ele>
        <time>2020-06-05T08:05:24.000Z</time>
      </trkpt>
      <trkpt lat="44.05807" lon="6.84824">
        <ele>965</ele>
        <time>2020-06-05T08:05:25.000Z</time>
      </trkpt>
      <trkpt lat="44.05807" lon="6.84823">
        <ele>965</ele>
        <time>2020-06-05T08:05:26.000Z</time>
      </trkpt>
      <trkpt lat="44.05806" lon="6.84822">
        <ele>965</ele>
        <time>2020-06-05T08:05:27.000Z</time>
      </trkpt>
      <trkpt lat="44.05805" lon="6.84821">
        <ele>965</ele>
        <time>2020-06-05T08:05:28.000Z</time>
      </trkpt>
      <trkpt lat="44.05805" lon="6.8482">
        <ele>965</ele>
        <time>2020-06-05T08:05:29.000Z</time>
      </trkpt>
      <trkpt lat="44.05804" lon="6.84819">
        <ele>965</ele>
        <time>2020-06-05T08:05:30.000Z</time>
      </trkpt>
      <trkpt lat="44.05804" lon="6.84819">
        <ele>965</ele>
        <time>2020-06-05T08:05:31.000Z</time>
      </trkpt>
      <trkpt lat="44.05803" lon="6.84818">
        <ele>966</ele>
        <time>2020-06-05T08:05:32.000Z</time>
      </trkpt>
      <trkpt lat="44.05803" lon="6.84817">
        <ele>966</ele>
        <time>2020-06-05T08:05:33.000Z</time>
      </trkpt>
      <trkpt lat="44.05802" lon="6.84817">
        <ele>966</ele>
        <time>2020-06-05T08:05:34.000Z</time>
      </trkpt>
      <trkpt lat="44.05802" lon="6.84816">
        <ele>966</ele>
        <time>2020-06-05T08:05:35.000Z</time>
      </trkpt>
      <trkpt lat="44.05802" lon="6.84816">
        <ele>966</ele>
        <time>2020-06-05T08:05:36.000Z</time>
      </trkpt>
      <trkpt lat="44.05801" lon="6.84815">
        <ele>966</ele>
        <time>2020-06-05T08:05:37.000Z</time>
      </trkpt>
      <trkpt lat="44.058" lon="6.84814">
        <ele>966</ele>
        <time>2020-06-05T08:05:38.000Z</time>
      </trkpt>
      <trkpt lat="44.058" lon="6.84814">
        <ele>966</ele>
        <time>2020-06-05T08:05:39.000Z</time>
      </trkpt>
      <trkpt lat="44.05799" lon="6.84813">
        <ele>966</ele>
        <time>2020-06-05T08:05:40.000Z</time>
      </trkpt>
      <trkpt lat="44.05799" lon="6.84812">
        <ele>966</ele>
        <time>2020-06-05T08:05:41.000Z</time>
      </trkpt>
      <trkpt lat="44.05798" lon="6.84811">
        <ele>967</ele>
        <time>2020-06-05T08:05:42.000Z</time>
      </trkpt>
      <trkpt lat="44.05797" lon="6.84811">
        <ele>967</ele>
        <time>2020-06-05T08:05:43.000Z</time>
      </trkpt>
      <trkpt lat="44.05797" lon="6.8481">
        <ele>967</ele>
        <time>2020-06-05T08:05:44.000Z</time>
      </trkpt>
      <trkpt lat="44.05797" lon="6.84808">
        <ele>967</ele>
        <time>2020-06-05T08:05:45.000Z</time>
      </trkpt>
      <trkpt lat="44.05796" lon="6.84808">
        <ele>966</ele>
        <time>2020-06-05T08:05:46.000Z</time>
      </trkpt>
      <trkpt lat="44.05796" lon="6.84807">
        <ele>966</ele>
        <time>2020-06-05T08:05:47.000Z</time>
      </trkpt>
      <trkpt lat="44.05796" lon="6.84805">
        <ele>966</ele>
        <time>2020-06-05T08:05:48.000Z</time>
      </trkpt>
      <trkpt lat="44.05796" lon="6.84804">
        <ele>966</ele>
        <time>2020-06-05T08:05:49.000Z</time>
      </trkpt>
      <trkpt lat="44.05795" lon="6.84803">
        <ele>966</ele>
        <time>2020-06-05T08:05:50.000Z</time>
      </trkpt>
      <trkpt lat="44.05794" lon="6.84803">
        <ele>966</ele>
        <time>2020-06-05T08:05:51.000Z</time>
      </trkpt>
      <trkpt lat="44.05794" lon="6.84802">
        <ele>967</ele>
        <time>2020-06-05T08:05:52.000Z</time>
      </trkpt>
      <trkpt lat="44.05793" lon="6.84801">
        <ele>967</ele>
        <time>2020-06-05T08:05:53.000Z</time>
      </trkpt>
      <trkpt lat="44.05793" lon="6.848">
        <ele>967</ele>
        <time>2020-06-05T08:05:54.000Z</time>
      </trkpt>
      <trkpt lat="44.05793" lon="6.84799">
        <ele>967</ele>
        <time>2020-06-05T08:05:55.000Z</time>
      </trkpt>
      <trkpt lat="44.05792" lon="6.84798">
        <ele>967</ele>
        <time>2020-06-05T08:05:56.000Z</time>
      </trkpt>
      <trkpt lat="44.05792" lon="6.84798">
        <ele>967</ele>
        <time>2020-06-05T08:05:57.000Z</time>
      </trkpt>
      <trkpt lat="44.05791" lon="6.84797">
        <ele>967</ele>
        <time>2020-06-05T08:05:58.000Z</time>
      </trkpt>
      <trkpt lat="44.05791" lon="6.84796">
        <ele>967</ele>
        <time>2020-06-05T08:05:59.000Z</time>
      </trkpt>
      <trkpt lat="44.0579" lon="6.84796">
        <ele>968</ele>
        <time>2020-06-05T08:06:00.000Z</time>
      </trkpt>
      <trkpt lat="44.05789" lon="6.84795">
        <ele>968</ele>
        <time>2020-06-05T08:06:01.000Z</time>
      </trkpt>
      <trkpt lat="44.05789" lon="6.84794">
        <ele>968</ele>
        <time>2020-06-05T08:06:02.000Z</time>
      </trkpt>
      <trkpt lat="44.05788" lon="6.84793">
        <ele>968</ele>
        <time>2020-06-05T08:06:03.000Z</time>
      </trkpt>
      <trkpt lat="44.05788" lon="6.84792">
        <ele>968</ele>
        <time>2020-06-05T08:06:04.000Z</time>
      </trkpt>
      <trkpt lat="44.05787" lon="6.84792">
        <ele>968</ele>
        <time>2020-06-05T08:06:05.000Z</time>
      </trkpt>
      <trkpt lat="44.05787" lon="6.84791">
        <ele>968</ele>
        <time>2020-06-05T08:06:06.000Z</time>
      </trkpt>
      <trkpt lat="44.05786" lon="6.8479">
        <ele>968</ele>
        <time>2020-06-05T08:06:07.000Z</time>
      </trkpt>
      <trkpt lat="44.05786" lon="6.84789">
        <ele>968</ele>
        <time>2020-06-05T08:06:08.000Z</time>
      </trkpt>
      <trkpt lat="44.05785" lon="6.84788">
        <ele>968</ele>
        <time>2020-06-05T08:06:09.000Z</time>
      </trkpt>
      <trkpt lat="44.05785" lon="6.84787">
        <ele>968</ele>
        <time>2020-06-05T08:06:10.000Z</time>
      </trkpt>
      <trkpt lat="44.05784" lon="6.84786">
        <ele>969</ele>
        <time>2020-06-05T08:06:11.000Z</time>
      </trkpt>
      <trkpt lat="44.05784" lon="6.84785">
        <ele>969</ele>
        <time>2020-06-05T08:06:12.000Z</time>
      </trkpt>
      <trkpt lat="44.05784" lon="6.84784">
        <ele>969</ele>
        <time>2020-06-05T08:06:13.000Z</time>
      </trkpt>
      <trkpt lat="44.05783" lon="6.84783">
        <ele>969</ele>
        <time>2020-06-05T08:06:14.000Z</time>
      </trkpt>
      <trkpt lat="44.05783" lon="6.84782">
        <ele>969</ele>
        <time>2020-06-05T08:06:15.000Z</time>
      </trkpt>
      <trkpt lat="44.05783" lon="6.84781">
        <ele>968</ele>
        <time>2020-06-05T08:06:16.000Z</time>
      </trkpt>
      <trkpt lat="44.05783" lon="6.8478">
        <ele>968</ele>
        <time>2020-06-05T08:06:17.000Z</time>
      </trkpt>
      <trkpt lat="44.05782" lon="6.84779">
        <ele>968</ele>
        <time>2020-06-05T08:06:18.000Z</time>
      </trkpt>
      <trkpt lat="44.05782" lon="6.84777">
        <ele>968</ele>
        <time>2020-06-05T08:06:19.000Z</time>
      </trkpt>
      <trkpt lat="44.05782" lon="6.84776">
        <ele>968</ele>
        <time>2020-06-05T08:06:20.000Z</time>
      </trkpt>
      <trkpt lat="44.05781" lon="6.84775">
        <ele>968</ele>
        <time>2020-06-05T08:06:21.000Z</time>
      </trkpt>
      <trkpt lat="44.05781" lon="6.84774">
        <ele>968</ele>
        <time>2020-06-05T08:06:22.000Z</time>
      </trkpt>
      <trkpt lat="44.0578" lon="6.84773">
        <ele>968</ele>
        <time>2020-06-05T08:06:23.000Z</time>
      </trkpt>
      <trkpt lat="44.0578" lon="6.84773">
        <ele>968</ele>
        <time>2020-06-05T08:06:24.000Z</time>
      </trkpt>
      <trkpt lat="44.05779" lon="6.84772">
        <ele>968</ele>
        <time>2020-06-05T08:06:25.000Z</time>
      </trkpt>
      <trkpt lat="44.05779" lon="6.84771">
        <ele>968</ele>
        <time>2020-06-05T08:06:26.000Z</time>
      </trkpt>
      <trkpt lat="44.05778" lon="6.8477">
        <ele>968</ele>
        <time>2020-06-05T08:06:27.000Z</time>
      </trkpt>
      <trkpt lat="44.05777" lon="6.84769">
        <ele>968</ele>
        <time>2020-06-05T08:06:28.000Z</time>
      </trkpt>
      <trkpt lat="44.05777" lon="6.84768">
        <ele>968</ele>
        <time>2020-06-05T08:06:29.000Z</time>
      </trkpt>
      <trkpt lat="44.05776" lon="6.84768">
        <ele>968</ele>
        <time>2020-06-05T08:06:30.000Z</time>
      </trkpt>
      <trkpt lat="44.05776" lon="6.84767">
        <ele>968</ele>
        <time>2020-06-05T08:06:31.000Z</time>
      </trkpt>
      <trkpt lat="44.05775" lon="6.84766">
        <ele>968</ele>
        <time>2020-06-05T08:06:32.000Z</time>
      </trkpt>
      <trkpt lat="44.05775" lon="6.84766">
        <ele>968</ele>
        <time>2020-06-05T08:06:33.000Z</time>
      </trkpt>
      <trkpt lat="44.05774" lon="6.84765">
        <ele>968</ele>
        <time>2020-06-05T08:06:34.000Z</time>
      </trkpt>
      <trkpt lat="44.05774" lon="6.84765">
        <ele>968</ele>
        <time>2020-06-05T08:06:35.000Z</time>
      </trkpt>
      <trkpt lat="44.05774" lon="6.84765">
        <ele>968</ele>
        <time>2020-06-05T08:06:36.000Z</time>
      </trkpt>
      <trkpt lat="44.05774" lon="6.84764">
        <ele>968</ele>
        <time>2020-06-05T08:06:37.000Z</time>
      </trkpt>
      <trkpt lat="44.05774" lon="6.84764">
        <ele>968</ele>
        <time>2020-06-05T08:06:38.000Z</time>
      </trkpt>
      <trkpt lat="44.05774" lon="6.84764">
        <ele>968</ele>
        <time>2020-06-05T08:06:39.000Z</time>
      </trkpt>
      <trkpt lat="44.05774" lon="6.84764">
        <ele>968</ele>
        <time>2020-06-05T08:06:40.000Z</time>
      </trkpt>
      <trkpt lat="44.05774" lon="6.84764">
        <ele>968</ele>
        <time>2020-06-05T08:06:41.000Z</time>
      </trkpt>
      <trkpt lat="44.05774" lon="6.84763">
        <ele>968</ele>
        <time>2020-06-05T08:06:42.000Z</time>
      </trkpt>
      <trkpt lat="44.05773" lon="6.84763">
        <ele>968</ele>
        <time>2020-06-05T08:06:43.000Z</time>
      </trkpt>
      <trkpt lat="44.05773" lon="6.84763">
        <ele>968</ele>
        <time>2020-06-05T08:06:44.000Z</time>
      </trkpt>
      <trkpt lat="44.05773" lon="6.84763">
        <ele>968</ele>
        <time>2020-06-05T08:06:45.000Z</time>
      </trkpt>
      <trkpt lat="44.05773" lon="6.84762">
        <ele>968</ele>
        <time>2020-06-05T08:06:46.000Z</time>
      </trkpt>
      <trkpt lat="44.05773" lon="6.84762">
        <ele>968</ele>
        <time>2020-06-05T08:06:47.000Z</time>
      </trkpt>
      <trkpt lat="44.05773" lon="6.84762">
        <ele>968</ele>
        <time>2020-06-05T08:06:48.000Z</time>
      </trkpt>
      <trkpt lat="44.05773" lon="6.84762">
        <ele>968</ele>
        <time>2020-06-05T08:06:49.000Z</time>
      </trkpt>
      <trkpt lat="44.05773" lon="6.84762">
        <ele>968</ele>
        <time>2020-06-05T08:06:50.000Z</time>
      </trkpt>
      <trkpt lat="44.05773" lon="6.84762">
        <ele>968</ele>
        <time>2020-06-05T08:06:51.000Z</time>
      </trkpt>
      <trkpt lat="44.05773" lon="6.84762">
        <ele>968</ele>
        <time>2020-06-05T08:06:52.000Z</time>
      </trkpt>
      <trkpt lat="44.05773" lon="6.84762">
        <ele>969</ele>
        <time>2020-06-05T08:06:53.000Z</time>
      </trkpt>
      <trkpt lat="44.05773" lon="6.84762">
        <ele>969</ele>
        <time>2020-06-05T08:06:54.000Z</time>
      </trkpt>
      <trkpt lat="44.05773" lon="6.84762">
        <ele>969</ele>
        <time>2020-06-05T08:06:55.000Z</time>
      </trkpt>
      <trkpt lat="44.05773" lon="6.84761">
        <ele>969</ele>
        <time>2020-06-05T08:06:56.000Z</time>
      </trkpt>
      <trkpt lat="44.05773" lon="6.84761">
        <ele>969</ele>
        <time>2020-06-05T08:06:57.000Z</time>
      </trkpt>
      <trkpt lat="44.05773" lon="6.84761">
        <ele>969</ele>
        <time>2020-06-05T08:06:58.000Z</time>
      </trkpt>
      <trkpt lat="44.05772" lon="6.84761">
        <ele>969</ele>
        <time>2020-06-05T08:06:59.000Z</time>
      </trkpt>
      <trkpt lat="44.05772" lon="6.84761">
        <ele>969</ele>
        <time>2020-06-05T08:07:00.000Z</time>
      </trkpt>
      <trkpt lat="44.05772" lon="6.8476">
        <ele>969</ele>
        <time>2020-06-05T08:07:01.000Z</time>
      </trkpt>
      <trkpt lat="44.05772" lon="6.8476">
        <ele>969</ele>
        <time>2020-06-05T08:07:02.000Z</time>
      </trkpt>
      <trkpt lat="44.05772" lon="6.8476">
        <ele>969</ele>
        <time>2020-06-05T08:07:03.000Z</time>
      </trkpt>
      <trkpt lat="44.05772" lon="6.8476">
        <ele>969</ele>
        <time>2020-06-05T08:07:04.000Z</time>
      </trkpt>
      <trkpt lat="44.05772" lon="6.8476">
        <ele>969</ele>
        <time>2020-06-05T08:07:05.000Z</time>
      </trkpt>
      <trkpt lat="44.05772" lon="6.8476">
        <ele>969</ele>
        <time>2020-06-05T08:07:06.000Z</time>
      </trkpt>
      <trkpt lat="44.05772" lon="6.8476">
        <ele>969</ele>
        <time>2020-06-05T08:07:07.000Z</time>
      </trkpt>
      <trkpt lat="44.05772" lon="6.8476">
        <ele>969</ele>
        <time>2020-06-05T08:07:08.000Z</time>
      </trkpt>
      <trkpt lat="44.05772" lon="6.8476">
        <ele>969</ele>
        <time>2020-06-05T08:07:09.000Z</time>
      </trkpt>
      <trkpt lat="44.05772" lon="6.8476">
        <ele>969</ele>
        <time>2020-06-05T08:07:10.000Z</time>
      </trkpt>
      <trkpt lat="44.05772" lon="6.8476">
        <ele>969</ele>
        <time>2020-06-05T08:07:11.000Z</time>
      </trkpt>
      <trkpt lat="44.05772" lon="6.8476">
        <ele>969</ele>
        <time>2020-06-05T08:07:12.000Z</time>
      </trkpt>
      <trkpt lat="44.05772" lon="6.8476">
        <ele>969</ele>
        <time>2020-06-05T08:07:13.000Z</time>
      </trkpt>
      <trkpt lat="44.05772" lon="6.8476">
        <ele>969</ele>
        <time>2020-06-05T08:07:14.000Z</time>
      </trkpt>
      <trkpt lat="44.05772" lon="6.8476">
        <ele>969</ele>
        <time>2020-06-05T08:07:15.000Z</time>
      </trkpt>
      <trkpt lat="44.05772" lon="6.8476">
        <ele>969</ele>
        <time>2020-06-05T08:07:16.000Z</time>
      </trkpt>
      <trkpt lat="44.05772" lon="6.8476">
        <ele>970</ele>
        <time>2020-06-05T08:07:17.000Z</time>
      </trkpt>
      <trkpt lat="44.05772" lon="6.8476">
        <ele>970</ele>
        <time>2020-06-05T08:07:18.000Z</time>
      </trkpt>
      <trkpt lat="44.05772" lon="6.8476">
        <ele>970</ele>
        <time>2020-06-05T08:07:19.000Z</time>
      </trkpt>
      <trkpt lat="44.05772" lon="6.8476">
        <ele>970</ele>
        <time>2020-06-05T08:07:20.000Z</time>
      </trkpt>
      <trkpt lat="44.05772" lon="6.8476">
        <ele>970</ele>
        <time>2020-06-05T08:07:21.000Z</time>
      </trkpt>
      <trkpt lat="44.05772" lon="6.8476">
        <ele>970</ele>
        <time>2020-06-05T08:07:22.000Z</time>
      </trkpt>
      <trkpt lat="44.05772" lon="6.8476">
        <ele>970</ele>
        <time>2020-06-05T08:07:23.000Z</time>
      </trkpt>
      <trkpt lat="44.05772" lon="6.8476">
        <ele>970</ele>
        <time>2020-06-05T08:07:24.000Z</time>
      </trkpt>
      <trkpt lat="44.05772" lon="6.8476">
        <ele>970</ele>
        <time>2020-06-05T08:07:25.000Z</time>
      </trkpt>
      <trkpt lat="44.05772" lon="6.8476">
        <ele>970</ele>
        <time>2020-06-05T08:07:26.000Z</time>
      </trkpt>
      <trkpt lat="44.05772" lon="6.8476">
        <ele>970</ele>
        <time>2020-06-05T08:07:27.000Z</time>
      </trkpt>
      <trkpt lat="44.05772" lon="6.8476">
        <ele>970</ele>
        <time>2020-06-05T08:07:28.000Z</time>
      </trkpt>
      <trkpt lat="44.05772" lon="6.84759">
        <ele>970</ele>
        <time>2020-06-05T08:07:29.000Z</time>
      </trkpt>
      <trkpt lat="44.05772" lon="6.84759">
        <ele>970</ele>
        <time>2020-06-05T08:07:30.000Z</time>
      </trkpt>
      <trkpt lat="44.05772" lon="6.84759">
        <ele>971</ele>
        <time>2020-06-05T08:07:31.000Z</time>
      </trkpt>
      <trkpt lat="44.05772" lon="6.84759">
        <ele>971</ele>
        <time>2020-06-05T08:07:32.000Z</time>
      </trkpt>
      <trkpt lat="44.05772" lon="6.84759">
        <ele>971</ele>
        <time>2020-06-05T08:07:33.000Z</time>
      </trkpt>
      <trkpt lat="44.05772" lon="6.84759">
        <ele>971</ele>
        <time>2020-06-05T08:07:34.000Z</time>
      </trkpt>
      <trkpt lat="44.05772" lon="6.84759">
        <ele>971</ele>
        <time>2020-06-05T08:07:35.000Z</time>
      </trkpt>
      <trkpt lat="44.05772" lon="6.84759">
        <ele>971</ele>
        <time>2020-06-05T08:07:36.000Z</time>
      </trkpt>
      <trkpt lat="44.05772" lon="6.84758">
        <ele>971</ele>
        <time>2020-06-05T08:07:37.000Z</time>
      </trkpt>
      <trkpt lat="44.05772" lon="6.84757">
        <ele>971</ele>
        <time>2020-06-05T08:07:38.000Z</time>
      </trkpt>
      <trkpt lat="44.05772" lon="6.84756">
        <ele>971</ele>
        <time>2020-06-05T08:07:39.000Z</time>
      </trkpt>
      <trkpt lat="44.05772" lon="6.84755">
        <ele>971</ele>
        <time>2020-06-05T08:07:40.000Z</time>
      </trkpt>
      <trkpt lat="44.05771" lon="6.84754">
        <ele>971</ele>
        <time>2020-06-05T08:07:41.000Z</time>
      </trkpt>
      <trkpt lat="44.05771" lon="6.84753">
        <ele>971</ele>
        <time>2020-06-05T08:07:42.000Z</time>
      </trkpt>
      <trkpt lat="44.05771" lon="6.84752">
        <ele>971</ele>
        <time>2020-06-05T08:07:43.000Z</time>
      </trkpt>
      <trkpt lat="44.05771" lon="6.84751">
        <ele>972</ele>
        <time>2020-06-05T08:07:44.000Z</time>
      </trkpt>
      <trkpt lat="44.0577" lon="6.8475">
        <ele>972</ele>
        <time>2020-06-05T08:07:45.000Z</time>
      </trkpt>
      <trkpt lat="44.0577" lon="6.84749">
        <ele>972</ele>
        <time>2020-06-05T08:07:46.000Z</time>
      </trkpt>
      <trkpt lat="44.0577" lon="6.84747">
        <ele>972</ele>
        <time>2020-06-05T08:07:47.000Z</time>
      </trkpt>
      <trkpt lat="44.0577" lon="6.84746">
        <ele>972</ele>
        <time>2020-06-05T08:07:48.000Z</time>
      </trkpt>
      <trkpt lat="44.0577" lon="6.84745">
        <ele>972</ele>
        <time>2020-06-05T08:07:49.000Z</time>
      </trkpt>
      <trkpt lat="44.05769" lon="6.84744">
        <ele>972</ele>
        <time>2020-06-05T08:07:50.000Z</time>
      </trkpt>
      <trkpt lat="44.05769" lon="6.84743">
        <ele>972</ele>
        <time>2020-06-05T08:07:51.000Z</time>
      </trkpt>
      <trkpt lat="44.05769" lon="6.84742">
        <ele>972</ele>
        <time>2020-06-05T08:07:52.000Z</time>
      </trkpt>
      <trkpt lat="44.05768" lon="6.8474">
        <ele>972</ele>
        <time>2020-06-05T08:07:53.000Z</time>
      </trkpt>
      <trkpt lat="44.05768" lon="6.84739">
        <ele>972</ele>
        <time>2020-06-05T08:07:54.000Z</time>
      </trkpt>
      <trkpt lat="44.05768" lon="6.84738">
        <ele>972</ele>
        <time>2020-06-05T08:07:55.000Z</time>
      </trkpt>
      <trkpt lat="44.05768" lon="6.84738">
        <ele>973</ele>
        <time>2020-06-05T08:07:56.000Z</time>
      </trkpt>
      <trkpt lat="44.05768" lon="6.84738">
        <ele>973</ele>
        <time>2020-06-05T08:07:57.000Z</time>
      </trkpt>
      <trkpt lat="44.05768" lon="6.84738">
        <ele>973</ele>
        <time>2020-06-05T08:07:58.000Z</time>
      </trkpt>
      <trkpt lat="44.05768" lon="6.84737">
        <ele>973</ele>
        <time>2020-06-05T08:07:59.000Z</time>
      </trkpt>
      <trkpt lat="44.05768" lon="6.84737">
        <ele>973</ele>
        <time>2020-06-05T08:08:00.000Z</time>
      </trkpt>
      <trkpt lat="44.05768" lon="6.84737">
        <ele>973</ele>
        <time>2020-06-05T08:08:01.000Z</time>
      </trkpt>
      <trkpt lat="44.05768" lon="6.84737">
        <ele>973</ele>
        <time>2020-06-05T08:08:02.000Z</time>
      </trkpt>
      <trkpt lat="44.05768" lon="6.84737">
        <ele>973</ele>
        <time>2020-06-05T08:08:03.000Z</time>
      </trkpt>
      <trkpt lat="44.05768" lon="6.84737">
        <ele>973</ele>
        <time>2020-06-05T08:08:04.000Z</time>
      </trkpt>
      <trkpt lat="44.05768" lon="6.84737">
        <ele>974</ele>
        <time>2020-06-05T08:08:05.000Z</time>
      </trkpt>
      <trkpt lat="44.05767" lon="6.84737">
        <ele>974</ele>
        <time>2020-06-05T08:08:06.000Z</time>
      </trkpt>
      <trkpt lat="44.05767" lon="6.84737">
        <ele>974</ele>
        <time>2020-06-05T08:08:07.000Z</time>
      </trkpt>
      <trkpt lat="44.05767" lon="6.84737">
        <ele>974</ele>
        <time>2020-06-05T08:08:08.000Z</time>
      </trkpt>
      <trkpt lat="44.05767" lon="6.84737">
        <ele>974</ele>
        <time>2020-06-05T08:08:09.000Z</time>
      </trkpt>
      <trkpt lat="44.05767" lon="6.84737">
        <ele>974</ele>
        <time>2020-06-05T08:08:10.000Z</time>
      </trkpt>
      <trkpt lat="44.05767" lon="6.84737">
        <ele>974</ele>
        <time>2020-06-05T08:08:11.000Z</time>
      </trkpt>
      <trkpt lat="44.05767" lon="6.84737">
        <ele>974</ele>
        <time>2020-06-05T08:08:12.000Z</time>
      </trkpt>
      <trkpt lat="44.05767" lon="6.84737">
        <ele>974</ele>
        <time>2020-06-05T08:08:13.000Z</time>
      </trkpt>
      <trkpt lat="44.05767" lon="6.84737">
        <ele>974</ele>
        <time>2020-06-05T08:08:14.000Z</time>
      </trkpt>
      <trkpt lat="44.05767" lon="6.84736">
        <ele>974</ele>
        <time>2020-06-05T08:08:15.000Z</time>
      </trkpt>
      <trkpt lat="44.05767" lon="6.84736">
        <ele>974</ele>
        <time>2020-06-05T08:08:16.000Z</time>
      </trkpt>
      <trkpt lat="44.05767" lon="6.84736">
        <ele>974</ele>
        <time>2020-06-05T08:08:17.000Z</time>
      </trkpt>
      <trkpt lat="44.05767" lon="6.84736">
        <ele>974</ele>
        <time>2020-06-05T08:08:18.000Z</time>
      </trkpt>
      <trkpt lat="44.05767" lon="6.84736">
        <ele>974</ele>
        <time>2020-06-05T08:08:19.000Z</time>
      </trkpt>
      <trkpt lat="44.05767" lon="6.84736">
        <ele>974</ele>
        <time>2020-06-05T08:08:20.000Z</time>
      </trkpt>
      <trkpt lat="44.05767" lon="6.84736">
        <ele>974</ele>
        <time>2020-06-05T08:08:21.000Z</time>
      </trkpt>
      <trkpt lat="44.05767" lon="6.84736">
        <ele>974</ele>
        <time>2020-06-05T08:08:22.000Z</time>
      </trkpt>
      <trkpt lat="44.05767" lon="6.84736">
        <ele>974</ele>
        <time>2020-06-05T08:08:23.000Z</time>
      </trkpt>
      <trkpt lat="44.05766" lon="6.84736">
        <ele>974</ele>
        <time>2020-06-05T08:08:24.000Z</time>
      </trkpt>
      <trkpt lat="44.05766" lon="6.84736">
        <ele>974</ele>
        <time>2020-06-05T08:08:25.000Z</time>
      </trkpt>
      <trkpt lat="44.05767" lon="6.84736">
        <ele>974</ele>
        <time>2020-06-05T08:08:26.000Z</time>
      </trkpt>
      <trkpt lat="44.05767" lon="6.84736">
        <ele>974</ele>
        <time>2020-06-05T08:08:27.000Z</time>
      </trkpt>
      <trkpt lat="44.05767" lon="6.84736">
        <ele>974</ele>
        <time>2020-06-05T08:08:28.000Z</time>
      </trkpt>
      <trkpt lat="44.05767" lon="6.84736">
        <ele>974</ele>
        <time>2020-06-05T08:08:29.000Z</time>
      </trkpt>
      <trkpt lat="44.05767" lon="6.84735">
        <ele>974</ele>
        <time>2020-06-05T08:08:30.000Z</time>
      </trkpt>
      <trkpt lat="44.05767" lon="6.84735">
        <ele>975</ele>
        <time>2020-06-05T08:08:31.000Z</time>
      </trkpt>
      <trkpt lat="44.05767" lon="6.84735">
        <ele>975</ele>
        <time>2020-06-05T08:08:32.000Z</time>
      </trkpt>
      <trkpt lat="44.05767" lon="6.84735">
        <ele>975</ele>
        <time>2020-06-05T08:08:33.000Z</time>
      </trkpt>
      <trkpt lat="44.05767" lon="6.84735">
        <ele>975</ele>
        <time>2020-06-05T08:08:34.000Z</time>
      </trkpt>
      <trkpt lat="44.05767" lon="6.84735">
        <ele>975</ele>
        <time>2020-06-05T08:08:35.000Z</time>
      </trkpt>
      <trkpt lat="44.05767" lon="6.84735">
        <ele>975</ele>
        <time>2020-06-05T08:08:36.000Z</time>
      </trkpt>
      <trkpt lat="44.05767" lon="6.84735">
        <ele>975</ele>
        <time>2020-06-05T08:08:37.000Z</time>
      </trkpt>
      <trkpt lat="44.05767" lon="6.84735">
        <ele>975</ele>
        <time>2020-06-05T08:08:38.000Z</time>
      </trkpt>
      <trkpt lat="44.05767" lon="6.84735">
        <ele>975</ele>
        <time>2020-06-05T08:08:39.000Z</time>
      </trkpt>
      <trkpt lat="44.05767" lon="6.84735">
        <ele>975</ele>
        <time>2020-06-05T08:08:40.000Z</time>
      </trkpt>
      <trkpt lat="44.05767" lon="6.84735">
        <ele>975</ele>
        <time>2020-06-05T08:08:41.000Z</time>
      </trkpt>
      <trkpt lat="44.05767" lon="6.84736">
        <ele>975</ele>
        <time>2020-06-05T08:08:42.000Z</time>
      </trkpt>
      <trkpt lat="44.05767" lon="6.84736">
        <ele>975</ele>
        <time>2020-06-05T08:08:43.000Z</time>
      </trkpt>
      <trkpt lat="44.05767" lon="6.84736">
        <ele>975</ele>
        <time>2020-06-05T08:08:44.000Z</time>
      </trkpt>
      <trkpt lat="44.05766" lon="6.84736">
        <ele>975</ele>
        <time>2020-06-05T08:08:45.000Z</time>
      </trkpt>
      <trkpt lat="44.05766" lon="6.84736">
        <ele>975</ele>
        <time>2020-06-05T08:08:46.000Z</time>
      </trkpt>
      <trkpt lat="44.05766" lon="6.84736">
        <ele>975</ele>
        <time>2020-06-05T08:08:47.000Z</time>
      </trkpt>
      <trkpt lat="44.05766" lon="6.84736">
        <ele>975</ele>
        <time>2020-06-05T08:08:48.000Z</time>
      </trkpt>
      <trkpt lat="44.05766" lon="6.84736">
        <ele>975</ele>
        <time>2020-06-05T08:08:49.000Z</time>
      </trkpt>
      <trkpt lat="44.05766" lon="6.84735">
        <ele>975</ele>
        <time>2020-06-05T08:08:50.000Z</time>
      </trkpt>
      <trkpt lat="44.05766" lon="6.84735">
        <ele>975</ele>
        <time>2020-06-05T08:08:51.000Z</time>
      </trkpt>
      <trkpt lat="44.05766" lon="6.84735">
        <ele>976</ele>
        <time>2020-06-05T08:08:52.000Z</time>
      </trkpt>
      <trkpt lat="44.05766" lon="6.84735">
        <ele>976</ele>
        <time>2020-06-05T08:08:53.000Z</time>
      </trkpt>
      <trkpt lat="44.05766" lon="6.84735">
        <ele>976</ele>
        <time>2020-06-05T08:08:54.000Z</time>
      </trkpt>
      <trkpt lat="44.05766" lon="6.84734">
        <ele>976</ele>
        <time>2020-06-05T08:08:55.000Z</time>
      </trkpt>
      <trkpt lat="44.05766" lon="6.84734">
        <ele>976</ele>
        <time>2020-06-05T08:08:56.000Z</time>
      </trkpt>
      <trkpt lat="44.05766" lon="6.84735">
        <ele>976</ele>
        <time>2020-06-05T08:08:57.000Z</time>
      </trkpt>
      <trkpt lat="44.05766" lon="6.84734">
        <ele>976</ele>
        <time>2020-06-05T08:08:58.000Z</time>
      </trkpt>
      <trkpt lat="44.05766" lon="6.84734">
        <ele>976</ele>
        <time>2020-06-05T08:08:59.000Z</time>
      </trkpt>
      <trkpt lat="44.05766" lon="6.84734">
        <ele>976</ele>
        <time>2020-06-05T08:09:00.000Z</time>
      </trkpt>
      <trkpt lat="44.05766" lon="6.84734">
        <ele>976</ele>
        <time>2020-06-05T08:09:01.000Z</time>
      </trkpt>
      <trkpt lat="44.05766" lon="6.84734">
        <ele>976</ele>
        <time>2020-06-05T08:09:02.000Z</time>
      </trkpt>
      <trkpt lat="44.05766" lon="6.84734">
        <ele>976</ele>
        <time>2020-06-05T08:09:03.000Z</time>
      </trkpt>
      <trkpt lat="44.05766" lon="6.84733">
        <ele>976</ele>
        <time>2020-06-05T08:09:04.000Z</time>
      </trkpt>
      <trkpt lat="44.05767" lon="6.84733">
        <ele>976</ele>
        <time>2020-06-05T08:09:05.000Z</time>
      </trkpt>
      <trkpt lat="44.05767" lon="6.84732">
        <ele>976</ele>
        <time>2020-06-05T08:09:06.000Z</time>
      </trkpt>
      <trkpt lat="44.05768" lon="6.84731">
        <ele>976</ele>
        <time>2020-06-05T08:09:07.000Z</time>
      </trkpt>
      <trkpt lat="44.05769" lon="6.8473">
        <ele>976</ele>
        <time>2020-06-05T08:09:08.000Z</time>
      </trkpt>
      <trkpt lat="44.05769" lon="6.84729">
        <ele>976</ele>
        <time>2020-06-05T08:09:09.000Z</time>
      </trkpt>
      <trkpt lat="44.0577" lon="6.84728">
        <ele>976</ele>
        <time>2020-06-05T08:09:10.000Z</time>
      </trkpt>
      <trkpt lat="44.05771" lon="6.84727">
        <ele>976</ele>
        <time>2020-06-05T08:09:11.000Z</time>
      </trkpt>
      <trkpt lat="44.05771" lon="6.84726">
        <ele>976</ele>
        <time>2020-06-05T08:09:12.000Z</time>
      </trkpt>
      <trkpt lat="44.05772" lon="6.84726">
        <ele>977</ele>
        <time>2020-06-05T08:09:13.000Z</time>
      </trkpt>
      <trkpt lat="44.05773" lon="6.84726">
        <ele>977</ele>
        <time>2020-06-05T08:09:14.000Z</time>
      </trkpt>
      <trkpt lat="44.05773" lon="6.84725">
        <ele>977</ele>
        <time>2020-06-05T08:09:15.000Z</time>
      </trkpt>
      <trkpt lat="44.05774" lon="6.84724">
        <ele>977</ele>
        <time>2020-06-05T08:09:16.000Z</time>
      </trkpt>
      <trkpt lat="44.05774" lon="6.84724">
        <ele>977</ele>
        <time>2020-06-05T08:09:17.000Z</time>
      </trkpt>
      <trkpt lat="44.05775" lon="6.84723">
        <ele>977</ele>
        <time>2020-06-05T08:09:18.000Z</time>
      </trkpt>
      <trkpt lat="44.05776" lon="6.84723">
        <ele>977</ele>
        <time>2020-06-05T08:09:19.000Z</time>
      </trkpt>
      <trkpt lat="44.05776" lon="6.84722">
        <ele>977</ele>
        <time>2020-06-05T08:09:20.000Z</time>
      </trkpt>
      <trkpt lat="44.05777" lon="6.84721">
        <ele>977</ele>
        <time>2020-06-05T08:09:21.000Z</time>
      </trkpt>
      <trkpt lat="44.05777" lon="6.84721">
        <ele>977</ele>
        <time>2020-06-05T08:09:22.000Z</time>
      </trkpt>
      <trkpt lat="44.05778" lon="6.8472">
        <ele>977</ele>
        <time>2020-06-05T08:09:23.000Z</time>
      </trkpt>
      <trkpt lat="44.05779" lon="6.8472">
        <ele>977</ele>
        <time>2020-06-05T08:09:24.000Z</time>
      </trkpt>
      <trkpt lat="44.05779" lon="6.84719">
        <ele>977</ele>
        <time>2020-06-05T08:09:25.000Z</time>
      </trkpt>
      <trkpt lat="44.0578" lon="6.84719">
        <ele>977</ele>
        <time>2020-06-05T08:09:26.000Z</time>
      </trkpt>
      <trkpt lat="44.0578" lon="6.84718">
        <ele>977</ele>
        <time>2020-06-05T08:09:27.000Z</time>
      </trkpt>
      <trkpt lat="44.05781" lon="6.84718">
        <ele>977</ele>
        <time>2020-06-05T08:09:28.000Z</time>
      </trkpt>
      <trkpt lat="44.05781" lon="6.84717">
        <ele>977</ele>
        <time>2020-06-05T08:09:29.000Z</time>
      </trkpt>
      <trkpt lat="44.05782" lon="6.84716">
        <ele>977</ele>
        <time>2020-06-05T08:09:30.000Z</time>
      </trkpt>
      <trkpt lat="44.05782" lon="6.84715">
        <ele>977</ele>
        <time>2020-06-05T08:09:31.000Z</time>
      </trkpt>
      <trkpt lat="44.05783" lon="6.84714">
        <ele>977</ele>
        <time>2020-06-05T08:09:32.000Z</time>
      </trkpt>
      <trkpt lat="44.05783" lon="6.84714">
        <ele>978</ele>
        <time>2020-06-05T08:09:33.000Z</time>
      </trkpt>
      <trkpt lat="44.05784" lon="6.84713">
        <ele>978</ele>
        <time>2020-06-05T08:09:34.000Z</time>
      </trkpt>
      <trkpt lat="44.05784" lon="6.84712">
        <ele>978</ele>
        <time>2020-06-05T08:09:35.000Z</time>
      </trkpt>
      <trkpt lat="44.05784" lon="6.84711">
        <ele>978</ele>
        <time>2020-06-05T08:09:36.000Z</time>
      </trkpt>
      <trkpt lat="44.05785" lon="6.8471">
        <ele>978</ele>
        <time>2020-06-05T08:09:37.000Z</time>
      </trkpt>
      <trkpt lat="44.05786" lon="6.84709">
        <ele>979</ele>
        <time>2020-06-05T08:09:38.000Z</time>
      </trkpt>
      <trkpt lat="44.05786" lon="6.84709">
        <ele>979</ele>
        <time>2020-06-05T08:09:39.000Z</time>
      </trkpt>
      <trkpt lat="44.05787" lon="6.84708">
        <ele>979</ele>
        <time>2020-06-05T08:09:40.000Z</time>
      </trkpt>
      <trkpt lat="44.05787" lon="6.84707">
        <ele>979</ele>
        <time>2020-06-05T08:09:41.000Z</time>
      </trkpt>
      <trkpt lat="44.05788" lon="6.84706">
        <ele>979</ele>
        <time>2020-06-05T08:09:42.000Z</time>
      </trkpt>
      <trkpt lat="44.05788" lon="6.84706">
        <ele>979</ele>
        <time>2020-06-05T08:09:43.000Z</time>
      </trkpt>
      <trkpt lat="44.05789" lon="6.84705">
        <ele>980</ele>
        <time>2020-06-05T08:09:44.000Z</time>
      </trkpt>
      <trkpt lat="44.05789" lon="6.84704">
        <ele>980</ele>
        <time>2020-06-05T08:09:45.000Z</time>
      </trkpt>
      <trkpt lat="44.05789" lon="6.84703">
        <ele>980</ele>
        <time>2020-06-05T08:09:46.000Z</time>
      </trkpt>
      <trkpt lat="44.05789" lon="6.84702">
        <ele>980</ele>
        <time>2020-06-05T08:09:47.000Z</time>
      </trkpt>
      <trkpt lat="44.05789" lon="6.84701">
        <ele>980</ele>
        <time>2020-06-05T08:09:48.000Z</time>
      </trkpt>
      <trkpt lat="44.0579" lon="6.847">
        <ele>980</ele>
        <time>2020-06-05T08:09:49.000Z</time>
      </trkpt>
      <trkpt lat="44.0579" lon="6.84699">
        <ele>981</ele>
        <time>2020-06-05T08:09:50.000Z</time>
      </trkpt>
      <trkpt lat="44.0579" lon="6.84698">
        <ele>981</ele>
        <time>2020-06-05T08:09:51.000Z</time>
      </trkpt>
      <trkpt lat="44.0579" lon="6.84698">
        <ele>981</ele>
        <time>2020-06-05T08:09:52.000Z</time>
      </trkpt>
      <trkpt lat="44.0579" lon="6.84698">
        <ele>981</ele>
        <time>2020-06-05T08:09:53.000Z</time>
      </trkpt>
      <trkpt lat="44.0579" lon="6.84697">
        <ele>981</ele>
        <time>2020-06-05T08:09:54.000Z</time>
      </trkpt>
      <trkpt lat="44.0579" lon="6.84697">
        <ele>981</ele>
        <time>2020-06-05T08:09:55.000Z</time>
      </trkpt>
      <trkpt lat="44.0579" lon="6.84697">
        <ele>981</ele>
        <time>2020-06-05T08:09:56.000Z</time>
      </trkpt>
      <trkpt lat="44.0579" lon="6.84697">
        <ele>981</ele>
        <time>2020-06-05T08:09:57.000Z</time>
      </trkpt>
      <trkpt lat="44.0579" lon="6.84697">
        <ele>981</ele>
        <time>2020-06-05T08:09:58.000Z</time>
      </trkpt>
      <trkpt lat="44.0579" lon="6.84697">
        <ele>982</ele>
        <time>2020-06-05T08:09:59.000Z</time>
      </trkpt>
      <trkpt lat="44.0579" lon="6.84696">
        <ele>982</ele>
        <time>2020-06-05T08:10:00.000Z</time>
      </trkpt>
      <trkpt lat="44.0579" lon="6.84696">
        <ele>982</ele>
        <time>2020-06-05T08:10:01.000Z</time>
      </trkpt>
      <trkpt lat="44.0579" lon="6.84696">
        <ele>982</ele>
        <time>2020-06-05T08:10:02.000Z</time>
      </trkpt>
      <trkpt lat="44.0579" lon="6.84696">
        <ele>982</ele>
        <time>2020-06-05T08:10:03.000Z</time>
      </trkpt>
      <trkpt lat="44.0579" lon="6.84696">
        <ele>982</ele>
        <time>2020-06-05T08:10:04.000Z</time>
      </trkpt>
      <trkpt lat="44.05789" lon="6.84696">
        <ele>982</ele>
        <time>2020-06-05T08:10:05.000Z</time>
      </trkpt>
      <trkpt lat="44.05789" lon="6.84696">
        <ele>982</ele>
        <time>2020-06-05T08:10:06.000Z</time>
      </trkpt>
      <trkpt lat="44.05789" lon="6.84696">
        <ele>982</ele>
        <time>2020-06-05T08:10:07.000Z</time>
      </trkpt>
      <trkpt lat="44.05789" lon="6.84696">
        <ele>982</ele>
        <time>2020-06-05T08:10:08.000Z</time>
      </trkpt>
      <trkpt lat="44.05789" lon="6.84696">
        <ele>982</ele>
        <time>2020-06-05T08:10:09.000Z</time>
      </trkpt>
      <trkpt lat="44.05789" lon="6.84696">
        <ele>982</ele>
        <time>2020-06-05T08:10:10.000Z</time>
      </trkpt>
      <trkpt lat="44.05789" lon="6.84696">
        <ele>982</ele>
        <time>2020-06-05T08:10:11.000Z</time>
      </trkpt>
      <trkpt lat="44.05789" lon="6.84696">
        <ele>982</ele>
        <time>2020-06-05T08:10:12.000Z</time>
      </trkpt>
      <trkpt lat="44.05789" lon="6.84696">
        <ele>982</ele>
        <time>2020-06-05T08:10:13.000Z</time>
      </trkpt>
      <trkpt lat="44.05789" lon="6.84696">
        <ele>982</ele>
        <time>2020-06-05T08:10:14.000Z</time>
      </trkpt>
      <trkpt lat="44.05789" lon="6.84696">
        <ele>982</ele>
        <time>2020-06-05T08:10:15.000Z</time>
      </trkpt>
      <trkpt lat="44.05789" lon="6.84696">
        <ele>982</ele>
        <time>2020-06-05T08:10:16.000Z</time>
      </trkpt>
      <trkpt lat="44.05789" lon="6.84696">
        <ele>982</ele>
        <time>2020-06-05T08:10:17.000Z</time>
      </trkpt>
      <trkpt lat="44.05789" lon="6.84696">
        <ele>982</ele>
        <time>2020-06-05T08:10:18.000Z</time>
      </trkpt>
      <trkpt lat="44.05789" lon="6.84696">
        <ele>982</ele>
        <time>2020-06-05T08:10:19.000Z</time>
      </trkpt>
      <trkpt lat="44.05789" lon="6.84696">
        <ele>982</ele>
        <time>2020-06-05T08:10:20.000Z</time>
      </trkpt>
      <trkpt lat="44.05789" lon="6.84696">
        <ele>982</ele>
        <time>2020-06-05T08:10:21.000Z</time>
      </trkpt>
      <trkpt lat="44.05789" lon="6.84696">
        <ele>982</ele>
        <time>2020-06-05T08:10:22.000Z</time>
      </trkpt>
      <trkpt lat="44.05789" lon="6.84696">
        <ele>983</ele>
        <time>2020-06-05T08:10:23.000Z</time>
      </trkpt>
      <trkpt lat="44.05789" lon="6.84696">
        <ele>983</ele>
        <time>2020-06-05T08:10:24.000Z</time>
      </trkpt>
      <trkpt lat="44.05789" lon="6.84696">
        <ele>983</ele>
        <time>2020-06-05T08:10:25.000Z</time>
      </trkpt>
      <trkpt lat="44.05789" lon="6.84696">
        <ele>983</ele>
        <time>2020-06-05T08:10:26.000Z</time>
      </trkpt>
      <trkpt lat="44.05789" lon="6.84696">
        <ele>983</ele>
        <time>2020-06-05T08:10:27.000Z</time>
      </trkpt>
      <trkpt lat="44.05789" lon="6.84695">
        <ele>983</ele>
        <time>2020-06-05T08:10:28.000Z</time>
      </trkpt>
      <trkpt lat="44.05789" lon="6.84694">
        <ele>983</ele>
        <time>2020-06-05T08:10:29.000Z</time>
      </trkpt>
      <trkpt lat="44.05789" lon="6.84693">
        <ele>983</ele>
        <time>2020-06-05T08:10:30.000Z</time>
      </trkpt>
      <trkpt lat="44.0579" lon="6.84692">
        <ele>983</ele>
        <time>2020-06-05T08:10:31.000Z</time>
      </trkpt>
      <trkpt lat="44.0579" lon="6.84691">
        <ele>983</ele>
        <time>2020-06-05T08:10:32.000Z</time>
      </trkpt>
      <trkpt lat="44.0579" lon="6.8469">
        <ele>983</ele>
        <time>2020-06-05T08:10:33.000Z</time>
      </trkpt>
      <trkpt lat="44.0579" lon="6.84689">
        <ele>983</ele>
        <time>2020-06-05T08:10:34.000Z</time>
      </trkpt>
      <trkpt lat="44.05791" lon="6.84688">
        <ele>983</ele>
        <time>2020-06-05T08:10:35.000Z</time>
      </trkpt>
      <trkpt lat="44.05791" lon="6.84687">
        <ele>983</ele>
        <time>2020-06-05T08:10:36.000Z</time>
      </trkpt>
      <trkpt lat="44.05791" lon="6.84686">
        <ele>983</ele>
        <time>2020-06-05T08:10:37.000Z</time>
      </trkpt>
      <trkpt lat="44.05792" lon="6.84685">
        <ele>983</ele>
        <time>2020-06-05T08:10:38.000Z</time>
      </trkpt>
      <trkpt lat="44.05792" lon="6.84684">
        <ele>983</ele>
        <time>2020-06-05T08:10:39.000Z</time>
      </trkpt>
      <trkpt lat="44.05792" lon="6.84683">
        <ele>983</ele>
        <time>2020-06-05T08:10:40.000Z</time>
      </trkpt>
      <trkpt lat="44.05793" lon="6.84682">
        <ele>984</ele>
        <time>2020-06-05T08:10:41.000Z</time>
      </trkpt>
      <trkpt lat="44.05793" lon="6.84681">
        <ele>984</ele>
        <time>2020-06-05T08:10:42.000Z</time>
      </trkpt>
      <trkpt lat="44.05794" lon="6.8468">
        <ele>984</ele>
        <time>2020-06-05T08:10:43.000Z</time>
      </trkpt>
      <trkpt lat="44.05794" lon="6.84679">
        <ele>984</ele>
        <time>2020-06-05T08:10:44.000Z</time>
      </trkpt>
      <trkpt lat="44.05795" lon="6.84679">
        <ele>984</ele>
        <time>2020-06-05T08:10:45.000Z</time>
      </trkpt>
      <trkpt lat="44.05795" lon="6.84678">
        <ele>984</ele>
        <time>2020-06-05T08:10:46.000Z</time>
      </trkpt>
      <trkpt lat="44.05796" lon="6.84677">
        <ele>984</ele>
        <time>2020-06-05T08:10:47.000Z</time>
      </trkpt>
      <trkpt lat="44.05796" lon="6.84676">
        <ele>984</ele>
        <time>2020-06-05T08:10:48.000Z</time>
      </trkpt>
      <trkpt lat="44.05796" lon="6.84675">
        <ele>984</ele>
        <time>2020-06-05T08:10:49.000Z</time>
      </trkpt>
      <trkpt lat="44.05797" lon="6.84674">
        <ele>985</ele>
        <time>2020-06-05T08:10:50.000Z</time>
      </trkpt>
      <trkpt lat="44.05797" lon="6.84673">
        <ele>985</ele>
        <time>2020-06-05T08:10:51.000Z</time>
      </trkpt>
      <trkpt lat="44.05798" lon="6.84672">
        <ele>985</ele>
        <time>2020-06-05T08:10:52.000Z</time>
      </trkpt>
      <trkpt lat="44.05798" lon="6.84672">
        <ele>985</ele>
        <time>2020-06-05T08:10:53.000Z</time>
      </trkpt>
      <trkpt lat="44.05799" lon="6.84671">
        <ele>985</ele>
        <time>2020-06-05T08:10:54.000Z</time>
      </trkpt>
      <trkpt lat="44.05799" lon="6.8467">
        <ele>985</ele>
        <time>2020-06-05T08:10:55.000Z</time>
      </trkpt>
      <trkpt lat="44.05799" lon="6.84669">
        <ele>985</ele>
        <time>2020-06-05T08:10:56.000Z</time>
      </trkpt>
      <trkpt lat="44.058" lon="6.84668">
        <ele>985</ele>
        <time>2020-06-05T08:10:57.000Z</time>
      </trkpt>
      <trkpt lat="44.058" lon="6.84668">
        <ele>985</ele>
        <time>2020-06-05T08:10:58.000Z</time>
      </trkpt>
      <trkpt lat="44.05801" lon="6.84667">
        <ele>985</ele>
        <time>2020-06-05T08:10:59.000Z</time>
      </trkpt>
      <trkpt lat="44.05801" lon="6.84666">
        <ele>986</ele>
        <time>2020-06-05T08:11:00.000Z</time>
      </trkpt>
      <trkpt lat="44.05802" lon="6.84665">
        <ele>986</ele>
        <time>2020-06-05T08:11:01.000Z</time>
      </trkpt>
      <trkpt lat="44.05802" lon="6.84664">
        <ele>986</ele>
        <time>2020-06-05T08:11:02.000Z</time>
      </trkpt>
      <trkpt lat="44.05803" lon="6.84663">
        <ele>986</ele>
        <time>2020-06-05T08:11:03.000Z</time>
      </trkpt>
      <trkpt lat="44.05803" lon="6.84662">
        <ele>986</ele>
        <time>2020-06-05T08:11:04.000Z</time>
      </trkpt>
      <trkpt lat="44.05804" lon="6.84661">
        <ele>986</ele>
        <time>2020-06-05T08:11:05.000Z</time>
      </trkpt>
      <trkpt lat="44.05804" lon="6.8466">
        <ele>986</ele>
        <time>2020-06-05T08:11:06.000Z</time>
      </trkpt>
      <trkpt lat="44.05804" lon="6.84659">
        <ele>986</ele>
        <time>2020-06-05T08:11:07.000Z</time>
      </trkpt>
      <trkpt lat="44.05804" lon="6.84658">
        <ele>987</ele>
        <time>2020-06-05T08:11:08.000Z</time>
      </trkpt>
      <trkpt lat="44.05805" lon="6.84657">
        <ele>987</ele>
        <time>2020-06-05T08:11:09.000Z</time>
      </trkpt>
      <trkpt lat="44.05805" lon="6.84656">
        <ele>987</ele>
        <time>2020-06-05T08:11:10.000Z</time>
      </trkpt>
      <trkpt lat="44.05805" lon="6.84654">
        <ele>987</ele>
        <time>2020-06-05T08:11:11.000Z</time>
      </trkpt>
      <trkpt lat="44.05805" lon="6.84653">
        <ele>987</ele>
        <time>2020-06-05T08:11:12.000Z</time>
      </trkpt>
      <trkpt lat="44.05806" lon="6.84652">
        <ele>987</ele>
        <time>2020-06-05T08:11:13.000Z</time>
      </trkpt>
      <trkpt lat="44.05806" lon="6.84651">
        <ele>987</ele>
        <time>2020-06-05T08:11:14.000Z</time>
      </trkpt>
      <trkpt lat="44.05806" lon="6.8465">
        <ele>987</ele>
        <time>2020-06-05T08:11:15.000Z</time>
      </trkpt>
      <trkpt lat="44.05806" lon="6.84649">
        <ele>988</ele>
        <time>2020-06-05T08:11:16.000Z</time>
      </trkpt>
      <trkpt lat="44.05807" lon="6.84648">
        <ele>988</ele>
        <time>2020-06-05T08:11:17.000Z</time>
      </trkpt>
      <trkpt lat="44.05807" lon="6.84646">
        <ele>988</ele>
        <time>2020-06-05T08:11:18.000Z</time>
      </trkpt>
      <trkpt lat="44.05808" lon="6.84645">
        <ele>988</ele>
        <time>2020-06-05T08:11:19.000Z</time>
      </trkpt>
      <trkpt lat="44.05808" lon="6.84644">
        <ele>988</ele>
        <time>2020-06-05T08:11:20.000Z</time>
      </trkpt>
      <trkpt lat="44.05808" lon="6.84643">
        <ele>988</ele>
        <time>2020-06-05T08:11:21.000Z</time>
      </trkpt>
      <trkpt lat="44.05809" lon="6.84642">
        <ele>989</ele>
        <time>2020-06-05T08:11:22.000Z</time>
      </trkpt>
      <trkpt lat="44.05809" lon="6.8464">
        <ele>989</ele>
        <time>2020-06-05T08:11:23.000Z</time>
      </trkpt>
      <trkpt lat="44.05809" lon="6.84639">
        <ele>989</ele>
        <time>2020-06-05T08:11:24.000Z</time>
      </trkpt>
      <trkpt lat="44.0581" lon="6.84638">
        <ele>989</ele>
        <time>2020-06-05T08:11:25.000Z</time>
      </trkpt>
      <trkpt lat="44.0581" lon="6.84638">
        <ele>989</ele>
        <time>2020-06-05T08:11:26.000Z</time>
      </trkpt>
      <trkpt lat="44.0581" lon="6.84637">
        <ele>989</ele>
        <time>2020-06-05T08:11:27.000Z</time>
      </trkpt>
      <trkpt lat="44.05811" lon="6.84636">
        <ele>990</ele>
        <time>2020-06-05T08:11:28.000Z</time>
      </trkpt>
      <trkpt lat="44.05811" lon="6.84635">
        <ele>990</ele>
        <time>2020-06-05T08:11:29.000Z</time>
      </trkpt>
      <trkpt lat="44.05811" lon="6.84634">
        <ele>990</ele>
        <time>2020-06-05T08:11:30.000Z</time>
      </trkpt>
      <trkpt lat="44.05811" lon="6.84633">
        <ele>990</ele>
        <time>2020-06-05T08:11:31.000Z</time>
      </trkpt>
      <trkpt lat="44.05811" lon="6.84632">
        <ele>990</ele>
        <time>2020-06-05T08:11:32.000Z</time>
      </trkpt>
      <trkpt lat="44.05811" lon="6.84631">
        <ele>990</ele>
        <time>2020-06-05T08:11:33.000Z</time>
      </trkpt>
      <trkpt lat="44.05811" lon="6.8463">
        <ele>990</ele>
        <time>2020-06-05T08:11:34.000Z</time>
      </trkpt>
      <trkpt lat="44.05812" lon="6.84629">
        <ele>990</ele>
        <time>2020-06-05T08:11:35.000Z</time>
      </trkpt>
      <trkpt lat="44.05812" lon="6.84628">
        <ele>990</ele>
        <time>2020-06-05T08:11:36.000Z</time>
      </trkpt>
      <trkpt lat="44.05812" lon="6.84628">
        <ele>990</ele>
        <time>2020-06-05T08:11:37.000Z</time>
      </trkpt>
      <trkpt lat="44.05812" lon="6.84627">
        <ele>990</ele>
        <time>2020-06-05T08:11:38.000Z</time>
      </trkpt>
      <trkpt lat="44.05812" lon="6.84625">
        <ele>990</ele>
        <time>2020-06-05T08:11:39.000Z</time>
      </trkpt>
      <trkpt lat="44.05812" lon="6.84624">
        <ele>990</ele>
        <time>2020-06-05T08:11:40.000Z</time>
      </trkpt>
      <trkpt lat="44.05812" lon="6.84623">
        <ele>990</ele>
        <time>2020-06-05T08:11:41.000Z</time>
      </trkpt>
      <trkpt lat="44.05812" lon="6.84622">
        <ele>991</ele>
        <time>2020-06-05T08:11:42.000Z</time>
      </trkpt>
      <trkpt lat="44.05812" lon="6.84621">
        <ele>991</ele>
        <time>2020-06-05T08:11:43.000Z</time>
      </trkpt>
      <trkpt lat="44.05812" lon="6.84619">
        <ele>991</ele>
        <time>2020-06-05T08:11:44.000Z</time>
      </trkpt>
      <trkpt lat="44.05812" lon="6.84618">
        <ele>991</ele>
        <time>2020-06-05T08:11:45.000Z</time>
      </trkpt>
      <trkpt lat="44.05812" lon="6.84616">
        <ele>991</ele>
        <time>2020-06-05T08:11:46.000Z</time>
      </trkpt>
      <trkpt lat="44.05811" lon="6.84615">
        <ele>991</ele>
        <time>2020-06-05T08:11:47.000Z</time>
      </trkpt>
      <trkpt lat="44.05811" lon="6.84613">
        <ele>991</ele>
        <time>2020-06-05T08:11:48.000Z</time>
      </trkpt>
      <trkpt lat="44.05811" lon="6.84612">
        <ele>991</ele>
        <time>2020-06-05T08:11:49.000Z</time>
      </trkpt>
      <trkpt lat="44.05811" lon="6.8461">
        <ele>991</ele>
        <time>2020-06-05T08:11:50.000Z</time>
      </trkpt>
      <trkpt lat="44.05811" lon="6.84609">
        <ele>991</ele>
        <time>2020-06-05T08:11:51.000Z</time>
      </trkpt>
      <trkpt lat="44.05812" lon="6.84607">
        <ele>991</ele>
        <time>2020-06-05T08:11:52.000Z</time>
      </trkpt>
      <trkpt lat="44.05812" lon="6.84606">
        <ele>991</ele>
        <time>2020-06-05T08:11:53.000Z</time>
      </trkpt>
      <trkpt lat="44.05812" lon="6.84604">
        <ele>991</ele>
        <time>2020-06-05T08:11:54.000Z</time>
      </trkpt>
      <trkpt lat="44.05813" lon="6.84603">
        <ele>991</ele>
        <time>2020-06-05T08:11:55.000Z</time>
      </trkpt>
      <trkpt lat="44.05813" lon="6.84602">
        <ele>991</ele>
        <time>2020-06-05T08:11:56.000Z</time>
      </trkpt>
      <trkpt lat="44.05813" lon="6.846">
        <ele>991</ele>
        <time>2020-06-05T08:11:57.000Z</time>
      </trkpt>
      <trkpt lat="44.05813" lon="6.84599">
        <ele>991</ele>
        <time>2020-06-05T08:11:58.000Z</time>
      </trkpt>
      <trkpt lat="44.05814" lon="6.84597">
        <ele>991</ele>
        <time>2020-06-05T08:11:59.000Z</time>
      </trkpt>
      <trkpt lat="44.05814" lon="6.84596">
        <ele>991</ele>
        <time>2020-06-05T08:12:00.000Z</time>
      </trkpt>
      <trkpt lat="44.05814" lon="6.84595">
        <ele>992</ele>
        <time>2020-06-05T08:12:01.000Z</time>
      </trkpt>
      <trkpt lat="44.05815" lon="6.84593">
        <ele>992</ele>
        <time>2020-06-05T08:12:02.000Z</time>
      </trkpt>
      <trkpt lat="44.05815" lon="6.84592">
        <ele>992</ele>
        <time>2020-06-05T08:12:03.000Z</time>
      </trkpt>
      <trkpt lat="44.05815" lon="6.84591">
        <ele>992</ele>
        <time>2020-06-05T08:12:04.000Z</time>
      </trkpt>
      <trkpt lat="44.05815" lon="6.8459">
        <ele>992</ele>
        <time>2020-06-05T08:12:05.000Z</time>
      </trkpt>
      <trkpt lat="44.05815" lon="6.84589">
        <ele>992</ele>
        <time>2020-06-05T08:12:06.000Z</time>
      </trkpt>
      <trkpt lat="44.05815" lon="6.84587">
        <ele>993</ele>
        <time>2020-06-05T08:12:07.000Z</time>
      </trkpt>
      <trkpt lat="44.05815" lon="6.84586">
        <ele>993</ele>
        <time>2020-06-05T08:12:08.000Z</time>
      </trkpt>
      <trkpt lat="44.05816" lon="6.84585">
        <ele>993</ele>
        <time>2020-06-05T08:12:09.000Z</time>
      </trkpt>
      <trkpt lat="44.05816" lon="6.84584">
        <ele>993</ele>
        <time>2020-06-05T08:12:10.000Z</time>
      </trkpt>
      <trkpt lat="44.05815" lon="6.84582">
        <ele>993</ele>
        <time>2020-06-05T08:12:11.000Z</time>
      </trkpt>
      <trkpt lat="44.05815" lon="6.84581">
        <ele>993</ele>
        <time>2020-06-05T08:12:12.000Z</time>
      </trkpt>
      <trkpt lat="44.05815" lon="6.8458">
        <ele>994</ele>
        <time>2020-06-05T08:12:13.000Z</time>
      </trkpt>
      <trkpt lat="44.05814" lon="6.84578">
        <ele>994</ele>
        <time>2020-06-05T08:12:14.000Z</time>
      </trkpt>
      <trkpt lat="44.05814" lon="6.84577">
        <ele>994</ele>
        <time>2020-06-05T08:12:15.000Z</time>
      </trkpt>
      <trkpt lat="44.05814" lon="6.84576">
        <ele>994</ele>
        <time>2020-06-05T08:12:16.000Z</time>
      </trkpt>
      <trkpt lat="44.05814" lon="6.84574">
        <ele>994</ele>
        <time>2020-06-05T08:12:17.000Z</time>
      </trkpt>
      <trkpt lat="44.05814" lon="6.84573">
        <ele>995</ele>
        <time>2020-06-05T08:12:18.000Z</time>
      </trkpt>
      <trkpt lat="44.05814" lon="6.84572">
        <ele>995</ele>
        <time>2020-06-05T08:12:19.000Z</time>
      </trkpt>
      <trkpt lat="44.05814" lon="6.8457">
        <ele>995</ele>
        <time>2020-06-05T08:12:20.000Z</time>
      </trkpt>
      <trkpt lat="44.05814" lon="6.84569">
        <ele>995</ele>
        <time>2020-06-05T08:12:21.000Z</time>
      </trkpt>
      <trkpt lat="44.05814" lon="6.84568">
        <ele>995</ele>
        <time>2020-06-05T08:12:22.000Z</time>
      </trkpt>
      <trkpt lat="44.05814" lon="6.84566">
        <ele>995</ele>
        <time>2020-06-05T08:12:23.000Z</time>
      </trkpt>
      <trkpt lat="44.05814" lon="6.84565">
        <ele>995</ele>
        <time>2020-06-05T08:12:24.000Z</time>
      </trkpt>
      <trkpt lat="44.05814" lon="6.84563">
        <ele>995</ele>
        <time>2020-06-05T08:12:25.000Z</time>
      </trkpt>
      <trkpt lat="44.05814" lon="6.84562">
        <ele>996</ele>
        <time>2020-06-05T08:12:26.000Z</time>
      </trkpt>
      <trkpt lat="44.05814" lon="6.84561">
        <ele>996</ele>
        <time>2020-06-05T08:12:27.000Z</time>
      </trkpt>
      <trkpt lat="44.05814" lon="6.8456">
        <ele>996</ele>
        <time>2020-06-05T08:12:28.000Z</time>
      </trkpt>
      <trkpt lat="44.05814" lon="6.84558">
        <ele>996</ele>
        <time>2020-06-05T08:12:29.000Z</time>
      </trkpt>
      <trkpt lat="44.05814" lon="6.84557">
        <ele>996</ele>
        <time>2020-06-05T08:12:30.000Z</time>
      </trkpt>
      <trkpt lat="44.05814" lon="6.84556">
        <ele>996</ele>
        <time>2020-06-05T08:12:31.000Z</time>
      </trkpt>
      <trkpt lat="44.05813" lon="6.84555">
        <ele>997</ele>
        <time>2020-06-05T08:12:32.000Z</time>
      </trkpt>
      <trkpt lat="44.05813" lon="6.84554">
        <ele>997</ele>
        <time>2020-06-05T08:12:33.000Z</time>
      </trkpt>
      <trkpt lat="44.05813" lon="6.84553">
        <ele>997</ele>
        <time>2020-06-05T08:12:34.000Z</time>
      </trkpt>
      <trkpt lat="44.05813" lon="6.84552">
        <ele>997</ele>
        <time>2020-06-05T08:12:35.000Z</time>
      </trkpt>
      <trkpt lat="44.05813" lon="6.84551">
        <ele>997</ele>
        <time>2020-06-05T08:12:36.000Z</time>
      </trkpt>
      <trkpt lat="44.05813" lon="6.8455">
        <ele>997</ele>
        <time>2020-06-05T08:12:37.000Z</time>
      </trkpt>
      <trkpt lat="44.05813" lon="6.84548">
        <ele>997</ele>
        <time>2020-06-05T08:12:38.000Z</time>
      </trkpt>
      <trkpt lat="44.05813" lon="6.84547">
        <ele>997</ele>
        <time>2020-06-05T08:12:39.000Z</time>
      </trkpt>
      <trkpt lat="44.05813" lon="6.84546">
        <ele>998</ele>
        <time>2020-06-05T08:12:40.000Z</time>
      </trkpt>
      <trkpt lat="44.05813" lon="6.84545">
        <ele>998</ele>
        <time>2020-06-05T08:12:41.000Z</time>
      </trkpt>
      <trkpt lat="44.05812" lon="6.84543">
        <ele>998</ele>
        <time>2020-06-05T08:12:42.000Z</time>
      </trkpt>
      <trkpt lat="44.05812" lon="6.84542">
        <ele>998</ele>
        <time>2020-06-05T08:12:43.000Z</time>
      </trkpt>
      <trkpt lat="44.05812" lon="6.84541">
        <ele>998</ele>
        <time>2020-06-05T08:12:44.000Z</time>
      </trkpt>
      <trkpt lat="44.05812" lon="6.8454">
        <ele>998</ele>
        <time>2020-06-05T08:12:45.000Z</time>
      </trkpt>
      <trkpt lat="44.05812" lon="6.84539">
        <ele>998</ele>
        <time>2020-06-05T08:12:46.000Z</time>
      </trkpt>
      <trkpt lat="44.05812" lon="6.84538">
        <ele>998</ele>
        <time>2020-06-05T08:12:47.000Z</time>
      </trkpt>
      <trkpt lat="44.05812" lon="6.84537">
        <ele>998</ele>
        <time>2020-06-05T08:12:48.000Z</time>
      </trkpt>
      <trkpt lat="44.05812" lon="6.84535">
        <ele>998</ele>
        <time>2020-06-05T08:12:49.000Z</time>
      </trkpt>
      <trkpt lat="44.05812" lon="6.84534">
        <ele>998</ele>
        <time>2020-06-05T08:12:50.000Z</time>
      </trkpt>
      <trkpt lat="44.05812" lon="6.84533">
        <ele>998</ele>
        <time>2020-06-05T08:12:51.000Z</time>
      </trkpt>
      <trkpt lat="44.05812" lon="6.84532">
        <ele>998</ele>
        <time>2020-06-05T08:12:52.000Z</time>
      </trkpt>
      <trkpt lat="44.05811" lon="6.84531">
        <ele>998</ele>
        <time>2020-06-05T08:12:53.000Z</time>
      </trkpt>
      <trkpt lat="44.05811" lon="6.84529">
        <ele>998</ele>
        <time>2020-06-05T08:12:54.000Z</time>
      </trkpt>
      <trkpt lat="44.05811" lon="6.84528">
        <ele>998</ele>
        <time>2020-06-05T08:12:55.000Z</time>
      </trkpt>
      <trkpt lat="44.05811" lon="6.84527">
        <ele>998</ele>
        <time>2020-06-05T08:12:56.000Z</time>
      </trkpt>
      <trkpt lat="44.05811" lon="6.84526">
        <ele>998</ele>
        <time>2020-06-05T08:12:57.000Z</time>
      </trkpt>
      <trkpt lat="44.05812" lon="6.84525">
        <ele>998</ele>
        <time>2020-06-05T08:12:58.000Z</time>
      </trkpt>
      <trkpt lat="44.05812" lon="6.84524">
        <ele>998</ele>
        <time>2020-06-05T08:12:59.000Z</time>
      </trkpt>
      <trkpt lat="44.05812" lon="6.84523">
        <ele>998</ele>
        <time>2020-06-05T08:13:00.000Z</time>
      </trkpt>
      <trkpt lat="44.05812" lon="6.84522">
        <ele>998</ele>
        <time>2020-06-05T08:13:01.000Z</time>
      </trkpt>
      <trkpt lat="44.05812" lon="6.84521">
        <ele>998</ele>
        <time>2020-06-05T08:13:02.000Z</time>
      </trkpt>
      <trkpt lat="44.05812" lon="6.84519">
        <ele>998</ele>
        <time>2020-06-05T08:13:03.000Z</time>
      </trkpt>
      <trkpt lat="44.05812" lon="6.84518">
        <ele>998</ele>
        <time>2020-06-05T08:13:04.000Z</time>
      </trkpt>
      <trkpt lat="44.05811" lon="6.84517">
        <ele>999</ele>
        <time>2020-06-05T08:13:05.000Z</time>
      </trkpt>
      <trkpt lat="44.05811" lon="6.84516">
        <ele>999</ele>
        <time>2020-06-05T08:13:06.000Z</time>
      </trkpt>
      <trkpt lat="44.05811" lon="6.84515">
        <ele>999</ele>
        <time>2020-06-05T08:13:07.000Z</time>
      </trkpt>
      <trkpt lat="44.0581" lon="6.84513">
        <ele>999</ele>
        <time>2020-06-05T08:13:08.000Z</time>
      </trkpt>
      <trkpt lat="44.0581" lon="6.84512">
        <ele>999</ele>
        <time>2020-06-05T08:13:09.000Z</time>
      </trkpt>
      <trkpt lat="44.0581" lon="6.84511">
        <ele>999</ele>
        <time>2020-06-05T08:13:10.000Z</time>
      </trkpt>
      <trkpt lat="44.0581" lon="6.8451">
        <ele>999</ele>
        <time>2020-06-05T08:13:11.000Z</time>
      </trkpt>
      <trkpt lat="44.0581" lon="6.8451">
        <ele>999</ele>
        <time>2020-06-05T08:13:12.000Z</time>
      </trkpt>
      <trkpt lat="44.0581" lon="6.84509">
        <ele>1000</ele>
        <time>2020-06-05T08:13:13.000Z</time>
      </trkpt>
      <trkpt lat="44.0581" lon="6.84508">
        <ele>1000</ele>
        <time>2020-06-05T08:13:14.000Z</time>
      </trkpt>
      <trkpt lat="44.05809" lon="6.84507">
        <ele>1000</ele>
        <time>2020-06-05T08:13:15.000Z</time>
      </trkpt>
      <trkpt lat="44.05809" lon="6.84506">
        <ele>1000</ele>
        <time>2020-06-05T08:13:16.000Z</time>
      </trkpt>
      <trkpt lat="44.05809" lon="6.84506">
        <ele>1000</ele>
        <time>2020-06-05T08:13:17.000Z</time>
      </trkpt>
      <trkpt lat="44.05809" lon="6.84505">
        <ele>1000</ele>
        <time>2020-06-05T08:13:18.000Z</time>
      </trkpt>
      <trkpt lat="44.05809" lon="6.84504">
        <ele>1000</ele>
        <time>2020-06-05T08:13:19.000Z</time>
      </trkpt>
      <trkpt lat="44.05809" lon="6.84503">
        <ele>1000</ele>
        <time>2020-06-05T08:13:20.000Z</time>
      </trkpt>
      <trkpt lat="44.05809" lon="6.84501">
        <ele>1001</ele>
        <time>2020-06-05T08:13:21.000Z</time>
      </trkpt>
      <trkpt lat="44.05809" lon="6.845">
        <ele>1001</ele>
        <time>2020-06-05T08:13:22.000Z</time>
      </trkpt>
      <trkpt lat="44.05809" lon="6.84499">
        <ele>1001</ele>
        <time>2020-06-05T08:13:23.000Z</time>
      </trkpt>
      <trkpt lat="44.05808" lon="6.84497">
        <ele>1001</ele>
        <time>2020-06-05T08:13:24.000Z</time>
      </trkpt>
      <trkpt lat="44.05808" lon="6.84496">
        <ele>1001</ele>
        <time>2020-06-05T08:13:25.000Z</time>
      </trkpt>
      <trkpt lat="44.05808" lon="6.84495">
        <ele>1001</ele>
        <time>2020-06-05T08:13:26.000Z</time>
      </trkpt>
      <trkpt lat="44.05808" lon="6.84493">
        <ele>1001</ele>
        <time>2020-06-05T08:13:27.000Z</time>
      </trkpt>
      <trkpt lat="44.05808" lon="6.84492">
        <ele>1001</ele>
        <time>2020-06-05T08:13:28.000Z</time>
      </trkpt>
      <trkpt lat="44.05808" lon="6.84491">
        <ele>1001</ele>
        <time>2020-06-05T08:13:29.000Z</time>
      </trkpt>
      <trkpt lat="44.05808" lon="6.8449">
        <ele>1001</ele>
        <time>2020-06-05T08:13:30.000Z</time>
      </trkpt>
      <trkpt lat="44.05808" lon="6.84489">
        <ele>1001</ele>
        <time>2020-06-05T08:13:31.000Z</time>
      </trkpt>
      <trkpt lat="44.05808" lon="6.84488">
        <ele>1001</ele>
        <time>2020-06-05T08:13:32.000Z</time>
      </trkpt>
      <trkpt lat="44.05808" lon="6.84486">
        <ele>1001</ele>
        <time>2020-06-05T08:13:33.000Z</time>
      </trkpt>
      <trkpt lat="44.05808" lon="6.84485">
        <ele>1001</ele>
        <time>2020-06-05T08:13:34.000Z</time>
      </trkpt>
      <trkpt lat="44.05807" lon="6.84484">
        <ele>1001</ele>
        <time>2020-06-05T08:13:35.000Z</time>
      </trkpt>
      <trkpt lat="44.05807" lon="6.84483">
        <ele>1001</ele>
        <time>2020-06-05T08:13:36.000Z</time>
      </trkpt>
      <trkpt lat="44.05807" lon="6.84482">
        <ele>1002</ele>
        <time>2020-06-05T08:13:37.000Z</time>
      </trkpt>
      <trkpt lat="44.05807" lon="6.8448">
        <ele>1002</ele>
        <time>2020-06-05T08:13:38.000Z</time>
      </trkpt>
      <trkpt lat="44.05807" lon="6.84479">
        <ele>1002</ele>
        <time>2020-06-05T08:13:39.000Z</time>
      </trkpt>
      <trkpt lat="44.05806" lon="6.84478">
        <ele>1002</ele>
        <time>2020-06-05T08:13:40.000Z</time>
      </trkpt>
      <trkpt lat="44.05806" lon="6.84477">
        <ele>1002</ele>
        <time>2020-06-05T08:13:41.000Z</time>
      </trkpt>
      <trkpt lat="44.05806" lon="6.84475">
        <ele>1002</ele>
        <time>2020-06-05T08:13:42.000Z</time>
      </trkpt>
      <trkpt lat="44.05806" lon="6.84474">
        <ele>1002</ele>
        <time>2020-06-05T08:13:43.000Z</time>
      </trkpt>
      <trkpt lat="44.05806" lon="6.84473">
        <ele>1002</ele>
        <time>2020-06-05T08:13:44.000Z</time>
      </trkpt>
      <trkpt lat="44.05806" lon="6.84472">
        <ele>1002</ele>
        <time>2020-06-05T08:13:45.000Z</time>
      </trkpt>
      <trkpt lat="44.05805" lon="6.8447">
        <ele>1002</ele>
        <time>2020-06-05T08:13:46.000Z</time>
      </trkpt>
      <trkpt lat="44.05805" lon="6.84469">
        <ele>1002</ele>
        <time>2020-06-05T08:13:47.000Z</time>
      </trkpt>
      <trkpt lat="44.05805" lon="6.84468">
        <ele>1002</ele>
        <time>2020-06-05T08:13:48.000Z</time>
      </trkpt>
      <trkpt lat="44.05805" lon="6.84467">
        <ele>1002</ele>
        <time>2020-06-05T08:13:49.000Z</time>
      </trkpt>
      <trkpt lat="44.05805" lon="6.84466">
        <ele>1002</ele>
        <time>2020-06-05T08:13:50.000Z</time>
      </trkpt>
      <trkpt lat="44.05805" lon="6.84464">
        <ele>1002</ele>
        <time>2020-06-05T08:13:51.000Z</time>
      </trkpt>
      <trkpt lat="44.05804" lon="6.84463">
        <ele>1002</ele>
        <time>2020-06-05T08:13:52.000Z</time>
      </trkpt>
      <trkpt lat="44.05804" lon="6.84462">
        <ele>1002</ele>
        <time>2020-06-05T08:13:53.000Z</time>
      </trkpt>
      <trkpt lat="44.05804" lon="6.84461">
        <ele>1002</ele>
        <time>2020-06-05T08:13:54.000Z</time>
      </trkpt>
      <trkpt lat="44.05804" lon="6.8446">
        <ele>1002</ele>
        <time>2020-06-05T08:13:55.000Z</time>
      </trkpt>
      <trkpt lat="44.05804" lon="6.84459">
        <ele>1002</ele>
        <time>2020-06-05T08:13:56.000Z</time>
      </trkpt>
      <trkpt lat="44.05803" lon="6.84457">
        <ele>1002</ele>
        <time>2020-06-05T08:13:57.000Z</time>
      </trkpt>
      <trkpt lat="44.05803" lon="6.84456">
        <ele>1002</ele>
        <time>2020-06-05T08:13:58.000Z</time>
      </trkpt>
      <trkpt lat="44.05803" lon="6.84455">
        <ele>1002</ele>
        <time>2020-06-05T08:13:59.000Z</time>
      </trkpt>
      <trkpt lat="44.05803" lon="6.84454">
        <ele>1002</ele>
        <time>2020-06-05T08:14:00.000Z</time>
      </trkpt>
      <trkpt lat="44.05803" lon="6.84453">
        <ele>1002</ele>
        <time>2020-06-05T08:14:01.000Z</time>
      </trkpt>
      <trkpt lat="44.05803" lon="6.84452">
        <ele>1003</ele>
        <time>2020-06-05T08:14:02.000Z</time>
      </trkpt>
      <trkpt lat="44.05803" lon="6.84451">
        <ele>1003</ele>
        <time>2020-06-05T08:14:03.000Z</time>
      </trkpt>
      <trkpt lat="44.05803" lon="6.8445">
        <ele>1003</ele>
        <time>2020-06-05T08:14:04.000Z</time>
      </trkpt>
      <trkpt lat="44.05803" lon="6.84449">
        <ele>1003</ele>
        <time>2020-06-05T08:14:05.000Z</time>
      </trkpt>
      <trkpt lat="44.05803" lon="6.84448">
        <ele>1003</ele>
        <time>2020-06-05T08:14:06.000Z</time>
      </trkpt>
      <trkpt lat="44.05803" lon="6.84448">
        <ele>1003</ele>
        <time>2020-06-05T08:14:07.000Z</time>
      </trkpt>
      <trkpt lat="44.05803" lon="6.84447">
        <ele>1003</ele>
        <time>2020-06-05T08:14:08.000Z</time>
      </trkpt>
      <trkpt lat="44.05803" lon="6.84446">
        <ele>1003</ele>
        <time>2020-06-05T08:14:09.000Z</time>
      </trkpt>
      <trkpt lat="44.05803" lon="6.84445">
        <ele>1003</ele>
        <time>2020-06-05T08:14:10.000Z</time>
      </trkpt>
      <trkpt lat="44.05803" lon="6.84444">
        <ele>1004</ele>
        <time>2020-06-05T08:14:11.000Z</time>
      </trkpt>
      <trkpt lat="44.05803" lon="6.84443">
        <ele>1004</ele>
        <time>2020-06-05T08:14:12.000Z</time>
      </trkpt>
      <trkpt lat="44.05803" lon="6.84442">
        <ele>1004</ele>
        <time>2020-06-05T08:14:13.000Z</time>
      </trkpt>
      <trkpt lat="44.05803" lon="6.84441">
        <ele>1004</ele>
        <time>2020-06-05T08:14:14.000Z</time>
      </trkpt>
      <trkpt lat="44.05803" lon="6.8444">
        <ele>1004</ele>
        <time>2020-06-05T08:14:15.000Z</time>
      </trkpt>
      <trkpt lat="44.05803" lon="6.84439">
        <ele>1004</ele>
        <time>2020-06-05T08:14:16.000Z</time>
      </trkpt>
      <trkpt lat="44.05803" lon="6.84438">
        <ele>1004</ele>
        <time>2020-06-05T08:14:17.000Z</time>
      </trkpt>
      <trkpt lat="44.05803" lon="6.84437">
        <ele>1004</ele>
        <time>2020-06-05T08:14:18.000Z</time>
      </trkpt>
      <trkpt lat="44.05803" lon="6.84436">
        <ele>1005</ele>
        <time>2020-06-05T08:14:19.000Z</time>
      </trkpt>
      <trkpt lat="44.05803" lon="6.84435">
        <ele>1005</ele>
        <time>2020-06-05T08:14:20.000Z</time>
      </trkpt>
      <trkpt lat="44.05803" lon="6.84434">
        <ele>1005</ele>
        <time>2020-06-05T08:14:21.000Z</time>
      </trkpt>
      <trkpt lat="44.05803" lon="6.84433">
        <ele>1005</ele>
        <time>2020-06-05T08:14:22.000Z</time>
      </trkpt>
      <trkpt lat="44.05803" lon="6.84432">
        <ele>1005</ele>
        <time>2020-06-05T08:14:23.000Z</time>
      </trkpt>
      <trkpt lat="44.05802" lon="6.84431">
        <ele>1006</ele>
        <time>2020-06-05T08:14:24.000Z</time>
      </trkpt>
      <trkpt lat="44.05802" lon="6.8443">
        <ele>1006</ele>
        <time>2020-06-05T08:14:25.000Z</time>
      </trkpt>
      <trkpt lat="44.05802" lon="6.84429">
        <ele>1006</ele>
        <time>2020-06-05T08:14:26.000Z</time>
      </trkpt>
      <trkpt lat="44.05802" lon="6.84428">
        <ele>1006</ele>
        <time>2020-06-05T08:14:27.000Z</time>
      </trkpt>
      <trkpt lat="44.05801" lon="6.84428">
        <ele>1006</ele>
        <time>2020-06-05T08:14:28.000Z</time>
      </trkpt>
      <trkpt lat="44.05801" lon="6.84427">
        <ele>1006</ele>
        <time>2020-06-05T08:14:29.000Z</time>
      </trkpt>
      <trkpt lat="44.05801" lon="6.84426">
        <ele>1007</ele>
        <time>2020-06-05T08:14:30.000Z</time>
      </trkpt>
      <trkpt lat="44.058" lon="6.84425">
        <ele>1007</ele>
        <time>2020-06-05T08:14:31.000Z</time>
      </trkpt>
      <trkpt lat="44.058" lon="6.84424">
        <ele>1007</ele>
        <time>2020-06-05T08:14:32.000Z</time>
      </trkpt>
      <trkpt lat="44.05799" lon="6.84423">
        <ele>1007</ele>
        <time>2020-06-05T08:14:33.000Z</time>
      </trkpt>
      <trkpt lat="44.05799" lon="6.84422">
        <ele>1007</ele>
        <time>2020-06-05T08:14:34.000Z</time>
      </trkpt>
      <trkpt lat="44.05799" lon="6.84421">
        <ele>1008</ele>
        <time>2020-06-05T08:14:35.000Z</time>
      </trkpt>
      <trkpt lat="44.05798" lon="6.8442">
        <ele>1008</ele>
        <time>2020-06-05T08:14:36.000Z</time>
      </trkpt>
      <trkpt lat="44.05798" lon="6.84419">
        <ele>1008</ele>
        <time>2020-06-05T08:14:37.000Z</time>
      </trkpt>
      <trkpt lat="44.05798" lon="6.84418">
        <ele>1008</ele>
        <time>2020-06-05T08:14:38.000Z</time>
      </trkpt>
      <trkpt lat="44.05798" lon="6.84417">
        <ele>1008</ele>
        <time>2020-06-05T08:14:39.000Z</time>
      </trkpt>
      <trkpt lat="44.05798" lon="6.84417">
        <ele>1009</ele>
        <time>2020-06-05T08:14:40.000Z</time>
      </trkpt>
      <trkpt lat="44.05798" lon="6.84417">
        <ele>1009</ele>
        <time>2020-06-05T08:14:41.000Z</time>
      </trkpt>
      <trkpt lat="44.05798" lon="6.84417">
        <ele>1009</ele>
        <time>2020-06-05T08:14:42.000Z</time>
      </trkpt>
      <trkpt lat="44.05798" lon="6.84417">
        <ele>1009</ele>
        <time>2020-06-05T08:14:43.000Z</time>
      </trkpt>
      <trkpt lat="44.05798" lon="6.84417">
        <ele>1009</ele>
        <time>2020-06-05T08:14:44.000Z</time>
      </trkpt>
      <trkpt lat="44.05798" lon="6.84417">
        <ele>1009</ele>
        <time>2020-06-05T08:14:45.000Z</time>
      </trkpt>
      <trkpt lat="44.05798" lon="6.84416">
        <ele>1009</ele>
        <time>2020-06-05T08:14:46.000Z</time>
      </trkpt>
      <trkpt lat="44.05798" lon="6.84416">
        <ele>1010</ele>
        <time>2020-06-05T08:14:47.000Z</time>
      </trkpt>
      <trkpt lat="44.05798" lon="6.84415">
        <ele>1010</ele>
        <time>2020-06-05T08:14:48.000Z</time>
      </trkpt>
      <trkpt lat="44.05798" lon="6.84415">
        <ele>1010</ele>
        <time>2020-06-05T08:14:49.000Z</time>
      </trkpt>
      <trkpt lat="44.05798" lon="6.84415">
        <ele>1010</ele>
        <time>2020-06-05T08:14:50.000Z</time>
      </trkpt>
      <trkpt lat="44.05798" lon="6.84415">
        <ele>1010</ele>
        <time>2020-06-05T08:14:51.000Z</time>
      </trkpt>
      <trkpt lat="44.05798" lon="6.84415">
        <ele>1010</ele>
        <time>2020-06-05T08:14:52.000Z</time>
      </trkpt>
      <trkpt lat="44.05798" lon="6.84415">
        <ele>1010</ele>
        <time>2020-06-05T08:14:53.000Z</time>
      </trkpt>
      <trkpt lat="44.05798" lon="6.84415">
        <ele>1011</ele>
        <time>2020-06-05T08:14:54.000Z</time>
      </trkpt>
      <trkpt lat="44.05798" lon="6.84415">
        <ele>1011</ele>
        <time>2020-06-05T08:14:55.000Z</time>
      </trkpt>
      <trkpt lat="44.05798" lon="6.84414">
        <ele>1011</ele>
        <time>2020-06-05T08:14:56.000Z</time>
      </trkpt>
      <trkpt lat="44.05798" lon="6.84414">
        <ele>1011</ele>
        <time>2020-06-05T08:14:57.000Z</time>
      </trkpt>
      <trkpt lat="44.05798" lon="6.84414">
        <ele>1011</ele>
        <time>2020-06-05T08:14:58.000Z</time>
      </trkpt>
      <trkpt lat="44.05798" lon="6.84414">
        <ele>1011</ele>
        <time>2020-06-05T08:14:59.000Z</time>
      </trkpt>
      <trkpt lat="44.05798" lon="6.84414">
        <ele>1011</ele>
        <time>2020-06-05T08:15:00.000Z</time>
      </trkpt>
      <trkpt lat="44.05798" lon="6.84414">
        <ele>1011</ele>
        <time>2020-06-05T08:15:01.000Z</time>
      </trkpt>
      <trkpt lat="44.05798" lon="6.84414">
        <ele>1011</ele>
        <time>2020-06-05T08:15:02.000Z</time>
      </trkpt>
      <trkpt lat="44.05798" lon="6.84414">
        <ele>1011</ele>
        <time>2020-06-05T08:15:03.000Z</time>
      </trkpt>
      <trkpt lat="44.05798" lon="6.84414">
        <ele>1011</ele>
        <time>2020-06-05T08:15:04.000Z</time>
      </trkpt>
      <trkpt lat="44.05798" lon="6.84414">
        <ele>1012</ele>
        <time>2020-06-05T08:15:05.000Z</time>
      </trkpt>
      <trkpt lat="44.05798" lon="6.84414">
        <ele>1012</ele>
        <time>2020-06-05T08:15:06.000Z</time>
      </trkpt>
      <trkpt lat="44.05798" lon="6.84414">
        <ele>1012</ele>
        <time>2020-06-05T08:15:07.000Z</time>
      </trkpt>
      <trkpt lat="44.05798" lon="6.84414">
        <ele>1012</ele>
        <time>2020-06-05T08:15:08.000Z</time>
      </trkpt>
      <trkpt lat="44.05798" lon="6.84414">
        <ele>1012</ele>
        <time>2020-06-05T08:15:09.000Z</time>
      </trkpt>
      <trkpt lat="44.05798" lon="6.84414">
        <ele>1012</ele>
        <time>2020-06-05T08:15:10.000Z</time>
      </trkpt>
      <trkpt lat="44.05798" lon="6.84414">
        <ele>1012</ele>
        <time>2020-06-05T08:15:11.000Z</time>
      </trkpt>
      <trkpt lat="44.05798" lon="6.84414">
        <ele>1012</ele>
        <time>2020-06-05T08:15:12.000Z</time>
      </trkpt>
      <trkpt lat="44.05798" lon="6.84414">
        <ele>1012</ele>
        <time>2020-06-05T08:15:13.000Z</time>
      </trkpt>
      <trkpt lat="44.05798" lon="6.84414">
        <ele>1012</ele>
        <time>2020-06-05T08:15:14.000Z</time>
      </trkpt>
      <trkpt lat="44.05798" lon="6.84413">
        <ele>1012</ele>
        <time>2020-06-05T08:15:15.000Z</time>
      </trkpt>
      <trkpt lat="44.05798" lon="6.84413">
        <ele>1012</ele>
        <time>2020-06-05T08:15:16.000Z</time>
      </trkpt>
      <trkpt lat="44.05798" lon="6.84413">
        <ele>1012</ele>
        <time>2020-06-05T08:15:17.000Z</time>
      </trkpt>
      <trkpt lat="44.05798" lon="6.84413">
        <ele>1012</ele>
        <time>2020-06-05T08:15:18.000Z</time>
      </trkpt>
      <trkpt lat="44.05798" lon="6.84413">
        <ele>1012</ele>
        <time>2020-06-05T08:15:19.000Z</time>
      </trkpt>
      <trkpt lat="44.05798" lon="6.84413">
        <ele>1012</ele>
        <time>2020-06-05T08:15:20.000Z</time>
      </trkpt>
      <trkpt lat="44.05798" lon="6.84413">
        <ele>1012</ele>
        <time>2020-06-05T08:15:21.000Z</time>
      </trkpt>
      <trkpt lat="44.05798" lon="6.84413">
        <ele>1012</ele>
        <time>2020-06-05T08:15:22.000Z</time>
      </trkpt>
      <trkpt lat="44.05798" lon="6.84413">
        <ele>1012</ele>
        <time>2020-06-05T08:15:23.000Z</time>
      </trkpt>
      <trkpt lat="44.05798" lon="6.84413">
        <ele>1011</ele>
        <time>2020-06-05T08:15:24.000Z</time>
      </trkpt>
      <trkpt lat="44.05798" lon="6.84413">
        <ele>1011</ele>
        <time>2020-06-05T08:15:25.000Z</time>
      </trkpt>
      <trkpt lat="44.05798" lon="6.84413">
        <ele>1011</ele>
        <time>2020-06-05T08:15:26.000Z</time>
      </trkpt>
      <trkpt lat="44.05798" lon="6.84413">
        <ele>1011</ele>
        <time>2020-06-05T08:15:27.000Z</time>
      </trkpt>
      <trkpt lat="44.05798" lon="6.84413">
        <ele>1011</ele>
        <time>2020-06-05T08:15:28.000Z</time>
      </trkpt>
      <trkpt lat="44.05798" lon="6.84413">
        <ele>1011</ele>
        <time>2020-06-05T08:15:29.000Z</time>
      </trkpt>
      <trkpt lat="44.05798" lon="6.84413">
        <ele>1011</ele>
        <time>2020-06-05T08:15:30.000Z</time>
      </trkpt>
      <trkpt lat="44.05798" lon="6.84413">
        <ele>1011</ele>
        <time>2020-06-05T08:15:31.000Z</time>
      </trkpt>
      <trkpt lat="44.05798" lon="6.84413">
        <ele>1011</ele>
        <time>2020-06-05T08:15:32.000Z</time>
      </trkpt>
      <trkpt lat="44.05798" lon="6.84413">
        <ele>1011</ele>
        <time>2020-06-05T08:15:33.000Z</time>
      </trkpt>
      <trkpt lat="44.05798" lon="6.84413">
        <ele>1011</ele>
        <time>2020-06-05T08:15:34.000Z</time>
      </trkpt>
      <trkpt lat="44.05798" lon="6.84413">
        <ele>1011</ele>
        <time>2020-06-05T08:15:35.000Z</time>
      </trkpt>
      <trkpt lat="44.05798" lon="6.84413">
        <ele>1011</ele>
        <time>2020-06-05T08:15:36.000Z</time>
      </trkpt>
      <trkpt lat="44.05798" lon="6.84413">
        <ele>1011</ele>
        <time>2020-06-05T08:15:37.000Z</time>
      </trkpt>
      <trkpt lat="44.05798" lon="6.84413">
        <ele>1011</ele>
        <time>2020-06-05T08:15:38.000Z</time>
      </trkpt>
      <trkpt lat="44.05798" lon="6.84413">
        <ele>1011</ele>
        <time>2020-06-05T08:15:39.000Z</time>
      </trkpt>
      <trkpt lat="44.05797" lon="6.84413">
        <ele>1011</ele>
        <time>2020-06-05T08:15:40.000Z</time>
      </trkpt>
      <trkpt lat="44.05797" lon="6.84413">
        <ele>1011</ele>
        <time>2020-06-05T08:15:41.000Z</time>
      </trkpt>
      <trkpt lat="44.05797" lon="6.84413">
        <ele>1011</ele>
        <time>2020-06-05T08:15:42.000Z</time>
      </trkpt>
      <trkpt lat="44.05797" lon="6.84413">
        <ele>1011</ele>
        <time>2020-06-05T08:15:43.000Z</time>
      </trkpt>
      <trkpt lat="44.05797" lon="6.84413">
        <ele>1011</ele>
        <time>2020-06-05T08:15:44.000Z</time>
      </trkpt>
      <trkpt lat="44.05797" lon="6.84413">
        <ele>1011</ele>
        <time>2020-06-05T08:15:45.000Z</time>
      </trkpt>
      <trkpt lat="44.05797" lon="6.84413">
        <ele>1012</ele>
        <time>2020-06-05T08:15:46.000Z</time>
      </trkpt>
      <trkpt lat="44.05797" lon="6.84412">
        <ele>1012</ele>
        <time>2020-06-05T08:15:47.000Z</time>
      </trkpt>
      <trkpt lat="44.05797" lon="6.84413">
        <ele>1012</ele>
        <time>2020-06-05T08:15:48.000Z</time>
      </trkpt>
      <trkpt lat="44.05797" lon="6.84413">
        <ele>1012</ele>
        <time>2020-06-05T08:15:49.000Z</time>
      </trkpt>
      <trkpt lat="44.05797" lon="6.84412">
        <ele>1012</ele>
        <time>2020-06-05T08:15:50.000Z</time>
      </trkpt>
      <trkpt lat="44.05797" lon="6.84412">
        <ele>1012</ele>
        <time>2020-06-05T08:15:51.000Z</time>
      </trkpt>
      <trkpt lat="44.05797" lon="6.84413">
        <ele>1012</ele>
        <time>2020-06-05T08:15:52.000Z</time>
      </trkpt>
      <trkpt lat="44.05797" lon="6.84413">
        <ele>1012</ele>
        <time>2020-06-05T08:15:53.000Z</time>
      </trkpt>
      <trkpt lat="44.05797" lon="6.84412">
        <ele>1012</ele>
        <time>2020-06-05T08:15:54.000Z</time>
      </trkpt>
      <trkpt lat="44.05797" lon="6.84412">
        <ele>1012</ele>
        <time>2020-06-05T08:15:55.000Z</time>
      </trkpt>
      <trkpt lat="44.05797" lon="6.84412">
        <ele>1012</ele>
        <time>2020-06-05T08:15:56.000Z</time>
      </trkpt>
      <trkpt lat="44.05797" lon="6.84412">
        <ele>1012</ele>
        <time>2020-06-05T08:15:57.000Z</time>
      </trkpt>
      <trkpt lat="44.05797" lon="6.84412">
        <ele>1012</ele>
        <time>2020-06-05T08:15:58.000Z</time>
      </trkpt>
      <trkpt lat="44.05797" lon="6.84412">
        <ele>1012</ele>
        <time>2020-06-05T08:15:59.000Z</time>
      </trkpt>
      <trkpt lat="44.05797" lon="6.84412">
        <ele>1012</ele>
        <time>2020-06-05T08:16:00.000Z</time>
      </trkpt>
      <trkpt lat="44.05797" lon="6.84412">
        <ele>1012</ele>
        <time>2020-06-05T08:16:01.000Z</time>
      </trkpt>
      <trkpt lat="44.05797" lon="6.84412">
        <ele>1012</ele>
        <time>2020-06-05T08:16:02.000Z</time>
      </trkpt>
      <trkpt lat="44.05797" lon="6.84412">
        <ele>1012</ele>
        <time>2020-06-05T08:16:03.000Z</time>
      </trkpt>
      <trkpt lat="44.05797" lon="6.84412">
        <ele>1012</ele>
        <time>2020-06-05T08:16:04.000Z</time>
      </trkpt>
      <trkpt lat="44.05796" lon="6.84412">
        <ele>1012</ele>
        <time>2020-06-05T08:16:05.000Z</time>
      </trkpt>
      <trkpt lat="44.05796" lon="6.84412">
        <ele>1012</ele>
        <time>2020-06-05T08:16:06.000Z</time>
      </trkpt>
      <trkpt lat="44.05796" lon="6.84412">
        <ele>1012</ele>
        <time>2020-06-05T08:16:07.000Z</time>
      </trkpt>
      <trkpt lat="44.05796" lon="6.84411">
        <ele>1012</ele>
        <time>2020-06-05T08:16:08.000Z</time>
      </trkpt>
      <trkpt lat="44.05796" lon="6.84411">
        <ele>1012</ele>
        <time>2020-06-05T08:16:09.000Z</time>
      </trkpt>
      <trkpt lat="44.05796" lon="6.84411">
        <ele>1012</ele>
        <time>2020-06-05T08:16:10.000Z</time>
      </trkpt>
      <trkpt lat="44.05796" lon="6.84411">
        <ele>1012</ele>
        <time>2020-06-05T08:16:11.000Z</time>
      </trkpt>
      <trkpt lat="44.05796" lon="6.84411">
        <ele>1012</ele>
        <time>2020-06-05T08:16:12.000Z</time>
      </trkpt>
      <trkpt lat="44.05796" lon="6.84411">
        <ele>1012</ele>
        <time>2020-06-05T08:16:13.000Z</time>
      </trkpt>
      <trkpt lat="44.05796" lon="6.84411">
        <ele>1012</ele>
        <time>2020-06-05T08:16:14.000Z</time>
      </trkpt>
      <trkpt lat="44.05796" lon="6.84411">
        <ele>1012</ele>
        <time>2020-06-05T08:16:15.000Z</time>
      </trkpt>
      <trkpt lat="44.05796" lon="6.84411">
        <ele>1012</ele>
        <time>2020-06-05T08:16:16.000Z</time>
      </trkpt>
      <trkpt lat="44.05796" lon="6.84411">
        <ele>1012</ele>
        <time>2020-06-05T08:16:17.000Z</time>
      </trkpt>
      <trkpt lat="44.05796" lon="6.84411">
        <ele>1012</ele>
        <time>2020-06-05T08:16:18.000Z</time>
      </trkpt>
      <trkpt lat="44.05796" lon="6.84411">
        <ele>1012</ele>
        <time>2020-06-05T08:16:19.000Z</time>
      </trkpt>
      <trkpt lat="44.05796" lon="6.84411">
        <ele>1012</ele>
        <time>2020-06-05T08:16:20.000Z</time>
      </trkpt>
      <trkpt lat="44.05796" lon="6.84411">
        <ele>1012</ele>
        <time>2020-06-05T08:16:21.000Z</time>
      </trkpt>
      <trkpt lat="44.05796" lon="6.84411">
        <ele>1012</ele>
        <time>2020-06-05T08:16:22.000Z</time>
      </trkpt>
      <trkpt lat="44.05796" lon="6.84411">
        <ele>1012</ele>
        <time>2020-06-05T08:16:23.000Z</time>
      </trkpt>
      <trkpt lat="44.05796" lon="6.84411">
        <ele>1012</ele>
        <time>2020-06-05T08:16:24.000Z</time>
      </trkpt>
      <trkpt lat="44.05796" lon="6.84411">
        <ele>1012</ele>
        <time>2020-06-05T08:16:25.000Z</time>
      </trkpt>
      <trkpt lat="44.05796" lon="6.84411">
        <ele>1012</ele>
        <time>2020-06-05T08:16:26.000Z</time>
      </trkpt>
      <trkpt lat="44.05796" lon="6.84411">
        <ele>1012</ele>
        <time>2020-06-05T08:16:27.000Z</time>
      </trkpt>
      <trkpt lat="44.05796" lon="6.84411">
        <ele>1012</ele>
        <time>2020-06-05T08:16:28.000Z</time>
      </trkpt>
      <trkpt lat="44.05796" lon="6.84411">
        <ele>1012</ele>
        <time>2020-06-05T08:16:29.000Z</time>
      </trkpt>
      <trkpt lat="44.05796" lon="6.84411">
        <ele>1012</ele>
        <time>2020-06-05T08:16:30.000Z</time>
      </trkpt>
      <trkpt lat="44.05796" lon="6.84411">
        <ele>1013</ele>
        <time>2020-06-05T08:16:31.000Z</time>
      </trkpt>
      <trkpt lat="44.05796" lon="6.84411">
        <ele>1013</ele>
        <time>2020-06-05T08:16:32.000Z</time>
      </trkpt>
      <trkpt lat="44.05797" lon="6.84411">
        <ele>1013</ele>
        <time>2020-06-05T08:16:33.000Z</time>
      </trkpt>
      <trkpt lat="44.05797" lon="6.84411">
        <ele>1013</ele>
        <time>2020-06-05T08:16:34.000Z</time>
      </trkpt>
      <trkpt lat="44.05797" lon="6.84411">
        <ele>1013</ele>
        <time>2020-06-05T08:16:35.000Z</time>
      </trkpt>
      <trkpt lat="44.05797" lon="6.84411">
        <ele>1013</ele>
        <time>2020-06-05T08:16:36.000Z</time>
      </trkpt>
      <trkpt lat="44.05797" lon="6.84411">
        <ele>1013</ele>
        <time>2020-06-05T08:16:37.000Z</time>
      </trkpt>
      <trkpt lat="44.05797" lon="6.84411">
        <ele>1013</ele>
        <time>2020-06-05T08:16:38.000Z</time>
      </trkpt>
      <trkpt lat="44.05797" lon="6.84411">
        <ele>1013</ele>
        <time>2020-06-05T08:16:39.000Z</time>
      </trkpt>
      <trkpt lat="44.05797" lon="6.84411">
        <ele>1013</ele>
        <time>2020-06-05T08:16:40.000Z</time>
      </trkpt>
      <trkpt lat="44.05797" lon="6.84412">
        <ele>1013</ele>
        <time>2020-06-05T08:16:41.000Z</time>
      </trkpt>
      <trkpt lat="44.05797" lon="6.84411">
        <ele>1012</ele>
        <time>2020-06-05T08:16:42.000Z</time>
      </trkpt>
      <trkpt lat="44.05797" lon="6.8441">
        <ele>1012</ele>
        <time>2020-06-05T08:16:43.000Z</time>
      </trkpt>
      <trkpt lat="44.05797" lon="6.8441">
        <ele>1012</ele>
        <time>2020-06-05T08:16:44.000Z</time>
      </trkpt>
      <trkpt lat="44.05797" lon="6.8441">
        <ele>1012</ele>
        <time>2020-06-05T08:16:45.000Z</time>
      </trkpt>
      <trkpt lat="44.05797" lon="6.84409">
        <ele>1012</ele>
        <time>2020-06-05T08:16:46.000Z</time>
      </trkpt>
      <trkpt lat="44.05797" lon="6.84408">
        <ele>1012</ele>
        <time>2020-06-05T08:16:47.000Z</time>
      </trkpt>
      <trkpt lat="44.05797" lon="6.84407">
        <ele>1012</ele>
        <time>2020-06-05T08:16:48.000Z</time>
      </trkpt>
      <trkpt lat="44.05797" lon="6.84406">
        <ele>1013</ele>
        <time>2020-06-05T08:16:49.000Z</time>
      </trkpt>
      <trkpt lat="44.05797" lon="6.84404">
        <ele>1013</ele>
        <time>2020-06-05T08:16:50.000Z</time>
      </trkpt>
      <trkpt lat="44.05796" lon="6.84403">
        <ele>1013</ele>
        <time>2020-06-05T08:16:51.000Z</time>
      </trkpt>
      <trkpt lat="44.05796" lon="6.84402">
        <ele>1013</ele>
        <time>2020-06-05T08:16:52.000Z</time>
      </trkpt>
      <trkpt lat="44.05796" lon="6.84401">
        <ele>1013</ele>
        <time>2020-06-05T08:16:53.000Z</time>
      </trkpt>
      <trkpt lat="44.05796" lon="6.84399">
        <ele>1013</ele>
        <time>2020-06-05T08:16:54.000Z</time>
      </trkpt>
      <trkpt lat="44.05796" lon="6.84398">
        <ele>1013</ele>
        <time>2020-06-05T08:16:55.000Z</time>
      </trkpt>
      <trkpt lat="44.05796" lon="6.84397">
        <ele>1013</ele>
        <time>2020-06-05T08:16:56.000Z</time>
      </trkpt>
      <trkpt lat="44.05796" lon="6.84396">
        <ele>1013</ele>
        <time>2020-06-05T08:16:57.000Z</time>
      </trkpt>
      <trkpt lat="44.05796" lon="6.84395">
        <ele>1013</ele>
        <time>2020-06-05T08:16:58.000Z</time>
      </trkpt>
      <trkpt lat="44.05796" lon="6.84393">
        <ele>1013</ele>
        <time>2020-06-05T08:16:59.000Z</time>
      </trkpt>
      <trkpt lat="44.05796" lon="6.84392">
        <ele>1013</ele>
        <time>2020-06-05T08:17:00.000Z</time>
      </trkpt>
      <trkpt lat="44.05796" lon="6.84391">
        <ele>1013</ele>
        <time>2020-06-05T08:17:01.000Z</time>
      </trkpt>
      <trkpt lat="44.05796" lon="6.84389">
        <ele>1013</ele>
        <time>2020-06-05T08:17:02.000Z</time>
      </trkpt>
      <trkpt lat="44.05796" lon="6.84388">
        <ele>1013</ele>
        <time>2020-06-05T08:17:03.000Z</time>
      </trkpt>
      <trkpt lat="44.05795" lon="6.84387">
        <ele>1013</ele>
        <time>2020-06-05T08:17:04.000Z</time>
      </trkpt>
      <trkpt lat="44.05796" lon="6.84385">
        <ele>1014</ele>
        <time>2020-06-05T08:17:05.000Z</time>
      </trkpt>
      <trkpt lat="44.05796" lon="6.84384">
        <ele>1014</ele>
        <time>2020-06-05T08:17:06.000Z</time>
      </trkpt>
      <trkpt lat="44.05796" lon="6.84383">
        <ele>1014</ele>
        <time>2020-06-05T08:17:07.000Z</time>
      </trkpt>
      <trkpt lat="44.05796" lon="6.84382">
        <ele>1014</ele>
        <time>2020-06-05T08:17:08.000Z</time>
      </trkpt>
      <trkpt lat="44.05796" lon="6.84381">
        <ele>1014</ele>
        <time>2020-06-05T08:17:09.000Z</time>
      </trkpt>
      <trkpt lat="44.05796" lon="6.8438">
        <ele>1014</ele>
        <time>2020-06-05T08:17:10.000Z</time>
      </trkpt>
      <trkpt lat="44.05796" lon="6.84378">
        <ele>1014</ele>
        <time>2020-06-05T08:17:11.000Z</time>
      </trkpt>
      <trkpt lat="44.05796" lon="6.84377">
        <ele>1014</ele>
        <time>2020-06-05T08:17:12.000Z</time>
      </trkpt>
      <trkpt lat="44.05796" lon="6.84377">
        <ele>1014</ele>
        <time>2020-06-05T08:17:13.000Z</time>
      </trkpt>
      <trkpt lat="44.05796" lon="6.84376">
        <ele>1014</ele>
        <time>2020-06-05T08:17:14.000Z</time>
      </trkpt>
      <trkpt lat="44.05796" lon="6.84375">
        <ele>1014</ele>
        <time>2020-06-05T08:17:15.000Z</time>
      </trkpt>
      <trkpt lat="44.05796" lon="6.84373">
        <ele>1014</ele>
        <time>2020-06-05T08:17:16.000Z</time>
      </trkpt>
      <trkpt lat="44.05796" lon="6.84372">
        <ele>1014</ele>
        <time>2020-06-05T08:17:17.000Z</time>
      </trkpt>
      <trkpt lat="44.05796" lon="6.84371">
        <ele>1014</ele>
        <time>2020-06-05T08:17:18.000Z</time>
      </trkpt>
      <trkpt lat="44.05796" lon="6.8437">
        <ele>1014</ele>
        <time>2020-06-05T08:17:19.000Z</time>
      </trkpt>
      <trkpt lat="44.05796" lon="6.84369">
        <ele>1014</ele>
        <time>2020-06-05T08:17:20.000Z</time>
      </trkpt>
      <trkpt lat="44.05796" lon="6.84367">
        <ele>1014</ele>
        <time>2020-06-05T08:17:21.000Z</time>
      </trkpt>
      <trkpt lat="44.05796" lon="6.84366">
        <ele>1015</ele>
        <time>2020-06-05T08:17:22.000Z</time>
      </trkpt>
      <trkpt lat="44.05796" lon="6.84365">
        <ele>1015</ele>
        <time>2020-06-05T08:17:23.000Z</time>
      </trkpt>
      <trkpt lat="44.05796" lon="6.84364">
        <ele>1015</ele>
        <time>2020-06-05T08:17:24.000Z</time>
      </trkpt>
      <trkpt lat="44.05796" lon="6.84363">
        <ele>1015</ele>
        <time>2020-06-05T08:17:25.000Z</time>
      </trkpt>
      <trkpt lat="44.05796" lon="6.84362">
        <ele>1015</ele>
        <time>2020-06-05T08:17:26.000Z</time>
      </trkpt>
      <trkpt lat="44.05796" lon="6.84361">
        <ele>1016</ele>
        <time>2020-06-05T08:17:27.000Z</time>
      </trkpt>
      <trkpt lat="44.05796" lon="6.8436">
        <ele>1016</ele>
        <time>2020-06-05T08:17:28.000Z</time>
      </trkpt>
      <trkpt lat="44.05796" lon="6.84359">
        <ele>1016</ele>
        <time>2020-06-05T08:17:29.000Z</time>
      </trkpt>
      <trkpt lat="44.05796" lon="6.84358">
        <ele>1016</ele>
        <time>2020-06-05T08:17:30.000Z</time>
      </trkpt>
      <trkpt lat="44.05796" lon="6.84357">
        <ele>1016</ele>
        <time>2020-06-05T08:17:31.000Z</time>
      </trkpt>
      <trkpt lat="44.05796" lon="6.84355">
        <ele>1016</ele>
        <time>2020-06-05T08:17:32.000Z</time>
      </trkpt>
      <trkpt lat="44.05796" lon="6.84354">
        <ele>1016</ele>
        <time>2020-06-05T08:17:33.000Z</time>
      </trkpt>
      <trkpt lat="44.05797" lon="6.84353">
        <ele>1016</ele>
        <time>2020-06-05T08:17:34.000Z</time>
      </trkpt>
      <trkpt lat="44.05797" lon="6.84352">
        <ele>1017</ele>
        <time>2020-06-05T08:17:35.000Z</time>
      </trkpt>
      <trkpt lat="44.05797" lon="6.84351">
        <ele>1017</ele>
        <time>2020-06-05T08:17:36.000Z</time>
      </trkpt>
      <trkpt lat="44.05797" lon="6.8435">
        <ele>1017</ele>
        <time>2020-06-05T08:17:37.000Z</time>
      </trkpt>
      <trkpt lat="44.05797" lon="6.84349">
        <ele>1017</ele>
        <time>2020-06-05T08:17:38.000Z</time>
      </trkpt>
      <trkpt lat="44.05797" lon="6.84348">
        <ele>1017</ele>
        <time>2020-06-05T08:17:39.000Z</time>
      </trkpt>
      <trkpt lat="44.05797" lon="6.84346">
        <ele>1017</ele>
        <time>2020-06-05T08:17:40.000Z</time>
      </trkpt>
      <trkpt lat="44.05797" lon="6.84345">
        <ele>1017</ele>
        <time>2020-06-05T08:17:41.000Z</time>
      </trkpt>
      <trkpt lat="44.05796" lon="6.84344">
        <ele>1017</ele>
        <time>2020-06-05T08:17:42.000Z</time>
      </trkpt>
      <trkpt lat="44.05796" lon="6.84343">
        <ele>1017</ele>
        <time>2020-06-05T08:17:43.000Z</time>
      </trkpt>
      <trkpt lat="44.05796" lon="6.84342">
        <ele>1018</ele>
        <time>2020-06-05T08:17:44.000Z</time>
      </trkpt>
      <trkpt lat="44.05795" lon="6.84341">
        <ele>1018</ele>
        <time>2020-06-05T08:17:45.000Z</time>
      </trkpt>
      <trkpt lat="44.05795" lon="6.8434">
        <ele>1018</ele>
        <time>2020-06-05T08:17:46.000Z</time>
      </trkpt>
      <trkpt lat="44.05795" lon="6.84338">
        <ele>1018</ele>
        <time>2020-06-05T08:17:47.000Z</time>
      </trkpt>
      <trkpt lat="44.05795" lon="6.84337">
        <ele>1018</ele>
        <time>2020-06-05T08:17:48.000Z</time>
      </trkpt>
      <trkpt lat="44.05794" lon="6.84335">
        <ele>1018</ele>
        <time>2020-06-05T08:17:49.000Z</time>
      </trkpt>
      <trkpt lat="44.05794" lon="6.84334">
        <ele>1018</ele>
        <time>2020-06-05T08:17:50.000Z</time>
      </trkpt>
      <trkpt lat="44.05794" lon="6.84333">
        <ele>1018</ele>
        <time>2020-06-05T08:17:51.000Z</time>
      </trkpt>
      <trkpt lat="44.05794" lon="6.84331">
        <ele>1018</ele>
        <time>2020-06-05T08:17:52.000Z</time>
      </trkpt>
      <trkpt lat="44.05794" lon="6.8433">
        <ele>1019</ele>
        <time>2020-06-05T08:17:53.000Z</time>
      </trkpt>
      <trkpt lat="44.05794" lon="6.84329">
        <ele>1019</ele>
        <time>2020-06-05T08:17:54.000Z</time>
      </trkpt>
      <trkpt lat="44.05794" lon="6.84327">
        <ele>1019</ele>
        <time>2020-06-05T08:17:55.000Z</time>
      </trkpt>
      <trkpt lat="44.05794" lon="6.84326">
        <ele>1019</ele>
        <time>2020-06-05T08:17:56.000Z</time>
      </trkpt>
      <trkpt lat="44.05794" lon="6.84325">
        <ele>1019</ele>
        <time>2020-06-05T08:17:57.000Z</time>
      </trkpt>
      <trkpt lat="44.05794" lon="6.84324">
        <ele>1019</ele>
        <time>2020-06-05T08:17:58.000Z</time>
      </trkpt>
      <trkpt lat="44.05794" lon="6.84323">
        <ele>1019</ele>
        <time>2020-06-05T08:17:59.000Z</time>
      </trkpt>
      <trkpt lat="44.05794" lon="6.84322">
        <ele>1019</ele>
        <time>2020-06-05T08:18:00.000Z</time>
      </trkpt>
      <trkpt lat="44.05794" lon="6.84321">
        <ele>1019</ele>
        <time>2020-06-05T08:18:01.000Z</time>
      </trkpt>
      <trkpt lat="44.05794" lon="6.8432">
        <ele>1019</ele>
        <time>2020-06-05T08:18:02.000Z</time>
      </trkpt>
      <trkpt lat="44.05794" lon="6.84319">
        <ele>1019</ele>
        <time>2020-06-05T08:18:03.000Z</time>
      </trkpt>
      <trkpt lat="44.05795" lon="6.84318">
        <ele>1020</ele>
        <time>2020-06-05T08:18:04.000Z</time>
      </trkpt>
      <trkpt lat="44.05795" lon="6.84317">
        <ele>1020</ele>
        <time>2020-06-05T08:18:05.000Z</time>
      </trkpt>
      <trkpt lat="44.05795" lon="6.84315">
        <ele>1020</ele>
        <time>2020-06-05T08:18:06.000Z</time>
      </trkpt>
      <trkpt lat="44.05795" lon="6.84314">
        <ele>1020</ele>
        <time>2020-06-05T08:18:07.000Z</time>
      </trkpt>
      <trkpt lat="44.05795" lon="6.84313">
        <ele>1020</ele>
        <time>2020-06-05T08:18:08.000Z</time>
      </trkpt>
      <trkpt lat="44.05795" lon="6.84312">
        <ele>1021</ele>
        <time>2020-06-05T08:18:09.000Z</time>
      </trkpt>
      <trkpt lat="44.05796" lon="6.84312">
        <ele>1021</ele>
        <time>2020-06-05T08:18:10.000Z</time>
      </trkpt>
      <trkpt lat="44.05796" lon="6.84311">
        <ele>1021</ele>
        <time>2020-06-05T08:18:11.000Z</time>
      </trkpt>
      <trkpt lat="44.05796" lon="6.8431">
        <ele>1021</ele>
        <time>2020-06-05T08:18:12.000Z</time>
      </trkpt>
      <trkpt lat="44.05796" lon="6.84309">
        <ele>1022</ele>
        <time>2020-06-05T08:18:13.000Z</time>
      </trkpt>
      <trkpt lat="44.05796" lon="6.84308">
        <ele>1022</ele>
        <time>2020-06-05T08:18:14.000Z</time>
      </trkpt>
      <trkpt lat="44.05796" lon="6.84307">
        <ele>1022</ele>
        <time>2020-06-05T08:18:15.000Z</time>
      </trkpt>
      <trkpt lat="44.05796" lon="6.84306">
        <ele>1022</ele>
        <time>2020-06-05T08:18:16.000Z</time>
      </trkpt>
      <trkpt lat="44.05797" lon="6.84305">
        <ele>1022</ele>
        <time>2020-06-05T08:18:17.000Z</time>
      </trkpt>
      <trkpt lat="44.05797" lon="6.84304">
        <ele>1023</ele>
        <time>2020-06-05T08:18:18.000Z</time>
      </trkpt>
      <trkpt lat="44.05798" lon="6.84304">
        <ele>1023</ele>
        <time>2020-06-05T08:18:19.000Z</time>
      </trkpt>
      <trkpt lat="44.05798" lon="6.84304">
        <ele>1023</ele>
        <time>2020-06-05T08:18:20.000Z</time>
      </trkpt>
      <trkpt lat="44.05799" lon="6.84304">
        <ele>1023</ele>
        <time>2020-06-05T08:18:21.000Z</time>
      </trkpt>
      <trkpt lat="44.05799" lon="6.84305">
        <ele>1024</ele>
        <time>2020-06-05T08:18:22.000Z</time>
      </trkpt>
      <trkpt lat="44.05799" lon="6.84306">
        <ele>1024</ele>
        <time>2020-06-05T08:18:23.000Z</time>
      </trkpt>
      <trkpt lat="44.058" lon="6.84307">
        <ele>1024</ele>
        <time>2020-06-05T08:18:24.000Z</time>
      </trkpt>
      <trkpt lat="44.058" lon="6.84308">
        <ele>1024</ele>
        <time>2020-06-05T08:18:25.000Z</time>
      </trkpt>
      <trkpt lat="44.058" lon="6.84309">
        <ele>1025</ele>
        <time>2020-06-05T08:18:26.000Z</time>
      </trkpt>
      <trkpt lat="44.05801" lon="6.8431">
        <ele>1025</ele>
        <time>2020-06-05T08:18:27.000Z</time>
      </trkpt>
      <trkpt lat="44.05801" lon="6.84311">
        <ele>1025</ele>
        <time>2020-06-05T08:18:28.000Z</time>
      </trkpt>
      <trkpt lat="44.05801" lon="6.84312">
        <ele>1025</ele>
        <time>2020-06-05T08:18:29.000Z</time>
      </trkpt>
      <trkpt lat="44.05801" lon="6.84312">
        <ele>1025</ele>
        <time>2020-06-05T08:18:30.000Z</time>
      </trkpt>
      <trkpt lat="44.05802" lon="6.84313">
        <ele>1025</ele>
        <time>2020-06-05T08:18:31.000Z</time>
      </trkpt>
      <trkpt lat="44.05802" lon="6.84314">
        <ele>1026</ele>
        <time>2020-06-05T08:18:32.000Z</time>
      </trkpt>
      <trkpt lat="44.05802" lon="6.84315">
        <ele>1026</ele>
        <time>2020-06-05T08:18:33.000Z</time>
      </trkpt>
      <trkpt lat="44.05802" lon="6.84316">
        <ele>1026</ele>
        <time>2020-06-05T08:18:34.000Z</time>
      </trkpt>
      <trkpt lat="44.05802" lon="6.84317">
        <ele>1026</ele>
        <time>2020-06-05T08:18:35.000Z</time>
      </trkpt>
      <trkpt lat="44.05802" lon="6.84318">
        <ele>1026</ele>
        <time>2020-06-05T08:18:36.000Z</time>
      </trkpt>
      <trkpt lat="44.05802" lon="6.84319">
        <ele>1026</ele>
        <time>2020-06-05T08:18:37.000Z</time>
      </trkpt>
      <trkpt lat="44.05803" lon="6.8432">
        <ele>1026</ele>
        <time>2020-06-05T08:18:38.000Z</time>
      </trkpt>
      <trkpt lat="44.05803" lon="6.8432">
        <ele>1026</ele>
        <time>2020-06-05T08:18:39.000Z</time>
      </trkpt>
      <trkpt lat="44.05803" lon="6.8432">
        <ele>1026</ele>
        <time>2020-06-05T08:18:40.000Z</time>
      </trkpt>
      <trkpt lat="44.05803" lon="6.8432">
        <ele>1026</ele>
        <time>2020-06-05T08:18:41.000Z</time>
      </trkpt>
      <trkpt lat="44.05803" lon="6.8432">
        <ele>1026</ele>
        <time>2020-06-05T08:18:42.000Z</time>
      </trkpt>
      <trkpt lat="44.05803" lon="6.8432">
        <ele>1026</ele>
        <time>2020-06-05T08:18:43.000Z</time>
      </trkpt>
      <trkpt lat="44.05803" lon="6.8432">
        <ele>1026</ele>
        <time>2020-06-05T08:18:44.000Z</time>
      </trkpt>
      <trkpt lat="44.05803" lon="6.8432">
        <ele>1026</ele>
        <time>2020-06-05T08:18:45.000Z</time>
      </trkpt>
      <trkpt lat="44.05803" lon="6.84321">
        <ele>1026</ele>
        <time>2020-06-05T08:18:46.000Z</time>
      </trkpt>
      <trkpt lat="44.05803" lon="6.84321">
        <ele>1026</ele>
        <time>2020-06-05T08:18:47.000Z</time>
      </trkpt>
      <trkpt lat="44.05803" lon="6.84321">
        <ele>1026</ele>
        <time>2020-06-05T08:18:48.000Z</time>
      </trkpt>
      <trkpt lat="44.05803" lon="6.84321">
        <ele>1026</ele>
        <time>2020-06-05T08:18:49.000Z</time>
      </trkpt>
      <trkpt lat="44.05803" lon="6.84321">
        <ele>1026</ele>
        <time>2020-06-05T08:18:50.000Z</time>
      </trkpt>
      <trkpt lat="44.05803" lon="6.84321">
        <ele>1026</ele>
        <time>2020-06-05T08:18:51.000Z</time>
      </trkpt>
      <trkpt lat="44.05803" lon="6.84321">
        <ele>1027</ele>
        <time>2020-06-05T08:18:52.000Z</time>
      </trkpt>
      <trkpt lat="44.05803" lon="6.84321">
        <ele>1027</ele>
        <time>2020-06-05T08:18:53.000Z</time>
      </trkpt>
      <trkpt lat="44.05803" lon="6.84321">
        <ele>1027</ele>
        <time>2020-06-05T08:18:54.000Z</time>
      </trkpt>
      <trkpt lat="44.05803" lon="6.84321">
        <ele>1027</ele>
        <time>2020-06-05T08:18:55.000Z</time>
      </trkpt>
      <trkpt lat="44.05803" lon="6.84321">
        <ele>1027</ele>
        <time>2020-06-05T08:18:56.000Z</time>
      </trkpt>
      <trkpt lat="44.05803" lon="6.84321">
        <ele>1027</ele>
        <time>2020-06-05T08:18:57.000Z</time>
      </trkpt>
      <trkpt lat="44.05803" lon="6.84321">
        <ele>1027</ele>
        <time>2020-06-05T08:18:58.000Z</time>
      </trkpt>
      <trkpt lat="44.05803" lon="6.84321">
        <ele>1027</ele>
        <time>2020-06-05T08:18:59.000Z</time>
      </trkpt>
      <trkpt lat="44.05803" lon="6.84321">
        <ele>1027</ele>
        <time>2020-06-05T08:19:00.000Z</time>
      </trkpt>
      <trkpt lat="44.05803" lon="6.84321">
        <ele>1027</ele>
        <time>2020-06-05T08:19:01.000Z</time>
      </trkpt>
      <trkpt lat="44.05803" lon="6.84322">
        <ele>1027</ele>
        <time>2020-06-05T08:19:02.000Z</time>
      </trkpt>
      <trkpt lat="44.05803" lon="6.84322">
        <ele>1027</ele>
        <time>2020-06-05T08:19:03.000Z</time>
      </trkpt>
      <trkpt lat="44.05804" lon="6.84323">
        <ele>1027</ele>
        <time>2020-06-05T08:19:04.000Z</time>
      </trkpt>
      <trkpt lat="44.05804" lon="6.84324">
        <ele>1027</ele>
        <time>2020-06-05T08:19:05.000Z</time>
      </trkpt>
      <trkpt lat="44.05804" lon="6.84325">
        <ele>1027</ele>
        <time>2020-06-05T08:19:06.000Z</time>
      </trkpt>
      <trkpt lat="44.05804" lon="6.84327">
        <ele>1027</ele>
        <time>2020-06-05T08:19:07.000Z</time>
      </trkpt>
      <trkpt lat="44.05804" lon="6.84328">
        <ele>1027</ele>
        <time>2020-06-05T08:19:08.000Z</time>
      </trkpt>
      <trkpt lat="44.05804" lon="6.84328">
        <ele>1027</ele>
        <time>2020-06-05T08:19:09.000Z</time>
      </trkpt>
      <trkpt lat="44.05804" lon="6.84329">
        <ele>1027</ele>
        <time>2020-06-05T08:19:10.000Z</time>
      </trkpt>
      <trkpt lat="44.05804" lon="6.84329">
        <ele>1027</ele>
        <time>2020-06-05T08:19:11.000Z</time>
      </trkpt>
      <trkpt lat="44.05804" lon="6.84329">
        <ele>1027</ele>
        <time>2020-06-05T08:19:12.000Z</time>
      </trkpt>
      <trkpt lat="44.05804" lon="6.84329">
        <ele>1027</ele>
        <time>2020-06-05T08:19:13.000Z</time>
      </trkpt>
      <trkpt lat="44.05804" lon="6.84329">
        <ele>1027</ele>
        <time>2020-06-05T08:19:14.000Z</time>
      </trkpt>
      <trkpt lat="44.05804" lon="6.84329">
        <ele>1027</ele>
        <time>2020-06-05T08:19:15.000Z</time>
      </trkpt>
      <trkpt lat="44.05804" lon="6.84329">
        <ele>1027</ele>
        <time>2020-06-05T08:19:16.000Z</time>
      </trkpt>
      <trkpt lat="44.05804" lon="6.84329">
        <ele>1027</ele>
        <time>2020-06-05T08:19:17.000Z</time>
      </trkpt>
      <trkpt lat="44.05804" lon="6.84329">
        <ele>1027</ele>
        <time>2020-06-05T08:19:18.000Z</time>
      </trkpt>
      <trkpt lat="44.05804" lon="6.84329">
        <ele>1028</ele>
        <time>2020-06-05T08:19:19.000Z</time>
      </trkpt>
      <trkpt lat="44.05804" lon="6.84329">
        <ele>1028</ele>
        <time>2020-06-05T08:19:20.000Z</time>
      </trkpt>
      <trkpt lat="44.05804" lon="6.84329">
        <ele>1028</ele>
        <time>2020-06-05T08:19:21.000Z</time>
      </trkpt>
      <trkpt lat="44.05804" lon="6.84329">
        <ele>1028</ele>
        <time>2020-06-05T08:19:22.000Z</time>
      </trkpt>
      <trkpt lat="44.05805" lon="6.84329">
        <ele>1028</ele>
        <time>2020-06-05T08:19:23.000Z</time>
      </trkpt>
      <trkpt lat="44.05805" lon="6.84329">
        <ele>1028</ele>
        <time>2020-06-05T08:19:24.000Z</time>
      </trkpt>
      <trkpt lat="44.05805" lon="6.84329">
        <ele>1028</ele>
        <time>2020-06-05T08:19:25.000Z</time>
      </trkpt>
      <trkpt lat="44.05805" lon="6.84329">
        <ele>1028</ele>
        <time>2020-06-05T08:19:26.000Z</time>
      </trkpt>
      <trkpt lat="44.05804" lon="6.84329">
        <ele>1028</ele>
        <time>2020-06-05T08:19:27.000Z</time>
      </trkpt>
      <trkpt lat="44.05804" lon="6.84329">
        <ele>1028</ele>
        <time>2020-06-05T08:19:28.000Z</time>
      </trkpt>
      <trkpt lat="44.05804" lon="6.84329">
        <ele>1028</ele>
        <time>2020-06-05T08:19:29.000Z</time>
      </trkpt>
      <trkpt lat="44.05804" lon="6.84329">
        <ele>1028</ele>
        <time>2020-06-05T08:19:30.000Z</time>
      </trkpt>
      <trkpt lat="44.05804" lon="6.84329">
        <ele>1028</ele>
        <time>2020-06-05T08:19:31.000Z</time>
      </trkpt>
      <trkpt lat="44.05804" lon="6.84329">
        <ele>1028</ele>
        <time>2020-06-05T08:19:32.000Z</time>
      </trkpt>
      <trkpt lat="44.05804" lon="6.84329">
        <ele>1028</ele>
        <time>2020-06-05T08:19:33.000Z</time>
      </trkpt>
      <trkpt lat="44.05804" lon="6.8433">
        <ele>1028</ele>
        <time>2020-06-05T08:19:34.000Z</time>
      </trkpt>
      <trkpt lat="44.05805" lon="6.8433">
        <ele>1028</ele>
        <time>2020-06-05T08:19:35.000Z</time>
      </trkpt>
      <trkpt lat="44.05805" lon="6.8433">
        <ele>1028</ele>
        <time>2020-06-05T08:19:36.000Z</time>
      </trkpt>
      <trkpt lat="44.05805" lon="6.8433">
        <ele>1028</ele>
        <time>2020-06-05T08:19:37.000Z</time>
      </trkpt>
      <trkpt lat="44.05805" lon="6.8433">
        <ele>1028</ele>
        <time>2020-06-05T08:19:38.000Z</time>
      </trkpt>
      <trkpt lat="44.05805" lon="6.8433">
        <ele>1028</ele>
        <time>2020-06-05T08:19:39.000Z</time>
      </trkpt>
      <trkpt lat="44.05805" lon="6.84331">
        <ele>1028</ele>
        <time>2020-06-05T08:19:40.000Z</time>
      </trkpt>
      <trkpt lat="44.05805" lon="6.84331">
        <ele>1028</ele>
        <time>2020-06-05T08:19:41.000Z</time>
      </trkpt>
      <trkpt lat="44.05805" lon="6.8433">
        <ele>1028</ele>
        <time>2020-06-05T08:19:42.000Z</time>
      </trkpt>
      <trkpt lat="44.05805" lon="6.8433">
        <ele>1028</ele>
        <time>2020-06-05T08:19:43.000Z</time>
      </trkpt>
      <trkpt lat="44.05805" lon="6.8433">
        <ele>1028</ele>
        <time>2020-06-05T08:19:44.000Z</time>
      </trkpt>
      <trkpt lat="44.05805" lon="6.84331">
        <ele>1029</ele>
        <time>2020-06-05T08:19:45.000Z</time>
      </trkpt>
      <trkpt lat="44.05805" lon="6.84331">
        <ele>1029</ele>
        <time>2020-06-05T08:19:46.000Z</time>
      </trkpt>
      <trkpt lat="44.05805" lon="6.84331">
        <ele>1029</ele>
        <time>2020-06-05T08:19:47.000Z</time>
      </trkpt>
      <trkpt lat="44.05805" lon="6.84332">
        <ele>1029</ele>
        <time>2020-06-05T08:19:48.000Z</time>
      </trkpt>
      <trkpt lat="44.05805" lon="6.84333">
        <ele>1029</ele>
        <time>2020-06-05T08:19:49.000Z</time>
      </trkpt>
      <trkpt lat="44.05805" lon="6.84334">
        <ele>1029</ele>
        <time>2020-06-05T08:19:50.000Z</time>
      </trkpt>
      <trkpt lat="44.05805" lon="6.84335">
        <ele>1029</ele>
        <time>2020-06-05T08:19:51.000Z</time>
      </trkpt>
      <trkpt lat="44.05805" lon="6.84336">
        <ele>1029</ele>
        <time>2020-06-05T08:19:52.000Z</time>
      </trkpt>
      <trkpt lat="44.05805" lon="6.84338">
        <ele>1029</ele>
        <time>2020-06-05T08:19:53.000Z</time>
      </trkpt>
      <trkpt lat="44.05805" lon="6.84339">
        <ele>1029</ele>
        <time>2020-06-05T08:19:54.000Z</time>
      </trkpt>
      <trkpt lat="44.05805" lon="6.8434">
        <ele>1029</ele>
        <time>2020-06-05T08:19:55.000Z</time>
      </trkpt>
      <trkpt lat="44.05806" lon="6.84342">
        <ele>1030</ele>
        <time>2020-06-05T08:19:56.000Z</time>
      </trkpt>
      <trkpt lat="44.05806" lon="6.84343">
        <ele>1030</ele>
        <time>2020-06-05T08:19:57.000Z</time>
      </trkpt>
      <trkpt lat="44.05806" lon="6.84344">
        <ele>1030</ele>
        <time>2020-06-05T08:19:58.000Z</time>
      </trkpt>
      <trkpt lat="44.05806" lon="6.84345">
        <ele>1030</ele>
        <time>2020-06-05T08:19:59.000Z</time>
      </trkpt>
      <trkpt lat="44.05807" lon="6.84346">
        <ele>1030</ele>
        <time>2020-06-05T08:20:00.000Z</time>
      </trkpt>
      <trkpt lat="44.05807" lon="6.84347">
        <ele>1030</ele>
        <time>2020-06-05T08:20:01.000Z</time>
      </trkpt>
      <trkpt lat="44.05808" lon="6.84348">
        <ele>1030</ele>
        <time>2020-06-05T08:20:02.000Z</time>
      </trkpt>
      <trkpt lat="44.05808" lon="6.84349">
        <ele>1030</ele>
        <time>2020-06-05T08:20:03.000Z</time>
      </trkpt>
      <trkpt lat="44.05809" lon="6.8435">
        <ele>1030</ele>
        <time>2020-06-05T08:20:04.000Z</time>
      </trkpt>
      <trkpt lat="44.05809" lon="6.84351">
        <ele>1030</ele>
        <time>2020-06-05T08:20:05.000Z</time>
      </trkpt>
      <trkpt lat="44.0581" lon="6.84352">
        <ele>1030</ele>
        <time>2020-06-05T08:20:06.000Z</time>
      </trkpt>
      <trkpt lat="44.0581" lon="6.84354">
        <ele>1030</ele>
        <time>2020-06-05T08:20:07.000Z</time>
      </trkpt>
      <trkpt lat="44.05811" lon="6.84355">
        <ele>1030</ele>
        <time>2020-06-05T08:20:08.000Z</time>
      </trkpt>
      <trkpt lat="44.05811" lon="6.84356">
        <ele>1030</ele>
        <time>2020-06-05T08:20:09.000Z</time>
      </trkpt>
      <trkpt lat="44.05812" lon="6.84357">
        <ele>1030</ele>
        <time>2020-06-05T08:20:10.000Z</time>
      </trkpt>
      <trkpt lat="44.05812" lon="6.84358">
        <ele>1030</ele>
        <time>2020-06-05T08:20:11.000Z</time>
      </trkpt>
      <trkpt lat="44.05812" lon="6.8436">
        <ele>1030</ele>
        <time>2020-06-05T08:20:12.000Z</time>
      </trkpt>
      <trkpt lat="44.05813" lon="6.84361">
        <ele>1030</ele>
        <time>2020-06-05T08:20:13.000Z</time>
      </trkpt>
      <trkpt lat="44.05814" lon="6.84362">
        <ele>1030</ele>
        <time>2020-06-05T08:20:14.000Z</time>
      </trkpt>
      <trkpt lat="44.05814" lon="6.84363">
        <ele>1031</ele>
        <time>2020-06-05T08:20:15.000Z</time>
      </trkpt>
      <trkpt lat="44.05815" lon="6.84364">
        <ele>1031</ele>
        <time>2020-06-05T08:20:16.000Z</time>
      </trkpt>
      <trkpt lat="44.05815" lon="6.84365">
        <ele>1031</ele>
        <time>2020-06-05T08:20:17.000Z</time>
      </trkpt>
      <trkpt lat="44.05816" lon="6.84366">
        <ele>1031</ele>
        <time>2020-06-05T08:20:18.000Z</time>
      </trkpt>
      <trkpt lat="44.05817" lon="6.84367">
        <ele>1031</ele>
        <time>2020-06-05T08:20:19.000Z</time>
      </trkpt>
      <trkpt lat="44.05818" lon="6.84368">
        <ele>1031</ele>
        <time>2020-06-05T08:20:20.000Z</time>
      </trkpt>
      <trkpt lat="44.05818" lon="6.84369">
        <ele>1031</ele>
        <time>2020-06-05T08:20:21.000Z</time>
      </trkpt>
      <trkpt lat="44.05819" lon="6.8437">
        <ele>1031</ele>
        <time>2020-06-05T08:20:22.000Z</time>
      </trkpt>
      <trkpt lat="44.0582" lon="6.84371">
        <ele>1032</ele>
        <time>2020-06-05T08:20:23.000Z</time>
      </trkpt>
      <trkpt lat="44.0582" lon="6.84372">
        <ele>1032</ele>
        <time>2020-06-05T08:20:24.000Z</time>
      </trkpt>
      <trkpt lat="44.05821" lon="6.84373">
        <ele>1032</ele>
        <time>2020-06-05T08:20:25.000Z</time>
      </trkpt>
      <trkpt lat="44.05821" lon="6.84374">
        <ele>1032</ele>
        <time>2020-06-05T08:20:26.000Z</time>
      </trkpt>
      <trkpt lat="44.05822" lon="6.84375">
        <ele>1032</ele>
        <time>2020-06-05T08:20:27.000Z</time>
      </trkpt>
      <trkpt lat="44.05823" lon="6.84376">
        <ele>1033</ele>
        <time>2020-06-05T08:20:28.000Z</time>
      </trkpt>
      <trkpt lat="44.05824" lon="6.84377">
        <ele>1033</ele>
        <time>2020-06-05T08:20:29.000Z</time>
      </trkpt>
      <trkpt lat="44.05824" lon="6.84378">
        <ele>1033</ele>
        <time>2020-06-05T08:20:30.000Z</time>
      </trkpt>
      <trkpt lat="44.05825" lon="6.84379">
        <ele>1033</ele>
        <time>2020-06-05T08:20:31.000Z</time>
      </trkpt>
      <trkpt lat="44.05826" lon="6.8438">
        <ele>1033</ele>
        <time>2020-06-05T08:20:32.000Z</time>
      </trkpt>
      <trkpt lat="44.05826" lon="6.84381">
        <ele>1033</ele>
        <time>2020-06-05T08:20:33.000Z</time>
      </trkpt>
      <trkpt lat="44.05827" lon="6.84381">
        <ele>1034</ele>
        <time>2020-06-05T08:20:34.000Z</time>
      </trkpt>
      <trkpt lat="44.05827" lon="6.84382">
        <ele>1034</ele>
        <time>2020-06-05T08:20:35.000Z</time>
      </trkpt>
      <trkpt lat="44.05828" lon="6.84383">
        <ele>1034</ele>
        <time>2020-06-05T08:20:36.000Z</time>
      </trkpt>
      <trkpt lat="44.05828" lon="6.84384">
        <ele>1034</ele>
        <time>2020-06-05T08:20:37.000Z</time>
      </trkpt>
      <trkpt lat="44.05829" lon="6.84385">
        <ele>1034</ele>
        <time>2020-06-05T08:20:38.000Z</time>
      </trkpt>
      <trkpt lat="44.05829" lon="6.84386">
        <ele>1034</ele>
        <time>2020-06-05T08:20:39.000Z</time>
      </trkpt>
      <trkpt lat="44.0583" lon="6.84387">
        <ele>1034</ele>
        <time>2020-06-05T08:20:40.000Z</time>
      </trkpt>
      <trkpt lat="44.05831" lon="6.84388">
        <ele>1034</ele>
        <time>2020-06-05T08:20:41.000Z</time>
      </trkpt>
      <trkpt lat="44.05831" lon="6.84389">
        <ele>1034</ele>
        <time>2020-06-05T08:20:42.000Z</time>
      </trkpt>
      <trkpt lat="44.05832" lon="6.8439">
        <ele>1035</ele>
        <time>2020-06-05T08:20:43.000Z</time>
      </trkpt>
      <trkpt lat="44.05832" lon="6.8439">
        <ele>1035</ele>
        <time>2020-06-05T08:20:44.000Z</time>
      </trkpt>
      <trkpt lat="44.05832" lon="6.84392">
        <ele>1035</ele>
        <time>2020-06-05T08:20:45.000Z</time>
      </trkpt>
      <trkpt lat="44.05833" lon="6.84392">
        <ele>1035</ele>
        <time>2020-06-05T08:20:46.000Z</time>
      </trkpt>
      <trkpt lat="44.05833" lon="6.84393">
        <ele>1035</ele>
        <time>2020-06-05T08:20:47.000Z</time>
      </trkpt>
      <trkpt lat="44.05834" lon="6.84394">
        <ele>1035</ele>
        <time>2020-06-05T08:20:48.000Z</time>
      </trkpt>
      <trkpt lat="44.05834" lon="6.84395">
        <ele>1035</ele>
        <time>2020-06-05T08:20:49.000Z</time>
      </trkpt>
      <trkpt lat="44.05835" lon="6.84396">
        <ele>1035</ele>
        <time>2020-06-05T08:20:50.000Z</time>
      </trkpt>
      <trkpt lat="44.05835" lon="6.84398">
        <ele>1036</ele>
        <time>2020-06-05T08:20:51.000Z</time>
      </trkpt>
      <trkpt lat="44.05836" lon="6.84399">
        <ele>1036</ele>
        <time>2020-06-05T08:20:52.000Z</time>
      </trkpt>
      <trkpt lat="44.05836" lon="6.844">
        <ele>1036</ele>
        <time>2020-06-05T08:20:53.000Z</time>
      </trkpt>
      <trkpt lat="44.05837" lon="6.84401">
        <ele>1036</ele>
        <time>2020-06-05T08:20:54.000Z</time>
      </trkpt>
      <trkpt lat="44.05838" lon="6.84401">
        <ele>1036</ele>
        <time>2020-06-05T08:20:55.000Z</time>
      </trkpt>
      <trkpt lat="44.05838" lon="6.84402">
        <ele>1036</ele>
        <time>2020-06-05T08:20:56.000Z</time>
      </trkpt>
      <trkpt lat="44.05839" lon="6.84403">
        <ele>1036</ele>
        <time>2020-06-05T08:20:57.000Z</time>
      </trkpt>
      <trkpt lat="44.05839" lon="6.84404">
        <ele>1036</ele>
        <time>2020-06-05T08:20:58.000Z</time>
      </trkpt>
      <trkpt lat="44.0584" lon="6.84405">
        <ele>1036</ele>
        <time>2020-06-05T08:20:59.000Z</time>
      </trkpt>
      <trkpt lat="44.0584" lon="6.84406">
        <ele>1037</ele>
        <time>2020-06-05T08:21:00.000Z</time>
      </trkpt>
      <trkpt lat="44.0584" lon="6.84407">
        <ele>1037</ele>
        <time>2020-06-05T08:21:01.000Z</time>
      </trkpt>
      <trkpt lat="44.05841" lon="6.84409">
        <ele>1037</ele>
        <time>2020-06-05T08:21:02.000Z</time>
      </trkpt>
      <trkpt lat="44.05842" lon="6.8441">
        <ele>1037</ele>
        <time>2020-06-05T08:21:03.000Z</time>
      </trkpt>
      <trkpt lat="44.05842" lon="6.84411">
        <ele>1038</ele>
        <time>2020-06-05T08:21:04.000Z</time>
      </trkpt>
      <trkpt lat="44.05843" lon="6.84412">
        <ele>1038</ele>
        <time>2020-06-05T08:21:05.000Z</time>
      </trkpt>
      <trkpt lat="44.05843" lon="6.84413">
        <ele>1038</ele>
        <time>2020-06-05T08:21:06.000Z</time>
      </trkpt>
      <trkpt lat="44.05843" lon="6.84414">
        <ele>1038</ele>
        <time>2020-06-05T08:21:07.000Z</time>
      </trkpt>
      <trkpt lat="44.05844" lon="6.84415">
        <ele>1038</ele>
        <time>2020-06-05T08:21:08.000Z</time>
      </trkpt>
      <trkpt lat="44.05844" lon="6.84416">
        <ele>1039</ele>
        <time>2020-06-05T08:21:09.000Z</time>
      </trkpt>
      <trkpt lat="44.05845" lon="6.84417">
        <ele>1039</ele>
        <time>2020-06-05T08:21:10.000Z</time>
      </trkpt>
      <trkpt lat="44.05845" lon="6.84419">
        <ele>1039</ele>
        <time>2020-06-05T08:21:11.000Z</time>
      </trkpt>
      <trkpt lat="44.05846" lon="6.8442">
        <ele>1039</ele>
        <time>2020-06-05T08:21:12.000Z</time>
      </trkpt>
      <trkpt lat="44.05846" lon="6.8442">
        <ele>1039</ele>
        <time>2020-06-05T08:21:13.000Z</time>
      </trkpt>
      <trkpt lat="44.05847" lon="6.84421">
        <ele>1040</ele>
        <time>2020-06-05T08:21:14.000Z</time>
      </trkpt>
      <trkpt lat="44.05847" lon="6.84422">
        <ele>1040</ele>
        <time>2020-06-05T08:21:15.000Z</time>
      </trkpt>
      <trkpt lat="44.05848" lon="6.84423">
        <ele>1040</ele>
        <time>2020-06-05T08:21:16.000Z</time>
      </trkpt>
      <trkpt lat="44.05848" lon="6.84424">
        <ele>1040</ele>
        <time>2020-06-05T08:21:17.000Z</time>
      </trkpt>
      <trkpt lat="44.05849" lon="6.84425">
        <ele>1040</ele>
        <time>2020-06-05T08:21:18.000Z</time>
      </trkpt>
      <trkpt lat="44.05849" lon="6.84426">
        <ele>1040</ele>
        <time>2020-06-05T08:21:19.000Z</time>
      </trkpt>
      <trkpt lat="44.05849" lon="6.84427">
        <ele>1040</ele>
        <time>2020-06-05T08:21:20.000Z</time>
      </trkpt>
      <trkpt lat="44.0585" lon="6.84428">
        <ele>1040</ele>
        <time>2020-06-05T08:21:21.000Z</time>
      </trkpt>
      <trkpt lat="44.0585" lon="6.8443">
        <ele>1041</ele>
        <time>2020-06-05T08:21:22.000Z</time>
      </trkpt>
      <trkpt lat="44.05851" lon="6.84431">
        <ele>1041</ele>
        <time>2020-06-05T08:21:23.000Z</time>
      </trkpt>
      <trkpt lat="44.05851" lon="6.84431">
        <ele>1041</ele>
        <time>2020-06-05T08:21:24.000Z</time>
      </trkpt>
      <trkpt lat="44.05852" lon="6.84433">
        <ele>1041</ele>
        <time>2020-06-05T08:21:25.000Z</time>
      </trkpt>
      <trkpt lat="44.05852" lon="6.84433">
        <ele>1041</ele>
        <time>2020-06-05T08:21:26.000Z</time>
      </trkpt>
      <trkpt lat="44.05853" lon="6.84434">
        <ele>1041</ele>
        <time>2020-06-05T08:21:27.000Z</time>
      </trkpt>
      <trkpt lat="44.05853" lon="6.84436">
        <ele>1041</ele>
        <time>2020-06-05T08:21:28.000Z</time>
      </trkpt>
      <trkpt lat="44.05854" lon="6.84436">
        <ele>1042</ele>
        <time>2020-06-05T08:21:29.000Z</time>
      </trkpt>
      <trkpt lat="44.05854" lon="6.84437">
        <ele>1042</ele>
        <time>2020-06-05T08:21:30.000Z</time>
      </trkpt>
      <trkpt lat="44.05855" lon="6.84437">
        <ele>1042</ele>
        <time>2020-06-05T08:21:31.000Z</time>
      </trkpt>
      <trkpt lat="44.05855" lon="6.84437">
        <ele>1042</ele>
        <time>2020-06-05T08:21:32.000Z</time>
      </trkpt>
      <trkpt lat="44.05855" lon="6.84437">
        <ele>1042</ele>
        <time>2020-06-05T08:21:33.000Z</time>
      </trkpt>
      <trkpt lat="44.05856" lon="6.84436">
        <ele>1042</ele>
        <time>2020-06-05T08:21:34.000Z</time>
      </trkpt>
      <trkpt lat="44.05856" lon="6.84436">
        <ele>1042</ele>
        <time>2020-06-05T08:21:35.000Z</time>
      </trkpt>
      <trkpt lat="44.05856" lon="6.84435">
        <ele>1042</ele>
        <time>2020-06-05T08:21:36.000Z</time>
      </trkpt>
      <trkpt lat="44.05855" lon="6.84434">
        <ele>1042</ele>
        <time>2020-06-05T08:21:37.000Z</time>
      </trkpt>
      <trkpt lat="44.05855" lon="6.84433">
        <ele>1042</ele>
        <time>2020-06-05T08:21:38.000Z</time>
      </trkpt>
      <trkpt lat="44.05855" lon="6.84432">
        <ele>1042</ele>
        <time>2020-06-05T08:21:39.000Z</time>
      </trkpt>
      <trkpt lat="44.05855" lon="6.84431">
        <ele>1042</ele>
        <time>2020-06-05T08:21:40.000Z</time>
      </trkpt>
      <trkpt lat="44.05854" lon="6.84431">
        <ele>1042</ele>
        <time>2020-06-05T08:21:41.000Z</time>
      </trkpt>
      <trkpt lat="44.05854" lon="6.8443">
        <ele>1042</ele>
        <time>2020-06-05T08:21:42.000Z</time>
      </trkpt>
      <trkpt lat="44.05854" lon="6.84429">
        <ele>1042</ele>
        <time>2020-06-05T08:21:43.000Z</time>
      </trkpt>
      <trkpt lat="44.05854" lon="6.84428">
        <ele>1042</ele>
        <time>2020-06-05T08:21:44.000Z</time>
      </trkpt>
      <trkpt lat="44.05854" lon="6.84427">
        <ele>1042</ele>
        <time>2020-06-05T08:21:45.000Z</time>
      </trkpt>
      <trkpt lat="44.05854" lon="6.84426">
        <ele>1043</ele>
        <time>2020-06-05T08:21:46.000Z</time>
      </trkpt>
      <trkpt lat="44.05854" lon="6.84425">
        <ele>1043</ele>
        <time>2020-06-05T08:21:47.000Z</time>
      </trkpt>
      <trkpt lat="44.05854" lon="6.84424">
        <ele>1043</ele>
        <time>2020-06-05T08:21:48.000Z</time>
      </trkpt>
      <trkpt lat="44.05854" lon="6.84423">
        <ele>1043</ele>
        <time>2020-06-05T08:21:49.000Z</time>
      </trkpt>
      <trkpt lat="44.05854" lon="6.84423">
        <ele>1043</ele>
        <time>2020-06-05T08:21:50.000Z</time>
      </trkpt>
      <trkpt lat="44.05854" lon="6.84422">
        <ele>1043</ele>
        <time>2020-06-05T08:21:51.000Z</time>
      </trkpt>
      <trkpt lat="44.05854" lon="6.84421">
        <ele>1043</ele>
        <time>2020-06-05T08:21:52.000Z</time>
      </trkpt>
      <trkpt lat="44.05853" lon="6.84421">
        <ele>1043</ele>
        <time>2020-06-05T08:21:53.000Z</time>
      </trkpt>
      <trkpt lat="44.05854" lon="6.8442">
        <ele>1043</ele>
        <time>2020-06-05T08:21:54.000Z</time>
      </trkpt>
      <trkpt lat="44.05854" lon="6.84419">
        <ele>1044</ele>
        <time>2020-06-05T08:21:55.000Z</time>
      </trkpt>
      <trkpt lat="44.05854" lon="6.84418">
        <ele>1044</ele>
        <time>2020-06-05T08:21:56.000Z</time>
      </trkpt>
      <trkpt lat="44.05854" lon="6.84417">
        <ele>1044</ele>
        <time>2020-06-05T08:21:57.000Z</time>
      </trkpt>
      <trkpt lat="44.05853" lon="6.84417">
        <ele>1044</ele>
        <time>2020-06-05T08:21:58.000Z</time>
      </trkpt>
      <trkpt lat="44.05853" lon="6.84416">
        <ele>1044</ele>
        <time>2020-06-05T08:21:59.000Z</time>
      </trkpt>
      <trkpt lat="44.05853" lon="6.84415">
        <ele>1044</ele>
        <time>2020-06-05T08:22:00.000Z</time>
      </trkpt>
      <trkpt lat="44.05853" lon="6.84414">
        <ele>1045</ele>
        <time>2020-06-05T08:22:01.000Z</time>
      </trkpt>
      <trkpt lat="44.05853" lon="6.84413">
        <ele>1045</ele>
        <time>2020-06-05T08:22:02.000Z</time>
      </trkpt>
      <trkpt lat="44.05853" lon="6.84412">
        <ele>1045</ele>
        <time>2020-06-05T08:22:03.000Z</time>
      </trkpt>
      <trkpt lat="44.05852" lon="6.84411">
        <ele>1045</ele>
        <time>2020-06-05T08:22:04.000Z</time>
      </trkpt>
      <trkpt lat="44.05852" lon="6.8441">
        <ele>1045</ele>
        <time>2020-06-05T08:22:05.000Z</time>
      </trkpt>
      <trkpt lat="44.05852" lon="6.84409">
        <ele>1045</ele>
        <time>2020-06-05T08:22:06.000Z</time>
      </trkpt>
      <trkpt lat="44.05852" lon="6.84409">
        <ele>1045</ele>
        <time>2020-06-05T08:22:07.000Z</time>
      </trkpt>
      <trkpt lat="44.05852" lon="6.84409">
        <ele>1045</ele>
        <time>2020-06-05T08:22:08.000Z</time>
      </trkpt>
      <trkpt lat="44.05852" lon="6.84409">
        <ele>1045</ele>
        <time>2020-06-05T08:22:09.000Z</time>
      </trkpt>
      <trkpt lat="44.05852" lon="6.84409">
        <ele>1045</ele>
        <time>2020-06-05T08:22:10.000Z</time>
      </trkpt>
      <trkpt lat="44.05852" lon="6.84409">
        <ele>1045</ele>
        <time>2020-06-05T08:22:11.000Z</time>
      </trkpt>
      <trkpt lat="44.05852" lon="6.84408">
        <ele>1045</ele>
        <time>2020-06-05T08:22:12.000Z</time>
      </trkpt>
      <trkpt lat="44.05852" lon="6.84408">
        <ele>1045</ele>
        <time>2020-06-05T08:22:13.000Z</time>
      </trkpt>
      <trkpt lat="44.05852" lon="6.84408">
        <ele>1045</ele>
        <time>2020-06-05T08:22:14.000Z</time>
      </trkpt>
      <trkpt lat="44.05852" lon="6.84408">
        <ele>1046</ele>
        <time>2020-06-05T08:22:15.000Z</time>
      </trkpt>
      <trkpt lat="44.05852" lon="6.84408">
        <ele>1046</ele>
        <time>2020-06-05T08:22:16.000Z</time>
      </trkpt>
      <trkpt lat="44.05852" lon="6.84408">
        <ele>1046</ele>
        <time>2020-06-05T08:22:17.000Z</time>
      </trkpt>
      <trkpt lat="44.05852" lon="6.84408">
        <ele>1046</ele>
        <time>2020-06-05T08:22:18.000Z</time>
      </trkpt>
      <trkpt lat="44.05852" lon="6.84408">
        <ele>1046</ele>
        <time>2020-06-05T08:22:19.000Z</time>
      </trkpt>
      <trkpt lat="44.05852" lon="6.84408">
        <ele>1046</ele>
        <time>2020-06-05T08:22:20.000Z</time>
      </trkpt>
      <trkpt lat="44.05852" lon="6.84408">
        <ele>1046</ele>
        <time>2020-06-05T08:22:21.000Z</time>
      </trkpt>
      <trkpt lat="44.05852" lon="6.84408">
        <ele>1046</ele>
        <time>2020-06-05T08:22:22.000Z</time>
      </trkpt>
      <trkpt lat="44.05852" lon="6.84408">
        <ele>1046</ele>
        <time>2020-06-05T08:22:23.000Z</time>
      </trkpt>
      <trkpt lat="44.05852" lon="6.84408">
        <ele>1046</ele>
        <time>2020-06-05T08:22:24.000Z</time>
      </trkpt>
      <trkpt lat="44.05852" lon="6.84408">
        <ele>1046</ele>
        <time>2020-06-05T08:22:25.000Z</time>
      </trkpt>
      <trkpt lat="44.05852" lon="6.84408">
        <ele>1046</ele>
        <time>2020-06-05T08:22:26.000Z</time>
      </trkpt>
      <trkpt lat="44.05852" lon="6.84408">
        <ele>1046</ele>
        <time>2020-06-05T08:22:27.000Z</time>
      </trkpt>
      <trkpt lat="44.05852" lon="6.84408">
        <ele>1046</ele>
        <time>2020-06-05T08:22:28.000Z</time>
      </trkpt>
      <trkpt lat="44.05852" lon="6.84408">
        <ele>1046</ele>
        <time>2020-06-05T08:22:29.000Z</time>
      </trkpt>
      <trkpt lat="44.05852" lon="6.84408">
        <ele>1046</ele>
        <time>2020-06-05T08:22:30.000Z</time>
      </trkpt>
      <trkpt lat="44.05852" lon="6.84408">
        <ele>1046</ele>
        <time>2020-06-05T08:22:31.000Z</time>
      </trkpt>
      <trkpt lat="44.05852" lon="6.84408">
        <ele>1046</ele>
        <time>2020-06-05T08:22:32.000Z</time>
      </trkpt>
      <trkpt lat="44.05852" lon="6.84408">
        <ele>1046</ele>
        <time>2020-06-05T08:22:33.000Z</time>
      </trkpt>
      <trkpt lat="44.05852" lon="6.84408">
        <ele>1046</ele>
        <time>2020-06-05T08:22:34.000Z</time>
      </trkpt>
      <trkpt lat="44.05852" lon="6.84408">
        <ele>1046</ele>
        <time>2020-06-05T08:22:35.000Z</time>
      </trkpt>
      <trkpt lat="44.05852" lon="6.84408">
        <ele>1046</ele>
        <time>2020-06-05T08:22:36.000Z</time>
      </trkpt>
      <trkpt lat="44.05851" lon="6.84408">
        <ele>1046</ele>
        <time>2020-06-05T08:22:37.000Z</time>
      </trkpt>
      <trkpt lat="44.05851" lon="6.84407">
        <ele>1046</ele>
        <time>2020-06-05T08:22:38.000Z</time>
      </trkpt>
      <trkpt lat="44.05851" lon="6.84406">
        <ele>1046</ele>
        <time>2020-06-05T08:22:39.000Z</time>
      </trkpt>
      <trkpt lat="44.05851" lon="6.84405">
        <ele>1046</ele>
        <time>2020-06-05T08:22:40.000Z</time>
      </trkpt>
      <trkpt lat="44.05851" lon="6.84404">
        <ele>1046</ele>
        <time>2020-06-05T08:22:41.000Z</time>
      </trkpt>
      <trkpt lat="44.05851" lon="6.84403">
        <ele>1046</ele>
        <time>2020-06-05T08:22:42.000Z</time>
      </trkpt>
      <trkpt lat="44.05851" lon="6.84402">
        <ele>1046</ele>
        <time>2020-06-05T08:22:43.000Z</time>
      </trkpt>
      <trkpt lat="44.05851" lon="6.84401">
        <ele>1046</ele>
        <time>2020-06-05T08:22:44.000Z</time>
      </trkpt>
      <trkpt lat="44.05851" lon="6.844">
        <ele>1046</ele>
        <time>2020-06-05T08:22:45.000Z</time>
      </trkpt>
      <trkpt lat="44.05851" lon="6.84399">
        <ele>1046</ele>
        <time>2020-06-05T08:22:46.000Z</time>
      </trkpt>
      <trkpt lat="44.05851" lon="6.84398">
        <ele>1046</ele>
        <time>2020-06-05T08:22:47.000Z</time>
      </trkpt>
      <trkpt lat="44.05851" lon="6.84398">
        <ele>1046</ele>
        <time>2020-06-05T08:22:48.000Z</time>
      </trkpt>
      <trkpt lat="44.05851" lon="6.84397">
        <ele>1046</ele>
        <time>2020-06-05T08:22:49.000Z</time>
      </trkpt>
      <trkpt lat="44.05851" lon="6.84396">
        <ele>1046</ele>
        <time>2020-06-05T08:22:50.000Z</time>
      </trkpt>
      <trkpt lat="44.05851" lon="6.84395">
        <ele>1046</ele>
        <time>2020-06-05T08:22:51.000Z</time>
      </trkpt>
      <trkpt lat="44.05851" lon="6.84394">
        <ele>1046</ele>
        <time>2020-06-05T08:22:52.000Z</time>
      </trkpt>
      <trkpt lat="44.05851" lon="6.84393">
        <ele>1046</ele>
        <time>2020-06-05T08:22:53.000Z</time>
      </trkpt>
      <trkpt lat="44.05851" lon="6.84393">
        <ele>1046</ele>
        <time>2020-06-05T08:22:54.000Z</time>
      </trkpt>
      <trkpt lat="44.05851" lon="6.84392">
        <ele>1046</ele>
        <time>2020-06-05T08:22:55.000Z</time>
      </trkpt>
      <trkpt lat="44.05851" lon="6.84391">
        <ele>1046</ele>
        <time>2020-06-05T08:22:56.000Z</time>
      </trkpt>
      <trkpt lat="44.05851" lon="6.8439">
        <ele>1046</ele>
        <time>2020-06-05T08:22:57.000Z</time>
      </trkpt>
      <trkpt lat="44.05851" lon="6.84389">
        <ele>1046</ele>
        <time>2020-06-05T08:22:58.000Z</time>
      </trkpt>
      <trkpt lat="44.0585" lon="6.84387">
        <ele>1046</ele>
        <time>2020-06-05T08:22:59.000Z</time>
      </trkpt>
      <trkpt lat="44.0585" lon="6.84386">
        <ele>1046</ele>
        <time>2020-06-05T08:23:00.000Z</time>
      </trkpt>
      <trkpt lat="44.0585" lon="6.84385">
        <ele>1046</ele>
        <time>2020-06-05T08:23:01.000Z</time>
      </trkpt>
      <trkpt lat="44.0585" lon="6.84384">
        <ele>1046</ele>
        <time>2020-06-05T08:23:02.000Z</time>
      </trkpt>
      <trkpt lat="44.0585" lon="6.84383">
        <ele>1046</ele>
        <time>2020-06-05T08:23:03.000Z</time>
      </trkpt>
      <trkpt lat="44.0585" lon="6.84382">
        <ele>1046</ele>
        <time>2020-06-05T08:23:04.000Z</time>
      </trkpt>
      <trkpt lat="44.0585" lon="6.84381">
        <ele>1046</ele>
        <time>2020-06-05T08:23:05.000Z</time>
      </trkpt>
      <trkpt lat="44.0585" lon="6.8438">
        <ele>1046</ele>
        <time>2020-06-05T08:23:06.000Z</time>
      </trkpt>
      <trkpt lat="44.05849" lon="6.84379">
        <ele>1046</ele>
        <time>2020-06-05T08:23:07.000Z</time>
      </trkpt>
      <trkpt lat="44.05849" lon="6.84378">
        <ele>1047</ele>
        <time>2020-06-05T08:23:08.000Z</time>
      </trkpt>
      <trkpt lat="44.05849" lon="6.84377">
        <ele>1047</ele>
        <time>2020-06-05T08:23:09.000Z</time>
      </trkpt>
      <trkpt lat="44.05849" lon="6.84376">
        <ele>1047</ele>
        <time>2020-06-05T08:23:10.000Z</time>
      </trkpt>
      <trkpt lat="44.05849" lon="6.84374">
        <ele>1047</ele>
        <time>2020-06-05T08:23:11.000Z</time>
      </trkpt>
      <trkpt lat="44.05849" lon="6.84374">
        <ele>1047</ele>
        <time>2020-06-05T08:23:12.000Z</time>
      </trkpt>
      <trkpt lat="44.05849" lon="6.84373">
        <ele>1047</ele>
        <time>2020-06-05T08:23:13.000Z</time>
      </trkpt>
      <trkpt lat="44.05849" lon="6.84372">
        <ele>1047</ele>
        <time>2020-06-05T08:23:14.000Z</time>
      </trkpt>
      <trkpt lat="44.05849" lon="6.84371">
        <ele>1047</ele>
        <time>2020-06-05T08:23:15.000Z</time>
      </trkpt>
      <trkpt lat="44.05849" lon="6.8437">
        <ele>1047</ele>
        <time>2020-06-05T08:23:16.000Z</time>
      </trkpt>
      <trkpt lat="44.05849" lon="6.84369">
        <ele>1047</ele>
        <time>2020-06-05T08:23:17.000Z</time>
      </trkpt>
      <trkpt lat="44.05849" lon="6.84368">
        <ele>1047</ele>
        <time>2020-06-05T08:23:18.000Z</time>
      </trkpt>
      <trkpt lat="44.05848" lon="6.84367">
        <ele>1047</ele>
        <time>2020-06-05T08:23:19.000Z</time>
      </trkpt>
      <trkpt lat="44.05848" lon="6.84366">
        <ele>1048</ele>
        <time>2020-06-05T08:23:20.000Z</time>
      </trkpt>
      <trkpt lat="44.05848" lon="6.84365">
        <ele>1048</ele>
        <time>2020-06-05T08:23:21.000Z</time>
      </trkpt>
      <trkpt lat="44.05848" lon="6.84364">
        <ele>1048</ele>
        <time>2020-06-05T08:23:22.000Z</time>
      </trkpt>
      <trkpt lat="44.05848" lon="6.84362">
        <ele>1048</ele>
        <time>2020-06-05T08:23:23.000Z</time>
      </trkpt>
      <trkpt lat="44.05848" lon="6.84361">
        <ele>1048</ele>
        <time>2020-06-05T08:23:24.000Z</time>
      </trkpt>
      <trkpt lat="44.05847" lon="6.84361">
        <ele>1048</ele>
        <time>2020-06-05T08:23:25.000Z</time>
      </trkpt>
      <trkpt lat="44.05847" lon="6.8436">
        <ele>1048</ele>
        <time>2020-06-05T08:23:26.000Z</time>
      </trkpt>
      <trkpt lat="44.05847" lon="6.84359">
        <ele>1048</ele>
        <time>2020-06-05T08:23:27.000Z</time>
      </trkpt>
      <trkpt lat="44.05846" lon="6.84358">
        <ele>1048</ele>
        <time>2020-06-05T08:23:28.000Z</time>
      </trkpt>
      <trkpt lat="44.05846" lon="6.84357">
        <ele>1049</ele>
        <time>2020-06-05T08:23:29.000Z</time>
      </trkpt>
      <trkpt lat="44.05846" lon="6.84356">
        <ele>1049</ele>
        <time>2020-06-05T08:23:30.000Z</time>
      </trkpt>
      <trkpt lat="44.05846" lon="6.84355">
        <ele>1049</ele>
        <time>2020-06-05T08:23:31.000Z</time>
      </trkpt>
      <trkpt lat="44.05846" lon="6.84354">
        <ele>1049</ele>
        <time>2020-06-05T08:23:32.000Z</time>
      </trkpt>
      <trkpt lat="44.05846" lon="6.84353">
        <ele>1049</ele>
        <time>2020-06-05T08:23:33.000Z</time>
      </trkpt>
      <trkpt lat="44.05846" lon="6.84352">
        <ele>1050</ele>
        <time>2020-06-05T08:23:34.000Z</time>
      </trkpt>
      <trkpt lat="44.05846" lon="6.84352">
        <ele>1050</ele>
        <time>2020-06-05T08:23:35.000Z</time>
      </trkpt>
      <trkpt lat="44.05846" lon="6.84351">
        <ele>1050</ele>
        <time>2020-06-05T08:23:36.000Z</time>
      </trkpt>
      <trkpt lat="44.05846" lon="6.84351">
        <ele>1050</ele>
        <time>2020-06-05T08:23:37.000Z</time>
      </trkpt>
      <trkpt lat="44.05846" lon="6.8435">
        <ele>1050</ele>
        <time>2020-06-05T08:23:38.000Z</time>
      </trkpt>
      <trkpt lat="44.05845" lon="6.84349">
        <ele>1050</ele>
        <time>2020-06-05T08:23:39.000Z</time>
      </trkpt>
      <trkpt lat="44.05845" lon="6.84348">
        <ele>1050</ele>
        <time>2020-06-05T08:23:40.000Z</time>
      </trkpt>
      <trkpt lat="44.05845" lon="6.84347">
        <ele>1051</ele>
        <time>2020-06-05T08:23:41.000Z</time>
      </trkpt>
      <trkpt lat="44.05845" lon="6.84346">
        <ele>1051</ele>
        <time>2020-06-05T08:23:42.000Z</time>
      </trkpt>
      <trkpt lat="44.05845" lon="6.84345">
        <ele>1051</ele>
        <time>2020-06-05T08:23:43.000Z</time>
      </trkpt>
      <trkpt lat="44.05845" lon="6.84344">
        <ele>1051</ele>
        <time>2020-06-05T08:23:44.000Z</time>
      </trkpt>
      <trkpt lat="44.05845" lon="6.84343">
        <ele>1051</ele>
        <time>2020-06-05T08:23:45.000Z</time>
      </trkpt>
      <trkpt lat="44.05845" lon="6.84342">
        <ele>1051</ele>
        <time>2020-06-05T08:23:46.000Z</time>
      </trkpt>
      <trkpt lat="44.05845" lon="6.84341">
        <ele>1051</ele>
        <time>2020-06-05T08:23:47.000Z</time>
      </trkpt>
      <trkpt lat="44.05844" lon="6.8434">
        <ele>1052</ele>
        <time>2020-06-05T08:23:48.000Z</time>
      </trkpt>
      <trkpt lat="44.05844" lon="6.8434">
        <ele>1052</ele>
        <time>2020-06-05T08:23:49.000Z</time>
      </trkpt>
      <trkpt lat="44.05844" lon="6.8434">
        <ele>1052</ele>
        <time>2020-06-05T08:23:50.000Z</time>
      </trkpt>
      <trkpt lat="44.05844" lon="6.8434">
        <ele>1052</ele>
        <time>2020-06-05T08:23:51.000Z</time>
      </trkpt>
      <trkpt lat="44.05844" lon="6.8434">
        <ele>1052</ele>
        <time>2020-06-05T08:23:52.000Z</time>
      </trkpt>
      <trkpt lat="44.05844" lon="6.8434">
        <ele>1052</ele>
        <time>2020-06-05T08:23:53.000Z</time>
      </trkpt>
      <trkpt lat="44.05844" lon="6.8434">
        <ele>1052</ele>
        <time>2020-06-05T08:23:54.000Z</time>
      </trkpt>
      <trkpt lat="44.05844" lon="6.8434">
        <ele>1052</ele>
        <time>2020-06-05T08:23:55.000Z</time>
      </trkpt>
      <trkpt lat="44.05844" lon="6.8434">
        <ele>1052</ele>
        <time>2020-06-05T08:23:56.000Z</time>
      </trkpt>
      <trkpt lat="44.05844" lon="6.8434">
        <ele>1053</ele>
        <time>2020-06-05T08:23:57.000Z</time>
      </trkpt>
      <trkpt lat="44.05844" lon="6.84339">
        <ele>1053</ele>
        <time>2020-06-05T08:23:58.000Z</time>
      </trkpt>
      <trkpt lat="44.05844" lon="6.84339">
        <ele>1053</ele>
        <time>2020-06-05T08:23:59.000Z</time>
      </trkpt>
      <trkpt lat="44.05843" lon="6.84338">
        <ele>1053</ele>
        <time>2020-06-05T08:24:00.000Z</time>
      </trkpt>
      <trkpt lat="44.05843" lon="6.84337">
        <ele>1053</ele>
        <time>2020-06-05T08:24:01.000Z</time>
      </trkpt>
      <trkpt lat="44.05843" lon="6.84336">
        <ele>1053</ele>
        <time>2020-06-05T08:24:02.000Z</time>
      </trkpt>
      <trkpt lat="44.05843" lon="6.84335">
        <ele>1053</ele>
        <time>2020-06-05T08:24:03.000Z</time>
      </trkpt>
      <trkpt lat="44.05843" lon="6.84334">
        <ele>1053</ele>
        <time>2020-06-05T08:24:04.000Z</time>
      </trkpt>
      <trkpt lat="44.05843" lon="6.84333">
        <ele>1053</ele>
        <time>2020-06-05T08:24:05.000Z</time>
      </trkpt>
      <trkpt lat="44.05843" lon="6.84332">
        <ele>1053</ele>
        <time>2020-06-05T08:24:06.000Z</time>
      </trkpt>
      <trkpt lat="44.05843" lon="6.84331">
        <ele>1053</ele>
        <time>2020-06-05T08:24:07.000Z</time>
      </trkpt>
      <trkpt lat="44.05843" lon="6.8433">
        <ele>1053</ele>
        <time>2020-06-05T08:24:08.000Z</time>
      </trkpt>
      <trkpt lat="44.05843" lon="6.84329">
        <ele>1053</ele>
        <time>2020-06-05T08:24:09.000Z</time>
      </trkpt>
      <trkpt lat="44.05843" lon="6.84328">
        <ele>1053</ele>
        <time>2020-06-05T08:24:10.000Z</time>
      </trkpt>
      <trkpt lat="44.05843" lon="6.84326">
        <ele>1053</ele>
        <time>2020-06-05T08:24:11.000Z</time>
      </trkpt>
      <trkpt lat="44.05843" lon="6.84326">
        <ele>1053</ele>
        <time>2020-06-05T08:24:12.000Z</time>
      </trkpt>
      <trkpt lat="44.05844" lon="6.84325">
        <ele>1053</ele>
        <time>2020-06-05T08:24:13.000Z</time>
      </trkpt>
      <trkpt lat="44.05844" lon="6.84323">
        <ele>1053</ele>
        <time>2020-06-05T08:24:14.000Z</time>
      </trkpt>
      <trkpt lat="44.05844" lon="6.84322">
        <ele>1053</ele>
        <time>2020-06-05T08:24:15.000Z</time>
      </trkpt>
      <trkpt lat="44.05844" lon="6.84321">
        <ele>1053</ele>
        <time>2020-06-05T08:24:16.000Z</time>
      </trkpt>
      <trkpt lat="44.05844" lon="6.8432">
        <ele>1054</ele>
        <time>2020-06-05T08:24:17.000Z</time>
      </trkpt>
      <trkpt lat="44.05845" lon="6.8432">
        <ele>1054</ele>
        <time>2020-06-05T08:24:18.000Z</time>
      </trkpt>
      <trkpt lat="44.05845" lon="6.84319">
        <ele>1054</ele>
        <time>2020-06-05T08:24:19.000Z</time>
      </trkpt>
      <trkpt lat="44.05845" lon="6.84318">
        <ele>1054</ele>
        <time>2020-06-05T08:24:20.000Z</time>
      </trkpt>
      <trkpt lat="44.05845" lon="6.84316">
        <ele>1054</ele>
        <time>2020-06-05T08:24:21.000Z</time>
      </trkpt>
      <trkpt lat="44.05846" lon="6.84316">
        <ele>1054</ele>
        <time>2020-06-05T08:24:22.000Z</time>
      </trkpt>
      <trkpt lat="44.05846" lon="6.84315">
        <ele>1055</ele>
        <time>2020-06-05T08:24:23.000Z</time>
      </trkpt>
      <trkpt lat="44.05846" lon="6.84314">
        <ele>1055</ele>
        <time>2020-06-05T08:24:24.000Z</time>
      </trkpt>
      <trkpt lat="44.05847" lon="6.84313">
        <ele>1055</ele>
        <time>2020-06-05T08:24:25.000Z</time>
      </trkpt>
      <trkpt lat="44.05847" lon="6.84312">
        <ele>1055</ele>
        <time>2020-06-05T08:24:26.000Z</time>
      </trkpt>
      <trkpt lat="44.05847" lon="6.8431">
        <ele>1055</ele>
        <time>2020-06-05T08:24:27.000Z</time>
      </trkpt>
      <trkpt lat="44.05847" lon="6.8431">
        <ele>1056</ele>
        <time>2020-06-05T08:24:28.000Z</time>
      </trkpt>
      <trkpt lat="44.05847" lon="6.84308">
        <ele>1056</ele>
        <time>2020-06-05T08:24:29.000Z</time>
      </trkpt>
      <trkpt lat="44.05848" lon="6.84308">
        <ele>1056</ele>
        <time>2020-06-05T08:24:30.000Z</time>
      </trkpt>
      <trkpt lat="44.05848" lon="6.84306">
        <ele>1056</ele>
        <time>2020-06-05T08:24:31.000Z</time>
      </trkpt>
      <trkpt lat="44.05848" lon="6.84305">
        <ele>1057</ele>
        <time>2020-06-05T08:24:32.000Z</time>
      </trkpt>
      <trkpt lat="44.05848" lon="6.84304">
        <ele>1057</ele>
        <time>2020-06-05T08:24:33.000Z</time>
      </trkpt>
      <trkpt lat="44.05848" lon="6.84303">
        <ele>1057</ele>
        <time>2020-06-05T08:24:34.000Z</time>
      </trkpt>
      <trkpt lat="44.05848" lon="6.84302">
        <ele>1057</ele>
        <time>2020-06-05T08:24:35.000Z</time>
      </trkpt>
      <trkpt lat="44.05848" lon="6.84301">
        <ele>1057</ele>
        <time>2020-06-05T08:24:36.000Z</time>
      </trkpt>
      <trkpt lat="44.05848" lon="6.843">
        <ele>1057</ele>
        <time>2020-06-05T08:24:37.000Z</time>
      </trkpt>
      <trkpt lat="44.05848" lon="6.84299">
        <ele>1058</ele>
        <time>2020-06-05T08:24:38.000Z</time>
      </trkpt>
      <trkpt lat="44.05848" lon="6.84298">
        <ele>1058</ele>
        <time>2020-06-05T08:24:39.000Z</time>
      </trkpt>
      <trkpt lat="44.05848" lon="6.84297">
        <ele>1058</ele>
        <time>2020-06-05T08:24:40.000Z</time>
      </trkpt>
      <trkpt lat="44.05849" lon="6.84296">
        <ele>1058</ele>
        <time>2020-06-05T08:24:41.000Z</time>
      </trkpt>
      <trkpt lat="44.05849" lon="6.84296">
        <ele>1058</ele>
        <time>2020-06-05T08:24:42.000Z</time>
      </trkpt>
      <trkpt lat="44.05849" lon="6.84295">
        <ele>1059</ele>
        <time>2020-06-05T08:24:43.000Z</time>
      </trkpt>
      <trkpt lat="44.05849" lon="6.84294">
        <ele>1059</ele>
        <time>2020-06-05T08:24:44.000Z</time>
      </trkpt>
      <trkpt lat="44.05849" lon="6.84293">
        <ele>1059</ele>
        <time>2020-06-05T08:24:45.000Z</time>
      </trkpt>
      <trkpt lat="44.05849" lon="6.84292">
        <ele>1059</ele>
        <time>2020-06-05T08:24:46.000Z</time>
      </trkpt>
      <trkpt lat="44.0585" lon="6.84292">
        <ele>1059</ele>
        <time>2020-06-05T08:24:47.000Z</time>
      </trkpt>
      <trkpt lat="44.0585" lon="6.84291">
        <ele>1059</ele>
        <time>2020-06-05T08:24:48.000Z</time>
      </trkpt>
      <trkpt lat="44.05849" lon="6.8429">
        <ele>1059</ele>
        <time>2020-06-05T08:24:49.000Z</time>
      </trkpt>
      <trkpt lat="44.05849" lon="6.8429">
        <ele>1059</ele>
        <time>2020-06-05T08:24:50.000Z</time>
      </trkpt>
      <trkpt lat="44.05849" lon="6.8429">
        <ele>1060</ele>
        <time>2020-06-05T08:24:51.000Z</time>
      </trkpt>
      <trkpt lat="44.05849" lon="6.8429">
        <ele>1060</ele>
        <time>2020-06-05T08:24:52.000Z</time>
      </trkpt>
      <trkpt lat="44.05849" lon="6.84289">
        <ele>1060</ele>
        <time>2020-06-05T08:24:53.000Z</time>
      </trkpt>
      <trkpt lat="44.05849" lon="6.84289">
        <ele>1060</ele>
        <time>2020-06-05T08:24:54.000Z</time>
      </trkpt>
      <trkpt lat="44.05849" lon="6.84289">
        <ele>1060</ele>
        <time>2020-06-05T08:24:55.000Z</time>
      </trkpt>
      <trkpt lat="44.05849" lon="6.84289">
        <ele>1060</ele>
        <time>2020-06-05T08:24:56.000Z</time>
      </trkpt>
      <trkpt lat="44.05849" lon="6.84289">
        <ele>1060</ele>
        <time>2020-06-05T08:24:57.000Z</time>
      </trkpt>
      <trkpt lat="44.05849" lon="6.84289">
        <ele>1060</ele>
        <time>2020-06-05T08:24:58.000Z</time>
      </trkpt>
      <trkpt lat="44.05849" lon="6.84289">
        <ele>1060</ele>
        <time>2020-06-05T08:24:59.000Z</time>
      </trkpt>
      <trkpt lat="44.05849" lon="6.84289">
        <ele>1060</ele>
        <time>2020-06-05T08:25:00.000Z</time>
      </trkpt>
      <trkpt lat="44.05849" lon="6.84289">
        <ele>1060</ele>
        <time>2020-06-05T08:25:01.000Z</time>
      </trkpt>
      <trkpt lat="44.05849" lon="6.84289">
        <ele>1061</ele>
        <time>2020-06-05T08:25:02.000Z</time>
      </trkpt>
      <trkpt lat="44.05849" lon="6.84289">
        <ele>1061</ele>
        <time>2020-06-05T08:25:03.000Z</time>
      </trkpt>
      <trkpt lat="44.05849" lon="6.84289">
        <ele>1061</ele>
        <time>2020-06-05T08:25:04.000Z</time>
      </trkpt>
      <trkpt lat="44.05849" lon="6.84289">
        <ele>1061</ele>
        <time>2020-06-05T08:25:05.000Z</time>
      </trkpt>
      <trkpt lat="44.05849" lon="6.84289">
        <ele>1061</ele>
        <time>2020-06-05T08:25:06.000Z</time>
      </trkpt>
      <trkpt lat="44.05849" lon="6.84289">
        <ele>1061</ele>
        <time>2020-06-05T08:25:07.000Z</time>
      </trkpt>
      <trkpt lat="44.05849" lon="6.84288">
        <ele>1061</ele>
        <time>2020-06-05T08:25:08.000Z</time>
      </trkpt>
      <trkpt lat="44.05849" lon="6.84288">
        <ele>1061</ele>
        <time>2020-06-05T08:25:09.000Z</time>
      </trkpt>
      <trkpt lat="44.05849" lon="6.84288">
        <ele>1061</ele>
        <time>2020-06-05T08:25:10.000Z</time>
      </trkpt>
      <trkpt lat="44.05849" lon="6.84288">
        <ele>1062</ele>
        <time>2020-06-05T08:25:11.000Z</time>
      </trkpt>
      <trkpt lat="44.05849" lon="6.84288">
        <ele>1062</ele>
        <time>2020-06-05T08:25:12.000Z</time>
      </trkpt>
      <trkpt lat="44.05849" lon="6.84288">
        <ele>1062</ele>
        <time>2020-06-05T08:25:13.000Z</time>
      </trkpt>
      <trkpt lat="44.05849" lon="6.84288">
        <ele>1062</ele>
        <time>2020-06-05T08:25:14.000Z</time>
      </trkpt>
      <trkpt lat="44.05849" lon="6.84288">
        <ele>1062</ele>
        <time>2020-06-05T08:25:15.000Z</time>
      </trkpt>
      <trkpt lat="44.05849" lon="6.84288">
        <ele>1062</ele>
        <time>2020-06-05T08:25:16.000Z</time>
      </trkpt>
      <trkpt lat="44.05849" lon="6.84288">
        <ele>1062</ele>
        <time>2020-06-05T08:25:17.000Z</time>
      </trkpt>
      <trkpt lat="44.05849" lon="6.84288">
        <ele>1062</ele>
        <time>2020-06-05T08:25:18.000Z</time>
      </trkpt>
      <trkpt lat="44.05849" lon="6.84288">
        <ele>1062</ele>
        <time>2020-06-05T08:25:19.000Z</time>
      </trkpt>
      <trkpt lat="44.05849" lon="6.84288">
        <ele>1062</ele>
        <time>2020-06-05T08:25:20.000Z</time>
      </trkpt>
      <trkpt lat="44.05849" lon="6.84288">
        <ele>1063</ele>
        <time>2020-06-05T08:25:21.000Z</time>
      </trkpt>
      <trkpt lat="44.05849" lon="6.84288">
        <ele>1063</ele>
        <time>2020-06-05T08:25:22.000Z</time>
      </trkpt>
      <trkpt lat="44.05849" lon="6.84288">
        <ele>1063</ele>
        <time>2020-06-05T08:25:23.000Z</time>
      </trkpt>
      <trkpt lat="44.05849" lon="6.84288">
        <ele>1063</ele>
        <time>2020-06-05T08:25:24.000Z</time>
      </trkpt>
      <trkpt lat="44.05849" lon="6.84288">
        <ele>1063</ele>
        <time>2020-06-05T08:25:25.000Z</time>
      </trkpt>
      <trkpt lat="44.05848" lon="6.84288">
        <ele>1063</ele>
        <time>2020-06-05T08:25:26.000Z</time>
      </trkpt>
      <trkpt lat="44.05848" lon="6.84288">
        <ele>1063</ele>
        <time>2020-06-05T08:25:27.000Z</time>
      </trkpt>
      <trkpt lat="44.05848" lon="6.84288">
        <ele>1063</ele>
        <time>2020-06-05T08:25:28.000Z</time>
      </trkpt>
      <trkpt lat="44.05848" lon="6.84288">
        <ele>1063</ele>
        <time>2020-06-05T08:25:29.000Z</time>
      </trkpt>
      <trkpt lat="44.05848" lon="6.84288">
        <ele>1063</ele>
        <time>2020-06-05T08:25:30.000Z</time>
      </trkpt>
      <trkpt lat="44.05848" lon="6.84288">
        <ele>1063</ele>
        <time>2020-06-05T08:25:31.000Z</time>
      </trkpt>
      <trkpt lat="44.05848" lon="6.84288">
        <ele>1063</ele>
        <time>2020-06-05T08:25:32.000Z</time>
      </trkpt>
      <trkpt lat="44.05848" lon="6.84288">
        <ele>1063</ele>
        <time>2020-06-05T08:25:33.000Z</time>
      </trkpt>
      <trkpt lat="44.05848" lon="6.84287">
        <ele>1063</ele>
        <time>2020-06-05T08:25:34.000Z</time>
      </trkpt>
      <trkpt lat="44.05848" lon="6.84287">
        <ele>1063</ele>
        <time>2020-06-05T08:25:35.000Z</time>
      </trkpt>
      <trkpt lat="44.05848" lon="6.84287">
        <ele>1063</ele>
        <time>2020-06-05T08:25:36.000Z</time>
      </trkpt>
      <trkpt lat="44.05848" lon="6.84287">
        <ele>1063</ele>
        <time>2020-06-05T08:25:37.000Z</time>
      </trkpt>
      <trkpt lat="44.05848" lon="6.84288">
        <ele>1063</ele>
        <time>2020-06-05T08:25:38.000Z</time>
      </trkpt>
      <trkpt lat="44.05848" lon="6.84288">
        <ele>1063</ele>
        <time>2020-06-05T08:25:39.000Z</time>
      </trkpt>
      <trkpt lat="44.05848" lon="6.84288">
        <ele>1063</ele>
        <time>2020-06-05T08:25:40.000Z</time>
      </trkpt>
      <trkpt lat="44.05848" lon="6.84288">
        <ele>1063</ele>
        <time>2020-06-05T08:25:41.000Z</time>
      </trkpt>
      <trkpt lat="44.05848" lon="6.84288">
        <ele>1063</ele>
        <time>2020-06-05T08:25:42.000Z</time>
      </trkpt>
      <trkpt lat="44.05848" lon="6.84288">
        <ele>1063</ele>
        <time>2020-06-05T08:25:43.000Z</time>
      </trkpt>
      <trkpt lat="44.05848" lon="6.84288">
        <ele>1063</ele>
        <time>2020-06-05T08:25:44.000Z</time>
      </trkpt>
      <trkpt lat="44.05848" lon="6.84288">
        <ele>1063</ele>
        <time>2020-06-05T08:25:45.000Z</time>
      </trkpt>
      <trkpt lat="44.05848" lon="6.84288">
        <ele>1064</ele>
        <time>2020-06-05T08:25:46.000Z</time>
      </trkpt>
      <trkpt lat="44.05848" lon="6.84288">
        <ele>1064</ele>
        <time>2020-06-05T08:25:47.000Z</time>
      </trkpt>
      <trkpt lat="44.05848" lon="6.84288">
        <ele>1064</ele>
        <time>2020-06-05T08:25:48.000Z</time>
      </trkpt>
      <trkpt lat="44.05848" lon="6.84288">
        <ele>1064</ele>
        <time>2020-06-05T08:25:49.000Z</time>
      </trkpt>
      <trkpt lat="44.05848" lon="6.84288">
        <ele>1064</ele>
        <time>2020-06-05T08:25:50.000Z</time>
      </trkpt>
      <trkpt lat="44.05848" lon="6.84288">
        <ele>1064</ele>
        <time>2020-06-05T08:25:51.000Z</time>
      </trkpt>
      <trkpt lat="44.05848" lon="6.84288">
        <ele>1064</ele>
        <time>2020-06-05T08:25:52.000Z</time>
      </trkpt>
      <trkpt lat="44.05848" lon="6.84287">
        <ele>1064</ele>
        <time>2020-06-05T08:25:53.000Z</time>
      </trkpt>
      <trkpt lat="44.05848" lon="6.84287">
        <ele>1064</ele>
        <time>2020-06-05T08:25:54.000Z</time>
      </trkpt>
      <trkpt lat="44.05848" lon="6.84286">
        <ele>1064</ele>
        <time>2020-06-05T08:25:55.000Z</time>
      </trkpt>
      <trkpt lat="44.05849" lon="6.84285">
        <ele>1064</ele>
        <time>2020-06-05T08:25:56.000Z</time>
      </trkpt>
      <trkpt lat="44.05849" lon="6.84284">
        <ele>1064</ele>
        <time>2020-06-05T08:25:57.000Z</time>
      </trkpt>
      <trkpt lat="44.05849" lon="6.84284">
        <ele>1064</ele>
        <time>2020-06-05T08:25:58.000Z</time>
      </trkpt>
      <trkpt lat="44.05849" lon="6.84283">
        <ele>1064</ele>
        <time>2020-06-05T08:25:59.000Z</time>
      </trkpt>
      <trkpt lat="44.05849" lon="6.84282">
        <ele>1064</ele>
        <time>2020-06-05T08:26:00.000Z</time>
      </trkpt>
      <trkpt lat="44.0585" lon="6.84281">
        <ele>1064</ele>
        <time>2020-06-05T08:26:01.000Z</time>
      </trkpt>
      <trkpt lat="44.0585" lon="6.8428">
        <ele>1064</ele>
        <time>2020-06-05T08:26:02.000Z</time>
      </trkpt>
      <trkpt lat="44.0585" lon="6.84279">
        <ele>1064</ele>
        <time>2020-06-05T08:26:03.000Z</time>
      </trkpt>
      <trkpt lat="44.0585" lon="6.84278">
        <ele>1064</ele>
        <time>2020-06-05T08:26:04.000Z</time>
      </trkpt>
      <trkpt lat="44.0585" lon="6.84277">
        <ele>1065</ele>
        <time>2020-06-05T08:26:05.000Z</time>
      </trkpt>
      <trkpt lat="44.0585" lon="6.84276">
        <ele>1065</ele>
        <time>2020-06-05T08:26:06.000Z</time>
      </trkpt>
      <trkpt lat="44.0585" lon="6.84275">
        <ele>1065</ele>
        <time>2020-06-05T08:26:07.000Z</time>
      </trkpt>
      <trkpt lat="44.0585" lon="6.84274">
        <ele>1065</ele>
        <time>2020-06-05T08:26:08.000Z</time>
      </trkpt>
      <trkpt lat="44.0585" lon="6.84273">
        <ele>1065</ele>
        <time>2020-06-05T08:26:09.000Z</time>
      </trkpt>
      <trkpt lat="44.0585" lon="6.84272">
        <ele>1065</ele>
        <time>2020-06-05T08:26:10.000Z</time>
      </trkpt>
      <trkpt lat="44.05851" lon="6.84271">
        <ele>1065</ele>
        <time>2020-06-05T08:26:11.000Z</time>
      </trkpt>
      <trkpt lat="44.05851" lon="6.8427">
        <ele>1065</ele>
        <time>2020-06-05T08:26:12.000Z</time>
      </trkpt>
      <trkpt lat="44.05851" lon="6.84269">
        <ele>1065</ele>
        <time>2020-06-05T08:26:13.000Z</time>
      </trkpt>
      <trkpt lat="44.05851" lon="6.84267">
        <ele>1066</ele>
        <time>2020-06-05T08:26:14.000Z</time>
      </trkpt>
      <trkpt lat="44.05851" lon="6.84266">
        <ele>1066</ele>
        <time>2020-06-05T08:26:15.000Z</time>
      </trkpt>
      <trkpt lat="44.05851" lon="6.84265">
        <ele>1066</ele>
        <time>2020-06-05T08:26:16.000Z</time>
      </trkpt>
      <trkpt lat="44.05851" lon="6.84264">
        <ele>1066</ele>
        <time>2020-06-05T08:26:17.000Z</time>
      </trkpt>
      <trkpt lat="44.05851" lon="6.84263">
        <ele>1066</ele>
        <time>2020-06-05T08:26:18.000Z</time>
      </trkpt>
      <trkpt lat="44.05851" lon="6.84262">
        <ele>1066</ele>
        <time>2020-06-05T08:26:19.000Z</time>
      </trkpt>
      <trkpt lat="44.0585" lon="6.84261">
        <ele>1067</ele>
        <time>2020-06-05T08:26:20.000Z</time>
      </trkpt>
      <trkpt lat="44.0585" lon="6.8426">
        <ele>1067</ele>
        <time>2020-06-05T08:26:21.000Z</time>
      </trkpt>
      <trkpt lat="44.0585" lon="6.84259">
        <ele>1067</ele>
        <time>2020-06-05T08:26:22.000Z</time>
      </trkpt>
      <trkpt lat="44.0585" lon="6.84258">
        <ele>1067</ele>
        <time>2020-06-05T08:26:23.000Z</time>
      </trkpt>
      <trkpt lat="44.0585" lon="6.84257">
        <ele>1067</ele>
        <time>2020-06-05T08:26:24.000Z</time>
      </trkpt>
      <trkpt lat="44.0585" lon="6.84256">
        <ele>1067</ele>
        <time>2020-06-05T08:26:25.000Z</time>
      </trkpt>
      <trkpt lat="44.0585" lon="6.84255">
        <ele>1067</ele>
        <time>2020-06-05T08:26:26.000Z</time>
      </trkpt>
      <trkpt lat="44.0585" lon="6.84254">
        <ele>1068</ele>
        <time>2020-06-05T08:26:27.000Z</time>
      </trkpt>
      <trkpt lat="44.0585" lon="6.84253">
        <ele>1068</ele>
        <time>2020-06-05T08:26:28.000Z</time>
      </trkpt>
      <trkpt lat="44.0585" lon="6.84252">
        <ele>1068</ele>
        <time>2020-06-05T08:26:29.000Z</time>
      </trkpt>
      <trkpt lat="44.0585" lon="6.84251">
        <ele>1068</ele>
        <time>2020-06-05T08:26:30.000Z</time>
      </trkpt>
      <trkpt lat="44.0585" lon="6.8425">
        <ele>1068</ele>
        <time>2020-06-05T08:26:31.000Z</time>
      </trkpt>
      <trkpt lat="44.0585" lon="6.84249">
        <ele>1068</ele>
        <time>2020-06-05T08:26:32.000Z</time>
      </trkpt>
      <trkpt lat="44.0585" lon="6.84248">
        <ele>1068</ele>
        <time>2020-06-05T08:26:33.000Z</time>
      </trkpt>
      <trkpt lat="44.0585" lon="6.84247">
        <ele>1069</ele>
        <time>2020-06-05T08:26:34.000Z</time>
      </trkpt>
      <trkpt lat="44.0585" lon="6.84247">
        <ele>1069</ele>
        <time>2020-06-05T08:26:35.000Z</time>
      </trkpt>
      <trkpt lat="44.0585" lon="6.84246">
        <ele>1069</ele>
        <time>2020-06-05T08:26:36.000Z</time>
      </trkpt>
      <trkpt lat="44.0585" lon="6.84245">
        <ele>1069</ele>
        <time>2020-06-05T08:26:37.000Z</time>
      </trkpt>
      <trkpt lat="44.0585" lon="6.84244">
        <ele>1069</ele>
        <time>2020-06-05T08:26:38.000Z</time>
      </trkpt>
      <trkpt lat="44.0585" lon="6.84243">
        <ele>1070</ele>
        <time>2020-06-05T08:26:39.000Z</time>
      </trkpt>
      <trkpt lat="44.0585" lon="6.84242">
        <ele>1070</ele>
        <time>2020-06-05T08:26:40.000Z</time>
      </trkpt>
      <trkpt lat="44.0585" lon="6.84241">
        <ele>1070</ele>
        <time>2020-06-05T08:26:41.000Z</time>
      </trkpt>
      <trkpt lat="44.0585" lon="6.8424">
        <ele>1070</ele>
        <time>2020-06-05T08:26:42.000Z</time>
      </trkpt>
      <trkpt lat="44.05849" lon="6.8424">
        <ele>1070</ele>
        <time>2020-06-05T08:26:43.000Z</time>
      </trkpt>
      <trkpt lat="44.05849" lon="6.84239">
        <ele>1070</ele>
        <time>2020-06-05T08:26:44.000Z</time>
      </trkpt>
      <trkpt lat="44.05849" lon="6.84238">
        <ele>1070</ele>
        <time>2020-06-05T08:26:45.000Z</time>
      </trkpt>
      <trkpt lat="44.05849" lon="6.84237">
        <ele>1070</ele>
        <time>2020-06-05T08:26:46.000Z</time>
      </trkpt>
      <trkpt lat="44.05849" lon="6.84236">
        <ele>1070</ele>
        <time>2020-06-05T08:26:47.000Z</time>
      </trkpt>
      <trkpt lat="44.05848" lon="6.84235">
        <ele>1070</ele>
        <time>2020-06-05T08:26:48.000Z</time>
      </trkpt>
      <trkpt lat="44.05848" lon="6.84234">
        <ele>1070</ele>
        <time>2020-06-05T08:26:49.000Z</time>
      </trkpt>
      <trkpt lat="44.05848" lon="6.84233">
        <ele>1070</ele>
        <time>2020-06-05T08:26:50.000Z</time>
      </trkpt>
      <trkpt lat="44.05848" lon="6.84233">
        <ele>1071</ele>
        <time>2020-06-05T08:26:51.000Z</time>
      </trkpt>
      <trkpt lat="44.05848" lon="6.84232">
        <ele>1071</ele>
        <time>2020-06-05T08:26:52.000Z</time>
      </trkpt>
      <trkpt lat="44.05847" lon="6.84231">
        <ele>1071</ele>
        <time>2020-06-05T08:26:53.000Z</time>
      </trkpt>
      <trkpt lat="44.05847" lon="6.8423">
        <ele>1071</ele>
        <time>2020-06-05T08:26:54.000Z</time>
      </trkpt>
      <trkpt lat="44.05847" lon="6.84229">
        <ele>1071</ele>
        <time>2020-06-05T08:26:55.000Z</time>
      </trkpt>
      <trkpt lat="44.05847" lon="6.84229">
        <ele>1071</ele>
        <time>2020-06-05T08:26:56.000Z</time>
      </trkpt>
      <trkpt lat="44.05847" lon="6.84228">
        <ele>1071</ele>
        <time>2020-06-05T08:26:57.000Z</time>
      </trkpt>
      <trkpt lat="44.05846" lon="6.84227">
        <ele>1071</ele>
        <time>2020-06-05T08:26:58.000Z</time>
      </trkpt>
      <trkpt lat="44.05846" lon="6.84226">
        <ele>1071</ele>
        <time>2020-06-05T08:26:59.000Z</time>
      </trkpt>
      <trkpt lat="44.05846" lon="6.84226">
        <ele>1072</ele>
        <time>2020-06-05T08:27:00.000Z</time>
      </trkpt>
      <trkpt lat="44.05845" lon="6.84225">
        <ele>1072</ele>
        <time>2020-06-05T08:27:01.000Z</time>
      </trkpt>
      <trkpt lat="44.05845" lon="6.84224">
        <ele>1072</ele>
        <time>2020-06-05T08:27:02.000Z</time>
      </trkpt>
      <trkpt lat="44.05844" lon="6.84224">
        <ele>1072</ele>
        <time>2020-06-05T08:27:03.000Z</time>
      </trkpt>
      <trkpt lat="44.05844" lon="6.84223">
        <ele>1072</ele>
        <time>2020-06-05T08:27:04.000Z</time>
      </trkpt>
      <trkpt lat="44.05843" lon="6.84222">
        <ele>1072</ele>
        <time>2020-06-05T08:27:05.000Z</time>
      </trkpt>
      <trkpt lat="44.05843" lon="6.84222">
        <ele>1072</ele>
        <time>2020-06-05T08:27:06.000Z</time>
      </trkpt>
      <trkpt lat="44.05843" lon="6.84221">
        <ele>1073</ele>
        <time>2020-06-05T08:27:07.000Z</time>
      </trkpt>
      <trkpt lat="44.05842" lon="6.8422">
        <ele>1073</ele>
        <time>2020-06-05T08:27:08.000Z</time>
      </trkpt>
      <trkpt lat="44.05842" lon="6.8422">
        <ele>1073</ele>
        <time>2020-06-05T08:27:09.000Z</time>
      </trkpt>
      <trkpt lat="44.05841" lon="6.84219">
        <ele>1073</ele>
        <time>2020-06-05T08:27:10.000Z</time>
      </trkpt>
      <trkpt lat="44.05841" lon="6.84219">
        <ele>1073</ele>
        <time>2020-06-05T08:27:11.000Z</time>
      </trkpt>
      <trkpt lat="44.0584" lon="6.84218">
        <ele>1074</ele>
        <time>2020-06-05T08:27:12.000Z</time>
      </trkpt>
      <trkpt lat="44.0584" lon="6.84217">
        <ele>1074</ele>
        <time>2020-06-05T08:27:13.000Z</time>
      </trkpt>
      <trkpt lat="44.0584" lon="6.84217">
        <ele>1074</ele>
        <time>2020-06-05T08:27:14.000Z</time>
      </trkpt>
      <trkpt lat="44.05839" lon="6.84216">
        <ele>1074</ele>
        <time>2020-06-05T08:27:15.000Z</time>
      </trkpt>
      <trkpt lat="44.05839" lon="6.84215">
        <ele>1074</ele>
        <time>2020-06-05T08:27:16.000Z</time>
      </trkpt>
      <trkpt lat="44.05838" lon="6.84214">
        <ele>1074</ele>
        <time>2020-06-05T08:27:17.000Z</time>
      </trkpt>
      <trkpt lat="44.05838" lon="6.84213">
        <ele>1074</ele>
        <time>2020-06-05T08:27:18.000Z</time>
      </trkpt>
      <trkpt lat="44.05838" lon="6.84212">
        <ele>1075</ele>
        <time>2020-06-05T08:27:19.000Z</time>
      </trkpt>
      <trkpt lat="44.05838" lon="6.84212">
        <ele>1075</ele>
        <time>2020-06-05T08:27:20.000Z</time>
      </trkpt>
      <trkpt lat="44.05837" lon="6.84211">
        <ele>1075</ele>
        <time>2020-06-05T08:27:21.000Z</time>
      </trkpt>
      <trkpt lat="44.05837" lon="6.84211">
        <ele>1075</ele>
        <time>2020-06-05T08:27:22.000Z</time>
      </trkpt>
      <trkpt lat="44.05837" lon="6.8421">
        <ele>1075</ele>
        <time>2020-06-05T08:27:23.000Z</time>
      </trkpt>
      <trkpt lat="44.05836" lon="6.84209">
        <ele>1075</ele>
        <time>2020-06-05T08:27:24.000Z</time>
      </trkpt>
      <trkpt lat="44.05836" lon="6.84208">
        <ele>1075</ele>
        <time>2020-06-05T08:27:25.000Z</time>
      </trkpt>
      <trkpt lat="44.05836" lon="6.84207">
        <ele>1076</ele>
        <time>2020-06-05T08:27:26.000Z</time>
      </trkpt>
      <trkpt lat="44.05835" lon="6.84206">
        <ele>1076</ele>
        <time>2020-06-05T08:27:27.000Z</time>
      </trkpt>
      <trkpt lat="44.05835" lon="6.84205">
        <ele>1076</ele>
        <time>2020-06-05T08:27:28.000Z</time>
      </trkpt>
      <trkpt lat="44.05835" lon="6.84204">
        <ele>1076</ele>
        <time>2020-06-05T08:27:29.000Z</time>
      </trkpt>
      <trkpt lat="44.05835" lon="6.84203">
        <ele>1076</ele>
        <time>2020-06-05T08:27:30.000Z</time>
      </trkpt>
      <trkpt lat="44.05835" lon="6.84202">
        <ele>1076</ele>
        <time>2020-06-05T08:27:31.000Z</time>
      </trkpt>
      <trkpt lat="44.05835" lon="6.84201">
        <ele>1076</ele>
        <time>2020-06-05T08:27:32.000Z</time>
      </trkpt>
      <trkpt lat="44.05835" lon="6.842">
        <ele>1076</ele>
        <time>2020-06-05T08:27:33.000Z</time>
      </trkpt>
      <trkpt lat="44.05834" lon="6.842">
        <ele>1076</ele>
        <time>2020-06-05T08:27:34.000Z</time>
      </trkpt>
      <trkpt lat="44.05834" lon="6.84199">
        <ele>1076</ele>
        <time>2020-06-05T08:27:35.000Z</time>
      </trkpt>
      <trkpt lat="44.05834" lon="6.84199">
        <ele>1076</ele>
        <time>2020-06-05T08:27:36.000Z</time>
      </trkpt>
      <trkpt lat="44.05834" lon="6.84198">
        <ele>1076</ele>
        <time>2020-06-05T08:27:37.000Z</time>
      </trkpt>
      <trkpt lat="44.05833" lon="6.84197">
        <ele>1077</ele>
        <time>2020-06-05T08:27:38.000Z</time>
      </trkpt>
      <trkpt lat="44.05833" lon="6.84196">
        <ele>1077</ele>
        <time>2020-06-05T08:27:39.000Z</time>
      </trkpt>
      <trkpt lat="44.05833" lon="6.84196">
        <ele>1077</ele>
        <time>2020-06-05T08:27:40.000Z</time>
      </trkpt>
      <trkpt lat="44.05833" lon="6.84196">
        <ele>1077</ele>
        <time>2020-06-05T08:27:41.000Z</time>
      </trkpt>
      <trkpt lat="44.05833" lon="6.84196">
        <ele>1077</ele>
        <time>2020-06-05T08:27:42.000Z</time>
      </trkpt>
      <trkpt lat="44.05833" lon="6.84195">
        <ele>1077</ele>
        <time>2020-06-05T08:27:43.000Z</time>
      </trkpt>
      <trkpt lat="44.05833" lon="6.84195">
        <ele>1077</ele>
        <time>2020-06-05T08:27:44.000Z</time>
      </trkpt>
      <trkpt lat="44.05833" lon="6.84195">
        <ele>1077</ele>
        <time>2020-06-05T08:27:45.000Z</time>
      </trkpt>
      <trkpt lat="44.05833" lon="6.84195">
        <ele>1077</ele>
        <time>2020-06-05T08:27:46.000Z</time>
      </trkpt>
      <trkpt lat="44.05833" lon="6.84195">
        <ele>1077</ele>
        <time>2020-06-05T08:27:47.000Z</time>
      </trkpt>
      <trkpt lat="44.05833" lon="6.84195">
        <ele>1077</ele>
        <time>2020-06-05T08:27:48.000Z</time>
      </trkpt>
      <trkpt lat="44.05833" lon="6.84195">
        <ele>1078</ele>
        <time>2020-06-05T08:27:49.000Z</time>
      </trkpt>
      <trkpt lat="44.05833" lon="6.84195">
        <ele>1078</ele>
        <time>2020-06-05T08:27:50.000Z</time>
      </trkpt>
      <trkpt lat="44.05833" lon="6.84195">
        <ele>1078</ele>
        <time>2020-06-05T08:27:51.000Z</time>
      </trkpt>
      <trkpt lat="44.05833" lon="6.84195">
        <ele>1078</ele>
        <time>2020-06-05T08:27:52.000Z</time>
      </trkpt>
      <trkpt lat="44.05833" lon="6.84195">
        <ele>1078</ele>
        <time>2020-06-05T08:27:53.000Z</time>
      </trkpt>
      <trkpt lat="44.05832" lon="6.84195">
        <ele>1078</ele>
        <time>2020-06-05T08:27:54.000Z</time>
      </trkpt>
      <trkpt lat="44.05832" lon="6.84195">
        <ele>1078</ele>
        <time>2020-06-05T08:27:55.000Z</time>
      </trkpt>
      <trkpt lat="44.05832" lon="6.84195">
        <ele>1078</ele>
        <time>2020-06-05T08:27:56.000Z</time>
      </trkpt>
      <trkpt lat="44.05832" lon="6.84195">
        <ele>1078</ele>
        <time>2020-06-05T08:27:57.000Z</time>
      </trkpt>
      <trkpt lat="44.05832" lon="6.84195">
        <ele>1078</ele>
        <time>2020-06-05T08:27:58.000Z</time>
      </trkpt>
      <trkpt lat="44.05832" lon="6.84195">
        <ele>1078</ele>
        <time>2020-06-05T08:27:59.000Z</time>
      </trkpt>
      <trkpt lat="44.05832" lon="6.84195">
        <ele>1078</ele>
        <time>2020-06-05T08:28:00.000Z</time>
      </trkpt>
      <trkpt lat="44.05832" lon="6.84195">
        <ele>1078</ele>
        <time>2020-06-05T08:28:01.000Z</time>
      </trkpt>
      <trkpt lat="44.05832" lon="6.84195">
        <ele>1078</ele>
        <time>2020-06-05T08:28:02.000Z</time>
      </trkpt>
      <trkpt lat="44.05832" lon="6.84195">
        <ele>1078</ele>
        <time>2020-06-05T08:28:03.000Z</time>
      </trkpt>
      <trkpt lat="44.05832" lon="6.84196">
        <ele>1078</ele>
        <time>2020-06-05T08:28:04.000Z</time>
      </trkpt>
      <trkpt lat="44.05832" lon="6.84196">
        <ele>1078</ele>
        <time>2020-06-05T08:28:05.000Z</time>
      </trkpt>
      <trkpt lat="44.05832" lon="6.84196">
        <ele>1078</ele>
        <time>2020-06-05T08:28:06.000Z</time>
      </trkpt>
      <trkpt lat="44.05832" lon="6.84195">
        <ele>1078</ele>
        <time>2020-06-05T08:28:07.000Z</time>
      </trkpt>
      <trkpt lat="44.05832" lon="6.84194">
        <ele>1078</ele>
        <time>2020-06-05T08:28:08.000Z</time>
      </trkpt>
      <trkpt lat="44.05832" lon="6.84193">
        <ele>1078</ele>
        <time>2020-06-05T08:28:09.000Z</time>
      </trkpt>
      <trkpt lat="44.05832" lon="6.84192">
        <ele>1078</ele>
        <time>2020-06-05T08:28:10.000Z</time>
      </trkpt>
      <trkpt lat="44.05832" lon="6.84191">
        <ele>1078</ele>
        <time>2020-06-05T08:28:11.000Z</time>
      </trkpt>
      <trkpt lat="44.05832" lon="6.8419">
        <ele>1078</ele>
        <time>2020-06-05T08:28:12.000Z</time>
      </trkpt>
      <trkpt lat="44.05832" lon="6.84189">
        <ele>1079</ele>
        <time>2020-06-05T08:28:13.000Z</time>
      </trkpt>
      <trkpt lat="44.05832" lon="6.84188">
        <ele>1079</ele>
        <time>2020-06-05T08:28:14.000Z</time>
      </trkpt>
      <trkpt lat="44.05832" lon="6.84187">
        <ele>1079</ele>
        <time>2020-06-05T08:28:15.000Z</time>
      </trkpt>
      <trkpt lat="44.05832" lon="6.84186">
        <ele>1079</ele>
        <time>2020-06-05T08:28:16.000Z</time>
      </trkpt>
      <trkpt lat="44.05832" lon="6.84185">
        <ele>1079</ele>
        <time>2020-06-05T08:28:17.000Z</time>
      </trkpt>
      <trkpt lat="44.05832" lon="6.84184">
        <ele>1079</ele>
        <time>2020-06-05T08:28:18.000Z</time>
      </trkpt>
      <trkpt lat="44.05831" lon="6.84183">
        <ele>1079</ele>
        <time>2020-06-05T08:28:19.000Z</time>
      </trkpt>
      <trkpt lat="44.05831" lon="6.84182">
        <ele>1079</ele>
        <time>2020-06-05T08:28:20.000Z</time>
      </trkpt>
      <trkpt lat="44.05831" lon="6.84181">
        <ele>1079</ele>
        <time>2020-06-05T08:28:21.000Z</time>
      </trkpt>
      <trkpt lat="44.05831" lon="6.8418">
        <ele>1079</ele>
        <time>2020-06-05T08:28:22.000Z</time>
      </trkpt>
      <trkpt lat="44.05831" lon="6.84179">
        <ele>1079</ele>
        <time>2020-06-05T08:28:23.000Z</time>
      </trkpt>
      <trkpt lat="44.05831" lon="6.84178">
        <ele>1079</ele>
        <time>2020-06-05T08:28:24.000Z</time>
      </trkpt>
      <trkpt lat="44.05831" lon="6.84177">
        <ele>1079</ele>
        <time>2020-06-05T08:28:25.000Z</time>
      </trkpt>
      <trkpt lat="44.0583" lon="6.84176">
        <ele>1079</ele>
        <time>2020-06-05T08:28:26.000Z</time>
      </trkpt>
      <trkpt lat="44.0583" lon="6.84175">
        <ele>1079</ele>
        <time>2020-06-05T08:28:27.000Z</time>
      </trkpt>
      <trkpt lat="44.0583" lon="6.84174">
        <ele>1079</ele>
        <time>2020-06-05T08:28:28.000Z</time>
      </trkpt>
      <trkpt lat="44.0583" lon="6.84173">
        <ele>1079</ele>
        <time>2020-06-05T08:28:29.000Z</time>
      </trkpt>
      <trkpt lat="44.0583" lon="6.84172">
        <ele>1080</ele>
        <time>2020-06-05T08:28:30.000Z</time>
      </trkpt>
      <trkpt lat="44.0583" lon="6.84171">
        <ele>1080</ele>
        <time>2020-06-05T08:28:31.000Z</time>
      </trkpt>
      <trkpt lat="44.05829" lon="6.8417">
        <ele>1080</ele>
        <time>2020-06-05T08:28:32.000Z</time>
      </trkpt>
      <trkpt lat="44.05829" lon="6.84169">
        <ele>1080</ele>
        <time>2020-06-05T08:28:33.000Z</time>
      </trkpt>
      <trkpt lat="44.05829" lon="6.84168">
        <ele>1081</ele>
        <time>2020-06-05T08:28:34.000Z</time>
      </trkpt>
      <trkpt lat="44.05829" lon="6.84168">
        <ele>1081</ele>
        <time>2020-06-05T08:28:35.000Z</time>
      </trkpt>
      <trkpt lat="44.05829" lon="6.84167">
        <ele>1081</ele>
        <time>2020-06-05T08:28:36.000Z</time>
      </trkpt>
      <trkpt lat="44.05828" lon="6.84166">
        <ele>1081</ele>
        <time>2020-06-05T08:28:37.000Z</time>
      </trkpt>
      <trkpt lat="44.05828" lon="6.84165">
        <ele>1081</ele>
        <time>2020-06-05T08:28:38.000Z</time>
      </trkpt>
      <trkpt lat="44.05828" lon="6.84164">
        <ele>1081</ele>
        <time>2020-06-05T08:28:39.000Z</time>
      </trkpt>
      <trkpt lat="44.05827" lon="6.84163">
        <ele>1082</ele>
        <time>2020-06-05T08:28:40.000Z</time>
      </trkpt>
      <trkpt lat="44.05827" lon="6.84162">
        <ele>1082</ele>
        <time>2020-06-05T08:28:41.000Z</time>
      </trkpt>
      <trkpt lat="44.05826" lon="6.84161">
        <ele>1082</ele>
        <time>2020-06-05T08:28:42.000Z</time>
      </trkpt>
      <trkpt lat="44.05825" lon="6.84161">
        <ele>1082</ele>
        <time>2020-06-05T08:28:43.000Z</time>
      </trkpt>
      <trkpt lat="44.05825" lon="6.8416">
        <ele>1082</ele>
        <time>2020-06-05T08:28:44.000Z</time>
      </trkpt>
      <trkpt lat="44.05825" lon="6.84159">
        <ele>1083</ele>
        <time>2020-06-05T08:28:45.000Z</time>
      </trkpt>
      <trkpt lat="44.05824" lon="6.84158">
        <ele>1083</ele>
        <time>2020-06-05T08:28:46.000Z</time>
      </trkpt>
      <trkpt lat="44.05824" lon="6.84158">
        <ele>1083</ele>
        <time>2020-06-05T08:28:47.000Z</time>
      </trkpt>
      <trkpt lat="44.05823" lon="6.84157">
        <ele>1083</ele>
        <time>2020-06-05T08:28:48.000Z</time>
      </trkpt>
      <trkpt lat="44.05822" lon="6.84156">
        <ele>1083</ele>
        <time>2020-06-05T08:28:49.000Z</time>
      </trkpt>
      <trkpt lat="44.05822" lon="6.84155">
        <ele>1084</ele>
        <time>2020-06-05T08:28:50.000Z</time>
      </trkpt>
      <trkpt lat="44.05821" lon="6.84154">
        <ele>1084</ele>
        <time>2020-06-05T08:28:51.000Z</time>
      </trkpt>
      <trkpt lat="44.05821" lon="6.84153">
        <ele>1084</ele>
        <time>2020-06-05T08:28:52.000Z</time>
      </trkpt>
      <trkpt lat="44.0582" lon="6.84152">
        <ele>1084</ele>
        <time>2020-06-05T08:28:53.000Z</time>
      </trkpt>
      <trkpt lat="44.0582" lon="6.84152">
        <ele>1084</ele>
        <time>2020-06-05T08:28:54.000Z</time>
      </trkpt>
      <trkpt lat="44.0582" lon="6.84151">
        <ele>1085</ele>
        <time>2020-06-05T08:28:55.000Z</time>
      </trkpt>
      <trkpt lat="44.05819" lon="6.8415">
        <ele>1085</ele>
        <time>2020-06-05T08:28:56.000Z</time>
      </trkpt>
      <trkpt lat="44.05819" lon="6.84149">
        <ele>1085</ele>
        <time>2020-06-05T08:28:57.000Z</time>
      </trkpt>
      <trkpt lat="44.05818" lon="6.84148">
        <ele>1085</ele>
        <time>2020-06-05T08:28:58.000Z</time>
      </trkpt>
      <trkpt lat="44.05818" lon="6.84147">
        <ele>1085</ele>
        <time>2020-06-05T08:28:59.000Z</time>
      </trkpt>
      <trkpt lat="44.05818" lon="6.84146">
        <ele>1085</ele>
        <time>2020-06-05T08:29:00.000Z</time>
      </trkpt>
      <trkpt lat="44.05818" lon="6.84145">
        <ele>1085</ele>
        <time>2020-06-05T08:29:01.000Z</time>
      </trkpt>
      <trkpt lat="44.05817" lon="6.84144">
        <ele>1086</ele>
        <time>2020-06-05T08:29:02.000Z</time>
      </trkpt>
      <trkpt lat="44.05817" lon="6.84143">
        <ele>1086</ele>
        <time>2020-06-05T08:29:03.000Z</time>
      </trkpt>
      <trkpt lat="44.05817" lon="6.84142">
        <ele>1086</ele>
        <time>2020-06-05T08:29:04.000Z</time>
      </trkpt>
      <trkpt lat="44.05817" lon="6.84141">
        <ele>1086</ele>
        <time>2020-06-05T08:29:05.000Z</time>
      </trkpt>
      <trkpt lat="44.05817" lon="6.8414">
        <ele>1086</ele>
        <time>2020-06-05T08:29:06.000Z</time>
      </trkpt>
      <trkpt lat="44.05816" lon="6.84139">
        <ele>1086</ele>
        <time>2020-06-05T08:29:07.000Z</time>
      </trkpt>
      <trkpt lat="44.05816" lon="6.84138">
        <ele>1086</ele>
        <time>2020-06-05T08:29:08.000Z</time>
      </trkpt>
      <trkpt lat="44.05816" lon="6.84137">
        <ele>1087</ele>
        <time>2020-06-05T08:29:09.000Z</time>
      </trkpt>
      <trkpt lat="44.05816" lon="6.84137">
        <ele>1087</ele>
        <time>2020-06-05T08:29:10.000Z</time>
      </trkpt>
      <trkpt lat="44.05815" lon="6.84136">
        <ele>1087</ele>
        <time>2020-06-05T08:29:11.000Z</time>
      </trkpt>
      <trkpt lat="44.05815" lon="6.84135">
        <ele>1087</ele>
        <time>2020-06-05T08:29:12.000Z</time>
      </trkpt>
      <trkpt lat="44.05815" lon="6.84134">
        <ele>1087</ele>
        <time>2020-06-05T08:29:13.000Z</time>
      </trkpt>
      <trkpt lat="44.05814" lon="6.84133">
        <ele>1087</ele>
        <time>2020-06-05T08:29:14.000Z</time>
      </trkpt>
      <trkpt lat="44.05814" lon="6.84133">
        <ele>1087</ele>
        <time>2020-06-05T08:29:15.000Z</time>
      </trkpt>
      <trkpt lat="44.05813" lon="6.84132">
        <ele>1088</ele>
        <time>2020-06-05T08:29:16.000Z</time>
      </trkpt>
      <trkpt lat="44.05813" lon="6.84131">
        <ele>1088</ele>
        <time>2020-06-05T08:29:17.000Z</time>
      </trkpt>
      <trkpt lat="44.05813" lon="6.8413">
        <ele>1088</ele>
        <time>2020-06-05T08:29:18.000Z</time>
      </trkpt>
      <trkpt lat="44.05812" lon="6.84129">
        <ele>1088</ele>
        <time>2020-06-05T08:29:19.000Z</time>
      </trkpt>
      <trkpt lat="44.05812" lon="6.84128">
        <ele>1088</ele>
        <time>2020-06-05T08:29:20.000Z</time>
      </trkpt>
      <trkpt lat="44.05812" lon="6.84128">
        <ele>1088</ele>
        <time>2020-06-05T08:29:21.000Z</time>
      </trkpt>
      <trkpt lat="44.05811" lon="6.84127">
        <ele>1088</ele>
        <time>2020-06-05T08:29:22.000Z</time>
      </trkpt>
      <trkpt lat="44.05811" lon="6.84126">
        <ele>1088</ele>
        <time>2020-06-05T08:29:23.000Z</time>
      </trkpt>
      <trkpt lat="44.05811" lon="6.84125">
        <ele>1089</ele>
        <time>2020-06-05T08:29:24.000Z</time>
      </trkpt>
      <trkpt lat="44.05811" lon="6.84124">
        <ele>1089</ele>
        <time>2020-06-05T08:29:25.000Z</time>
      </trkpt>
      <trkpt lat="44.05811" lon="6.84124">
        <ele>1089</ele>
        <time>2020-06-05T08:29:26.000Z</time>
      </trkpt>
      <trkpt lat="44.0581" lon="6.84123">
        <ele>1089</ele>
        <time>2020-06-05T08:29:27.000Z</time>
      </trkpt>
      <trkpt lat="44.0581" lon="6.84122">
        <ele>1089</ele>
        <time>2020-06-05T08:29:28.000Z</time>
      </trkpt>
      <trkpt lat="44.0581" lon="6.84121">
        <ele>1089</ele>
        <time>2020-06-05T08:29:29.000Z</time>
      </trkpt>
      <trkpt lat="44.0581" lon="6.8412">
        <ele>1089</ele>
        <time>2020-06-05T08:29:30.000Z</time>
      </trkpt>
      <trkpt lat="44.05809" lon="6.84119">
        <ele>1090</ele>
        <time>2020-06-05T08:29:31.000Z</time>
      </trkpt>
      <trkpt lat="44.05809" lon="6.84119">
        <ele>1090</ele>
        <time>2020-06-05T08:29:32.000Z</time>
      </trkpt>
      <trkpt lat="44.05809" lon="6.84118">
        <ele>1090</ele>
        <time>2020-06-05T08:29:33.000Z</time>
      </trkpt>
      <trkpt lat="44.05809" lon="6.84118">
        <ele>1090</ele>
        <time>2020-06-05T08:29:34.000Z</time>
      </trkpt>
      <trkpt lat="44.05808" lon="6.84117">
        <ele>1090</ele>
        <time>2020-06-05T08:29:35.000Z</time>
      </trkpt>
      <trkpt lat="44.05808" lon="6.84116">
        <ele>1090</ele>
        <time>2020-06-05T08:29:36.000Z</time>
      </trkpt>
      <trkpt lat="44.05807" lon="6.84115">
        <ele>1090</ele>
        <time>2020-06-05T08:29:37.000Z</time>
      </trkpt>
      <trkpt lat="44.05807" lon="6.84114">
        <ele>1091</ele>
        <time>2020-06-05T08:29:38.000Z</time>
      </trkpt>
      <trkpt lat="44.05807" lon="6.84113">
        <ele>1091</ele>
        <time>2020-06-05T08:29:39.000Z</time>
      </trkpt>
      <trkpt lat="44.05806" lon="6.84112">
        <ele>1091</ele>
        <time>2020-06-05T08:29:40.000Z</time>
      </trkpt>
      <trkpt lat="44.05806" lon="6.84112">
        <ele>1091</ele>
        <time>2020-06-05T08:29:41.000Z</time>
      </trkpt>
      <trkpt lat="44.05806" lon="6.84111">
        <ele>1091</ele>
        <time>2020-06-05T08:29:42.000Z</time>
      </trkpt>
      <trkpt lat="44.05806" lon="6.8411">
        <ele>1092</ele>
        <time>2020-06-05T08:29:43.000Z</time>
      </trkpt>
      <trkpt lat="44.05805" lon="6.84109">
        <ele>1092</ele>
        <time>2020-06-05T08:29:44.000Z</time>
      </trkpt>
      <trkpt lat="44.05805" lon="6.84108">
        <ele>1092</ele>
        <time>2020-06-05T08:29:45.000Z</time>
      </trkpt>
      <trkpt lat="44.05805" lon="6.84107">
        <ele>1092</ele>
        <time>2020-06-05T08:29:46.000Z</time>
      </trkpt>
      <trkpt lat="44.05804" lon="6.84106">
        <ele>1092</ele>
        <time>2020-06-05T08:29:47.000Z</time>
      </trkpt>
      <trkpt lat="44.05804" lon="6.84106">
        <ele>1092</ele>
        <time>2020-06-05T08:29:48.000Z</time>
      </trkpt>
      <trkpt lat="44.05804" lon="6.84105">
        <ele>1093</ele>
        <time>2020-06-05T08:29:49.000Z</time>
      </trkpt>
      <trkpt lat="44.05803" lon="6.84104">
        <ele>1093</ele>
        <time>2020-06-05T08:29:50.000Z</time>
      </trkpt>
      <trkpt lat="44.05803" lon="6.84103">
        <ele>1093</ele>
        <time>2020-06-05T08:29:51.000Z</time>
      </trkpt>
      <trkpt lat="44.05802" lon="6.84103">
        <ele>1093</ele>
        <time>2020-06-05T08:29:52.000Z</time>
      </trkpt>
      <trkpt lat="44.05802" lon="6.84102">
        <ele>1093</ele>
        <time>2020-06-05T08:29:53.000Z</time>
      </trkpt>
      <trkpt lat="44.05801" lon="6.84102">
        <ele>1093</ele>
        <time>2020-06-05T08:29:54.000Z</time>
      </trkpt>
      <trkpt lat="44.05801" lon="6.84101">
        <ele>1093</ele>
        <time>2020-06-05T08:29:55.000Z</time>
      </trkpt>
      <trkpt lat="44.058" lon="6.84101">
        <ele>1094</ele>
        <time>2020-06-05T08:29:56.000Z</time>
      </trkpt>
      <trkpt lat="44.058" lon="6.841">
        <ele>1094</ele>
        <time>2020-06-05T08:29:57.000Z</time>
      </trkpt>
      <trkpt lat="44.05799" lon="6.841">
        <ele>1094</ele>
        <time>2020-06-05T08:29:58.000Z</time>
      </trkpt>
      <trkpt lat="44.05798" lon="6.84099">
        <ele>1094</ele>
        <time>2020-06-05T08:29:59.000Z</time>
      </trkpt>
      <trkpt lat="44.05798" lon="6.84099">
        <ele>1094</ele>
        <time>2020-06-05T08:30:00.000Z</time>
      </trkpt>
      <trkpt lat="44.05797" lon="6.84098">
        <ele>1094</ele>
        <time>2020-06-05T08:30:01.000Z</time>
      </trkpt>
      <trkpt lat="44.05796" lon="6.84098">
        <ele>1095</ele>
        <time>2020-06-05T08:30:02.000Z</time>
      </trkpt>
      <trkpt lat="44.05796" lon="6.84097">
        <ele>1095</ele>
        <time>2020-06-05T08:30:03.000Z</time>
      </trkpt>
      <trkpt lat="44.05795" lon="6.84096">
        <ele>1095</ele>
        <time>2020-06-05T08:30:04.000Z</time>
      </trkpt>
      <trkpt lat="44.05794" lon="6.84096">
        <ele>1095</ele>
        <time>2020-06-05T08:30:05.000Z</time>
      </trkpt>
      <trkpt lat="44.05794" lon="6.84095">
        <ele>1095</ele>
        <time>2020-06-05T08:30:06.000Z</time>
      </trkpt>
      <trkpt lat="44.05793" lon="6.84094">
        <ele>1095</ele>
        <time>2020-06-05T08:30:07.000Z</time>
      </trkpt>
      <trkpt lat="44.05792" lon="6.84094">
        <ele>1096</ele>
        <time>2020-06-05T08:30:08.000Z</time>
      </trkpt>
      <trkpt lat="44.05792" lon="6.84093">
        <ele>1096</ele>
        <time>2020-06-05T08:30:09.000Z</time>
      </trkpt>
      <trkpt lat="44.05791" lon="6.84093">
        <ele>1096</ele>
        <time>2020-06-05T08:30:10.000Z</time>
      </trkpt>
      <trkpt lat="44.0579" lon="6.84092">
        <ele>1096</ele>
        <time>2020-06-05T08:30:11.000Z</time>
      </trkpt>
      <trkpt lat="44.0579" lon="6.84092">
        <ele>1096</ele>
        <time>2020-06-05T08:30:12.000Z</time>
      </trkpt>
      <trkpt lat="44.05789" lon="6.84091">
        <ele>1096</ele>
        <time>2020-06-05T08:30:13.000Z</time>
      </trkpt>
      <trkpt lat="44.05788" lon="6.84091">
        <ele>1097</ele>
        <time>2020-06-05T08:30:14.000Z</time>
      </trkpt>
      <trkpt lat="44.05788" lon="6.8409">
        <ele>1097</ele>
        <time>2020-06-05T08:30:15.000Z</time>
      </trkpt>
      <trkpt lat="44.05787" lon="6.8409">
        <ele>1097</ele>
        <time>2020-06-05T08:30:16.000Z</time>
      </trkpt>
      <trkpt lat="44.05786" lon="6.84089">
        <ele>1097</ele>
        <time>2020-06-05T08:30:17.000Z</time>
      </trkpt>
      <trkpt lat="44.05785" lon="6.84089">
        <ele>1097</ele>
        <time>2020-06-05T08:30:18.000Z</time>
      </trkpt>
      <trkpt lat="44.05785" lon="6.84088">
        <ele>1097</ele>
        <time>2020-06-05T08:30:19.000Z</time>
      </trkpt>
      <trkpt lat="44.05784" lon="6.84087">
        <ele>1097</ele>
        <time>2020-06-05T08:30:20.000Z</time>
      </trkpt>
      <trkpt lat="44.05783" lon="6.84086">
        <ele>1098</ele>
        <time>2020-06-05T08:30:21.000Z</time>
      </trkpt>
      <trkpt lat="44.05782" lon="6.84086">
        <ele>1098</ele>
        <time>2020-06-05T08:30:22.000Z</time>
      </trkpt>
      <trkpt lat="44.05782" lon="6.84085">
        <ele>1098</ele>
        <time>2020-06-05T08:30:23.000Z</time>
      </trkpt>
      <trkpt lat="44.05781" lon="6.84085">
        <ele>1098</ele>
        <time>2020-06-05T08:30:24.000Z</time>
      </trkpt>
      <trkpt lat="44.0578" lon="6.84084">
        <ele>1098</ele>
        <time>2020-06-05T08:30:25.000Z</time>
      </trkpt>
      <trkpt lat="44.05779" lon="6.84084">
        <ele>1098</ele>
        <time>2020-06-05T08:30:26.000Z</time>
      </trkpt>
      <trkpt lat="44.05778" lon="6.84084">
        <ele>1098</ele>
        <time>2020-06-05T08:30:27.000Z</time>
      </trkpt>
      <trkpt lat="44.05777" lon="6.84084">
        <ele>1098</ele>
        <time>2020-06-05T08:30:28.000Z</time>
      </trkpt>
      <trkpt lat="44.05777" lon="6.84083">
        <ele>1098</ele>
        <time>2020-06-05T08:30:29.000Z</time>
      </trkpt>
      <trkpt lat="44.05776" lon="6.84083">
        <ele>1098</ele>
        <time>2020-06-05T08:30:30.000Z</time>
      </trkpt>
      <trkpt lat="44.05775" lon="6.84083">
        <ele>1098</ele>
        <time>2020-06-05T08:30:31.000Z</time>
      </trkpt>
      <trkpt lat="44.05774" lon="6.84082">
        <ele>1098</ele>
        <time>2020-06-05T08:30:32.000Z</time>
      </trkpt>
      <trkpt lat="44.05773" lon="6.84082">
        <ele>1098</ele>
        <time>2020-06-05T08:30:33.000Z</time>
      </trkpt>
      <trkpt lat="44.05773" lon="6.84081">
        <ele>1098</ele>
        <time>2020-06-05T08:30:34.000Z</time>
      </trkpt>
      <trkpt lat="44.05773" lon="6.84081">
        <ele>1099</ele>
        <time>2020-06-05T08:30:35.000Z</time>
      </trkpt>
      <trkpt lat="44.05773" lon="6.8408">
        <ele>1099</ele>
        <time>2020-06-05T08:30:36.000Z</time>
      </trkpt>
      <trkpt lat="44.05773" lon="6.8408">
        <ele>1099</ele>
        <time>2020-06-05T08:30:37.000Z</time>
      </trkpt>
      <trkpt lat="44.05773" lon="6.84081">
        <ele>1099</ele>
        <time>2020-06-05T08:30:38.000Z</time>
      </trkpt>
      <trkpt lat="44.05773" lon="6.84081">
        <ele>1099</ele>
        <time>2020-06-05T08:30:39.000Z</time>
      </trkpt>
      <trkpt lat="44.05773" lon="6.84081">
        <ele>1099</ele>
        <time>2020-06-05T08:30:40.000Z</time>
      </trkpt>
      <trkpt lat="44.05773" lon="6.8408">
        <ele>1099</ele>
        <time>2020-06-05T08:30:41.000Z</time>
      </trkpt>
      <trkpt lat="44.05773" lon="6.8408">
        <ele>1099</ele>
        <time>2020-06-05T08:30:42.000Z</time>
      </trkpt>
      <trkpt lat="44.05773" lon="6.8408">
        <ele>1099</ele>
        <time>2020-06-05T08:30:43.000Z</time>
      </trkpt>
      <trkpt lat="44.05772" lon="6.8408">
        <ele>1099</ele>
        <time>2020-06-05T08:30:44.000Z</time>
      </trkpt>
      <trkpt lat="44.05773" lon="6.8408">
        <ele>1099</ele>
        <time>2020-06-05T08:30:45.000Z</time>
      </trkpt>
      <trkpt lat="44.05773" lon="6.8408">
        <ele>1099</ele>
        <time>2020-06-05T08:30:46.000Z</time>
      </trkpt>
      <trkpt lat="44.05773" lon="6.8408">
        <ele>1099</ele>
        <time>2020-06-05T08:30:47.000Z</time>
      </trkpt>
      <trkpt lat="44.05773" lon="6.84079">
        <ele>1099</ele>
        <time>2020-06-05T08:30:48.000Z</time>
      </trkpt>
      <trkpt lat="44.05773" lon="6.84079">
        <ele>1099</ele>
        <time>2020-06-05T08:30:49.000Z</time>
      </trkpt>
      <trkpt lat="44.05773" lon="6.84079">
        <ele>1099</ele>
        <time>2020-06-05T08:30:50.000Z</time>
      </trkpt>
      <trkpt lat="44.05773" lon="6.84079">
        <ele>1099</ele>
        <time>2020-06-05T08:30:51.000Z</time>
      </trkpt>
      <trkpt lat="44.05773" lon="6.84079">
        <ele>1099</ele>
        <time>2020-06-05T08:30:52.000Z</time>
      </trkpt>
      <trkpt lat="44.05773" lon="6.8408">
        <ele>1099</ele>
        <time>2020-06-05T08:30:53.000Z</time>
      </trkpt>
      <trkpt lat="44.05773" lon="6.8408">
        <ele>1098</ele>
        <time>2020-06-05T08:30:54.000Z</time>
      </trkpt>
      <trkpt lat="44.05773" lon="6.84079">
        <ele>1098</ele>
        <time>2020-06-05T08:30:55.000Z</time>
      </trkpt>
      <trkpt lat="44.05773" lon="6.84079">
        <ele>1098</ele>
        <time>2020-06-05T08:30:56.000Z</time>
      </trkpt>
      <trkpt lat="44.05772" lon="6.84079">
        <ele>1098</ele>
        <time>2020-06-05T08:30:57.000Z</time>
      </trkpt>
      <trkpt lat="44.05772" lon="6.84079">
        <ele>1098</ele>
        <time>2020-06-05T08:30:58.000Z</time>
      </trkpt>
      <trkpt lat="44.05773" lon="6.84079">
        <ele>1098</ele>
        <time>2020-06-05T08:30:59.000Z</time>
      </trkpt>
      <trkpt lat="44.05773" lon="6.84079">
        <ele>1098</ele>
        <time>2020-06-05T08:31:00.000Z</time>
      </trkpt>
      <trkpt lat="44.05773" lon="6.84079">
        <ele>1098</ele>
        <time>2020-06-05T08:31:01.000Z</time>
      </trkpt>
      <trkpt lat="44.05773" lon="6.84079">
        <ele>1098</ele>
        <time>2020-06-05T08:31:02.000Z</time>
      </trkpt>
      <trkpt lat="44.05773" lon="6.84079">
        <ele>1098</ele>
        <time>2020-06-05T08:31:03.000Z</time>
      </trkpt>
      <trkpt lat="44.05772" lon="6.84079">
        <ele>1098</ele>
        <time>2020-06-05T08:31:04.000Z</time>
      </trkpt>
      <trkpt lat="44.05772" lon="6.84079">
        <ele>1098</ele>
        <time>2020-06-05T08:31:05.000Z</time>
      </trkpt>
      <trkpt lat="44.05773" lon="6.84079">
        <ele>1098</ele>
        <time>2020-06-05T08:31:06.000Z</time>
      </trkpt>
      <trkpt lat="44.05773" lon="6.84079">
        <ele>1098</ele>
        <time>2020-06-05T08:31:07.000Z</time>
      </trkpt>
      <trkpt lat="44.05773" lon="6.84079">
        <ele>1098</ele>
        <time>2020-06-05T08:31:08.000Z</time>
      </trkpt>
      <trkpt lat="44.05773" lon="6.84079">
        <ele>1098</ele>
        <time>2020-06-05T08:31:09.000Z</time>
      </trkpt>
      <trkpt lat="44.05772" lon="6.84079">
        <ele>1098</ele>
        <time>2020-06-05T08:31:10.000Z</time>
      </trkpt>
      <trkpt lat="44.05772" lon="6.84079">
        <ele>1098</ele>
        <time>2020-06-05T08:31:11.000Z</time>
      </trkpt>
      <trkpt lat="44.05772" lon="6.84079">
        <ele>1098</ele>
        <time>2020-06-05T08:31:12.000Z</time>
      </trkpt>
      <trkpt lat="44.05772" lon="6.84078">
        <ele>1098</ele>
        <time>2020-06-05T08:31:13.000Z</time>
      </trkpt>
      <trkpt lat="44.05772" lon="6.84078">
        <ele>1098</ele>
        <time>2020-06-05T08:31:14.000Z</time>
      </trkpt>
      <trkpt lat="44.05772" lon="6.84078">
        <ele>1098</ele>
        <time>2020-06-05T08:31:15.000Z</time>
      </trkpt>
      <trkpt lat="44.05772" lon="6.84079">
        <ele>1098</ele>
        <time>2020-06-05T08:31:16.000Z</time>
      </trkpt>
      <trkpt lat="44.05772" lon="6.84079">
        <ele>1098</ele>
        <time>2020-06-05T08:31:17.000Z</time>
      </trkpt>
      <trkpt lat="44.05772" lon="6.84079">
        <ele>1098</ele>
        <time>2020-06-05T08:31:18.000Z</time>
      </trkpt>
      <trkpt lat="44.05772" lon="6.84079">
        <ele>1098</ele>
        <time>2020-06-05T08:31:19.000Z</time>
      </trkpt>
      <trkpt lat="44.05772" lon="6.84079">
        <ele>1098</ele>
        <time>2020-06-05T08:31:20.000Z</time>
      </trkpt>
      <trkpt lat="44.05772" lon="6.84078">
        <ele>1098</ele>
        <time>2020-06-05T08:31:21.000Z</time>
      </trkpt>
      <trkpt lat="44.05772" lon="6.84078">
        <ele>1098</ele>
        <time>2020-06-05T08:31:22.000Z</time>
      </trkpt>
      <trkpt lat="44.05772" lon="6.84078">
        <ele>1098</ele>
        <time>2020-06-05T08:31:23.000Z</time>
      </trkpt>
      <trkpt lat="44.05772" lon="6.84078">
        <ele>1098</ele>
        <time>2020-06-05T08:31:24.000Z</time>
      </trkpt>
      <trkpt lat="44.05772" lon="6.84078">
        <ele>1098</ele>
        <time>2020-06-05T08:31:25.000Z</time>
      </trkpt>
      <trkpt lat="44.05772" lon="6.84078">
        <ele>1098</ele>
        <time>2020-06-05T08:31:26.000Z</time>
      </trkpt>
      <trkpt lat="44.05772" lon="6.84078">
        <ele>1098</ele>
        <time>2020-06-05T08:31:27.000Z</time>
      </trkpt>
      <trkpt lat="44.05772" lon="6.84078">
        <ele>1098</ele>
        <time>2020-06-05T08:31:28.000Z</time>
      </trkpt>
      <trkpt lat="44.05772" lon="6.84078">
        <ele>1098</ele>
        <time>2020-06-05T08:31:29.000Z</time>
      </trkpt>
      <trkpt lat="44.05772" lon="6.84078">
        <ele>1098</ele>
        <time>2020-06-05T08:31:30.000Z</time>
      </trkpt>
      <trkpt lat="44.05772" lon="6.84078">
        <ele>1098</ele>
        <time>2020-06-05T08:31:31.000Z</time>
      </trkpt>
      <trkpt lat="44.05772" lon="6.84078">
        <ele>1098</ele>
        <time>2020-06-05T08:31:32.000Z</time>
      </trkpt>
      <trkpt lat="44.05772" lon="6.84078">
        <ele>1098</ele>
        <time>2020-06-05T08:31:33.000Z</time>
      </trkpt>
      <trkpt lat="44.05772" lon="6.84078">
        <ele>1098</ele>
        <time>2020-06-05T08:31:34.000Z</time>
      </trkpt>
      <trkpt lat="44.05771" lon="6.84078">
        <ele>1098</ele>
        <time>2020-06-05T08:31:35.000Z</time>
      </trkpt>
      <trkpt lat="44.05771" lon="6.84078">
        <ele>1098</ele>
        <time>2020-06-05T08:31:36.000Z</time>
      </trkpt>
      <trkpt lat="44.0577" lon="6.84077">
        <ele>1098</ele>
        <time>2020-06-05T08:31:37.000Z</time>
      </trkpt>
      <trkpt lat="44.0577" lon="6.84076">
        <ele>1098</ele>
        <time>2020-06-05T08:31:38.000Z</time>
      </trkpt>
      <trkpt lat="44.05769" lon="6.84074">
        <ele>1098</ele>
        <time>2020-06-05T08:31:39.000Z</time>
      </trkpt>
      <trkpt lat="44.05769" lon="6.84073">
        <ele>1098</ele>
        <time>2020-06-05T08:31:40.000Z</time>
      </trkpt>
      <trkpt lat="44.05769" lon="6.84072">
        <ele>1098</ele>
        <time>2020-06-05T08:31:41.000Z</time>
      </trkpt>
      <trkpt lat="44.05769" lon="6.8407">
        <ele>1098</ele>
        <time>2020-06-05T08:31:42.000Z</time>
      </trkpt>
      <trkpt lat="44.05769" lon="6.84069">
        <ele>1098</ele>
        <time>2020-06-05T08:31:43.000Z</time>
      </trkpt>
      <trkpt lat="44.05768" lon="6.84068">
        <ele>1097</ele>
        <time>2020-06-05T08:31:44.000Z</time>
      </trkpt>
      <trkpt lat="44.05768" lon="6.84067">
        <ele>1097</ele>
        <time>2020-06-05T08:31:45.000Z</time>
      </trkpt>
      <trkpt lat="44.05768" lon="6.84065">
        <ele>1097</ele>
        <time>2020-06-05T08:31:46.000Z</time>
      </trkpt>
      <trkpt lat="44.05767" lon="6.84064">
        <ele>1097</ele>
        <time>2020-06-05T08:31:47.000Z</time>
      </trkpt>
      <trkpt lat="44.05767" lon="6.84063">
        <ele>1097</ele>
        <time>2020-06-05T08:31:48.000Z</time>
      </trkpt>
      <trkpt lat="44.05766" lon="6.84062">
        <ele>1097</ele>
        <time>2020-06-05T08:31:49.000Z</time>
      </trkpt>
      <trkpt lat="44.05766" lon="6.84061">
        <ele>1097</ele>
        <time>2020-06-05T08:31:50.000Z</time>
      </trkpt>
      <trkpt lat="44.05765" lon="6.8406">
        <ele>1097</ele>
        <time>2020-06-05T08:31:51.000Z</time>
      </trkpt>
      <trkpt lat="44.05764" lon="6.84059">
        <ele>1097</ele>
        <time>2020-06-05T08:31:52.000Z</time>
      </trkpt>
      <trkpt lat="44.05764" lon="6.84058">
        <ele>1097</ele>
        <time>2020-06-05T08:31:53.000Z</time>
      </trkpt>
      <trkpt lat="44.05763" lon="6.84058">
        <ele>1097</ele>
        <time>2020-06-05T08:31:54.000Z</time>
      </trkpt>
      <trkpt lat="44.05762" lon="6.84057">
        <ele>1097</ele>
        <time>2020-06-05T08:31:55.000Z</time>
      </trkpt>
      <trkpt lat="44.05761" lon="6.84056">
        <ele>1097</ele>
        <time>2020-06-05T08:31:56.000Z</time>
      </trkpt>
      <trkpt lat="44.0576" lon="6.84055">
        <ele>1097</ele>
        <time>2020-06-05T08:31:57.000Z</time>
      </trkpt>
      <trkpt lat="44.0576" lon="6.84054">
        <ele>1097</ele>
        <time>2020-06-05T08:31:58.000Z</time>
      </trkpt>
      <trkpt lat="44.05759" lon="6.84053">
        <ele>1097</ele>
        <time>2020-06-05T08:31:59.000Z</time>
      </trkpt>
      <trkpt lat="44.05759" lon="6.84051">
        <ele>1097</ele>
        <time>2020-06-05T08:32:00.000Z</time>
      </trkpt>
      <trkpt lat="44.05758" lon="6.8405">
        <ele>1097</ele>
        <time>2020-06-05T08:32:01.000Z</time>
      </trkpt>
      <trkpt lat="44.05758" lon="6.84049">
        <ele>1098</ele>
        <time>2020-06-05T08:32:02.000Z</time>
      </trkpt>
      <trkpt lat="44.05757" lon="6.84048">
        <ele>1098</ele>
        <time>2020-06-05T08:32:03.000Z</time>
      </trkpt>
      <trkpt lat="44.05756" lon="6.84048">
        <ele>1098</ele>
        <time>2020-06-05T08:32:04.000Z</time>
      </trkpt>
      <trkpt lat="44.05755" lon="6.84047">
        <ele>1098</ele>
        <time>2020-06-05T08:32:05.000Z</time>
      </trkpt>
      <trkpt lat="44.05754" lon="6.84046">
        <ele>1098</ele>
        <time>2020-06-05T08:32:06.000Z</time>
      </trkpt>
      <trkpt lat="44.05754" lon="6.84046">
        <ele>1098</ele>
        <time>2020-06-05T08:32:07.000Z</time>
      </trkpt>
      <trkpt lat="44.05753" lon="6.84045">
        <ele>1098</ele>
        <time>2020-06-05T08:32:08.000Z</time>
      </trkpt>
      <trkpt lat="44.05752" lon="6.84045">
        <ele>1098</ele>
        <time>2020-06-05T08:32:09.000Z</time>
      </trkpt>
      <trkpt lat="44.05751" lon="6.84044">
        <ele>1098</ele>
        <time>2020-06-05T08:32:10.000Z</time>
      </trkpt>
      <trkpt lat="44.0575" lon="6.84044">
        <ele>1098</ele>
        <time>2020-06-05T08:32:11.000Z</time>
      </trkpt>
      <trkpt lat="44.05749" lon="6.84043">
        <ele>1098</ele>
        <time>2020-06-05T08:32:12.000Z</time>
      </trkpt>
      <trkpt lat="44.05748" lon="6.84043">
        <ele>1098</ele>
        <time>2020-06-05T08:32:13.000Z</time>
      </trkpt>
      <trkpt lat="44.05747" lon="6.84042">
        <ele>1098</ele>
        <time>2020-06-05T08:32:14.000Z</time>
      </trkpt>
      <trkpt lat="44.05746" lon="6.84042">
        <ele>1098</ele>
        <time>2020-06-05T08:32:15.000Z</time>
      </trkpt>
      <trkpt lat="44.05745" lon="6.84041">
        <ele>1098</ele>
        <time>2020-06-05T08:32:16.000Z</time>
      </trkpt>
      <trkpt lat="44.05744" lon="6.84041">
        <ele>1098</ele>
        <time>2020-06-05T08:32:17.000Z</time>
      </trkpt>
      <trkpt lat="44.05743" lon="6.8404">
        <ele>1098</ele>
        <time>2020-06-05T08:32:18.000Z</time>
      </trkpt>
      <trkpt lat="44.05742" lon="6.8404">
        <ele>1098</ele>
        <time>2020-06-05T08:32:19.000Z</time>
      </trkpt>
      <trkpt lat="44.05741" lon="6.84039">
        <ele>1098</ele>
        <time>2020-06-05T08:32:20.000Z</time>
      </trkpt>
      <trkpt lat="44.0574" lon="6.84039">
        <ele>1098</ele>
        <time>2020-06-05T08:32:21.000Z</time>
      </trkpt>
      <trkpt lat="44.05739" lon="6.84038">
        <ele>1098</ele>
        <time>2020-06-05T08:32:22.000Z</time>
      </trkpt>
      <trkpt lat="44.05738" lon="6.84038">
        <ele>1098</ele>
        <time>2020-06-05T08:32:23.000Z</time>
      </trkpt>
      <trkpt lat="44.05737" lon="6.84038">
        <ele>1099</ele>
        <time>2020-06-05T08:32:24.000Z</time>
      </trkpt>
      <trkpt lat="44.05736" lon="6.84037">
        <ele>1099</ele>
        <time>2020-06-05T08:32:25.000Z</time>
      </trkpt>
      <trkpt lat="44.05735" lon="6.84037">
        <ele>1099</ele>
        <time>2020-06-05T08:32:26.000Z</time>
      </trkpt>
      <trkpt lat="44.05734" lon="6.84037">
        <ele>1099</ele>
        <time>2020-06-05T08:32:27.000Z</time>
      </trkpt>
      <trkpt lat="44.05733" lon="6.84036">
        <ele>1098</ele>
        <time>2020-06-05T08:32:28.000Z</time>
      </trkpt>
      <trkpt lat="44.05732" lon="6.84036">
        <ele>1098</ele>
        <time>2020-06-05T08:32:29.000Z</time>
      </trkpt>
      <trkpt lat="44.05731" lon="6.84035">
        <ele>1098</ele>
        <time>2020-06-05T08:32:30.000Z</time>
      </trkpt>
      <trkpt lat="44.05731" lon="6.84034">
        <ele>1098</ele>
        <time>2020-06-05T08:32:31.000Z</time>
      </trkpt>
      <trkpt lat="44.0573" lon="6.84033">
        <ele>1098</ele>
        <time>2020-06-05T08:32:32.000Z</time>
      </trkpt>
      <trkpt lat="44.05729" lon="6.84031">
        <ele>1098</ele>
        <time>2020-06-05T08:32:33.000Z</time>
      </trkpt>
      <trkpt lat="44.05729" lon="6.8403">
        <ele>1098</ele>
        <time>2020-06-05T08:32:34.000Z</time>
      </trkpt>
      <trkpt lat="44.05728" lon="6.84029">
        <ele>1098</ele>
        <time>2020-06-05T08:32:35.000Z</time>
      </trkpt>
      <trkpt lat="44.05728" lon="6.84027">
        <ele>1098</ele>
        <time>2020-06-05T08:32:36.000Z</time>
      </trkpt>
      <trkpt lat="44.05727" lon="6.84026">
        <ele>1098</ele>
        <time>2020-06-05T08:32:37.000Z</time>
      </trkpt>
      <trkpt lat="44.05727" lon="6.84024">
        <ele>1098</ele>
        <time>2020-06-05T08:32:38.000Z</time>
      </trkpt>
      <trkpt lat="44.05727" lon="6.84023">
        <ele>1098</ele>
        <time>2020-06-05T08:32:39.000Z</time>
      </trkpt>
      <trkpt lat="44.05727" lon="6.84021">
        <ele>1098</ele>
        <time>2020-06-05T08:32:40.000Z</time>
      </trkpt>
      <trkpt lat="44.05727" lon="6.8402">
        <ele>1098</ele>
        <time>2020-06-05T08:32:41.000Z</time>
      </trkpt>
      <trkpt lat="44.05727" lon="6.84018">
        <ele>1098</ele>
        <time>2020-06-05T08:32:42.000Z</time>
      </trkpt>
      <trkpt lat="44.05727" lon="6.84017">
        <ele>1098</ele>
        <time>2020-06-05T08:32:43.000Z</time>
      </trkpt>
      <trkpt lat="44.05727" lon="6.84016">
        <ele>1098</ele>
        <time>2020-06-05T08:32:44.000Z</time>
      </trkpt>
      <trkpt lat="44.05727" lon="6.84014">
        <ele>1098</ele>
        <time>2020-06-05T08:32:45.000Z</time>
      </trkpt>
      <trkpt lat="44.05727" lon="6.84013">
        <ele>1098</ele>
        <time>2020-06-05T08:32:46.000Z</time>
      </trkpt>
      <trkpt lat="44.05726" lon="6.84012">
        <ele>1098</ele>
        <time>2020-06-05T08:32:47.000Z</time>
      </trkpt>
      <trkpt lat="44.05726" lon="6.84011">
        <ele>1098</ele>
        <time>2020-06-05T08:32:48.000Z</time>
      </trkpt>
      <trkpt lat="44.05726" lon="6.84009">
        <ele>1098</ele>
        <time>2020-06-05T08:32:49.000Z</time>
      </trkpt>
      <trkpt lat="44.05726" lon="6.84008">
        <ele>1098</ele>
        <time>2020-06-05T08:32:50.000Z</time>
      </trkpt>
      <trkpt lat="44.05726" lon="6.84007">
        <ele>1098</ele>
        <time>2020-06-05T08:32:51.000Z</time>
      </trkpt>
      <trkpt lat="44.05726" lon="6.84005">
        <ele>1098</ele>
        <time>2020-06-05T08:32:52.000Z</time>
      </trkpt>
      <trkpt lat="44.05726" lon="6.84005">
        <ele>1098</ele>
        <time>2020-06-05T08:32:53.000Z</time>
      </trkpt>
      <trkpt lat="44.05726" lon="6.84004">
        <ele>1098</ele>
        <time>2020-06-05T08:32:54.000Z</time>
      </trkpt>
      <trkpt lat="44.05726" lon="6.84003">
        <ele>1098</ele>
        <time>2020-06-05T08:32:55.000Z</time>
      </trkpt>
      <trkpt lat="44.05726" lon="6.84002">
        <ele>1098</ele>
        <time>2020-06-05T08:32:56.000Z</time>
      </trkpt>
      <trkpt lat="44.05726" lon="6.84001">
        <ele>1099</ele>
        <time>2020-06-05T08:32:57.000Z</time>
      </trkpt>
      <trkpt lat="44.05726" lon="6.84">
        <ele>1099</ele>
        <time>2020-06-05T08:32:58.000Z</time>
      </trkpt>
      <trkpt lat="44.05726" lon="6.83999">
        <ele>1099</ele>
        <time>2020-06-05T08:32:59.000Z</time>
      </trkpt>
      <trkpt lat="44.05726" lon="6.83998">
        <ele>1099</ele>
        <time>2020-06-05T08:33:00.000Z</time>
      </trkpt>
      <trkpt lat="44.05726" lon="6.83998">
        <ele>1099</ele>
        <time>2020-06-05T08:33:01.000Z</time>
      </trkpt>
      <trkpt lat="44.05726" lon="6.83997">
        <ele>1099</ele>
        <time>2020-06-05T08:33:02.000Z</time>
      </trkpt>
      <trkpt lat="44.05726" lon="6.83995">
        <ele>1099</ele>
        <time>2020-06-05T08:33:03.000Z</time>
      </trkpt>
      <trkpt lat="44.05726" lon="6.83994">
        <ele>1099</ele>
        <time>2020-06-05T08:33:04.000Z</time>
      </trkpt>
      <trkpt lat="44.05726" lon="6.83993">
        <ele>1099</ele>
        <time>2020-06-05T08:33:05.000Z</time>
      </trkpt>
      <trkpt lat="44.05726" lon="6.83991">
        <ele>1099</ele>
        <time>2020-06-05T08:33:06.000Z</time>
      </trkpt>
      <trkpt lat="44.05725" lon="6.8399">
        <ele>1099</ele>
        <time>2020-06-05T08:33:07.000Z</time>
      </trkpt>
      <trkpt lat="44.05725" lon="6.83989">
        <ele>1100</ele>
        <time>2020-06-05T08:33:08.000Z</time>
      </trkpt>
      <trkpt lat="44.05725" lon="6.83988">
        <ele>1100</ele>
        <time>2020-06-05T08:33:09.000Z</time>
      </trkpt>
      <trkpt lat="44.05725" lon="6.83987">
        <ele>1100</ele>
        <time>2020-06-05T08:33:10.000Z</time>
      </trkpt>
      <trkpt lat="44.05725" lon="6.83986">
        <ele>1100</ele>
        <time>2020-06-05T08:33:11.000Z</time>
      </trkpt>
      <trkpt lat="44.05725" lon="6.83985">
        <ele>1100</ele>
        <time>2020-06-05T08:33:12.000Z</time>
      </trkpt>
      <trkpt lat="44.05725" lon="6.83983">
        <ele>1100</ele>
        <time>2020-06-05T08:33:13.000Z</time>
      </trkpt>
      <trkpt lat="44.05725" lon="6.83982">
        <ele>1100</ele>
        <time>2020-06-05T08:33:14.000Z</time>
      </trkpt>
      <trkpt lat="44.05725" lon="6.83981">
        <ele>1100</ele>
        <time>2020-06-05T08:33:15.000Z</time>
      </trkpt>
      <trkpt lat="44.05724" lon="6.8398">
        <ele>1100</ele>
        <time>2020-06-05T08:33:16.000Z</time>
      </trkpt>
      <trkpt lat="44.05724" lon="6.83979">
        <ele>1100</ele>
        <time>2020-06-05T08:33:17.000Z</time>
      </trkpt>
      <trkpt lat="44.05724" lon="6.83978">
        <ele>1100</ele>
        <time>2020-06-05T08:33:18.000Z</time>
      </trkpt>
      <trkpt lat="44.05724" lon="6.83977">
        <ele>1100</ele>
        <time>2020-06-05T08:33:19.000Z</time>
      </trkpt>
      <trkpt lat="44.05724" lon="6.83976">
        <ele>1100</ele>
        <time>2020-06-05T08:33:20.000Z</time>
      </trkpt>
      <trkpt lat="44.05723" lon="6.83974">
        <ele>1100</ele>
        <time>2020-06-05T08:33:21.000Z</time>
      </trkpt>
      <trkpt lat="44.05723" lon="6.83973">
        <ele>1100</ele>
        <time>2020-06-05T08:33:22.000Z</time>
      </trkpt>
      <trkpt lat="44.05723" lon="6.83972">
        <ele>1100</ele>
        <time>2020-06-05T08:33:23.000Z</time>
      </trkpt>
      <trkpt lat="44.05723" lon="6.83971">
        <ele>1100</ele>
        <time>2020-06-05T08:33:24.000Z</time>
      </trkpt>
      <trkpt lat="44.05722" lon="6.83969">
        <ele>1100</ele>
        <time>2020-06-05T08:33:25.000Z</time>
      </trkpt>
      <trkpt lat="44.05722" lon="6.83968">
        <ele>1100</ele>
        <time>2020-06-05T08:33:26.000Z</time>
      </trkpt>
      <trkpt lat="44.05722" lon="6.83967">
        <ele>1100</ele>
        <time>2020-06-05T08:33:27.000Z</time>
      </trkpt>
      <trkpt lat="44.05722" lon="6.83966">
        <ele>1100</ele>
        <time>2020-06-05T08:33:28.000Z</time>
      </trkpt>
      <trkpt lat="44.05722" lon="6.83965">
        <ele>1100</ele>
        <time>2020-06-05T08:33:29.000Z</time>
      </trkpt>
      <trkpt lat="44.05721" lon="6.83964">
        <ele>1101</ele>
        <time>2020-06-05T08:33:30.000Z</time>
      </trkpt>
      <trkpt lat="44.05721" lon="6.83963">
        <ele>1101</ele>
        <time>2020-06-05T08:33:31.000Z</time>
      </trkpt>
      <trkpt lat="44.05721" lon="6.83962">
        <ele>1101</ele>
        <time>2020-06-05T08:33:32.000Z</time>
      </trkpt>
      <trkpt lat="44.05721" lon="6.83961">
        <ele>1101</ele>
        <time>2020-06-05T08:33:33.000Z</time>
      </trkpt>
      <trkpt lat="44.05721" lon="6.8396">
        <ele>1101</ele>
        <time>2020-06-05T08:33:34.000Z</time>
      </trkpt>
      <trkpt lat="44.0572" lon="6.83959">
        <ele>1101</ele>
        <time>2020-06-05T08:33:35.000Z</time>
      </trkpt>
      <trkpt lat="44.0572" lon="6.83958">
        <ele>1101</ele>
        <time>2020-06-05T08:33:36.000Z</time>
      </trkpt>
      <trkpt lat="44.0572" lon="6.83957">
        <ele>1102</ele>
        <time>2020-06-05T08:33:37.000Z</time>
      </trkpt>
      <trkpt lat="44.0572" lon="6.83956">
        <ele>1102</ele>
        <time>2020-06-05T08:33:38.000Z</time>
      </trkpt>
      <trkpt lat="44.0572" lon="6.83955">
        <ele>1102</ele>
        <time>2020-06-05T08:33:39.000Z</time>
      </trkpt>
      <trkpt lat="44.0572" lon="6.83954">
        <ele>1102</ele>
        <time>2020-06-05T08:33:40.000Z</time>
      </trkpt>
      <trkpt lat="44.0572" lon="6.83953">
        <ele>1102</ele>
        <time>2020-06-05T08:33:41.000Z</time>
      </trkpt>
      <trkpt lat="44.0572" lon="6.83952">
        <ele>1102</ele>
        <time>2020-06-05T08:33:42.000Z</time>
      </trkpt>
      <trkpt lat="44.0572" lon="6.83951">
        <ele>1103</ele>
        <time>2020-06-05T08:33:43.000Z</time>
      </trkpt>
      <trkpt lat="44.0572" lon="6.8395">
        <ele>1103</ele>
        <time>2020-06-05T08:33:44.000Z</time>
      </trkpt>
      <trkpt lat="44.05719" lon="6.83949">
        <ele>1103</ele>
        <time>2020-06-05T08:33:45.000Z</time>
      </trkpt>
      <trkpt lat="44.05719" lon="6.83948">
        <ele>1103</ele>
        <time>2020-06-05T08:33:46.000Z</time>
      </trkpt>
      <trkpt lat="44.05719" lon="6.83947">
        <ele>1103</ele>
        <time>2020-06-05T08:33:47.000Z</time>
      </trkpt>
      <trkpt lat="44.05719" lon="6.83946">
        <ele>1103</ele>
        <time>2020-06-05T08:33:48.000Z</time>
      </trkpt>
      <trkpt lat="44.05719" lon="6.83945">
        <ele>1103</ele>
        <time>2020-06-05T08:33:49.000Z</time>
      </trkpt>
      <trkpt lat="44.05719" lon="6.83944">
        <ele>1103</ele>
        <time>2020-06-05T08:33:50.000Z</time>
      </trkpt>
      <trkpt lat="44.05719" lon="6.83943">
        <ele>1103</ele>
        <time>2020-06-05T08:33:51.000Z</time>
      </trkpt>
      <trkpt lat="44.05719" lon="6.83942">
        <ele>1103</ele>
        <time>2020-06-05T08:33:52.000Z</time>
      </trkpt>
      <trkpt lat="44.05718" lon="6.83941">
        <ele>1104</ele>
        <time>2020-06-05T08:33:53.000Z</time>
      </trkpt>
      <trkpt lat="44.05718" lon="6.8394">
        <ele>1104</ele>
        <time>2020-06-05T08:33:54.000Z</time>
      </trkpt>
      <trkpt lat="44.05718" lon="6.83939">
        <ele>1104</ele>
        <time>2020-06-05T08:33:55.000Z</time>
      </trkpt>
      <trkpt lat="44.05718" lon="6.83938">
        <ele>1104</ele>
        <time>2020-06-05T08:33:56.000Z</time>
      </trkpt>
      <trkpt lat="44.05718" lon="6.83937">
        <ele>1104</ele>
        <time>2020-06-05T08:33:57.000Z</time>
      </trkpt>
      <trkpt lat="44.05718" lon="6.83936">
        <ele>1104</ele>
        <time>2020-06-05T08:33:58.000Z</time>
      </trkpt>
      <trkpt lat="44.05718" lon="6.83935">
        <ele>1104</ele>
        <time>2020-06-05T08:33:59.000Z</time>
      </trkpt>
      <trkpt lat="44.05718" lon="6.83934">
        <ele>1104</ele>
        <time>2020-06-05T08:34:00.000Z</time>
      </trkpt>
      <trkpt lat="44.05718" lon="6.83933">
        <ele>1105</ele>
        <time>2020-06-05T08:34:01.000Z</time>
      </trkpt>
      <trkpt lat="44.05718" lon="6.83932">
        <ele>1105</ele>
        <time>2020-06-05T08:34:02.000Z</time>
      </trkpt>
      <trkpt lat="44.05718" lon="6.83932">
        <ele>1105</ele>
        <time>2020-06-05T08:34:03.000Z</time>
      </trkpt>
      <trkpt lat="44.05718" lon="6.83931">
        <ele>1105</ele>
        <time>2020-06-05T08:34:04.000Z</time>
      </trkpt>
      <trkpt lat="44.05718" lon="6.8393">
        <ele>1105</ele>
        <time>2020-06-05T08:34:05.000Z</time>
      </trkpt>
      <trkpt lat="44.05718" lon="6.8393">
        <ele>1105</ele>
        <time>2020-06-05T08:34:06.000Z</time>
      </trkpt>
      <trkpt lat="44.05718" lon="6.8393">
        <ele>1106</ele>
        <time>2020-06-05T08:34:07.000Z</time>
      </trkpt>
      <trkpt lat="44.05718" lon="6.83929">
        <ele>1106</ele>
        <time>2020-06-05T08:34:08.000Z</time>
      </trkpt>
      <trkpt lat="44.05718" lon="6.83929">
        <ele>1106</ele>
        <time>2020-06-05T08:34:09.000Z</time>
      </trkpt>
      <trkpt lat="44.05718" lon="6.83928">
        <ele>1106</ele>
        <time>2020-06-05T08:34:10.000Z</time>
      </trkpt>
      <trkpt lat="44.05718" lon="6.83927">
        <ele>1106</ele>
        <time>2020-06-05T08:34:11.000Z</time>
      </trkpt>
      <trkpt lat="44.05718" lon="6.83925">
        <ele>1106</ele>
        <time>2020-06-05T08:34:12.000Z</time>
      </trkpt>
      <trkpt lat="44.05719" lon="6.83924">
        <ele>1106</ele>
        <time>2020-06-05T08:34:13.000Z</time>
      </trkpt>
      <trkpt lat="44.05719" lon="6.83923">
        <ele>1106</ele>
        <time>2020-06-05T08:34:14.000Z</time>
      </trkpt>
      <trkpt lat="44.05719" lon="6.83922">
        <ele>1106</ele>
        <time>2020-06-05T08:34:15.000Z</time>
      </trkpt>
      <trkpt lat="44.05719" lon="6.83921">
        <ele>1106</ele>
        <time>2020-06-05T08:34:16.000Z</time>
      </trkpt>
      <trkpt lat="44.05719" lon="6.83921">
        <ele>1107</ele>
        <time>2020-06-05T08:34:17.000Z</time>
      </trkpt>
      <trkpt lat="44.05719" lon="6.8392">
        <ele>1107</ele>
        <time>2020-06-05T08:34:18.000Z</time>
      </trkpt>
      <trkpt lat="44.05719" lon="6.83919">
        <ele>1107</ele>
        <time>2020-06-05T08:34:19.000Z</time>
      </trkpt>
      <trkpt lat="44.05719" lon="6.83919">
        <ele>1107</ele>
        <time>2020-06-05T08:34:20.000Z</time>
      </trkpt>
      <trkpt lat="44.05718" lon="6.83919">
        <ele>1107</ele>
        <time>2020-06-05T08:34:21.000Z</time>
      </trkpt>
      <trkpt lat="44.05718" lon="6.83919">
        <ele>1107</ele>
        <time>2020-06-05T08:34:22.000Z</time>
      </trkpt>
      <trkpt lat="44.05718" lon="6.83919">
        <ele>1107</ele>
        <time>2020-06-05T08:34:23.000Z</time>
      </trkpt>
      <trkpt lat="44.05718" lon="6.83919">
        <ele>1108</ele>
        <time>2020-06-05T08:34:24.000Z</time>
      </trkpt>
      <trkpt lat="44.05718" lon="6.83919">
        <ele>1108</ele>
        <time>2020-06-05T08:34:25.000Z</time>
      </trkpt>
      <trkpt lat="44.05718" lon="6.83919">
        <ele>1108</ele>
        <time>2020-06-05T08:34:26.000Z</time>
      </trkpt>
      <trkpt lat="44.05718" lon="6.83919">
        <ele>1108</ele>
        <time>2020-06-05T08:34:27.000Z</time>
      </trkpt>
      <trkpt lat="44.05718" lon="6.83919">
        <ele>1108</ele>
        <time>2020-06-05T08:34:28.000Z</time>
      </trkpt>
      <trkpt lat="44.05718" lon="6.83919">
        <ele>1108</ele>
        <time>2020-06-05T08:34:29.000Z</time>
      </trkpt>
      <trkpt lat="44.05718" lon="6.83919">
        <ele>1108</ele>
        <time>2020-06-05T08:34:30.000Z</time>
      </trkpt>
      <trkpt lat="44.05718" lon="6.83918">
        <ele>1108</ele>
        <time>2020-06-05T08:34:31.000Z</time>
      </trkpt>
      <trkpt lat="44.05718" lon="6.83918">
        <ele>1108</ele>
        <time>2020-06-05T08:34:32.000Z</time>
      </trkpt>
      <trkpt lat="44.05718" lon="6.83917">
        <ele>1108</ele>
        <time>2020-06-05T08:34:33.000Z</time>
      </trkpt>
      <trkpt lat="44.05718" lon="6.83916">
        <ele>1108</ele>
        <time>2020-06-05T08:34:34.000Z</time>
      </trkpt>
      <trkpt lat="44.05718" lon="6.83916">
        <ele>1108</ele>
        <time>2020-06-05T08:34:35.000Z</time>
      </trkpt>
      <trkpt lat="44.05718" lon="6.83916">
        <ele>1108</ele>
        <time>2020-06-05T08:34:36.000Z</time>
      </trkpt>
      <trkpt lat="44.05718" lon="6.83916">
        <ele>1108</ele>
        <time>2020-06-05T08:34:37.000Z</time>
      </trkpt>
      <trkpt lat="44.05718" lon="6.83916">
        <ele>1109</ele>
        <time>2020-06-05T08:34:38.000Z</time>
      </trkpt>
      <trkpt lat="44.05718" lon="6.83915">
        <ele>1109</ele>
        <time>2020-06-05T08:34:39.000Z</time>
      </trkpt>
      <trkpt lat="44.05718" lon="6.83916">
        <ele>1109</ele>
        <time>2020-06-05T08:34:40.000Z</time>
      </trkpt>
      <trkpt lat="44.05718" lon="6.83915">
        <ele>1109</ele>
        <time>2020-06-05T08:34:41.000Z</time>
      </trkpt>
      <trkpt lat="44.05718" lon="6.83915">
        <ele>1109</ele>
        <time>2020-06-05T08:34:42.000Z</time>
      </trkpt>
      <trkpt lat="44.05718" lon="6.83915">
        <ele>1109</ele>
        <time>2020-06-05T08:34:43.000Z</time>
      </trkpt>
      <trkpt lat="44.05718" lon="6.83915">
        <ele>1109</ele>
        <time>2020-06-05T08:34:44.000Z</time>
      </trkpt>
      <trkpt lat="44.05718" lon="6.83915">
        <ele>1109</ele>
        <time>2020-06-05T08:34:45.000Z</time>
      </trkpt>
      <trkpt lat="44.05718" lon="6.83915">
        <ele>1109</ele>
        <time>2020-06-05T08:34:46.000Z</time>
      </trkpt>
      <trkpt lat="44.05717" lon="6.83915">
        <ele>1109</ele>
        <time>2020-06-05T08:34:47.000Z</time>
      </trkpt>
      <trkpt lat="44.05717" lon="6.83915">
        <ele>1109</ele>
        <time>2020-06-05T08:34:48.000Z</time>
      </trkpt>
      <trkpt lat="44.05717" lon="6.83915">
        <ele>1109</ele>
        <time>2020-06-05T08:34:49.000Z</time>
      </trkpt>
      <trkpt lat="44.05717" lon="6.83914">
        <ele>1109</ele>
        <time>2020-06-05T08:34:50.000Z</time>
      </trkpt>
      <trkpt lat="44.05717" lon="6.83913">
        <ele>1109</ele>
        <time>2020-06-05T08:34:51.000Z</time>
      </trkpt>
      <trkpt lat="44.05718" lon="6.83913">
        <ele>1109</ele>
        <time>2020-06-05T08:34:52.000Z</time>
      </trkpt>
      <trkpt lat="44.05718" lon="6.83912">
        <ele>1109</ele>
        <time>2020-06-05T08:34:53.000Z</time>
      </trkpt>
      <trkpt lat="44.05718" lon="6.83912">
        <ele>1109</ele>
        <time>2020-06-05T08:34:54.000Z</time>
      </trkpt>
      <trkpt lat="44.05718" lon="6.83911">
        <ele>1109</ele>
        <time>2020-06-05T08:34:55.000Z</time>
      </trkpt>
      <trkpt lat="44.05718" lon="6.83911">
        <ele>1109</ele>
        <time>2020-06-05T08:34:56.000Z</time>
      </trkpt>
      <trkpt lat="44.05718" lon="6.83911">
        <ele>1110</ele>
        <time>2020-06-05T08:34:57.000Z</time>
      </trkpt>
      <trkpt lat="44.05718" lon="6.83911">
        <ele>1110</ele>
        <time>2020-06-05T08:34:58.000Z</time>
      </trkpt>
      <trkpt lat="44.05718" lon="6.83911">
        <ele>1110</ele>
        <time>2020-06-05T08:34:59.000Z</time>
      </trkpt>
      <trkpt lat="44.05718" lon="6.83911">
        <ele>1110</ele>
        <time>2020-06-05T08:35:00.000Z</time>
      </trkpt>
      <trkpt lat="44.05718" lon="6.83911">
        <ele>1110</ele>
        <time>2020-06-05T08:35:01.000Z</time>
      </trkpt>
      <trkpt lat="44.05718" lon="6.83911">
        <ele>1110</ele>
        <time>2020-06-05T08:35:02.000Z</time>
      </trkpt>
      <trkpt lat="44.05718" lon="6.8391">
        <ele>1110</ele>
        <time>2020-06-05T08:35:03.000Z</time>
      </trkpt>
      <trkpt lat="44.05718" lon="6.8391">
        <ele>1110</ele>
        <time>2020-06-05T08:35:04.000Z</time>
      </trkpt>
      <trkpt lat="44.05718" lon="6.8391">
        <ele>1110</ele>
        <time>2020-06-05T08:35:05.000Z</time>
      </trkpt>
      <trkpt lat="44.05718" lon="6.8391">
        <ele>1110</ele>
        <time>2020-06-05T08:35:06.000Z</time>
      </trkpt>
      <trkpt lat="44.05718" lon="6.8391">
        <ele>1110</ele>
        <time>2020-06-05T08:35:07.000Z</time>
      </trkpt>
      <trkpt lat="44.05717" lon="6.83909">
        <ele>1111</ele>
        <time>2020-06-05T08:35:08.000Z</time>
      </trkpt>
      <trkpt lat="44.05717" lon="6.83909">
        <ele>1111</ele>
        <time>2020-06-05T08:35:09.000Z</time>
      </trkpt>
      <trkpt lat="44.05717" lon="6.83908">
        <ele>1111</ele>
        <time>2020-06-05T08:35:10.000Z</time>
      </trkpt>
      <trkpt lat="44.05717" lon="6.83908">
        <ele>1111</ele>
        <time>2020-06-05T08:35:11.000Z</time>
      </trkpt>
      <trkpt lat="44.05717" lon="6.83908">
        <ele>1111</ele>
        <time>2020-06-05T08:35:12.000Z</time>
      </trkpt>
      <trkpt lat="44.05717" lon="6.83908">
        <ele>1111</ele>
        <time>2020-06-05T08:35:13.000Z</time>
      </trkpt>
      <trkpt lat="44.05717" lon="6.83908">
        <ele>1111</ele>
        <time>2020-06-05T08:35:14.000Z</time>
      </trkpt>
      <trkpt lat="44.05717" lon="6.83908">
        <ele>1111</ele>
        <time>2020-06-05T08:35:15.000Z</time>
      </trkpt>
      <trkpt lat="44.05717" lon="6.83908">
        <ele>1111</ele>
        <time>2020-06-05T08:35:16.000Z</time>
      </trkpt>
      <trkpt lat="44.05717" lon="6.83908">
        <ele>1111</ele>
        <time>2020-06-05T08:35:17.000Z</time>
      </trkpt>
      <trkpt lat="44.05717" lon="6.83908">
        <ele>1111</ele>
        <time>2020-06-05T08:35:18.000Z</time>
      </trkpt>
      <trkpt lat="44.05717" lon="6.83908">
        <ele>1111</ele>
        <time>2020-06-05T08:35:19.000Z</time>
      </trkpt>
      <trkpt lat="44.05717" lon="6.83908">
        <ele>1111</ele>
        <time>2020-06-05T08:35:20.000Z</time>
      </trkpt>
      <trkpt lat="44.05717" lon="6.83907">
        <ele>1112</ele>
        <time>2020-06-05T08:35:21.000Z</time>
      </trkpt>
      <trkpt lat="44.05717" lon="6.83907">
        <ele>1112</ele>
        <time>2020-06-05T08:35:22.000Z</time>
      </trkpt>
      <trkpt lat="44.05717" lon="6.83906">
        <ele>1112</ele>
        <time>2020-06-05T08:35:23.000Z</time>
      </trkpt>
      <trkpt lat="44.05717" lon="6.83906">
        <ele>1112</ele>
        <time>2020-06-05T08:35:24.000Z</time>
      </trkpt>
      <trkpt lat="44.05717" lon="6.83906">
        <ele>1112</ele>
        <time>2020-06-05T08:35:25.000Z</time>
      </trkpt>
      <trkpt lat="44.05717" lon="6.83906">
        <ele>1112</ele>
        <time>2020-06-05T08:35:26.000Z</time>
      </trkpt>
      <trkpt lat="44.05717" lon="6.83906">
        <ele>1112</ele>
        <time>2020-06-05T08:35:27.000Z</time>
      </trkpt>
      <trkpt lat="44.05717" lon="6.83905">
        <ele>1113</ele>
        <time>2020-06-05T08:35:28.000Z</time>
      </trkpt>
      <trkpt lat="44.05717" lon="6.83905">
        <ele>1113</ele>
        <time>2020-06-05T08:35:29.000Z</time>
      </trkpt>
      <trkpt lat="44.05717" lon="6.83905">
        <ele>1113</ele>
        <time>2020-06-05T08:35:30.000Z</time>
      </trkpt>
      <trkpt lat="44.05717" lon="6.83905">
        <ele>1113</ele>
        <time>2020-06-05T08:35:31.000Z</time>
      </trkpt>
      <trkpt lat="44.05716" lon="6.83905">
        <ele>1113</ele>
        <time>2020-06-05T08:35:32.000Z</time>
      </trkpt>
      <trkpt lat="44.05716" lon="6.83905">
        <ele>1114</ele>
        <time>2020-06-05T08:35:33.000Z</time>
      </trkpt>
      <trkpt lat="44.05716" lon="6.83905">
        <ele>1114</ele>
        <time>2020-06-05T08:35:34.000Z</time>
      </trkpt>
      <trkpt lat="44.05716" lon="6.83905">
        <ele>1114</ele>
        <time>2020-06-05T08:35:35.000Z</time>
      </trkpt>
      <trkpt lat="44.05716" lon="6.83904">
        <ele>1114</ele>
        <time>2020-06-05T08:35:36.000Z</time>
      </trkpt>
      <trkpt lat="44.05717" lon="6.83904">
        <ele>1115</ele>
        <time>2020-06-05T08:35:37.000Z</time>
      </trkpt>
      <trkpt lat="44.05717" lon="6.83904">
        <ele>1115</ele>
        <time>2020-06-05T08:35:38.000Z</time>
      </trkpt>
      <trkpt lat="44.05717" lon="6.83904">
        <ele>1115</ele>
        <time>2020-06-05T08:35:39.000Z</time>
      </trkpt>
      <trkpt lat="44.05717" lon="6.83904">
        <ele>1115</ele>
        <time>2020-06-05T08:35:40.000Z</time>
      </trkpt>
      <trkpt lat="44.05717" lon="6.83904">
        <ele>1115</ele>
        <time>2020-06-05T08:35:41.000Z</time>
      </trkpt>
      <trkpt lat="44.05717" lon="6.83903">
        <ele>1116</ele>
        <time>2020-06-05T08:35:42.000Z</time>
      </trkpt>
      <trkpt lat="44.05716" lon="6.83903">
        <ele>1116</ele>
        <time>2020-06-05T08:35:43.000Z</time>
      </trkpt>
      <trkpt lat="44.05716" lon="6.83903">
        <ele>1116</ele>
        <time>2020-06-05T08:35:44.000Z</time>
      </trkpt>
      <trkpt lat="44.05716" lon="6.83903">
        <ele>1116</ele>
        <time>2020-06-05T08:35:45.000Z</time>
      </trkpt>
      <trkpt lat="44.05716" lon="6.83903">
        <ele>1116</ele>
        <time>2020-06-05T08:35:46.000Z</time>
      </trkpt>
      <trkpt lat="44.05716" lon="6.83902">
        <ele>1116</ele>
        <time>2020-06-05T08:35:47.000Z</time>
      </trkpt>
      <trkpt lat="44.05716" lon="6.83902">
        <ele>1116</ele>
        <time>2020-06-05T08:35:48.000Z</time>
      </trkpt>
      <trkpt lat="44.05716" lon="6.83901">
        <ele>1117</ele>
        <time>2020-06-05T08:35:49.000Z</time>
      </trkpt>
      <trkpt lat="44.05715" lon="6.839">
        <ele>1117</ele>
        <time>2020-06-05T08:35:50.000Z</time>
      </trkpt>
      <trkpt lat="44.05715" lon="6.83899">
        <ele>1117</ele>
        <time>2020-06-05T08:35:51.000Z</time>
      </trkpt>
      <trkpt lat="44.05715" lon="6.83898">
        <ele>1117</ele>
        <time>2020-06-05T08:35:52.000Z</time>
      </trkpt>
      <trkpt lat="44.05714" lon="6.83897">
        <ele>1117</ele>
        <time>2020-06-05T08:35:53.000Z</time>
      </trkpt>
      <trkpt lat="44.05714" lon="6.83896">
        <ele>1117</ele>
        <time>2020-06-05T08:35:54.000Z</time>
      </trkpt>
      <trkpt lat="44.05714" lon="6.83895">
        <ele>1117</ele>
        <time>2020-06-05T08:35:55.000Z</time>
      </trkpt>
      <trkpt lat="44.05714" lon="6.83894">
        <ele>1117</ele>
        <time>2020-06-05T08:35:56.000Z</time>
      </trkpt>
      <trkpt lat="44.05714" lon="6.83894">
        <ele>1117</ele>
        <time>2020-06-05T08:35:57.000Z</time>
      </trkpt>
      <trkpt lat="44.05713" lon="6.83893">
        <ele>1117</ele>
        <time>2020-06-05T08:35:58.000Z</time>
      </trkpt>
      <trkpt lat="44.05713" lon="6.83892">
        <ele>1117</ele>
        <time>2020-06-05T08:35:59.000Z</time>
      </trkpt>
      <trkpt lat="44.05713" lon="6.83892">
        <ele>1117</ele>
        <time>2020-06-05T08:36:00.000Z</time>
      </trkpt>
      <trkpt lat="44.05712" lon="6.83892">
        <ele>1117</ele>
        <time>2020-06-05T08:36:01.000Z</time>
      </trkpt>
      <trkpt lat="44.05712" lon="6.83891">
        <ele>1117</ele>
        <time>2020-06-05T08:36:02.000Z</time>
      </trkpt>
      <trkpt lat="44.05712" lon="6.83891">
        <ele>1117</ele>
        <time>2020-06-05T08:36:03.000Z</time>
      </trkpt>
      <trkpt lat="44.05711" lon="6.8389">
        <ele>1117</ele>
        <time>2020-06-05T08:36:04.000Z</time>
      </trkpt>
      <trkpt lat="44.05711" lon="6.83889">
        <ele>1117</ele>
        <time>2020-06-05T08:36:05.000Z</time>
      </trkpt>
      <trkpt lat="44.0571" lon="6.83889">
        <ele>1117</ele>
        <time>2020-06-05T08:36:06.000Z</time>
      </trkpt>
      <trkpt lat="44.0571" lon="6.83888">
        <ele>1117</ele>
        <time>2020-06-05T08:36:07.000Z</time>
      </trkpt>
      <trkpt lat="44.0571" lon="6.83887">
        <ele>1117</ele>
        <time>2020-06-05T08:36:08.000Z</time>
      </trkpt>
      <trkpt lat="44.05709" lon="6.83887">
        <ele>1117</ele>
        <time>2020-06-05T08:36:09.000Z</time>
      </trkpt>
      <trkpt lat="44.05709" lon="6.83886">
        <ele>1117</ele>
        <time>2020-06-05T08:36:10.000Z</time>
      </trkpt>
      <trkpt lat="44.05708" lon="6.83886">
        <ele>1117</ele>
        <time>2020-06-05T08:36:11.000Z</time>
      </trkpt>
      <trkpt lat="44.05708" lon="6.83885">
        <ele>1117</ele>
        <time>2020-06-05T08:36:12.000Z</time>
      </trkpt>
      <trkpt lat="44.05708" lon="6.83884">
        <ele>1117</ele>
        <time>2020-06-05T08:36:13.000Z</time>
      </trkpt>
      <trkpt lat="44.05707" lon="6.83883">
        <ele>1117</ele>
        <time>2020-06-05T08:36:14.000Z</time>
      </trkpt>
      <trkpt lat="44.05706" lon="6.83883">
        <ele>1117</ele>
        <time>2020-06-05T08:36:15.000Z</time>
      </trkpt>
      <trkpt lat="44.05706" lon="6.83882">
        <ele>1117</ele>
        <time>2020-06-05T08:36:16.000Z</time>
      </trkpt>
      <trkpt lat="44.05706" lon="6.83882">
        <ele>1118</ele>
        <time>2020-06-05T08:36:17.000Z</time>
      </trkpt>
      <trkpt lat="44.05705" lon="6.83881">
        <ele>1118</ele>
        <time>2020-06-05T08:36:18.000Z</time>
      </trkpt>
      <trkpt lat="44.05705" lon="6.8388">
        <ele>1118</ele>
        <time>2020-06-05T08:36:19.000Z</time>
      </trkpt>
      <trkpt lat="44.05705" lon="6.8388">
        <ele>1118</ele>
        <time>2020-06-05T08:36:20.000Z</time>
      </trkpt>
      <trkpt lat="44.05704" lon="6.83879">
        <ele>1118</ele>
        <time>2020-06-05T08:36:21.000Z</time>
      </trkpt>
      <trkpt lat="44.05704" lon="6.83879">
        <ele>1118</ele>
        <time>2020-06-05T08:36:22.000Z</time>
      </trkpt>
      <trkpt lat="44.05703" lon="6.83879">
        <ele>1118</ele>
        <time>2020-06-05T08:36:23.000Z</time>
      </trkpt>
      <trkpt lat="44.05703" lon="6.83878">
        <ele>1119</ele>
        <time>2020-06-05T08:36:24.000Z</time>
      </trkpt>
      <trkpt lat="44.05702" lon="6.83878">
        <ele>1119</ele>
        <time>2020-06-05T08:36:25.000Z</time>
      </trkpt>
      <trkpt lat="44.05702" lon="6.83877">
        <ele>1119</ele>
        <time>2020-06-05T08:36:26.000Z</time>
      </trkpt>
      <trkpt lat="44.05701" lon="6.83876">
        <ele>1119</ele>
        <time>2020-06-05T08:36:27.000Z</time>
      </trkpt>
      <trkpt lat="44.05701" lon="6.83875">
        <ele>1119</ele>
        <time>2020-06-05T08:36:28.000Z</time>
      </trkpt>
      <trkpt lat="44.057" lon="6.83875">
        <ele>1119</ele>
        <time>2020-06-05T08:36:29.000Z</time>
      </trkpt>
      <trkpt lat="44.057" lon="6.83874">
        <ele>1119</ele>
        <time>2020-06-05T08:36:30.000Z</time>
      </trkpt>
      <trkpt lat="44.05699" lon="6.83873">
        <ele>1119</ele>
        <time>2020-06-05T08:36:31.000Z</time>
      </trkpt>
      <trkpt lat="44.05699" lon="6.83873">
        <ele>1119</ele>
        <time>2020-06-05T08:36:32.000Z</time>
      </trkpt>
      <trkpt lat="44.05699" lon="6.83872">
        <ele>1119</ele>
        <time>2020-06-05T08:36:33.000Z</time>
      </trkpt>
      <trkpt lat="44.05699" lon="6.83871">
        <ele>1119</ele>
        <time>2020-06-05T08:36:34.000Z</time>
      </trkpt>
      <trkpt lat="44.05698" lon="6.83871">
        <ele>1119</ele>
        <time>2020-06-05T08:36:35.000Z</time>
      </trkpt>
      <trkpt lat="44.05698" lon="6.8387">
        <ele>1119</ele>
        <time>2020-06-05T08:36:36.000Z</time>
      </trkpt>
      <trkpt lat="44.05697" lon="6.83869">
        <ele>1119</ele>
        <time>2020-06-05T08:36:37.000Z</time>
      </trkpt>
      <trkpt lat="44.05697" lon="6.83869">
        <ele>1119</ele>
        <time>2020-06-05T08:36:38.000Z</time>
      </trkpt>
      <trkpt lat="44.05696" lon="6.83868">
        <ele>1120</ele>
        <time>2020-06-05T08:36:39.000Z</time>
      </trkpt>
      <trkpt lat="44.05695" lon="6.83868">
        <ele>1120</ele>
        <time>2020-06-05T08:36:40.000Z</time>
      </trkpt>
      <trkpt lat="44.05695" lon="6.83867">
        <ele>1120</ele>
        <time>2020-06-05T08:36:41.000Z</time>
      </trkpt>
      <trkpt lat="44.05694" lon="6.83867">
        <ele>1120</ele>
        <time>2020-06-05T08:36:42.000Z</time>
      </trkpt>
      <trkpt lat="44.05694" lon="6.83866">
        <ele>1120</ele>
        <time>2020-06-05T08:36:43.000Z</time>
      </trkpt>
      <trkpt lat="44.05693" lon="6.83866">
        <ele>1120</ele>
        <time>2020-06-05T08:36:44.000Z</time>
      </trkpt>
      <trkpt lat="44.05693" lon="6.83865">
        <ele>1120</ele>
        <time>2020-06-05T08:36:45.000Z</time>
      </trkpt>
      <trkpt lat="44.05692" lon="6.83864">
        <ele>1120</ele>
        <time>2020-06-05T08:36:46.000Z</time>
      </trkpt>
      <trkpt lat="44.05692" lon="6.83863">
        <ele>1120</ele>
        <time>2020-06-05T08:36:47.000Z</time>
      </trkpt>
      <trkpt lat="44.05692" lon="6.83863">
        <ele>1120</ele>
        <time>2020-06-05T08:36:48.000Z</time>
      </trkpt>
      <trkpt lat="44.05691" lon="6.83862">
        <ele>1120</ele>
        <time>2020-06-05T08:36:49.000Z</time>
      </trkpt>
      <trkpt lat="44.0569" lon="6.83861">
        <ele>1121</ele>
        <time>2020-06-05T08:36:50.000Z</time>
      </trkpt>
      <trkpt lat="44.0569" lon="6.83861">
        <ele>1121</ele>
        <time>2020-06-05T08:36:51.000Z</time>
      </trkpt>
      <trkpt lat="44.05689" lon="6.8386">
        <ele>1121</ele>
        <time>2020-06-05T08:36:52.000Z</time>
      </trkpt>
      <trkpt lat="44.05689" lon="6.83859">
        <ele>1121</ele>
        <time>2020-06-05T08:36:53.000Z</time>
      </trkpt>
      <trkpt lat="44.05689" lon="6.83859">
        <ele>1121</ele>
        <time>2020-06-05T08:36:54.000Z</time>
      </trkpt>
      <trkpt lat="44.05688" lon="6.83858">
        <ele>1121</ele>
        <time>2020-06-05T08:36:55.000Z</time>
      </trkpt>
      <trkpt lat="44.05688" lon="6.83858">
        <ele>1121</ele>
        <time>2020-06-05T08:36:56.000Z</time>
      </trkpt>
      <trkpt lat="44.05688" lon="6.83857">
        <ele>1122</ele>
        <time>2020-06-05T08:36:57.000Z</time>
      </trkpt>
      <trkpt lat="44.05688" lon="6.83856">
        <ele>1122</ele>
        <time>2020-06-05T08:36:58.000Z</time>
      </trkpt>
      <trkpt lat="44.05688" lon="6.83855">
        <ele>1122</ele>
        <time>2020-06-05T08:36:59.000Z</time>
      </trkpt>
      <trkpt lat="44.05688" lon="6.83854">
        <ele>1122</ele>
        <time>2020-06-05T08:37:00.000Z</time>
      </trkpt>
      <trkpt lat="44.05688" lon="6.83854">
        <ele>1122</ele>
        <time>2020-06-05T08:37:01.000Z</time>
      </trkpt>
      <trkpt lat="44.05688" lon="6.83853">
        <ele>1122</ele>
        <time>2020-06-05T08:37:02.000Z</time>
      </trkpt>
      <trkpt lat="44.05688" lon="6.83852">
        <ele>1122</ele>
        <time>2020-06-05T08:37:03.000Z</time>
      </trkpt>
      <trkpt lat="44.05688" lon="6.83852">
        <ele>1122</ele>
        <time>2020-06-05T08:37:04.000Z</time>
      </trkpt>
      <trkpt lat="44.05688" lon="6.83851">
        <ele>1122</ele>
        <time>2020-06-05T08:37:05.000Z</time>
      </trkpt>
      <trkpt lat="44.05688" lon="6.83851">
        <ele>1122</ele>
        <time>2020-06-05T08:37:06.000Z</time>
      </trkpt>
      <trkpt lat="44.05688" lon="6.8385">
        <ele>1122</ele>
        <time>2020-06-05T08:37:07.000Z</time>
      </trkpt>
      <trkpt lat="44.05688" lon="6.83849">
        <ele>1122</ele>
        <time>2020-06-05T08:37:08.000Z</time>
      </trkpt>
      <trkpt lat="44.05688" lon="6.83848">
        <ele>1122</ele>
        <time>2020-06-05T08:37:09.000Z</time>
      </trkpt>
      <trkpt lat="44.05687" lon="6.83847">
        <ele>1122</ele>
        <time>2020-06-05T08:37:10.000Z</time>
      </trkpt>
      <trkpt lat="44.05687" lon="6.83846">
        <ele>1122</ele>
        <time>2020-06-05T08:37:11.000Z</time>
      </trkpt>
      <trkpt lat="44.05687" lon="6.83845">
        <ele>1122</ele>
        <time>2020-06-05T08:37:12.000Z</time>
      </trkpt>
      <trkpt lat="44.05687" lon="6.83845">
        <ele>1122</ele>
        <time>2020-06-05T08:37:13.000Z</time>
      </trkpt>
      <trkpt lat="44.05687" lon="6.83844">
        <ele>1122</ele>
        <time>2020-06-05T08:37:14.000Z</time>
      </trkpt>
      <trkpt lat="44.05686" lon="6.83843">
        <ele>1122</ele>
        <time>2020-06-05T08:37:15.000Z</time>
      </trkpt>
      <trkpt lat="44.05686" lon="6.83842">
        <ele>1122</ele>
        <time>2020-06-05T08:37:16.000Z</time>
      </trkpt>
      <trkpt lat="44.05686" lon="6.83841">
        <ele>1122</ele>
        <time>2020-06-05T08:37:17.000Z</time>
      </trkpt>
      <trkpt lat="44.05686" lon="6.8384">
        <ele>1122</ele>
        <time>2020-06-05T08:37:18.000Z</time>
      </trkpt>
      <trkpt lat="44.05685" lon="6.8384">
        <ele>1122</ele>
        <time>2020-06-05T08:37:19.000Z</time>
      </trkpt>
      <trkpt lat="44.05685" lon="6.83839">
        <ele>1122</ele>
        <time>2020-06-05T08:37:20.000Z</time>
      </trkpt>
      <trkpt lat="44.05685" lon="6.83837">
        <ele>1122</ele>
        <time>2020-06-05T08:37:21.000Z</time>
      </trkpt>
      <trkpt lat="44.05685" lon="6.83836">
        <ele>1122</ele>
        <time>2020-06-05T08:37:22.000Z</time>
      </trkpt>
      <trkpt lat="44.05684" lon="6.83835">
        <ele>1122</ele>
        <time>2020-06-05T08:37:23.000Z</time>
      </trkpt>
      <trkpt lat="44.05684" lon="6.83835">
        <ele>1122</ele>
        <time>2020-06-05T08:37:24.000Z</time>
      </trkpt>
      <trkpt lat="44.05684" lon="6.83834">
        <ele>1122</ele>
        <time>2020-06-05T08:37:25.000Z</time>
      </trkpt>
      <trkpt lat="44.05684" lon="6.83833">
        <ele>1122</ele>
        <time>2020-06-05T08:37:26.000Z</time>
      </trkpt>
      <trkpt lat="44.05683" lon="6.83832">
        <ele>1122</ele>
        <time>2020-06-05T08:37:27.000Z</time>
      </trkpt>
      <trkpt lat="44.05682" lon="6.83831">
        <ele>1122</ele>
        <time>2020-06-05T08:37:28.000Z</time>
      </trkpt>
      <trkpt lat="44.05682" lon="6.83831">
        <ele>1123</ele>
        <time>2020-06-05T08:37:29.000Z</time>
      </trkpt>
      <trkpt lat="44.05681" lon="6.8383">
        <ele>1123</ele>
        <time>2020-06-05T08:37:30.000Z</time>
      </trkpt>
      <trkpt lat="44.05681" lon="6.83829">
        <ele>1123</ele>
        <time>2020-06-05T08:37:31.000Z</time>
      </trkpt>
      <trkpt lat="44.0568" lon="6.83828">
        <ele>1123</ele>
        <time>2020-06-05T08:37:32.000Z</time>
      </trkpt>
      <trkpt lat="44.0568" lon="6.83827">
        <ele>1123</ele>
        <time>2020-06-05T08:37:33.000Z</time>
      </trkpt>
      <trkpt lat="44.0568" lon="6.83827">
        <ele>1123</ele>
        <time>2020-06-05T08:37:34.000Z</time>
      </trkpt>
      <trkpt lat="44.05679" lon="6.83826">
        <ele>1123</ele>
        <time>2020-06-05T08:37:35.000Z</time>
      </trkpt>
      <trkpt lat="44.05679" lon="6.83826">
        <ele>1123</ele>
        <time>2020-06-05T08:37:36.000Z</time>
      </trkpt>
      <trkpt lat="44.05679" lon="6.83826">
        <ele>1123</ele>
        <time>2020-06-05T08:37:37.000Z</time>
      </trkpt>
      <trkpt lat="44.05679" lon="6.83826">
        <ele>1124</ele>
        <time>2020-06-05T08:37:38.000Z</time>
      </trkpt>
      <trkpt lat="44.05679" lon="6.83826">
        <ele>1124</ele>
        <time>2020-06-05T08:37:39.000Z</time>
      </trkpt>
      <trkpt lat="44.05679" lon="6.83825">
        <ele>1124</ele>
        <time>2020-06-05T08:37:40.000Z</time>
      </trkpt>
      <trkpt lat="44.05679" lon="6.83825">
        <ele>1124</ele>
        <time>2020-06-05T08:37:41.000Z</time>
      </trkpt>
      <trkpt lat="44.05678" lon="6.83824">
        <ele>1124</ele>
        <time>2020-06-05T08:37:42.000Z</time>
      </trkpt>
      <trkpt lat="44.05678" lon="6.83823">
        <ele>1124</ele>
        <time>2020-06-05T08:37:43.000Z</time>
      </trkpt>
      <trkpt lat="44.05677" lon="6.83822">
        <ele>1124</ele>
        <time>2020-06-05T08:37:44.000Z</time>
      </trkpt>
      <trkpt lat="44.05677" lon="6.83821">
        <ele>1124</ele>
        <time>2020-06-05T08:37:45.000Z</time>
      </trkpt>
      <trkpt lat="44.05676" lon="6.8382">
        <ele>1124</ele>
        <time>2020-06-05T08:37:46.000Z</time>
      </trkpt>
      <trkpt lat="44.05676" lon="6.83819">
        <ele>1124</ele>
        <time>2020-06-05T08:37:47.000Z</time>
      </trkpt>
      <trkpt lat="44.05676" lon="6.83818">
        <ele>1124</ele>
        <time>2020-06-05T08:37:48.000Z</time>
      </trkpt>
      <trkpt lat="44.05676" lon="6.83818">
        <ele>1124</ele>
        <time>2020-06-05T08:37:49.000Z</time>
      </trkpt>
      <trkpt lat="44.05675" lon="6.83817">
        <ele>1124</ele>
        <time>2020-06-05T08:37:50.000Z</time>
      </trkpt>
      <trkpt lat="44.05675" lon="6.83816">
        <ele>1124</ele>
        <time>2020-06-05T08:37:51.000Z</time>
      </trkpt>
      <trkpt lat="44.05674" lon="6.83815">
        <ele>1124</ele>
        <time>2020-06-05T08:37:52.000Z</time>
      </trkpt>
      <trkpt lat="44.05674" lon="6.83814">
        <ele>1124</ele>
        <time>2020-06-05T08:37:53.000Z</time>
      </trkpt>
      <trkpt lat="44.05673" lon="6.83814">
        <ele>1124</ele>
        <time>2020-06-05T08:37:54.000Z</time>
      </trkpt>
      <trkpt lat="44.05673" lon="6.83813">
        <ele>1124</ele>
        <time>2020-06-05T08:37:55.000Z</time>
      </trkpt>
      <trkpt lat="44.05672" lon="6.83812">
        <ele>1125</ele>
        <time>2020-06-05T08:37:56.000Z</time>
      </trkpt>
      <trkpt lat="44.05672" lon="6.83811">
        <ele>1125</ele>
        <time>2020-06-05T08:37:57.000Z</time>
      </trkpt>
      <trkpt lat="44.05671" lon="6.8381">
        <ele>1125</ele>
        <time>2020-06-05T08:37:58.000Z</time>
      </trkpt>
      <trkpt lat="44.05671" lon="6.83809">
        <ele>1125</ele>
        <time>2020-06-05T08:37:59.000Z</time>
      </trkpt>
      <trkpt lat="44.05671" lon="6.83808">
        <ele>1125</ele>
        <time>2020-06-05T08:38:00.000Z</time>
      </trkpt>
      <trkpt lat="44.0567" lon="6.83807">
        <ele>1125</ele>
        <time>2020-06-05T08:38:01.000Z</time>
      </trkpt>
      <trkpt lat="44.0567" lon="6.83806">
        <ele>1125</ele>
        <time>2020-06-05T08:38:02.000Z</time>
      </trkpt>
      <trkpt lat="44.05669" lon="6.83806">
        <ele>1126</ele>
        <time>2020-06-05T08:38:03.000Z</time>
      </trkpt>
      <trkpt lat="44.05669" lon="6.83805">
        <ele>1126</ele>
        <time>2020-06-05T08:38:04.000Z</time>
      </trkpt>
      <trkpt lat="44.05668" lon="6.83804">
        <ele>1126</ele>
        <time>2020-06-05T08:38:05.000Z</time>
      </trkpt>
      <trkpt lat="44.05668" lon="6.83804">
        <ele>1126</ele>
        <time>2020-06-05T08:38:06.000Z</time>
      </trkpt>
      <trkpt lat="44.05667" lon="6.83803">
        <ele>1126</ele>
        <time>2020-06-05T08:38:07.000Z</time>
      </trkpt>
      <trkpt lat="44.05666" lon="6.83802">
        <ele>1126</ele>
        <time>2020-06-05T08:38:08.000Z</time>
      </trkpt>
      <trkpt lat="44.05666" lon="6.83802">
        <ele>1127</ele>
        <time>2020-06-05T08:38:09.000Z</time>
      </trkpt>
      <trkpt lat="44.05665" lon="6.83801">
        <ele>1127</ele>
        <time>2020-06-05T08:38:10.000Z</time>
      </trkpt>
      <trkpt lat="44.05665" lon="6.83799">
        <ele>1127</ele>
        <time>2020-06-05T08:38:11.000Z</time>
      </trkpt>
      <trkpt lat="44.05665" lon="6.83798">
        <ele>1127</ele>
        <time>2020-06-05T08:38:12.000Z</time>
      </trkpt>
      <trkpt lat="44.05664" lon="6.83798">
        <ele>1127</ele>
        <time>2020-06-05T08:38:13.000Z</time>
      </trkpt>
      <trkpt lat="44.05664" lon="6.83797">
        <ele>1127</ele>
        <time>2020-06-05T08:38:14.000Z</time>
      </trkpt>
      <trkpt lat="44.05663" lon="6.83796">
        <ele>1127</ele>
        <time>2020-06-05T08:38:15.000Z</time>
      </trkpt>
      <trkpt lat="44.05663" lon="6.83795">
        <ele>1128</ele>
        <time>2020-06-05T08:38:16.000Z</time>
      </trkpt>
      <trkpt lat="44.05662" lon="6.83794">
        <ele>1128</ele>
        <time>2020-06-05T08:38:17.000Z</time>
      </trkpt>
      <trkpt lat="44.05662" lon="6.83793">
        <ele>1128</ele>
        <time>2020-06-05T08:38:18.000Z</time>
      </trkpt>
      <trkpt lat="44.05662" lon="6.83792">
        <ele>1128</ele>
        <time>2020-06-05T08:38:19.000Z</time>
      </trkpt>
      <trkpt lat="44.05661" lon="6.83791">
        <ele>1128</ele>
        <time>2020-06-05T08:38:20.000Z</time>
      </trkpt>
      <trkpt lat="44.05661" lon="6.8379">
        <ele>1128</ele>
        <time>2020-06-05T08:38:21.000Z</time>
      </trkpt>
      <trkpt lat="44.05661" lon="6.83789">
        <ele>1128</ele>
        <time>2020-06-05T08:38:22.000Z</time>
      </trkpt>
      <trkpt lat="44.05661" lon="6.83788">
        <ele>1129</ele>
        <time>2020-06-05T08:38:23.000Z</time>
      </trkpt>
      <trkpt lat="44.0566" lon="6.83788">
        <ele>1129</ele>
        <time>2020-06-05T08:38:24.000Z</time>
      </trkpt>
      <trkpt lat="44.0566" lon="6.83787">
        <ele>1129</ele>
        <time>2020-06-05T08:38:25.000Z</time>
      </trkpt>
      <trkpt lat="44.0566" lon="6.83787">
        <ele>1129</ele>
        <time>2020-06-05T08:38:26.000Z</time>
      </trkpt>
      <trkpt lat="44.0566" lon="6.83787">
        <ele>1129</ele>
        <time>2020-06-05T08:38:27.000Z</time>
      </trkpt>
      <trkpt lat="44.05661" lon="6.83787">
        <ele>1129</ele>
        <time>2020-06-05T08:38:28.000Z</time>
      </trkpt>
      <trkpt lat="44.0566" lon="6.83787">
        <ele>1129</ele>
        <time>2020-06-05T08:38:29.000Z</time>
      </trkpt>
      <trkpt lat="44.0566" lon="6.83787">
        <ele>1129</ele>
        <time>2020-06-05T08:38:30.000Z</time>
      </trkpt>
      <trkpt lat="44.0566" lon="6.83786">
        <ele>1129</ele>
        <time>2020-06-05T08:38:31.000Z</time>
      </trkpt>
      <trkpt lat="44.0566" lon="6.83785">
        <ele>1129</ele>
        <time>2020-06-05T08:38:32.000Z</time>
      </trkpt>
      <trkpt lat="44.0566" lon="6.83784">
        <ele>1129</ele>
        <time>2020-06-05T08:38:33.000Z</time>
      </trkpt>
      <trkpt lat="44.0566" lon="6.83783">
        <ele>1129</ele>
        <time>2020-06-05T08:38:34.000Z</time>
      </trkpt>
      <trkpt lat="44.0566" lon="6.83781">
        <ele>1130</ele>
        <time>2020-06-05T08:38:35.000Z</time>
      </trkpt>
      <trkpt lat="44.0566" lon="6.83781">
        <ele>1130</ele>
        <time>2020-06-05T08:38:36.000Z</time>
      </trkpt>
      <trkpt lat="44.05661" lon="6.83779">
        <ele>1130</ele>
        <time>2020-06-05T08:38:37.000Z</time>
      </trkpt>
      <trkpt lat="44.05661" lon="6.83778">
        <ele>1130</ele>
        <time>2020-06-05T08:38:38.000Z</time>
      </trkpt>
      <trkpt lat="44.05661" lon="6.83777">
        <ele>1130</ele>
        <time>2020-06-05T08:38:39.000Z</time>
      </trkpt>
      <trkpt lat="44.05661" lon="6.83776">
        <ele>1130</ele>
        <time>2020-06-05T08:38:40.000Z</time>
      </trkpt>
      <trkpt lat="44.05661" lon="6.83775">
        <ele>1130</ele>
        <time>2020-06-05T08:38:41.000Z</time>
      </trkpt>
      <trkpt lat="44.05661" lon="6.83774">
        <ele>1130</ele>
        <time>2020-06-05T08:38:42.000Z</time>
      </trkpt>
      <trkpt lat="44.05661" lon="6.83773">
        <ele>1130</ele>
        <time>2020-06-05T08:38:43.000Z</time>
      </trkpt>
      <trkpt lat="44.0566" lon="6.83772">
        <ele>1130</ele>
        <time>2020-06-05T08:38:44.000Z</time>
      </trkpt>
      <trkpt lat="44.0566" lon="6.83771">
        <ele>1130</ele>
        <time>2020-06-05T08:38:45.000Z</time>
      </trkpt>
      <trkpt lat="44.0566" lon="6.8377">
        <ele>1130</ele>
        <time>2020-06-05T08:38:46.000Z</time>
      </trkpt>
      <trkpt lat="44.0566" lon="6.83769">
        <ele>1130</ele>
        <time>2020-06-05T08:38:47.000Z</time>
      </trkpt>
      <trkpt lat="44.0566" lon="6.83768">
        <ele>1130</ele>
        <time>2020-06-05T08:38:48.000Z</time>
      </trkpt>
      <trkpt lat="44.0566" lon="6.83767">
        <ele>1130</ele>
        <time>2020-06-05T08:38:49.000Z</time>
      </trkpt>
      <trkpt lat="44.0566" lon="6.83766">
        <ele>1130</ele>
        <time>2020-06-05T08:38:50.000Z</time>
      </trkpt>
      <trkpt lat="44.0566" lon="6.83766">
        <ele>1130</ele>
        <time>2020-06-05T08:38:51.000Z</time>
      </trkpt>
      <trkpt lat="44.0566" lon="6.83765">
        <ele>1130</ele>
        <time>2020-06-05T08:38:52.000Z</time>
      </trkpt>
      <trkpt lat="44.0566" lon="6.83764">
        <ele>1130</ele>
        <time>2020-06-05T08:38:53.000Z</time>
      </trkpt>
      <trkpt lat="44.05661" lon="6.83763">
        <ele>1130</ele>
        <time>2020-06-05T08:38:54.000Z</time>
      </trkpt>
      <trkpt lat="44.05661" lon="6.83762">
        <ele>1131</ele>
        <time>2020-06-05T08:38:55.000Z</time>
      </trkpt>
      <trkpt lat="44.05661" lon="6.8376">
        <ele>1131</ele>
        <time>2020-06-05T08:38:56.000Z</time>
      </trkpt>
      <trkpt lat="44.05662" lon="6.83759">
        <ele>1131</ele>
        <time>2020-06-05T08:38:57.000Z</time>
      </trkpt>
      <trkpt lat="44.05663" lon="6.83758">
        <ele>1131</ele>
        <time>2020-06-05T08:38:58.000Z</time>
      </trkpt>
      <trkpt lat="44.05663" lon="6.83758">
        <ele>1131</ele>
        <time>2020-06-05T08:38:59.000Z</time>
      </trkpt>
      <trkpt lat="44.05664" lon="6.83757">
        <ele>1131</ele>
        <time>2020-06-05T08:39:00.000Z</time>
      </trkpt>
      <trkpt lat="44.05665" lon="6.83756">
        <ele>1132</ele>
        <time>2020-06-05T08:39:01.000Z</time>
      </trkpt>
      <trkpt lat="44.05665" lon="6.83756">
        <ele>1132</ele>
        <time>2020-06-05T08:39:02.000Z</time>
      </trkpt>
      <trkpt lat="44.05666" lon="6.83755">
        <ele>1132</ele>
        <time>2020-06-05T08:39:03.000Z</time>
      </trkpt>
      <trkpt lat="44.05667" lon="6.83755">
        <ele>1132</ele>
        <time>2020-06-05T08:39:04.000Z</time>
      </trkpt>
      <trkpt lat="44.05668" lon="6.83754">
        <ele>1132</ele>
        <time>2020-06-05T08:39:05.000Z</time>
      </trkpt>
      <trkpt lat="44.05669" lon="6.83753">
        <ele>1132</ele>
        <time>2020-06-05T08:39:06.000Z</time>
      </trkpt>
      <trkpt lat="44.0567" lon="6.83752">
        <ele>1132</ele>
        <time>2020-06-05T08:39:07.000Z</time>
      </trkpt>
      <trkpt lat="44.0567" lon="6.83752">
        <ele>1133</ele>
        <time>2020-06-05T08:39:08.000Z</time>
      </trkpt>
      <trkpt lat="44.05671" lon="6.83751">
        <ele>1133</ele>
        <time>2020-06-05T08:39:09.000Z</time>
      </trkpt>
      <trkpt lat="44.05672" lon="6.83751">
        <ele>1133</ele>
        <time>2020-06-05T08:39:10.000Z</time>
      </trkpt>
      <trkpt lat="44.05673" lon="6.8375">
        <ele>1133</ele>
        <time>2020-06-05T08:39:11.000Z</time>
      </trkpt>
      <trkpt lat="44.05673" lon="6.8375">
        <ele>1133</ele>
        <time>2020-06-05T08:39:12.000Z</time>
      </trkpt>
      <trkpt lat="44.05674" lon="6.83749">
        <ele>1133</ele>
        <time>2020-06-05T08:39:13.000Z</time>
      </trkpt>
      <trkpt lat="44.05675" lon="6.83749">
        <ele>1133</ele>
        <time>2020-06-05T08:39:14.000Z</time>
      </trkpt>
      <trkpt lat="44.05675" lon="6.83749">
        <ele>1134</ele>
        <time>2020-06-05T08:39:15.000Z</time>
      </trkpt>
      <trkpt lat="44.05676" lon="6.83749">
        <ele>1134</ele>
        <time>2020-06-05T08:39:16.000Z</time>
      </trkpt>
      <trkpt lat="44.05676" lon="6.83749">
        <ele>1134</ele>
        <time>2020-06-05T08:39:17.000Z</time>
      </trkpt>
      <trkpt lat="44.05676" lon="6.83748">
        <ele>1134</ele>
        <time>2020-06-05T08:39:18.000Z</time>
      </trkpt>
      <trkpt lat="44.05676" lon="6.83748">
        <ele>1134</ele>
        <time>2020-06-05T08:39:19.000Z</time>
      </trkpt>
      <trkpt lat="44.05676" lon="6.83748">
        <ele>1134</ele>
        <time>2020-06-05T08:39:20.000Z</time>
      </trkpt>
      <trkpt lat="44.05676" lon="6.83748">
        <ele>1134</ele>
        <time>2020-06-05T08:39:21.000Z</time>
      </trkpt>
      <trkpt lat="44.05676" lon="6.83748">
        <ele>1134</ele>
        <time>2020-06-05T08:39:22.000Z</time>
      </trkpt>
      <trkpt lat="44.05676" lon="6.83748">
        <ele>1134</ele>
        <time>2020-06-05T08:39:23.000Z</time>
      </trkpt>
      <trkpt lat="44.05676" lon="6.83748">
        <ele>1134</ele>
        <time>2020-06-05T08:39:24.000Z</time>
      </trkpt>
      <trkpt lat="44.05676" lon="6.83748">
        <ele>1134</ele>
        <time>2020-06-05T08:39:25.000Z</time>
      </trkpt>
      <trkpt lat="44.05676" lon="6.83748">
        <ele>1134</ele>
        <time>2020-06-05T08:39:26.000Z</time>
      </trkpt>
      <trkpt lat="44.05676" lon="6.83748">
        <ele>1135</ele>
        <time>2020-06-05T08:39:27.000Z</time>
      </trkpt>
      <trkpt lat="44.05676" lon="6.83747">
        <ele>1135</ele>
        <time>2020-06-05T08:39:28.000Z</time>
      </trkpt>
      <trkpt lat="44.05676" lon="6.83747">
        <ele>1135</ele>
        <time>2020-06-05T08:39:29.000Z</time>
      </trkpt>
      <trkpt lat="44.05677" lon="6.83747">
        <ele>1135</ele>
        <time>2020-06-05T08:39:30.000Z</time>
      </trkpt>
      <trkpt lat="44.05677" lon="6.83747">
        <ele>1135</ele>
        <time>2020-06-05T08:39:31.000Z</time>
      </trkpt>
      <trkpt lat="44.05677" lon="6.83747">
        <ele>1135</ele>
        <time>2020-06-05T08:39:32.000Z</time>
      </trkpt>
      <trkpt lat="44.05677" lon="6.83747">
        <ele>1135</ele>
        <time>2020-06-05T08:39:33.000Z</time>
      </trkpt>
      <trkpt lat="44.05677" lon="6.83747">
        <ele>1135</ele>
        <time>2020-06-05T08:39:34.000Z</time>
      </trkpt>
      <trkpt lat="44.05679" lon="6.83746">
        <ele>1135</ele>
        <time>2020-06-05T08:39:35.000Z</time>
      </trkpt>
      <trkpt lat="44.05679" lon="6.83745">
        <ele>1135</ele>
        <time>2020-06-05T08:39:36.000Z</time>
      </trkpt>
      <trkpt lat="44.0568" lon="6.83745">
        <ele>1135</ele>
        <time>2020-06-05T08:39:37.000Z</time>
      </trkpt>
      <trkpt lat="44.05681" lon="6.83744">
        <ele>1135</ele>
        <time>2020-06-05T08:39:38.000Z</time>
      </trkpt>
      <trkpt lat="44.05682" lon="6.83743">
        <ele>1135</ele>
        <time>2020-06-05T08:39:39.000Z</time>
      </trkpt>
      <trkpt lat="44.05682" lon="6.83742">
        <ele>1135</ele>
        <time>2020-06-05T08:39:40.000Z</time>
      </trkpt>
      <trkpt lat="44.05683" lon="6.83741">
        <ele>1135</ele>
        <time>2020-06-05T08:39:41.000Z</time>
      </trkpt>
      <trkpt lat="44.05684" lon="6.83741">
        <ele>1136</ele>
        <time>2020-06-05T08:39:42.000Z</time>
      </trkpt>
      <trkpt lat="44.05684" lon="6.8374">
        <ele>1136</ele>
        <time>2020-06-05T08:39:43.000Z</time>
      </trkpt>
      <trkpt lat="44.05685" lon="6.83739">
        <ele>1136</ele>
        <time>2020-06-05T08:39:44.000Z</time>
      </trkpt>
      <trkpt lat="44.05686" lon="6.83739">
        <ele>1136</ele>
        <time>2020-06-05T08:39:45.000Z</time>
      </trkpt>
      <trkpt lat="44.05687" lon="6.83738">
        <ele>1136</ele>
        <time>2020-06-05T08:39:46.000Z</time>
      </trkpt>
      <trkpt lat="44.05687" lon="6.83738">
        <ele>1136</ele>
        <time>2020-06-05T08:39:47.000Z</time>
      </trkpt>
      <trkpt lat="44.05688" lon="6.83737">
        <ele>1137</ele>
        <time>2020-06-05T08:39:48.000Z</time>
      </trkpt>
      <trkpt lat="44.05689" lon="6.83737">
        <ele>1137</ele>
        <time>2020-06-05T08:39:49.000Z</time>
      </trkpt>
      <trkpt lat="44.0569" lon="6.83736">
        <ele>1137</ele>
        <time>2020-06-05T08:39:50.000Z</time>
      </trkpt>
      <trkpt lat="44.0569" lon="6.83736">
        <ele>1137</ele>
        <time>2020-06-05T08:39:51.000Z</time>
      </trkpt>
      <trkpt lat="44.05691" lon="6.83735">
        <ele>1137</ele>
        <time>2020-06-05T08:39:52.000Z</time>
      </trkpt>
      <trkpt lat="44.05691" lon="6.83735">
        <ele>1137</ele>
        <time>2020-06-05T08:39:53.000Z</time>
      </trkpt>
      <trkpt lat="44.05692" lon="6.83734">
        <ele>1137</ele>
        <time>2020-06-05T08:39:54.000Z</time>
      </trkpt>
      <trkpt lat="44.05693" lon="6.83734">
        <ele>1138</ele>
        <time>2020-06-05T08:39:55.000Z</time>
      </trkpt>
      <trkpt lat="44.05693" lon="6.83734">
        <ele>1138</ele>
        <time>2020-06-05T08:39:56.000Z</time>
      </trkpt>
      <trkpt lat="44.05694" lon="6.83733">
        <ele>1138</ele>
        <time>2020-06-05T08:39:57.000Z</time>
      </trkpt>
      <trkpt lat="44.05694" lon="6.83732">
        <ele>1138</ele>
        <time>2020-06-05T08:39:58.000Z</time>
      </trkpt>
      <trkpt lat="44.05694" lon="6.83731">
        <ele>1138</ele>
        <time>2020-06-05T08:39:59.000Z</time>
      </trkpt>
      <trkpt lat="44.05694" lon="6.83731">
        <ele>1138</ele>
        <time>2020-06-05T08:40:00.000Z</time>
      </trkpt>
      <trkpt lat="44.05693" lon="6.8373">
        <ele>1138</ele>
        <time>2020-06-05T08:40:01.000Z</time>
      </trkpt>
      <trkpt lat="44.05693" lon="6.8373">
        <ele>1138</ele>
        <time>2020-06-05T08:40:02.000Z</time>
      </trkpt>
      <trkpt lat="44.05692" lon="6.8373">
        <ele>1138</ele>
        <time>2020-06-05T08:40:03.000Z</time>
      </trkpt>
      <trkpt lat="44.05691" lon="6.83729">
        <ele>1138</ele>
        <time>2020-06-05T08:40:04.000Z</time>
      </trkpt>
      <trkpt lat="44.05691" lon="6.83729">
        <ele>1138</ele>
        <time>2020-06-05T08:40:05.000Z</time>
      </trkpt>
      <trkpt lat="44.0569" lon="6.83729">
        <ele>1138</ele>
        <time>2020-06-05T08:40:06.000Z</time>
      </trkpt>
      <trkpt lat="44.05689" lon="6.83729">
        <ele>1138</ele>
        <time>2020-06-05T08:40:07.000Z</time>
      </trkpt>
      <trkpt lat="44.05688" lon="6.83729">
        <ele>1138</ele>
        <time>2020-06-05T08:40:08.000Z</time>
      </trkpt>
      <trkpt lat="44.05687" lon="6.83729">
        <ele>1138</ele>
        <time>2020-06-05T08:40:09.000Z</time>
      </trkpt>
      <trkpt lat="44.05686" lon="6.83729">
        <ele>1138</ele>
        <time>2020-06-05T08:40:10.000Z</time>
      </trkpt>
      <trkpt lat="44.05685" lon="6.83729">
        <ele>1139</ele>
        <time>2020-06-05T08:40:11.000Z</time>
      </trkpt>
      <trkpt lat="44.05685" lon="6.83728">
        <ele>1139</ele>
        <time>2020-06-05T08:40:12.000Z</time>
      </trkpt>
      <trkpt lat="44.05684" lon="6.83728">
        <ele>1139</ele>
        <time>2020-06-05T08:40:13.000Z</time>
      </trkpt>
      <trkpt lat="44.05683" lon="6.83728">
        <ele>1139</ele>
        <time>2020-06-05T08:40:14.000Z</time>
      </trkpt>
      <trkpt lat="44.05682" lon="6.83727">
        <ele>1139</ele>
        <time>2020-06-05T08:40:15.000Z</time>
      </trkpt>
      <trkpt lat="44.05682" lon="6.83727">
        <ele>1139</ele>
        <time>2020-06-05T08:40:16.000Z</time>
      </trkpt>
      <trkpt lat="44.05681" lon="6.83726">
        <ele>1140</ele>
        <time>2020-06-05T08:40:17.000Z</time>
      </trkpt>
      <trkpt lat="44.0568" lon="6.83726">
        <ele>1140</ele>
        <time>2020-06-05T08:40:18.000Z</time>
      </trkpt>
      <trkpt lat="44.05679" lon="6.83725">
        <ele>1140</ele>
        <time>2020-06-05T08:40:19.000Z</time>
      </trkpt>
      <trkpt lat="44.05679" lon="6.83725">
        <ele>1140</ele>
        <time>2020-06-05T08:40:20.000Z</time>
      </trkpt>
      <trkpt lat="44.05678" lon="6.83725">
        <ele>1140</ele>
        <time>2020-06-05T08:40:21.000Z</time>
      </trkpt>
      <trkpt lat="44.05677" lon="6.83725">
        <ele>1140</ele>
        <time>2020-06-05T08:40:22.000Z</time>
      </trkpt>
      <trkpt lat="44.05677" lon="6.83724">
        <ele>1140</ele>
        <time>2020-06-05T08:40:23.000Z</time>
      </trkpt>
      <trkpt lat="44.05676" lon="6.83724">
        <ele>1140</ele>
        <time>2020-06-05T08:40:24.000Z</time>
      </trkpt>
      <trkpt lat="44.05675" lon="6.83724">
        <ele>1141</ele>
        <time>2020-06-05T08:40:25.000Z</time>
      </trkpt>
      <trkpt lat="44.05674" lon="6.83723">
        <ele>1141</ele>
        <time>2020-06-05T08:40:26.000Z</time>
      </trkpt>
      <trkpt lat="44.05673" lon="6.83723">
        <ele>1141</ele>
        <time>2020-06-05T08:40:27.000Z</time>
      </trkpt>
      <trkpt lat="44.05673" lon="6.83723">
        <ele>1141</ele>
        <time>2020-06-05T08:40:28.000Z</time>
      </trkpt>
      <trkpt lat="44.05672" lon="6.83722">
        <ele>1141</ele>
        <time>2020-06-05T08:40:29.000Z</time>
      </trkpt>
      <trkpt lat="44.05671" lon="6.83722">
        <ele>1141</ele>
        <time>2020-06-05T08:40:30.000Z</time>
      </trkpt>
      <trkpt lat="44.05671" lon="6.83722">
        <ele>1141</ele>
        <time>2020-06-05T08:40:31.000Z</time>
      </trkpt>
      <trkpt lat="44.0567" lon="6.83722">
        <ele>1141</ele>
        <time>2020-06-05T08:40:32.000Z</time>
      </trkpt>
      <trkpt lat="44.05669" lon="6.83722">
        <ele>1141</ele>
        <time>2020-06-05T08:40:33.000Z</time>
      </trkpt>
      <trkpt lat="44.05668" lon="6.83722">
        <ele>1142</ele>
        <time>2020-06-05T08:40:34.000Z</time>
      </trkpt>
      <trkpt lat="44.05667" lon="6.83722">
        <ele>1142</ele>
        <time>2020-06-05T08:40:35.000Z</time>
      </trkpt>
      <trkpt lat="44.05666" lon="6.83721">
        <ele>1142</ele>
        <time>2020-06-05T08:40:36.000Z</time>
      </trkpt>
      <trkpt lat="44.05665" lon="6.83721">
        <ele>1142</ele>
        <time>2020-06-05T08:40:37.000Z</time>
      </trkpt>
      <trkpt lat="44.05665" lon="6.83721">
        <ele>1142</ele>
        <time>2020-06-05T08:40:38.000Z</time>
      </trkpt>
      <trkpt lat="44.05664" lon="6.8372">
        <ele>1142</ele>
        <time>2020-06-05T08:40:39.000Z</time>
      </trkpt>
      <trkpt lat="44.05663" lon="6.8372">
        <ele>1142</ele>
        <time>2020-06-05T08:40:40.000Z</time>
      </trkpt>
      <trkpt lat="44.05663" lon="6.83719">
        <ele>1143</ele>
        <time>2020-06-05T08:40:41.000Z</time>
      </trkpt>
      <trkpt lat="44.05662" lon="6.83719">
        <ele>1143</ele>
        <time>2020-06-05T08:40:42.000Z</time>
      </trkpt>
      <trkpt lat="44.05662" lon="6.83718">
        <ele>1143</ele>
        <time>2020-06-05T08:40:43.000Z</time>
      </trkpt>
      <trkpt lat="44.05661" lon="6.83718">
        <ele>1143</ele>
        <time>2020-06-05T08:40:44.000Z</time>
      </trkpt>
      <trkpt lat="44.05661" lon="6.83717">
        <ele>1143</ele>
        <time>2020-06-05T08:40:45.000Z</time>
      </trkpt>
      <trkpt lat="44.05661" lon="6.83716">
        <ele>1143</ele>
        <time>2020-06-05T08:40:46.000Z</time>
      </trkpt>
      <trkpt lat="44.05661" lon="6.83715">
        <ele>1143</ele>
        <time>2020-06-05T08:40:47.000Z</time>
      </trkpt>
      <trkpt lat="44.05662" lon="6.83714">
        <ele>1143</ele>
        <time>2020-06-05T08:40:48.000Z</time>
      </trkpt>
      <trkpt lat="44.05662" lon="6.83713">
        <ele>1144</ele>
        <time>2020-06-05T08:40:49.000Z</time>
      </trkpt>
      <trkpt lat="44.05663" lon="6.83713">
        <ele>1144</ele>
        <time>2020-06-05T08:40:50.000Z</time>
      </trkpt>
      <trkpt lat="44.05664" lon="6.83713">
        <ele>1144</ele>
        <time>2020-06-05T08:40:51.000Z</time>
      </trkpt>
      <trkpt lat="44.05664" lon="6.83712">
        <ele>1144</ele>
        <time>2020-06-05T08:40:52.000Z</time>
      </trkpt>
      <trkpt lat="44.05665" lon="6.83712">
        <ele>1144</ele>
        <time>2020-06-05T08:40:53.000Z</time>
      </trkpt>
      <trkpt lat="44.05665" lon="6.83711">
        <ele>1144</ele>
        <time>2020-06-05T08:40:54.000Z</time>
      </trkpt>
      <trkpt lat="44.05666" lon="6.83711">
        <ele>1144</ele>
        <time>2020-06-05T08:40:55.000Z</time>
      </trkpt>
      <trkpt lat="44.05666" lon="6.8371">
        <ele>1144</ele>
        <time>2020-06-05T08:40:56.000Z</time>
      </trkpt>
      <trkpt lat="44.05667" lon="6.8371">
        <ele>1144</ele>
        <time>2020-06-05T08:40:57.000Z</time>
      </trkpt>
      <trkpt lat="44.05667" lon="6.83709">
        <ele>1144</ele>
        <time>2020-06-05T08:40:58.000Z</time>
      </trkpt>
      <trkpt lat="44.05668" lon="6.83708">
        <ele>1144</ele>
        <time>2020-06-05T08:40:59.000Z</time>
      </trkpt>
      <trkpt lat="44.05668" lon="6.83707">
        <ele>1144</ele>
        <time>2020-06-05T08:41:00.000Z</time>
      </trkpt>
      <trkpt lat="44.05668" lon="6.83706">
        <ele>1144</ele>
        <time>2020-06-05T08:41:01.000Z</time>
      </trkpt>
      <trkpt lat="44.05669" lon="6.83705">
        <ele>1145</ele>
        <time>2020-06-05T08:41:02.000Z</time>
      </trkpt>
      <trkpt lat="44.05669" lon="6.83704">
        <ele>1145</ele>
        <time>2020-06-05T08:41:03.000Z</time>
      </trkpt>
      <trkpt lat="44.05669" lon="6.83703">
        <ele>1145</ele>
        <time>2020-06-05T08:41:04.000Z</time>
      </trkpt>
      <trkpt lat="44.0567" lon="6.83703">
        <ele>1145</ele>
        <time>2020-06-05T08:41:05.000Z</time>
      </trkpt>
      <trkpt lat="44.0567" lon="6.83702">
        <ele>1145</ele>
        <time>2020-06-05T08:41:06.000Z</time>
      </trkpt>
      <trkpt lat="44.0567" lon="6.83701">
        <ele>1145</ele>
        <time>2020-06-05T08:41:07.000Z</time>
      </trkpt>
      <trkpt lat="44.0567" lon="6.83699">
        <ele>1145</ele>
        <time>2020-06-05T08:41:08.000Z</time>
      </trkpt>
      <trkpt lat="44.05671" lon="6.83699">
        <ele>1145</ele>
        <time>2020-06-05T08:41:09.000Z</time>
      </trkpt>
      <trkpt lat="44.05671" lon="6.83698">
        <ele>1145</ele>
        <time>2020-06-05T08:41:10.000Z</time>
      </trkpt>
      <trkpt lat="44.05671" lon="6.83697">
        <ele>1145</ele>
        <time>2020-06-05T08:41:11.000Z</time>
      </trkpt>
      <trkpt lat="44.05671" lon="6.83697">
        <ele>1145</ele>
        <time>2020-06-05T08:41:12.000Z</time>
      </trkpt>
      <trkpt lat="44.05671" lon="6.83697">
        <ele>1145</ele>
        <time>2020-06-05T08:41:13.000Z</time>
      </trkpt>
      <trkpt lat="44.05671" lon="6.83697">
        <ele>1146</ele>
        <time>2020-06-05T08:41:14.000Z</time>
      </trkpt>
      <trkpt lat="44.05671" lon="6.83697">
        <ele>1146</ele>
        <time>2020-06-05T08:41:15.000Z</time>
      </trkpt>
      <trkpt lat="44.05671" lon="6.83697">
        <ele>1146</ele>
        <time>2020-06-05T08:41:16.000Z</time>
      </trkpt>
      <trkpt lat="44.05671" lon="6.83697">
        <ele>1146</ele>
        <time>2020-06-05T08:41:17.000Z</time>
      </trkpt>
      <trkpt lat="44.05671" lon="6.83697">
        <ele>1146</ele>
        <time>2020-06-05T08:41:18.000Z</time>
      </trkpt>
      <trkpt lat="44.05671" lon="6.83697">
        <ele>1146</ele>
        <time>2020-06-05T08:41:19.000Z</time>
      </trkpt>
      <trkpt lat="44.05671" lon="6.83697">
        <ele>1146</ele>
        <time>2020-06-05T08:41:20.000Z</time>
      </trkpt>
      <trkpt lat="44.05671" lon="6.83697">
        <ele>1146</ele>
        <time>2020-06-05T08:41:21.000Z</time>
      </trkpt>
      <trkpt lat="44.05671" lon="6.83696">
        <ele>1146</ele>
        <time>2020-06-05T08:41:22.000Z</time>
      </trkpt>
      <trkpt lat="44.05671" lon="6.83696">
        <ele>1146</ele>
        <time>2020-06-05T08:41:23.000Z</time>
      </trkpt>
      <trkpt lat="44.05671" lon="6.83696">
        <ele>1146</ele>
        <time>2020-06-05T08:41:24.000Z</time>
      </trkpt>
      <trkpt lat="44.05671" lon="6.83696">
        <ele>1146</ele>
        <time>2020-06-05T08:41:25.000Z</time>
      </trkpt>
      <trkpt lat="44.05671" lon="6.83696">
        <ele>1146</ele>
        <time>2020-06-05T08:41:26.000Z</time>
      </trkpt>
      <trkpt lat="44.05671" lon="6.83696">
        <ele>1146</ele>
        <time>2020-06-05T08:41:27.000Z</time>
      </trkpt>
      <trkpt lat="44.05672" lon="6.83695">
        <ele>1146</ele>
        <time>2020-06-05T08:41:28.000Z</time>
      </trkpt>
      <trkpt lat="44.05672" lon="6.83694">
        <ele>1147</ele>
        <time>2020-06-05T08:41:29.000Z</time>
      </trkpt>
      <trkpt lat="44.05672" lon="6.83693">
        <ele>1147</ele>
        <time>2020-06-05T08:41:30.000Z</time>
      </trkpt>
      <trkpt lat="44.05673" lon="6.83692">
        <ele>1147</ele>
        <time>2020-06-05T08:41:31.000Z</time>
      </trkpt>
      <trkpt lat="44.05674" lon="6.83692">
        <ele>1147</ele>
        <time>2020-06-05T08:41:32.000Z</time>
      </trkpt>
      <trkpt lat="44.05675" lon="6.83691">
        <ele>1147</ele>
        <time>2020-06-05T08:41:33.000Z</time>
      </trkpt>
      <trkpt lat="44.05675" lon="6.83691">
        <ele>1147</ele>
        <time>2020-06-05T08:41:34.000Z</time>
      </trkpt>
      <trkpt lat="44.05676" lon="6.8369">
        <ele>1147</ele>
        <time>2020-06-05T08:41:35.000Z</time>
      </trkpt>
      <trkpt lat="44.05677" lon="6.83689">
        <ele>1147</ele>
        <time>2020-06-05T08:41:36.000Z</time>
      </trkpt>
      <trkpt lat="44.05677" lon="6.83688">
        <ele>1147</ele>
        <time>2020-06-05T08:41:37.000Z</time>
      </trkpt>
      <trkpt lat="44.05678" lon="6.83688">
        <ele>1148</ele>
        <time>2020-06-05T08:41:38.000Z</time>
      </trkpt>
      <trkpt lat="44.05678" lon="6.83687">
        <ele>1148</ele>
        <time>2020-06-05T08:41:39.000Z</time>
      </trkpt>
      <trkpt lat="44.05679" lon="6.83686">
        <ele>1148</ele>
        <time>2020-06-05T08:41:40.000Z</time>
      </trkpt>
      <trkpt lat="44.05679" lon="6.83685">
        <ele>1148</ele>
        <time>2020-06-05T08:41:41.000Z</time>
      </trkpt>
      <trkpt lat="44.0568" lon="6.83684">
        <ele>1148</ele>
        <time>2020-06-05T08:41:42.000Z</time>
      </trkpt>
      <trkpt lat="44.0568" lon="6.83684">
        <ele>1148</ele>
        <time>2020-06-05T08:41:43.000Z</time>
      </trkpt>
      <trkpt lat="44.0568" lon="6.83683">
        <ele>1148</ele>
        <time>2020-06-05T08:41:44.000Z</time>
      </trkpt>
      <trkpt lat="44.0568" lon="6.83682">
        <ele>1148</ele>
        <time>2020-06-05T08:41:45.000Z</time>
      </trkpt>
      <trkpt lat="44.0568" lon="6.83682">
        <ele>1148</ele>
        <time>2020-06-05T08:41:46.000Z</time>
      </trkpt>
      <trkpt lat="44.0568" lon="6.83681">
        <ele>1149</ele>
        <time>2020-06-05T08:41:47.000Z</time>
      </trkpt>
      <trkpt lat="44.0568" lon="6.8368">
        <ele>1149</ele>
        <time>2020-06-05T08:41:48.000Z</time>
      </trkpt>
      <trkpt lat="44.05679" lon="6.8368">
        <ele>1149</ele>
        <time>2020-06-05T08:41:49.000Z</time>
      </trkpt>
      <trkpt lat="44.05679" lon="6.83679">
        <ele>1149</ele>
        <time>2020-06-05T08:41:50.000Z</time>
      </trkpt>
      <trkpt lat="44.05678" lon="6.83679">
        <ele>1149</ele>
        <time>2020-06-05T08:41:51.000Z</time>
      </trkpt>
      <trkpt lat="44.05677" lon="6.83678">
        <ele>1149</ele>
        <time>2020-06-05T08:41:52.000Z</time>
      </trkpt>
      <trkpt lat="44.05677" lon="6.83678">
        <ele>1150</ele>
        <time>2020-06-05T08:41:53.000Z</time>
      </trkpt>
      <trkpt lat="44.05676" lon="6.83678">
        <ele>1150</ele>
        <time>2020-06-05T08:41:54.000Z</time>
      </trkpt>
      <trkpt lat="44.05675" lon="6.83678">
        <ele>1150</ele>
        <time>2020-06-05T08:41:55.000Z</time>
      </trkpt>
      <trkpt lat="44.05674" lon="6.83678">
        <ele>1150</ele>
        <time>2020-06-05T08:41:56.000Z</time>
      </trkpt>
      <trkpt lat="44.05674" lon="6.83677">
        <ele>1150</ele>
        <time>2020-06-05T08:41:57.000Z</time>
      </trkpt>
      <trkpt lat="44.05673" lon="6.83677">
        <ele>1150</ele>
        <time>2020-06-05T08:41:58.000Z</time>
      </trkpt>
      <trkpt lat="44.05672" lon="6.83677">
        <ele>1150</ele>
        <time>2020-06-05T08:41:59.000Z</time>
      </trkpt>
      <trkpt lat="44.05672" lon="6.83676">
        <ele>1151</ele>
        <time>2020-06-05T08:42:00.000Z</time>
      </trkpt>
      <trkpt lat="44.05671" lon="6.83676">
        <ele>1151</ele>
        <time>2020-06-05T08:42:01.000Z</time>
      </trkpt>
      <trkpt lat="44.0567" lon="6.83676">
        <ele>1151</ele>
        <time>2020-06-05T08:42:02.000Z</time>
      </trkpt>
      <trkpt lat="44.0567" lon="6.83676">
        <ele>1151</ele>
        <time>2020-06-05T08:42:03.000Z</time>
      </trkpt>
      <trkpt lat="44.05669" lon="6.83675">
        <ele>1151</ele>
        <time>2020-06-05T08:42:04.000Z</time>
      </trkpt>
      <trkpt lat="44.05668" lon="6.83675">
        <ele>1151</ele>
        <time>2020-06-05T08:42:05.000Z</time>
      </trkpt>
      <trkpt lat="44.05668" lon="6.83675">
        <ele>1151</ele>
        <time>2020-06-05T08:42:06.000Z</time>
      </trkpt>
      <trkpt lat="44.05667" lon="6.83675">
        <ele>1151</ele>
        <time>2020-06-05T08:42:07.000Z</time>
      </trkpt>
      <trkpt lat="44.05666" lon="6.83675">
        <ele>1151</ele>
        <time>2020-06-05T08:42:08.000Z</time>
      </trkpt>
      <trkpt lat="44.05666" lon="6.83675">
        <ele>1151</ele>
        <time>2020-06-05T08:42:09.000Z</time>
      </trkpt>
      <trkpt lat="44.05665" lon="6.83674">
        <ele>1151</ele>
        <time>2020-06-05T08:42:10.000Z</time>
      </trkpt>
      <trkpt lat="44.05665" lon="6.83674">
        <ele>1152</ele>
        <time>2020-06-05T08:42:11.000Z</time>
      </trkpt>
      <trkpt lat="44.05664" lon="6.83673">
        <ele>1152</ele>
        <time>2020-06-05T08:42:12.000Z</time>
      </trkpt>
      <trkpt lat="44.05664" lon="6.83673">
        <ele>1152</ele>
        <time>2020-06-05T08:42:13.000Z</time>
      </trkpt>
      <trkpt lat="44.05663" lon="6.83672">
        <ele>1152</ele>
        <time>2020-06-05T08:42:14.000Z</time>
      </trkpt>
      <trkpt lat="44.05663" lon="6.83671">
        <ele>1152</ele>
        <time>2020-06-05T08:42:15.000Z</time>
      </trkpt>
      <trkpt lat="44.05663" lon="6.83671">
        <ele>1152</ele>
        <time>2020-06-05T08:42:16.000Z</time>
      </trkpt>
      <trkpt lat="44.05663" lon="6.8367">
        <ele>1152</ele>
        <time>2020-06-05T08:42:17.000Z</time>
      </trkpt>
      <trkpt lat="44.05663" lon="6.83669">
        <ele>1153</ele>
        <time>2020-06-05T08:42:18.000Z</time>
      </trkpt>
      <trkpt lat="44.05663" lon="6.83668">
        <ele>1153</ele>
        <time>2020-06-05T08:42:19.000Z</time>
      </trkpt>
      <trkpt lat="44.05663" lon="6.83668">
        <ele>1153</ele>
        <time>2020-06-05T08:42:20.000Z</time>
      </trkpt>
      <trkpt lat="44.05663" lon="6.83667">
        <ele>1153</ele>
        <time>2020-06-05T08:42:21.000Z</time>
      </trkpt>
      <trkpt lat="44.05664" lon="6.83667">
        <ele>1153</ele>
        <time>2020-06-05T08:42:22.000Z</time>
      </trkpt>
      <trkpt lat="44.05664" lon="6.83666">
        <ele>1153</ele>
        <time>2020-06-05T08:42:23.000Z</time>
      </trkpt>
      <trkpt lat="44.05664" lon="6.83665">
        <ele>1154</ele>
        <time>2020-06-05T08:42:24.000Z</time>
      </trkpt>
      <trkpt lat="44.05663" lon="6.83665">
        <ele>1154</ele>
        <time>2020-06-05T08:42:25.000Z</time>
      </trkpt>
      <trkpt lat="44.05663" lon="6.83664">
        <ele>1154</ele>
        <time>2020-06-05T08:42:26.000Z</time>
      </trkpt>
      <trkpt lat="44.05663" lon="6.83663">
        <ele>1154</ele>
        <time>2020-06-05T08:42:27.000Z</time>
      </trkpt>
      <trkpt lat="44.05663" lon="6.83662">
        <ele>1154</ele>
        <time>2020-06-05T08:42:28.000Z</time>
      </trkpt>
      <trkpt lat="44.05662" lon="6.83661">
        <ele>1154</ele>
        <time>2020-06-05T08:42:29.000Z</time>
      </trkpt>
      <trkpt lat="44.05662" lon="6.8366">
        <ele>1154</ele>
        <time>2020-06-05T08:42:30.000Z</time>
      </trkpt>
      <trkpt lat="44.05662" lon="6.8366">
        <ele>1154</ele>
        <time>2020-06-05T08:42:31.000Z</time>
      </trkpt>
      <trkpt lat="44.05661" lon="6.83659">
        <ele>1154</ele>
        <time>2020-06-05T08:42:32.000Z</time>
      </trkpt>
      <trkpt lat="44.05661" lon="6.83659">
        <ele>1154</ele>
        <time>2020-06-05T08:42:33.000Z</time>
      </trkpt>
      <trkpt lat="44.05661" lon="6.83658">
        <ele>1154</ele>
        <time>2020-06-05T08:42:34.000Z</time>
      </trkpt>
      <trkpt lat="44.05661" lon="6.83657">
        <ele>1154</ele>
        <time>2020-06-05T08:42:35.000Z</time>
      </trkpt>
      <trkpt lat="44.0566" lon="6.83656">
        <ele>1154</ele>
        <time>2020-06-05T08:42:36.000Z</time>
      </trkpt>
      <trkpt lat="44.0566" lon="6.83656">
        <ele>1154</ele>
        <time>2020-06-05T08:42:37.000Z</time>
      </trkpt>
      <trkpt lat="44.0566" lon="6.83655">
        <ele>1155</ele>
        <time>2020-06-05T08:42:38.000Z</time>
      </trkpt>
      <trkpt lat="44.0566" lon="6.83654">
        <ele>1155</ele>
        <time>2020-06-05T08:42:39.000Z</time>
      </trkpt>
      <trkpt lat="44.0566" lon="6.83654">
        <ele>1155</ele>
        <time>2020-06-05T08:42:40.000Z</time>
      </trkpt>
      <trkpt lat="44.0566" lon="6.83654">
        <ele>1155</ele>
        <time>2020-06-05T08:42:41.000Z</time>
      </trkpt>
      <trkpt lat="44.0566" lon="6.83653">
        <ele>1155</ele>
        <time>2020-06-05T08:42:42.000Z</time>
      </trkpt>
      <trkpt lat="44.05659" lon="6.83653">
        <ele>1155</ele>
        <time>2020-06-05T08:42:43.000Z</time>
      </trkpt>
      <trkpt lat="44.05659" lon="6.83653">
        <ele>1155</ele>
        <time>2020-06-05T08:42:44.000Z</time>
      </trkpt>
      <trkpt lat="44.05659" lon="6.83653">
        <ele>1155</ele>
        <time>2020-06-05T08:42:45.000Z</time>
      </trkpt>
      <trkpt lat="44.05659" lon="6.83653">
        <ele>1155</ele>
        <time>2020-06-05T08:42:46.000Z</time>
      </trkpt>
      <trkpt lat="44.05659" lon="6.83653">
        <ele>1155</ele>
        <time>2020-06-05T08:42:47.000Z</time>
      </trkpt>
      <trkpt lat="44.05659" lon="6.83653">
        <ele>1155</ele>
        <time>2020-06-05T08:42:48.000Z</time>
      </trkpt>
      <trkpt lat="44.05659" lon="6.83653">
        <ele>1155</ele>
        <time>2020-06-05T08:42:49.000Z</time>
      </trkpt>
      <trkpt lat="44.05659" lon="6.83653">
        <ele>1155</ele>
        <time>2020-06-05T08:42:50.000Z</time>
      </trkpt>
      <trkpt lat="44.05659" lon="6.83653">
        <ele>1155</ele>
        <time>2020-06-05T08:42:51.000Z</time>
      </trkpt>
      <trkpt lat="44.0566" lon="6.83653">
        <ele>1155</ele>
        <time>2020-06-05T08:42:52.000Z</time>
      </trkpt>
      <trkpt lat="44.0566" lon="6.83653">
        <ele>1155</ele>
        <time>2020-06-05T08:42:53.000Z</time>
      </trkpt>
      <trkpt lat="44.0566" lon="6.83653">
        <ele>1155</ele>
        <time>2020-06-05T08:42:54.000Z</time>
      </trkpt>
      <trkpt lat="44.0566" lon="6.83653">
        <ele>1155</ele>
        <time>2020-06-05T08:42:55.000Z</time>
      </trkpt>
      <trkpt lat="44.0566" lon="6.83653">
        <ele>1155</ele>
        <time>2020-06-05T08:42:56.000Z</time>
      </trkpt>
      <trkpt lat="44.0566" lon="6.83653">
        <ele>1155</ele>
        <time>2020-06-05T08:42:57.000Z</time>
      </trkpt>
      <trkpt lat="44.05659" lon="6.83653">
        <ele>1155</ele>
        <time>2020-06-05T08:42:58.000Z</time>
      </trkpt>
      <trkpt lat="44.05659" lon="6.83653">
        <ele>1155</ele>
        <time>2020-06-05T08:42:59.000Z</time>
      </trkpt>
      <trkpt lat="44.05659" lon="6.83653">
        <ele>1155</ele>
        <time>2020-06-05T08:43:00.000Z</time>
      </trkpt>
      <trkpt lat="44.05659" lon="6.83653">
        <ele>1155</ele>
        <time>2020-06-05T08:43:01.000Z</time>
      </trkpt>
      <trkpt lat="44.05659" lon="6.83653">
        <ele>1155</ele>
        <time>2020-06-05T08:43:02.000Z</time>
      </trkpt>
      <trkpt lat="44.05659" lon="6.83653">
        <ele>1155</ele>
        <time>2020-06-05T08:43:03.000Z</time>
      </trkpt>
      <trkpt lat="44.05659" lon="6.83653">
        <ele>1155</ele>
        <time>2020-06-05T08:43:04.000Z</time>
      </trkpt>
      <trkpt lat="44.05659" lon="6.83653">
        <ele>1155</ele>
        <time>2020-06-05T08:43:05.000Z</time>
      </trkpt>
      <trkpt lat="44.05659" lon="6.83653">
        <ele>1156</ele>
        <time>2020-06-05T08:43:06.000Z</time>
      </trkpt>
      <trkpt lat="44.0566" lon="6.83653">
        <ele>1156</ele>
        <time>2020-06-05T08:43:07.000Z</time>
      </trkpt>
      <trkpt lat="44.0566" lon="6.83653">
        <ele>1156</ele>
        <time>2020-06-05T08:43:08.000Z</time>
      </trkpt>
      <trkpt lat="44.05659" lon="6.83653">
        <ele>1156</ele>
        <time>2020-06-05T08:43:09.000Z</time>
      </trkpt>
      <trkpt lat="44.05659" lon="6.83653">
        <ele>1156</ele>
        <time>2020-06-05T08:43:10.000Z</time>
      </trkpt>
      <trkpt lat="44.05659" lon="6.83653">
        <ele>1156</ele>
        <time>2020-06-05T08:43:11.000Z</time>
      </trkpt>
      <trkpt lat="44.05659" lon="6.83653">
        <ele>1156</ele>
        <time>2020-06-05T08:43:12.000Z</time>
      </trkpt>
      <trkpt lat="44.05659" lon="6.83653">
        <ele>1156</ele>
        <time>2020-06-05T08:43:13.000Z</time>
      </trkpt>
      <trkpt lat="44.05659" lon="6.83653">
        <ele>1156</ele>
        <time>2020-06-05T08:43:14.000Z</time>
      </trkpt>
      <trkpt lat="44.05659" lon="6.83653">
        <ele>1156</ele>
        <time>2020-06-05T08:43:15.000Z</time>
      </trkpt>
      <trkpt lat="44.05659" lon="6.83653">
        <ele>1156</ele>
        <time>2020-06-05T08:43:16.000Z</time>
      </trkpt>
      <trkpt lat="44.05659" lon="6.83653">
        <ele>1156</ele>
        <time>2020-06-05T08:43:17.000Z</time>
      </trkpt>
      <trkpt lat="44.05658" lon="6.83653">
        <ele>1156</ele>
        <time>2020-06-05T08:43:18.000Z</time>
      </trkpt>
      <trkpt lat="44.05658" lon="6.83653">
        <ele>1156</ele>
        <time>2020-06-05T08:43:19.000Z</time>
      </trkpt>
      <trkpt lat="44.05657" lon="6.83653">
        <ele>1156</ele>
        <time>2020-06-05T08:43:20.000Z</time>
      </trkpt>
      <trkpt lat="44.05657" lon="6.83653">
        <ele>1156</ele>
        <time>2020-06-05T08:43:21.000Z</time>
      </trkpt>
      <trkpt lat="44.05656" lon="6.83653">
        <ele>1156</ele>
        <time>2020-06-05T08:43:22.000Z</time>
      </trkpt>
      <trkpt lat="44.05655" lon="6.83653">
        <ele>1156</ele>
        <time>2020-06-05T08:43:23.000Z</time>
      </trkpt>
      <trkpt lat="44.05655" lon="6.83653">
        <ele>1156</ele>
        <time>2020-06-05T08:43:24.000Z</time>
      </trkpt>
      <trkpt lat="44.05655" lon="6.83653">
        <ele>1156</ele>
        <time>2020-06-05T08:43:25.000Z</time>
      </trkpt>
      <trkpt lat="44.05655" lon="6.83653">
        <ele>1156</ele>
        <time>2020-06-05T08:43:26.000Z</time>
      </trkpt>
      <trkpt lat="44.05655" lon="6.83653">
        <ele>1156</ele>
        <time>2020-06-05T08:43:27.000Z</time>
      </trkpt>
      <trkpt lat="44.05655" lon="6.83653">
        <ele>1157</ele>
        <time>2020-06-05T08:43:28.000Z</time>
      </trkpt>
      <trkpt lat="44.05655" lon="6.83653">
        <ele>1157</ele>
        <time>2020-06-05T08:43:29.000Z</time>
      </trkpt>
      <trkpt lat="44.05655" lon="6.83653">
        <ele>1157</ele>
        <time>2020-06-05T08:43:30.000Z</time>
      </trkpt>
      <trkpt lat="44.05655" lon="6.83653">
        <ele>1157</ele>
        <time>2020-06-05T08:43:31.000Z</time>
      </trkpt>
      <trkpt lat="44.05655" lon="6.83653">
        <ele>1157</ele>
        <time>2020-06-05T08:43:32.000Z</time>
      </trkpt>
      <trkpt lat="44.05655" lon="6.83654">
        <ele>1157</ele>
        <time>2020-06-05T08:43:33.000Z</time>
      </trkpt>
      <trkpt lat="44.05655" lon="6.83654">
        <ele>1157</ele>
        <time>2020-06-05T08:43:34.000Z</time>
      </trkpt>
      <trkpt lat="44.05655" lon="6.83654">
        <ele>1157</ele>
        <time>2020-06-05T08:43:35.000Z</time>
      </trkpt>
      <trkpt lat="44.05655" lon="6.83654">
        <ele>1157</ele>
        <time>2020-06-05T08:43:36.000Z</time>
      </trkpt>
      <trkpt lat="44.05655" lon="6.83654">
        <ele>1157</ele>
        <time>2020-06-05T08:43:37.000Z</time>
      </trkpt>
      <trkpt lat="44.05655" lon="6.83654">
        <ele>1157</ele>
        <time>2020-06-05T08:43:38.000Z</time>
      </trkpt>
      <trkpt lat="44.05655" lon="6.83654">
        <ele>1157</ele>
        <time>2020-06-05T08:43:39.000Z</time>
      </trkpt>
      <trkpt lat="44.05655" lon="6.83654">
        <ele>1157</ele>
        <time>2020-06-05T08:43:40.000Z</time>
      </trkpt>
      <trkpt lat="44.05654" lon="6.83654">
        <ele>1157</ele>
        <time>2020-06-05T08:43:41.000Z</time>
      </trkpt>
      <trkpt lat="44.05654" lon="6.83654">
        <ele>1157</ele>
        <time>2020-06-05T08:43:42.000Z</time>
      </trkpt>
      <trkpt lat="44.05654" lon="6.83654">
        <ele>1157</ele>
        <time>2020-06-05T08:43:43.000Z</time>
      </trkpt>
      <trkpt lat="44.05655" lon="6.83655">
        <ele>1157</ele>
        <time>2020-06-05T08:43:44.000Z</time>
      </trkpt>
      <trkpt lat="44.05655" lon="6.83655">
        <ele>1157</ele>
        <time>2020-06-05T08:43:45.000Z</time>
      </trkpt>
      <trkpt lat="44.05654" lon="6.83655">
        <ele>1157</ele>
        <time>2020-06-05T08:43:46.000Z</time>
      </trkpt>
      <trkpt lat="44.05655" lon="6.83655">
        <ele>1158</ele>
        <time>2020-06-05T08:43:47.000Z</time>
      </trkpt>
      <trkpt lat="44.05654" lon="6.83655">
        <ele>1158</ele>
        <time>2020-06-05T08:43:48.000Z</time>
      </trkpt>
      <trkpt lat="44.05655" lon="6.83655">
        <ele>1158</ele>
        <time>2020-06-05T08:43:49.000Z</time>
      </trkpt>
      <trkpt lat="44.05655" lon="6.83655">
        <ele>1158</ele>
        <time>2020-06-05T08:43:50.000Z</time>
      </trkpt>
      <trkpt lat="44.05655" lon="6.83655">
        <ele>1158</ele>
        <time>2020-06-05T08:43:51.000Z</time>
      </trkpt>
      <trkpt lat="44.05655" lon="6.83655">
        <ele>1158</ele>
        <time>2020-06-05T08:43:52.000Z</time>
      </trkpt>
      <trkpt lat="44.05655" lon="6.83654">
        <ele>1158</ele>
        <time>2020-06-05T08:43:53.000Z</time>
      </trkpt>
      <trkpt lat="44.05654" lon="6.83654">
        <ele>1158</ele>
        <time>2020-06-05T08:43:54.000Z</time>
      </trkpt>
      <trkpt lat="44.05654" lon="6.83654">
        <ele>1158</ele>
        <time>2020-06-05T08:43:55.000Z</time>
      </trkpt>
      <trkpt lat="44.05654" lon="6.83654">
        <ele>1158</ele>
        <time>2020-06-05T08:43:56.000Z</time>
      </trkpt>
      <trkpt lat="44.05655" lon="6.83654">
        <ele>1158</ele>
        <time>2020-06-05T08:43:57.000Z</time>
      </trkpt>
      <trkpt lat="44.05655" lon="6.83654">
        <ele>1158</ele>
        <time>2020-06-05T08:43:58.000Z</time>
      </trkpt>
      <trkpt lat="44.05655" lon="6.83654">
        <ele>1158</ele>
        <time>2020-06-05T08:43:59.000Z</time>
      </trkpt>
      <trkpt lat="44.05655" lon="6.83654">
        <ele>1158</ele>
        <time>2020-06-05T08:44:00.000Z</time>
      </trkpt>
      <trkpt lat="44.05655" lon="6.83654">
        <ele>1158</ele>
        <time>2020-06-05T08:44:01.000Z</time>
      </trkpt>
      <trkpt lat="44.05655" lon="6.83654">
        <ele>1158</ele>
        <time>2020-06-05T08:44:02.000Z</time>
      </trkpt>
      <trkpt lat="44.05655" lon="6.83654">
        <ele>1158</ele>
        <time>2020-06-05T08:44:03.000Z</time>
      </trkpt>
      <trkpt lat="44.05655" lon="6.83654">
        <ele>1158</ele>
        <time>2020-06-05T08:44:04.000Z</time>
      </trkpt>
      <trkpt lat="44.05655" lon="6.83654">
        <ele>1158</ele>
        <time>2020-06-05T08:44:05.000Z</time>
      </trkpt>
      <trkpt lat="44.05655" lon="6.83654">
        <ele>1158</ele>
        <time>2020-06-05T08:44:06.000Z</time>
      </trkpt>
      <trkpt lat="44.05655" lon="6.83654">
        <ele>1158</ele>
        <time>2020-06-05T08:44:07.000Z</time>
      </trkpt>
      <trkpt lat="44.05655" lon="6.83654">
        <ele>1158</ele>
        <time>2020-06-05T08:44:08.000Z</time>
      </trkpt>
      <trkpt lat="44.05655" lon="6.83654">
        <ele>1159</ele>
        <time>2020-06-05T08:44:09.000Z</time>
      </trkpt>
      <trkpt lat="44.05655" lon="6.83654">
        <ele>1159</ele>
        <time>2020-06-05T08:44:10.000Z</time>
      </trkpt>
      <trkpt lat="44.05655" lon="6.83654">
        <ele>1159</ele>
        <time>2020-06-05T08:44:11.000Z</time>
      </trkpt>
      <trkpt lat="44.05655" lon="6.83654">
        <ele>1159</ele>
        <time>2020-06-05T08:44:12.000Z</time>
      </trkpt>
      <trkpt lat="44.05655" lon="6.83654">
        <ele>1159</ele>
        <time>2020-06-05T08:44:13.000Z</time>
      </trkpt>
      <trkpt lat="44.05655" lon="6.83654">
        <ele>1159</ele>
        <time>2020-06-05T08:44:14.000Z</time>
      </trkpt>
      <trkpt lat="44.05655" lon="6.83654">
        <ele>1159</ele>
        <time>2020-06-05T08:44:15.000Z</time>
      </trkpt>
      <trkpt lat="44.05655" lon="6.83654">
        <ele>1159</ele>
        <time>2020-06-05T08:44:16.000Z</time>
      </trkpt>
      <trkpt lat="44.05655" lon="6.83654">
        <ele>1159</ele>
        <time>2020-06-05T08:44:17.000Z</time>
      </trkpt>
      <trkpt lat="44.05656" lon="6.83653">
        <ele>1159</ele>
        <time>2020-06-05T08:44:18.000Z</time>
      </trkpt>
      <trkpt lat="44.05656" lon="6.83653">
        <ele>1159</ele>
        <time>2020-06-05T08:44:19.000Z</time>
      </trkpt>
      <trkpt lat="44.05656" lon="6.83653">
        <ele>1159</ele>
        <time>2020-06-05T08:44:20.000Z</time>
      </trkpt>
      <trkpt lat="44.05656" lon="6.83653">
        <ele>1159</ele>
        <time>2020-06-05T08:44:21.000Z</time>
      </trkpt>
      <trkpt lat="44.05656" lon="6.83653">
        <ele>1159</ele>
        <time>2020-06-05T08:44:22.000Z</time>
      </trkpt>
      <trkpt lat="44.05656" lon="6.83653">
        <ele>1159</ele>
        <time>2020-06-05T08:44:23.000Z</time>
      </trkpt>
      <trkpt lat="44.05656" lon="6.83653">
        <ele>1159</ele>
        <time>2020-06-05T08:44:24.000Z</time>
      </trkpt>
      <trkpt lat="44.05656" lon="6.83653">
        <ele>1159</ele>
        <time>2020-06-05T08:44:25.000Z</time>
      </trkpt>
      <trkpt lat="44.05656" lon="6.83653">
        <ele>1159</ele>
        <time>2020-06-05T08:44:26.000Z</time>
      </trkpt>
      <trkpt lat="44.05656" lon="6.83653">
        <ele>1159</ele>
        <time>2020-06-05T08:44:27.000Z</time>
      </trkpt>
      <trkpt lat="44.05656" lon="6.83653">
        <ele>1159</ele>
        <time>2020-06-05T08:44:28.000Z</time>
      </trkpt>
      <trkpt lat="44.05656" lon="6.83653">
        <ele>1159</ele>
        <time>2020-06-05T08:44:29.000Z</time>
      </trkpt>
      <trkpt lat="44.05656" lon="6.83653">
        <ele>1159</ele>
        <time>2020-06-05T08:44:30.000Z</time>
      </trkpt>
      <trkpt lat="44.05656" lon="6.83653">
        <ele>1159</ele>
        <time>2020-06-05T08:44:31.000Z</time>
      </trkpt>
      <trkpt lat="44.05656" lon="6.83653">
        <ele>1159</ele>
        <time>2020-06-05T08:44:32.000Z</time>
      </trkpt>
      <trkpt lat="44.05656" lon="6.83653">
        <ele>1159</ele>
        <time>2020-06-05T08:44:33.000Z</time>
      </trkpt>
      <trkpt lat="44.05656" lon="6.83653">
        <ele>1159</ele>
        <time>2020-06-05T08:44:34.000Z</time>
      </trkpt>
      <trkpt lat="44.05656" lon="6.83653">
        <ele>1159</ele>
        <time>2020-06-05T08:44:35.000Z</time>
      </trkpt>
      <trkpt lat="44.05656" lon="6.83653">
        <ele>1159</ele>
        <time>2020-06-05T08:44:36.000Z</time>
      </trkpt>
      <trkpt lat="44.05656" lon="6.83653">
        <ele>1159</ele>
        <time>2020-06-05T08:44:37.000Z</time>
      </trkpt>
      <trkpt lat="44.05656" lon="6.83653">
        <ele>1159</ele>
        <time>2020-06-05T08:44:38.000Z</time>
      </trkpt>
      <trkpt lat="44.05656" lon="6.83653">
        <ele>1159</ele>
        <time>2020-06-05T08:44:39.000Z</time>
      </trkpt>
      <trkpt lat="44.05656" lon="6.83653">
        <ele>1159</ele>
        <time>2020-06-05T08:44:40.000Z</time>
      </trkpt>
      <trkpt lat="44.05656" lon="6.83653">
        <ele>1159</ele>
        <time>2020-06-05T08:44:41.000Z</time>
      </trkpt>
      <trkpt lat="44.05656" lon="6.83653">
        <ele>1159</ele>
        <time>2020-06-05T08:44:42.000Z</time>
      </trkpt>
      <trkpt lat="44.05656" lon="6.83653">
        <ele>1159</ele>
        <time>2020-06-05T08:44:43.000Z</time>
      </trkpt>
      <trkpt lat="44.05656" lon="6.83653">
        <ele>1159</ele>
        <time>2020-06-05T08:44:44.000Z</time>
      </trkpt>
      <trkpt lat="44.05656" lon="6.83653">
        <ele>1159</ele>
        <time>2020-06-05T08:44:45.000Z</time>
      </trkpt>
      <trkpt lat="44.05656" lon="6.83653">
        <ele>1159</ele>
        <time>2020-06-05T08:44:46.000Z</time>
      </trkpt>
      <trkpt lat="44.05656" lon="6.83653">
        <ele>1159</ele>
        <time>2020-06-05T08:44:47.000Z</time>
      </trkpt>
      <trkpt lat="44.05656" lon="6.83653">
        <ele>1159</ele>
        <time>2020-06-05T08:44:48.000Z</time>
      </trkpt>
      <trkpt lat="44.05656" lon="6.83653">
        <ele>1159</ele>
        <time>2020-06-05T08:44:49.000Z</time>
      </trkpt>
      <trkpt lat="44.05656" lon="6.83652">
        <ele>1159</ele>
        <time>2020-06-05T08:44:50.000Z</time>
      </trkpt>
      <trkpt lat="44.05656" lon="6.83652">
        <ele>1159</ele>
        <time>2020-06-05T08:44:51.000Z</time>
      </trkpt>
      <trkpt lat="44.05656" lon="6.83652">
        <ele>1159</ele>
        <time>2020-06-05T08:44:52.000Z</time>
      </trkpt>
      <trkpt lat="44.05656" lon="6.83652">
        <ele>1159</ele>
        <time>2020-06-05T08:44:53.000Z</time>
      </trkpt>
      <trkpt lat="44.05656" lon="6.83652">
        <ele>1159</ele>
        <time>2020-06-05T08:44:54.000Z</time>
      </trkpt>
      <trkpt lat="44.05656" lon="6.83652">
        <ele>1159</ele>
        <time>2020-06-05T08:44:55.000Z</time>
      </trkpt>
      <trkpt lat="44.05656" lon="6.83652">
        <ele>1159</ele>
        <time>2020-06-05T08:44:56.000Z</time>
      </trkpt>
      <trkpt lat="44.05656" lon="6.83652">
        <ele>1159</ele>
        <time>2020-06-05T08:44:57.000Z</time>
      </trkpt>
      <trkpt lat="44.05656" lon="6.83652">
        <ele>1159</ele>
        <time>2020-06-05T08:44:58.000Z</time>
      </trkpt>
      <trkpt lat="44.05656" lon="6.83652">
        <ele>1159</ele>
        <time>2020-06-05T08:44:59.000Z</time>
      </trkpt>
      <trkpt lat="44.05656" lon="6.83652">
        <ele>1159</ele>
        <time>2020-06-05T08:45:00.000Z</time>
      </trkpt>
      <trkpt lat="44.05656" lon="6.83652">
        <ele>1160</ele>
        <time>2020-06-05T08:45:01.000Z</time>
      </trkpt>
      <trkpt lat="44.05656" lon="6.83652">
        <ele>1160</ele>
        <time>2020-06-05T08:45:02.000Z</time>
      </trkpt>
      <trkpt lat="44.05657" lon="6.83651">
        <ele>1160</ele>
        <time>2020-06-05T08:45:03.000Z</time>
      </trkpt>
      <trkpt lat="44.05657" lon="6.83651">
        <ele>1160</ele>
        <time>2020-06-05T08:45:04.000Z</time>
      </trkpt>
      <trkpt lat="44.05658" lon="6.8365">
        <ele>1160</ele>
        <time>2020-06-05T08:45:05.000Z</time>
      </trkpt>
      <trkpt lat="44.05658" lon="6.8365">
        <ele>1160</ele>
        <time>2020-06-05T08:45:06.000Z</time>
      </trkpt>
      <trkpt lat="44.05659" lon="6.8365">
        <ele>1160</ele>
        <time>2020-06-05T08:45:07.000Z</time>
      </trkpt>
      <trkpt lat="44.05659" lon="6.8365">
        <ele>1160</ele>
        <time>2020-06-05T08:45:08.000Z</time>
      </trkpt>
      <trkpt lat="44.05659" lon="6.83649">
        <ele>1160</ele>
        <time>2020-06-05T08:45:09.000Z</time>
      </trkpt>
      <trkpt lat="44.0566" lon="6.83649">
        <ele>1160</ele>
        <time>2020-06-05T08:45:10.000Z</time>
      </trkpt>
      <trkpt lat="44.05659" lon="6.83648">
        <ele>1160</ele>
        <time>2020-06-05T08:45:11.000Z</time>
      </trkpt>
      <trkpt lat="44.05659" lon="6.83647">
        <ele>1160</ele>
        <time>2020-06-05T08:45:12.000Z</time>
      </trkpt>
      <trkpt lat="44.05659" lon="6.83647">
        <ele>1161</ele>
        <time>2020-06-05T08:45:13.000Z</time>
      </trkpt>
      <trkpt lat="44.05659" lon="6.83646">
        <ele>1161</ele>
        <time>2020-06-05T08:45:14.000Z</time>
      </trkpt>
      <trkpt lat="44.05659" lon="6.83645">
        <ele>1161</ele>
        <time>2020-06-05T08:45:15.000Z</time>
      </trkpt>
      <trkpt lat="44.05659" lon="6.83644">
        <ele>1161</ele>
        <time>2020-06-05T08:45:16.000Z</time>
      </trkpt>
      <trkpt lat="44.05659" lon="6.83643">
        <ele>1161</ele>
        <time>2020-06-05T08:45:17.000Z</time>
      </trkpt>
      <trkpt lat="44.05659" lon="6.83642">
        <ele>1161</ele>
        <time>2020-06-05T08:45:18.000Z</time>
      </trkpt>
      <trkpt lat="44.05659" lon="6.83641">
        <ele>1161</ele>
        <time>2020-06-05T08:45:19.000Z</time>
      </trkpt>
      <trkpt lat="44.05659" lon="6.8364">
        <ele>1161</ele>
        <time>2020-06-05T08:45:20.000Z</time>
      </trkpt>
      <trkpt lat="44.05659" lon="6.83639">
        <ele>1161</ele>
        <time>2020-06-05T08:45:21.000Z</time>
      </trkpt>
      <trkpt lat="44.05659" lon="6.83638">
        <ele>1162</ele>
        <time>2020-06-05T08:45:22.000Z</time>
      </trkpt>
      <trkpt lat="44.05659" lon="6.83636">
        <ele>1162</ele>
        <time>2020-06-05T08:45:23.000Z</time>
      </trkpt>
      <trkpt lat="44.05659" lon="6.83635">
        <ele>1162</ele>
        <time>2020-06-05T08:45:24.000Z</time>
      </trkpt>
      <trkpt lat="44.05659" lon="6.83634">
        <ele>1162</ele>
        <time>2020-06-05T08:45:25.000Z</time>
      </trkpt>
      <trkpt lat="44.05659" lon="6.83633">
        <ele>1162</ele>
        <time>2020-06-05T08:45:26.000Z</time>
      </trkpt>
      <trkpt lat="44.05659" lon="6.83632">
        <ele>1162</ele>
        <time>2020-06-05T08:45:27.000Z</time>
      </trkpt>
      <trkpt lat="44.05659" lon="6.83631">
        <ele>1162</ele>
        <time>2020-06-05T08:45:28.000Z</time>
      </trkpt>
      <trkpt lat="44.05659" lon="6.8363">
        <ele>1162</ele>
        <time>2020-06-05T08:45:29.000Z</time>
      </trkpt>
      <trkpt lat="44.05659" lon="6.83629">
        <ele>1162</ele>
        <time>2020-06-05T08:45:30.000Z</time>
      </trkpt>
      <trkpt lat="44.05659" lon="6.83627">
        <ele>1162</ele>
        <time>2020-06-05T08:45:31.000Z</time>
      </trkpt>
      <trkpt lat="44.05659" lon="6.83627">
        <ele>1162</ele>
        <time>2020-06-05T08:45:32.000Z</time>
      </trkpt>
      <trkpt lat="44.05658" lon="6.83625">
        <ele>1163</ele>
        <time>2020-06-05T08:45:33.000Z</time>
      </trkpt>
      <trkpt lat="44.05658" lon="6.83624">
        <ele>1163</ele>
        <time>2020-06-05T08:45:34.000Z</time>
      </trkpt>
      <trkpt lat="44.05658" lon="6.83623">
        <ele>1163</ele>
        <time>2020-06-05T08:45:35.000Z</time>
      </trkpt>
      <trkpt lat="44.05658" lon="6.83622">
        <ele>1163</ele>
        <time>2020-06-05T08:45:36.000Z</time>
      </trkpt>
      <trkpt lat="44.05658" lon="6.83621">
        <ele>1163</ele>
        <time>2020-06-05T08:45:37.000Z</time>
      </trkpt>
      <trkpt lat="44.05658" lon="6.8362">
        <ele>1163</ele>
        <time>2020-06-05T08:45:38.000Z</time>
      </trkpt>
      <trkpt lat="44.05658" lon="6.83619">
        <ele>1163</ele>
        <time>2020-06-05T08:45:39.000Z</time>
      </trkpt>
      <trkpt lat="44.05658" lon="6.83618">
        <ele>1163</ele>
        <time>2020-06-05T08:45:40.000Z</time>
      </trkpt>
      <trkpt lat="44.05658" lon="6.83617">
        <ele>1163</ele>
        <time>2020-06-05T08:45:41.000Z</time>
      </trkpt>
      <trkpt lat="44.05657" lon="6.83616">
        <ele>1163</ele>
        <time>2020-06-05T08:45:42.000Z</time>
      </trkpt>
      <trkpt lat="44.05657" lon="6.83615">
        <ele>1163</ele>
        <time>2020-06-05T08:45:43.000Z</time>
      </trkpt>
      <trkpt lat="44.05657" lon="6.83614">
        <ele>1163</ele>
        <time>2020-06-05T08:45:44.000Z</time>
      </trkpt>
      <trkpt lat="44.05657" lon="6.83614">
        <ele>1163</ele>
        <time>2020-06-05T08:45:45.000Z</time>
      </trkpt>
      <trkpt lat="44.05657" lon="6.83613">
        <ele>1163</ele>
        <time>2020-06-05T08:45:46.000Z</time>
      </trkpt>
      <trkpt lat="44.05657" lon="6.83612">
        <ele>1164</ele>
        <time>2020-06-05T08:45:47.000Z</time>
      </trkpt>
      <trkpt lat="44.05657" lon="6.83612">
        <ele>1164</ele>
        <time>2020-06-05T08:45:48.000Z</time>
      </trkpt>
      <trkpt lat="44.05657" lon="6.83611">
        <ele>1164</ele>
        <time>2020-06-05T08:45:49.000Z</time>
      </trkpt>
      <trkpt lat="44.05657" lon="6.8361">
        <ele>1164</ele>
        <time>2020-06-05T08:45:50.000Z</time>
      </trkpt>
      <trkpt lat="44.05657" lon="6.83609">
        <ele>1164</ele>
        <time>2020-06-05T08:45:51.000Z</time>
      </trkpt>
      <trkpt lat="44.05657" lon="6.83608">
        <ele>1164</ele>
        <time>2020-06-05T08:45:52.000Z</time>
      </trkpt>
      <trkpt lat="44.05657" lon="6.83607">
        <ele>1164</ele>
        <time>2020-06-05T08:45:53.000Z</time>
      </trkpt>
      <trkpt lat="44.05657" lon="6.83606">
        <ele>1164</ele>
        <time>2020-06-05T08:45:54.000Z</time>
      </trkpt>
      <trkpt lat="44.05657" lon="6.83604">
        <ele>1164</ele>
        <time>2020-06-05T08:45:55.000Z</time>
      </trkpt>
      <trkpt lat="44.05657" lon="6.83604">
        <ele>1164</ele>
        <time>2020-06-05T08:45:56.000Z</time>
      </trkpt>
      <trkpt lat="44.05657" lon="6.83603">
        <ele>1165</ele>
        <time>2020-06-05T08:45:57.000Z</time>
      </trkpt>
      <trkpt lat="44.05656" lon="6.83602">
        <ele>1165</ele>
        <time>2020-06-05T08:45:58.000Z</time>
      </trkpt>
      <trkpt lat="44.05656" lon="6.83602">
        <ele>1165</ele>
        <time>2020-06-05T08:45:59.000Z</time>
      </trkpt>
      <trkpt lat="44.05656" lon="6.83602">
        <ele>1165</ele>
        <time>2020-06-05T08:46:00.000Z</time>
      </trkpt>
      <trkpt lat="44.05656" lon="6.83602">
        <ele>1165</ele>
        <time>2020-06-05T08:46:01.000Z</time>
      </trkpt>
      <trkpt lat="44.05656" lon="6.83602">
        <ele>1165</ele>
        <time>2020-06-05T08:46:02.000Z</time>
      </trkpt>
      <trkpt lat="44.05656" lon="6.83602">
        <ele>1165</ele>
        <time>2020-06-05T08:46:03.000Z</time>
      </trkpt>
      <trkpt lat="44.05656" lon="6.83602">
        <ele>1165</ele>
        <time>2020-06-05T08:46:04.000Z</time>
      </trkpt>
      <trkpt lat="44.05656" lon="6.83602">
        <ele>1165</ele>
        <time>2020-06-05T08:46:05.000Z</time>
      </trkpt>
      <trkpt lat="44.05656" lon="6.83602">
        <ele>1165</ele>
        <time>2020-06-05T08:46:06.000Z</time>
      </trkpt>
      <trkpt lat="44.05656" lon="6.83602">
        <ele>1165</ele>
        <time>2020-06-05T08:46:07.000Z</time>
      </trkpt>
      <trkpt lat="44.05656" lon="6.83601">
        <ele>1165</ele>
        <time>2020-06-05T08:46:08.000Z</time>
      </trkpt>
      <trkpt lat="44.05656" lon="6.836">
        <ele>1165</ele>
        <time>2020-06-05T08:46:09.000Z</time>
      </trkpt>
      <trkpt lat="44.05655" lon="6.83599">
        <ele>1165</ele>
        <time>2020-06-05T08:46:10.000Z</time>
      </trkpt>
      <trkpt lat="44.05655" lon="6.83598">
        <ele>1165</ele>
        <time>2020-06-05T08:46:11.000Z</time>
      </trkpt>
      <trkpt lat="44.05655" lon="6.83597">
        <ele>1165</ele>
        <time>2020-06-05T08:46:12.000Z</time>
      </trkpt>
      <trkpt lat="44.05655" lon="6.83596">
        <ele>1165</ele>
        <time>2020-06-05T08:46:13.000Z</time>
      </trkpt>
      <trkpt lat="44.05655" lon="6.83596">
        <ele>1165</ele>
        <time>2020-06-05T08:46:14.000Z</time>
      </trkpt>
      <trkpt lat="44.05655" lon="6.83596">
        <ele>1165</ele>
        <time>2020-06-05T08:46:15.000Z</time>
      </trkpt>
      <trkpt lat="44.05655" lon="6.83596">
        <ele>1165</ele>
        <time>2020-06-05T08:46:16.000Z</time>
      </trkpt>
      <trkpt lat="44.05655" lon="6.83596">
        <ele>1166</ele>
        <time>2020-06-05T08:46:17.000Z</time>
      </trkpt>
      <trkpt lat="44.05655" lon="6.83596">
        <ele>1166</ele>
        <time>2020-06-05T08:46:18.000Z</time>
      </trkpt>
      <trkpt lat="44.05655" lon="6.83596">
        <ele>1166</ele>
        <time>2020-06-05T08:46:19.000Z</time>
      </trkpt>
      <trkpt lat="44.05655" lon="6.83596">
        <ele>1166</ele>
        <time>2020-06-05T08:46:20.000Z</time>
      </trkpt>
      <trkpt lat="44.05655" lon="6.83596">
        <ele>1166</ele>
        <time>2020-06-05T08:46:21.000Z</time>
      </trkpt>
      <trkpt lat="44.05655" lon="6.83596">
        <ele>1166</ele>
        <time>2020-06-05T08:46:22.000Z</time>
      </trkpt>
      <trkpt lat="44.05655" lon="6.83596">
        <ele>1166</ele>
        <time>2020-06-05T08:46:23.000Z</time>
      </trkpt>
      <trkpt lat="44.05655" lon="6.83595">
        <ele>1166</ele>
        <time>2020-06-05T08:46:24.000Z</time>
      </trkpt>
      <trkpt lat="44.05655" lon="6.83594">
        <ele>1166</ele>
        <time>2020-06-05T08:46:25.000Z</time>
      </trkpt>
      <trkpt lat="44.05655" lon="6.83593">
        <ele>1166</ele>
        <time>2020-06-05T08:46:26.000Z</time>
      </trkpt>
      <trkpt lat="44.05655" lon="6.83592">
        <ele>1166</ele>
        <time>2020-06-05T08:46:27.000Z</time>
      </trkpt>
      <trkpt lat="44.05655" lon="6.83591">
        <ele>1166</ele>
        <time>2020-06-05T08:46:28.000Z</time>
      </trkpt>
      <trkpt lat="44.05655" lon="6.8359">
        <ele>1166</ele>
        <time>2020-06-05T08:46:29.000Z</time>
      </trkpt>
      <trkpt lat="44.05655" lon="6.83589">
        <ele>1166</ele>
        <time>2020-06-05T08:46:30.000Z</time>
      </trkpt>
      <trkpt lat="44.05654" lon="6.83588">
        <ele>1166</ele>
        <time>2020-06-05T08:46:31.000Z</time>
      </trkpt>
      <trkpt lat="44.05654" lon="6.83587">
        <ele>1166</ele>
        <time>2020-06-05T08:46:32.000Z</time>
      </trkpt>
      <trkpt lat="44.05654" lon="6.83586">
        <ele>1166</ele>
        <time>2020-06-05T08:46:33.000Z</time>
      </trkpt>
      <trkpt lat="44.05653" lon="6.83585">
        <ele>1166</ele>
        <time>2020-06-05T08:46:34.000Z</time>
      </trkpt>
      <trkpt lat="44.05653" lon="6.83584">
        <ele>1166</ele>
        <time>2020-06-05T08:46:35.000Z</time>
      </trkpt>
      <trkpt lat="44.05652" lon="6.83583">
        <ele>1166</ele>
        <time>2020-06-05T08:46:36.000Z</time>
      </trkpt>
      <trkpt lat="44.05652" lon="6.83582">
        <ele>1166</ele>
        <time>2020-06-05T08:46:37.000Z</time>
      </trkpt>
      <trkpt lat="44.05653" lon="6.83581">
        <ele>1166</ele>
        <time>2020-06-05T08:46:38.000Z</time>
      </trkpt>
      <trkpt lat="44.05653" lon="6.8358">
        <ele>1166</ele>
        <time>2020-06-05T08:46:39.000Z</time>
      </trkpt>
      <trkpt lat="44.05653" lon="6.83579">
        <ele>1166</ele>
        <time>2020-06-05T08:46:40.000Z</time>
      </trkpt>
      <trkpt lat="44.05653" lon="6.83577">
        <ele>1166</ele>
        <time>2020-06-05T08:46:41.000Z</time>
      </trkpt>
      <trkpt lat="44.05653" lon="6.83576">
        <ele>1167</ele>
        <time>2020-06-05T08:46:42.000Z</time>
      </trkpt>
      <trkpt lat="44.05654" lon="6.83575">
        <ele>1167</ele>
        <time>2020-06-05T08:46:43.000Z</time>
      </trkpt>
      <trkpt lat="44.05654" lon="6.83574">
        <ele>1167</ele>
        <time>2020-06-05T08:46:44.000Z</time>
      </trkpt>
      <trkpt lat="44.05654" lon="6.83573">
        <ele>1167</ele>
        <time>2020-06-05T08:46:45.000Z</time>
      </trkpt>
      <trkpt lat="44.05654" lon="6.83572">
        <ele>1167</ele>
        <time>2020-06-05T08:46:46.000Z</time>
      </trkpt>
      <trkpt lat="44.05654" lon="6.83571">
        <ele>1167</ele>
        <time>2020-06-05T08:46:47.000Z</time>
      </trkpt>
      <trkpt lat="44.05654" lon="6.83569">
        <ele>1167</ele>
        <time>2020-06-05T08:46:48.000Z</time>
      </trkpt>
      <trkpt lat="44.05654" lon="6.83568">
        <ele>1167</ele>
        <time>2020-06-05T08:46:49.000Z</time>
      </trkpt>
      <trkpt lat="44.05654" lon="6.83567">
        <ele>1168</ele>
        <time>2020-06-05T08:46:50.000Z</time>
      </trkpt>
      <trkpt lat="44.05654" lon="6.83567">
        <ele>1168</ele>
        <time>2020-06-05T08:46:51.000Z</time>
      </trkpt>
      <trkpt lat="44.05654" lon="6.83566">
        <ele>1168</ele>
        <time>2020-06-05T08:46:52.000Z</time>
      </trkpt>
      <trkpt lat="44.05654" lon="6.83566">
        <ele>1168</ele>
        <time>2020-06-05T08:46:53.000Z</time>
      </trkpt>
      <trkpt lat="44.05654" lon="6.83566">
        <ele>1168</ele>
        <time>2020-06-05T08:46:54.000Z</time>
      </trkpt>
      <trkpt lat="44.05654" lon="6.83566">
        <ele>1168</ele>
        <time>2020-06-05T08:46:55.000Z</time>
      </trkpt>
      <trkpt lat="44.05654" lon="6.83566">
        <ele>1168</ele>
        <time>2020-06-05T08:46:56.000Z</time>
      </trkpt>
      <trkpt lat="44.05654" lon="6.83566">
        <ele>1168</ele>
        <time>2020-06-05T08:46:57.000Z</time>
      </trkpt>
      <trkpt lat="44.05654" lon="6.83565">
        <ele>1168</ele>
        <time>2020-06-05T08:46:58.000Z</time>
      </trkpt>
      <trkpt lat="44.05654" lon="6.83565">
        <ele>1168</ele>
        <time>2020-06-05T08:46:59.000Z</time>
      </trkpt>
      <trkpt lat="44.05654" lon="6.83565">
        <ele>1168</ele>
        <time>2020-06-05T08:47:00.000Z</time>
      </trkpt>
      <trkpt lat="44.05654" lon="6.83565">
        <ele>1168</ele>
        <time>2020-06-05T08:47:01.000Z</time>
      </trkpt>
      <trkpt lat="44.05654" lon="6.83565">
        <ele>1168</ele>
        <time>2020-06-05T08:47:02.000Z</time>
      </trkpt>
      <trkpt lat="44.05654" lon="6.83565">
        <ele>1168</ele>
        <time>2020-06-05T08:47:03.000Z</time>
      </trkpt>
      <trkpt lat="44.05654" lon="6.83565">
        <ele>1168</ele>
        <time>2020-06-05T08:47:04.000Z</time>
      </trkpt>
      <trkpt lat="44.05654" lon="6.83565">
        <ele>1169</ele>
        <time>2020-06-05T08:47:05.000Z</time>
      </trkpt>
      <trkpt lat="44.05654" lon="6.83565">
        <ele>1169</ele>
        <time>2020-06-05T08:47:06.000Z</time>
      </trkpt>
      <trkpt lat="44.05654" lon="6.83565">
        <ele>1169</ele>
        <time>2020-06-05T08:47:07.000Z</time>
      </trkpt>
      <trkpt lat="44.05654" lon="6.83565">
        <ele>1169</ele>
        <time>2020-06-05T08:47:08.000Z</time>
      </trkpt>
      <trkpt lat="44.05654" lon="6.83565">
        <ele>1169</ele>
        <time>2020-06-05T08:47:09.000Z</time>
      </trkpt>
      <trkpt lat="44.05654" lon="6.83564">
        <ele>1169</ele>
        <time>2020-06-05T08:47:10.000Z</time>
      </trkpt>
      <trkpt lat="44.05654" lon="6.83564">
        <ele>1169</ele>
        <time>2020-06-05T08:47:11.000Z</time>
      </trkpt>
      <trkpt lat="44.05654" lon="6.83564">
        <ele>1169</ele>
        <time>2020-06-05T08:47:12.000Z</time>
      </trkpt>
      <trkpt lat="44.05654" lon="6.83564">
        <ele>1169</ele>
        <time>2020-06-05T08:47:13.000Z</time>
      </trkpt>
      <trkpt lat="44.05654" lon="6.83564">
        <ele>1169</ele>
        <time>2020-06-05T08:47:14.000Z</time>
      </trkpt>
      <trkpt lat="44.05654" lon="6.83564">
        <ele>1169</ele>
        <time>2020-06-05T08:47:15.000Z</time>
      </trkpt>
      <trkpt lat="44.05654" lon="6.83564">
        <ele>1169</ele>
        <time>2020-06-05T08:47:16.000Z</time>
      </trkpt>
      <trkpt lat="44.05654" lon="6.83564">
        <ele>1169</ele>
        <time>2020-06-05T08:47:17.000Z</time>
      </trkpt>
      <trkpt lat="44.05654" lon="6.83564">
        <ele>1169</ele>
        <time>2020-06-05T08:47:18.000Z</time>
      </trkpt>
      <trkpt lat="44.05654" lon="6.83563">
        <ele>1169</ele>
        <time>2020-06-05T08:47:19.000Z</time>
      </trkpt>
      <trkpt lat="44.05654" lon="6.83563">
        <ele>1169</ele>
        <time>2020-06-05T08:47:20.000Z</time>
      </trkpt>
      <trkpt lat="44.05654" lon="6.83563">
        <ele>1169</ele>
        <time>2020-06-05T08:47:21.000Z</time>
      </trkpt>
      <trkpt lat="44.05654" lon="6.83563">
        <ele>1169</ele>
        <time>2020-06-05T08:47:22.000Z</time>
      </trkpt>
      <trkpt lat="44.05654" lon="6.83563">
        <ele>1169</ele>
        <time>2020-06-05T08:47:23.000Z</time>
      </trkpt>
      <trkpt lat="44.05654" lon="6.83563">
        <ele>1169</ele>
        <time>2020-06-05T08:47:24.000Z</time>
      </trkpt>
      <trkpt lat="44.05654" lon="6.83563">
        <ele>1169</ele>
        <time>2020-06-05T08:47:25.000Z</time>
      </trkpt>
      <trkpt lat="44.05654" lon="6.83563">
        <ele>1169</ele>
        <time>2020-06-05T08:47:26.000Z</time>
      </trkpt>
      <trkpt lat="44.05654" lon="6.83563">
        <ele>1169</ele>
        <time>2020-06-05T08:47:27.000Z</time>
      </trkpt>
      <trkpt lat="44.05654" lon="6.83563">
        <ele>1169</ele>
        <time>2020-06-05T08:47:28.000Z</time>
      </trkpt>
      <trkpt lat="44.05654" lon="6.83563">
        <ele>1169</ele>
        <time>2020-06-05T08:47:29.000Z</time>
      </trkpt>
      <trkpt lat="44.05654" lon="6.83563">
        <ele>1169</ele>
        <time>2020-06-05T08:47:30.000Z</time>
      </trkpt>
      <trkpt lat="44.05654" lon="6.83563">
        <ele>1169</ele>
        <time>2020-06-05T08:47:31.000Z</time>
      </trkpt>
      <trkpt lat="44.05654" lon="6.83563">
        <ele>1169</ele>
        <time>2020-06-05T08:47:32.000Z</time>
      </trkpt>
      <trkpt lat="44.05654" lon="6.83563">
        <ele>1169</ele>
        <time>2020-06-05T08:47:33.000Z</time>
      </trkpt>
      <trkpt lat="44.05654" lon="6.83563">
        <ele>1169</ele>
        <time>2020-06-05T08:47:34.000Z</time>
      </trkpt>
      <trkpt lat="44.05654" lon="6.83563">
        <ele>1169</ele>
        <time>2020-06-05T08:47:35.000Z</time>
      </trkpt>
      <trkpt lat="44.05654" lon="6.83563">
        <ele>1169</ele>
        <time>2020-06-05T08:47:36.000Z</time>
      </trkpt>
      <trkpt lat="44.05654" lon="6.83563">
        <ele>1169</ele>
        <time>2020-06-05T08:47:37.000Z</time>
      </trkpt>
      <trkpt lat="44.05654" lon="6.83563">
        <ele>1169</ele>
        <time>2020-06-05T08:47:38.000Z</time>
      </trkpt>
      <trkpt lat="44.05654" lon="6.83563">
        <ele>1169</ele>
        <time>2020-06-05T08:47:39.000Z</time>
      </trkpt>
      <trkpt lat="44.05654" lon="6.83563">
        <ele>1169</ele>
        <time>2020-06-05T08:47:40.000Z</time>
      </trkpt>
      <trkpt lat="44.05654" lon="6.83563">
        <ele>1169</ele>
        <time>2020-06-05T08:47:41.000Z</time>
      </trkpt>
      <trkpt lat="44.05654" lon="6.83562">
        <ele>1169</ele>
        <time>2020-06-05T08:47:42.000Z</time>
      </trkpt>
      <trkpt lat="44.05654" lon="6.83562">
        <ele>1169</ele>
        <time>2020-06-05T08:47:43.000Z</time>
      </trkpt>
      <trkpt lat="44.05654" lon="6.83562">
        <ele>1169</ele>
        <time>2020-06-05T08:47:44.000Z</time>
      </trkpt>
      <trkpt lat="44.05654" lon="6.83561">
        <ele>1169</ele>
        <time>2020-06-05T08:47:45.000Z</time>
      </trkpt>
      <trkpt lat="44.05654" lon="6.8356">
        <ele>1169</ele>
        <time>2020-06-05T08:47:46.000Z</time>
      </trkpt>
      <trkpt lat="44.05654" lon="6.8356">
        <ele>1169</ele>
        <time>2020-06-05T08:47:47.000Z</time>
      </trkpt>
      <trkpt lat="44.05654" lon="6.83559">
        <ele>1169</ele>
        <time>2020-06-05T08:47:48.000Z</time>
      </trkpt>
      <trkpt lat="44.05654" lon="6.83559">
        <ele>1169</ele>
        <time>2020-06-05T08:47:49.000Z</time>
      </trkpt>
      <trkpt lat="44.05654" lon="6.83559">
        <ele>1169</ele>
        <time>2020-06-05T08:47:50.000Z</time>
      </trkpt>
      <trkpt lat="44.05654" lon="6.83559">
        <ele>1169</ele>
        <time>2020-06-05T08:47:51.000Z</time>
      </trkpt>
      <trkpt lat="44.05654" lon="6.83559">
        <ele>1169</ele>
        <time>2020-06-05T08:47:52.000Z</time>
      </trkpt>
      <trkpt lat="44.05654" lon="6.83559">
        <ele>1169</ele>
        <time>2020-06-05T08:47:53.000Z</time>
      </trkpt>
      <trkpt lat="44.05654" lon="6.83559">
        <ele>1169</ele>
        <time>2020-06-05T08:47:54.000Z</time>
      </trkpt>
      <trkpt lat="44.05654" lon="6.8356">
        <ele>1169</ele>
        <time>2020-06-05T08:47:55.000Z</time>
      </trkpt>
      <trkpt lat="44.05655" lon="6.8356">
        <ele>1169</ele>
        <time>2020-06-05T08:47:56.000Z</time>
      </trkpt>
      <trkpt lat="44.05655" lon="6.8356">
        <ele>1169</ele>
        <time>2020-06-05T08:47:57.000Z</time>
      </trkpt>
      <trkpt lat="44.05655" lon="6.8356">
        <ele>1169</ele>
        <time>2020-06-05T08:47:58.000Z</time>
      </trkpt>
      <trkpt lat="44.05655" lon="6.8356">
        <ele>1169</ele>
        <time>2020-06-05T08:47:59.000Z</time>
      </trkpt>
      <trkpt lat="44.05655" lon="6.8356">
        <ele>1169</ele>
        <time>2020-06-05T08:48:00.000Z</time>
      </trkpt>
      <trkpt lat="44.05655" lon="6.83559">
        <ele>1169</ele>
        <time>2020-06-05T08:48:01.000Z</time>
      </trkpt>
      <trkpt lat="44.05655" lon="6.83559">
        <ele>1169</ele>
        <time>2020-06-05T08:48:02.000Z</time>
      </trkpt>
      <trkpt lat="44.05655" lon="6.83559">
        <ele>1169</ele>
        <time>2020-06-05T08:48:03.000Z</time>
      </trkpt>
      <trkpt lat="44.05655" lon="6.83558">
        <ele>1169</ele>
        <time>2020-06-05T08:48:04.000Z</time>
      </trkpt>
      <trkpt lat="44.05655" lon="6.83558">
        <ele>1169</ele>
        <time>2020-06-05T08:48:05.000Z</time>
      </trkpt>
      <trkpt lat="44.05655" lon="6.83558">
        <ele>1169</ele>
        <time>2020-06-05T08:48:06.000Z</time>
      </trkpt>
      <trkpt lat="44.05655" lon="6.83558">
        <ele>1169</ele>
        <time>2020-06-05T08:48:07.000Z</time>
      </trkpt>
      <trkpt lat="44.05656" lon="6.83558">
        <ele>1169</ele>
        <time>2020-06-05T08:48:08.000Z</time>
      </trkpt>
      <trkpt lat="44.05656" lon="6.83558">
        <ele>1169</ele>
        <time>2020-06-05T08:48:09.000Z</time>
      </trkpt>
      <trkpt lat="44.05656" lon="6.83558">
        <ele>1169</ele>
        <time>2020-06-05T08:48:10.000Z</time>
      </trkpt>
      <trkpt lat="44.05656" lon="6.83558">
        <ele>1169</ele>
        <time>2020-06-05T08:48:11.000Z</time>
      </trkpt>
      <trkpt lat="44.05656" lon="6.83558">
        <ele>1169</ele>
        <time>2020-06-05T08:48:12.000Z</time>
      </trkpt>
      <trkpt lat="44.05656" lon="6.83558">
        <ele>1169</ele>
        <time>2020-06-05T08:48:13.000Z</time>
      </trkpt>
      <trkpt lat="44.05656" lon="6.83558">
        <ele>1169</ele>
        <time>2020-06-05T08:48:14.000Z</time>
      </trkpt>
      <trkpt lat="44.05656" lon="6.83558">
        <ele>1169</ele>
        <time>2020-06-05T08:48:15.000Z</time>
      </trkpt>
      <trkpt lat="44.05656" lon="6.83558">
        <ele>1169</ele>
        <time>2020-06-05T08:48:16.000Z</time>
      </trkpt>
      <trkpt lat="44.05655" lon="6.83557">
        <ele>1169</ele>
        <time>2020-06-05T08:48:17.000Z</time>
      </trkpt>
      <trkpt lat="44.05655" lon="6.83556">
        <ele>1169</ele>
        <time>2020-06-05T08:48:18.000Z</time>
      </trkpt>
      <trkpt lat="44.05655" lon="6.83555">
        <ele>1169</ele>
        <time>2020-06-05T08:48:19.000Z</time>
      </trkpt>
      <trkpt lat="44.05656" lon="6.83554">
        <ele>1169</ele>
        <time>2020-06-05T08:48:20.000Z</time>
      </trkpt>
      <trkpt lat="44.05656" lon="6.83553">
        <ele>1169</ele>
        <time>2020-06-05T08:48:21.000Z</time>
      </trkpt>
      <trkpt lat="44.05656" lon="6.83552">
        <ele>1169</ele>
        <time>2020-06-05T08:48:22.000Z</time>
      </trkpt>
      <trkpt lat="44.05656" lon="6.83552">
        <ele>1169</ele>
        <time>2020-06-05T08:48:23.000Z</time>
      </trkpt>
      <trkpt lat="44.05656" lon="6.83551">
        <ele>1169</ele>
        <time>2020-06-05T08:48:24.000Z</time>
      </trkpt>
      <trkpt lat="44.05656" lon="6.8355">
        <ele>1169</ele>
        <time>2020-06-05T08:48:25.000Z</time>
      </trkpt>
      <trkpt lat="44.05656" lon="6.8355">
        <ele>1169</ele>
        <time>2020-06-05T08:48:26.000Z</time>
      </trkpt>
      <trkpt lat="44.05656" lon="6.83549">
        <ele>1169</ele>
        <time>2020-06-05T08:48:27.000Z</time>
      </trkpt>
      <trkpt lat="44.05656" lon="6.83548">
        <ele>1169</ele>
        <time>2020-06-05T08:48:28.000Z</time>
      </trkpt>
      <trkpt lat="44.05656" lon="6.83548">
        <ele>1170</ele>
        <time>2020-06-05T08:48:29.000Z</time>
      </trkpt>
      <trkpt lat="44.05655" lon="6.83547">
        <ele>1170</ele>
        <time>2020-06-05T08:48:30.000Z</time>
      </trkpt>
      <trkpt lat="44.05655" lon="6.83546">
        <ele>1170</ele>
        <time>2020-06-05T08:48:31.000Z</time>
      </trkpt>
      <trkpt lat="44.05655" lon="6.83545">
        <ele>1170</ele>
        <time>2020-06-05T08:48:32.000Z</time>
      </trkpt>
      <trkpt lat="44.05655" lon="6.83544">
        <ele>1170</ele>
        <time>2020-06-05T08:48:33.000Z</time>
      </trkpt>
      <trkpt lat="44.05655" lon="6.83544">
        <ele>1170</ele>
        <time>2020-06-05T08:48:34.000Z</time>
      </trkpt>
      <trkpt lat="44.05655" lon="6.83543">
        <ele>1170</ele>
        <time>2020-06-05T08:48:35.000Z</time>
      </trkpt>
      <trkpt lat="44.05655" lon="6.83542">
        <ele>1171</ele>
        <time>2020-06-05T08:48:36.000Z</time>
      </trkpt>
      <trkpt lat="44.05654" lon="6.83542">
        <ele>1171</ele>
        <time>2020-06-05T08:48:37.000Z</time>
      </trkpt>
      <trkpt lat="44.05654" lon="6.83541">
        <ele>1171</ele>
        <time>2020-06-05T08:48:38.000Z</time>
      </trkpt>
      <trkpt lat="44.05654" lon="6.8354">
        <ele>1171</ele>
        <time>2020-06-05T08:48:39.000Z</time>
      </trkpt>
      <trkpt lat="44.05654" lon="6.83539">
        <ele>1171</ele>
        <time>2020-06-05T08:48:40.000Z</time>
      </trkpt>
      <trkpt lat="44.05654" lon="6.83539">
        <ele>1171</ele>
        <time>2020-06-05T08:48:41.000Z</time>
      </trkpt>
      <trkpt lat="44.05654" lon="6.83538">
        <ele>1171</ele>
        <time>2020-06-05T08:48:42.000Z</time>
      </trkpt>
      <trkpt lat="44.05654" lon="6.83537">
        <ele>1171</ele>
        <time>2020-06-05T08:48:43.000Z</time>
      </trkpt>
      <trkpt lat="44.05653" lon="6.83536">
        <ele>1171</ele>
        <time>2020-06-05T08:48:44.000Z</time>
      </trkpt>
      <trkpt lat="44.05653" lon="6.83535">
        <ele>1172</ele>
        <time>2020-06-05T08:48:45.000Z</time>
      </trkpt>
      <trkpt lat="44.05653" lon="6.83534">
        <ele>1172</ele>
        <time>2020-06-05T08:48:46.000Z</time>
      </trkpt>
      <trkpt lat="44.05653" lon="6.83533">
        <ele>1172</ele>
        <time>2020-06-05T08:48:47.000Z</time>
      </trkpt>
      <trkpt lat="44.05653" lon="6.83532">
        <ele>1172</ele>
        <time>2020-06-05T08:48:48.000Z</time>
      </trkpt>
      <trkpt lat="44.05652" lon="6.83532">
        <ele>1172</ele>
        <time>2020-06-05T08:48:49.000Z</time>
      </trkpt>
      <trkpt lat="44.05652" lon="6.83531">
        <ele>1172</ele>
        <time>2020-06-05T08:48:50.000Z</time>
      </trkpt>
      <trkpt lat="44.05652" lon="6.8353">
        <ele>1172</ele>
        <time>2020-06-05T08:48:51.000Z</time>
      </trkpt>
      <trkpt lat="44.05652" lon="6.83529">
        <ele>1172</ele>
        <time>2020-06-05T08:48:52.000Z</time>
      </trkpt>
      <trkpt lat="44.05651" lon="6.83528">
        <ele>1173</ele>
        <time>2020-06-05T08:48:53.000Z</time>
      </trkpt>
      <trkpt lat="44.05651" lon="6.83527">
        <ele>1173</ele>
        <time>2020-06-05T08:48:54.000Z</time>
      </trkpt>
      <trkpt lat="44.05651" lon="6.83526">
        <ele>1173</ele>
        <time>2020-06-05T08:48:55.000Z</time>
      </trkpt>
      <trkpt lat="44.05651" lon="6.83525">
        <ele>1173</ele>
        <time>2020-06-05T08:48:56.000Z</time>
      </trkpt>
      <trkpt lat="44.05651" lon="6.83524">
        <ele>1173</ele>
        <time>2020-06-05T08:48:57.000Z</time>
      </trkpt>
      <trkpt lat="44.05651" lon="6.83523">
        <ele>1173</ele>
        <time>2020-06-05T08:48:58.000Z</time>
      </trkpt>
      <trkpt lat="44.05651" lon="6.83522">
        <ele>1173</ele>
        <time>2020-06-05T08:48:59.000Z</time>
      </trkpt>
      <trkpt lat="44.05651" lon="6.8352">
        <ele>1173</ele>
        <time>2020-06-05T08:49:00.000Z</time>
      </trkpt>
      <trkpt lat="44.05651" lon="6.83519">
        <ele>1173</ele>
        <time>2020-06-05T08:49:01.000Z</time>
      </trkpt>
      <trkpt lat="44.05651" lon="6.83518">
        <ele>1173</ele>
        <time>2020-06-05T08:49:02.000Z</time>
      </trkpt>
      <trkpt lat="44.05651" lon="6.83517">
        <ele>1173</ele>
        <time>2020-06-05T08:49:03.000Z</time>
      </trkpt>
      <trkpt lat="44.05652" lon="6.83516">
        <ele>1173</ele>
        <time>2020-06-05T08:49:04.000Z</time>
      </trkpt>
      <trkpt lat="44.05652" lon="6.83515">
        <ele>1173</ele>
        <time>2020-06-05T08:49:05.000Z</time>
      </trkpt>
      <trkpt lat="44.05651" lon="6.83514">
        <ele>1173</ele>
        <time>2020-06-05T08:49:06.000Z</time>
      </trkpt>
      <trkpt lat="44.05651" lon="6.83513">
        <ele>1173</ele>
        <time>2020-06-05T08:49:07.000Z</time>
      </trkpt>
      <trkpt lat="44.05651" lon="6.83512">
        <ele>1173</ele>
        <time>2020-06-05T08:49:08.000Z</time>
      </trkpt>
      <trkpt lat="44.05651" lon="6.83511">
        <ele>1174</ele>
        <time>2020-06-05T08:49:09.000Z</time>
      </trkpt>
      <trkpt lat="44.05651" lon="6.8351">
        <ele>1174</ele>
        <time>2020-06-05T08:49:10.000Z</time>
      </trkpt>
      <trkpt lat="44.05651" lon="6.83509">
        <ele>1174</ele>
        <time>2020-06-05T08:49:11.000Z</time>
      </trkpt>
      <trkpt lat="44.05651" lon="6.83508">
        <ele>1174</ele>
        <time>2020-06-05T08:49:12.000Z</time>
      </trkpt>
      <trkpt lat="44.05651" lon="6.83507">
        <ele>1174</ele>
        <time>2020-06-05T08:49:13.000Z</time>
      </trkpt>
      <trkpt lat="44.05651" lon="6.83506">
        <ele>1174</ele>
        <time>2020-06-05T08:49:14.000Z</time>
      </trkpt>
      <trkpt lat="44.05651" lon="6.83505">
        <ele>1174</ele>
        <time>2020-06-05T08:49:15.000Z</time>
      </trkpt>
      <trkpt lat="44.0565" lon="6.83504">
        <ele>1175</ele>
        <time>2020-06-05T08:49:16.000Z</time>
      </trkpt>
      <trkpt lat="44.0565" lon="6.83503">
        <ele>1175</ele>
        <time>2020-06-05T08:49:17.000Z</time>
      </trkpt>
      <trkpt lat="44.0565" lon="6.83502">
        <ele>1175</ele>
        <time>2020-06-05T08:49:18.000Z</time>
      </trkpt>
      <trkpt lat="44.0565" lon="6.83502">
        <ele>1175</ele>
        <time>2020-06-05T08:49:19.000Z</time>
      </trkpt>
      <trkpt lat="44.05649" lon="6.83501">
        <ele>1175</ele>
        <time>2020-06-05T08:49:20.000Z</time>
      </trkpt>
      <trkpt lat="44.05649" lon="6.835">
        <ele>1175</ele>
        <time>2020-06-05T08:49:21.000Z</time>
      </trkpt>
      <trkpt lat="44.05649" lon="6.83499">
        <ele>1176</ele>
        <time>2020-06-05T08:49:22.000Z</time>
      </trkpt>
      <trkpt lat="44.05648" lon="6.83497">
        <ele>1176</ele>
        <time>2020-06-05T08:49:23.000Z</time>
      </trkpt>
      <trkpt lat="44.05648" lon="6.83496">
        <ele>1176</ele>
        <time>2020-06-05T08:49:24.000Z</time>
      </trkpt>
      <trkpt lat="44.05648" lon="6.83495">
        <ele>1176</ele>
        <time>2020-06-05T08:49:25.000Z</time>
      </trkpt>
      <trkpt lat="44.05647" lon="6.83494">
        <ele>1176</ele>
        <time>2020-06-05T08:49:26.000Z</time>
      </trkpt>
      <trkpt lat="44.05647" lon="6.83493">
        <ele>1176</ele>
        <time>2020-06-05T08:49:27.000Z</time>
      </trkpt>
      <trkpt lat="44.05646" lon="6.83492">
        <ele>1177</ele>
        <time>2020-06-05T08:49:28.000Z</time>
      </trkpt>
      <trkpt lat="44.05646" lon="6.83491">
        <ele>1177</ele>
        <time>2020-06-05T08:49:29.000Z</time>
      </trkpt>
      <trkpt lat="44.05646" lon="6.8349">
        <ele>1177</ele>
        <time>2020-06-05T08:49:30.000Z</time>
      </trkpt>
      <trkpt lat="44.05646" lon="6.83489">
        <ele>1177</ele>
        <time>2020-06-05T08:49:31.000Z</time>
      </trkpt>
      <trkpt lat="44.05645" lon="6.83488">
        <ele>1178</ele>
        <time>2020-06-05T08:49:32.000Z</time>
      </trkpt>
      <trkpt lat="44.05645" lon="6.83487">
        <ele>1178</ele>
        <time>2020-06-05T08:49:33.000Z</time>
      </trkpt>
      <trkpt lat="44.05644" lon="6.83486">
        <ele>1178</ele>
        <time>2020-06-05T08:49:34.000Z</time>
      </trkpt>
      <trkpt lat="44.05644" lon="6.83484">
        <ele>1178</ele>
        <time>2020-06-05T08:49:35.000Z</time>
      </trkpt>
      <trkpt lat="44.05644" lon="6.83483">
        <ele>1178</ele>
        <time>2020-06-05T08:49:36.000Z</time>
      </trkpt>
      <trkpt lat="44.05644" lon="6.83482">
        <ele>1178</ele>
        <time>2020-06-05T08:49:37.000Z</time>
      </trkpt>
      <trkpt lat="44.05643" lon="6.83481">
        <ele>1179</ele>
        <time>2020-06-05T08:49:38.000Z</time>
      </trkpt>
      <trkpt lat="44.05643" lon="6.8348">
        <ele>1179</ele>
        <time>2020-06-05T08:49:39.000Z</time>
      </trkpt>
      <trkpt lat="44.05643" lon="6.83478">
        <ele>1179</ele>
        <time>2020-06-05T08:49:40.000Z</time>
      </trkpt>
      <trkpt lat="44.05643" lon="6.83477">
        <ele>1179</ele>
        <time>2020-06-05T08:49:41.000Z</time>
      </trkpt>
      <trkpt lat="44.05642" lon="6.83476">
        <ele>1179</ele>
        <time>2020-06-05T08:49:42.000Z</time>
      </trkpt>
      <trkpt lat="44.05642" lon="6.83475">
        <ele>1179</ele>
        <time>2020-06-05T08:49:43.000Z</time>
      </trkpt>
      <trkpt lat="44.05642" lon="6.83473">
        <ele>1179</ele>
        <time>2020-06-05T08:49:44.000Z</time>
      </trkpt>
      <trkpt lat="44.05641" lon="6.83473">
        <ele>1179</ele>
        <time>2020-06-05T08:49:45.000Z</time>
      </trkpt>
      <trkpt lat="44.05641" lon="6.83471">
        <ele>1179</ele>
        <time>2020-06-05T08:49:46.000Z</time>
      </trkpt>
      <trkpt lat="44.05641" lon="6.8347">
        <ele>1179</ele>
        <time>2020-06-05T08:49:47.000Z</time>
      </trkpt>
      <trkpt lat="44.05641" lon="6.8347">
        <ele>1180</ele>
        <time>2020-06-05T08:49:48.000Z</time>
      </trkpt>
      <trkpt lat="44.0564" lon="6.83469">
        <ele>1180</ele>
        <time>2020-06-05T08:49:49.000Z</time>
      </trkpt>
      <trkpt lat="44.0564" lon="6.83468">
        <ele>1180</ele>
        <time>2020-06-05T08:49:50.000Z</time>
      </trkpt>
      <trkpt lat="44.0564" lon="6.83467">
        <ele>1180</ele>
        <time>2020-06-05T08:49:51.000Z</time>
      </trkpt>
      <trkpt lat="44.0564" lon="6.83466">
        <ele>1180</ele>
        <time>2020-06-05T08:49:52.000Z</time>
      </trkpt>
      <trkpt lat="44.0564" lon="6.83464">
        <ele>1180</ele>
        <time>2020-06-05T08:49:53.000Z</time>
      </trkpt>
      <trkpt lat="44.0564" lon="6.83463">
        <ele>1180</ele>
        <time>2020-06-05T08:49:54.000Z</time>
      </trkpt>
      <trkpt lat="44.0564" lon="6.83462">
        <ele>1180</ele>
        <time>2020-06-05T08:49:55.000Z</time>
      </trkpt>
      <trkpt lat="44.0564" lon="6.83461">
        <ele>1180</ele>
        <time>2020-06-05T08:49:56.000Z</time>
      </trkpt>
      <trkpt lat="44.0564" lon="6.8346">
        <ele>1180</ele>
        <time>2020-06-05T08:49:57.000Z</time>
      </trkpt>
      <trkpt lat="44.0564" lon="6.83459">
        <ele>1180</ele>
        <time>2020-06-05T08:49:58.000Z</time>
      </trkpt>
      <trkpt lat="44.05639" lon="6.83458">
        <ele>1180</ele>
        <time>2020-06-05T08:49:59.000Z</time>
      </trkpt>
      <trkpt lat="44.05639" lon="6.83457">
        <ele>1180</ele>
        <time>2020-06-05T08:50:00.000Z</time>
      </trkpt>
      <trkpt lat="44.05639" lon="6.83457">
        <ele>1180</ele>
        <time>2020-06-05T08:50:01.000Z</time>
      </trkpt>
      <trkpt lat="44.05639" lon="6.83456">
        <ele>1180</ele>
        <time>2020-06-05T08:50:02.000Z</time>
      </trkpt>
      <trkpt lat="44.05639" lon="6.83455">
        <ele>1180</ele>
        <time>2020-06-05T08:50:03.000Z</time>
      </trkpt>
      <trkpt lat="44.05639" lon="6.83455">
        <ele>1180</ele>
        <time>2020-06-05T08:50:04.000Z</time>
      </trkpt>
      <trkpt lat="44.05639" lon="6.83455">
        <ele>1181</ele>
        <time>2020-06-05T08:50:05.000Z</time>
      </trkpt>
      <trkpt lat="44.05639" lon="6.83455">
        <ele>1181</ele>
        <time>2020-06-05T08:50:06.000Z</time>
      </trkpt>
      <trkpt lat="44.05639" lon="6.83455">
        <ele>1181</ele>
        <time>2020-06-05T08:50:07.000Z</time>
      </trkpt>
      <trkpt lat="44.05639" lon="6.83455">
        <ele>1181</ele>
        <time>2020-06-05T08:50:08.000Z</time>
      </trkpt>
      <trkpt lat="44.05639" lon="6.83455">
        <ele>1181</ele>
        <time>2020-06-05T08:50:09.000Z</time>
      </trkpt>
      <trkpt lat="44.05639" lon="6.83455">
        <ele>1181</ele>
        <time>2020-06-05T08:50:10.000Z</time>
      </trkpt>
      <trkpt lat="44.05639" lon="6.83455">
        <ele>1181</ele>
        <time>2020-06-05T08:50:11.000Z</time>
      </trkpt>
      <trkpt lat="44.05639" lon="6.83455">
        <ele>1181</ele>
        <time>2020-06-05T08:50:12.000Z</time>
      </trkpt>
      <trkpt lat="44.05639" lon="6.83455">
        <ele>1181</ele>
        <time>2020-06-05T08:50:13.000Z</time>
      </trkpt>
      <trkpt lat="44.05638" lon="6.83455">
        <ele>1181</ele>
        <time>2020-06-05T08:50:14.000Z</time>
      </trkpt>
      <trkpt lat="44.05638" lon="6.83454">
        <ele>1181</ele>
        <time>2020-06-05T08:50:15.000Z</time>
      </trkpt>
      <trkpt lat="44.05638" lon="6.83454">
        <ele>1181</ele>
        <time>2020-06-05T08:50:16.000Z</time>
      </trkpt>
      <trkpt lat="44.05638" lon="6.83454">
        <ele>1181</ele>
        <time>2020-06-05T08:50:17.000Z</time>
      </trkpt>
      <trkpt lat="44.05638" lon="6.83454">
        <ele>1181</ele>
        <time>2020-06-05T08:50:18.000Z</time>
      </trkpt>
      <trkpt lat="44.05638" lon="6.83454">
        <ele>1181</ele>
        <time>2020-06-05T08:50:19.000Z</time>
      </trkpt>
      <trkpt lat="44.05638" lon="6.83454">
        <ele>1181</ele>
        <time>2020-06-05T08:50:20.000Z</time>
      </trkpt>
      <trkpt lat="44.05638" lon="6.83454">
        <ele>1181</ele>
        <time>2020-06-05T08:50:21.000Z</time>
      </trkpt>
      <trkpt lat="44.05638" lon="6.83454">
        <ele>1181</ele>
        <time>2020-06-05T08:50:22.000Z</time>
      </trkpt>
      <trkpt lat="44.05638" lon="6.83454">
        <ele>1181</ele>
        <time>2020-06-05T08:50:23.000Z</time>
      </trkpt>
      <trkpt lat="44.05638" lon="6.83454">
        <ele>1181</ele>
        <time>2020-06-05T08:50:24.000Z</time>
      </trkpt>
      <trkpt lat="44.05638" lon="6.83453">
        <ele>1181</ele>
        <time>2020-06-05T08:50:25.000Z</time>
      </trkpt>
      <trkpt lat="44.05638" lon="6.83453">
        <ele>1181</ele>
        <time>2020-06-05T08:50:26.000Z</time>
      </trkpt>
      <trkpt lat="44.05638" lon="6.83453">
        <ele>1181</ele>
        <time>2020-06-05T08:50:27.000Z</time>
      </trkpt>
      <trkpt lat="44.05638" lon="6.83453">
        <ele>1181</ele>
        <time>2020-06-05T08:50:28.000Z</time>
      </trkpt>
      <trkpt lat="44.05638" lon="6.83453">
        <ele>1181</ele>
        <time>2020-06-05T08:50:29.000Z</time>
      </trkpt>
      <trkpt lat="44.05638" lon="6.83453">
        <ele>1181</ele>
        <time>2020-06-05T08:50:30.000Z</time>
      </trkpt>
      <trkpt lat="44.05638" lon="6.83453">
        <ele>1181</ele>
        <time>2020-06-05T08:50:31.000Z</time>
      </trkpt>
      <trkpt lat="44.05638" lon="6.83453">
        <ele>1181</ele>
        <time>2020-06-05T08:50:32.000Z</time>
      </trkpt>
      <trkpt lat="44.05638" lon="6.83453">
        <ele>1182</ele>
        <time>2020-06-05T08:50:33.000Z</time>
      </trkpt>
      <trkpt lat="44.05638" lon="6.83453">
        <ele>1182</ele>
        <time>2020-06-05T08:50:34.000Z</time>
      </trkpt>
      <trkpt lat="44.05638" lon="6.83453">
        <ele>1182</ele>
        <time>2020-06-05T08:50:35.000Z</time>
      </trkpt>
      <trkpt lat="44.05638" lon="6.83453">
        <ele>1181</ele>
        <time>2020-06-05T08:50:36.000Z</time>
      </trkpt>
      <trkpt lat="44.05638" lon="6.83454">
        <ele>1181</ele>
        <time>2020-06-05T08:50:37.000Z</time>
      </trkpt>
      <trkpt lat="44.05638" lon="6.83453">
        <ele>1181</ele>
        <time>2020-06-05T08:50:38.000Z</time>
      </trkpt>
      <trkpt lat="44.05638" lon="6.83452">
        <ele>1181</ele>
        <time>2020-06-05T08:50:39.000Z</time>
      </trkpt>
      <trkpt lat="44.05637" lon="6.83452">
        <ele>1181</ele>
        <time>2020-06-05T08:50:40.000Z</time>
      </trkpt>
      <trkpt lat="44.05637" lon="6.83451">
        <ele>1182</ele>
        <time>2020-06-05T08:50:41.000Z</time>
      </trkpt>
      <trkpt lat="44.05636" lon="6.83451">
        <ele>1182</ele>
        <time>2020-06-05T08:50:42.000Z</time>
      </trkpt>
      <trkpt lat="44.05636" lon="6.8345">
        <ele>1182</ele>
        <time>2020-06-05T08:50:43.000Z</time>
      </trkpt>
      <trkpt lat="44.05635" lon="6.8345">
        <ele>1182</ele>
        <time>2020-06-05T08:50:44.000Z</time>
      </trkpt>
      <trkpt lat="44.05634" lon="6.8345">
        <ele>1182</ele>
        <time>2020-06-05T08:50:45.000Z</time>
      </trkpt>
      <trkpt lat="44.05633" lon="6.8345">
        <ele>1182</ele>
        <time>2020-06-05T08:50:46.000Z</time>
      </trkpt>
      <trkpt lat="44.05632" lon="6.83449">
        <ele>1182</ele>
        <time>2020-06-05T08:50:47.000Z</time>
      </trkpt>
      <trkpt lat="44.05631" lon="6.83448">
        <ele>1182</ele>
        <time>2020-06-05T08:50:48.000Z</time>
      </trkpt>
      <trkpt lat="44.05631" lon="6.83448">
        <ele>1182</ele>
        <time>2020-06-05T08:50:49.000Z</time>
      </trkpt>
      <trkpt lat="44.0563" lon="6.83448">
        <ele>1182</ele>
        <time>2020-06-05T08:50:50.000Z</time>
      </trkpt>
      <trkpt lat="44.05629" lon="6.83448">
        <ele>1182</ele>
        <time>2020-06-05T08:50:51.000Z</time>
      </trkpt>
      <trkpt lat="44.05628" lon="6.83447">
        <ele>1182</ele>
        <time>2020-06-05T08:50:52.000Z</time>
      </trkpt>
      <trkpt lat="44.05628" lon="6.83447">
        <ele>1182</ele>
        <time>2020-06-05T08:50:53.000Z</time>
      </trkpt>
      <trkpt lat="44.05627" lon="6.83447">
        <ele>1182</ele>
        <time>2020-06-05T08:50:54.000Z</time>
      </trkpt>
      <trkpt lat="44.05626" lon="6.83446">
        <ele>1182</ele>
        <time>2020-06-05T08:50:55.000Z</time>
      </trkpt>
      <trkpt lat="44.05625" lon="6.83446">
        <ele>1182</ele>
        <time>2020-06-05T08:50:56.000Z</time>
      </trkpt>
      <trkpt lat="44.05624" lon="6.83445">
        <ele>1181</ele>
        <time>2020-06-05T08:50:57.000Z</time>
      </trkpt>
      <trkpt lat="44.05623" lon="6.83445">
        <ele>1181</ele>
        <time>2020-06-05T08:50:58.000Z</time>
      </trkpt>
      <trkpt lat="44.05622" lon="6.83444">
        <ele>1181</ele>
        <time>2020-06-05T08:50:59.000Z</time>
      </trkpt>
      <trkpt lat="44.05622" lon="6.83444">
        <ele>1181</ele>
        <time>2020-06-05T08:51:00.000Z</time>
      </trkpt>
      <trkpt lat="44.05621" lon="6.83443">
        <ele>1181</ele>
        <time>2020-06-05T08:51:01.000Z</time>
      </trkpt>
      <trkpt lat="44.0562" lon="6.83442">
        <ele>1181</ele>
        <time>2020-06-05T08:51:02.000Z</time>
      </trkpt>
      <trkpt lat="44.05619" lon="6.83442">
        <ele>1181</ele>
        <time>2020-06-05T08:51:03.000Z</time>
      </trkpt>
      <trkpt lat="44.05618" lon="6.83441">
        <ele>1181</ele>
        <time>2020-06-05T08:51:04.000Z</time>
      </trkpt>
      <trkpt lat="44.05617" lon="6.8344">
        <ele>1181</ele>
        <time>2020-06-05T08:51:05.000Z</time>
      </trkpt>
      <trkpt lat="44.05617" lon="6.8344">
        <ele>1181</ele>
        <time>2020-06-05T08:51:06.000Z</time>
      </trkpt>
      <trkpt lat="44.05616" lon="6.83439">
        <ele>1181</ele>
        <time>2020-06-05T08:51:07.000Z</time>
      </trkpt>
      <trkpt lat="44.05615" lon="6.83439">
        <ele>1180</ele>
        <time>2020-06-05T08:51:08.000Z</time>
      </trkpt>
      <trkpt lat="44.05614" lon="6.83438">
        <ele>1180</ele>
        <time>2020-06-05T08:51:09.000Z</time>
      </trkpt>
      <trkpt lat="44.05614" lon="6.83438">
        <ele>1180</ele>
        <time>2020-06-05T08:51:10.000Z</time>
      </trkpt>
      <trkpt lat="44.05613" lon="6.83437">
        <ele>1180</ele>
        <time>2020-06-05T08:51:11.000Z</time>
      </trkpt>
      <trkpt lat="44.05612" lon="6.83437">
        <ele>1180</ele>
        <time>2020-06-05T08:51:12.000Z</time>
      </trkpt>
      <trkpt lat="44.05611" lon="6.83436">
        <ele>1180</ele>
        <time>2020-06-05T08:51:13.000Z</time>
      </trkpt>
      <trkpt lat="44.05611" lon="6.83435">
        <ele>1180</ele>
        <time>2020-06-05T08:51:14.000Z</time>
      </trkpt>
      <trkpt lat="44.0561" lon="6.83435">
        <ele>1180</ele>
        <time>2020-06-05T08:51:15.000Z</time>
      </trkpt>
      <trkpt lat="44.05609" lon="6.83434">
        <ele>1180</ele>
        <time>2020-06-05T08:51:16.000Z</time>
      </trkpt>
      <trkpt lat="44.05608" lon="6.83434">
        <ele>1180</ele>
        <time>2020-06-05T08:51:17.000Z</time>
      </trkpt>
      <trkpt lat="44.05608" lon="6.83434">
        <ele>1180</ele>
        <time>2020-06-05T08:51:18.000Z</time>
      </trkpt>
      <trkpt lat="44.05607" lon="6.83434">
        <ele>1180</ele>
        <time>2020-06-05T08:51:19.000Z</time>
      </trkpt>
      <trkpt lat="44.05606" lon="6.83434">
        <ele>1180</ele>
        <time>2020-06-05T08:51:20.000Z</time>
      </trkpt>
      <trkpt lat="44.05605" lon="6.83433">
        <ele>1180</ele>
        <time>2020-06-05T08:51:21.000Z</time>
      </trkpt>
      <trkpt lat="44.05604" lon="6.83433">
        <ele>1180</ele>
        <time>2020-06-05T08:51:22.000Z</time>
      </trkpt>
      <trkpt lat="44.05603" lon="6.83432">
        <ele>1180</ele>
        <time>2020-06-05T08:51:23.000Z</time>
      </trkpt>
      <trkpt lat="44.05602" lon="6.83432">
        <ele>1180</ele>
        <time>2020-06-05T08:51:24.000Z</time>
      </trkpt>
      <trkpt lat="44.05601" lon="6.83431">
        <ele>1180</ele>
        <time>2020-06-05T08:51:25.000Z</time>
      </trkpt>
      <trkpt lat="44.056" lon="6.83431">
        <ele>1180</ele>
        <time>2020-06-05T08:51:26.000Z</time>
      </trkpt>
      <trkpt lat="44.05599" lon="6.8343">
        <ele>1180</ele>
        <time>2020-06-05T08:51:27.000Z</time>
      </trkpt>
      <trkpt lat="44.05598" lon="6.8343">
        <ele>1180</ele>
        <time>2020-06-05T08:51:28.000Z</time>
      </trkpt>
      <trkpt lat="44.05597" lon="6.8343">
        <ele>1180</ele>
        <time>2020-06-05T08:51:29.000Z</time>
      </trkpt>
      <trkpt lat="44.05597" lon="6.83429">
        <ele>1180</ele>
        <time>2020-06-05T08:51:30.000Z</time>
      </trkpt>
      <trkpt lat="44.05596" lon="6.83429">
        <ele>1180</ele>
        <time>2020-06-05T08:51:31.000Z</time>
      </trkpt>
      <trkpt lat="44.05596" lon="6.83429">
        <ele>1180</ele>
        <time>2020-06-05T08:51:32.000Z</time>
      </trkpt>
      <trkpt lat="44.05596" lon="6.83429">
        <ele>1180</ele>
        <time>2020-06-05T08:51:33.000Z</time>
      </trkpt>
      <trkpt lat="44.05596" lon="6.83429">
        <ele>1180</ele>
        <time>2020-06-05T08:51:34.000Z</time>
      </trkpt>
      <trkpt lat="44.05596" lon="6.83429">
        <ele>1180</ele>
        <time>2020-06-05T08:51:35.000Z</time>
      </trkpt>
      <trkpt lat="44.05596" lon="6.83429">
        <ele>1180</ele>
        <time>2020-06-05T08:51:36.000Z</time>
      </trkpt>
      <trkpt lat="44.05596" lon="6.83429">
        <ele>1180</ele>
        <time>2020-06-05T08:51:37.000Z</time>
      </trkpt>
      <trkpt lat="44.05596" lon="6.83429">
        <ele>1180</ele>
        <time>2020-06-05T08:51:38.000Z</time>
      </trkpt>
      <trkpt lat="44.05596" lon="6.83429">
        <ele>1180</ele>
        <time>2020-06-05T08:51:39.000Z</time>
      </trkpt>
      <trkpt lat="44.05596" lon="6.83429">
        <ele>1180</ele>
        <time>2020-06-05T08:51:40.000Z</time>
      </trkpt>
      <trkpt lat="44.05596" lon="6.83429">
        <ele>1180</ele>
        <time>2020-06-05T08:51:41.000Z</time>
      </trkpt>
      <trkpt lat="44.05596" lon="6.83429">
        <ele>1180</ele>
        <time>2020-06-05T08:51:42.000Z</time>
      </trkpt>
      <trkpt lat="44.05596" lon="6.83428">
        <ele>1180</ele>
        <time>2020-06-05T08:51:43.000Z</time>
      </trkpt>
      <trkpt lat="44.05595" lon="6.83428">
        <ele>1180</ele>
        <time>2020-06-05T08:51:44.000Z</time>
      </trkpt>
      <trkpt lat="44.05595" lon="6.83427">
        <ele>1180</ele>
        <time>2020-06-05T08:51:45.000Z</time>
      </trkpt>
      <trkpt lat="44.05594" lon="6.83427">
        <ele>1180</ele>
        <time>2020-06-05T08:51:46.000Z</time>
      </trkpt>
      <trkpt lat="44.05593" lon="6.83426">
        <ele>1180</ele>
        <time>2020-06-05T08:51:47.000Z</time>
      </trkpt>
      <trkpt lat="44.05593" lon="6.83425">
        <ele>1180</ele>
        <time>2020-06-05T08:51:48.000Z</time>
      </trkpt>
      <trkpt lat="44.05592" lon="6.83424">
        <ele>1180</ele>
        <time>2020-06-05T08:51:49.000Z</time>
      </trkpt>
      <trkpt lat="44.05591" lon="6.83424">
        <ele>1180</ele>
        <time>2020-06-05T08:51:50.000Z</time>
      </trkpt>
      <trkpt lat="44.0559" lon="6.83423">
        <ele>1179</ele>
        <time>2020-06-05T08:51:51.000Z</time>
      </trkpt>
      <trkpt lat="44.0559" lon="6.83422">
        <ele>1179</ele>
        <time>2020-06-05T08:51:52.000Z</time>
      </trkpt>
      <trkpt lat="44.05589" lon="6.83421">
        <ele>1179</ele>
        <time>2020-06-05T08:51:53.000Z</time>
      </trkpt>
      <trkpt lat="44.05588" lon="6.8342">
        <ele>1179</ele>
        <time>2020-06-05T08:51:54.000Z</time>
      </trkpt>
      <trkpt lat="44.05588" lon="6.8342">
        <ele>1179</ele>
        <time>2020-06-05T08:51:55.000Z</time>
      </trkpt>
      <trkpt lat="44.05588" lon="6.83419">
        <ele>1179</ele>
        <time>2020-06-05T08:51:56.000Z</time>
      </trkpt>
      <trkpt lat="44.05588" lon="6.83419">
        <ele>1179</ele>
        <time>2020-06-05T08:51:57.000Z</time>
      </trkpt>
      <trkpt lat="44.05588" lon="6.83419">
        <ele>1179</ele>
        <time>2020-06-05T08:51:58.000Z</time>
      </trkpt>
      <trkpt lat="44.05588" lon="6.83419">
        <ele>1179</ele>
        <time>2020-06-05T08:51:59.000Z</time>
      </trkpt>
      <trkpt lat="44.05587" lon="6.83419">
        <ele>1179</ele>
        <time>2020-06-05T08:52:00.000Z</time>
      </trkpt>
      <trkpt lat="44.05587" lon="6.83419">
        <ele>1179</ele>
        <time>2020-06-05T08:52:01.000Z</time>
      </trkpt>
      <trkpt lat="44.05587" lon="6.83418">
        <ele>1179</ele>
        <time>2020-06-05T08:52:02.000Z</time>
      </trkpt>
      <trkpt lat="44.05587" lon="6.83418">
        <ele>1179</ele>
        <time>2020-06-05T08:52:03.000Z</time>
      </trkpt>
      <trkpt lat="44.05587" lon="6.83417">
        <ele>1179</ele>
        <time>2020-06-05T08:52:04.000Z</time>
      </trkpt>
      <trkpt lat="44.05587" lon="6.83416">
        <ele>1179</ele>
        <time>2020-06-05T08:52:05.000Z</time>
      </trkpt>
      <trkpt lat="44.05587" lon="6.83416">
        <ele>1179</ele>
        <time>2020-06-05T08:52:06.000Z</time>
      </trkpt>
      <trkpt lat="44.05587" lon="6.83416">
        <ele>1179</ele>
        <time>2020-06-05T08:52:07.000Z</time>
      </trkpt>
      <trkpt lat="44.05587" lon="6.83416">
        <ele>1179</ele>
        <time>2020-06-05T08:52:08.000Z</time>
      </trkpt>
      <trkpt lat="44.05587" lon="6.83416">
        <ele>1179</ele>
        <time>2020-06-05T08:52:09.000Z</time>
      </trkpt>
      <trkpt lat="44.05587" lon="6.83416">
        <ele>1179</ele>
        <time>2020-06-05T08:52:10.000Z</time>
      </trkpt>
      <trkpt lat="44.05587" lon="6.83416">
        <ele>1179</ele>
        <time>2020-06-05T08:52:11.000Z</time>
      </trkpt>
      <trkpt lat="44.05587" lon="6.83416">
        <ele>1179</ele>
        <time>2020-06-05T08:52:12.000Z</time>
      </trkpt>
      <trkpt lat="44.05587" lon="6.83416">
        <ele>1179</ele>
        <time>2020-06-05T08:52:13.000Z</time>
      </trkpt>
      <trkpt lat="44.05587" lon="6.83416">
        <ele>1179</ele>
        <time>2020-06-05T08:52:14.000Z</time>
      </trkpt>
      <trkpt lat="44.05587" lon="6.83416">
        <ele>1179</ele>
        <time>2020-06-05T08:52:15.000Z</time>
      </trkpt>
      <trkpt lat="44.05587" lon="6.83416">
        <ele>1179</ele>
        <time>2020-06-05T08:52:16.000Z</time>
      </trkpt>
      <trkpt lat="44.05587" lon="6.83416">
        <ele>1179</ele>
        <time>2020-06-05T08:52:17.000Z</time>
      </trkpt>
      <trkpt lat="44.05587" lon="6.83416">
        <ele>1179</ele>
        <time>2020-06-05T08:52:18.000Z</time>
      </trkpt>
      <trkpt lat="44.05587" lon="6.83415">
        <ele>1179</ele>
        <time>2020-06-05T08:52:19.000Z</time>
      </trkpt>
      <trkpt lat="44.05587" lon="6.83415">
        <ele>1179</ele>
        <time>2020-06-05T08:52:20.000Z</time>
      </trkpt>
      <trkpt lat="44.05588" lon="6.83414">
        <ele>1179</ele>
        <time>2020-06-05T08:52:21.000Z</time>
      </trkpt>
      <trkpt lat="44.05588" lon="6.83414">
        <ele>1179</ele>
        <time>2020-06-05T08:52:22.000Z</time>
      </trkpt>
      <trkpt lat="44.05588" lon="6.83414">
        <ele>1179</ele>
        <time>2020-06-05T08:52:23.000Z</time>
      </trkpt>
      <trkpt lat="44.05588" lon="6.83414">
        <ele>1179</ele>
        <time>2020-06-05T08:52:24.000Z</time>
      </trkpt>
      <trkpt lat="44.05588" lon="6.83414">
        <ele>1179</ele>
        <time>2020-06-05T08:52:25.000Z</time>
      </trkpt>
      <trkpt lat="44.05588" lon="6.83414">
        <ele>1179</ele>
        <time>2020-06-05T08:52:26.000Z</time>
      </trkpt>
      <trkpt lat="44.05588" lon="6.83414">
        <ele>1179</ele>
        <time>2020-06-05T08:52:27.000Z</time>
      </trkpt>
      <trkpt lat="44.05588" lon="6.83414">
        <ele>1179</ele>
        <time>2020-06-05T08:52:28.000Z</time>
      </trkpt>
      <trkpt lat="44.05588" lon="6.83414">
        <ele>1179</ele>
        <time>2020-06-05T08:52:29.000Z</time>
      </trkpt>
      <trkpt lat="44.05588" lon="6.83414">
        <ele>1179</ele>
        <time>2020-06-05T08:52:30.000Z</time>
      </trkpt>
      <trkpt lat="44.05588" lon="6.83414">
        <ele>1179</ele>
        <time>2020-06-05T08:52:31.000Z</time>
      </trkpt>
      <trkpt lat="44.05588" lon="6.83414">
        <ele>1179</ele>
        <time>2020-06-05T08:52:32.000Z</time>
      </trkpt>
      <trkpt lat="44.05588" lon="6.83414">
        <ele>1179</ele>
        <time>2020-06-05T08:52:33.000Z</time>
      </trkpt>
      <trkpt lat="44.05588" lon="6.83414">
        <ele>1179</ele>
        <time>2020-06-05T08:52:34.000Z</time>
      </trkpt>
      <trkpt lat="44.05588" lon="6.83414">
        <ele>1179</ele>
        <time>2020-06-05T08:52:35.000Z</time>
      </trkpt>
      <trkpt lat="44.05588" lon="6.83414">
        <ele>1179</ele>
        <time>2020-06-05T08:52:36.000Z</time>
      </trkpt>
      <trkpt lat="44.05588" lon="6.83414">
        <ele>1179</ele>
        <time>2020-06-05T08:52:37.000Z</time>
      </trkpt>
      <trkpt lat="44.05588" lon="6.83414">
        <ele>1179</ele>
        <time>2020-06-05T08:52:38.000Z</time>
      </trkpt>
      <trkpt lat="44.05588" lon="6.83414">
        <ele>1179</ele>
        <time>2020-06-05T08:52:39.000Z</time>
      </trkpt>
      <trkpt lat="44.05588" lon="6.83415">
        <ele>1179</ele>
        <time>2020-06-05T08:52:40.000Z</time>
      </trkpt>
      <trkpt lat="44.05588" lon="6.83414">
        <ele>1179</ele>
        <time>2020-06-05T08:52:41.000Z</time>
      </trkpt>
      <trkpt lat="44.05588" lon="6.83414">
        <ele>1179</ele>
        <time>2020-06-05T08:52:42.000Z</time>
      </trkpt>
      <trkpt lat="44.05588" lon="6.83414">
        <ele>1179</ele>
        <time>2020-06-05T08:52:43.000Z</time>
      </trkpt>
      <trkpt lat="44.05588" lon="6.83414">
        <ele>1179</ele>
        <time>2020-06-05T08:52:44.000Z</time>
      </trkpt>
      <trkpt lat="44.05588" lon="6.83414">
        <ele>1179</ele>
        <time>2020-06-05T08:52:45.000Z</time>
      </trkpt>
      <trkpt lat="44.05588" lon="6.83414">
        <ele>1179</ele>
        <time>2020-06-05T08:52:46.000Z</time>
      </trkpt>
      <trkpt lat="44.05588" lon="6.83414">
        <ele>1179</ele>
        <time>2020-06-05T08:52:47.000Z</time>
      </trkpt>
      <trkpt lat="44.05588" lon="6.83414">
        <ele>1179</ele>
        <time>2020-06-05T08:52:48.000Z</time>
      </trkpt>
      <trkpt lat="44.05588" lon="6.83414">
        <ele>1179</ele>
        <time>2020-06-05T08:52:49.000Z</time>
      </trkpt>
      <trkpt lat="44.05588" lon="6.83415">
        <ele>1179</ele>
        <time>2020-06-05T08:52:50.000Z</time>
      </trkpt>
      <trkpt lat="44.05588" lon="6.83415">
        <ele>1179</ele>
        <time>2020-06-05T08:52:51.000Z</time>
      </trkpt>
      <trkpt lat="44.05588" lon="6.83415">
        <ele>1179</ele>
        <time>2020-06-05T08:52:52.000Z</time>
      </trkpt>
      <trkpt lat="44.05588" lon="6.83415">
        <ele>1179</ele>
        <time>2020-06-05T08:52:53.000Z</time>
      </trkpt>
      <trkpt lat="44.05588" lon="6.83415">
        <ele>1179</ele>
        <time>2020-06-05T08:52:54.000Z</time>
      </trkpt>
      <trkpt lat="44.05588" lon="6.83415">
        <ele>1179</ele>
        <time>2020-06-05T08:52:55.000Z</time>
      </trkpt>
      <trkpt lat="44.05588" lon="6.83415">
        <ele>1179</ele>
        <time>2020-06-05T08:52:56.000Z</time>
      </trkpt>
      <trkpt lat="44.05588" lon="6.83415">
        <ele>1179</ele>
        <time>2020-06-05T08:52:57.000Z</time>
      </trkpt>
      <trkpt lat="44.05588" lon="6.83415">
        <ele>1179</ele>
        <time>2020-06-05T08:52:58.000Z</time>
      </trkpt>
      <trkpt lat="44.05588" lon="6.83415">
        <ele>1179</ele>
        <time>2020-06-05T08:52:59.000Z</time>
      </trkpt>
      <trkpt lat="44.05588" lon="6.83415">
        <ele>1179</ele>
        <time>2020-06-05T08:53:00.000Z</time>
      </trkpt>
      <trkpt lat="44.05588" lon="6.83415">
        <ele>1179</ele>
        <time>2020-06-05T08:53:01.000Z</time>
      </trkpt>
      <trkpt lat="44.05588" lon="6.83415">
        <ele>1179</ele>
        <time>2020-06-05T08:53:02.000Z</time>
      </trkpt>
      <trkpt lat="44.05588" lon="6.83415">
        <ele>1179</ele>
        <time>2020-06-05T08:53:03.000Z</time>
      </trkpt>
      <trkpt lat="44.05588" lon="6.83415">
        <ele>1179</ele>
        <time>2020-06-05T08:53:04.000Z</time>
      </trkpt>
      <trkpt lat="44.05588" lon="6.83415">
        <ele>1179</ele>
        <time>2020-06-05T08:53:05.000Z</time>
      </trkpt>
      <trkpt lat="44.05588" lon="6.83415">
        <ele>1179</ele>
        <time>2020-06-05T08:53:06.000Z</time>
      </trkpt>
      <trkpt lat="44.05588" lon="6.83415">
        <ele>1179</ele>
        <time>2020-06-05T08:53:07.000Z</time>
      </trkpt>
      <trkpt lat="44.05588" lon="6.83415">
        <ele>1179</ele>
        <time>2020-06-05T08:53:08.000Z</time>
      </trkpt>
      <trkpt lat="44.05588" lon="6.83415">
        <ele>1179</ele>
        <time>2020-06-05T08:53:09.000Z</time>
      </trkpt>
      <trkpt lat="44.05588" lon="6.83415">
        <ele>1179</ele>
        <time>2020-06-05T08:53:10.000Z</time>
      </trkpt>
      <trkpt lat="44.05588" lon="6.83415">
        <ele>1179</ele>
        <time>2020-06-05T08:53:11.000Z</time>
      </trkpt>
      <trkpt lat="44.05588" lon="6.83415">
        <ele>1179</ele>
        <time>2020-06-05T08:53:12.000Z</time>
      </trkpt>
      <trkpt lat="44.05588" lon="6.83416">
        <ele>1179</ele>
        <time>2020-06-05T08:53:13.000Z</time>
      </trkpt>
      <trkpt lat="44.05588" lon="6.83416">
        <ele>1179</ele>
        <time>2020-06-05T08:53:14.000Z</time>
      </trkpt>
      <trkpt lat="44.05588" lon="6.83416">
        <ele>1179</ele>
        <time>2020-06-05T08:53:15.000Z</time>
      </trkpt>
      <trkpt lat="44.05588" lon="6.83416">
        <ele>1179</ele>
        <time>2020-06-05T08:53:16.000Z</time>
      </trkpt>
      <trkpt lat="44.05588" lon="6.83416">
        <ele>1179</ele>
        <time>2020-06-05T08:53:17.000Z</time>
      </trkpt>
      <trkpt lat="44.05588" lon="6.83416">
        <ele>1179</ele>
        <time>2020-06-05T08:53:18.000Z</time>
      </trkpt>
      <trkpt lat="44.05588" lon="6.83416">
        <ele>1179</ele>
        <time>2020-06-05T08:53:19.000Z</time>
      </trkpt>
      <trkpt lat="44.05588" lon="6.83416">
        <ele>1179</ele>
        <time>2020-06-05T08:53:20.000Z</time>
      </trkpt>
      <trkpt lat="44.05588" lon="6.83416">
        <ele>1179</ele>
        <time>2020-06-05T08:53:21.000Z</time>
      </trkpt>
      <trkpt lat="44.05588" lon="6.83416">
        <ele>1179</ele>
        <time>2020-06-05T08:53:22.000Z</time>
      </trkpt>
      <trkpt lat="44.05588" lon="6.83416">
        <ele>1179</ele>
        <time>2020-06-05T08:53:23.000Z</time>
      </trkpt>
      <trkpt lat="44.05588" lon="6.83416">
        <ele>1179</ele>
        <time>2020-06-05T08:53:24.000Z</time>
      </trkpt>
      <trkpt lat="44.05588" lon="6.83416">
        <ele>1179</ele>
        <time>2020-06-05T08:53:25.000Z</time>
      </trkpt>
      <trkpt lat="44.05588" lon="6.83416">
        <ele>1179</ele>
        <time>2020-06-05T08:53:26.000Z</time>
      </trkpt>
      <trkpt lat="44.05588" lon="6.83416">
        <ele>1179</ele>
        <time>2020-06-05T08:53:27.000Z</time>
      </trkpt>
      <trkpt lat="44.05588" lon="6.83416">
        <ele>1179</ele>
        <time>2020-06-05T08:53:28.000Z</time>
      </trkpt>
      <trkpt lat="44.05588" lon="6.83416">
        <ele>1179</ele>
        <time>2020-06-05T08:53:29.000Z</time>
      </trkpt>
      <trkpt lat="44.05588" lon="6.83416">
        <ele>1179</ele>
        <time>2020-06-05T08:53:30.000Z</time>
      </trkpt>
      <trkpt lat="44.05588" lon="6.83416">
        <ele>1179</ele>
        <time>2020-06-05T08:53:31.000Z</time>
      </trkpt>
      <trkpt lat="44.05588" lon="6.83416">
        <ele>1179</ele>
        <time>2020-06-05T08:53:32.000Z</time>
      </trkpt>
      <trkpt lat="44.05588" lon="6.83416">
        <ele>1179</ele>
        <time>2020-06-05T08:53:33.000Z</time>
      </trkpt>
      <trkpt lat="44.05588" lon="6.83416">
        <ele>1179</ele>
        <time>2020-06-05T08:53:34.000Z</time>
      </trkpt>
      <trkpt lat="44.05588" lon="6.83416">
        <ele>1179</ele>
        <time>2020-06-05T08:53:35.000Z</time>
      </trkpt>
      <trkpt lat="44.05588" lon="6.83416">
        <ele>1179</ele>
        <time>2020-06-05T08:53:36.000Z</time>
      </trkpt>
      <trkpt lat="44.05588" lon="6.83416">
        <ele>1179</ele>
        <time>2020-06-05T08:53:37.000Z</time>
      </trkpt>
      <trkpt lat="44.05588" lon="6.83416">
        <ele>1179</ele>
        <time>2020-06-05T08:53:38.000Z</time>
      </trkpt>
      <trkpt lat="44.05588" lon="6.83416">
        <ele>1179</ele>
        <time>2020-06-05T08:53:39.000Z</time>
      </trkpt>
      <trkpt lat="44.05588" lon="6.83416">
        <ele>1179</ele>
        <time>2020-06-05T08:53:40.000Z</time>
      </trkpt>
      <trkpt lat="44.05588" lon="6.83416">
        <ele>1179</ele>
        <time>2020-06-05T08:53:41.000Z</time>
      </trkpt>
      <trkpt lat="44.05588" lon="6.83416">
        <ele>1179</ele>
        <time>2020-06-05T08:53:42.000Z</time>
      </trkpt>
      <trkpt lat="44.05587" lon="6.83416">
        <ele>1179</ele>
        <time>2020-06-05T08:53:43.000Z</time>
      </trkpt>
      <trkpt lat="44.05587" lon="6.83416">
        <ele>1179</ele>
        <time>2020-06-05T08:53:44.000Z</time>
      </trkpt>
      <trkpt lat="44.05587" lon="6.83416">
        <ele>1179</ele>
        <time>2020-06-05T08:53:45.000Z</time>
      </trkpt>
      <trkpt lat="44.05587" lon="6.83416">
        <ele>1179</ele>
        <time>2020-06-05T08:53:46.000Z</time>
      </trkpt>
      <trkpt lat="44.05587" lon="6.83416">
        <ele>1179</ele>
        <time>2020-06-05T08:53:47.000Z</time>
      </trkpt>
      <trkpt lat="44.05587" lon="6.83416">
        <ele>1179</ele>
        <time>2020-06-05T08:53:48.000Z</time>
      </trkpt>
      <trkpt lat="44.05587" lon="6.83416">
        <ele>1179</ele>
        <time>2020-06-05T08:53:49.000Z</time>
      </trkpt>
      <trkpt lat="44.05587" lon="6.83416">
        <ele>1179</ele>
        <time>2020-06-05T08:53:50.000Z</time>
      </trkpt>
      <trkpt lat="44.05587" lon="6.83416">
        <ele>1179</ele>
        <time>2020-06-05T08:53:51.000Z</time>
      </trkpt>
      <trkpt lat="44.05588" lon="6.83416">
        <ele>1179</ele>
        <time>2020-06-05T08:53:52.000Z</time>
      </trkpt>
      <trkpt lat="44.05588" lon="6.83416">
        <ele>1179</ele>
        <time>2020-06-05T08:53:53.000Z</time>
      </trkpt>
      <trkpt lat="44.05588" lon="6.83416">
        <ele>1179</ele>
        <time>2020-06-05T08:53:54.000Z</time>
      </trkpt>
      <trkpt lat="44.05588" lon="6.83416">
        <ele>1179</ele>
        <time>2020-06-05T08:53:55.000Z</time>
      </trkpt>
      <trkpt lat="44.05588" lon="6.83416">
        <ele>1179</ele>
        <time>2020-06-05T08:53:56.000Z</time>
      </trkpt>
      <trkpt lat="44.05587" lon="6.83416">
        <ele>1179</ele>
        <time>2020-06-05T08:53:57.000Z</time>
      </trkpt>
      <trkpt lat="44.05587" lon="6.83416">
        <ele>1179</ele>
        <time>2020-06-05T08:53:58.000Z</time>
      </trkpt>
      <trkpt lat="44.05587" lon="6.83416">
        <ele>1179</ele>
        <time>2020-06-05T08:53:59.000Z</time>
      </trkpt>
      <trkpt lat="44.05587" lon="6.83416">
        <ele>1179</ele>
        <time>2020-06-05T08:54:00.000Z</time>
      </trkpt>
      <trkpt lat="44.05587" lon="6.83416">
        <ele>1179</ele>
        <time>2020-06-05T08:54:01.000Z</time>
      </trkpt>
      <trkpt lat="44.05587" lon="6.83416">
        <ele>1179</ele>
        <time>2020-06-05T08:54:02.000Z</time>
      </trkpt>
      <trkpt lat="44.05587" lon="6.83416">
        <ele>1179</ele>
        <time>2020-06-05T08:54:03.000Z</time>
      </trkpt>
      <trkpt lat="44.05587" lon="6.83416">
        <ele>1179</ele>
        <time>2020-06-05T08:54:04.000Z</time>
      </trkpt>
      <trkpt lat="44.05587" lon="6.83416">
        <ele>1179</ele>
        <time>2020-06-05T08:54:05.000Z</time>
      </trkpt>
      <trkpt lat="44.05587" lon="6.83416">
        <ele>1179</ele>
        <time>2020-06-05T08:54:06.000Z</time>
      </trkpt>
      <trkpt lat="44.05587" lon="6.83416">
        <ele>1179</ele>
        <time>2020-06-05T08:54:07.000Z</time>
      </trkpt>
      <trkpt lat="44.05587" lon="6.83416">
        <ele>1179</ele>
        <time>2020-06-05T08:54:08.000Z</time>
      </trkpt>
      <trkpt lat="44.05587" lon="6.83416">
        <ele>1179</ele>
        <time>2020-06-05T08:54:09.000Z</time>
      </trkpt>
      <trkpt lat="44.05587" lon="6.83416">
        <ele>1179</ele>
        <time>2020-06-05T08:54:10.000Z</time>
      </trkpt>
      <trkpt lat="44.05587" lon="6.83416">
        <ele>1179</ele>
        <time>2020-06-05T08:54:11.000Z</time>
      </trkpt>
      <trkpt lat="44.05587" lon="6.83416">
        <ele>1179</ele>
        <time>2020-06-05T08:54:12.000Z</time>
      </trkpt>
      <trkpt lat="44.05587" lon="6.83416">
        <ele>1179</ele>
        <time>2020-06-05T08:54:13.000Z</time>
      </trkpt>
      <trkpt lat="44.05587" lon="6.83416">
        <ele>1179</ele>
        <time>2020-06-05T08:54:14.000Z</time>
      </trkpt>
      <trkpt lat="44.05587" lon="6.83416">
        <ele>1179</ele>
        <time>2020-06-05T08:54:15.000Z</time>
      </trkpt>
      <trkpt lat="44.05587" lon="6.83416">
        <ele>1179</ele>
        <time>2020-06-05T08:54:16.000Z</time>
      </trkpt>
      <trkpt lat="44.05587" lon="6.83416">
        <ele>1179</ele>
        <time>2020-06-05T08:54:17.000Z</time>
      </trkpt>
      <trkpt lat="44.05587" lon="6.83416">
        <ele>1179</ele>
        <time>2020-06-05T08:54:18.000Z</time>
      </trkpt>
      <trkpt lat="44.05587" lon="6.83416">
        <ele>1179</ele>
        <time>2020-06-05T08:54:19.000Z</time>
      </trkpt>
      <trkpt lat="44.05587" lon="6.83416">
        <ele>1179</ele>
        <time>2020-06-05T08:54:20.000Z</time>
      </trkpt>
      <trkpt lat="44.05587" lon="6.83416">
        <ele>1179</ele>
        <time>2020-06-05T08:54:21.000Z</time>
      </trkpt>
      <trkpt lat="44.05587" lon="6.83416">
        <ele>1179</ele>
        <time>2020-06-05T08:54:22.000Z</time>
      </trkpt>
      <trkpt lat="44.05587" lon="6.83416">
        <ele>1179</ele>
        <time>2020-06-05T08:54:23.000Z</time>
      </trkpt>
      <trkpt lat="44.05587" lon="6.83416">
        <ele>1179</ele>
        <time>2020-06-05T08:54:24.000Z</time>
      </trkpt>
      <trkpt lat="44.05587" lon="6.83416">
        <ele>1179</ele>
        <time>2020-06-05T08:54:25.000Z</time>
      </trkpt>
      <trkpt lat="44.05587" lon="6.83416">
        <ele>1179</ele>
        <time>2020-06-05T08:54:26.000Z</time>
      </trkpt>
      <trkpt lat="44.05587" lon="6.83416">
        <ele>1179</ele>
        <time>2020-06-05T08:54:27.000Z</time>
      </trkpt>
      <trkpt lat="44.05587" lon="6.83416">
        <ele>1179</ele>
        <time>2020-06-05T08:54:28.000Z</time>
      </trkpt>
      <trkpt lat="44.05587" lon="6.83416">
        <ele>1179</ele>
        <time>2020-06-05T08:54:29.000Z</time>
      </trkpt>
      <trkpt lat="44.05587" lon="6.83416">
        <ele>1179</ele>
        <time>2020-06-05T08:54:30.000Z</time>
      </trkpt>
      <trkpt lat="44.05587" lon="6.83416">
        <ele>1179</ele>
        <time>2020-06-05T08:54:31.000Z</time>
      </trkpt>
      <trkpt lat="44.05587" lon="6.83416">
        <ele>1179</ele>
        <time>2020-06-05T08:54:32.000Z</time>
      </trkpt>
      <trkpt lat="44.05587" lon="6.83416">
        <ele>1179</ele>
        <time>2020-06-05T08:54:33.000Z</time>
      </trkpt>
      <trkpt lat="44.05587" lon="6.83416">
        <ele>1179</ele>
        <time>2020-06-05T08:54:34.000Z</time>
      </trkpt>
      <trkpt lat="44.05587" lon="6.83416">
        <ele>1179</ele>
        <time>2020-06-05T08:54:35.000Z</time>
      </trkpt>
      <trkpt lat="44.05587" lon="6.83416">
        <ele>1179</ele>
        <time>2020-06-05T08:54:36.000Z</time>
      </trkpt>
      <trkpt lat="44.05587" lon="6.83416">
        <ele>1179</ele>
        <time>2020-06-05T08:54:37.000Z</time>
      </trkpt>
      <trkpt lat="44.05587" lon="6.83416">
        <ele>1179</ele>
        <time>2020-06-05T08:54:38.000Z</time>
      </trkpt>
      <trkpt lat="44.05587" lon="6.83416">
        <ele>1179</ele>
        <time>2020-06-05T08:54:39.000Z</time>
      </trkpt>
      <trkpt lat="44.05587" lon="6.83416">
        <ele>1179</ele>
        <time>2020-06-05T08:54:40.000Z</time>
      </trkpt>
      <trkpt lat="44.05587" lon="6.83416">
        <ele>1179</ele>
        <time>2020-06-05T08:54:41.000Z</time>
      </trkpt>
      <trkpt lat="44.05587" lon="6.83416">
        <ele>1179</ele>
        <time>2020-06-05T08:54:42.000Z</time>
      </trkpt>
      <trkpt lat="44.05587" lon="6.83416">
        <ele>1179</ele>
        <time>2020-06-05T08:54:43.000Z</time>
      </trkpt>
      <trkpt lat="44.05587" lon="6.83416">
        <ele>1179</ele>
        <time>2020-06-05T08:54:44.000Z</time>
      </trkpt>
      <trkpt lat="44.05587" lon="6.83416">
        <ele>1179</ele>
        <time>2020-06-05T08:54:45.000Z</time>
      </trkpt>
      <trkpt lat="44.05587" lon="6.83416">
        <ele>1179</ele>
        <time>2020-06-05T08:54:46.000Z</time>
      </trkpt>
      <trkpt lat="44.05587" lon="6.83416">
        <ele>1179</ele>
        <time>2020-06-05T08:54:47.000Z</time>
      </trkpt>
      <trkpt lat="44.05587" lon="6.83416">
        <ele>1179</ele>
        <time>2020-06-05T08:54:48.000Z</time>
      </trkpt>
      <trkpt lat="44.05587" lon="6.83416">
        <ele>1179</ele>
        <time>2020-06-05T08:54:49.000Z</time>
      </trkpt>
      <trkpt lat="44.05587" lon="6.83416">
        <ele>1179</ele>
        <time>2020-06-05T08:54:50.000Z</time>
      </trkpt>
      <trkpt lat="44.05587" lon="6.83416">
        <ele>1179</ele>
        <time>2020-06-05T08:54:51.000Z</time>
      </trkpt>
      <trkpt lat="44.05587" lon="6.83416">
        <ele>1179</ele>
        <time>2020-06-05T08:54:52.000Z</time>
      </trkpt>
      <trkpt lat="44.05587" lon="6.83416">
        <ele>1179</ele>
        <time>2020-06-05T08:54:53.000Z</time>
      </trkpt>
      <trkpt lat="44.05587" lon="6.83416">
        <ele>1179</ele>
        <time>2020-06-05T08:54:54.000Z</time>
      </trkpt>
      <trkpt lat="44.05587" lon="6.83416">
        <ele>1179</ele>
        <time>2020-06-05T08:54:55.000Z</time>
      </trkpt>
      <trkpt lat="44.05587" lon="6.83416">
        <ele>1179</ele>
        <time>2020-06-05T08:54:56.000Z</time>
      </trkpt>
      <trkpt lat="44.05587" lon="6.83416">
        <ele>1179</ele>
        <time>2020-06-05T08:54:57.000Z</time>
      </trkpt>
      <trkpt lat="44.05587" lon="6.83416">
        <ele>1179</ele>
        <time>2020-06-05T08:54:58.000Z</time>
      </trkpt>
      <trkpt lat="44.05587" lon="6.83416">
        <ele>1179</ele>
        <time>2020-06-05T08:54:59.000Z</time>
      </trkpt>
      <trkpt lat="44.05587" lon="6.83416">
        <ele>1179</ele>
        <time>2020-06-05T08:55:00.000Z</time>
      </trkpt>
      <trkpt lat="44.05587" lon="6.83416">
        <ele>1179</ele>
        <time>2020-06-05T08:55:01.000Z</time>
      </trkpt>
      <trkpt lat="44.05587" lon="6.83416">
        <ele>1179</ele>
        <time>2020-06-05T08:55:02.000Z</time>
      </trkpt>
      <trkpt lat="44.05587" lon="6.83416">
        <ele>1179</ele>
        <time>2020-06-05T08:55:03.000Z</time>
      </trkpt>
      <trkpt lat="44.05587" lon="6.83416">
        <ele>1179</ele>
        <time>2020-06-05T08:55:04.000Z</time>
      </trkpt>
      <trkpt lat="44.05587" lon="6.83416">
        <ele>1179</ele>
        <time>2020-06-05T08:55:05.000Z</time>
      </trkpt>
      <trkpt lat="44.05587" lon="6.83416">
        <ele>1179</ele>
        <time>2020-06-05T08:55:06.000Z</time>
      </trkpt>
      <trkpt lat="44.05587" lon="6.83416">
        <ele>1179</ele>
        <time>2020-06-05T08:55:07.000Z</time>
      </trkpt>
      <trkpt lat="44.05587" lon="6.83416">
        <ele>1179</ele>
        <time>2020-06-05T08:55:08.000Z</time>
      </trkpt>
      <trkpt lat="44.05587" lon="6.83416">
        <ele>1179</ele>
        <time>2020-06-05T08:55:09.000Z</time>
      </trkpt>
      <trkpt lat="44.05587" lon="6.83416">
        <ele>1179</ele>
        <time>2020-06-05T08:55:10.000Z</time>
      </trkpt>
      <trkpt lat="44.05587" lon="6.83416">
        <ele>1179</ele>
        <time>2020-06-05T08:55:11.000Z</time>
      </trkpt>
      <trkpt lat="44.05587" lon="6.83416">
        <ele>1179</ele>
        <time>2020-06-05T08:55:12.000Z</time>
      </trkpt>
      <trkpt lat="44.05587" lon="6.83416">
        <ele>1179</ele>
        <time>2020-06-05T08:55:13.000Z</time>
      </trkpt>
      <trkpt lat="44.05587" lon="6.83416">
        <ele>1179</ele>
        <time>2020-06-05T08:55:14.000Z</time>
      </trkpt>
      <trkpt lat="44.05587" lon="6.83416">
        <ele>1179</ele>
        <time>2020-06-05T08:55:15.000Z</time>
      </trkpt>
      <trkpt lat="44.05587" lon="6.83416">
        <ele>1179</ele>
        <time>2020-06-05T08:55:16.000Z</time>
      </trkpt>
      <trkpt lat="44.05587" lon="6.83416">
        <ele>1179</ele>
        <time>2020-06-05T08:55:17.000Z</time>
      </trkpt>
      <trkpt lat="44.05587" lon="6.83416">
        <ele>1179</ele>
        <time>2020-06-05T08:55:18.000Z</time>
      </trkpt>
      <trkpt lat="44.05587" lon="6.83416">
        <ele>1179</ele>
        <time>2020-06-05T08:55:19.000Z</time>
      </trkpt>
      <trkpt lat="44.05587" lon="6.83416">
        <ele>1179</ele>
        <time>2020-06-05T08:55:20.000Z</time>
      </trkpt>
      <trkpt lat="44.05587" lon="6.83416">
        <ele>1179</ele>
        <time>2020-06-05T08:55:21.000Z</time>
      </trkpt>
      <trkpt lat="44.05587" lon="6.83416">
        <ele>1179</ele>
        <time>2020-06-05T08:55:22.000Z</time>
      </trkpt>
      <trkpt lat="44.05587" lon="6.83416">
        <ele>1179</ele>
        <time>2020-06-05T08:55:23.000Z</time>
      </trkpt>
      <trkpt lat="44.05587" lon="6.83416">
        <ele>1179</ele>
        <time>2020-06-05T08:55:24.000Z</time>
      </trkpt>
      <trkpt lat="44.05587" lon="6.83416">
        <ele>1179</ele>
        <time>2020-06-05T08:55:25.000Z</time>
      </trkpt>
      <trkpt lat="44.05587" lon="6.83416">
        <ele>1179</ele>
        <time>2020-06-05T08:55:26.000Z</time>
      </trkpt>
      <trkpt lat="44.05587" lon="6.83416">
        <ele>1179</ele>
        <time>2020-06-05T08:55:27.000Z</time>
      </trkpt>
      <trkpt lat="44.05587" lon="6.83416">
        <ele>1179</ele>
        <time>2020-06-05T08:55:28.000Z</time>
      </trkpt>
      <trkpt lat="44.05587" lon="6.83416">
        <ele>1179</ele>
        <time>2020-06-05T08:55:29.000Z</time>
      </trkpt>
      <trkpt lat="44.05587" lon="6.83417">
        <ele>1179</ele>
        <time>2020-06-05T08:55:30.000Z</time>
      </trkpt>
      <trkpt lat="44.05587" lon="6.83417">
        <ele>1179</ele>
        <time>2020-06-05T08:55:31.000Z</time>
      </trkpt>
      <trkpt lat="44.05587" lon="6.83417">
        <ele>1179</ele>
        <time>2020-06-05T08:55:32.000Z</time>
      </trkpt>
      <trkpt lat="44.05587" lon="6.83417">
        <ele>1179</ele>
        <time>2020-06-05T08:55:33.000Z</time>
      </trkpt>
      <trkpt lat="44.05587" lon="6.83417">
        <ele>1179</ele>
        <time>2020-06-05T08:55:34.000Z</time>
      </trkpt>
      <trkpt lat="44.05587" lon="6.83417">
        <ele>1179</ele>
        <time>2020-06-05T08:55:35.000Z</time>
      </trkpt>
      <trkpt lat="44.05587" lon="6.83417">
        <ele>1179</ele>
        <time>2020-06-05T08:55:36.000Z</time>
      </trkpt>
      <trkpt lat="44.05587" lon="6.83417">
        <ele>1179</ele>
        <time>2020-06-05T08:55:37.000Z</time>
      </trkpt>
      <trkpt lat="44.05587" lon="6.83417">
        <ele>1179</ele>
        <time>2020-06-05T08:55:38.000Z</time>
      </trkpt>
      <trkpt lat="44.05587" lon="6.83417">
        <ele>1179</ele>
        <time>2020-06-05T08:55:39.000Z</time>
      </trkpt>
      <trkpt lat="44.05587" lon="6.83417">
        <ele>1179</ele>
        <time>2020-06-05T08:55:40.000Z</time>
      </trkpt>
      <trkpt lat="44.05587" lon="6.83417">
        <ele>1179</ele>
        <time>2020-06-05T08:55:41.000Z</time>
      </trkpt>
      <trkpt lat="44.05587" lon="6.83417">
        <ele>1179</ele>
        <time>2020-06-05T08:55:42.000Z</time>
      </trkpt>
      <trkpt lat="44.05587" lon="6.83417">
        <ele>1179</ele>
        <time>2020-06-05T08:55:43.000Z</time>
      </trkpt>
      <trkpt lat="44.05587" lon="6.83417">
        <ele>1179</ele>
        <time>2020-06-05T08:55:44.000Z</time>
      </trkpt>
      <trkpt lat="44.05587" lon="6.83417">
        <ele>1179</ele>
        <time>2020-06-05T08:55:45.000Z</time>
      </trkpt>
      <trkpt lat="44.05587" lon="6.83417">
        <ele>1179</ele>
        <time>2020-06-05T08:55:46.000Z</time>
      </trkpt>
      <trkpt lat="44.05587" lon="6.83417">
        <ele>1179</ele>
        <time>2020-06-05T08:55:47.000Z</time>
      </trkpt>
      <trkpt lat="44.05587" lon="6.83417">
        <ele>1179</ele>
        <time>2020-06-05T08:55:48.000Z</time>
      </trkpt>
      <trkpt lat="44.05587" lon="6.83417">
        <ele>1179</ele>
        <time>2020-06-05T08:55:49.000Z</time>
      </trkpt>
      <trkpt lat="44.05587" lon="6.83417">
        <ele>1179</ele>
        <time>2020-06-05T08:55:50.000Z</time>
      </trkpt>
      <trkpt lat="44.05587" lon="6.83417">
        <ele>1179</ele>
        <time>2020-06-05T08:55:51.000Z</time>
      </trkpt>
      <trkpt lat="44.05587" lon="6.83417">
        <ele>1179</ele>
        <time>2020-06-05T08:55:52.000Z</time>
      </trkpt>
      <trkpt lat="44.05587" lon="6.83417">
        <ele>1179</ele>
        <time>2020-06-05T08:55:53.000Z</time>
      </trkpt>
      <trkpt lat="44.05587" lon="6.83417">
        <ele>1179</ele>
        <time>2020-06-05T08:55:54.000Z</time>
      </trkpt>
      <trkpt lat="44.05587" lon="6.83417">
        <ele>1179</ele>
        <time>2020-06-05T08:55:55.000Z</time>
      </trkpt>
      <trkpt lat="44.05587" lon="6.83417">
        <ele>1179</ele>
        <time>2020-06-05T08:55:56.000Z</time>
      </trkpt>
      <trkpt lat="44.05587" lon="6.83417">
        <ele>1179</ele>
        <time>2020-06-05T08:55:57.000Z</time>
      </trkpt>
      <trkpt lat="44.05587" lon="6.83417">
        <ele>1179</ele>
        <time>2020-06-05T08:55:58.000Z</time>
      </trkpt>
      <trkpt lat="44.05587" lon="6.83417">
        <ele>1179</ele>
        <time>2020-06-05T08:55:59.000Z</time>
      </trkpt>
      <trkpt lat="44.05587" lon="6.83417">
        <ele>1179</ele>
        <time>2020-06-05T08:56:00.000Z</time>
      </trkpt>
      <trkpt lat="44.05587" lon="6.83417">
        <ele>1179</ele>
        <time>2020-06-05T08:56:01.000Z</time>
      </trkpt>
      <trkpt lat="44.05587" lon="6.83417">
        <ele>1179</ele>
        <time>2020-06-05T08:56:02.000Z</time>
      </trkpt>
      <trkpt lat="44.05587" lon="6.83417">
        <ele>1179</ele>
        <time>2020-06-05T08:56:03.000Z</time>
      </trkpt>
      <trkpt lat="44.05587" lon="6.83417">
        <ele>1179</ele>
        <time>2020-06-05T08:56:04.000Z</time>
      </trkpt>
      <trkpt lat="44.05587" lon="6.83417">
        <ele>1179</ele>
        <time>2020-06-05T08:56:05.000Z</time>
      </trkpt>
      <trkpt lat="44.05587" lon="6.83417">
        <ele>1179</ele>
        <time>2020-06-05T08:56:06.000Z</time>
      </trkpt>
      <trkpt lat="44.05587" lon="6.83417">
        <ele>1179</ele>
        <time>2020-06-05T08:56:07.000Z</time>
      </trkpt>
      <trkpt lat="44.05587" lon="6.83417">
        <ele>1179</ele>
        <time>2020-06-05T08:56:08.000Z</time>
      </trkpt>
      <trkpt lat="44.05587" lon="6.83417">
        <ele>1179</ele>
        <time>2020-06-05T08:56:09.000Z</time>
      </trkpt>
      <trkpt lat="44.05587" lon="6.83417">
        <ele>1179</ele>
        <time>2020-06-05T08:56:10.000Z</time>
      </trkpt>
      <trkpt lat="44.05587" lon="6.83417">
        <ele>1179</ele>
        <time>2020-06-05T08:56:11.000Z</time>
      </trkpt>
      <trkpt lat="44.05587" lon="6.83417">
        <ele>1179</ele>
        <time>2020-06-05T08:56:12.000Z</time>
      </trkpt>
      <trkpt lat="44.05587" lon="6.83417">
        <ele>1179</ele>
        <time>2020-06-05T08:56:13.000Z</time>
      </trkpt>
      <trkpt lat="44.05587" lon="6.83417">
        <ele>1179</ele>
        <time>2020-06-05T08:56:14.000Z</time>
      </trkpt>
      <trkpt lat="44.05587" lon="6.83417">
        <ele>1179</ele>
        <time>2020-06-05T08:56:15.000Z</time>
      </trkpt>
      <trkpt lat="44.05587" lon="6.83417">
        <ele>1179</ele>
        <time>2020-06-05T08:56:16.000Z</time>
      </trkpt>
      <trkpt lat="44.05587" lon="6.83417">
        <ele>1179</ele>
        <time>2020-06-05T08:56:17.000Z</time>
      </trkpt>
      <trkpt lat="44.05587" lon="6.83417">
        <ele>1179</ele>
        <time>2020-06-05T08:56:18.000Z</time>
      </trkpt>
      <trkpt lat="44.05587" lon="6.83417">
        <ele>1179</ele>
        <time>2020-06-05T08:56:19.000Z</time>
      </trkpt>
      <trkpt lat="44.05587" lon="6.83417">
        <ele>1179</ele>
        <time>2020-06-05T08:56:20.000Z</time>
      </trkpt>
      <trkpt lat="44.05587" lon="6.83417">
        <ele>1179</ele>
        <time>2020-06-05T08:56:21.000Z</time>
      </trkpt>
      <trkpt lat="44.05587" lon="6.83417">
        <ele>1179</ele>
        <time>2020-06-05T08:56:22.000Z</time>
      </trkpt>
      <trkpt lat="44.05587" lon="6.83417">
        <ele>1179</ele>
        <time>2020-06-05T08:56:23.000Z</time>
      </trkpt>
      <trkpt lat="44.05587" lon="6.83417">
        <ele>1179</ele>
        <time>2020-06-05T08:56:24.000Z</time>
      </trkpt>
      <trkpt lat="44.05587" lon="6.83417">
        <ele>1179</ele>
        <time>2020-06-05T08:56:25.000Z</time>
      </trkpt>
      <trkpt lat="44.05587" lon="6.83417">
        <ele>1179</ele>
        <time>2020-06-05T08:56:26.000Z</time>
      </trkpt>
      <trkpt lat="44.05587" lon="6.83417">
        <ele>1179</ele>
        <time>2020-06-05T08:56:27.000Z</time>
      </trkpt>
      <trkpt lat="44.05587" lon="6.83417">
        <ele>1179</ele>
        <time>2020-06-05T08:56:28.000Z</time>
      </trkpt>
      <trkpt lat="44.05587" lon="6.83417">
        <ele>1179</ele>
        <time>2020-06-05T08:56:29.000Z</time>
      </trkpt>
      <trkpt lat="44.05587" lon="6.83417">
        <ele>1179</ele>
        <time>2020-06-05T08:56:30.000Z</time>
      </trkpt>
      <trkpt lat="44.05587" lon="6.83417">
        <ele>1179</ele>
        <time>2020-06-05T08:56:31.000Z</time>
      </trkpt>
      <trkpt lat="44.05587" lon="6.83417">
        <ele>1179</ele>
        <time>2020-06-05T08:56:32.000Z</time>
      </trkpt>
      <trkpt lat="44.05587" lon="6.83417">
        <ele>1179</ele>
        <time>2020-06-05T08:56:33.000Z</time>
      </trkpt>
      <trkpt lat="44.05587" lon="6.83417">
        <ele>1179</ele>
        <time>2020-06-05T08:56:34.000Z</time>
      </trkpt>
      <trkpt lat="44.05587" lon="6.83417">
        <ele>1179</ele>
        <time>2020-06-05T08:56:35.000Z</time>
      </trkpt>
      <trkpt lat="44.05587" lon="6.83417">
        <ele>1179</ele>
        <time>2020-06-05T08:56:36.000Z</time>
      </trkpt>
      <trkpt lat="44.05587" lon="6.83417">
        <ele>1179</ele>
        <time>2020-06-05T08:56:37.000Z</time>
      </trkpt>
      <trkpt lat="44.05587" lon="6.83417">
        <ele>1179</ele>
        <time>2020-06-05T08:56:38.000Z</time>
      </trkpt>
      <trkpt lat="44.05587" lon="6.83417">
        <ele>1179</ele>
        <time>2020-06-05T08:56:39.000Z</time>
      </trkpt>
      <trkpt lat="44.05587" lon="6.83417">
        <ele>1179</ele>
        <time>2020-06-05T08:56:40.000Z</time>
      </trkpt>
      <trkpt lat="44.05587" lon="6.83417">
        <ele>1179</ele>
        <time>2020-06-05T08:56:41.000Z</time>
      </trkpt>
      <trkpt lat="44.05587" lon="6.83417">
        <ele>1179</ele>
        <time>2020-06-05T08:56:42.000Z</time>
      </trkpt>
      <trkpt lat="44.05587" lon="6.83417">
        <ele>1179</ele>
        <time>2020-06-05T08:56:43.000Z</time>
      </trkpt>
      <trkpt lat="44.05587" lon="6.83417">
        <ele>1179</ele>
        <time>2020-06-05T08:56:44.000Z</time>
      </trkpt>
      <trkpt lat="44.05587" lon="6.83416">
        <ele>1179</ele>
        <time>2020-06-05T08:56:45.000Z</time>
      </trkpt>
      <trkpt lat="44.05587" lon="6.83417">
        <ele>1179</ele>
        <time>2020-06-05T08:56:46.000Z</time>
      </trkpt>
      <trkpt lat="44.05587" lon="6.83417">
        <ele>1179</ele>
        <time>2020-06-05T08:56:47.000Z</time>
      </trkpt>
      <trkpt lat="44.05587" lon="6.83417">
        <ele>1179</ele>
        <time>2020-06-05T08:56:48.000Z</time>
      </trkpt>
      <trkpt lat="44.05587" lon="6.83417">
        <ele>1179</ele>
        <time>2020-06-05T08:56:49.000Z</time>
      </trkpt>
      <trkpt lat="44.05587" lon="6.83417">
        <ele>1179</ele>
        <time>2020-06-05T08:56:50.000Z</time>
      </trkpt>
      <trkpt lat="44.05587" lon="6.83417">
        <ele>1179</ele>
        <time>2020-06-05T08:56:51.000Z</time>
      </trkpt>
      <trkpt lat="44.05587" lon="6.83417">
        <ele>1179</ele>
        <time>2020-06-05T08:56:52.000Z</time>
      </trkpt>
      <trkpt lat="44.05587" lon="6.83417">
        <ele>1179</ele>
        <time>2020-06-05T08:56:53.000Z</time>
      </trkpt>
      <trkpt lat="44.05587" lon="6.83417">
        <ele>1179</ele>
        <time>2020-06-05T08:56:54.000Z</time>
      </trkpt>
      <trkpt lat="44.05587" lon="6.83418">
        <ele>1179</ele>
        <time>2020-06-05T08:56:55.000Z</time>
      </trkpt>
      <trkpt lat="44.05587" lon="6.83418">
        <ele>1179</ele>
        <time>2020-06-05T08:56:56.000Z</time>
      </trkpt>
      <trkpt lat="44.05587" lon="6.83418">
        <ele>1179</ele>
        <time>2020-06-05T08:56:57.000Z</time>
      </trkpt>
      <trkpt lat="44.05587" lon="6.83418">
        <ele>1179</ele>
        <time>2020-06-05T08:56:58.000Z</time>
      </trkpt>
      <trkpt lat="44.05587" lon="6.83418">
        <ele>1179</ele>
        <time>2020-06-05T08:56:59.000Z</time>
      </trkpt>
      <trkpt lat="44.05587" lon="6.83418">
        <ele>1179</ele>
        <time>2020-06-05T08:57:00.000Z</time>
      </trkpt>
      <trkpt lat="44.05587" lon="6.83418">
        <ele>1179</ele>
        <time>2020-06-05T08:57:01.000Z</time>
      </trkpt>
      <trkpt lat="44.05587" lon="6.83418">
        <ele>1179</ele>
        <time>2020-06-05T08:57:02.000Z</time>
      </trkpt>
      <trkpt lat="44.05587" lon="6.83418">
        <ele>1179</ele>
        <time>2020-06-05T08:57:03.000Z</time>
      </trkpt>
      <trkpt lat="44.05587" lon="6.83417">
        <ele>1179</ele>
        <time>2020-06-05T08:57:04.000Z</time>
      </trkpt>
      <trkpt lat="44.05587" lon="6.83417">
        <ele>1179</ele>
        <time>2020-06-05T08:57:05.000Z</time>
      </trkpt>
      <trkpt lat="44.05587" lon="6.83417">
        <ele>1179</ele>
        <time>2020-06-05T08:57:06.000Z</time>
      </trkpt>
      <trkpt lat="44.05587" lon="6.83417">
        <ele>1179</ele>
        <time>2020-06-05T08:57:07.000Z</time>
      </trkpt>
      <trkpt lat="44.05587" lon="6.83417">
        <ele>1179</ele>
        <time>2020-06-05T08:57:08.000Z</time>
      </trkpt>
      <trkpt lat="44.05587" lon="6.83417">
        <ele>1179</ele>
        <time>2020-06-05T08:57:09.000Z</time>
      </trkpt>
      <trkpt lat="44.05587" lon="6.83417">
        <ele>1179</ele>
        <time>2020-06-05T08:57:10.000Z</time>
      </trkpt>
      <trkpt lat="44.05587" lon="6.83417">
        <ele>1179</ele>
        <time>2020-06-05T08:57:11.000Z</time>
      </trkpt>
      <trkpt lat="44.05587" lon="6.83417">
        <ele>1179</ele>
        <time>2020-06-05T08:57:12.000Z</time>
      </trkpt>
      <trkpt lat="44.05587" lon="6.83417">
        <ele>1179</ele>
        <time>2020-06-05T08:57:13.000Z</time>
      </trkpt>
      <trkpt lat="44.05587" lon="6.83417">
        <ele>1179</ele>
        <time>2020-06-05T08:57:14.000Z</time>
      </trkpt>
      <trkpt lat="44.05587" lon="6.83417">
        <ele>1179</ele>
        <time>2020-06-05T08:57:15.000Z</time>
      </trkpt>
      <trkpt lat="44.05587" lon="6.83417">
        <ele>1179</ele>
        <time>2020-06-05T08:57:16.000Z</time>
      </trkpt>
      <trkpt lat="44.05587" lon="6.83417">
        <ele>1179</ele>
        <time>2020-06-05T08:57:17.000Z</time>
      </trkpt>
      <trkpt lat="44.05587" lon="6.83418">
        <ele>1179</ele>
        <time>2020-06-05T08:57:18.000Z</time>
      </trkpt>
      <trkpt lat="44.05587" lon="6.83418">
        <ele>1179</ele>
        <time>2020-06-05T08:57:19.000Z</time>
      </trkpt>
      <trkpt lat="44.05587" lon="6.83418">
        <ele>1179</ele>
        <time>2020-06-05T08:57:20.000Z</time>
      </trkpt>
      <trkpt lat="44.05587" lon="6.83418">
        <ele>1179</ele>
        <time>2020-06-05T08:57:21.000Z</time>
      </trkpt>
      <trkpt lat="44.05587" lon="6.83418">
        <ele>1179</ele>
        <time>2020-06-05T08:57:22.000Z</time>
      </trkpt>
      <trkpt lat="44.05587" lon="6.83418">
        <ele>1179</ele>
        <time>2020-06-05T08:57:23.000Z</time>
      </trkpt>
      <trkpt lat="44.05587" lon="6.83418">
        <ele>1179</ele>
        <time>2020-06-05T08:57:24.000Z</time>
      </trkpt>
      <trkpt lat="44.05587" lon="6.83418">
        <ele>1179</ele>
        <time>2020-06-05T08:57:25.000Z</time>
      </trkpt>
      <trkpt lat="44.05587" lon="6.83418">
        <ele>1179</ele>
        <time>2020-06-05T08:57:26.000Z</time>
      </trkpt>
      <trkpt lat="44.05587" lon="6.83418">
        <ele>1179</ele>
        <time>2020-06-05T08:57:27.000Z</time>
      </trkpt>
      <trkpt lat="44.05587" lon="6.83417">
        <ele>1179</ele>
        <time>2020-06-05T08:57:28.000Z</time>
      </trkpt>
      <trkpt lat="44.05587" lon="6.83417">
        <ele>1179</ele>
        <time>2020-06-05T08:57:29.000Z</time>
      </trkpt>
      <trkpt lat="44.05587" lon="6.83417">
        <ele>1179</ele>
        <time>2020-06-05T08:57:30.000Z</time>
      </trkpt>
      <trkpt lat="44.05587" lon="6.83417">
        <ele>1179</ele>
        <time>2020-06-05T08:57:31.000Z</time>
      </trkpt>
      <trkpt lat="44.05587" lon="6.83417">
        <ele>1179</ele>
        <time>2020-06-05T08:57:32.000Z</time>
      </trkpt>
      <trkpt lat="44.05587" lon="6.83418">
        <ele>1179</ele>
        <time>2020-06-05T08:57:33.000Z</time>
      </trkpt>
      <trkpt lat="44.05587" lon="6.83418">
        <ele>1179</ele>
        <time>2020-06-05T08:57:34.000Z</time>
      </trkpt>
      <trkpt lat="44.05588" lon="6.83418">
        <ele>1179</ele>
        <time>2020-06-05T08:57:35.000Z</time>
      </trkpt>
      <trkpt lat="44.05588" lon="6.83418">
        <ele>1179</ele>
        <time>2020-06-05T08:57:36.000Z</time>
      </trkpt>
      <trkpt lat="44.05588" lon="6.83418">
        <ele>1179</ele>
        <time>2020-06-05T08:57:37.000Z</time>
      </trkpt>
      <trkpt lat="44.05588" lon="6.83418">
        <ele>1179</ele>
        <time>2020-06-05T08:57:38.000Z</time>
      </trkpt>
      <trkpt lat="44.05588" lon="6.83418">
        <ele>1179</ele>
        <time>2020-06-05T08:57:39.000Z</time>
      </trkpt>
      <trkpt lat="44.05588" lon="6.83418">
        <ele>1179</ele>
        <time>2020-06-05T08:57:40.000Z</time>
      </trkpt>
      <trkpt lat="44.05588" lon="6.83417">
        <ele>1179</ele>
        <time>2020-06-05T08:57:41.000Z</time>
      </trkpt>
      <trkpt lat="44.05588" lon="6.83417">
        <ele>1179</ele>
        <time>2020-06-05T08:57:42.000Z</time>
      </trkpt>
      <trkpt lat="44.05588" lon="6.83417">
        <ele>1179</ele>
        <time>2020-06-05T08:57:43.000Z</time>
      </trkpt>
      <trkpt lat="44.05588" lon="6.83416">
        <ele>1179</ele>
        <time>2020-06-05T08:57:44.000Z</time>
      </trkpt>
      <trkpt lat="44.05588" lon="6.83416">
        <ele>1179</ele>
        <time>2020-06-05T08:57:45.000Z</time>
      </trkpt>
      <trkpt lat="44.05588" lon="6.83416">
        <ele>1179</ele>
        <time>2020-06-05T08:57:46.000Z</time>
      </trkpt>
      <trkpt lat="44.05588" lon="6.83416">
        <ele>1179</ele>
        <time>2020-06-05T08:57:47.000Z</time>
      </trkpt>
      <trkpt lat="44.05588" lon="6.83416">
        <ele>1179</ele>
        <time>2020-06-05T08:57:48.000Z</time>
      </trkpt>
      <trkpt lat="44.05588" lon="6.83416">
        <ele>1179</ele>
        <time>2020-06-05T08:57:49.000Z</time>
      </trkpt>
      <trkpt lat="44.05588" lon="6.83416">
        <ele>1179</ele>
        <time>2020-06-05T08:57:50.000Z</time>
      </trkpt>
      <trkpt lat="44.05588" lon="6.83416">
        <ele>1179</ele>
        <time>2020-06-05T08:57:51.000Z</time>
      </trkpt>
      <trkpt lat="44.05588" lon="6.83416">
        <ele>1179</ele>
        <time>2020-06-05T08:57:52.000Z</time>
      </trkpt>
      <trkpt lat="44.05587" lon="6.83416">
        <ele>1180</ele>
        <time>2020-06-05T08:57:53.000Z</time>
      </trkpt>
      <trkpt lat="44.05587" lon="6.83416">
        <ele>1180</ele>
        <time>2020-06-05T08:57:54.000Z</time>
      </trkpt>
      <trkpt lat="44.05587" lon="6.83416">
        <ele>1179</ele>
        <time>2020-06-05T08:57:55.000Z</time>
      </trkpt>
      <trkpt lat="44.05587" lon="6.83416">
        <ele>1179</ele>
        <time>2020-06-05T08:57:56.000Z</time>
      </trkpt>
      <trkpt lat="44.05587" lon="6.83416">
        <ele>1179</ele>
        <time>2020-06-05T08:57:57.000Z</time>
      </trkpt>
      <trkpt lat="44.05587" lon="6.83416">
        <ele>1179</ele>
        <time>2020-06-05T08:57:58.000Z</time>
      </trkpt>
      <trkpt lat="44.05587" lon="6.83416">
        <ele>1179</ele>
        <time>2020-06-05T08:57:59.000Z</time>
      </trkpt>
      <trkpt lat="44.05587" lon="6.83416">
        <ele>1179</ele>
        <time>2020-06-05T08:58:00.000Z</time>
      </trkpt>
      <trkpt lat="44.05587" lon="6.83416">
        <ele>1179</ele>
        <time>2020-06-05T08:58:01.000Z</time>
      </trkpt>
      <trkpt lat="44.05587" lon="6.83416">
        <ele>1179</ele>
        <time>2020-06-05T08:58:02.000Z</time>
      </trkpt>
      <trkpt lat="44.05587" lon="6.83416">
        <ele>1179</ele>
        <time>2020-06-05T08:58:03.000Z</time>
      </trkpt>
      <trkpt lat="44.05587" lon="6.83416">
        <ele>1179</ele>
        <time>2020-06-05T08:58:04.000Z</time>
      </trkpt>
      <trkpt lat="44.05587" lon="6.83416">
        <ele>1179</ele>
        <time>2020-06-05T08:58:05.000Z</time>
      </trkpt>
      <trkpt lat="44.05587" lon="6.83416">
        <ele>1179</ele>
        <time>2020-06-05T08:58:06.000Z</time>
      </trkpt>
      <trkpt lat="44.05587" lon="6.83416">
        <ele>1179</ele>
        <time>2020-06-05T08:58:07.000Z</time>
      </trkpt>
      <trkpt lat="44.05587" lon="6.83416">
        <ele>1179</ele>
        <time>2020-06-05T08:58:08.000Z</time>
      </trkpt>
      <trkpt lat="44.05587" lon="6.83416">
        <ele>1179</ele>
        <time>2020-06-05T08:58:09.000Z</time>
      </trkpt>
      <trkpt lat="44.05587" lon="6.83416">
        <ele>1179</ele>
        <time>2020-06-05T08:58:10.000Z</time>
      </trkpt>
      <trkpt lat="44.05587" lon="6.83416">
        <ele>1179</ele>
        <time>2020-06-05T08:58:11.000Z</time>
      </trkpt>
      <trkpt lat="44.05587" lon="6.83416">
        <ele>1179</ele>
        <time>2020-06-05T08:58:12.000Z</time>
      </trkpt>
      <trkpt lat="44.05587" lon="6.83416">
        <ele>1179</ele>
        <time>2020-06-05T08:58:13.000Z</time>
      </trkpt>
      <trkpt lat="44.05587" lon="6.83416">
        <ele>1179</ele>
        <time>2020-06-05T08:58:14.000Z</time>
      </trkpt>
      <trkpt lat="44.05587" lon="6.83416">
        <ele>1179</ele>
        <time>2020-06-05T08:58:15.000Z</time>
      </trkpt>
      <trkpt lat="44.05587" lon="6.83416">
        <ele>1179</ele>
        <time>2020-06-05T08:58:16.000Z</time>
      </trkpt>
      <trkpt lat="44.05587" lon="6.83416">
        <ele>1179</ele>
        <time>2020-06-05T08:58:17.000Z</time>
      </trkpt>
      <trkpt lat="44.05587" lon="6.83416">
        <ele>1179</ele>
        <time>2020-06-05T08:58:18.000Z</time>
      </trkpt>
      <trkpt lat="44.05587" lon="6.83416">
        <ele>1179</ele>
        <time>2020-06-05T08:58:19.000Z</time>
      </trkpt>
      <trkpt lat="44.05587" lon="6.83416">
        <ele>1179</ele>
        <time>2020-06-05T08:58:20.000Z</time>
      </trkpt>
      <trkpt lat="44.05587" lon="6.83416">
        <ele>1179</ele>
        <time>2020-06-05T08:58:21.000Z</time>
      </trkpt>
      <trkpt lat="44.05587" lon="6.83416">
        <ele>1179</ele>
        <time>2020-06-05T08:58:22.000Z</time>
      </trkpt>
      <trkpt lat="44.05587" lon="6.83416">
        <ele>1179</ele>
        <time>2020-06-05T08:58:23.000Z</time>
      </trkpt>
      <trkpt lat="44.05587" lon="6.83416">
        <ele>1179</ele>
        <time>2020-06-05T08:58:24.000Z</time>
      </trkpt>
      <trkpt lat="44.05587" lon="6.83416">
        <ele>1179</ele>
        <time>2020-06-05T08:58:25.000Z</time>
      </trkpt>
      <trkpt lat="44.05587" lon="6.83416">
        <ele>1179</ele>
        <time>2020-06-05T08:58:26.000Z</time>
      </trkpt>
      <trkpt lat="44.05587" lon="6.83416">
        <ele>1179</ele>
        <time>2020-06-05T08:58:27.000Z</time>
      </trkpt>
      <trkpt lat="44.05587" lon="6.83416">
        <ele>1179</ele>
        <time>2020-06-05T08:58:28.000Z</time>
      </trkpt>
      <trkpt lat="44.05586" lon="6.83416">
        <ele>1179</ele>
        <time>2020-06-05T08:58:29.000Z</time>
      </trkpt>
      <trkpt lat="44.05586" lon="6.83416">
        <ele>1179</ele>
        <time>2020-06-05T08:58:30.000Z</time>
      </trkpt>
      <trkpt lat="44.05586" lon="6.83415">
        <ele>1179</ele>
        <time>2020-06-05T08:58:31.000Z</time>
      </trkpt>
      <trkpt lat="44.05586" lon="6.83415">
        <ele>1179</ele>
        <time>2020-06-05T08:58:32.000Z</time>
      </trkpt>
      <trkpt lat="44.05586" lon="6.83415">
        <ele>1179</ele>
        <time>2020-06-05T08:58:33.000Z</time>
      </trkpt>
      <trkpt lat="44.05586" lon="6.83415">
        <ele>1179</ele>
        <time>2020-06-05T08:58:34.000Z</time>
      </trkpt>
      <trkpt lat="44.05586" lon="6.83415">
        <ele>1179</ele>
        <time>2020-06-05T08:58:35.000Z</time>
      </trkpt>
      <trkpt lat="44.05586" lon="6.83415">
        <ele>1179</ele>
        <time>2020-06-05T08:58:36.000Z</time>
      </trkpt>
      <trkpt lat="44.05586" lon="6.83415">
        <ele>1179</ele>
        <time>2020-06-05T08:58:37.000Z</time>
      </trkpt>
      <trkpt lat="44.05586" lon="6.83415">
        <ele>1179</ele>
        <time>2020-06-05T08:58:38.000Z</time>
      </trkpt>
      <trkpt lat="44.05586" lon="6.83415">
        <ele>1179</ele>
        <time>2020-06-05T08:58:39.000Z</time>
      </trkpt>
      <trkpt lat="44.05586" lon="6.83415">
        <ele>1179</ele>
        <time>2020-06-05T08:58:40.000Z</time>
      </trkpt>
      <trkpt lat="44.05586" lon="6.83415">
        <ele>1179</ele>
        <time>2020-06-05T08:58:41.000Z</time>
      </trkpt>
      <trkpt lat="44.05586" lon="6.83415">
        <ele>1179</ele>
        <time>2020-06-05T08:58:42.000Z</time>
      </trkpt>
      <trkpt lat="44.05586" lon="6.83415">
        <ele>1179</ele>
        <time>2020-06-05T08:58:43.000Z</time>
      </trkpt>
      <trkpt lat="44.05586" lon="6.83415">
        <ele>1179</ele>
        <time>2020-06-05T08:58:44.000Z</time>
      </trkpt>
      <trkpt lat="44.05586" lon="6.83415">
        <ele>1179</ele>
        <time>2020-06-05T08:58:45.000Z</time>
      </trkpt>
      <trkpt lat="44.05587" lon="6.83415">
        <ele>1179</ele>
        <time>2020-06-05T08:58:46.000Z</time>
      </trkpt>
      <trkpt lat="44.05587" lon="6.83415">
        <ele>1179</ele>
        <time>2020-06-05T08:58:47.000Z</time>
      </trkpt>
      <trkpt lat="44.05586" lon="6.83415">
        <ele>1179</ele>
        <time>2020-06-05T08:58:48.000Z</time>
      </trkpt>
      <trkpt lat="44.05586" lon="6.83415">
        <ele>1179</ele>
        <time>2020-06-05T08:58:49.000Z</time>
      </trkpt>
      <trkpt lat="44.05586" lon="6.83415">
        <ele>1179</ele>
        <time>2020-06-05T08:58:50.000Z</time>
      </trkpt>
      <trkpt lat="44.05586" lon="6.83415">
        <ele>1179</ele>
        <time>2020-06-05T08:58:51.000Z</time>
      </trkpt>
      <trkpt lat="44.05586" lon="6.83415">
        <ele>1179</ele>
        <time>2020-06-05T08:58:52.000Z</time>
      </trkpt>
      <trkpt lat="44.05586" lon="6.83415">
        <ele>1179</ele>
        <time>2020-06-05T08:58:53.000Z</time>
      </trkpt>
      <trkpt lat="44.05586" lon="6.83415">
        <ele>1179</ele>
        <time>2020-06-05T08:58:54.000Z</time>
      </trkpt>
      <trkpt lat="44.05586" lon="6.83415">
        <ele>1179</ele>
        <time>2020-06-05T08:58:55.000Z</time>
      </trkpt>
      <trkpt lat="44.05586" lon="6.83415">
        <ele>1179</ele>
        <time>2020-06-05T08:58:56.000Z</time>
      </trkpt>
      <trkpt lat="44.05586" lon="6.83415">
        <ele>1179</ele>
        <time>2020-06-05T08:58:57.000Z</time>
      </trkpt>
      <trkpt lat="44.05586" lon="6.83415">
        <ele>1179</ele>
        <time>2020-06-05T08:58:58.000Z</time>
      </trkpt>
      <trkpt lat="44.05586" lon="6.83415">
        <ele>1179</ele>
        <time>2020-06-05T08:58:59.000Z</time>
      </trkpt>
      <trkpt lat="44.05586" lon="6.83415">
        <ele>1179</ele>
        <time>2020-06-05T08:59:00.000Z</time>
      </trkpt>
      <trkpt lat="44.05586" lon="6.83415">
        <ele>1179</ele>
        <time>2020-06-05T08:59:01.000Z</time>
      </trkpt>
      <trkpt lat="44.05586" lon="6.83414">
        <ele>1179</ele>
        <time>2020-06-05T08:59:02.000Z</time>
      </trkpt>
      <trkpt lat="44.05586" lon="6.83414">
        <ele>1179</ele>
        <time>2020-06-05T08:59:03.000Z</time>
      </trkpt>
      <trkpt lat="44.05586" lon="6.83414">
        <ele>1179</ele>
        <time>2020-06-05T08:59:04.000Z</time>
      </trkpt>
      <trkpt lat="44.05586" lon="6.83414">
        <ele>1179</ele>
        <time>2020-06-05T08:59:05.000Z</time>
      </trkpt>
      <trkpt lat="44.05586" lon="6.83414">
        <ele>1179</ele>
        <time>2020-06-05T08:59:06.000Z</time>
      </trkpt>
      <trkpt lat="44.05586" lon="6.83414">
        <ele>1179</ele>
        <time>2020-06-05T08:59:07.000Z</time>
      </trkpt>
      <trkpt lat="44.05586" lon="6.83414">
        <ele>1179</ele>
        <time>2020-06-05T08:59:08.000Z</time>
      </trkpt>
      <trkpt lat="44.05586" lon="6.83414">
        <ele>1179</ele>
        <time>2020-06-05T08:59:09.000Z</time>
      </trkpt>
      <trkpt lat="44.05586" lon="6.83414">
        <ele>1179</ele>
        <time>2020-06-05T08:59:10.000Z</time>
      </trkpt>
      <trkpt lat="44.05586" lon="6.83414">
        <ele>1179</ele>
        <time>2020-06-05T08:59:11.000Z</time>
      </trkpt>
      <trkpt lat="44.05586" lon="6.83414">
        <ele>1179</ele>
        <time>2020-06-05T08:59:12.000Z</time>
      </trkpt>
      <trkpt lat="44.05586" lon="6.83414">
        <ele>1179</ele>
        <time>2020-06-05T08:59:13.000Z</time>
      </trkpt>
      <trkpt lat="44.05586" lon="6.83414">
        <ele>1179</ele>
        <time>2020-06-05T08:59:14.000Z</time>
      </trkpt>
      <trkpt lat="44.05586" lon="6.83414">
        <ele>1179</ele>
        <time>2020-06-05T08:59:15.000Z</time>
      </trkpt>
      <trkpt lat="44.05586" lon="6.83414">
        <ele>1179</ele>
        <time>2020-06-05T08:59:16.000Z</time>
      </trkpt>
      <trkpt lat="44.05587" lon="6.83414">
        <ele>1179</ele>
        <time>2020-06-05T08:59:17.000Z</time>
      </trkpt>
      <trkpt lat="44.05587" lon="6.83414">
        <ele>1179</ele>
        <time>2020-06-05T08:59:18.000Z</time>
      </trkpt>
      <trkpt lat="44.05587" lon="6.83414">
        <ele>1179</ele>
        <time>2020-06-05T08:59:19.000Z</time>
      </trkpt>
      <trkpt lat="44.05587" lon="6.83414">
        <ele>1179</ele>
        <time>2020-06-05T08:59:20.000Z</time>
      </trkpt>
      <trkpt lat="44.05586" lon="6.83414">
        <ele>1179</ele>
        <time>2020-06-05T08:59:21.000Z</time>
      </trkpt>
      <trkpt lat="44.05586" lon="6.83413">
        <ele>1179</ele>
        <time>2020-06-05T08:59:22.000Z</time>
      </trkpt>
      <trkpt lat="44.05586" lon="6.83412">
        <ele>1179</ele>
        <time>2020-06-05T08:59:23.000Z</time>
      </trkpt>
      <trkpt lat="44.05586" lon="6.83412">
        <ele>1179</ele>
        <time>2020-06-05T08:59:24.000Z</time>
      </trkpt>
      <trkpt lat="44.05586" lon="6.83411">
        <ele>1179</ele>
        <time>2020-06-05T08:59:25.000Z</time>
      </trkpt>
      <trkpt lat="44.05585" lon="6.83411">
        <ele>1179</ele>
        <time>2020-06-05T08:59:26.000Z</time>
      </trkpt>
      <trkpt lat="44.05585" lon="6.8341">
        <ele>1179</ele>
        <time>2020-06-05T08:59:27.000Z</time>
      </trkpt>
      <trkpt lat="44.05585" lon="6.8341">
        <ele>1179</ele>
        <time>2020-06-05T08:59:28.000Z</time>
      </trkpt>
      <trkpt lat="44.05585" lon="6.83409">
        <ele>1178</ele>
        <time>2020-06-05T08:59:29.000Z</time>
      </trkpt>
      <trkpt lat="44.05585" lon="6.83408">
        <ele>1178</ele>
        <time>2020-06-05T08:59:30.000Z</time>
      </trkpt>
      <trkpt lat="44.05585" lon="6.83408">
        <ele>1178</ele>
        <time>2020-06-05T08:59:31.000Z</time>
      </trkpt>
      <trkpt lat="44.05585" lon="6.83407">
        <ele>1178</ele>
        <time>2020-06-05T08:59:32.000Z</time>
      </trkpt>
      <trkpt lat="44.05585" lon="6.83406">
        <ele>1178</ele>
        <time>2020-06-05T08:59:33.000Z</time>
      </trkpt>
      <trkpt lat="44.05585" lon="6.83406">
        <ele>1178</ele>
        <time>2020-06-05T08:59:34.000Z</time>
      </trkpt>
      <trkpt lat="44.05585" lon="6.83406">
        <ele>1178</ele>
        <time>2020-06-05T08:59:35.000Z</time>
      </trkpt>
      <trkpt lat="44.05585" lon="6.83406">
        <ele>1178</ele>
        <time>2020-06-05T08:59:36.000Z</time>
      </trkpt>
      <trkpt lat="44.05585" lon="6.83406">
        <ele>1178</ele>
        <time>2020-06-05T08:59:37.000Z</time>
      </trkpt>
      <trkpt lat="44.05585" lon="6.83406">
        <ele>1178</ele>
        <time>2020-06-05T08:59:38.000Z</time>
      </trkpt>
      <trkpt lat="44.05585" lon="6.83406">
        <ele>1178</ele>
        <time>2020-06-05T08:59:39.000Z</time>
      </trkpt>
      <trkpt lat="44.05585" lon="6.83405">
        <ele>1178</ele>
        <time>2020-06-05T08:59:40.000Z</time>
      </trkpt>
      <trkpt lat="44.05585" lon="6.83405">
        <ele>1178</ele>
        <time>2020-06-05T08:59:41.000Z</time>
      </trkpt>
      <trkpt lat="44.05585" lon="6.83404">
        <ele>1177</ele>
        <time>2020-06-05T08:59:42.000Z</time>
      </trkpt>
      <trkpt lat="44.05586" lon="6.83404">
        <ele>1177</ele>
        <time>2020-06-05T08:59:43.000Z</time>
      </trkpt>
      <trkpt lat="44.05586" lon="6.83403">
        <ele>1177</ele>
        <time>2020-06-05T08:59:44.000Z</time>
      </trkpt>
      <trkpt lat="44.05585" lon="6.83403">
        <ele>1177</ele>
        <time>2020-06-05T08:59:45.000Z</time>
      </trkpt>
      <trkpt lat="44.05585" lon="6.83402">
        <ele>1177</ele>
        <time>2020-06-05T08:59:46.000Z</time>
      </trkpt>
      <trkpt lat="44.05585" lon="6.83402">
        <ele>1177</ele>
        <time>2020-06-05T08:59:47.000Z</time>
      </trkpt>
      <trkpt lat="44.05585" lon="6.83402">
        <ele>1177</ele>
        <time>2020-06-05T08:59:48.000Z</time>
      </trkpt>
      <trkpt lat="44.05585" lon="6.83401">
        <ele>1177</ele>
        <time>2020-06-05T08:59:49.000Z</time>
      </trkpt>
      <trkpt lat="44.05585" lon="6.834">
        <ele>1177</ele>
        <time>2020-06-05T08:59:50.000Z</time>
      </trkpt>
      <trkpt lat="44.05585" lon="6.834">
        <ele>1176</ele>
        <time>2020-06-05T08:59:51.000Z</time>
      </trkpt>
      <trkpt lat="44.05585" lon="6.834">
        <ele>1176</ele>
        <time>2020-06-05T08:59:52.000Z</time>
      </trkpt>
      <trkpt lat="44.05585" lon="6.834">
        <ele>1176</ele>
        <time>2020-06-05T08:59:53.000Z</time>
      </trkpt>
      <trkpt lat="44.05585" lon="6.834">
        <ele>1176</ele>
        <time>2020-06-05T08:59:54.000Z</time>
      </trkpt>
      <trkpt lat="44.05585" lon="6.834">
        <ele>1176</ele>
        <time>2020-06-05T08:59:55.000Z</time>
      </trkpt>
      <trkpt lat="44.05585" lon="6.83399">
        <ele>1176</ele>
        <time>2020-06-05T08:59:56.000Z</time>
      </trkpt>
      <trkpt lat="44.05585" lon="6.83399">
        <ele>1176</ele>
        <time>2020-06-05T08:59:57.000Z</time>
      </trkpt>
      <trkpt lat="44.05585" lon="6.83399">
        <ele>1176</ele>
        <time>2020-06-05T08:59:58.000Z</time>
      </trkpt>
      <trkpt lat="44.05585" lon="6.83399">
        <ele>1176</ele>
        <time>2020-06-05T08:59:59.000Z</time>
      </trkpt>
      <trkpt lat="44.05585" lon="6.83399">
        <ele>1176</ele>
        <time>2020-06-05T09:00:00.000Z</time>
      </trkpt>
      <trkpt lat="44.05585" lon="6.83399">
        <ele>1176</ele>
        <time>2020-06-05T09:00:01.000Z</time>
      </trkpt>
      <trkpt lat="44.05585" lon="6.83399">
        <ele>1176</ele>
        <time>2020-06-05T09:00:02.000Z</time>
      </trkpt>
      <trkpt lat="44.05585" lon="6.83399">
        <ele>1176</ele>
        <time>2020-06-05T09:00:03.000Z</time>
      </trkpt>
      <trkpt lat="44.05585" lon="6.83399">
        <ele>1176</ele>
        <time>2020-06-05T09:00:04.000Z</time>
      </trkpt>
      <trkpt lat="44.05585" lon="6.83399">
        <ele>1176</ele>
        <time>2020-06-05T09:00:05.000Z</time>
      </trkpt>
      <trkpt lat="44.05586" lon="6.83399">
        <ele>1176</ele>
        <time>2020-06-05T09:00:06.000Z</time>
      </trkpt>
      <trkpt lat="44.05586" lon="6.83398">
        <ele>1176</ele>
        <time>2020-06-05T09:00:07.000Z</time>
      </trkpt>
      <trkpt lat="44.05586" lon="6.83398">
        <ele>1176</ele>
        <time>2020-06-05T09:00:08.000Z</time>
      </trkpt>
      <trkpt lat="44.05586" lon="6.83397">
        <ele>1176</ele>
        <time>2020-06-05T09:00:09.000Z</time>
      </trkpt>
      <trkpt lat="44.05586" lon="6.83396">
        <ele>1176</ele>
        <time>2020-06-05T09:00:10.000Z</time>
      </trkpt>
      <trkpt lat="44.05587" lon="6.83396">
        <ele>1176</ele>
        <time>2020-06-05T09:00:11.000Z</time>
      </trkpt>
      <trkpt lat="44.05587" lon="6.83395">
        <ele>1175</ele>
        <time>2020-06-05T09:00:12.000Z</time>
      </trkpt>
      <trkpt lat="44.05587" lon="6.83394">
        <ele>1175</ele>
        <time>2020-06-05T09:00:13.000Z</time>
      </trkpt>
      <trkpt lat="44.05588" lon="6.83393">
        <ele>1175</ele>
        <time>2020-06-05T09:00:14.000Z</time>
      </trkpt>
      <trkpt lat="44.05588" lon="6.83392">
        <ele>1175</ele>
        <time>2020-06-05T09:00:15.000Z</time>
      </trkpt>
      <trkpt lat="44.05588" lon="6.83392">
        <ele>1175</ele>
        <time>2020-06-05T09:00:16.000Z</time>
      </trkpt>
      <trkpt lat="44.05588" lon="6.83391">
        <ele>1175</ele>
        <time>2020-06-05T09:00:17.000Z</time>
      </trkpt>
      <trkpt lat="44.05588" lon="6.8339">
        <ele>1175</ele>
        <time>2020-06-05T09:00:18.000Z</time>
      </trkpt>
      <trkpt lat="44.05588" lon="6.83389">
        <ele>1175</ele>
        <time>2020-06-05T09:00:19.000Z</time>
      </trkpt>
      <trkpt lat="44.05588" lon="6.83388">
        <ele>1175</ele>
        <time>2020-06-05T09:00:20.000Z</time>
      </trkpt>
      <trkpt lat="44.05588" lon="6.83387">
        <ele>1175</ele>
        <time>2020-06-05T09:00:21.000Z</time>
      </trkpt>
      <trkpt lat="44.05587" lon="6.83386">
        <ele>1175</ele>
        <time>2020-06-05T09:00:22.000Z</time>
      </trkpt>
      <trkpt lat="44.05587" lon="6.83386">
        <ele>1175</ele>
        <time>2020-06-05T09:00:23.000Z</time>
      </trkpt>
      <trkpt lat="44.05587" lon="6.83385">
        <ele>1175</ele>
        <time>2020-06-05T09:00:24.000Z</time>
      </trkpt>
      <trkpt lat="44.05586" lon="6.83385">
        <ele>1175</ele>
        <time>2020-06-05T09:00:25.000Z</time>
      </trkpt>
      <trkpt lat="44.05586" lon="6.83384">
        <ele>1174</ele>
        <time>2020-06-05T09:00:26.000Z</time>
      </trkpt>
      <trkpt lat="44.05586" lon="6.83383">
        <ele>1174</ele>
        <time>2020-06-05T09:00:27.000Z</time>
      </trkpt>
      <trkpt lat="44.05585" lon="6.83382">
        <ele>1174</ele>
        <time>2020-06-05T09:00:28.000Z</time>
      </trkpt>
      <trkpt lat="44.05585" lon="6.83382">
        <ele>1174</ele>
        <time>2020-06-05T09:00:29.000Z</time>
      </trkpt>
      <trkpt lat="44.05584" lon="6.83381">
        <ele>1174</ele>
        <time>2020-06-05T09:00:30.000Z</time>
      </trkpt>
      <trkpt lat="44.05584" lon="6.8338">
        <ele>1173</ele>
        <time>2020-06-05T09:00:31.000Z</time>
      </trkpt>
      <trkpt lat="44.05584" lon="6.83379">
        <ele>1173</ele>
        <time>2020-06-05T09:00:32.000Z</time>
      </trkpt>
      <trkpt lat="44.05583" lon="6.83379">
        <ele>1173</ele>
        <time>2020-06-05T09:00:33.000Z</time>
      </trkpt>
      <trkpt lat="44.05583" lon="6.83378">
        <ele>1173</ele>
        <time>2020-06-05T09:00:34.000Z</time>
      </trkpt>
      <trkpt lat="44.05582" lon="6.83378">
        <ele>1173</ele>
        <time>2020-06-05T09:00:35.000Z</time>
      </trkpt>
      <trkpt lat="44.05582" lon="6.83378">
        <ele>1173</ele>
        <time>2020-06-05T09:00:36.000Z</time>
      </trkpt>
      <trkpt lat="44.05581" lon="6.83377">
        <ele>1172</ele>
        <time>2020-06-05T09:00:37.000Z</time>
      </trkpt>
      <trkpt lat="44.05581" lon="6.83376">
        <ele>1172</ele>
        <time>2020-06-05T09:00:38.000Z</time>
      </trkpt>
      <trkpt lat="44.05581" lon="6.83376">
        <ele>1172</ele>
        <time>2020-06-05T09:00:39.000Z</time>
      </trkpt>
      <trkpt lat="44.0558" lon="6.83375">
        <ele>1172</ele>
        <time>2020-06-05T09:00:40.000Z</time>
      </trkpt>
      <trkpt lat="44.05579" lon="6.83375">
        <ele>1172</ele>
        <time>2020-06-05T09:00:41.000Z</time>
      </trkpt>
      <trkpt lat="44.05579" lon="6.83374">
        <ele>1172</ele>
        <time>2020-06-05T09:00:42.000Z</time>
      </trkpt>
      <trkpt lat="44.05579" lon="6.83373">
        <ele>1171</ele>
        <time>2020-06-05T09:00:43.000Z</time>
      </trkpt>
      <trkpt lat="44.05578" lon="6.83372">
        <ele>1171</ele>
        <time>2020-06-05T09:00:44.000Z</time>
      </trkpt>
      <trkpt lat="44.05578" lon="6.83372">
        <ele>1171</ele>
        <time>2020-06-05T09:00:45.000Z</time>
      </trkpt>
      <trkpt lat="44.05578" lon="6.83372">
        <ele>1171</ele>
        <time>2020-06-05T09:00:46.000Z</time>
      </trkpt>
      <trkpt lat="44.05578" lon="6.83371">
        <ele>1171</ele>
        <time>2020-06-05T09:00:47.000Z</time>
      </trkpt>
      <trkpt lat="44.05578" lon="6.8337">
        <ele>1171</ele>
        <time>2020-06-05T09:00:48.000Z</time>
      </trkpt>
      <trkpt lat="44.05577" lon="6.8337">
        <ele>1170</ele>
        <time>2020-06-05T09:00:49.000Z</time>
      </trkpt>
      <trkpt lat="44.05577" lon="6.83369">
        <ele>1170</ele>
        <time>2020-06-05T09:00:50.000Z</time>
      </trkpt>
      <trkpt lat="44.05577" lon="6.83368">
        <ele>1170</ele>
        <time>2020-06-05T09:00:51.000Z</time>
      </trkpt>
      <trkpt lat="44.05577" lon="6.83367">
        <ele>1170</ele>
        <time>2020-06-05T09:00:52.000Z</time>
      </trkpt>
      <trkpt lat="44.05576" lon="6.83367">
        <ele>1169</ele>
        <time>2020-06-05T09:00:53.000Z</time>
      </trkpt>
      <trkpt lat="44.05576" lon="6.83366">
        <ele>1169</ele>
        <time>2020-06-05T09:00:54.000Z</time>
      </trkpt>
      <trkpt lat="44.05575" lon="6.83365">
        <ele>1169</ele>
        <time>2020-06-05T09:00:55.000Z</time>
      </trkpt>
      <trkpt lat="44.05575" lon="6.83364">
        <ele>1169</ele>
        <time>2020-06-05T09:00:56.000Z</time>
      </trkpt>
      <trkpt lat="44.05575" lon="6.83363">
        <ele>1169</ele>
        <time>2020-06-05T09:00:57.000Z</time>
      </trkpt>
      <trkpt lat="44.05574" lon="6.83362">
        <ele>1168</ele>
        <time>2020-06-05T09:00:58.000Z</time>
      </trkpt>
      <trkpt lat="44.05574" lon="6.83361">
        <ele>1168</ele>
        <time>2020-06-05T09:00:59.000Z</time>
      </trkpt>
      <trkpt lat="44.05574" lon="6.8336">
        <ele>1168</ele>
        <time>2020-06-05T09:01:00.000Z</time>
      </trkpt>
      <trkpt lat="44.05574" lon="6.83359">
        <ele>1168</ele>
        <time>2020-06-05T09:01:01.000Z</time>
      </trkpt>
      <trkpt lat="44.05574" lon="6.83358">
        <ele>1168</ele>
        <time>2020-06-05T09:01:02.000Z</time>
      </trkpt>
      <trkpt lat="44.05573" lon="6.83358">
        <ele>1167</ele>
        <time>2020-06-05T09:01:03.000Z</time>
      </trkpt>
      <trkpt lat="44.05573" lon="6.83357">
        <ele>1167</ele>
        <time>2020-06-05T09:01:04.000Z</time>
      </trkpt>
      <trkpt lat="44.05572" lon="6.83357">
        <ele>1167</ele>
        <time>2020-06-05T09:01:05.000Z</time>
      </trkpt>
      <trkpt lat="44.05572" lon="6.83356">
        <ele>1167</ele>
        <time>2020-06-05T09:01:06.000Z</time>
      </trkpt>
      <trkpt lat="44.05572" lon="6.83355">
        <ele>1166</ele>
        <time>2020-06-05T09:01:07.000Z</time>
      </trkpt>
      <trkpt lat="44.05571" lon="6.83354">
        <ele>1166</ele>
        <time>2020-06-05T09:01:08.000Z</time>
      </trkpt>
      <trkpt lat="44.05571" lon="6.83354">
        <ele>1166</ele>
        <time>2020-06-05T09:01:09.000Z</time>
      </trkpt>
      <trkpt lat="44.05571" lon="6.83353">
        <ele>1165</ele>
        <time>2020-06-05T09:01:10.000Z</time>
      </trkpt>
      <trkpt lat="44.05571" lon="6.83352">
        <ele>1165</ele>
        <time>2020-06-05T09:01:11.000Z</time>
      </trkpt>
      <trkpt lat="44.05571" lon="6.83352">
        <ele>1165</ele>
        <time>2020-06-05T09:01:12.000Z</time>
      </trkpt>
      <trkpt lat="44.05571" lon="6.83351">
        <ele>1165</ele>
        <time>2020-06-05T09:01:13.000Z</time>
      </trkpt>
      <trkpt lat="44.05571" lon="6.83351">
        <ele>1165</ele>
        <time>2020-06-05T09:01:14.000Z</time>
      </trkpt>
      <trkpt lat="44.05571" lon="6.83351">
        <ele>1165</ele>
        <time>2020-06-05T09:01:15.000Z</time>
      </trkpt>
      <trkpt lat="44.05571" lon="6.8335">
        <ele>1164</ele>
        <time>2020-06-05T09:01:16.000Z</time>
      </trkpt>
      <trkpt lat="44.05571" lon="6.8335">
        <ele>1164</ele>
        <time>2020-06-05T09:01:17.000Z</time>
      </trkpt>
      <trkpt lat="44.05571" lon="6.8335">
        <ele>1164</ele>
        <time>2020-06-05T09:01:18.000Z</time>
      </trkpt>
      <trkpt lat="44.05571" lon="6.8335">
        <ele>1164</ele>
        <time>2020-06-05T09:01:19.000Z</time>
      </trkpt>
      <trkpt lat="44.05571" lon="6.83349">
        <ele>1164</ele>
        <time>2020-06-05T09:01:20.000Z</time>
      </trkpt>
      <trkpt lat="44.05571" lon="6.83349">
        <ele>1164</ele>
        <time>2020-06-05T09:01:21.000Z</time>
      </trkpt>
      <trkpt lat="44.05571" lon="6.83349">
        <ele>1164</ele>
        <time>2020-06-05T09:01:22.000Z</time>
      </trkpt>
      <trkpt lat="44.0557" lon="6.83348">
        <ele>1164</ele>
        <time>2020-06-05T09:01:23.000Z</time>
      </trkpt>
      <trkpt lat="44.0557" lon="6.83348">
        <ele>1164</ele>
        <time>2020-06-05T09:01:24.000Z</time>
      </trkpt>
      <trkpt lat="44.05569" lon="6.83348">
        <ele>1164</ele>
        <time>2020-06-05T09:01:25.000Z</time>
      </trkpt>
      <trkpt lat="44.05569" lon="6.83348">
        <ele>1164</ele>
        <time>2020-06-05T09:01:26.000Z</time>
      </trkpt>
      <trkpt lat="44.05568" lon="6.83349">
        <ele>1164</ele>
        <time>2020-06-05T09:01:27.000Z</time>
      </trkpt>
      <trkpt lat="44.05567" lon="6.83349">
        <ele>1164</ele>
        <time>2020-06-05T09:01:28.000Z</time>
      </trkpt>
      <trkpt lat="44.05566" lon="6.83349">
        <ele>1164</ele>
        <time>2020-06-05T09:01:29.000Z</time>
      </trkpt>
      <trkpt lat="44.05566" lon="6.83349">
        <ele>1164</ele>
        <time>2020-06-05T09:01:30.000Z</time>
      </trkpt>
      <trkpt lat="44.05565" lon="6.8335">
        <ele>1164</ele>
        <time>2020-06-05T09:01:31.000Z</time>
      </trkpt>
      <trkpt lat="44.05564" lon="6.8335">
        <ele>1163</ele>
        <time>2020-06-05T09:01:32.000Z</time>
      </trkpt>
      <trkpt lat="44.05563" lon="6.8335">
        <ele>1163</ele>
        <time>2020-06-05T09:01:33.000Z</time>
      </trkpt>
      <trkpt lat="44.05562" lon="6.8335">
        <ele>1163</ele>
        <time>2020-06-05T09:01:34.000Z</time>
      </trkpt>
      <trkpt lat="44.05561" lon="6.83351">
        <ele>1163</ele>
        <time>2020-06-05T09:01:35.000Z</time>
      </trkpt>
      <trkpt lat="44.0556" lon="6.83351">
        <ele>1163</ele>
        <time>2020-06-05T09:01:36.000Z</time>
      </trkpt>
      <trkpt lat="44.05559" lon="6.83351">
        <ele>1163</ele>
        <time>2020-06-05T09:01:37.000Z</time>
      </trkpt>
      <trkpt lat="44.05558" lon="6.8335">
        <ele>1163</ele>
        <time>2020-06-05T09:01:38.000Z</time>
      </trkpt>
      <trkpt lat="44.05557" lon="6.8335">
        <ele>1163</ele>
        <time>2020-06-05T09:01:39.000Z</time>
      </trkpt>
      <trkpt lat="44.05556" lon="6.8335">
        <ele>1163</ele>
        <time>2020-06-05T09:01:40.000Z</time>
      </trkpt>
      <trkpt lat="44.05556" lon="6.8335">
        <ele>1163</ele>
        <time>2020-06-05T09:01:41.000Z</time>
      </trkpt>
      <trkpt lat="44.05555" lon="6.8335">
        <ele>1163</ele>
        <time>2020-06-05T09:01:42.000Z</time>
      </trkpt>
      <trkpt lat="44.05554" lon="6.8335">
        <ele>1163</ele>
        <time>2020-06-05T09:01:43.000Z</time>
      </trkpt>
      <trkpt lat="44.05553" lon="6.83349">
        <ele>1162</ele>
        <time>2020-06-05T09:01:44.000Z</time>
      </trkpt>
      <trkpt lat="44.05553" lon="6.83349">
        <ele>1162</ele>
        <time>2020-06-05T09:01:45.000Z</time>
      </trkpt>
      <trkpt lat="44.05552" lon="6.83348">
        <ele>1162</ele>
        <time>2020-06-05T09:01:46.000Z</time>
      </trkpt>
      <trkpt lat="44.05551" lon="6.83348">
        <ele>1162</ele>
        <time>2020-06-05T09:01:47.000Z</time>
      </trkpt>
      <trkpt lat="44.05551" lon="6.83346">
        <ele>1161</ele>
        <time>2020-06-05T09:01:48.000Z</time>
      </trkpt>
      <trkpt lat="44.0555" lon="6.83345">
        <ele>1161</ele>
        <time>2020-06-05T09:01:49.000Z</time>
      </trkpt>
      <trkpt lat="44.05551" lon="6.83344">
        <ele>1160</ele>
        <time>2020-06-05T09:01:50.000Z</time>
      </trkpt>
      <trkpt lat="44.05551" lon="6.83343">
        <ele>1160</ele>
        <time>2020-06-05T09:01:51.000Z</time>
      </trkpt>
      <trkpt lat="44.05551" lon="6.83343">
        <ele>1160</ele>
        <time>2020-06-05T09:01:52.000Z</time>
      </trkpt>
      <trkpt lat="44.05552" lon="6.83342">
        <ele>1160</ele>
        <time>2020-06-05T09:01:53.000Z</time>
      </trkpt>
      <trkpt lat="44.05552" lon="6.83341">
        <ele>1159</ele>
        <time>2020-06-05T09:01:54.000Z</time>
      </trkpt>
      <trkpt lat="44.05552" lon="6.83341">
        <ele>1159</ele>
        <time>2020-06-05T09:01:55.000Z</time>
      </trkpt>
      <trkpt lat="44.05552" lon="6.8334">
        <ele>1159</ele>
        <time>2020-06-05T09:01:56.000Z</time>
      </trkpt>
      <trkpt lat="44.05553" lon="6.83339">
        <ele>1159</ele>
        <time>2020-06-05T09:01:57.000Z</time>
      </trkpt>
      <trkpt lat="44.05553" lon="6.83338">
        <ele>1159</ele>
        <time>2020-06-05T09:01:58.000Z</time>
      </trkpt>
      <trkpt lat="44.05553" lon="6.83337">
        <ele>1158</ele>
        <time>2020-06-05T09:01:59.000Z</time>
      </trkpt>
      <trkpt lat="44.05553" lon="6.83337">
        <ele>1158</ele>
        <time>2020-06-05T09:02:00.000Z</time>
      </trkpt>
      <trkpt lat="44.05552" lon="6.83337">
        <ele>1158</ele>
        <time>2020-06-05T09:02:01.000Z</time>
      </trkpt>
      <trkpt lat="44.05552" lon="6.83337">
        <ele>1158</ele>
        <time>2020-06-05T09:02:02.000Z</time>
      </trkpt>
      <trkpt lat="44.05552" lon="6.83337">
        <ele>1158</ele>
        <time>2020-06-05T09:02:03.000Z</time>
      </trkpt>
      <trkpt lat="44.05551" lon="6.83337">
        <ele>1157</ele>
        <time>2020-06-05T09:02:04.000Z</time>
      </trkpt>
      <trkpt lat="44.05551" lon="6.83337">
        <ele>1157</ele>
        <time>2020-06-05T09:02:05.000Z</time>
      </trkpt>
      <trkpt lat="44.05551" lon="6.83337">
        <ele>1157</ele>
        <time>2020-06-05T09:02:06.000Z</time>
      </trkpt>
      <trkpt lat="44.05551" lon="6.83337">
        <ele>1157</ele>
        <time>2020-06-05T09:02:07.000Z</time>
      </trkpt>
      <trkpt lat="44.05551" lon="6.83337">
        <ele>1157</ele>
        <time>2020-06-05T09:02:08.000Z</time>
      </trkpt>
      <trkpt lat="44.0555" lon="6.83336">
        <ele>1156</ele>
        <time>2020-06-05T09:02:09.000Z</time>
      </trkpt>
      <trkpt lat="44.0555" lon="6.83335">
        <ele>1156</ele>
        <time>2020-06-05T09:02:10.000Z</time>
      </trkpt>
      <trkpt lat="44.05549" lon="6.83335">
        <ele>1156</ele>
        <time>2020-06-05T09:02:11.000Z</time>
      </trkpt>
      <trkpt lat="44.05549" lon="6.83334">
        <ele>1156</ele>
        <time>2020-06-05T09:02:12.000Z</time>
      </trkpt>
      <trkpt lat="44.05548" lon="6.83334">
        <ele>1156</ele>
        <time>2020-06-05T09:02:13.000Z</time>
      </trkpt>
      <trkpt lat="44.05547" lon="6.83335">
        <ele>1156</ele>
        <time>2020-06-05T09:02:14.000Z</time>
      </trkpt>
      <trkpt lat="44.05546" lon="6.83335">
        <ele>1155</ele>
        <time>2020-06-05T09:02:15.000Z</time>
      </trkpt>
      <trkpt lat="44.05545" lon="6.83335">
        <ele>1155</ele>
        <time>2020-06-05T09:02:16.000Z</time>
      </trkpt>
      <trkpt lat="44.05545" lon="6.83336">
        <ele>1155</ele>
        <time>2020-06-05T09:02:17.000Z</time>
      </trkpt>
      <trkpt lat="44.05544" lon="6.83336">
        <ele>1155</ele>
        <time>2020-06-05T09:02:18.000Z</time>
      </trkpt>
      <trkpt lat="44.05544" lon="6.83336">
        <ele>1155</ele>
        <time>2020-06-05T09:02:19.000Z</time>
      </trkpt>
      <trkpt lat="44.05544" lon="6.83336">
        <ele>1155</ele>
        <time>2020-06-05T09:02:20.000Z</time>
      </trkpt>
      <trkpt lat="44.05543" lon="6.83336">
        <ele>1155</ele>
        <time>2020-06-05T09:02:21.000Z</time>
      </trkpt>
      <trkpt lat="44.05543" lon="6.83336">
        <ele>1155</ele>
        <time>2020-06-05T09:02:22.000Z</time>
      </trkpt>
      <trkpt lat="44.05543" lon="6.83336">
        <ele>1155</ele>
        <time>2020-06-05T09:02:23.000Z</time>
      </trkpt>
      <trkpt lat="44.05543" lon="6.83337">
        <ele>1155</ele>
        <time>2020-06-05T09:02:24.000Z</time>
      </trkpt>
      <trkpt lat="44.05543" lon="6.83337">
        <ele>1155</ele>
        <time>2020-06-05T09:02:25.000Z</time>
      </trkpt>
      <trkpt lat="44.05543" lon="6.83337">
        <ele>1154</ele>
        <time>2020-06-05T09:02:26.000Z</time>
      </trkpt>
      <trkpt lat="44.05543" lon="6.83337">
        <ele>1154</ele>
        <time>2020-06-05T09:02:27.000Z</time>
      </trkpt>
      <trkpt lat="44.05543" lon="6.83337">
        <ele>1154</ele>
        <time>2020-06-05T09:02:28.000Z</time>
      </trkpt>
      <trkpt lat="44.05543" lon="6.83337">
        <ele>1154</ele>
        <time>2020-06-05T09:02:29.000Z</time>
      </trkpt>
      <trkpt lat="44.05543" lon="6.83337">
        <ele>1154</ele>
        <time>2020-06-05T09:02:30.000Z</time>
      </trkpt>
      <trkpt lat="44.05543" lon="6.83337">
        <ele>1154</ele>
        <time>2020-06-05T09:02:31.000Z</time>
      </trkpt>
      <trkpt lat="44.05543" lon="6.83337">
        <ele>1154</ele>
        <time>2020-06-05T09:02:32.000Z</time>
      </trkpt>
      <trkpt lat="44.05543" lon="6.83337">
        <ele>1154</ele>
        <time>2020-06-05T09:02:33.000Z</time>
      </trkpt>
      <trkpt lat="44.05543" lon="6.83337">
        <ele>1154</ele>
        <time>2020-06-05T09:02:34.000Z</time>
      </trkpt>
      <trkpt lat="44.05543" lon="6.83337">
        <ele>1154</ele>
        <time>2020-06-05T09:02:35.000Z</time>
      </trkpt>
      <trkpt lat="44.05543" lon="6.83337">
        <ele>1154</ele>
        <time>2020-06-05T09:02:36.000Z</time>
      </trkpt>
      <trkpt lat="44.05543" lon="6.83337">
        <ele>1154</ele>
        <time>2020-06-05T09:02:37.000Z</time>
      </trkpt>
      <trkpt lat="44.05543" lon="6.83337">
        <ele>1154</ele>
        <time>2020-06-05T09:02:38.000Z</time>
      </trkpt>
      <trkpt lat="44.05543" lon="6.83337">
        <ele>1154</ele>
        <time>2020-06-05T09:02:39.000Z</time>
      </trkpt>
      <trkpt lat="44.05543" lon="6.83337">
        <ele>1154</ele>
        <time>2020-06-05T09:02:40.000Z</time>
      </trkpt>
      <trkpt lat="44.05543" lon="6.83337">
        <ele>1154</ele>
        <time>2020-06-05T09:02:41.000Z</time>
      </trkpt>
      <trkpt lat="44.05543" lon="6.83336">
        <ele>1153</ele>
        <time>2020-06-05T09:02:42.000Z</time>
      </trkpt>
      <trkpt lat="44.05543" lon="6.83336">
        <ele>1153</ele>
        <time>2020-06-05T09:02:43.000Z</time>
      </trkpt>
      <trkpt lat="44.05543" lon="6.83337">
        <ele>1153</ele>
        <time>2020-06-05T09:02:44.000Z</time>
      </trkpt>
      <trkpt lat="44.05543" lon="6.83337">
        <ele>1153</ele>
        <time>2020-06-05T09:02:45.000Z</time>
      </trkpt>
      <trkpt lat="44.05543" lon="6.83337">
        <ele>1153</ele>
        <time>2020-06-05T09:02:46.000Z</time>
      </trkpt>
      <trkpt lat="44.05543" lon="6.83337">
        <ele>1153</ele>
        <time>2020-06-05T09:02:47.000Z</time>
      </trkpt>
      <trkpt lat="44.05543" lon="6.83337">
        <ele>1153</ele>
        <time>2020-06-05T09:02:48.000Z</time>
      </trkpt>
      <trkpt lat="44.05543" lon="6.83336">
        <ele>1153</ele>
        <time>2020-06-05T09:02:49.000Z</time>
      </trkpt>
      <trkpt lat="44.05543" lon="6.83336">
        <ele>1153</ele>
        <time>2020-06-05T09:02:50.000Z</time>
      </trkpt>
      <trkpt lat="44.05543" lon="6.83336">
        <ele>1153</ele>
        <time>2020-06-05T09:02:51.000Z</time>
      </trkpt>
      <trkpt lat="44.05543" lon="6.83336">
        <ele>1153</ele>
        <time>2020-06-05T09:02:52.000Z</time>
      </trkpt>
      <trkpt lat="44.05542" lon="6.83336">
        <ele>1153</ele>
        <time>2020-06-05T09:02:53.000Z</time>
      </trkpt>
      <trkpt lat="44.05542" lon="6.83336">
        <ele>1153</ele>
        <time>2020-06-05T09:02:54.000Z</time>
      </trkpt>
      <trkpt lat="44.05542" lon="6.83336">
        <ele>1153</ele>
        <time>2020-06-05T09:02:55.000Z</time>
      </trkpt>
      <trkpt lat="44.05542" lon="6.83336">
        <ele>1153</ele>
        <time>2020-06-05T09:02:56.000Z</time>
      </trkpt>
      <trkpt lat="44.05542" lon="6.83336">
        <ele>1153</ele>
        <time>2020-06-05T09:02:57.000Z</time>
      </trkpt>
      <trkpt lat="44.05542" lon="6.83336">
        <ele>1153</ele>
        <time>2020-06-05T09:02:58.000Z</time>
      </trkpt>
      <trkpt lat="44.05542" lon="6.83336">
        <ele>1153</ele>
        <time>2020-06-05T09:02:59.000Z</time>
      </trkpt>
      <trkpt lat="44.05542" lon="6.83336">
        <ele>1153</ele>
        <time>2020-06-05T09:03:00.000Z</time>
      </trkpt>
      <trkpt lat="44.05542" lon="6.83336">
        <ele>1153</ele>
        <time>2020-06-05T09:03:01.000Z</time>
      </trkpt>
      <trkpt lat="44.05542" lon="6.83336">
        <ele>1153</ele>
        <time>2020-06-05T09:03:02.000Z</time>
      </trkpt>
      <trkpt lat="44.05541" lon="6.83336">
        <ele>1153</ele>
        <time>2020-06-05T09:03:03.000Z</time>
      </trkpt>
      <trkpt lat="44.05541" lon="6.83336">
        <ele>1153</ele>
        <time>2020-06-05T09:03:04.000Z</time>
      </trkpt>
      <trkpt lat="44.05542" lon="6.83337">
        <ele>1153</ele>
        <time>2020-06-05T09:03:05.000Z</time>
      </trkpt>
      <trkpt lat="44.05542" lon="6.83337">
        <ele>1153</ele>
        <time>2020-06-05T09:03:06.000Z</time>
      </trkpt>
      <trkpt lat="44.05542" lon="6.83337">
        <ele>1153</ele>
        <time>2020-06-05T09:03:07.000Z</time>
      </trkpt>
      <trkpt lat="44.05541" lon="6.83337">
        <ele>1153</ele>
        <time>2020-06-05T09:03:08.000Z</time>
      </trkpt>
      <trkpt lat="44.05541" lon="6.83337">
        <ele>1153</ele>
        <time>2020-06-05T09:03:09.000Z</time>
      </trkpt>
      <trkpt lat="44.05541" lon="6.83337">
        <ele>1153</ele>
        <time>2020-06-05T09:03:10.000Z</time>
      </trkpt>
      <trkpt lat="44.0554" lon="6.83337">
        <ele>1152</ele>
        <time>2020-06-05T09:03:11.000Z</time>
      </trkpt>
      <trkpt lat="44.0554" lon="6.83336">
        <ele>1152</ele>
        <time>2020-06-05T09:03:12.000Z</time>
      </trkpt>
      <trkpt lat="44.05539" lon="6.83336">
        <ele>1152</ele>
        <time>2020-06-05T09:03:13.000Z</time>
      </trkpt>
      <trkpt lat="44.05539" lon="6.83336">
        <ele>1152</ele>
        <time>2020-06-05T09:03:14.000Z</time>
      </trkpt>
      <trkpt lat="44.05538" lon="6.83336">
        <ele>1152</ele>
        <time>2020-06-05T09:03:15.000Z</time>
      </trkpt>
      <trkpt lat="44.05537" lon="6.83335">
        <ele>1152</ele>
        <time>2020-06-05T09:03:16.000Z</time>
      </trkpt>
      <trkpt lat="44.05536" lon="6.83335">
        <ele>1151</ele>
        <time>2020-06-05T09:03:17.000Z</time>
      </trkpt>
      <trkpt lat="44.05535" lon="6.83335">
        <ele>1151</ele>
        <time>2020-06-05T09:03:18.000Z</time>
      </trkpt>
      <trkpt lat="44.05534" lon="6.83335">
        <ele>1151</ele>
        <time>2020-06-05T09:03:19.000Z</time>
      </trkpt>
      <trkpt lat="44.05533" lon="6.83335">
        <ele>1151</ele>
        <time>2020-06-05T09:03:20.000Z</time>
      </trkpt>
      <trkpt lat="44.05532" lon="6.83336">
        <ele>1151</ele>
        <time>2020-06-05T09:03:21.000Z</time>
      </trkpt>
      <trkpt lat="44.05531" lon="6.83336">
        <ele>1151</ele>
        <time>2020-06-05T09:03:22.000Z</time>
      </trkpt>
      <trkpt lat="44.0553" lon="6.83337">
        <ele>1150</ele>
        <time>2020-06-05T09:03:23.000Z</time>
      </trkpt>
      <trkpt lat="44.05529" lon="6.83337">
        <ele>1150</ele>
        <time>2020-06-05T09:03:24.000Z</time>
      </trkpt>
      <trkpt lat="44.05528" lon="6.83338">
        <ele>1150</ele>
        <time>2020-06-05T09:03:25.000Z</time>
      </trkpt>
      <trkpt lat="44.05527" lon="6.83338">
        <ele>1150</ele>
        <time>2020-06-05T09:03:26.000Z</time>
      </trkpt>
      <trkpt lat="44.05526" lon="6.83339">
        <ele>1150</ele>
        <time>2020-06-05T09:03:27.000Z</time>
      </trkpt>
      <trkpt lat="44.05526" lon="6.83339">
        <ele>1150</ele>
        <time>2020-06-05T09:03:28.000Z</time>
      </trkpt>
      <trkpt lat="44.05524" lon="6.83339">
        <ele>1150</ele>
        <time>2020-06-05T09:03:29.000Z</time>
      </trkpt>
      <trkpt lat="44.05524" lon="6.8334">
        <ele>1150</ele>
        <time>2020-06-05T09:03:30.000Z</time>
      </trkpt>
      <trkpt lat="44.05523" lon="6.83341">
        <ele>1150</ele>
        <time>2020-06-05T09:03:31.000Z</time>
      </trkpt>
      <trkpt lat="44.05522" lon="6.83341">
        <ele>1150</ele>
        <time>2020-06-05T09:03:32.000Z</time>
      </trkpt>
      <trkpt lat="44.05521" lon="6.83341">
        <ele>1150</ele>
        <time>2020-06-05T09:03:33.000Z</time>
      </trkpt>
      <trkpt lat="44.0552" lon="6.83342">
        <ele>1150</ele>
        <time>2020-06-05T09:03:34.000Z</time>
      </trkpt>
      <trkpt lat="44.0552" lon="6.83342">
        <ele>1150</ele>
        <time>2020-06-05T09:03:35.000Z</time>
      </trkpt>
      <trkpt lat="44.05519" lon="6.83343">
        <ele>1150</ele>
        <time>2020-06-05T09:03:36.000Z</time>
      </trkpt>
      <trkpt lat="44.05518" lon="6.83343">
        <ele>1150</ele>
        <time>2020-06-05T09:03:37.000Z</time>
      </trkpt>
      <trkpt lat="44.05517" lon="6.83344">
        <ele>1150</ele>
        <time>2020-06-05T09:03:38.000Z</time>
      </trkpt>
      <trkpt lat="44.05516" lon="6.83345">
        <ele>1150</ele>
        <time>2020-06-05T09:03:39.000Z</time>
      </trkpt>
      <trkpt lat="44.05515" lon="6.83345">
        <ele>1150</ele>
        <time>2020-06-05T09:03:40.000Z</time>
      </trkpt>
      <trkpt lat="44.05515" lon="6.83345">
        <ele>1150</ele>
        <time>2020-06-05T09:03:41.000Z</time>
      </trkpt>
      <trkpt lat="44.05514" lon="6.83346">
        <ele>1150</ele>
        <time>2020-06-05T09:03:42.000Z</time>
      </trkpt>
      <trkpt lat="44.05513" lon="6.83346">
        <ele>1150</ele>
        <time>2020-06-05T09:03:43.000Z</time>
      </trkpt>
      <trkpt lat="44.05512" lon="6.83347">
        <ele>1150</ele>
        <time>2020-06-05T09:03:44.000Z</time>
      </trkpt>
      <trkpt lat="44.0551" lon="6.83348">
        <ele>1150</ele>
        <time>2020-06-05T09:03:45.000Z</time>
      </trkpt>
      <trkpt lat="44.0551" lon="6.83348">
        <ele>1150</ele>
        <time>2020-06-05T09:03:46.000Z</time>
      </trkpt>
      <trkpt lat="44.0551" lon="6.83348">
        <ele>1150</ele>
        <time>2020-06-05T09:03:47.000Z</time>
      </trkpt>
      <trkpt lat="44.05509" lon="6.83348">
        <ele>1150</ele>
        <time>2020-06-05T09:03:48.000Z</time>
      </trkpt>
      <trkpt lat="44.05508" lon="6.83349">
        <ele>1150</ele>
        <time>2020-06-05T09:03:49.000Z</time>
      </trkpt>
      <trkpt lat="44.05507" lon="6.83349">
        <ele>1150</ele>
        <time>2020-06-05T09:03:50.000Z</time>
      </trkpt>
      <trkpt lat="44.05506" lon="6.83349">
        <ele>1150</ele>
        <time>2020-06-05T09:03:51.000Z</time>
      </trkpt>
      <trkpt lat="44.05505" lon="6.83348">
        <ele>1150</ele>
        <time>2020-06-05T09:03:52.000Z</time>
      </trkpt>
      <trkpt lat="44.05505" lon="6.83348">
        <ele>1150</ele>
        <time>2020-06-05T09:03:53.000Z</time>
      </trkpt>
      <trkpt lat="44.05504" lon="6.83348">
        <ele>1150</ele>
        <time>2020-06-05T09:03:54.000Z</time>
      </trkpt>
      <trkpt lat="44.05503" lon="6.83348">
        <ele>1150</ele>
        <time>2020-06-05T09:03:55.000Z</time>
      </trkpt>
      <trkpt lat="44.05502" lon="6.83348">
        <ele>1150</ele>
        <time>2020-06-05T09:03:56.000Z</time>
      </trkpt>
      <trkpt lat="44.05502" lon="6.83348">
        <ele>1149</ele>
        <time>2020-06-05T09:03:57.000Z</time>
      </trkpt>
      <trkpt lat="44.05501" lon="6.83348">
        <ele>1149</ele>
        <time>2020-06-05T09:03:58.000Z</time>
      </trkpt>
      <trkpt lat="44.05501" lon="6.83349">
        <ele>1149</ele>
        <time>2020-06-05T09:03:59.000Z</time>
      </trkpt>
      <trkpt lat="44.055" lon="6.83349">
        <ele>1149</ele>
        <time>2020-06-05T09:04:00.000Z</time>
      </trkpt>
      <trkpt lat="44.055" lon="6.83348">
        <ele>1149</ele>
        <time>2020-06-05T09:04:01.000Z</time>
      </trkpt>
      <trkpt lat="44.055" lon="6.83347">
        <ele>1149</ele>
        <time>2020-06-05T09:04:02.000Z</time>
      </trkpt>
      <trkpt lat="44.055" lon="6.83346">
        <ele>1149</ele>
        <time>2020-06-05T09:04:03.000Z</time>
      </trkpt>
      <trkpt lat="44.055" lon="6.83345">
        <ele>1148</ele>
        <time>2020-06-05T09:04:04.000Z</time>
      </trkpt>
      <trkpt lat="44.05501" lon="6.83344">
        <ele>1148</ele>
        <time>2020-06-05T09:04:05.000Z</time>
      </trkpt>
      <trkpt lat="44.05501" lon="6.83344">
        <ele>1148</ele>
        <time>2020-06-05T09:04:06.000Z</time>
      </trkpt>
      <trkpt lat="44.05501" lon="6.83343">
        <ele>1148</ele>
        <time>2020-06-05T09:04:07.000Z</time>
      </trkpt>
      <trkpt lat="44.055" lon="6.83342">
        <ele>1148</ele>
        <time>2020-06-05T09:04:08.000Z</time>
      </trkpt>
      <trkpt lat="44.055" lon="6.83342">
        <ele>1147</ele>
        <time>2020-06-05T09:04:09.000Z</time>
      </trkpt>
      <trkpt lat="44.05499" lon="6.83341">
        <ele>1147</ele>
        <time>2020-06-05T09:04:10.000Z</time>
      </trkpt>
      <trkpt lat="44.05499" lon="6.83341">
        <ele>1147</ele>
        <time>2020-06-05T09:04:11.000Z</time>
      </trkpt>
      <trkpt lat="44.05498" lon="6.83341">
        <ele>1147</ele>
        <time>2020-06-05T09:04:12.000Z</time>
      </trkpt>
      <trkpt lat="44.05497" lon="6.83342">
        <ele>1147</ele>
        <time>2020-06-05T09:04:13.000Z</time>
      </trkpt>
      <trkpt lat="44.05496" lon="6.83343">
        <ele>1146</ele>
        <time>2020-06-05T09:04:14.000Z</time>
      </trkpt>
      <trkpt lat="44.05495" lon="6.83343">
        <ele>1146</ele>
        <time>2020-06-05T09:04:15.000Z</time>
      </trkpt>
      <trkpt lat="44.05494" lon="6.83345">
        <ele>1146</ele>
        <time>2020-06-05T09:04:16.000Z</time>
      </trkpt>
      <trkpt lat="44.05493" lon="6.83345">
        <ele>1146</ele>
        <time>2020-06-05T09:04:17.000Z</time>
      </trkpt>
      <trkpt lat="44.05492" lon="6.83345">
        <ele>1145</ele>
        <time>2020-06-05T09:04:18.000Z</time>
      </trkpt>
      <trkpt lat="44.05492" lon="6.83344">
        <ele>1145</ele>
        <time>2020-06-05T09:04:19.000Z</time>
      </trkpt>
      <trkpt lat="44.05491" lon="6.83343">
        <ele>1145</ele>
        <time>2020-06-05T09:04:20.000Z</time>
      </trkpt>
      <trkpt lat="44.05491" lon="6.83342">
        <ele>1145</ele>
        <time>2020-06-05T09:04:21.000Z</time>
      </trkpt>
      <trkpt lat="44.05491" lon="6.83341">
        <ele>1145</ele>
        <time>2020-06-05T09:04:22.000Z</time>
      </trkpt>
      <trkpt lat="44.05491" lon="6.8334">
        <ele>1145</ele>
        <time>2020-06-05T09:04:23.000Z</time>
      </trkpt>
      <trkpt lat="44.05491" lon="6.83339">
        <ele>1144</ele>
        <time>2020-06-05T09:04:24.000Z</time>
      </trkpt>
      <trkpt lat="44.05491" lon="6.83338">
        <ele>1144</ele>
        <time>2020-06-05T09:04:25.000Z</time>
      </trkpt>
      <trkpt lat="44.0549" lon="6.83336">
        <ele>1144</ele>
        <time>2020-06-05T09:04:26.000Z</time>
      </trkpt>
      <trkpt lat="44.0549" lon="6.83335">
        <ele>1144</ele>
        <time>2020-06-05T09:04:27.000Z</time>
      </trkpt>
      <trkpt lat="44.0549" lon="6.83334">
        <ele>1143</ele>
        <time>2020-06-05T09:04:28.000Z</time>
      </trkpt>
      <trkpt lat="44.0549" lon="6.83333">
        <ele>1143</ele>
        <time>2020-06-05T09:04:29.000Z</time>
      </trkpt>
      <trkpt lat="44.0549" lon="6.83331">
        <ele>1143</ele>
        <time>2020-06-05T09:04:30.000Z</time>
      </trkpt>
      <trkpt lat="44.0549" lon="6.83329">
        <ele>1143</ele>
        <time>2020-06-05T09:04:31.000Z</time>
      </trkpt>
      <trkpt lat="44.0549" lon="6.83327">
        <ele>1142</ele>
        <time>2020-06-05T09:04:32.000Z</time>
      </trkpt>
      <trkpt lat="44.0549" lon="6.83326">
        <ele>1142</ele>
        <time>2020-06-05T09:04:33.000Z</time>
      </trkpt>
      <trkpt lat="44.0549" lon="6.83324">
        <ele>1142</ele>
        <time>2020-06-05T09:04:34.000Z</time>
      </trkpt>
      <trkpt lat="44.0549" lon="6.83323">
        <ele>1142</ele>
        <time>2020-06-05T09:04:35.000Z</time>
      </trkpt>
      <trkpt lat="44.05491" lon="6.83322">
        <ele>1142</ele>
        <time>2020-06-05T09:04:36.000Z</time>
      </trkpt>
      <trkpt lat="44.05491" lon="6.8332">
        <ele>1141</ele>
        <time>2020-06-05T09:04:37.000Z</time>
      </trkpt>
      <trkpt lat="44.05491" lon="6.83319">
        <ele>1141</ele>
        <time>2020-06-05T09:04:38.000Z</time>
      </trkpt>
      <trkpt lat="44.05491" lon="6.83317">
        <ele>1141</ele>
        <time>2020-06-05T09:04:39.000Z</time>
      </trkpt>
      <trkpt lat="44.05491" lon="6.83316">
        <ele>1141</ele>
        <time>2020-06-05T09:04:40.000Z</time>
      </trkpt>
      <trkpt lat="44.05492" lon="6.83315">
        <ele>1141</ele>
        <time>2020-06-05T09:04:41.000Z</time>
      </trkpt>
      <trkpt lat="44.05492" lon="6.83314">
        <ele>1141</ele>
        <time>2020-06-05T09:04:42.000Z</time>
      </trkpt>
      <trkpt lat="44.05492" lon="6.83313">
        <ele>1141</ele>
        <time>2020-06-05T09:04:43.000Z</time>
      </trkpt>
      <trkpt lat="44.05493" lon="6.83313">
        <ele>1141</ele>
        <time>2020-06-05T09:04:44.000Z</time>
      </trkpt>
      <trkpt lat="44.05493" lon="6.83312">
        <ele>1140</ele>
        <time>2020-06-05T09:04:45.000Z</time>
      </trkpt>
      <trkpt lat="44.05493" lon="6.83311">
        <ele>1140</ele>
        <time>2020-06-05T09:04:46.000Z</time>
      </trkpt>
      <trkpt lat="44.05493" lon="6.8331">
        <ele>1140</ele>
        <time>2020-06-05T09:04:47.000Z</time>
      </trkpt>
      <trkpt lat="44.05494" lon="6.8331">
        <ele>1140</ele>
        <time>2020-06-05T09:04:48.000Z</time>
      </trkpt>
      <trkpt lat="44.05494" lon="6.83309">
        <ele>1140</ele>
        <time>2020-06-05T09:04:49.000Z</time>
      </trkpt>
      <trkpt lat="44.05494" lon="6.83308">
        <ele>1140</ele>
        <time>2020-06-05T09:04:50.000Z</time>
      </trkpt>
      <trkpt lat="44.05495" lon="6.83308">
        <ele>1139</ele>
        <time>2020-06-05T09:04:51.000Z</time>
      </trkpt>
      <trkpt lat="44.05495" lon="6.83307">
        <ele>1139</ele>
        <time>2020-06-05T09:04:52.000Z</time>
      </trkpt>
      <trkpt lat="44.05496" lon="6.83306">
        <ele>1139</ele>
        <time>2020-06-05T09:04:53.000Z</time>
      </trkpt>
      <trkpt lat="44.05496" lon="6.83305">
        <ele>1139</ele>
        <time>2020-06-05T09:04:54.000Z</time>
      </trkpt>
      <trkpt lat="44.05496" lon="6.83305">
        <ele>1139</ele>
        <time>2020-06-05T09:04:55.000Z</time>
      </trkpt>
      <trkpt lat="44.05497" lon="6.83304">
        <ele>1139</ele>
        <time>2020-06-05T09:04:56.000Z</time>
      </trkpt>
      <trkpt lat="44.05497" lon="6.83304">
        <ele>1138</ele>
        <time>2020-06-05T09:04:57.000Z</time>
      </trkpt>
      <trkpt lat="44.05497" lon="6.83303">
        <ele>1138</ele>
        <time>2020-06-05T09:04:58.000Z</time>
      </trkpt>
      <trkpt lat="44.05497" lon="6.83302">
        <ele>1138</ele>
        <time>2020-06-05T09:04:59.000Z</time>
      </trkpt>
      <trkpt lat="44.05497" lon="6.83302">
        <ele>1138</ele>
        <time>2020-06-05T09:05:00.000Z</time>
      </trkpt>
      <trkpt lat="44.05497" lon="6.83301">
        <ele>1137</ele>
        <time>2020-06-05T09:05:01.000Z</time>
      </trkpt>
      <trkpt lat="44.05496" lon="6.83301">
        <ele>1137</ele>
        <time>2020-06-05T09:05:02.000Z</time>
      </trkpt>
      <trkpt lat="44.05496" lon="6.833">
        <ele>1137</ele>
        <time>2020-06-05T09:05:03.000Z</time>
      </trkpt>
      <trkpt lat="44.05496" lon="6.83301">
        <ele>1137</ele>
        <time>2020-06-05T09:05:04.000Z</time>
      </trkpt>
      <trkpt lat="44.05496" lon="6.833">
        <ele>1137</ele>
        <time>2020-06-05T09:05:05.000Z</time>
      </trkpt>
      <trkpt lat="44.05496" lon="6.833">
        <ele>1137</ele>
        <time>2020-06-05T09:05:06.000Z</time>
      </trkpt>
      <trkpt lat="44.05496" lon="6.833">
        <ele>1136</ele>
        <time>2020-06-05T09:05:07.000Z</time>
      </trkpt>
      <trkpt lat="44.05495" lon="6.833">
        <ele>1136</ele>
        <time>2020-06-05T09:05:08.000Z</time>
      </trkpt>
      <trkpt lat="44.05495" lon="6.833">
        <ele>1136</ele>
        <time>2020-06-05T09:05:09.000Z</time>
      </trkpt>
      <trkpt lat="44.05495" lon="6.83299">
        <ele>1136</ele>
        <time>2020-06-05T09:05:10.000Z</time>
      </trkpt>
      <trkpt lat="44.05495" lon="6.83298">
        <ele>1136</ele>
        <time>2020-06-05T09:05:11.000Z</time>
      </trkpt>
      <trkpt lat="44.05495" lon="6.83298">
        <ele>1135</ele>
        <time>2020-06-05T09:05:12.000Z</time>
      </trkpt>
      <trkpt lat="44.05494" lon="6.83297">
        <ele>1135</ele>
        <time>2020-06-05T09:05:13.000Z</time>
      </trkpt>
      <trkpt lat="44.05494" lon="6.83296">
        <ele>1135</ele>
        <time>2020-06-05T09:05:14.000Z</time>
      </trkpt>
      <trkpt lat="44.05494" lon="6.83295">
        <ele>1135</ele>
        <time>2020-06-05T09:05:15.000Z</time>
      </trkpt>
      <trkpt lat="44.05494" lon="6.83294">
        <ele>1134</ele>
        <time>2020-06-05T09:05:16.000Z</time>
      </trkpt>
      <trkpt lat="44.05494" lon="6.83293">
        <ele>1134</ele>
        <time>2020-06-05T09:05:17.000Z</time>
      </trkpt>
      <trkpt lat="44.05495" lon="6.83292">
        <ele>1134</ele>
        <time>2020-06-05T09:05:18.000Z</time>
      </trkpt>
      <trkpt lat="44.05496" lon="6.83291">
        <ele>1134</ele>
        <time>2020-06-05T09:05:19.000Z</time>
      </trkpt>
      <trkpt lat="44.05497" lon="6.8329">
        <ele>1134</ele>
        <time>2020-06-05T09:05:20.000Z</time>
      </trkpt>
      <trkpt lat="44.05497" lon="6.8329">
        <ele>1133</ele>
        <time>2020-06-05T09:05:21.000Z</time>
      </trkpt>
      <trkpt lat="44.05498" lon="6.83289">
        <ele>1133</ele>
        <time>2020-06-05T09:05:22.000Z</time>
      </trkpt>
      <trkpt lat="44.05499" lon="6.83289">
        <ele>1133</ele>
        <time>2020-06-05T09:05:23.000Z</time>
      </trkpt>
      <trkpt lat="44.05499" lon="6.83288">
        <ele>1133</ele>
        <time>2020-06-05T09:05:24.000Z</time>
      </trkpt>
      <trkpt lat="44.05499" lon="6.83288">
        <ele>1133</ele>
        <time>2020-06-05T09:05:25.000Z</time>
      </trkpt>
      <trkpt lat="44.055" lon="6.83288">
        <ele>1133</ele>
        <time>2020-06-05T09:05:26.000Z</time>
      </trkpt>
      <trkpt lat="44.055" lon="6.83287">
        <ele>1133</ele>
        <time>2020-06-05T09:05:27.000Z</time>
      </trkpt>
      <trkpt lat="44.055" lon="6.83287">
        <ele>1132</ele>
        <time>2020-06-05T09:05:28.000Z</time>
      </trkpt>
      <trkpt lat="44.055" lon="6.83287">
        <ele>1132</ele>
        <time>2020-06-05T09:05:29.000Z</time>
      </trkpt>
      <trkpt lat="44.05499" lon="6.83287">
        <ele>1132</ele>
        <time>2020-06-05T09:05:30.000Z</time>
      </trkpt>
      <trkpt lat="44.05498" lon="6.83288">
        <ele>1132</ele>
        <time>2020-06-05T09:05:31.000Z</time>
      </trkpt>
      <trkpt lat="44.05498" lon="6.83288">
        <ele>1131</ele>
        <time>2020-06-05T09:05:32.000Z</time>
      </trkpt>
      <trkpt lat="44.05497" lon="6.83288">
        <ele>1131</ele>
        <time>2020-06-05T09:05:33.000Z</time>
      </trkpt>
      <trkpt lat="44.05497" lon="6.83288">
        <ele>1131</ele>
        <time>2020-06-05T09:05:34.000Z</time>
      </trkpt>
      <trkpt lat="44.05496" lon="6.83288">
        <ele>1131</ele>
        <time>2020-06-05T09:05:35.000Z</time>
      </trkpt>
      <trkpt lat="44.05495" lon="6.83288">
        <ele>1131</ele>
        <time>2020-06-05T09:05:36.000Z</time>
      </trkpt>
      <trkpt lat="44.05495" lon="6.83288">
        <ele>1131</ele>
        <time>2020-06-05T09:05:37.000Z</time>
      </trkpt>
      <trkpt lat="44.05495" lon="6.83287">
        <ele>1131</ele>
        <time>2020-06-05T09:05:38.000Z</time>
      </trkpt>
      <trkpt lat="44.05495" lon="6.83287">
        <ele>1130</ele>
        <time>2020-06-05T09:05:39.000Z</time>
      </trkpt>
      <trkpt lat="44.05494" lon="6.83287">
        <ele>1130</ele>
        <time>2020-06-05T09:05:40.000Z</time>
      </trkpt>
      <trkpt lat="44.05494" lon="6.83287">
        <ele>1130</ele>
        <time>2020-06-05T09:05:41.000Z</time>
      </trkpt>
      <trkpt lat="44.05493" lon="6.83287">
        <ele>1130</ele>
        <time>2020-06-05T09:05:42.000Z</time>
      </trkpt>
      <trkpt lat="44.05493" lon="6.83287">
        <ele>1130</ele>
        <time>2020-06-05T09:05:43.000Z</time>
      </trkpt>
      <trkpt lat="44.05493" lon="6.83287">
        <ele>1130</ele>
        <time>2020-06-05T09:05:44.000Z</time>
      </trkpt>
      <trkpt lat="44.05493" lon="6.83287">
        <ele>1130</ele>
        <time>2020-06-05T09:05:45.000Z</time>
      </trkpt>
      <trkpt lat="44.05492" lon="6.83287">
        <ele>1130</ele>
        <time>2020-06-05T09:05:46.000Z</time>
      </trkpt>
      <trkpt lat="44.05492" lon="6.83287">
        <ele>1130</ele>
        <time>2020-06-05T09:05:47.000Z</time>
      </trkpt>
      <trkpt lat="44.05492" lon="6.83286">
        <ele>1129</ele>
        <time>2020-06-05T09:05:48.000Z</time>
      </trkpt>
      <trkpt lat="44.05491" lon="6.83285">
        <ele>1129</ele>
        <time>2020-06-05T09:05:49.000Z</time>
      </trkpt>
      <trkpt lat="44.05491" lon="6.83285">
        <ele>1129</ele>
        <time>2020-06-05T09:05:50.000Z</time>
      </trkpt>
      <trkpt lat="44.0549" lon="6.83284">
        <ele>1129</ele>
        <time>2020-06-05T09:05:51.000Z</time>
      </trkpt>
      <trkpt lat="44.0549" lon="6.83283">
        <ele>1129</ele>
        <time>2020-06-05T09:05:52.000Z</time>
      </trkpt>
      <trkpt lat="44.05489" lon="6.83283">
        <ele>1129</ele>
        <time>2020-06-05T09:05:53.000Z</time>
      </trkpt>
      <trkpt lat="44.05488" lon="6.83282">
        <ele>1129</ele>
        <time>2020-06-05T09:05:54.000Z</time>
      </trkpt>
      <trkpt lat="44.05488" lon="6.83281">
        <ele>1128</ele>
        <time>2020-06-05T09:05:55.000Z</time>
      </trkpt>
      <trkpt lat="44.05487" lon="6.83281">
        <ele>1128</ele>
        <time>2020-06-05T09:05:56.000Z</time>
      </trkpt>
      <trkpt lat="44.05487" lon="6.8328">
        <ele>1128</ele>
        <time>2020-06-05T09:05:57.000Z</time>
      </trkpt>
      <trkpt lat="44.05486" lon="6.8328">
        <ele>1128</ele>
        <time>2020-06-05T09:05:58.000Z</time>
      </trkpt>
      <trkpt lat="44.05485" lon="6.83279">
        <ele>1128</ele>
        <time>2020-06-05T09:05:59.000Z</time>
      </trkpt>
      <trkpt lat="44.05485" lon="6.83279">
        <ele>1128</ele>
        <time>2020-06-05T09:06:00.000Z</time>
      </trkpt>
      <trkpt lat="44.05484" lon="6.83278">
        <ele>1128</ele>
        <time>2020-06-05T09:06:01.000Z</time>
      </trkpt>
      <trkpt lat="44.05484" lon="6.83277">
        <ele>1127</ele>
        <time>2020-06-05T09:06:02.000Z</time>
      </trkpt>
      <trkpt lat="44.05483" lon="6.83277">
        <ele>1127</ele>
        <time>2020-06-05T09:06:03.000Z</time>
      </trkpt>
      <trkpt lat="44.05483" lon="6.83277">
        <ele>1127</ele>
        <time>2020-06-05T09:06:04.000Z</time>
      </trkpt>
      <trkpt lat="44.05482" lon="6.83276">
        <ele>1127</ele>
        <time>2020-06-05T09:06:05.000Z</time>
      </trkpt>
      <trkpt lat="44.05482" lon="6.83275">
        <ele>1127</ele>
        <time>2020-06-05T09:06:06.000Z</time>
      </trkpt>
      <trkpt lat="44.05482" lon="6.83275">
        <ele>1127</ele>
        <time>2020-06-05T09:06:07.000Z</time>
      </trkpt>
      <trkpt lat="44.05483" lon="6.83274">
        <ele>1127</ele>
        <time>2020-06-05T09:06:08.000Z</time>
      </trkpt>
      <trkpt lat="44.05484" lon="6.83273">
        <ele>1127</ele>
        <time>2020-06-05T09:06:09.000Z</time>
      </trkpt>
      <trkpt lat="44.05484" lon="6.83273">
        <ele>1127</ele>
        <time>2020-06-05T09:06:10.000Z</time>
      </trkpt>
      <trkpt lat="44.05485" lon="6.83273">
        <ele>1127</ele>
        <time>2020-06-05T09:06:11.000Z</time>
      </trkpt>
      <trkpt lat="44.05486" lon="6.83273">
        <ele>1126</ele>
        <time>2020-06-05T09:06:12.000Z</time>
      </trkpt>
      <trkpt lat="44.05486" lon="6.83272">
        <ele>1126</ele>
        <time>2020-06-05T09:06:13.000Z</time>
      </trkpt>
      <trkpt lat="44.05486" lon="6.83272">
        <ele>1126</ele>
        <time>2020-06-05T09:06:14.000Z</time>
      </trkpt>
      <trkpt lat="44.05486" lon="6.83271">
        <ele>1126</ele>
        <time>2020-06-05T09:06:15.000Z</time>
      </trkpt>
      <trkpt lat="44.05486" lon="6.83271">
        <ele>1126</ele>
        <time>2020-06-05T09:06:16.000Z</time>
      </trkpt>
      <trkpt lat="44.05486" lon="6.8327">
        <ele>1125</ele>
        <time>2020-06-05T09:06:17.000Z</time>
      </trkpt>
      <trkpt lat="44.05485" lon="6.8327">
        <ele>1125</ele>
        <time>2020-06-05T09:06:18.000Z</time>
      </trkpt>
      <trkpt lat="44.05485" lon="6.83269">
        <ele>1125</ele>
        <time>2020-06-05T09:06:19.000Z</time>
      </trkpt>
      <trkpt lat="44.05485" lon="6.83268">
        <ele>1125</ele>
        <time>2020-06-05T09:06:20.000Z</time>
      </trkpt>
      <trkpt lat="44.05485" lon="6.83267">
        <ele>1125</ele>
        <time>2020-06-05T09:06:21.000Z</time>
      </trkpt>
      <trkpt lat="44.05485" lon="6.83267">
        <ele>1124</ele>
        <time>2020-06-05T09:06:22.000Z</time>
      </trkpt>
      <trkpt lat="44.05485" lon="6.83266">
        <ele>1124</ele>
        <time>2020-06-05T09:06:23.000Z</time>
      </trkpt>
      <trkpt lat="44.05486" lon="6.83266">
        <ele>1124</ele>
        <time>2020-06-05T09:06:24.000Z</time>
      </trkpt>
      <trkpt lat="44.05486" lon="6.83266">
        <ele>1124</ele>
        <time>2020-06-05T09:06:25.000Z</time>
      </trkpt>
      <trkpt lat="44.05487" lon="6.83266">
        <ele>1124</ele>
        <time>2020-06-05T09:06:26.000Z</time>
      </trkpt>
      <trkpt lat="44.05487" lon="6.83266">
        <ele>1123</ele>
        <time>2020-06-05T09:06:27.000Z</time>
      </trkpt>
      <trkpt lat="44.05487" lon="6.83265">
        <ele>1123</ele>
        <time>2020-06-05T09:06:28.000Z</time>
      </trkpt>
      <trkpt lat="44.05486" lon="6.83264">
        <ele>1123</ele>
        <time>2020-06-05T09:06:29.000Z</time>
      </trkpt>
      <trkpt lat="44.05486" lon="6.83264">
        <ele>1123</ele>
        <time>2020-06-05T09:06:30.000Z</time>
      </trkpt>
      <trkpt lat="44.05485" lon="6.83263">
        <ele>1123</ele>
        <time>2020-06-05T09:06:31.000Z</time>
      </trkpt>
      <trkpt lat="44.05485" lon="6.83263">
        <ele>1123</ele>
        <time>2020-06-05T09:06:32.000Z</time>
      </trkpt>
      <trkpt lat="44.05484" lon="6.83262">
        <ele>1123</ele>
        <time>2020-06-05T09:06:33.000Z</time>
      </trkpt>
      <trkpt lat="44.05483" lon="6.83262">
        <ele>1123</ele>
        <time>2020-06-05T09:06:34.000Z</time>
      </trkpt>
      <trkpt lat="44.05482" lon="6.83262">
        <ele>1123</ele>
        <time>2020-06-05T09:06:35.000Z</time>
      </trkpt>
      <trkpt lat="44.05481" lon="6.83262">
        <ele>1123</ele>
        <time>2020-06-05T09:06:36.000Z</time>
      </trkpt>
      <trkpt lat="44.05481" lon="6.83261">
        <ele>1123</ele>
        <time>2020-06-05T09:06:37.000Z</time>
      </trkpt>
      <trkpt lat="44.0548" lon="6.83261">
        <ele>1123</ele>
        <time>2020-06-05T09:06:38.000Z</time>
      </trkpt>
      <trkpt lat="44.05479" lon="6.83261">
        <ele>1123</ele>
        <time>2020-06-05T09:06:39.000Z</time>
      </trkpt>
      <trkpt lat="44.05478" lon="6.83261">
        <ele>1123</ele>
        <time>2020-06-05T09:06:40.000Z</time>
      </trkpt>
      <trkpt lat="44.05477" lon="6.83261">
        <ele>1123</ele>
        <time>2020-06-05T09:06:41.000Z</time>
      </trkpt>
      <trkpt lat="44.05476" lon="6.83261">
        <ele>1123</ele>
        <time>2020-06-05T09:06:42.000Z</time>
      </trkpt>
      <trkpt lat="44.05475" lon="6.8326">
        <ele>1123</ele>
        <time>2020-06-05T09:06:43.000Z</time>
      </trkpt>
      <trkpt lat="44.05474" lon="6.8326">
        <ele>1122</ele>
        <time>2020-06-05T09:06:44.000Z</time>
      </trkpt>
      <trkpt lat="44.05473" lon="6.8326">
        <ele>1122</ele>
        <time>2020-06-05T09:06:45.000Z</time>
      </trkpt>
      <trkpt lat="44.05472" lon="6.8326">
        <ele>1122</ele>
        <time>2020-06-05T09:06:46.000Z</time>
      </trkpt>
      <trkpt lat="44.0547" lon="6.8326">
        <ele>1122</ele>
        <time>2020-06-05T09:06:47.000Z</time>
      </trkpt>
      <trkpt lat="44.05469" lon="6.8326">
        <ele>1122</ele>
        <time>2020-06-05T09:06:48.000Z</time>
      </trkpt>
      <trkpt lat="44.05467" lon="6.8326">
        <ele>1121</ele>
        <time>2020-06-05T09:06:49.000Z</time>
      </trkpt>
      <trkpt lat="44.05466" lon="6.8326">
        <ele>1121</ele>
        <time>2020-06-05T09:06:50.000Z</time>
      </trkpt>
      <trkpt lat="44.05464" lon="6.8326">
        <ele>1121</ele>
        <time>2020-06-05T09:06:51.000Z</time>
      </trkpt>
      <trkpt lat="44.05463" lon="6.83261">
        <ele>1121</ele>
        <time>2020-06-05T09:06:52.000Z</time>
      </trkpt>
      <trkpt lat="44.05462" lon="6.83261">
        <ele>1121</ele>
        <time>2020-06-05T09:06:53.000Z</time>
      </trkpt>
      <trkpt lat="44.05461" lon="6.83262">
        <ele>1120</ele>
        <time>2020-06-05T09:06:54.000Z</time>
      </trkpt>
      <trkpt lat="44.05461" lon="6.83263">
        <ele>1120</ele>
        <time>2020-06-05T09:06:55.000Z</time>
      </trkpt>
      <trkpt lat="44.0546" lon="6.83264">
        <ele>1120</ele>
        <time>2020-06-05T09:06:56.000Z</time>
      </trkpt>
      <trkpt lat="44.05459" lon="6.83265">
        <ele>1120</ele>
        <time>2020-06-05T09:06:57.000Z</time>
      </trkpt>
      <trkpt lat="44.05458" lon="6.83266">
        <ele>1120</ele>
        <time>2020-06-05T09:06:58.000Z</time>
      </trkpt>
      <trkpt lat="44.05457" lon="6.83267">
        <ele>1120</ele>
        <time>2020-06-05T09:06:59.000Z</time>
      </trkpt>
      <trkpt lat="44.05456" lon="6.83268">
        <ele>1119</ele>
        <time>2020-06-05T09:07:00.000Z</time>
      </trkpt>
      <trkpt lat="44.05456" lon="6.83268">
        <ele>1119</ele>
        <time>2020-06-05T09:07:01.000Z</time>
      </trkpt>
      <trkpt lat="44.05455" lon="6.83269">
        <ele>1119</ele>
        <time>2020-06-05T09:07:02.000Z</time>
      </trkpt>
      <trkpt lat="44.05455" lon="6.8327">
        <ele>1119</ele>
        <time>2020-06-05T09:07:03.000Z</time>
      </trkpt>
      <trkpt lat="44.05454" lon="6.83271">
        <ele>1119</ele>
        <time>2020-06-05T09:07:04.000Z</time>
      </trkpt>
      <trkpt lat="44.05454" lon="6.83271">
        <ele>1119</ele>
        <time>2020-06-05T09:07:05.000Z</time>
      </trkpt>
      <trkpt lat="44.05454" lon="6.83272">
        <ele>1118</ele>
        <time>2020-06-05T09:07:06.000Z</time>
      </trkpt>
      <trkpt lat="44.05453" lon="6.83273">
        <ele>1118</ele>
        <time>2020-06-05T09:07:07.000Z</time>
      </trkpt>
      <trkpt lat="44.05453" lon="6.83274">
        <ele>1118</ele>
        <time>2020-06-05T09:07:08.000Z</time>
      </trkpt>
      <trkpt lat="44.05453" lon="6.83276">
        <ele>1118</ele>
        <time>2020-06-05T09:07:09.000Z</time>
      </trkpt>
      <trkpt lat="44.05452" lon="6.83277">
        <ele>1118</ele>
        <time>2020-06-05T09:07:10.000Z</time>
      </trkpt>
      <trkpt lat="44.05452" lon="6.83278">
        <ele>1118</ele>
        <time>2020-06-05T09:07:11.000Z</time>
      </trkpt>
      <trkpt lat="44.05451" lon="6.83279">
        <ele>1118</ele>
        <time>2020-06-05T09:07:12.000Z</time>
      </trkpt>
      <trkpt lat="44.05451" lon="6.83281">
        <ele>1117</ele>
        <time>2020-06-05T09:07:13.000Z</time>
      </trkpt>
      <trkpt lat="44.0545" lon="6.83282">
        <ele>1117</ele>
        <time>2020-06-05T09:07:14.000Z</time>
      </trkpt>
      <trkpt lat="44.05449" lon="6.83283">
        <ele>1117</ele>
        <time>2020-06-05T09:07:15.000Z</time>
      </trkpt>
      <trkpt lat="44.05449" lon="6.83284">
        <ele>1117</ele>
        <time>2020-06-05T09:07:16.000Z</time>
      </trkpt>
      <trkpt lat="44.05449" lon="6.83285">
        <ele>1117</ele>
        <time>2020-06-05T09:07:17.000Z</time>
      </trkpt>
      <trkpt lat="44.05448" lon="6.83287">
        <ele>1116</ele>
        <time>2020-06-05T09:07:18.000Z</time>
      </trkpt>
      <trkpt lat="44.05448" lon="6.83288">
        <ele>1116</ele>
        <time>2020-06-05T09:07:19.000Z</time>
      </trkpt>
      <trkpt lat="44.05448" lon="6.8329">
        <ele>1116</ele>
        <time>2020-06-05T09:07:20.000Z</time>
      </trkpt>
      <trkpt lat="44.05448" lon="6.83292">
        <ele>1116</ele>
        <time>2020-06-05T09:07:21.000Z</time>
      </trkpt>
      <trkpt lat="44.05448" lon="6.83294">
        <ele>1116</ele>
        <time>2020-06-05T09:07:22.000Z</time>
      </trkpt>
      <trkpt lat="44.05448" lon="6.83296">
        <ele>1116</ele>
        <time>2020-06-05T09:07:23.000Z</time>
      </trkpt>
      <trkpt lat="44.05448" lon="6.83298">
        <ele>1116</ele>
        <time>2020-06-05T09:07:24.000Z</time>
      </trkpt>
      <trkpt lat="44.05448" lon="6.833">
        <ele>1116</ele>
        <time>2020-06-05T09:07:25.000Z</time>
      </trkpt>
      <trkpt lat="44.05448" lon="6.83301">
        <ele>1116</ele>
        <time>2020-06-05T09:07:26.000Z</time>
      </trkpt>
      <trkpt lat="44.05448" lon="6.83302">
        <ele>1116</ele>
        <time>2020-06-05T09:07:27.000Z</time>
      </trkpt>
      <trkpt lat="44.05448" lon="6.83303">
        <ele>1116</ele>
        <time>2020-06-05T09:07:28.000Z</time>
      </trkpt>
      <trkpt lat="44.05447" lon="6.83304">
        <ele>1115</ele>
        <time>2020-06-05T09:07:29.000Z</time>
      </trkpt>
      <trkpt lat="44.05447" lon="6.83305">
        <ele>1116</ele>
        <time>2020-06-05T09:07:30.000Z</time>
      </trkpt>
      <trkpt lat="44.05446" lon="6.83306">
        <ele>1116</ele>
        <time>2020-06-05T09:07:31.000Z</time>
      </trkpt>
      <trkpt lat="44.05446" lon="6.83306">
        <ele>1116</ele>
        <time>2020-06-05T09:07:32.000Z</time>
      </trkpt>
      <trkpt lat="44.05446" lon="6.83306">
        <ele>1116</ele>
        <time>2020-06-05T09:07:33.000Z</time>
      </trkpt>
      <trkpt lat="44.05445" lon="6.83306">
        <ele>1116</ele>
        <time>2020-06-05T09:07:34.000Z</time>
      </trkpt>
      <trkpt lat="44.05445" lon="6.83306">
        <ele>1116</ele>
        <time>2020-06-05T09:07:35.000Z</time>
      </trkpt>
      <trkpt lat="44.05444" lon="6.83306">
        <ele>1116</ele>
        <time>2020-06-05T09:07:36.000Z</time>
      </trkpt>
      <trkpt lat="44.05443" lon="6.83307">
        <ele>1116</ele>
        <time>2020-06-05T09:07:37.000Z</time>
      </trkpt>
      <trkpt lat="44.05442" lon="6.83307">
        <ele>1116</ele>
        <time>2020-06-05T09:07:38.000Z</time>
      </trkpt>
      <trkpt lat="44.05441" lon="6.83307">
        <ele>1116</ele>
        <time>2020-06-05T09:07:39.000Z</time>
      </trkpt>
      <trkpt lat="44.05439" lon="6.83308">
        <ele>1116</ele>
        <time>2020-06-05T09:07:40.000Z</time>
      </trkpt>
      <trkpt lat="44.05438" lon="6.83308">
        <ele>1116</ele>
        <time>2020-06-05T09:07:41.000Z</time>
      </trkpt>
      <trkpt lat="44.05437" lon="6.83308">
        <ele>1116</ele>
        <time>2020-06-05T09:07:42.000Z</time>
      </trkpt>
      <trkpt lat="44.05436" lon="6.83309">
        <ele>1116</ele>
        <time>2020-06-05T09:07:43.000Z</time>
      </trkpt>
      <trkpt lat="44.05434" lon="6.83309">
        <ele>1116</ele>
        <time>2020-06-05T09:07:44.000Z</time>
      </trkpt>
      <trkpt lat="44.05433" lon="6.8331">
        <ele>1116</ele>
        <time>2020-06-05T09:07:45.000Z</time>
      </trkpt>
      <trkpt lat="44.05432" lon="6.8331">
        <ele>1117</ele>
        <time>2020-06-05T09:07:46.000Z</time>
      </trkpt>
      <trkpt lat="44.05431" lon="6.8331">
        <ele>1117</ele>
        <time>2020-06-05T09:07:47.000Z</time>
      </trkpt>
      <trkpt lat="44.05429" lon="6.83311">
        <ele>1117</ele>
        <time>2020-06-05T09:07:48.000Z</time>
      </trkpt>
      <trkpt lat="44.05428" lon="6.83311">
        <ele>1117</ele>
        <time>2020-06-05T09:07:49.000Z</time>
      </trkpt>
      <trkpt lat="44.05427" lon="6.83311">
        <ele>1117</ele>
        <time>2020-06-05T09:07:50.000Z</time>
      </trkpt>
      <trkpt lat="44.05426" lon="6.83312">
        <ele>1117</ele>
        <time>2020-06-05T09:07:51.000Z</time>
      </trkpt>
      <trkpt lat="44.05425" lon="6.83313">
        <ele>1117</ele>
        <time>2020-06-05T09:07:52.000Z</time>
      </trkpt>
      <trkpt lat="44.05423" lon="6.83313">
        <ele>1117</ele>
        <time>2020-06-05T09:07:53.000Z</time>
      </trkpt>
      <trkpt lat="44.05422" lon="6.83314">
        <ele>1117</ele>
        <time>2020-06-05T09:07:54.000Z</time>
      </trkpt>
      <trkpt lat="44.05421" lon="6.83314">
        <ele>1117</ele>
        <time>2020-06-05T09:07:55.000Z</time>
      </trkpt>
      <trkpt lat="44.05419" lon="6.83315">
        <ele>1117</ele>
        <time>2020-06-05T09:07:56.000Z</time>
      </trkpt>
      <trkpt lat="44.05418" lon="6.83315">
        <ele>1117</ele>
        <time>2020-06-05T09:07:57.000Z</time>
      </trkpt>
      <trkpt lat="44.05417" lon="6.83316">
        <ele>1117</ele>
        <time>2020-06-05T09:07:58.000Z</time>
      </trkpt>
      <trkpt lat="44.05416" lon="6.83316">
        <ele>1117</ele>
        <time>2020-06-05T09:07:59.000Z</time>
      </trkpt>
      <trkpt lat="44.05415" lon="6.83316">
        <ele>1117</ele>
        <time>2020-06-05T09:08:00.000Z</time>
      </trkpt>
      <trkpt lat="44.05413" lon="6.83316">
        <ele>1117</ele>
        <time>2020-06-05T09:08:01.000Z</time>
      </trkpt>
      <trkpt lat="44.05412" lon="6.83316">
        <ele>1117</ele>
        <time>2020-06-05T09:08:02.000Z</time>
      </trkpt>
      <trkpt lat="44.05411" lon="6.83316">
        <ele>1117</ele>
        <time>2020-06-05T09:08:03.000Z</time>
      </trkpt>
      <trkpt lat="44.0541" lon="6.83316">
        <ele>1117</ele>
        <time>2020-06-05T09:08:04.000Z</time>
      </trkpt>
      <trkpt lat="44.05408" lon="6.83316">
        <ele>1117</ele>
        <time>2020-06-05T09:08:05.000Z</time>
      </trkpt>
      <trkpt lat="44.05407" lon="6.83316">
        <ele>1117</ele>
        <time>2020-06-05T09:08:06.000Z</time>
      </trkpt>
      <trkpt lat="44.05406" lon="6.83316">
        <ele>1117</ele>
        <time>2020-06-05T09:08:07.000Z</time>
      </trkpt>
      <trkpt lat="44.05406" lon="6.83316">
        <ele>1117</ele>
        <time>2020-06-05T09:08:08.000Z</time>
      </trkpt>
      <trkpt lat="44.05405" lon="6.83316">
        <ele>1117</ele>
        <time>2020-06-05T09:08:09.000Z</time>
      </trkpt>
      <trkpt lat="44.05404" lon="6.83317">
        <ele>1117</ele>
        <time>2020-06-05T09:08:10.000Z</time>
      </trkpt>
      <trkpt lat="44.05402" lon="6.83317">
        <ele>1117</ele>
        <time>2020-06-05T09:08:11.000Z</time>
      </trkpt>
      <trkpt lat="44.05401" lon="6.83317">
        <ele>1118</ele>
        <time>2020-06-05T09:08:12.000Z</time>
      </trkpt>
      <trkpt lat="44.054" lon="6.83317">
        <ele>1118</ele>
        <time>2020-06-05T09:08:13.000Z</time>
      </trkpt>
      <trkpt lat="44.05399" lon="6.83318">
        <ele>1118</ele>
        <time>2020-06-05T09:08:14.000Z</time>
      </trkpt>
      <trkpt lat="44.05397" lon="6.83318">
        <ele>1118</ele>
        <time>2020-06-05T09:08:15.000Z</time>
      </trkpt>
      <trkpt lat="44.05396" lon="6.83319">
        <ele>1118</ele>
        <time>2020-06-05T09:08:16.000Z</time>
      </trkpt>
      <trkpt lat="44.05394" lon="6.8332">
        <ele>1118</ele>
        <time>2020-06-05T09:08:17.000Z</time>
      </trkpt>
      <trkpt lat="44.05393" lon="6.8332">
        <ele>1118</ele>
        <time>2020-06-05T09:08:18.000Z</time>
      </trkpt>
      <trkpt lat="44.05392" lon="6.83321">
        <ele>1118</ele>
        <time>2020-06-05T09:08:19.000Z</time>
      </trkpt>
      <trkpt lat="44.05391" lon="6.83321">
        <ele>1118</ele>
        <time>2020-06-05T09:08:20.000Z</time>
      </trkpt>
      <trkpt lat="44.0539" lon="6.83322">
        <ele>1118</ele>
        <time>2020-06-05T09:08:21.000Z</time>
      </trkpt>
      <trkpt lat="44.05389" lon="6.83323">
        <ele>1118</ele>
        <time>2020-06-05T09:08:22.000Z</time>
      </trkpt>
      <trkpt lat="44.05388" lon="6.83323">
        <ele>1118</ele>
        <time>2020-06-05T09:08:23.000Z</time>
      </trkpt>
      <trkpt lat="44.05387" lon="6.83324">
        <ele>1118</ele>
        <time>2020-06-05T09:08:24.000Z</time>
      </trkpt>
      <trkpt lat="44.05385" lon="6.83324">
        <ele>1118</ele>
        <time>2020-06-05T09:08:25.000Z</time>
      </trkpt>
      <trkpt lat="44.05384" lon="6.83324">
        <ele>1118</ele>
        <time>2020-06-05T09:08:26.000Z</time>
      </trkpt>
      <trkpt lat="44.05383" lon="6.83325">
        <ele>1118</ele>
        <time>2020-06-05T09:08:27.000Z</time>
      </trkpt>
      <trkpt lat="44.05381" lon="6.83325">
        <ele>1118</ele>
        <time>2020-06-05T09:08:28.000Z</time>
      </trkpt>
      <trkpt lat="44.0538" lon="6.83325">
        <ele>1118</ele>
        <time>2020-06-05T09:08:29.000Z</time>
      </trkpt>
      <trkpt lat="44.05378" lon="6.83326">
        <ele>1118</ele>
        <time>2020-06-05T09:08:30.000Z</time>
      </trkpt>
      <trkpt lat="44.05377" lon="6.83326">
        <ele>1118</ele>
        <time>2020-06-05T09:08:31.000Z</time>
      </trkpt>
      <trkpt lat="44.05376" lon="6.83325">
        <ele>1118</ele>
        <time>2020-06-05T09:08:32.000Z</time>
      </trkpt>
      <trkpt lat="44.05375" lon="6.83325">
        <ele>1118</ele>
        <time>2020-06-05T09:08:33.000Z</time>
      </trkpt>
      <trkpt lat="44.05374" lon="6.83325">
        <ele>1118</ele>
        <time>2020-06-05T09:08:34.000Z</time>
      </trkpt>
      <trkpt lat="44.05373" lon="6.83325">
        <ele>1118</ele>
        <time>2020-06-05T09:08:35.000Z</time>
      </trkpt>
      <trkpt lat="44.05371" lon="6.83325">
        <ele>1118</ele>
        <time>2020-06-05T09:08:36.000Z</time>
      </trkpt>
      <trkpt lat="44.0537" lon="6.83324">
        <ele>1118</ele>
        <time>2020-06-05T09:08:37.000Z</time>
      </trkpt>
      <trkpt lat="44.0537" lon="6.83324">
        <ele>1118</ele>
        <time>2020-06-05T09:08:38.000Z</time>
      </trkpt>
      <trkpt lat="44.05369" lon="6.83323">
        <ele>1118</ele>
        <time>2020-06-05T09:08:39.000Z</time>
      </trkpt>
      <trkpt lat="44.05368" lon="6.83322">
        <ele>1118</ele>
        <time>2020-06-05T09:08:40.000Z</time>
      </trkpt>
      <trkpt lat="44.05367" lon="6.83322">
        <ele>1118</ele>
        <time>2020-06-05T09:08:41.000Z</time>
      </trkpt>
      <trkpt lat="44.05367" lon="6.83322">
        <ele>1118</ele>
        <time>2020-06-05T09:08:42.000Z</time>
      </trkpt>
      <trkpt lat="44.05366" lon="6.83322">
        <ele>1118</ele>
        <time>2020-06-05T09:08:43.000Z</time>
      </trkpt>
      <trkpt lat="44.05366" lon="6.83321">
        <ele>1118</ele>
        <time>2020-06-05T09:08:44.000Z</time>
      </trkpt>
      <trkpt lat="44.05366" lon="6.83321">
        <ele>1118</ele>
        <time>2020-06-05T09:08:45.000Z</time>
      </trkpt>
      <trkpt lat="44.05366" lon="6.83321">
        <ele>1118</ele>
        <time>2020-06-05T09:08:46.000Z</time>
      </trkpt>
      <trkpt lat="44.05366" lon="6.83321">
        <ele>1118</ele>
        <time>2020-06-05T09:08:47.000Z</time>
      </trkpt>
      <trkpt lat="44.05365" lon="6.83321">
        <ele>1118</ele>
        <time>2020-06-05T09:08:48.000Z</time>
      </trkpt>
      <trkpt lat="44.05365" lon="6.8332">
        <ele>1118</ele>
        <time>2020-06-05T09:08:49.000Z</time>
      </trkpt>
      <trkpt lat="44.05365" lon="6.83319">
        <ele>1118</ele>
        <time>2020-06-05T09:08:50.000Z</time>
      </trkpt>
      <trkpt lat="44.05364" lon="6.83318">
        <ele>1118</ele>
        <time>2020-06-05T09:08:51.000Z</time>
      </trkpt>
      <trkpt lat="44.05363" lon="6.83317">
        <ele>1118</ele>
        <time>2020-06-05T09:08:52.000Z</time>
      </trkpt>
      <trkpt lat="44.05362" lon="6.83316">
        <ele>1118</ele>
        <time>2020-06-05T09:08:53.000Z</time>
      </trkpt>
      <trkpt lat="44.05362" lon="6.83315">
        <ele>1118</ele>
        <time>2020-06-05T09:08:54.000Z</time>
      </trkpt>
      <trkpt lat="44.0536" lon="6.83315">
        <ele>1117</ele>
        <time>2020-06-05T09:08:55.000Z</time>
      </trkpt>
      <trkpt lat="44.0536" lon="6.83314">
        <ele>1117</ele>
        <time>2020-06-05T09:08:56.000Z</time>
      </trkpt>
      <trkpt lat="44.05359" lon="6.83314">
        <ele>1117</ele>
        <time>2020-06-05T09:08:57.000Z</time>
      </trkpt>
      <trkpt lat="44.05358" lon="6.83314">
        <ele>1117</ele>
        <time>2020-06-05T09:08:58.000Z</time>
      </trkpt>
      <trkpt lat="44.05356" lon="6.83314">
        <ele>1117</ele>
        <time>2020-06-05T09:08:59.000Z</time>
      </trkpt>
      <trkpt lat="44.05355" lon="6.83314">
        <ele>1117</ele>
        <time>2020-06-05T09:09:00.000Z</time>
      </trkpt>
      <trkpt lat="44.05354" lon="6.83314">
        <ele>1117</ele>
        <time>2020-06-05T09:09:01.000Z</time>
      </trkpt>
      <trkpt lat="44.05353" lon="6.83313">
        <ele>1117</ele>
        <time>2020-06-05T09:09:02.000Z</time>
      </trkpt>
      <trkpt lat="44.05352" lon="6.83313">
        <ele>1117</ele>
        <time>2020-06-05T09:09:03.000Z</time>
      </trkpt>
      <trkpt lat="44.05352" lon="6.83312">
        <ele>1117</ele>
        <time>2020-06-05T09:09:04.000Z</time>
      </trkpt>
      <trkpt lat="44.05351" lon="6.83312">
        <ele>1117</ele>
        <time>2020-06-05T09:09:05.000Z</time>
      </trkpt>
      <trkpt lat="44.05351" lon="6.83312">
        <ele>1116</ele>
        <time>2020-06-05T09:09:06.000Z</time>
      </trkpt>
      <trkpt lat="44.0535" lon="6.83312">
        <ele>1116</ele>
        <time>2020-06-05T09:09:07.000Z</time>
      </trkpt>
      <trkpt lat="44.05349" lon="6.83311">
        <ele>1116</ele>
        <time>2020-06-05T09:09:08.000Z</time>
      </trkpt>
      <trkpt lat="44.05348" lon="6.83311">
        <ele>1116</ele>
        <time>2020-06-05T09:09:09.000Z</time>
      </trkpt>
      <trkpt lat="44.05347" lon="6.8331">
        <ele>1116</ele>
        <time>2020-06-05T09:09:10.000Z</time>
      </trkpt>
      <trkpt lat="44.05346" lon="6.8331">
        <ele>1116</ele>
        <time>2020-06-05T09:09:11.000Z</time>
      </trkpt>
      <trkpt lat="44.05345" lon="6.83309">
        <ele>1116</ele>
        <time>2020-06-05T09:09:12.000Z</time>
      </trkpt>
      <trkpt lat="44.05344" lon="6.83309">
        <ele>1116</ele>
        <time>2020-06-05T09:09:13.000Z</time>
      </trkpt>
      <trkpt lat="44.05343" lon="6.83308">
        <ele>1116</ele>
        <time>2020-06-05T09:09:14.000Z</time>
      </trkpt>
      <trkpt lat="44.05342" lon="6.83308">
        <ele>1116</ele>
        <time>2020-06-05T09:09:15.000Z</time>
      </trkpt>
      <trkpt lat="44.0534" lon="6.83308">
        <ele>1116</ele>
        <time>2020-06-05T09:09:16.000Z</time>
      </trkpt>
      <trkpt lat="44.05339" lon="6.83308">
        <ele>1116</ele>
        <time>2020-06-05T09:09:17.000Z</time>
      </trkpt>
      <trkpt lat="44.05338" lon="6.83307">
        <ele>1116</ele>
        <time>2020-06-05T09:09:18.000Z</time>
      </trkpt>
      <trkpt lat="44.05336" lon="6.83307">
        <ele>1116</ele>
        <time>2020-06-05T09:09:19.000Z</time>
      </trkpt>
      <trkpt lat="44.05335" lon="6.83307">
        <ele>1116</ele>
        <time>2020-06-05T09:09:20.000Z</time>
      </trkpt>
      <trkpt lat="44.05333" lon="6.83307">
        <ele>1116</ele>
        <time>2020-06-05T09:09:21.000Z</time>
      </trkpt>
      <trkpt lat="44.05332" lon="6.83307">
        <ele>1116</ele>
        <time>2020-06-05T09:09:22.000Z</time>
      </trkpt>
      <trkpt lat="44.0533" lon="6.83307">
        <ele>1116</ele>
        <time>2020-06-05T09:09:23.000Z</time>
      </trkpt>
      <trkpt lat="44.05328" lon="6.83308">
        <ele>1116</ele>
        <time>2020-06-05T09:09:24.000Z</time>
      </trkpt>
      <trkpt lat="44.05327" lon="6.83308">
        <ele>1116</ele>
        <time>2020-06-05T09:09:25.000Z</time>
      </trkpt>
      <trkpt lat="44.05326" lon="6.83308">
        <ele>1116</ele>
        <time>2020-06-05T09:09:26.000Z</time>
      </trkpt>
      <trkpt lat="44.05325" lon="6.83308">
        <ele>1116</ele>
        <time>2020-06-05T09:09:27.000Z</time>
      </trkpt>
      <trkpt lat="44.05323" lon="6.83308">
        <ele>1116</ele>
        <time>2020-06-05T09:09:28.000Z</time>
      </trkpt>
      <trkpt lat="44.05322" lon="6.83309">
        <ele>1116</ele>
        <time>2020-06-05T09:09:29.000Z</time>
      </trkpt>
      <trkpt lat="44.0532" lon="6.83309">
        <ele>1116</ele>
        <time>2020-06-05T09:09:30.000Z</time>
      </trkpt>
      <trkpt lat="44.05319" lon="6.83309">
        <ele>1116</ele>
        <time>2020-06-05T09:09:31.000Z</time>
      </trkpt>
      <trkpt lat="44.05317" lon="6.83309">
        <ele>1116</ele>
        <time>2020-06-05T09:09:32.000Z</time>
      </trkpt>
      <trkpt lat="44.05316" lon="6.83309">
        <ele>1116</ele>
        <time>2020-06-05T09:09:33.000Z</time>
      </trkpt>
      <trkpt lat="44.05314" lon="6.83309">
        <ele>1116</ele>
        <time>2020-06-05T09:09:34.000Z</time>
      </trkpt>
      <trkpt lat="44.05313" lon="6.8331">
        <ele>1116</ele>
        <time>2020-06-05T09:09:35.000Z</time>
      </trkpt>
      <trkpt lat="44.05312" lon="6.8331">
        <ele>1116</ele>
        <time>2020-06-05T09:09:36.000Z</time>
      </trkpt>
      <trkpt lat="44.05311" lon="6.8331">
        <ele>1116</ele>
        <time>2020-06-05T09:09:37.000Z</time>
      </trkpt>
      <trkpt lat="44.0531" lon="6.83311">
        <ele>1117</ele>
        <time>2020-06-05T09:09:38.000Z</time>
      </trkpt>
      <trkpt lat="44.05309" lon="6.83311">
        <ele>1117</ele>
        <time>2020-06-05T09:09:39.000Z</time>
      </trkpt>
      <trkpt lat="44.05307" lon="6.83312">
        <ele>1117</ele>
        <time>2020-06-05T09:09:40.000Z</time>
      </trkpt>
      <trkpt lat="44.05306" lon="6.83313">
        <ele>1117</ele>
        <time>2020-06-05T09:09:41.000Z</time>
      </trkpt>
      <trkpt lat="44.05305" lon="6.83313">
        <ele>1116</ele>
        <time>2020-06-05T09:09:42.000Z</time>
      </trkpt>
      <trkpt lat="44.05304" lon="6.83314">
        <ele>1116</ele>
        <time>2020-06-05T09:09:43.000Z</time>
      </trkpt>
      <trkpt lat="44.05303" lon="6.83314">
        <ele>1116</ele>
        <time>2020-06-05T09:09:44.000Z</time>
      </trkpt>
      <trkpt lat="44.05302" lon="6.83314">
        <ele>1116</ele>
        <time>2020-06-05T09:09:45.000Z</time>
      </trkpt>
      <trkpt lat="44.05301" lon="6.83314">
        <ele>1116</ele>
        <time>2020-06-05T09:09:46.000Z</time>
      </trkpt>
      <trkpt lat="44.053" lon="6.83315">
        <ele>1116</ele>
        <time>2020-06-05T09:09:47.000Z</time>
      </trkpt>
      <trkpt lat="44.05299" lon="6.83315">
        <ele>1117</ele>
        <time>2020-06-05T09:09:48.000Z</time>
      </trkpt>
      <trkpt lat="44.05298" lon="6.83315">
        <ele>1117</ele>
        <time>2020-06-05T09:09:49.000Z</time>
      </trkpt>
      <trkpt lat="44.05297" lon="6.83315">
        <ele>1117</ele>
        <time>2020-06-05T09:09:50.000Z</time>
      </trkpt>
      <trkpt lat="44.05296" lon="6.83315">
        <ele>1116</ele>
        <time>2020-06-05T09:09:51.000Z</time>
      </trkpt>
      <trkpt lat="44.05295" lon="6.83315">
        <ele>1116</ele>
        <time>2020-06-05T09:09:52.000Z</time>
      </trkpt>
      <trkpt lat="44.05293" lon="6.83315">
        <ele>1116</ele>
        <time>2020-06-05T09:09:53.000Z</time>
      </trkpt>
      <trkpt lat="44.05292" lon="6.83315">
        <ele>1116</ele>
        <time>2020-06-05T09:09:54.000Z</time>
      </trkpt>
      <trkpt lat="44.05291" lon="6.83315">
        <ele>1116</ele>
        <time>2020-06-05T09:09:55.000Z</time>
      </trkpt>
      <trkpt lat="44.0529" lon="6.83316">
        <ele>1116</ele>
        <time>2020-06-05T09:09:56.000Z</time>
      </trkpt>
      <trkpt lat="44.0529" lon="6.83316">
        <ele>1116</ele>
        <time>2020-06-05T09:09:57.000Z</time>
      </trkpt>
      <trkpt lat="44.05289" lon="6.83316">
        <ele>1116</ele>
        <time>2020-06-05T09:09:58.000Z</time>
      </trkpt>
      <trkpt lat="44.05288" lon="6.83317">
        <ele>1116</ele>
        <time>2020-06-05T09:09:59.000Z</time>
      </trkpt>
      <trkpt lat="44.05287" lon="6.83317">
        <ele>1116</ele>
        <time>2020-06-05T09:10:00.000Z</time>
      </trkpt>
      <trkpt lat="44.05286" lon="6.83318">
        <ele>1116</ele>
        <time>2020-06-05T09:10:01.000Z</time>
      </trkpt>
      <trkpt lat="44.05285" lon="6.83318">
        <ele>1116</ele>
        <time>2020-06-05T09:10:02.000Z</time>
      </trkpt>
      <trkpt lat="44.05284" lon="6.83319">
        <ele>1117</ele>
        <time>2020-06-05T09:10:03.000Z</time>
      </trkpt>
      <trkpt lat="44.05283" lon="6.8332">
        <ele>1117</ele>
        <time>2020-06-05T09:10:04.000Z</time>
      </trkpt>
      <trkpt lat="44.05282" lon="6.8332">
        <ele>1117</ele>
        <time>2020-06-05T09:10:05.000Z</time>
      </trkpt>
      <trkpt lat="44.05282" lon="6.83321">
        <ele>1117</ele>
        <time>2020-06-05T09:10:06.000Z</time>
      </trkpt>
      <trkpt lat="44.05281" lon="6.83323">
        <ele>1117</ele>
        <time>2020-06-05T09:10:07.000Z</time>
      </trkpt>
      <trkpt lat="44.05279" lon="6.83323">
        <ele>1117</ele>
        <time>2020-06-05T09:10:08.000Z</time>
      </trkpt>
      <trkpt lat="44.05278" lon="6.83324">
        <ele>1117</ele>
        <time>2020-06-05T09:10:09.000Z</time>
      </trkpt>
      <trkpt lat="44.05277" lon="6.83325">
        <ele>1117</ele>
        <time>2020-06-05T09:10:10.000Z</time>
      </trkpt>
      <trkpt lat="44.05276" lon="6.83326">
        <ele>1117</ele>
        <time>2020-06-05T09:10:11.000Z</time>
      </trkpt>
      <trkpt lat="44.05275" lon="6.83326">
        <ele>1117</ele>
        <time>2020-06-05T09:10:12.000Z</time>
      </trkpt>
      <trkpt lat="44.05274" lon="6.83326">
        <ele>1117</ele>
        <time>2020-06-05T09:10:13.000Z</time>
      </trkpt>
      <trkpt lat="44.05273" lon="6.83326">
        <ele>1117</ele>
        <time>2020-06-05T09:10:14.000Z</time>
      </trkpt>
      <trkpt lat="44.05272" lon="6.83327">
        <ele>1117</ele>
        <time>2020-06-05T09:10:15.000Z</time>
      </trkpt>
      <trkpt lat="44.05271" lon="6.83327">
        <ele>1117</ele>
        <time>2020-06-05T09:10:16.000Z</time>
      </trkpt>
      <trkpt lat="44.0527" lon="6.83327">
        <ele>1117</ele>
        <time>2020-06-05T09:10:17.000Z</time>
      </trkpt>
      <trkpt lat="44.05269" lon="6.83328">
        <ele>1117</ele>
        <time>2020-06-05T09:10:18.000Z</time>
      </trkpt>
      <trkpt lat="44.05268" lon="6.83328">
        <ele>1117</ele>
        <time>2020-06-05T09:10:19.000Z</time>
      </trkpt>
      <trkpt lat="44.05268" lon="6.83329">
        <ele>1117</ele>
        <time>2020-06-05T09:10:20.000Z</time>
      </trkpt>
      <trkpt lat="44.05267" lon="6.83329">
        <ele>1117</ele>
        <time>2020-06-05T09:10:21.000Z</time>
      </trkpt>
      <trkpt lat="44.05267" lon="6.83329">
        <ele>1117</ele>
        <time>2020-06-05T09:10:22.000Z</time>
      </trkpt>
      <trkpt lat="44.05266" lon="6.83329">
        <ele>1117</ele>
        <time>2020-06-05T09:10:23.000Z</time>
      </trkpt>
      <trkpt lat="44.05266" lon="6.83329">
        <ele>1117</ele>
        <time>2020-06-05T09:10:24.000Z</time>
      </trkpt>
      <trkpt lat="44.05265" lon="6.83329">
        <ele>1117</ele>
        <time>2020-06-05T09:10:25.000Z</time>
      </trkpt>
      <trkpt lat="44.05264" lon="6.83329">
        <ele>1117</ele>
        <time>2020-06-05T09:10:26.000Z</time>
      </trkpt>
      <trkpt lat="44.05264" lon="6.83329">
        <ele>1117</ele>
        <time>2020-06-05T09:10:27.000Z</time>
      </trkpt>
      <trkpt lat="44.05263" lon="6.83329">
        <ele>1117</ele>
        <time>2020-06-05T09:10:28.000Z</time>
      </trkpt>
      <trkpt lat="44.05262" lon="6.83328">
        <ele>1117</ele>
        <time>2020-06-05T09:10:29.000Z</time>
      </trkpt>
      <trkpt lat="44.05261" lon="6.83329">
        <ele>1117</ele>
        <time>2020-06-05T09:10:30.000Z</time>
      </trkpt>
      <trkpt lat="44.0526" lon="6.83329">
        <ele>1117</ele>
        <time>2020-06-05T09:10:31.000Z</time>
      </trkpt>
      <trkpt lat="44.05259" lon="6.83329">
        <ele>1117</ele>
        <time>2020-06-05T09:10:32.000Z</time>
      </trkpt>
      <trkpt lat="44.05258" lon="6.83329">
        <ele>1117</ele>
        <time>2020-06-05T09:10:33.000Z</time>
      </trkpt>
      <trkpt lat="44.05257" lon="6.83329">
        <ele>1117</ele>
        <time>2020-06-05T09:10:34.000Z</time>
      </trkpt>
      <trkpt lat="44.05256" lon="6.83328">
        <ele>1117</ele>
        <time>2020-06-05T09:10:35.000Z</time>
      </trkpt>
      <trkpt lat="44.05254" lon="6.83328">
        <ele>1117</ele>
        <time>2020-06-05T09:10:36.000Z</time>
      </trkpt>
      <trkpt lat="44.05253" lon="6.83327">
        <ele>1117</ele>
        <time>2020-06-05T09:10:37.000Z</time>
      </trkpt>
      <trkpt lat="44.05252" lon="6.83327">
        <ele>1117</ele>
        <time>2020-06-05T09:10:38.000Z</time>
      </trkpt>
      <trkpt lat="44.05251" lon="6.83326">
        <ele>1118</ele>
        <time>2020-06-05T09:10:39.000Z</time>
      </trkpt>
      <trkpt lat="44.0525" lon="6.83325">
        <ele>1118</ele>
        <time>2020-06-05T09:10:40.000Z</time>
      </trkpt>
      <trkpt lat="44.0525" lon="6.83324">
        <ele>1118</ele>
        <time>2020-06-05T09:10:41.000Z</time>
      </trkpt>
      <trkpt lat="44.05249" lon="6.83323">
        <ele>1118</ele>
        <time>2020-06-05T09:10:42.000Z</time>
      </trkpt>
      <trkpt lat="44.05248" lon="6.83322">
        <ele>1118</ele>
        <time>2020-06-05T09:10:43.000Z</time>
      </trkpt>
      <trkpt lat="44.05247" lon="6.83321">
        <ele>1117</ele>
        <time>2020-06-05T09:10:44.000Z</time>
      </trkpt>
      <trkpt lat="44.05246" lon="6.8332">
        <ele>1117</ele>
        <time>2020-06-05T09:10:45.000Z</time>
      </trkpt>
      <trkpt lat="44.05245" lon="6.83319">
        <ele>1117</ele>
        <time>2020-06-05T09:10:46.000Z</time>
      </trkpt>
      <trkpt lat="44.05243" lon="6.83318">
        <ele>1117</ele>
        <time>2020-06-05T09:10:47.000Z</time>
      </trkpt>
      <trkpt lat="44.05242" lon="6.83317">
        <ele>1117</ele>
        <time>2020-06-05T09:10:48.000Z</time>
      </trkpt>
      <trkpt lat="44.05241" lon="6.83315">
        <ele>1116</ele>
        <time>2020-06-05T09:10:49.000Z</time>
      </trkpt>
      <trkpt lat="44.05239" lon="6.83314">
        <ele>1116</ele>
        <time>2020-06-05T09:10:50.000Z</time>
      </trkpt>
      <trkpt lat="44.05238" lon="6.83313">
        <ele>1116</ele>
        <time>2020-06-05T09:10:51.000Z</time>
      </trkpt>
      <trkpt lat="44.05237" lon="6.83311">
        <ele>1116</ele>
        <time>2020-06-05T09:10:52.000Z</time>
      </trkpt>
      <trkpt lat="44.05236" lon="6.8331">
        <ele>1115</ele>
        <time>2020-06-05T09:10:53.000Z</time>
      </trkpt>
      <trkpt lat="44.05234" lon="6.83309">
        <ele>1115</ele>
        <time>2020-06-05T09:10:54.000Z</time>
      </trkpt>
      <trkpt lat="44.05233" lon="6.83308">
        <ele>1115</ele>
        <time>2020-06-05T09:10:55.000Z</time>
      </trkpt>
      <trkpt lat="44.05232" lon="6.83306">
        <ele>1115</ele>
        <time>2020-06-05T09:10:56.000Z</time>
      </trkpt>
      <trkpt lat="44.05232" lon="6.83305">
        <ele>1115</ele>
        <time>2020-06-05T09:10:57.000Z</time>
      </trkpt>
      <trkpt lat="44.05231" lon="6.83304">
        <ele>1114</ele>
        <time>2020-06-05T09:10:58.000Z</time>
      </trkpt>
      <trkpt lat="44.0523" lon="6.83302">
        <ele>1114</ele>
        <time>2020-06-05T09:10:59.000Z</time>
      </trkpt>
      <trkpt lat="44.05229" lon="6.83301">
        <ele>1114</ele>
        <time>2020-06-05T09:11:00.000Z</time>
      </trkpt>
      <trkpt lat="44.05229" lon="6.833">
        <ele>1114</ele>
        <time>2020-06-05T09:11:01.000Z</time>
      </trkpt>
      <trkpt lat="44.05228" lon="6.83299">
        <ele>1114</ele>
        <time>2020-06-05T09:11:02.000Z</time>
      </trkpt>
      <trkpt lat="44.05228" lon="6.83297">
        <ele>1114</ele>
        <time>2020-06-05T09:11:03.000Z</time>
      </trkpt>
      <trkpt lat="44.05227" lon="6.83296">
        <ele>1113</ele>
        <time>2020-06-05T09:11:04.000Z</time>
      </trkpt>
      <trkpt lat="44.05226" lon="6.83295">
        <ele>1113</ele>
        <time>2020-06-05T09:11:05.000Z</time>
      </trkpt>
      <trkpt lat="44.05225" lon="6.83293">
        <ele>1113</ele>
        <time>2020-06-05T09:11:06.000Z</time>
      </trkpt>
      <trkpt lat="44.05224" lon="6.83292">
        <ele>1113</ele>
        <time>2020-06-05T09:11:07.000Z</time>
      </trkpt>
      <trkpt lat="44.05224" lon="6.8329">
        <ele>1113</ele>
        <time>2020-06-05T09:11:08.000Z</time>
      </trkpt>
      <trkpt lat="44.05223" lon="6.83289">
        <ele>1113</ele>
        <time>2020-06-05T09:11:09.000Z</time>
      </trkpt>
      <trkpt lat="44.05223" lon="6.83287">
        <ele>1112</ele>
        <time>2020-06-05T09:11:10.000Z</time>
      </trkpt>
      <trkpt lat="44.05222" lon="6.83285">
        <ele>1112</ele>
        <time>2020-06-05T09:11:11.000Z</time>
      </trkpt>
      <trkpt lat="44.05222" lon="6.83284">
        <ele>1112</ele>
        <time>2020-06-05T09:11:12.000Z</time>
      </trkpt>
      <trkpt lat="44.05221" lon="6.83282">
        <ele>1112</ele>
        <time>2020-06-05T09:11:13.000Z</time>
      </trkpt>
      <trkpt lat="44.05221" lon="6.83281">
        <ele>1112</ele>
        <time>2020-06-05T09:11:14.000Z</time>
      </trkpt>
      <trkpt lat="44.0522" lon="6.83279">
        <ele>1112</ele>
        <time>2020-06-05T09:11:15.000Z</time>
      </trkpt>
      <trkpt lat="44.0522" lon="6.83277">
        <ele>1112</ele>
        <time>2020-06-05T09:11:16.000Z</time>
      </trkpt>
      <trkpt lat="44.05219" lon="6.83275">
        <ele>1112</ele>
        <time>2020-06-05T09:11:17.000Z</time>
      </trkpt>
      <trkpt lat="44.05218" lon="6.83274">
        <ele>1112</ele>
        <time>2020-06-05T09:11:18.000Z</time>
      </trkpt>
      <trkpt lat="44.05217" lon="6.83272">
        <ele>1112</ele>
        <time>2020-06-05T09:11:19.000Z</time>
      </trkpt>
      <trkpt lat="44.05217" lon="6.83271">
        <ele>1112</ele>
        <time>2020-06-05T09:11:20.000Z</time>
      </trkpt>
      <trkpt lat="44.05216" lon="6.83269">
        <ele>1111</ele>
        <time>2020-06-05T09:11:21.000Z</time>
      </trkpt>
      <trkpt lat="44.05216" lon="6.83268">
        <ele>1111</ele>
        <time>2020-06-05T09:11:22.000Z</time>
      </trkpt>
      <trkpt lat="44.05215" lon="6.83267">
        <ele>1111</ele>
        <time>2020-06-05T09:11:23.000Z</time>
      </trkpt>
      <trkpt lat="44.05215" lon="6.83266">
        <ele>1111</ele>
        <time>2020-06-05T09:11:24.000Z</time>
      </trkpt>
      <trkpt lat="44.05214" lon="6.83264">
        <ele>1111</ele>
        <time>2020-06-05T09:11:25.000Z</time>
      </trkpt>
      <trkpt lat="44.05214" lon="6.83263">
        <ele>1111</ele>
        <time>2020-06-05T09:11:26.000Z</time>
      </trkpt>
      <trkpt lat="44.05213" lon="6.83262">
        <ele>1111</ele>
        <time>2020-06-05T09:11:27.000Z</time>
      </trkpt>
      <trkpt lat="44.05212" lon="6.83261">
        <ele>1111</ele>
        <time>2020-06-05T09:11:28.000Z</time>
      </trkpt>
      <trkpt lat="44.05211" lon="6.8326">
        <ele>1111</ele>
        <time>2020-06-05T09:11:29.000Z</time>
      </trkpt>
      <trkpt lat="44.05211" lon="6.83259">
        <ele>1111</ele>
        <time>2020-06-05T09:11:30.000Z</time>
      </trkpt>
      <trkpt lat="44.0521" lon="6.83258">
        <ele>1111</ele>
        <time>2020-06-05T09:11:31.000Z</time>
      </trkpt>
      <trkpt lat="44.05209" lon="6.83257">
        <ele>1112</ele>
        <time>2020-06-05T09:11:32.000Z</time>
      </trkpt>
      <trkpt lat="44.05209" lon="6.83256">
        <ele>1112</ele>
        <time>2020-06-05T09:11:33.000Z</time>
      </trkpt>
      <trkpt lat="44.05208" lon="6.83255">
        <ele>1112</ele>
        <time>2020-06-05T09:11:34.000Z</time>
      </trkpt>
      <trkpt lat="44.05207" lon="6.83253">
        <ele>1112</ele>
        <time>2020-06-05T09:11:35.000Z</time>
      </trkpt>
      <trkpt lat="44.05206" lon="6.83252">
        <ele>1112</ele>
        <time>2020-06-05T09:11:36.000Z</time>
      </trkpt>
      <trkpt lat="44.05205" lon="6.83251">
        <ele>1112</ele>
        <time>2020-06-05T09:11:37.000Z</time>
      </trkpt>
      <trkpt lat="44.05204" lon="6.83251">
        <ele>1112</ele>
        <time>2020-06-05T09:11:38.000Z</time>
      </trkpt>
      <trkpt lat="44.05203" lon="6.8325">
        <ele>1112</ele>
        <time>2020-06-05T09:11:39.000Z</time>
      </trkpt>
      <trkpt lat="44.05202" lon="6.83249">
        <ele>1113</ele>
        <time>2020-06-05T09:11:40.000Z</time>
      </trkpt>
      <trkpt lat="44.05202" lon="6.83249">
        <ele>1113</ele>
        <time>2020-06-05T09:11:41.000Z</time>
      </trkpt>
      <trkpt lat="44.05201" lon="6.83248">
        <ele>1113</ele>
        <time>2020-06-05T09:11:42.000Z</time>
      </trkpt>
      <trkpt lat="44.052" lon="6.83247">
        <ele>1113</ele>
        <time>2020-06-05T09:11:43.000Z</time>
      </trkpt>
      <trkpt lat="44.05199" lon="6.83247">
        <ele>1113</ele>
        <time>2020-06-05T09:11:44.000Z</time>
      </trkpt>
      <trkpt lat="44.05199" lon="6.83246">
        <ele>1113</ele>
        <time>2020-06-05T09:11:45.000Z</time>
      </trkpt>
      <trkpt lat="44.05198" lon="6.83245">
        <ele>1113</ele>
        <time>2020-06-05T09:11:46.000Z</time>
      </trkpt>
      <trkpt lat="44.05197" lon="6.83244">
        <ele>1114</ele>
        <time>2020-06-05T09:11:47.000Z</time>
      </trkpt>
      <trkpt lat="44.05196" lon="6.83243">
        <ele>1114</ele>
        <time>2020-06-05T09:11:48.000Z</time>
      </trkpt>
      <trkpt lat="44.05195" lon="6.83242">
        <ele>1114</ele>
        <time>2020-06-05T09:11:49.000Z</time>
      </trkpt>
      <trkpt lat="44.05194" lon="6.83241">
        <ele>1114</ele>
        <time>2020-06-05T09:11:50.000Z</time>
      </trkpt>
      <trkpt lat="44.05193" lon="6.8324">
        <ele>1114</ele>
        <time>2020-06-05T09:11:51.000Z</time>
      </trkpt>
      <trkpt lat="44.05193" lon="6.83239">
        <ele>1114</ele>
        <time>2020-06-05T09:11:52.000Z</time>
      </trkpt>
      <trkpt lat="44.05192" lon="6.83238">
        <ele>1115</ele>
        <time>2020-06-05T09:11:53.000Z</time>
      </trkpt>
      <trkpt lat="44.05191" lon="6.83237">
        <ele>1115</ele>
        <time>2020-06-05T09:11:54.000Z</time>
      </trkpt>
      <trkpt lat="44.05191" lon="6.83236">
        <ele>1115</ele>
        <time>2020-06-05T09:11:55.000Z</time>
      </trkpt>
      <trkpt lat="44.0519" lon="6.83235">
        <ele>1115</ele>
        <time>2020-06-05T09:11:56.000Z</time>
      </trkpt>
      <trkpt lat="44.05189" lon="6.83234">
        <ele>1115</ele>
        <time>2020-06-05T09:11:57.000Z</time>
      </trkpt>
      <trkpt lat="44.05188" lon="6.83234">
        <ele>1115</ele>
        <time>2020-06-05T09:11:58.000Z</time>
      </trkpt>
      <trkpt lat="44.05187" lon="6.83234">
        <ele>1115</ele>
        <time>2020-06-05T09:11:59.000Z</time>
      </trkpt>
      <trkpt lat="44.05186" lon="6.83233">
        <ele>1115</ele>
        <time>2020-06-05T09:12:00.000Z</time>
      </trkpt>
      <trkpt lat="44.05185" lon="6.83233">
        <ele>1115</ele>
        <time>2020-06-05T09:12:01.000Z</time>
      </trkpt>
      <trkpt lat="44.05183" lon="6.83233">
        <ele>1115</ele>
        <time>2020-06-05T09:12:02.000Z</time>
      </trkpt>
      <trkpt lat="44.05182" lon="6.83232">
        <ele>1115</ele>
        <time>2020-06-05T09:12:03.000Z</time>
      </trkpt>
      <trkpt lat="44.05181" lon="6.83232">
        <ele>1115</ele>
        <time>2020-06-05T09:12:04.000Z</time>
      </trkpt>
      <trkpt lat="44.0518" lon="6.83231">
        <ele>1115</ele>
        <time>2020-06-05T09:12:05.000Z</time>
      </trkpt>
      <trkpt lat="44.05179" lon="6.83231">
        <ele>1115</ele>
        <time>2020-06-05T09:12:06.000Z</time>
      </trkpt>
      <trkpt lat="44.05178" lon="6.8323">
        <ele>1115</ele>
        <time>2020-06-05T09:12:07.000Z</time>
      </trkpt>
      <trkpt lat="44.05178" lon="6.8323">
        <ele>1115</ele>
        <time>2020-06-05T09:12:08.000Z</time>
      </trkpt>
      <trkpt lat="44.05177" lon="6.83229">
        <ele>1115</ele>
        <time>2020-06-05T09:12:09.000Z</time>
      </trkpt>
      <trkpt lat="44.05176" lon="6.83229">
        <ele>1115</ele>
        <time>2020-06-05T09:12:10.000Z</time>
      </trkpt>
      <trkpt lat="44.05175" lon="6.83227">
        <ele>1115</ele>
        <time>2020-06-05T09:12:11.000Z</time>
      </trkpt>
      <trkpt lat="44.05175" lon="6.83227">
        <ele>1115</ele>
        <time>2020-06-05T09:12:12.000Z</time>
      </trkpt>
      <trkpt lat="44.05174" lon="6.83226">
        <ele>1115</ele>
        <time>2020-06-05T09:12:13.000Z</time>
      </trkpt>
      <trkpt lat="44.05173" lon="6.83225">
        <ele>1115</ele>
        <time>2020-06-05T09:12:14.000Z</time>
      </trkpt>
      <trkpt lat="44.05172" lon="6.83224">
        <ele>1115</ele>
        <time>2020-06-05T09:12:15.000Z</time>
      </trkpt>
      <trkpt lat="44.05171" lon="6.83223">
        <ele>1115</ele>
        <time>2020-06-05T09:12:16.000Z</time>
      </trkpt>
      <trkpt lat="44.0517" lon="6.83222">
        <ele>1115</ele>
        <time>2020-06-05T09:12:17.000Z</time>
      </trkpt>
      <trkpt lat="44.05169" lon="6.83221">
        <ele>1115</ele>
        <time>2020-06-05T09:12:18.000Z</time>
      </trkpt>
      <trkpt lat="44.05169" lon="6.8322">
        <ele>1115</ele>
        <time>2020-06-05T09:12:19.000Z</time>
      </trkpt>
      <trkpt lat="44.05168" lon="6.83219">
        <ele>1115</ele>
        <time>2020-06-05T09:12:20.000Z</time>
      </trkpt>
      <trkpt lat="44.05167" lon="6.83218">
        <ele>1115</ele>
        <time>2020-06-05T09:12:21.000Z</time>
      </trkpt>
      <trkpt lat="44.05166" lon="6.83217">
        <ele>1115</ele>
        <time>2020-06-05T09:12:22.000Z</time>
      </trkpt>
      <trkpt lat="44.05165" lon="6.83217">
        <ele>1116</ele>
        <time>2020-06-05T09:12:23.000Z</time>
      </trkpt>
      <trkpt lat="44.05163" lon="6.83216">
        <ele>1116</ele>
        <time>2020-06-05T09:12:24.000Z</time>
      </trkpt>
      <trkpt lat="44.05162" lon="6.83215">
        <ele>1116</ele>
        <time>2020-06-05T09:12:25.000Z</time>
      </trkpt>
      <trkpt lat="44.05161" lon="6.83215">
        <ele>1116</ele>
        <time>2020-06-05T09:12:26.000Z</time>
      </trkpt>
      <trkpt lat="44.0516" lon="6.83215">
        <ele>1116</ele>
        <time>2020-06-05T09:12:27.000Z</time>
      </trkpt>
      <trkpt lat="44.05159" lon="6.83215">
        <ele>1116</ele>
        <time>2020-06-05T09:12:28.000Z</time>
      </trkpt>
      <trkpt lat="44.05159" lon="6.83216">
        <ele>1116</ele>
        <time>2020-06-05T09:12:29.000Z</time>
      </trkpt>
      <trkpt lat="44.05158" lon="6.83216">
        <ele>1116</ele>
        <time>2020-06-05T09:12:30.000Z</time>
      </trkpt>
      <trkpt lat="44.05157" lon="6.83217">
        <ele>1116</ele>
        <time>2020-06-05T09:12:31.000Z</time>
      </trkpt>
      <trkpt lat="44.05157" lon="6.83218">
        <ele>1116</ele>
        <time>2020-06-05T09:12:32.000Z</time>
      </trkpt>
      <trkpt lat="44.05156" lon="6.83218">
        <ele>1116</ele>
        <time>2020-06-05T09:12:33.000Z</time>
      </trkpt>
      <trkpt lat="44.05156" lon="6.83219">
        <ele>1116</ele>
        <time>2020-06-05T09:12:34.000Z</time>
      </trkpt>
      <trkpt lat="44.05155" lon="6.8322">
        <ele>1116</ele>
        <time>2020-06-05T09:12:35.000Z</time>
      </trkpt>
      <trkpt lat="44.05155" lon="6.83221">
        <ele>1116</ele>
        <time>2020-06-05T09:12:36.000Z</time>
      </trkpt>
      <trkpt lat="44.05155" lon="6.83222">
        <ele>1115</ele>
        <time>2020-06-05T09:12:37.000Z</time>
      </trkpt>
      <trkpt lat="44.05154" lon="6.83223">
        <ele>1115</ele>
        <time>2020-06-05T09:12:38.000Z</time>
      </trkpt>
      <trkpt lat="44.05154" lon="6.83224">
        <ele>1115</ele>
        <time>2020-06-05T09:12:39.000Z</time>
      </trkpt>
      <trkpt lat="44.05154" lon="6.83225">
        <ele>1115</ele>
        <time>2020-06-05T09:12:40.000Z</time>
      </trkpt>
      <trkpt lat="44.05154" lon="6.83227">
        <ele>1115</ele>
        <time>2020-06-05T09:12:41.000Z</time>
      </trkpt>
      <trkpt lat="44.05154" lon="6.83228">
        <ele>1115</ele>
        <time>2020-06-05T09:12:42.000Z</time>
      </trkpt>
      <trkpt lat="44.05153" lon="6.83229">
        <ele>1114</ele>
        <time>2020-06-05T09:12:43.000Z</time>
      </trkpt>
      <trkpt lat="44.05153" lon="6.8323">
        <ele>1114</ele>
        <time>2020-06-05T09:12:44.000Z</time>
      </trkpt>
      <trkpt lat="44.05152" lon="6.83232">
        <ele>1114</ele>
        <time>2020-06-05T09:12:45.000Z</time>
      </trkpt>
      <trkpt lat="44.05152" lon="6.83233">
        <ele>1114</ele>
        <time>2020-06-05T09:12:46.000Z</time>
      </trkpt>
      <trkpt lat="44.05152" lon="6.83234">
        <ele>1114</ele>
        <time>2020-06-05T09:12:47.000Z</time>
      </trkpt>
      <trkpt lat="44.05152" lon="6.83236">
        <ele>1114</ele>
        <time>2020-06-05T09:12:48.000Z</time>
      </trkpt>
      <trkpt lat="44.05152" lon="6.83237">
        <ele>1114</ele>
        <time>2020-06-05T09:12:49.000Z</time>
      </trkpt>
      <trkpt lat="44.05152" lon="6.83238">
        <ele>1114</ele>
        <time>2020-06-05T09:12:50.000Z</time>
      </trkpt>
      <trkpt lat="44.05151" lon="6.8324">
        <ele>1114</ele>
        <time>2020-06-05T09:12:51.000Z</time>
      </trkpt>
      <trkpt lat="44.05151" lon="6.83241">
        <ele>1114</ele>
        <time>2020-06-05T09:12:52.000Z</time>
      </trkpt>
      <trkpt lat="44.05151" lon="6.83243">
        <ele>1114</ele>
        <time>2020-06-05T09:12:53.000Z</time>
      </trkpt>
      <trkpt lat="44.0515" lon="6.83244">
        <ele>1114</ele>
        <time>2020-06-05T09:12:54.000Z</time>
      </trkpt>
      <trkpt lat="44.0515" lon="6.83245">
        <ele>1114</ele>
        <time>2020-06-05T09:12:55.000Z</time>
      </trkpt>
      <trkpt lat="44.0515" lon="6.83246">
        <ele>1114</ele>
        <time>2020-06-05T09:12:56.000Z</time>
      </trkpt>
      <trkpt lat="44.0515" lon="6.83248">
        <ele>1114</ele>
        <time>2020-06-05T09:12:57.000Z</time>
      </trkpt>
      <trkpt lat="44.0515" lon="6.83249">
        <ele>1114</ele>
        <time>2020-06-05T09:12:58.000Z</time>
      </trkpt>
      <trkpt lat="44.05149" lon="6.8325">
        <ele>1114</ele>
        <time>2020-06-05T09:12:59.000Z</time>
      </trkpt>
      <trkpt lat="44.05149" lon="6.83252">
        <ele>1114</ele>
        <time>2020-06-05T09:13:00.000Z</time>
      </trkpt>
      <trkpt lat="44.05149" lon="6.83253">
        <ele>1114</ele>
        <time>2020-06-05T09:13:01.000Z</time>
      </trkpt>
      <trkpt lat="44.05149" lon="6.83255">
        <ele>1114</ele>
        <time>2020-06-05T09:13:02.000Z</time>
      </trkpt>
      <trkpt lat="44.05148" lon="6.83256">
        <ele>1114</ele>
        <time>2020-06-05T09:13:03.000Z</time>
      </trkpt>
      <trkpt lat="44.05148" lon="6.83258">
        <ele>1114</ele>
        <time>2020-06-05T09:13:04.000Z</time>
      </trkpt>
      <trkpt lat="44.05148" lon="6.83259">
        <ele>1114</ele>
        <time>2020-06-05T09:13:05.000Z</time>
      </trkpt>
      <trkpt lat="44.05148" lon="6.83261">
        <ele>1114</ele>
        <time>2020-06-05T09:13:06.000Z</time>
      </trkpt>
      <trkpt lat="44.05148" lon="6.83262">
        <ele>1114</ele>
        <time>2020-06-05T09:13:07.000Z</time>
      </trkpt>
      <trkpt lat="44.05148" lon="6.83263">
        <ele>1113</ele>
        <time>2020-06-05T09:13:08.000Z</time>
      </trkpt>
      <trkpt lat="44.05147" lon="6.83265">
        <ele>1113</ele>
        <time>2020-06-05T09:13:09.000Z</time>
      </trkpt>
      <trkpt lat="44.05147" lon="6.83266">
        <ele>1113</ele>
        <time>2020-06-05T09:13:10.000Z</time>
      </trkpt>
      <trkpt lat="44.05146" lon="6.83267">
        <ele>1113</ele>
        <time>2020-06-05T09:13:11.000Z</time>
      </trkpt>
      <trkpt lat="44.05146" lon="6.83268">
        <ele>1113</ele>
        <time>2020-06-05T09:13:12.000Z</time>
      </trkpt>
      <trkpt lat="44.05145" lon="6.8327">
        <ele>1113</ele>
        <time>2020-06-05T09:13:13.000Z</time>
      </trkpt>
      <trkpt lat="44.05145" lon="6.83271">
        <ele>1113</ele>
        <time>2020-06-05T09:13:14.000Z</time>
      </trkpt>
      <trkpt lat="44.05144" lon="6.83272">
        <ele>1113</ele>
        <time>2020-06-05T09:13:15.000Z</time>
      </trkpt>
      <trkpt lat="44.05143" lon="6.83272">
        <ele>1113</ele>
        <time>2020-06-05T09:13:16.000Z</time>
      </trkpt>
      <trkpt lat="44.05142" lon="6.83273">
        <ele>1113</ele>
        <time>2020-06-05T09:13:17.000Z</time>
      </trkpt>
      <trkpt lat="44.05142" lon="6.83273">
        <ele>1112</ele>
        <time>2020-06-05T09:13:18.000Z</time>
      </trkpt>
      <trkpt lat="44.05141" lon="6.83274">
        <ele>1112</ele>
        <time>2020-06-05T09:13:19.000Z</time>
      </trkpt>
      <trkpt lat="44.0514" lon="6.83275">
        <ele>1112</ele>
        <time>2020-06-05T09:13:20.000Z</time>
      </trkpt>
      <trkpt lat="44.05139" lon="6.83275">
        <ele>1112</ele>
        <time>2020-06-05T09:13:21.000Z</time>
      </trkpt>
      <trkpt lat="44.05139" lon="6.83276">
        <ele>1112</ele>
        <time>2020-06-05T09:13:22.000Z</time>
      </trkpt>
      <trkpt lat="44.05138" lon="6.83277">
        <ele>1111</ele>
        <time>2020-06-05T09:13:23.000Z</time>
      </trkpt>
      <trkpt lat="44.05137" lon="6.83277">
        <ele>1111</ele>
        <time>2020-06-05T09:13:24.000Z</time>
      </trkpt>
      <trkpt lat="44.05136" lon="6.83278">
        <ele>1111</ele>
        <time>2020-06-05T09:13:25.000Z</time>
      </trkpt>
      <trkpt lat="44.05136" lon="6.83279">
        <ele>1111</ele>
        <time>2020-06-05T09:13:26.000Z</time>
      </trkpt>
      <trkpt lat="44.05135" lon="6.8328">
        <ele>1110</ele>
        <time>2020-06-05T09:13:27.000Z</time>
      </trkpt>
      <trkpt lat="44.05134" lon="6.83281">
        <ele>1110</ele>
        <time>2020-06-05T09:13:28.000Z</time>
      </trkpt>
      <trkpt lat="44.05134" lon="6.83282">
        <ele>1110</ele>
        <time>2020-06-05T09:13:29.000Z</time>
      </trkpt>
      <trkpt lat="44.05133" lon="6.83283">
        <ele>1110</ele>
        <time>2020-06-05T09:13:30.000Z</time>
      </trkpt>
      <trkpt lat="44.05132" lon="6.83284">
        <ele>1110</ele>
        <time>2020-06-05T09:13:31.000Z</time>
      </trkpt>
      <trkpt lat="44.05132" lon="6.83284">
        <ele>1109</ele>
        <time>2020-06-05T09:13:32.000Z</time>
      </trkpt>
      <trkpt lat="44.05131" lon="6.83286">
        <ele>1109</ele>
        <time>2020-06-05T09:13:33.000Z</time>
      </trkpt>
      <trkpt lat="44.0513" lon="6.83287">
        <ele>1109</ele>
        <time>2020-06-05T09:13:34.000Z</time>
      </trkpt>
      <trkpt lat="44.0513" lon="6.83288">
        <ele>1109</ele>
        <time>2020-06-05T09:13:35.000Z</time>
      </trkpt>
      <trkpt lat="44.05129" lon="6.83289">
        <ele>1109</ele>
        <time>2020-06-05T09:13:36.000Z</time>
      </trkpt>
      <trkpt lat="44.05129" lon="6.8329">
        <ele>1108</ele>
        <time>2020-06-05T09:13:37.000Z</time>
      </trkpt>
      <trkpt lat="44.05128" lon="6.83292">
        <ele>1108</ele>
        <time>2020-06-05T09:13:38.000Z</time>
      </trkpt>
      <trkpt lat="44.05127" lon="6.83293">
        <ele>1108</ele>
        <time>2020-06-05T09:13:39.000Z</time>
      </trkpt>
      <trkpt lat="44.05127" lon="6.83294">
        <ele>1108</ele>
        <time>2020-06-05T09:13:40.000Z</time>
      </trkpt>
      <trkpt lat="44.05126" lon="6.83296">
        <ele>1108</ele>
        <time>2020-06-05T09:13:41.000Z</time>
      </trkpt>
      <trkpt lat="44.05126" lon="6.83297">
        <ele>1108</ele>
        <time>2020-06-05T09:13:42.000Z</time>
      </trkpt>
      <trkpt lat="44.05125" lon="6.83298">
        <ele>1107</ele>
        <time>2020-06-05T09:13:43.000Z</time>
      </trkpt>
      <trkpt lat="44.05125" lon="6.833">
        <ele>1107</ele>
        <time>2020-06-05T09:13:44.000Z</time>
      </trkpt>
      <trkpt lat="44.05125" lon="6.83301">
        <ele>1107</ele>
        <time>2020-06-05T09:13:45.000Z</time>
      </trkpt>
      <trkpt lat="44.05124" lon="6.83302">
        <ele>1107</ele>
        <time>2020-06-05T09:13:46.000Z</time>
      </trkpt>
      <trkpt lat="44.05123" lon="6.83304">
        <ele>1107</ele>
        <time>2020-06-05T09:13:47.000Z</time>
      </trkpt>
      <trkpt lat="44.05123" lon="6.83305">
        <ele>1107</ele>
        <time>2020-06-05T09:13:48.000Z</time>
      </trkpt>
      <trkpt lat="44.05122" lon="6.83306">
        <ele>1107</ele>
        <time>2020-06-05T09:13:49.000Z</time>
      </trkpt>
      <trkpt lat="44.05122" lon="6.83308">
        <ele>1107</ele>
        <time>2020-06-05T09:13:50.000Z</time>
      </trkpt>
      <trkpt lat="44.05121" lon="6.83309">
        <ele>1107</ele>
        <time>2020-06-05T09:13:51.000Z</time>
      </trkpt>
      <trkpt lat="44.0512" lon="6.8331">
        <ele>1107</ele>
        <time>2020-06-05T09:13:52.000Z</time>
      </trkpt>
      <trkpt lat="44.05119" lon="6.83311">
        <ele>1107</ele>
        <time>2020-06-05T09:13:53.000Z</time>
      </trkpt>
      <trkpt lat="44.05118" lon="6.83312">
        <ele>1107</ele>
        <time>2020-06-05T09:13:54.000Z</time>
      </trkpt>
      <trkpt lat="44.05118" lon="6.83313">
        <ele>1107</ele>
        <time>2020-06-05T09:13:55.000Z</time>
      </trkpt>
      <trkpt lat="44.05117" lon="6.83314">
        <ele>1107</ele>
        <time>2020-06-05T09:13:56.000Z</time>
      </trkpt>
      <trkpt lat="44.05116" lon="6.83315">
        <ele>1106</ele>
        <time>2020-06-05T09:13:57.000Z</time>
      </trkpt>
      <trkpt lat="44.05115" lon="6.83316">
        <ele>1106</ele>
        <time>2020-06-05T09:13:58.000Z</time>
      </trkpt>
      <trkpt lat="44.05115" lon="6.83317">
        <ele>1106</ele>
        <time>2020-06-05T09:13:59.000Z</time>
      </trkpt>
      <trkpt lat="44.05114" lon="6.83318">
        <ele>1106</ele>
        <time>2020-06-05T09:14:00.000Z</time>
      </trkpt>
      <trkpt lat="44.05113" lon="6.83319">
        <ele>1106</ele>
        <time>2020-06-05T09:14:01.000Z</time>
      </trkpt>
      <trkpt lat="44.05112" lon="6.8332">
        <ele>1106</ele>
        <time>2020-06-05T09:14:02.000Z</time>
      </trkpt>
      <trkpt lat="44.05111" lon="6.83321">
        <ele>1106</ele>
        <time>2020-06-05T09:14:03.000Z</time>
      </trkpt>
      <trkpt lat="44.0511" lon="6.83321">
        <ele>1106</ele>
        <time>2020-06-05T09:14:04.000Z</time>
      </trkpt>
      <trkpt lat="44.05109" lon="6.83322">
        <ele>1106</ele>
        <time>2020-06-05T09:14:05.000Z</time>
      </trkpt>
      <trkpt lat="44.05107" lon="6.83323">
        <ele>1106</ele>
        <time>2020-06-05T09:14:06.000Z</time>
      </trkpt>
      <trkpt lat="44.05106" lon="6.83324">
        <ele>1106</ele>
        <time>2020-06-05T09:14:07.000Z</time>
      </trkpt>
      <trkpt lat="44.05105" lon="6.83324">
        <ele>1106</ele>
        <time>2020-06-05T09:14:08.000Z</time>
      </trkpt>
      <trkpt lat="44.05104" lon="6.83325">
        <ele>1106</ele>
        <time>2020-06-05T09:14:09.000Z</time>
      </trkpt>
      <trkpt lat="44.05103" lon="6.83326">
        <ele>1106</ele>
        <time>2020-06-05T09:14:10.000Z</time>
      </trkpt>
      <trkpt lat="44.05101" lon="6.83326">
        <ele>1106</ele>
        <time>2020-06-05T09:14:11.000Z</time>
      </trkpt>
      <trkpt lat="44.051" lon="6.83327">
        <ele>1106</ele>
        <time>2020-06-05T09:14:12.000Z</time>
      </trkpt>
      <trkpt lat="44.05099" lon="6.83327">
        <ele>1106</ele>
        <time>2020-06-05T09:14:13.000Z</time>
      </trkpt>
      <trkpt lat="44.05098" lon="6.83328">
        <ele>1106</ele>
        <time>2020-06-05T09:14:14.000Z</time>
      </trkpt>
      <trkpt lat="44.05097" lon="6.83329">
        <ele>1106</ele>
        <time>2020-06-05T09:14:15.000Z</time>
      </trkpt>
      <trkpt lat="44.05096" lon="6.8333">
        <ele>1106</ele>
        <time>2020-06-05T09:14:16.000Z</time>
      </trkpt>
      <trkpt lat="44.05095" lon="6.83331">
        <ele>1106</ele>
        <time>2020-06-05T09:14:17.000Z</time>
      </trkpt>
      <trkpt lat="44.05094" lon="6.83332">
        <ele>1106</ele>
        <time>2020-06-05T09:14:18.000Z</time>
      </trkpt>
      <trkpt lat="44.05093" lon="6.83333">
        <ele>1106</ele>
        <time>2020-06-05T09:14:19.000Z</time>
      </trkpt>
      <trkpt lat="44.05092" lon="6.83334">
        <ele>1106</ele>
        <time>2020-06-05T09:14:20.000Z</time>
      </trkpt>
      <trkpt lat="44.05091" lon="6.83335">
        <ele>1106</ele>
        <time>2020-06-05T09:14:21.000Z</time>
      </trkpt>
      <trkpt lat="44.0509" lon="6.83336">
        <ele>1106</ele>
        <time>2020-06-05T09:14:22.000Z</time>
      </trkpt>
      <trkpt lat="44.05089" lon="6.83337">
        <ele>1106</ele>
        <time>2020-06-05T09:14:23.000Z</time>
      </trkpt>
      <trkpt lat="44.05088" lon="6.83337">
        <ele>1106</ele>
        <time>2020-06-05T09:14:24.000Z</time>
      </trkpt>
      <trkpt lat="44.05088" lon="6.83338">
        <ele>1106</ele>
        <time>2020-06-05T09:14:25.000Z</time>
      </trkpt>
      <trkpt lat="44.05087" lon="6.83339">
        <ele>1106</ele>
        <time>2020-06-05T09:14:26.000Z</time>
      </trkpt>
      <trkpt lat="44.05086" lon="6.83339">
        <ele>1106</ele>
        <time>2020-06-05T09:14:27.000Z</time>
      </trkpt>
      <trkpt lat="44.05085" lon="6.8334">
        <ele>1106</ele>
        <time>2020-06-05T09:14:28.000Z</time>
      </trkpt>
      <trkpt lat="44.05084" lon="6.8334">
        <ele>1106</ele>
        <time>2020-06-05T09:14:29.000Z</time>
      </trkpt>
      <trkpt lat="44.05083" lon="6.83341">
        <ele>1106</ele>
        <time>2020-06-05T09:14:30.000Z</time>
      </trkpt>
      <trkpt lat="44.05082" lon="6.83341">
        <ele>1106</ele>
        <time>2020-06-05T09:14:31.000Z</time>
      </trkpt>
      <trkpt lat="44.05081" lon="6.83342">
        <ele>1106</ele>
        <time>2020-06-05T09:14:32.000Z</time>
      </trkpt>
      <trkpt lat="44.0508" lon="6.83342">
        <ele>1105</ele>
        <time>2020-06-05T09:14:33.000Z</time>
      </trkpt>
      <trkpt lat="44.05079" lon="6.83342">
        <ele>1105</ele>
        <time>2020-06-05T09:14:34.000Z</time>
      </trkpt>
      <trkpt lat="44.05078" lon="6.83343">
        <ele>1105</ele>
        <time>2020-06-05T09:14:35.000Z</time>
      </trkpt>
      <trkpt lat="44.05077" lon="6.83343">
        <ele>1105</ele>
        <time>2020-06-05T09:14:36.000Z</time>
      </trkpt>
      <trkpt lat="44.05076" lon="6.83343">
        <ele>1105</ele>
        <time>2020-06-05T09:14:37.000Z</time>
      </trkpt>
      <trkpt lat="44.05074" lon="6.83343">
        <ele>1105</ele>
        <time>2020-06-05T09:14:38.000Z</time>
      </trkpt>
      <trkpt lat="44.05073" lon="6.83344">
        <ele>1105</ele>
        <time>2020-06-05T09:14:39.000Z</time>
      </trkpt>
      <trkpt lat="44.05072" lon="6.83344">
        <ele>1105</ele>
        <time>2020-06-05T09:14:40.000Z</time>
      </trkpt>
      <trkpt lat="44.05071" lon="6.83344">
        <ele>1105</ele>
        <time>2020-06-05T09:14:41.000Z</time>
      </trkpt>
      <trkpt lat="44.0507" lon="6.83344">
        <ele>1104</ele>
        <time>2020-06-05T09:14:42.000Z</time>
      </trkpt>
      <trkpt lat="44.05069" lon="6.83344">
        <ele>1104</ele>
        <time>2020-06-05T09:14:43.000Z</time>
      </trkpt>
      <trkpt lat="44.05068" lon="6.83344">
        <ele>1104</ele>
        <time>2020-06-05T09:14:44.000Z</time>
      </trkpt>
      <trkpt lat="44.05067" lon="6.83344">
        <ele>1104</ele>
        <time>2020-06-05T09:14:45.000Z</time>
      </trkpt>
      <trkpt lat="44.05066" lon="6.83344">
        <ele>1104</ele>
        <time>2020-06-05T09:14:46.000Z</time>
      </trkpt>
      <trkpt lat="44.05065" lon="6.83343">
        <ele>1104</ele>
        <time>2020-06-05T09:14:47.000Z</time>
      </trkpt>
      <trkpt lat="44.05064" lon="6.83343">
        <ele>1104</ele>
        <time>2020-06-05T09:14:48.000Z</time>
      </trkpt>
      <trkpt lat="44.05063" lon="6.83342">
        <ele>1104</ele>
        <time>2020-06-05T09:14:49.000Z</time>
      </trkpt>
      <trkpt lat="44.05062" lon="6.83342">
        <ele>1104</ele>
        <time>2020-06-05T09:14:50.000Z</time>
      </trkpt>
      <trkpt lat="44.05061" lon="6.83342">
        <ele>1104</ele>
        <time>2020-06-05T09:14:51.000Z</time>
      </trkpt>
      <trkpt lat="44.0506" lon="6.83341">
        <ele>1103</ele>
        <time>2020-06-05T09:14:52.000Z</time>
      </trkpt>
      <trkpt lat="44.05059" lon="6.83341">
        <ele>1103</ele>
        <time>2020-06-05T09:14:53.000Z</time>
      </trkpt>
      <trkpt lat="44.05058" lon="6.8334">
        <ele>1103</ele>
        <time>2020-06-05T09:14:54.000Z</time>
      </trkpt>
      <trkpt lat="44.05057" lon="6.83339">
        <ele>1103</ele>
        <time>2020-06-05T09:14:55.000Z</time>
      </trkpt>
      <trkpt lat="44.05056" lon="6.83339">
        <ele>1103</ele>
        <time>2020-06-05T09:14:56.000Z</time>
      </trkpt>
      <trkpt lat="44.05055" lon="6.83338">
        <ele>1103</ele>
        <time>2020-06-05T09:14:57.000Z</time>
      </trkpt>
      <trkpt lat="44.05054" lon="6.83337">
        <ele>1102</ele>
        <time>2020-06-05T09:14:58.000Z</time>
      </trkpt>
      <trkpt lat="44.05053" lon="6.83336">
        <ele>1102</ele>
        <time>2020-06-05T09:14:59.000Z</time>
      </trkpt>
      <trkpt lat="44.05052" lon="6.83336">
        <ele>1102</ele>
        <time>2020-06-05T09:15:00.000Z</time>
      </trkpt>
      <trkpt lat="44.05051" lon="6.83335">
        <ele>1102</ele>
        <time>2020-06-05T09:15:01.000Z</time>
      </trkpt>
      <trkpt lat="44.0505" lon="6.83335">
        <ele>1101</ele>
        <time>2020-06-05T09:15:02.000Z</time>
      </trkpt>
      <trkpt lat="44.05049" lon="6.83334">
        <ele>1101</ele>
        <time>2020-06-05T09:15:03.000Z</time>
      </trkpt>
      <trkpt lat="44.05048" lon="6.83333">
        <ele>1101</ele>
        <time>2020-06-05T09:15:04.000Z</time>
      </trkpt>
      <trkpt lat="44.05048" lon="6.83333">
        <ele>1101</ele>
        <time>2020-06-05T09:15:05.000Z</time>
      </trkpt>
      <trkpt lat="44.05047" lon="6.83333">
        <ele>1101</ele>
        <time>2020-06-05T09:15:06.000Z</time>
      </trkpt>
      <trkpt lat="44.05046" lon="6.83332">
        <ele>1100</ele>
        <time>2020-06-05T09:15:07.000Z</time>
      </trkpt>
      <trkpt lat="44.05045" lon="6.83332">
        <ele>1100</ele>
        <time>2020-06-05T09:15:08.000Z</time>
      </trkpt>
      <trkpt lat="44.05044" lon="6.83331">
        <ele>1100</ele>
        <time>2020-06-05T09:15:09.000Z</time>
      </trkpt>
      <trkpt lat="44.05043" lon="6.83331">
        <ele>1100</ele>
        <time>2020-06-05T09:15:10.000Z</time>
      </trkpt>
      <trkpt lat="44.05042" lon="6.8333">
        <ele>1100</ele>
        <time>2020-06-05T09:15:11.000Z</time>
      </trkpt>
      <trkpt lat="44.05041" lon="6.83329">
        <ele>1100</ele>
        <time>2020-06-05T09:15:12.000Z</time>
      </trkpt>
      <trkpt lat="44.05041" lon="6.83329">
        <ele>1099</ele>
        <time>2020-06-05T09:15:13.000Z</time>
      </trkpt>
      <trkpt lat="44.0504" lon="6.83328">
        <ele>1099</ele>
        <time>2020-06-05T09:15:14.000Z</time>
      </trkpt>
      <trkpt lat="44.05039" lon="6.83328">
        <ele>1099</ele>
        <time>2020-06-05T09:15:15.000Z</time>
      </trkpt>
      <trkpt lat="44.05038" lon="6.83327">
        <ele>1099</ele>
        <time>2020-06-05T09:15:16.000Z</time>
      </trkpt>
      <trkpt lat="44.05037" lon="6.83327">
        <ele>1098</ele>
        <time>2020-06-05T09:15:17.000Z</time>
      </trkpt>
      <trkpt lat="44.05036" lon="6.83326">
        <ele>1098</ele>
        <time>2020-06-05T09:15:18.000Z</time>
      </trkpt>
      <trkpt lat="44.05035" lon="6.83325">
        <ele>1098</ele>
        <time>2020-06-05T09:15:19.000Z</time>
      </trkpt>
      <trkpt lat="44.05034" lon="6.83324">
        <ele>1098</ele>
        <time>2020-06-05T09:15:20.000Z</time>
      </trkpt>
      <trkpt lat="44.05033" lon="6.83324">
        <ele>1097</ele>
        <time>2020-06-05T09:15:21.000Z</time>
      </trkpt>
      <trkpt lat="44.05032" lon="6.83323">
        <ele>1097</ele>
        <time>2020-06-05T09:15:22.000Z</time>
      </trkpt>
      <trkpt lat="44.05031" lon="6.83322">
        <ele>1097</ele>
        <time>2020-06-05T09:15:23.000Z</time>
      </trkpt>
      <trkpt lat="44.0503" lon="6.83321">
        <ele>1097</ele>
        <time>2020-06-05T09:15:24.000Z</time>
      </trkpt>
      <trkpt lat="44.0503" lon="6.8332">
        <ele>1096</ele>
        <time>2020-06-05T09:15:25.000Z</time>
      </trkpt>
      <trkpt lat="44.05029" lon="6.8332">
        <ele>1096</ele>
        <time>2020-06-05T09:15:26.000Z</time>
      </trkpt>
      <trkpt lat="44.05028" lon="6.83319">
        <ele>1096</ele>
        <time>2020-06-05T09:15:27.000Z</time>
      </trkpt>
      <trkpt lat="44.05027" lon="6.83319">
        <ele>1096</ele>
        <time>2020-06-05T09:15:28.000Z</time>
      </trkpt>
      <trkpt lat="44.05026" lon="6.83319">
        <ele>1095</ele>
        <time>2020-06-05T09:15:29.000Z</time>
      </trkpt>
      <trkpt lat="44.05025" lon="6.83318">
        <ele>1095</ele>
        <time>2020-06-05T09:15:30.000Z</time>
      </trkpt>
      <trkpt lat="44.05024" lon="6.83318">
        <ele>1095</ele>
        <time>2020-06-05T09:15:31.000Z</time>
      </trkpt>
      <trkpt lat="44.05023" lon="6.83317">
        <ele>1095</ele>
        <time>2020-06-05T09:15:32.000Z</time>
      </trkpt>
      <trkpt lat="44.05022" lon="6.83317">
        <ele>1094</ele>
        <time>2020-06-05T09:15:33.000Z</time>
      </trkpt>
      <trkpt lat="44.05021" lon="6.83317">
        <ele>1094</ele>
        <time>2020-06-05T09:15:34.000Z</time>
      </trkpt>
      <trkpt lat="44.0502" lon="6.83317">
        <ele>1094</ele>
        <time>2020-06-05T09:15:35.000Z</time>
      </trkpt>
      <trkpt lat="44.0502" lon="6.83317">
        <ele>1094</ele>
        <time>2020-06-05T09:15:36.000Z</time>
      </trkpt>
      <trkpt lat="44.05019" lon="6.83318">
        <ele>1094</ele>
        <time>2020-06-05T09:15:37.000Z</time>
      </trkpt>
      <trkpt lat="44.05017" lon="6.83319">
        <ele>1093</ele>
        <time>2020-06-05T09:15:38.000Z</time>
      </trkpt>
      <trkpt lat="44.05016" lon="6.83319">
        <ele>1093</ele>
        <time>2020-06-05T09:15:39.000Z</time>
      </trkpt>
      <trkpt lat="44.05015" lon="6.83319">
        <ele>1093</ele>
        <time>2020-06-05T09:15:40.000Z</time>
      </trkpt>
      <trkpt lat="44.05014" lon="6.83318">
        <ele>1093</ele>
        <time>2020-06-05T09:15:41.000Z</time>
      </trkpt>
      <trkpt lat="44.05014" lon="6.83318">
        <ele>1093</ele>
        <time>2020-06-05T09:15:42.000Z</time>
      </trkpt>
      <trkpt lat="44.05013" lon="6.83318">
        <ele>1092</ele>
        <time>2020-06-05T09:15:43.000Z</time>
      </trkpt>
      <trkpt lat="44.05012" lon="6.83318">
        <ele>1092</ele>
        <time>2020-06-05T09:15:44.000Z</time>
      </trkpt>
      <trkpt lat="44.05011" lon="6.83319">
        <ele>1092</ele>
        <time>2020-06-05T09:15:45.000Z</time>
      </trkpt>
      <trkpt lat="44.0501" lon="6.83319">
        <ele>1092</ele>
        <time>2020-06-05T09:15:46.000Z</time>
      </trkpt>
      <trkpt lat="44.05009" lon="6.8332">
        <ele>1091</ele>
        <time>2020-06-05T09:15:47.000Z</time>
      </trkpt>
      <trkpt lat="44.05008" lon="6.8332">
        <ele>1091</ele>
        <time>2020-06-05T09:15:48.000Z</time>
      </trkpt>
      <trkpt lat="44.05007" lon="6.83321">
        <ele>1091</ele>
        <time>2020-06-05T09:15:49.000Z</time>
      </trkpt>
      <trkpt lat="44.05006" lon="6.83322">
        <ele>1091</ele>
        <time>2020-06-05T09:15:50.000Z</time>
      </trkpt>
      <trkpt lat="44.05006" lon="6.83323">
        <ele>1091</ele>
        <time>2020-06-05T09:15:51.000Z</time>
      </trkpt>
      <trkpt lat="44.05005" lon="6.83323">
        <ele>1090</ele>
        <time>2020-06-05T09:15:52.000Z</time>
      </trkpt>
      <trkpt lat="44.05004" lon="6.83324">
        <ele>1090</ele>
        <time>2020-06-05T09:15:53.000Z</time>
      </trkpt>
      <trkpt lat="44.05003" lon="6.83325">
        <ele>1090</ele>
        <time>2020-06-05T09:15:54.000Z</time>
      </trkpt>
      <trkpt lat="44.05003" lon="6.83325">
        <ele>1089</ele>
        <time>2020-06-05T09:15:55.000Z</time>
      </trkpt>
      <trkpt lat="44.05002" lon="6.83326">
        <ele>1089</ele>
        <time>2020-06-05T09:15:56.000Z</time>
      </trkpt>
      <trkpt lat="44.05001" lon="6.83326">
        <ele>1089</ele>
        <time>2020-06-05T09:15:57.000Z</time>
      </trkpt>
      <trkpt lat="44.05" lon="6.83327">
        <ele>1089</ele>
        <time>2020-06-05T09:15:58.000Z</time>
      </trkpt>
      <trkpt lat="44.05" lon="6.83328">
        <ele>1088</ele>
        <time>2020-06-05T09:15:59.000Z</time>
      </trkpt>
      <trkpt lat="44.04999" lon="6.83329">
        <ele>1088</ele>
        <time>2020-06-05T09:16:00.000Z</time>
      </trkpt>
      <trkpt lat="44.04999" lon="6.8333">
        <ele>1088</ele>
        <time>2020-06-05T09:16:01.000Z</time>
      </trkpt>
      <trkpt lat="44.04999" lon="6.83331">
        <ele>1088</ele>
        <time>2020-06-05T09:16:02.000Z</time>
      </trkpt>
      <trkpt lat="44.04998" lon="6.83332">
        <ele>1087</ele>
        <time>2020-06-05T09:16:03.000Z</time>
      </trkpt>
      <trkpt lat="44.04998" lon="6.83333">
        <ele>1087</ele>
        <time>2020-06-05T09:16:04.000Z</time>
      </trkpt>
      <trkpt lat="44.04998" lon="6.83334">
        <ele>1087</ele>
        <time>2020-06-05T09:16:05.000Z</time>
      </trkpt>
      <trkpt lat="44.04998" lon="6.83334">
        <ele>1087</ele>
        <time>2020-06-05T09:16:06.000Z</time>
      </trkpt>
      <trkpt lat="44.04997" lon="6.83335">
        <ele>1086</ele>
        <time>2020-06-05T09:16:07.000Z</time>
      </trkpt>
      <trkpt lat="44.04997" lon="6.83336">
        <ele>1086</ele>
        <time>2020-06-05T09:16:08.000Z</time>
      </trkpt>
      <trkpt lat="44.04996" lon="6.83337">
        <ele>1086</ele>
        <time>2020-06-05T09:16:09.000Z</time>
      </trkpt>
      <trkpt lat="44.04996" lon="6.83338">
        <ele>1085</ele>
        <time>2020-06-05T09:16:10.000Z</time>
      </trkpt>
      <trkpt lat="44.04995" lon="6.83338">
        <ele>1085</ele>
        <time>2020-06-05T09:16:11.000Z</time>
      </trkpt>
      <trkpt lat="44.04994" lon="6.83338">
        <ele>1085</ele>
        <time>2020-06-05T09:16:12.000Z</time>
      </trkpt>
      <trkpt lat="44.04992" lon="6.83337">
        <ele>1085</ele>
        <time>2020-06-05T09:16:13.000Z</time>
      </trkpt>
      <trkpt lat="44.04991" lon="6.83336">
        <ele>1084</ele>
        <time>2020-06-05T09:16:14.000Z</time>
      </trkpt>
      <trkpt lat="44.0499" lon="6.83335">
        <ele>1084</ele>
        <time>2020-06-05T09:16:15.000Z</time>
      </trkpt>
      <trkpt lat="44.0499" lon="6.83334">
        <ele>1084</ele>
        <time>2020-06-05T09:16:16.000Z</time>
      </trkpt>
      <trkpt lat="44.04989" lon="6.83333">
        <ele>1084</ele>
        <time>2020-06-05T09:16:17.000Z</time>
      </trkpt>
      <trkpt lat="44.04989" lon="6.83332">
        <ele>1084</ele>
        <time>2020-06-05T09:16:18.000Z</time>
      </trkpt>
      <trkpt lat="44.04989" lon="6.83331">
        <ele>1083</ele>
        <time>2020-06-05T09:16:19.000Z</time>
      </trkpt>
      <trkpt lat="44.04988" lon="6.83331">
        <ele>1083</ele>
        <time>2020-06-05T09:16:20.000Z</time>
      </trkpt>
      <trkpt lat="44.04988" lon="6.83331">
        <ele>1083</ele>
        <time>2020-06-05T09:16:21.000Z</time>
      </trkpt>
      <trkpt lat="44.04987" lon="6.83331">
        <ele>1083</ele>
        <time>2020-06-05T09:16:22.000Z</time>
      </trkpt>
      <trkpt lat="44.04987" lon="6.83332">
        <ele>1083</ele>
        <time>2020-06-05T09:16:23.000Z</time>
      </trkpt>
      <trkpt lat="44.04987" lon="6.83332">
        <ele>1082</ele>
        <time>2020-06-05T09:16:24.000Z</time>
      </trkpt>
      <trkpt lat="44.04987" lon="6.83333">
        <ele>1082</ele>
        <time>2020-06-05T09:16:25.000Z</time>
      </trkpt>
      <trkpt lat="44.04986" lon="6.83334">
        <ele>1082</ele>
        <time>2020-06-05T09:16:26.000Z</time>
      </trkpt>
      <trkpt lat="44.04986" lon="6.83335">
        <ele>1082</ele>
        <time>2020-06-05T09:16:27.000Z</time>
      </trkpt>
      <trkpt lat="44.04986" lon="6.83336">
        <ele>1081</ele>
        <time>2020-06-05T09:16:28.000Z</time>
      </trkpt>
      <trkpt lat="44.04986" lon="6.83337">
        <ele>1081</ele>
        <time>2020-06-05T09:16:29.000Z</time>
      </trkpt>
      <trkpt lat="44.04986" lon="6.83338">
        <ele>1081</ele>
        <time>2020-06-05T09:16:30.000Z</time>
      </trkpt>
      <trkpt lat="44.04985" lon="6.83339">
        <ele>1081</ele>
        <time>2020-06-05T09:16:31.000Z</time>
      </trkpt>
      <trkpt lat="44.04985" lon="6.8334">
        <ele>1080</ele>
        <time>2020-06-05T09:16:32.000Z</time>
      </trkpt>
      <trkpt lat="44.04985" lon="6.83341">
        <ele>1080</ele>
        <time>2020-06-05T09:16:33.000Z</time>
      </trkpt>
      <trkpt lat="44.04985" lon="6.83342">
        <ele>1080</ele>
        <time>2020-06-05T09:16:34.000Z</time>
      </trkpt>
      <trkpt lat="44.04985" lon="6.83343">
        <ele>1080</ele>
        <time>2020-06-05T09:16:35.000Z</time>
      </trkpt>
      <trkpt lat="44.04985" lon="6.83344">
        <ele>1080</ele>
        <time>2020-06-05T09:16:36.000Z</time>
      </trkpt>
      <trkpt lat="44.04985" lon="6.83345">
        <ele>1080</ele>
        <time>2020-06-05T09:16:37.000Z</time>
      </trkpt>
      <trkpt lat="44.04985" lon="6.83346">
        <ele>1080</ele>
        <time>2020-06-05T09:16:38.000Z</time>
      </trkpt>
      <trkpt lat="44.04984" lon="6.83347">
        <ele>1080</ele>
        <time>2020-06-05T09:16:39.000Z</time>
      </trkpt>
      <trkpt lat="44.04984" lon="6.83348">
        <ele>1079</ele>
        <time>2020-06-05T09:16:40.000Z</time>
      </trkpt>
      <trkpt lat="44.04984" lon="6.83349">
        <ele>1079</ele>
        <time>2020-06-05T09:16:41.000Z</time>
      </trkpt>
      <trkpt lat="44.04984" lon="6.8335">
        <ele>1079</ele>
        <time>2020-06-05T09:16:42.000Z</time>
      </trkpt>
      <trkpt lat="44.04984" lon="6.83351">
        <ele>1079</ele>
        <time>2020-06-05T09:16:43.000Z</time>
      </trkpt>
      <trkpt lat="44.04983" lon="6.83352">
        <ele>1079</ele>
        <time>2020-06-05T09:16:44.000Z</time>
      </trkpt>
      <trkpt lat="44.04983" lon="6.83354">
        <ele>1079</ele>
        <time>2020-06-05T09:16:45.000Z</time>
      </trkpt>
      <trkpt lat="44.04983" lon="6.83355">
        <ele>1078</ele>
        <time>2020-06-05T09:16:46.000Z</time>
      </trkpt>
      <trkpt lat="44.04982" lon="6.83356">
        <ele>1078</ele>
        <time>2020-06-05T09:16:47.000Z</time>
      </trkpt>
      <trkpt lat="44.04982" lon="6.83357">
        <ele>1078</ele>
        <time>2020-06-05T09:16:48.000Z</time>
      </trkpt>
      <trkpt lat="44.04982" lon="6.83359">
        <ele>1078</ele>
        <time>2020-06-05T09:16:49.000Z</time>
      </trkpt>
      <trkpt lat="44.04982" lon="6.8336">
        <ele>1077</ele>
        <time>2020-06-05T09:16:50.000Z</time>
      </trkpt>
      <trkpt lat="44.04981" lon="6.83361">
        <ele>1077</ele>
        <time>2020-06-05T09:16:51.000Z</time>
      </trkpt>
      <trkpt lat="44.04981" lon="6.83362">
        <ele>1077</ele>
        <time>2020-06-05T09:16:52.000Z</time>
      </trkpt>
      <trkpt lat="44.0498" lon="6.83363">
        <ele>1077</ele>
        <time>2020-06-05T09:16:53.000Z</time>
      </trkpt>
      <trkpt lat="44.0498" lon="6.83364">
        <ele>1077</ele>
        <time>2020-06-05T09:16:54.000Z</time>
      </trkpt>
      <trkpt lat="44.04979" lon="6.83365">
        <ele>1076</ele>
        <time>2020-06-05T09:16:55.000Z</time>
      </trkpt>
      <trkpt lat="44.04979" lon="6.83366">
        <ele>1076</ele>
        <time>2020-06-05T09:16:56.000Z</time>
      </trkpt>
      <trkpt lat="44.04979" lon="6.83367">
        <ele>1076</ele>
        <time>2020-06-05T09:16:57.000Z</time>
      </trkpt>
      <trkpt lat="44.04978" lon="6.83368">
        <ele>1076</ele>
        <time>2020-06-05T09:16:58.000Z</time>
      </trkpt>
      <trkpt lat="44.04978" lon="6.83369">
        <ele>1076</ele>
        <time>2020-06-05T09:16:59.000Z</time>
      </trkpt>
      <trkpt lat="44.04978" lon="6.83371">
        <ele>1075</ele>
        <time>2020-06-05T09:17:00.000Z</time>
      </trkpt>
      <trkpt lat="44.04977" lon="6.83372">
        <ele>1075</ele>
        <time>2020-06-05T09:17:01.000Z</time>
      </trkpt>
      <trkpt lat="44.04977" lon="6.83373">
        <ele>1075</ele>
        <time>2020-06-05T09:17:02.000Z</time>
      </trkpt>
      <trkpt lat="44.04976" lon="6.83373">
        <ele>1075</ele>
        <time>2020-06-05T09:17:03.000Z</time>
      </trkpt>
      <trkpt lat="44.04976" lon="6.83374">
        <ele>1075</ele>
        <time>2020-06-05T09:17:04.000Z</time>
      </trkpt>
      <trkpt lat="44.04975" lon="6.83376">
        <ele>1075</ele>
        <time>2020-06-05T09:17:05.000Z</time>
      </trkpt>
      <trkpt lat="44.04975" lon="6.83377">
        <ele>1074</ele>
        <time>2020-06-05T09:17:06.000Z</time>
      </trkpt>
      <trkpt lat="44.04975" lon="6.83378">
        <ele>1074</ele>
        <time>2020-06-05T09:17:07.000Z</time>
      </trkpt>
      <trkpt lat="44.04974" lon="6.83379">
        <ele>1074</ele>
        <time>2020-06-05T09:17:08.000Z</time>
      </trkpt>
      <trkpt lat="44.04974" lon="6.8338">
        <ele>1074</ele>
        <time>2020-06-05T09:17:09.000Z</time>
      </trkpt>
      <trkpt lat="44.04974" lon="6.83382">
        <ele>1074</ele>
        <time>2020-06-05T09:17:10.000Z</time>
      </trkpt>
      <trkpt lat="44.04974" lon="6.83383">
        <ele>1074</ele>
        <time>2020-06-05T09:17:11.000Z</time>
      </trkpt>
      <trkpt lat="44.04974" lon="6.83384">
        <ele>1074</ele>
        <time>2020-06-05T09:17:12.000Z</time>
      </trkpt>
      <trkpt lat="44.04974" lon="6.83385">
        <ele>1073</ele>
        <time>2020-06-05T09:17:13.000Z</time>
      </trkpt>
      <trkpt lat="44.04974" lon="6.83386">
        <ele>1073</ele>
        <time>2020-06-05T09:17:14.000Z</time>
      </trkpt>
      <trkpt lat="44.04974" lon="6.83387">
        <ele>1073</ele>
        <time>2020-06-05T09:17:15.000Z</time>
      </trkpt>
      <trkpt lat="44.04974" lon="6.83388">
        <ele>1073</ele>
        <time>2020-06-05T09:17:16.000Z</time>
      </trkpt>
      <trkpt lat="44.04973" lon="6.8339">
        <ele>1073</ele>
        <time>2020-06-05T09:17:17.000Z</time>
      </trkpt>
      <trkpt lat="44.04973" lon="6.83392">
        <ele>1073</ele>
        <time>2020-06-05T09:17:18.000Z</time>
      </trkpt>
      <trkpt lat="44.04973" lon="6.83393">
        <ele>1073</ele>
        <time>2020-06-05T09:17:19.000Z</time>
      </trkpt>
      <trkpt lat="44.04973" lon="6.83394">
        <ele>1073</ele>
        <time>2020-06-05T09:17:20.000Z</time>
      </trkpt>
      <trkpt lat="44.04973" lon="6.83395">
        <ele>1072</ele>
        <time>2020-06-05T09:17:21.000Z</time>
      </trkpt>
      <trkpt lat="44.04972" lon="6.83396">
        <ele>1072</ele>
        <time>2020-06-05T09:17:22.000Z</time>
      </trkpt>
      <trkpt lat="44.04972" lon="6.83397">
        <ele>1072</ele>
        <time>2020-06-05T09:17:23.000Z</time>
      </trkpt>
      <trkpt lat="44.04971" lon="6.83398">
        <ele>1072</ele>
        <time>2020-06-05T09:17:24.000Z</time>
      </trkpt>
      <trkpt lat="44.0497" lon="6.83398">
        <ele>1072</ele>
        <time>2020-06-05T09:17:25.000Z</time>
      </trkpt>
      <trkpt lat="44.0497" lon="6.83399">
        <ele>1071</ele>
        <time>2020-06-05T09:17:26.000Z</time>
      </trkpt>
      <trkpt lat="44.04969" lon="6.83399">
        <ele>1071</ele>
        <time>2020-06-05T09:17:27.000Z</time>
      </trkpt>
      <trkpt lat="44.04968" lon="6.834">
        <ele>1071</ele>
        <time>2020-06-05T09:17:28.000Z</time>
      </trkpt>
      <trkpt lat="44.04967" lon="6.83401">
        <ele>1071</ele>
        <time>2020-06-05T09:17:29.000Z</time>
      </trkpt>
      <trkpt lat="44.04966" lon="6.83401">
        <ele>1071</ele>
        <time>2020-06-05T09:17:30.000Z</time>
      </trkpt>
      <trkpt lat="44.04966" lon="6.83402">
        <ele>1071</ele>
        <time>2020-06-05T09:17:31.000Z</time>
      </trkpt>
      <trkpt lat="44.04965" lon="6.83403">
        <ele>1070</ele>
        <time>2020-06-05T09:17:32.000Z</time>
      </trkpt>
      <trkpt lat="44.04964" lon="6.83403">
        <ele>1070</ele>
        <time>2020-06-05T09:17:33.000Z</time>
      </trkpt>
      <trkpt lat="44.04963" lon="6.83404">
        <ele>1070</ele>
        <time>2020-06-05T09:17:34.000Z</time>
      </trkpt>
      <trkpt lat="44.04962" lon="6.83405">
        <ele>1070</ele>
        <time>2020-06-05T09:17:35.000Z</time>
      </trkpt>
      <trkpt lat="44.04962" lon="6.83406">
        <ele>1070</ele>
        <time>2020-06-05T09:17:36.000Z</time>
      </trkpt>
      <trkpt lat="44.04961" lon="6.83406">
        <ele>1070</ele>
        <time>2020-06-05T09:17:37.000Z</time>
      </trkpt>
      <trkpt lat="44.0496" lon="6.83407">
        <ele>1070</ele>
        <time>2020-06-05T09:17:38.000Z</time>
      </trkpt>
      <trkpt lat="44.0496" lon="6.83408">
        <ele>1069</ele>
        <time>2020-06-05T09:17:39.000Z</time>
      </trkpt>
      <trkpt lat="44.04959" lon="6.83409">
        <ele>1069</ele>
        <time>2020-06-05T09:17:40.000Z</time>
      </trkpt>
      <trkpt lat="44.04958" lon="6.8341">
        <ele>1069</ele>
        <time>2020-06-05T09:17:41.000Z</time>
      </trkpt>
      <trkpt lat="44.04957" lon="6.83411">
        <ele>1069</ele>
        <time>2020-06-05T09:17:42.000Z</time>
      </trkpt>
      <trkpt lat="44.04956" lon="6.83413">
        <ele>1068</ele>
        <time>2020-06-05T09:17:43.000Z</time>
      </trkpt>
      <trkpt lat="44.04956" lon="6.83413">
        <ele>1068</ele>
        <time>2020-06-05T09:17:44.000Z</time>
      </trkpt>
      <trkpt lat="44.04956" lon="6.83414">
        <ele>1068</ele>
        <time>2020-06-05T09:17:45.000Z</time>
      </trkpt>
      <trkpt lat="44.04955" lon="6.83415">
        <ele>1068</ele>
        <time>2020-06-05T09:17:46.000Z</time>
      </trkpt>
      <trkpt lat="44.04955" lon="6.83416">
        <ele>1068</ele>
        <time>2020-06-05T09:17:47.000Z</time>
      </trkpt>
      <trkpt lat="44.04954" lon="6.83417">
        <ele>1067</ele>
        <time>2020-06-05T09:17:48.000Z</time>
      </trkpt>
      <trkpt lat="44.04954" lon="6.83417">
        <ele>1067</ele>
        <time>2020-06-05T09:17:49.000Z</time>
      </trkpt>
      <trkpt lat="44.04953" lon="6.83418">
        <ele>1067</ele>
        <time>2020-06-05T09:17:50.000Z</time>
      </trkpt>
      <trkpt lat="44.04952" lon="6.83418">
        <ele>1067</ele>
        <time>2020-06-05T09:17:51.000Z</time>
      </trkpt>
      <trkpt lat="44.04952" lon="6.83419">
        <ele>1067</ele>
        <time>2020-06-05T09:17:52.000Z</time>
      </trkpt>
      <trkpt lat="44.04951" lon="6.83419">
        <ele>1067</ele>
        <time>2020-06-05T09:17:53.000Z</time>
      </trkpt>
      <trkpt lat="44.04951" lon="6.8342">
        <ele>1067</ele>
        <time>2020-06-05T09:17:54.000Z</time>
      </trkpt>
      <trkpt lat="44.0495" lon="6.83421">
        <ele>1067</ele>
        <time>2020-06-05T09:17:55.000Z</time>
      </trkpt>
      <trkpt lat="44.04949" lon="6.83422">
        <ele>1066</ele>
        <time>2020-06-05T09:17:56.000Z</time>
      </trkpt>
      <trkpt lat="44.04949" lon="6.83423">
        <ele>1066</ele>
        <time>2020-06-05T09:17:57.000Z</time>
      </trkpt>
      <trkpt lat="44.04948" lon="6.83424">
        <ele>1066</ele>
        <time>2020-06-05T09:17:58.000Z</time>
      </trkpt>
      <trkpt lat="44.04947" lon="6.83425">
        <ele>1066</ele>
        <time>2020-06-05T09:17:59.000Z</time>
      </trkpt>
      <trkpt lat="44.04946" lon="6.83426">
        <ele>1066</ele>
        <time>2020-06-05T09:18:00.000Z</time>
      </trkpt>
      <trkpt lat="44.04946" lon="6.83427">
        <ele>1066</ele>
        <time>2020-06-05T09:18:01.000Z</time>
      </trkpt>
      <trkpt lat="44.04945" lon="6.83429">
        <ele>1066</ele>
        <time>2020-06-05T09:18:02.000Z</time>
      </trkpt>
      <trkpt lat="44.04945" lon="6.8343">
        <ele>1066</ele>
        <time>2020-06-05T09:18:03.000Z</time>
      </trkpt>
      <trkpt lat="44.04944" lon="6.83431">
        <ele>1065</ele>
        <time>2020-06-05T09:18:04.000Z</time>
      </trkpt>
      <trkpt lat="44.04944" lon="6.83433">
        <ele>1065</ele>
        <time>2020-06-05T09:18:05.000Z</time>
      </trkpt>
      <trkpt lat="44.04943" lon="6.83434">
        <ele>1065</ele>
        <time>2020-06-05T09:18:06.000Z</time>
      </trkpt>
      <trkpt lat="44.04942" lon="6.83436">
        <ele>1065</ele>
        <time>2020-06-05T09:18:07.000Z</time>
      </trkpt>
      <trkpt lat="44.04942" lon="6.83437">
        <ele>1065</ele>
        <time>2020-06-05T09:18:08.000Z</time>
      </trkpt>
      <trkpt lat="44.04941" lon="6.83439">
        <ele>1065</ele>
        <time>2020-06-05T09:18:09.000Z</time>
      </trkpt>
      <trkpt lat="44.04941" lon="6.8344">
        <ele>1065</ele>
        <time>2020-06-05T09:18:10.000Z</time>
      </trkpt>
      <trkpt lat="44.0494" lon="6.83442">
        <ele>1065</ele>
        <time>2020-06-05T09:18:11.000Z</time>
      </trkpt>
      <trkpt lat="44.04939" lon="6.83444">
        <ele>1065</ele>
        <time>2020-06-05T09:18:12.000Z</time>
      </trkpt>
      <trkpt lat="44.04939" lon="6.83445">
        <ele>1065</ele>
        <time>2020-06-05T09:18:13.000Z</time>
      </trkpt>
      <trkpt lat="44.04938" lon="6.83446">
        <ele>1065</ele>
        <time>2020-06-05T09:18:14.000Z</time>
      </trkpt>
      <trkpt lat="44.04938" lon="6.83448">
        <ele>1065</ele>
        <time>2020-06-05T09:18:15.000Z</time>
      </trkpt>
      <trkpt lat="44.04937" lon="6.8345">
        <ele>1065</ele>
        <time>2020-06-05T09:18:16.000Z</time>
      </trkpt>
      <trkpt lat="44.04937" lon="6.83451">
        <ele>1064</ele>
        <time>2020-06-05T09:18:17.000Z</time>
      </trkpt>
      <trkpt lat="44.04936" lon="6.83452">
        <ele>1064</ele>
        <time>2020-06-05T09:18:18.000Z</time>
      </trkpt>
      <trkpt lat="44.04936" lon="6.83454">
        <ele>1064</ele>
        <time>2020-06-05T09:18:19.000Z</time>
      </trkpt>
      <trkpt lat="44.04935" lon="6.83455">
        <ele>1064</ele>
        <time>2020-06-05T09:18:20.000Z</time>
      </trkpt>
      <trkpt lat="44.04934" lon="6.83456">
        <ele>1064</ele>
        <time>2020-06-05T09:18:21.000Z</time>
      </trkpt>
      <trkpt lat="44.04934" lon="6.83457">
        <ele>1064</ele>
        <time>2020-06-05T09:18:22.000Z</time>
      </trkpt>
      <trkpt lat="44.04933" lon="6.83457">
        <ele>1064</ele>
        <time>2020-06-05T09:18:23.000Z</time>
      </trkpt>
      <trkpt lat="44.04932" lon="6.83458">
        <ele>1064</ele>
        <time>2020-06-05T09:18:24.000Z</time>
      </trkpt>
      <trkpt lat="44.04931" lon="6.83458">
        <ele>1064</ele>
        <time>2020-06-05T09:18:25.000Z</time>
      </trkpt>
      <trkpt lat="44.0493" lon="6.83458">
        <ele>1064</ele>
        <time>2020-06-05T09:18:26.000Z</time>
      </trkpt>
      <trkpt lat="44.04929" lon="6.83459">
        <ele>1064</ele>
        <time>2020-06-05T09:18:27.000Z</time>
      </trkpt>
      <trkpt lat="44.04928" lon="6.8346">
        <ele>1063</ele>
        <time>2020-06-05T09:18:28.000Z</time>
      </trkpt>
      <trkpt lat="44.04927" lon="6.8346">
        <ele>1063</ele>
        <time>2020-06-05T09:18:29.000Z</time>
      </trkpt>
      <trkpt lat="44.04926" lon="6.83461">
        <ele>1063</ele>
        <time>2020-06-05T09:18:30.000Z</time>
      </trkpt>
      <trkpt lat="44.04926" lon="6.83462">
        <ele>1063</ele>
        <time>2020-06-05T09:18:31.000Z</time>
      </trkpt>
      <trkpt lat="44.04925" lon="6.83464">
        <ele>1063</ele>
        <time>2020-06-05T09:18:32.000Z</time>
      </trkpt>
      <trkpt lat="44.04925" lon="6.83465">
        <ele>1063</ele>
        <time>2020-06-05T09:18:33.000Z</time>
      </trkpt>
      <trkpt lat="44.04925" lon="6.83465">
        <ele>1063</ele>
        <time>2020-06-05T09:18:34.000Z</time>
      </trkpt>
      <trkpt lat="44.04924" lon="6.83467">
        <ele>1063</ele>
        <time>2020-06-05T09:18:35.000Z</time>
      </trkpt>
      <trkpt lat="44.04924" lon="6.83468">
        <ele>1063</ele>
        <time>2020-06-05T09:18:36.000Z</time>
      </trkpt>
      <trkpt lat="44.04923" lon="6.83469">
        <ele>1063</ele>
        <time>2020-06-05T09:18:37.000Z</time>
      </trkpt>
      <trkpt lat="44.04923" lon="6.8347">
        <ele>1063</ele>
        <time>2020-06-05T09:18:38.000Z</time>
      </trkpt>
      <trkpt lat="44.04922" lon="6.83471">
        <ele>1063</ele>
        <time>2020-06-05T09:18:39.000Z</time>
      </trkpt>
      <trkpt lat="44.04922" lon="6.83472">
        <ele>1063</ele>
        <time>2020-06-05T09:18:40.000Z</time>
      </trkpt>
      <trkpt lat="44.04921" lon="6.83473">
        <ele>1063</ele>
        <time>2020-06-05T09:18:41.000Z</time>
      </trkpt>
      <trkpt lat="44.0492" lon="6.83475">
        <ele>1063</ele>
        <time>2020-06-05T09:18:42.000Z</time>
      </trkpt>
      <trkpt lat="44.0492" lon="6.83476">
        <ele>1063</ele>
        <time>2020-06-05T09:18:43.000Z</time>
      </trkpt>
      <trkpt lat="44.04919" lon="6.83476">
        <ele>1063</ele>
        <time>2020-06-05T09:18:44.000Z</time>
      </trkpt>
      <trkpt lat="44.04918" lon="6.83477">
        <ele>1063</ele>
        <time>2020-06-05T09:18:45.000Z</time>
      </trkpt>
      <trkpt lat="44.04917" lon="6.83477">
        <ele>1063</ele>
        <time>2020-06-05T09:18:46.000Z</time>
      </trkpt>
      <trkpt lat="44.04917" lon="6.83477">
        <ele>1063</ele>
        <time>2020-06-05T09:18:47.000Z</time>
      </trkpt>
      <trkpt lat="44.04916" lon="6.83478">
        <ele>1063</ele>
        <time>2020-06-05T09:18:48.000Z</time>
      </trkpt>
      <trkpt lat="44.04916" lon="6.83478">
        <ele>1063</ele>
        <time>2020-06-05T09:18:49.000Z</time>
      </trkpt>
      <trkpt lat="44.04915" lon="6.83479">
        <ele>1062</ele>
        <time>2020-06-05T09:18:50.000Z</time>
      </trkpt>
      <trkpt lat="44.04915" lon="6.8348">
        <ele>1062</ele>
        <time>2020-06-05T09:18:51.000Z</time>
      </trkpt>
      <trkpt lat="44.04914" lon="6.83481">
        <ele>1062</ele>
        <time>2020-06-05T09:18:52.000Z</time>
      </trkpt>
      <trkpt lat="44.04913" lon="6.83482">
        <ele>1062</ele>
        <time>2020-06-05T09:18:53.000Z</time>
      </trkpt>
      <trkpt lat="44.04912" lon="6.83483">
        <ele>1062</ele>
        <time>2020-06-05T09:18:54.000Z</time>
      </trkpt>
      <trkpt lat="44.04911" lon="6.83484">
        <ele>1062</ele>
        <time>2020-06-05T09:18:55.000Z</time>
      </trkpt>
      <trkpt lat="44.0491" lon="6.83485">
        <ele>1062</ele>
        <time>2020-06-05T09:18:56.000Z</time>
      </trkpt>
      <trkpt lat="44.04909" lon="6.83486">
        <ele>1062</ele>
        <time>2020-06-05T09:18:57.000Z</time>
      </trkpt>
      <trkpt lat="44.04908" lon="6.83487">
        <ele>1062</ele>
        <time>2020-06-05T09:18:58.000Z</time>
      </trkpt>
      <trkpt lat="44.04907" lon="6.83487">
        <ele>1062</ele>
        <time>2020-06-05T09:18:59.000Z</time>
      </trkpt>
      <trkpt lat="44.04906" lon="6.83488">
        <ele>1062</ele>
        <time>2020-06-05T09:19:00.000Z</time>
      </trkpt>
      <trkpt lat="44.04905" lon="6.83488">
        <ele>1062</ele>
        <time>2020-06-05T09:19:01.000Z</time>
      </trkpt>
      <trkpt lat="44.04904" lon="6.83489">
        <ele>1062</ele>
        <time>2020-06-05T09:19:02.000Z</time>
      </trkpt>
      <trkpt lat="44.04903" lon="6.83489">
        <ele>1062</ele>
        <time>2020-06-05T09:19:03.000Z</time>
      </trkpt>
      <trkpt lat="44.04901" lon="6.83489">
        <ele>1062</ele>
        <time>2020-06-05T09:19:04.000Z</time>
      </trkpt>
      <trkpt lat="44.049" lon="6.83489">
        <ele>1062</ele>
        <time>2020-06-05T09:19:05.000Z</time>
      </trkpt>
      <trkpt lat="44.04899" lon="6.8349">
        <ele>1062</ele>
        <time>2020-06-05T09:19:06.000Z</time>
      </trkpt>
      <trkpt lat="44.04898" lon="6.8349">
        <ele>1061</ele>
        <time>2020-06-05T09:19:07.000Z</time>
      </trkpt>
      <trkpt lat="44.04896" lon="6.8349">
        <ele>1061</ele>
        <time>2020-06-05T09:19:08.000Z</time>
      </trkpt>
      <trkpt lat="44.04895" lon="6.8349">
        <ele>1061</ele>
        <time>2020-06-05T09:19:09.000Z</time>
      </trkpt>
      <trkpt lat="44.04894" lon="6.8349">
        <ele>1061</ele>
        <time>2020-06-05T09:19:10.000Z</time>
      </trkpt>
      <trkpt lat="44.04893" lon="6.8349">
        <ele>1061</ele>
        <time>2020-06-05T09:19:11.000Z</time>
      </trkpt>
      <trkpt lat="44.04892" lon="6.8349">
        <ele>1061</ele>
        <time>2020-06-05T09:19:12.000Z</time>
      </trkpt>
      <trkpt lat="44.04891" lon="6.83491">
        <ele>1061</ele>
        <time>2020-06-05T09:19:13.000Z</time>
      </trkpt>
      <trkpt lat="44.0489" lon="6.83491">
        <ele>1061</ele>
        <time>2020-06-05T09:19:14.000Z</time>
      </trkpt>
      <trkpt lat="44.04889" lon="6.83492">
        <ele>1061</ele>
        <time>2020-06-05T09:19:15.000Z</time>
      </trkpt>
      <trkpt lat="44.04888" lon="6.83492">
        <ele>1061</ele>
        <time>2020-06-05T09:19:16.000Z</time>
      </trkpt>
      <trkpt lat="44.04887" lon="6.83493">
        <ele>1060</ele>
        <time>2020-06-05T09:19:17.000Z</time>
      </trkpt>
      <trkpt lat="44.04886" lon="6.83493">
        <ele>1060</ele>
        <time>2020-06-05T09:19:18.000Z</time>
      </trkpt>
      <trkpt lat="44.04885" lon="6.83493">
        <ele>1060</ele>
        <time>2020-06-05T09:19:19.000Z</time>
      </trkpt>
      <trkpt lat="44.04884" lon="6.83492">
        <ele>1060</ele>
        <time>2020-06-05T09:19:20.000Z</time>
      </trkpt>
      <trkpt lat="44.04883" lon="6.83491">
        <ele>1060</ele>
        <time>2020-06-05T09:19:21.000Z</time>
      </trkpt>
      <trkpt lat="44.04883" lon="6.83491">
        <ele>1059</ele>
        <time>2020-06-05T09:19:22.000Z</time>
      </trkpt>
      <trkpt lat="44.04882" lon="6.83491">
        <ele>1059</ele>
        <time>2020-06-05T09:19:23.000Z</time>
      </trkpt>
      <trkpt lat="44.04881" lon="6.8349">
        <ele>1059</ele>
        <time>2020-06-05T09:19:24.000Z</time>
      </trkpt>
      <trkpt lat="44.0488" lon="6.8349">
        <ele>1059</ele>
        <time>2020-06-05T09:19:25.000Z</time>
      </trkpt>
      <trkpt lat="44.04879" lon="6.8349">
        <ele>1059</ele>
        <time>2020-06-05T09:19:26.000Z</time>
      </trkpt>
      <trkpt lat="44.04878" lon="6.83489">
        <ele>1058</ele>
        <time>2020-06-05T09:19:27.000Z</time>
      </trkpt>
      <trkpt lat="44.04878" lon="6.83489">
        <ele>1058</ele>
        <time>2020-06-05T09:19:28.000Z</time>
      </trkpt>
      <trkpt lat="44.04877" lon="6.83489">
        <ele>1058</ele>
        <time>2020-06-05T09:19:29.000Z</time>
      </trkpt>
      <trkpt lat="44.04876" lon="6.83489">
        <ele>1058</ele>
        <time>2020-06-05T09:19:30.000Z</time>
      </trkpt>
      <trkpt lat="44.04875" lon="6.83489">
        <ele>1057</ele>
        <time>2020-06-05T09:19:31.000Z</time>
      </trkpt>
      <trkpt lat="44.04874" lon="6.83489">
        <ele>1057</ele>
        <time>2020-06-05T09:19:32.000Z</time>
      </trkpt>
      <trkpt lat="44.04873" lon="6.83489">
        <ele>1057</ele>
        <time>2020-06-05T09:19:33.000Z</time>
      </trkpt>
      <trkpt lat="44.04872" lon="6.83489">
        <ele>1057</ele>
        <time>2020-06-05T09:19:34.000Z</time>
      </trkpt>
      <trkpt lat="44.04871" lon="6.83489">
        <ele>1056</ele>
        <time>2020-06-05T09:19:35.000Z</time>
      </trkpt>
      <trkpt lat="44.04871" lon="6.83489">
        <ele>1056</ele>
        <time>2020-06-05T09:19:36.000Z</time>
      </trkpt>
      <trkpt lat="44.0487" lon="6.8349">
        <ele>1056</ele>
        <time>2020-06-05T09:19:37.000Z</time>
      </trkpt>
      <trkpt lat="44.04869" lon="6.8349">
        <ele>1056</ele>
        <time>2020-06-05T09:19:38.000Z</time>
      </trkpt>
      <trkpt lat="44.04868" lon="6.8349">
        <ele>1055</ele>
        <time>2020-06-05T09:19:39.000Z</time>
      </trkpt>
      <trkpt lat="44.04867" lon="6.83489">
        <ele>1055</ele>
        <time>2020-06-05T09:19:40.000Z</time>
      </trkpt>
      <trkpt lat="44.04866" lon="6.83489">
        <ele>1055</ele>
        <time>2020-06-05T09:19:41.000Z</time>
      </trkpt>
      <trkpt lat="44.04865" lon="6.83489">
        <ele>1055</ele>
        <time>2020-06-05T09:19:42.000Z</time>
      </trkpt>
      <trkpt lat="44.04864" lon="6.83489">
        <ele>1055</ele>
        <time>2020-06-05T09:19:43.000Z</time>
      </trkpt>
      <trkpt lat="44.04863" lon="6.83489">
        <ele>1055</ele>
        <time>2020-06-05T09:19:44.000Z</time>
      </trkpt>
      <trkpt lat="44.04862" lon="6.83489">
        <ele>1054</ele>
        <time>2020-06-05T09:19:45.000Z</time>
      </trkpt>
      <trkpt lat="44.04862" lon="6.83489">
        <ele>1054</ele>
        <time>2020-06-05T09:19:46.000Z</time>
      </trkpt>
      <trkpt lat="44.04861" lon="6.83489">
        <ele>1054</ele>
        <time>2020-06-05T09:19:47.000Z</time>
      </trkpt>
      <trkpt lat="44.0486" lon="6.83488">
        <ele>1054</ele>
        <time>2020-06-05T09:19:48.000Z</time>
      </trkpt>
      <trkpt lat="44.04859" lon="6.83488">
        <ele>1054</ele>
        <time>2020-06-05T09:19:49.000Z</time>
      </trkpt>
      <trkpt lat="44.04858" lon="6.83487">
        <ele>1054</ele>
        <time>2020-06-05T09:19:50.000Z</time>
      </trkpt>
      <trkpt lat="44.04857" lon="6.83487">
        <ele>1054</ele>
        <time>2020-06-05T09:19:51.000Z</time>
      </trkpt>
      <trkpt lat="44.04856" lon="6.83487">
        <ele>1053</ele>
        <time>2020-06-05T09:19:52.000Z</time>
      </trkpt>
      <trkpt lat="44.04855" lon="6.83487">
        <ele>1053</ele>
        <time>2020-06-05T09:19:53.000Z</time>
      </trkpt>
      <trkpt lat="44.04854" lon="6.83486">
        <ele>1053</ele>
        <time>2020-06-05T09:19:54.000Z</time>
      </trkpt>
      <trkpt lat="44.04854" lon="6.83486">
        <ele>1053</ele>
        <time>2020-06-05T09:19:55.000Z</time>
      </trkpt>
      <trkpt lat="44.04853" lon="6.83485">
        <ele>1053</ele>
        <time>2020-06-05T09:19:56.000Z</time>
      </trkpt>
      <trkpt lat="44.04852" lon="6.83484">
        <ele>1053</ele>
        <time>2020-06-05T09:19:57.000Z</time>
      </trkpt>
      <trkpt lat="44.04851" lon="6.83484">
        <ele>1053</ele>
        <time>2020-06-05T09:19:58.000Z</time>
      </trkpt>
      <trkpt lat="44.04851" lon="6.83483">
        <ele>1053</ele>
        <time>2020-06-05T09:19:59.000Z</time>
      </trkpt>
      <trkpt lat="44.0485" lon="6.83482">
        <ele>1052</ele>
        <time>2020-06-05T09:20:00.000Z</time>
      </trkpt>
      <trkpt lat="44.04849" lon="6.83482">
        <ele>1052</ele>
        <time>2020-06-05T09:20:01.000Z</time>
      </trkpt>
      <trkpt lat="44.04848" lon="6.83481">
        <ele>1052</ele>
        <time>2020-06-05T09:20:02.000Z</time>
      </trkpt>
      <trkpt lat="44.04848" lon="6.8348">
        <ele>1052</ele>
        <time>2020-06-05T09:20:03.000Z</time>
      </trkpt>
      <trkpt lat="44.04847" lon="6.83479">
        <ele>1052</ele>
        <time>2020-06-05T09:20:04.000Z</time>
      </trkpt>
      <trkpt lat="44.04846" lon="6.83479">
        <ele>1052</ele>
        <time>2020-06-05T09:20:05.000Z</time>
      </trkpt>
      <trkpt lat="44.04845" lon="6.83478">
        <ele>1052</ele>
        <time>2020-06-05T09:20:06.000Z</time>
      </trkpt>
      <trkpt lat="44.04844" lon="6.83478">
        <ele>1052</ele>
        <time>2020-06-05T09:20:07.000Z</time>
      </trkpt>
      <trkpt lat="44.04843" lon="6.83477">
        <ele>1052</ele>
        <time>2020-06-05T09:20:08.000Z</time>
      </trkpt>
      <trkpt lat="44.04842" lon="6.83477">
        <ele>1052</ele>
        <time>2020-06-05T09:20:09.000Z</time>
      </trkpt>
      <trkpt lat="44.04841" lon="6.83476">
        <ele>1052</ele>
        <time>2020-06-05T09:20:10.000Z</time>
      </trkpt>
      <trkpt lat="44.04841" lon="6.83476">
        <ele>1052</ele>
        <time>2020-06-05T09:20:11.000Z</time>
      </trkpt>
      <trkpt lat="44.0484" lon="6.83475">
        <ele>1052</ele>
        <time>2020-06-05T09:20:12.000Z</time>
      </trkpt>
      <trkpt lat="44.04839" lon="6.83474">
        <ele>1051</ele>
        <time>2020-06-05T09:20:13.000Z</time>
      </trkpt>
      <trkpt lat="44.04838" lon="6.83472">
        <ele>1051</ele>
        <time>2020-06-05T09:20:14.000Z</time>
      </trkpt>
      <trkpt lat="44.04838" lon="6.8347">
        <ele>1051</ele>
        <time>2020-06-05T09:20:15.000Z</time>
      </trkpt>
      <trkpt lat="44.04837" lon="6.83469">
        <ele>1051</ele>
        <time>2020-06-05T09:20:16.000Z</time>
      </trkpt>
      <trkpt lat="44.04837" lon="6.83467">
        <ele>1051</ele>
        <time>2020-06-05T09:20:17.000Z</time>
      </trkpt>
      <trkpt lat="44.04837" lon="6.83466">
        <ele>1051</ele>
        <time>2020-06-05T09:20:18.000Z</time>
      </trkpt>
      <trkpt lat="44.04837" lon="6.83464">
        <ele>1051</ele>
        <time>2020-06-05T09:20:19.000Z</time>
      </trkpt>
      <trkpt lat="44.04836" lon="6.83463">
        <ele>1051</ele>
        <time>2020-06-05T09:20:20.000Z</time>
      </trkpt>
      <trkpt lat="44.04835" lon="6.83462">
        <ele>1051</ele>
        <time>2020-06-05T09:20:21.000Z</time>
      </trkpt>
      <trkpt lat="44.04834" lon="6.83461">
        <ele>1051</ele>
        <time>2020-06-05T09:20:22.000Z</time>
      </trkpt>
      <trkpt lat="44.04833" lon="6.8346">
        <ele>1051</ele>
        <time>2020-06-05T09:20:23.000Z</time>
      </trkpt>
      <trkpt lat="44.04832" lon="6.83459">
        <ele>1050</ele>
        <time>2020-06-05T09:20:24.000Z</time>
      </trkpt>
      <trkpt lat="44.04831" lon="6.83458">
        <ele>1050</ele>
        <time>2020-06-05T09:20:25.000Z</time>
      </trkpt>
      <trkpt lat="44.0483" lon="6.83458">
        <ele>1050</ele>
        <time>2020-06-05T09:20:26.000Z</time>
      </trkpt>
      <trkpt lat="44.04829" lon="6.83458">
        <ele>1050</ele>
        <time>2020-06-05T09:20:27.000Z</time>
      </trkpt>
      <trkpt lat="44.04827" lon="6.83457">
        <ele>1050</ele>
        <time>2020-06-05T09:20:28.000Z</time>
      </trkpt>
      <trkpt lat="44.04826" lon="6.83457">
        <ele>1049</ele>
        <time>2020-06-05T09:20:29.000Z</time>
      </trkpt>
      <trkpt lat="44.04826" lon="6.83457">
        <ele>1049</ele>
        <time>2020-06-05T09:20:30.000Z</time>
      </trkpt>
      <trkpt lat="44.04825" lon="6.83457">
        <ele>1049</ele>
        <time>2020-06-05T09:20:31.000Z</time>
      </trkpt>
      <trkpt lat="44.04824" lon="6.83456">
        <ele>1049</ele>
        <time>2020-06-05T09:20:32.000Z</time>
      </trkpt>
      <trkpt lat="44.04823" lon="6.83456">
        <ele>1049</ele>
        <time>2020-06-05T09:20:33.000Z</time>
      </trkpt>
      <trkpt lat="44.04821" lon="6.83456">
        <ele>1049</ele>
        <time>2020-06-05T09:20:34.000Z</time>
      </trkpt>
      <trkpt lat="44.0482" lon="6.83457">
        <ele>1049</ele>
        <time>2020-06-05T09:20:35.000Z</time>
      </trkpt>
      <trkpt lat="44.04819" lon="6.83457">
        <ele>1048</ele>
        <time>2020-06-05T09:20:36.000Z</time>
      </trkpt>
      <trkpt lat="44.04818" lon="6.83457">
        <ele>1048</ele>
        <time>2020-06-05T09:20:37.000Z</time>
      </trkpt>
      <trkpt lat="44.04817" lon="6.83458">
        <ele>1048</ele>
        <time>2020-06-05T09:20:38.000Z</time>
      </trkpt>
      <trkpt lat="44.04816" lon="6.83459">
        <ele>1048</ele>
        <time>2020-06-05T09:20:39.000Z</time>
      </trkpt>
      <trkpt lat="44.04815" lon="6.8346">
        <ele>1048</ele>
        <time>2020-06-05T09:20:40.000Z</time>
      </trkpt>
      <trkpt lat="44.04814" lon="6.83461">
        <ele>1048</ele>
        <time>2020-06-05T09:20:41.000Z</time>
      </trkpt>
      <trkpt lat="44.04812" lon="6.83461">
        <ele>1048</ele>
        <time>2020-06-05T09:20:42.000Z</time>
      </trkpt>
      <trkpt lat="44.04811" lon="6.83462">
        <ele>1047</ele>
        <time>2020-06-05T09:20:43.000Z</time>
      </trkpt>
      <trkpt lat="44.0481" lon="6.83462">
        <ele>1047</ele>
        <time>2020-06-05T09:20:44.000Z</time>
      </trkpt>
      <trkpt lat="44.04808" lon="6.83462">
        <ele>1047</ele>
        <time>2020-06-05T09:20:45.000Z</time>
      </trkpt>
      <trkpt lat="44.04807" lon="6.83462">
        <ele>1047</ele>
        <time>2020-06-05T09:20:46.000Z</time>
      </trkpt>
      <trkpt lat="44.04806" lon="6.83463">
        <ele>1047</ele>
        <time>2020-06-05T09:20:47.000Z</time>
      </trkpt>
      <trkpt lat="44.04805" lon="6.83463">
        <ele>1047</ele>
        <time>2020-06-05T09:20:48.000Z</time>
      </trkpt>
      <trkpt lat="44.04803" lon="6.83463">
        <ele>1047</ele>
        <time>2020-06-05T09:20:49.000Z</time>
      </trkpt>
      <trkpt lat="44.04802" lon="6.83463">
        <ele>1047</ele>
        <time>2020-06-05T09:20:50.000Z</time>
      </trkpt>
      <trkpt lat="44.04801" lon="6.83464">
        <ele>1047</ele>
        <time>2020-06-05T09:20:51.000Z</time>
      </trkpt>
      <trkpt lat="44.04801" lon="6.83464">
        <ele>1047</ele>
        <time>2020-06-05T09:20:52.000Z</time>
      </trkpt>
      <trkpt lat="44.048" lon="6.83464">
        <ele>1047</ele>
        <time>2020-06-05T09:20:53.000Z</time>
      </trkpt>
      <trkpt lat="44.04799" lon="6.83464">
        <ele>1047</ele>
        <time>2020-06-05T09:20:54.000Z</time>
      </trkpt>
      <trkpt lat="44.04798" lon="6.83464">
        <ele>1047</ele>
        <time>2020-06-05T09:20:55.000Z</time>
      </trkpt>
      <trkpt lat="44.04797" lon="6.83464">
        <ele>1047</ele>
        <time>2020-06-05T09:20:56.000Z</time>
      </trkpt>
      <trkpt lat="44.04796" lon="6.83464">
        <ele>1047</ele>
        <time>2020-06-05T09:20:57.000Z</time>
      </trkpt>
      <trkpt lat="44.04796" lon="6.83464">
        <ele>1047</ele>
        <time>2020-06-05T09:20:58.000Z</time>
      </trkpt>
      <trkpt lat="44.04795" lon="6.83464">
        <ele>1047</ele>
        <time>2020-06-05T09:20:59.000Z</time>
      </trkpt>
      <trkpt lat="44.04794" lon="6.83465">
        <ele>1046</ele>
        <time>2020-06-05T09:21:00.000Z</time>
      </trkpt>
      <trkpt lat="44.04794" lon="6.83465">
        <ele>1046</ele>
        <time>2020-06-05T09:21:01.000Z</time>
      </trkpt>
      <trkpt lat="44.04793" lon="6.83466">
        <ele>1046</ele>
        <time>2020-06-05T09:21:02.000Z</time>
      </trkpt>
      <trkpt lat="44.04792" lon="6.83467">
        <ele>1046</ele>
        <time>2020-06-05T09:21:03.000Z</time>
      </trkpt>
      <trkpt lat="44.04791" lon="6.83467">
        <ele>1046</ele>
        <time>2020-06-05T09:21:04.000Z</time>
      </trkpt>
      <trkpt lat="44.0479" lon="6.83467">
        <ele>1046</ele>
        <time>2020-06-05T09:21:05.000Z</time>
      </trkpt>
      <trkpt lat="44.04789" lon="6.83468">
        <ele>1046</ele>
        <time>2020-06-05T09:21:06.000Z</time>
      </trkpt>
      <trkpt lat="44.04788" lon="6.83468">
        <ele>1046</ele>
        <time>2020-06-05T09:21:07.000Z</time>
      </trkpt>
      <trkpt lat="44.04787" lon="6.83468">
        <ele>1046</ele>
        <time>2020-06-05T09:21:08.000Z</time>
      </trkpt>
      <trkpt lat="44.04787" lon="6.83468">
        <ele>1046</ele>
        <time>2020-06-05T09:21:09.000Z</time>
      </trkpt>
      <trkpt lat="44.04785" lon="6.83468">
        <ele>1046</ele>
        <time>2020-06-05T09:21:10.000Z</time>
      </trkpt>
      <trkpt lat="44.04784" lon="6.83468">
        <ele>1046</ele>
        <time>2020-06-05T09:21:11.000Z</time>
      </trkpt>
      <trkpt lat="44.04783" lon="6.83468">
        <ele>1046</ele>
        <time>2020-06-05T09:21:12.000Z</time>
      </trkpt>
      <trkpt lat="44.04782" lon="6.83468">
        <ele>1046</ele>
        <time>2020-06-05T09:21:13.000Z</time>
      </trkpt>
      <trkpt lat="44.04781" lon="6.83468">
        <ele>1045</ele>
        <time>2020-06-05T09:21:14.000Z</time>
      </trkpt>
      <trkpt lat="44.0478" lon="6.83468">
        <ele>1045</ele>
        <time>2020-06-05T09:21:15.000Z</time>
      </trkpt>
      <trkpt lat="44.04779" lon="6.83468">
        <ele>1045</ele>
        <time>2020-06-05T09:21:16.000Z</time>
      </trkpt>
      <trkpt lat="44.04777" lon="6.83468">
        <ele>1045</ele>
        <time>2020-06-05T09:21:17.000Z</time>
      </trkpt>
      <trkpt lat="44.04776" lon="6.83468">
        <ele>1045</ele>
        <time>2020-06-05T09:21:18.000Z</time>
      </trkpt>
      <trkpt lat="44.04775" lon="6.83468">
        <ele>1045</ele>
        <time>2020-06-05T09:21:19.000Z</time>
      </trkpt>
      <trkpt lat="44.04773" lon="6.83468">
        <ele>1044</ele>
        <time>2020-06-05T09:21:20.000Z</time>
      </trkpt>
      <trkpt lat="44.04772" lon="6.83467">
        <ele>1044</ele>
        <time>2020-06-05T09:21:21.000Z</time>
      </trkpt>
      <trkpt lat="44.04771" lon="6.83467">
        <ele>1044</ele>
        <time>2020-06-05T09:21:22.000Z</time>
      </trkpt>
      <trkpt lat="44.04769" lon="6.83467">
        <ele>1044</ele>
        <time>2020-06-05T09:21:23.000Z</time>
      </trkpt>
      <trkpt lat="44.04768" lon="6.83466">
        <ele>1044</ele>
        <time>2020-06-05T09:21:24.000Z</time>
      </trkpt>
      <trkpt lat="44.04767" lon="6.83466">
        <ele>1044</ele>
        <time>2020-06-05T09:21:25.000Z</time>
      </trkpt>
      <trkpt lat="44.04766" lon="6.83465">
        <ele>1044</ele>
        <time>2020-06-05T09:21:26.000Z</time>
      </trkpt>
      <trkpt lat="44.04765" lon="6.83465">
        <ele>1044</ele>
        <time>2020-06-05T09:21:27.000Z</time>
      </trkpt>
      <trkpt lat="44.04764" lon="6.83465">
        <ele>1043</ele>
        <time>2020-06-05T09:21:28.000Z</time>
      </trkpt>
      <trkpt lat="44.04763" lon="6.83464">
        <ele>1043</ele>
        <time>2020-06-05T09:21:29.000Z</time>
      </trkpt>
      <trkpt lat="44.04762" lon="6.83464">
        <ele>1043</ele>
        <time>2020-06-05T09:21:30.000Z</time>
      </trkpt>
      <trkpt lat="44.04761" lon="6.83464">
        <ele>1043</ele>
        <time>2020-06-05T09:21:31.000Z</time>
      </trkpt>
      <trkpt lat="44.0476" lon="6.83464">
        <ele>1043</ele>
        <time>2020-06-05T09:21:32.000Z</time>
      </trkpt>
      <trkpt lat="44.04759" lon="6.83464">
        <ele>1043</ele>
        <time>2020-06-05T09:21:33.000Z</time>
      </trkpt>
      <trkpt lat="44.04758" lon="6.83464">
        <ele>1042</ele>
        <time>2020-06-05T09:21:34.000Z</time>
      </trkpt>
      <trkpt lat="44.04757" lon="6.83464">
        <ele>1042</ele>
        <time>2020-06-05T09:21:35.000Z</time>
      </trkpt>
      <trkpt lat="44.04756" lon="6.83464">
        <ele>1042</ele>
        <time>2020-06-05T09:21:36.000Z</time>
      </trkpt>
      <trkpt lat="44.04754" lon="6.83464">
        <ele>1042</ele>
        <time>2020-06-05T09:21:37.000Z</time>
      </trkpt>
      <trkpt lat="44.04753" lon="6.83463">
        <ele>1042</ele>
        <time>2020-06-05T09:21:38.000Z</time>
      </trkpt>
      <trkpt lat="44.04752" lon="6.83463">
        <ele>1041</ele>
        <time>2020-06-05T09:21:39.000Z</time>
      </trkpt>
      <trkpt lat="44.04751" lon="6.83463">
        <ele>1041</ele>
        <time>2020-06-05T09:21:40.000Z</time>
      </trkpt>
      <trkpt lat="44.0475" lon="6.83463">
        <ele>1041</ele>
        <time>2020-06-05T09:21:41.000Z</time>
      </trkpt>
      <trkpt lat="44.04749" lon="6.83463">
        <ele>1041</ele>
        <time>2020-06-05T09:21:42.000Z</time>
      </trkpt>
      <trkpt lat="44.04748" lon="6.83463">
        <ele>1040</ele>
        <time>2020-06-05T09:21:43.000Z</time>
      </trkpt>
      <trkpt lat="44.04748" lon="6.83463">
        <ele>1040</ele>
        <time>2020-06-05T09:21:44.000Z</time>
      </trkpt>
      <trkpt lat="44.04747" lon="6.83463">
        <ele>1040</ele>
        <time>2020-06-05T09:21:45.000Z</time>
      </trkpt>
      <trkpt lat="44.04745" lon="6.83463">
        <ele>1039</ele>
        <time>2020-06-05T09:21:46.000Z</time>
      </trkpt>
      <trkpt lat="44.04745" lon="6.83463">
        <ele>1039</ele>
        <time>2020-06-05T09:21:47.000Z</time>
      </trkpt>
      <trkpt lat="44.04743" lon="6.83463">
        <ele>1039</ele>
        <time>2020-06-05T09:21:48.000Z</time>
      </trkpt>
      <trkpt lat="44.04742" lon="6.83464">
        <ele>1038</ele>
        <time>2020-06-05T09:21:49.000Z</time>
      </trkpt>
      <trkpt lat="44.04742" lon="6.83464">
        <ele>1038</ele>
        <time>2020-06-05T09:21:50.000Z</time>
      </trkpt>
      <trkpt lat="44.04741" lon="6.83464">
        <ele>1038</ele>
        <time>2020-06-05T09:21:51.000Z</time>
      </trkpt>
      <trkpt lat="44.0474" lon="6.83464">
        <ele>1038</ele>
        <time>2020-06-05T09:21:52.000Z</time>
      </trkpt>
      <trkpt lat="44.04739" lon="6.83464">
        <ele>1037</ele>
        <time>2020-06-05T09:21:53.000Z</time>
      </trkpt>
      <trkpt lat="44.04738" lon="6.83464">
        <ele>1037</ele>
        <time>2020-06-05T09:21:54.000Z</time>
      </trkpt>
      <trkpt lat="44.04737" lon="6.83464">
        <ele>1037</ele>
        <time>2020-06-05T09:21:55.000Z</time>
      </trkpt>
      <trkpt lat="44.04736" lon="6.83463">
        <ele>1037</ele>
        <time>2020-06-05T09:21:56.000Z</time>
      </trkpt>
      <trkpt lat="44.04735" lon="6.83463">
        <ele>1036</ele>
        <time>2020-06-05T09:21:57.000Z</time>
      </trkpt>
      <trkpt lat="44.04734" lon="6.83463">
        <ele>1036</ele>
        <time>2020-06-05T09:21:58.000Z</time>
      </trkpt>
      <trkpt lat="44.04733" lon="6.83463">
        <ele>1036</ele>
        <time>2020-06-05T09:21:59.000Z</time>
      </trkpt>
      <trkpt lat="44.04732" lon="6.83463">
        <ele>1035</ele>
        <time>2020-06-05T09:22:00.000Z</time>
      </trkpt>
      <trkpt lat="44.04731" lon="6.83463">
        <ele>1035</ele>
        <time>2020-06-05T09:22:01.000Z</time>
      </trkpt>
      <trkpt lat="44.0473" lon="6.83463">
        <ele>1035</ele>
        <time>2020-06-05T09:22:02.000Z</time>
      </trkpt>
      <trkpt lat="44.04729" lon="6.83463">
        <ele>1035</ele>
        <time>2020-06-05T09:22:03.000Z</time>
      </trkpt>
      <trkpt lat="44.04728" lon="6.83462">
        <ele>1034</ele>
        <time>2020-06-05T09:22:04.000Z</time>
      </trkpt>
      <trkpt lat="44.04727" lon="6.83462">
        <ele>1034</ele>
        <time>2020-06-05T09:22:05.000Z</time>
      </trkpt>
      <trkpt lat="44.04726" lon="6.83462">
        <ele>1034</ele>
        <time>2020-06-05T09:22:06.000Z</time>
      </trkpt>
      <trkpt lat="44.04725" lon="6.83462">
        <ele>1034</ele>
        <time>2020-06-05T09:22:07.000Z</time>
      </trkpt>
      <trkpt lat="44.04724" lon="6.83461">
        <ele>1034</ele>
        <time>2020-06-05T09:22:08.000Z</time>
      </trkpt>
      <trkpt lat="44.04724" lon="6.83461">
        <ele>1033</ele>
        <time>2020-06-05T09:22:09.000Z</time>
      </trkpt>
      <trkpt lat="44.04723" lon="6.83461">
        <ele>1033</ele>
        <time>2020-06-05T09:22:10.000Z</time>
      </trkpt>
      <trkpt lat="44.04722" lon="6.8346">
        <ele>1033</ele>
        <time>2020-06-05T09:22:11.000Z</time>
      </trkpt>
      <trkpt lat="44.04721" lon="6.8346">
        <ele>1032</ele>
        <time>2020-06-05T09:22:12.000Z</time>
      </trkpt>
      <trkpt lat="44.04721" lon="6.83459">
        <ele>1032</ele>
        <time>2020-06-05T09:22:13.000Z</time>
      </trkpt>
      <trkpt lat="44.0472" lon="6.83459">
        <ele>1032</ele>
        <time>2020-06-05T09:22:14.000Z</time>
      </trkpt>
      <trkpt lat="44.04719" lon="6.83459">
        <ele>1032</ele>
        <time>2020-06-05T09:22:15.000Z</time>
      </trkpt>
      <trkpt lat="44.04718" lon="6.83458">
        <ele>1031</ele>
        <time>2020-06-05T09:22:16.000Z</time>
      </trkpt>
      <trkpt lat="44.04717" lon="6.83458">
        <ele>1031</ele>
        <time>2020-06-05T09:22:17.000Z</time>
      </trkpt>
      <trkpt lat="44.04716" lon="6.83458">
        <ele>1031</ele>
        <time>2020-06-05T09:22:18.000Z</time>
      </trkpt>
      <trkpt lat="44.04715" lon="6.83457">
        <ele>1031</ele>
        <time>2020-06-05T09:22:19.000Z</time>
      </trkpt>
      <trkpt lat="44.04715" lon="6.83457">
        <ele>1031</ele>
        <time>2020-06-05T09:22:20.000Z</time>
      </trkpt>
      <trkpt lat="44.04714" lon="6.83457">
        <ele>1031</ele>
        <time>2020-06-05T09:22:21.000Z</time>
      </trkpt>
      <trkpt lat="44.04713" lon="6.83458">
        <ele>1030</ele>
        <time>2020-06-05T09:22:22.000Z</time>
      </trkpt>
      <trkpt lat="44.04712" lon="6.83458">
        <ele>1030</ele>
        <time>2020-06-05T09:22:23.000Z</time>
      </trkpt>
      <trkpt lat="44.04711" lon="6.83457">
        <ele>1030</ele>
        <time>2020-06-05T09:22:24.000Z</time>
      </trkpt>
      <trkpt lat="44.04711" lon="6.83457">
        <ele>1030</ele>
        <time>2020-06-05T09:22:25.000Z</time>
      </trkpt>
      <trkpt lat="44.04711" lon="6.83457">
        <ele>1030</ele>
        <time>2020-06-05T09:22:26.000Z</time>
      </trkpt>
      <trkpt lat="44.0471" lon="6.83457">
        <ele>1030</ele>
        <time>2020-06-05T09:22:27.000Z</time>
      </trkpt>
      <trkpt lat="44.0471" lon="6.83457">
        <ele>1030</ele>
        <time>2020-06-05T09:22:28.000Z</time>
      </trkpt>
      <trkpt lat="44.0471" lon="6.83457">
        <ele>1030</ele>
        <time>2020-06-05T09:22:29.000Z</time>
      </trkpt>
      <trkpt lat="44.0471" lon="6.83457">
        <ele>1030</ele>
        <time>2020-06-05T09:22:30.000Z</time>
      </trkpt>
      <trkpt lat="44.0471" lon="6.83457">
        <ele>1030</ele>
        <time>2020-06-05T09:22:31.000Z</time>
      </trkpt>
      <trkpt lat="44.0471" lon="6.83457">
        <ele>1029</ele>
        <time>2020-06-05T09:22:32.000Z</time>
      </trkpt>
      <trkpt lat="44.0471" lon="6.83457">
        <ele>1029</ele>
        <time>2020-06-05T09:22:33.000Z</time>
      </trkpt>
      <trkpt lat="44.0471" lon="6.83457">
        <ele>1029</ele>
        <time>2020-06-05T09:22:34.000Z</time>
      </trkpt>
      <trkpt lat="44.0471" lon="6.83457">
        <ele>1029</ele>
        <time>2020-06-05T09:22:35.000Z</time>
      </trkpt>
      <trkpt lat="44.0471" lon="6.83457">
        <ele>1029</ele>
        <time>2020-06-05T09:22:36.000Z</time>
      </trkpt>
      <trkpt lat="44.0471" lon="6.83456">
        <ele>1029</ele>
        <time>2020-06-05T09:22:37.000Z</time>
      </trkpt>
      <trkpt lat="44.0471" lon="6.83455">
        <ele>1029</ele>
        <time>2020-06-05T09:22:38.000Z</time>
      </trkpt>
      <trkpt lat="44.0471" lon="6.83453">
        <ele>1029</ele>
        <time>2020-06-05T09:22:39.000Z</time>
      </trkpt>
      <trkpt lat="44.0471" lon="6.83453">
        <ele>1029</ele>
        <time>2020-06-05T09:22:40.000Z</time>
      </trkpt>
      <trkpt lat="44.0471" lon="6.83452">
        <ele>1028</ele>
        <time>2020-06-05T09:22:41.000Z</time>
      </trkpt>
      <trkpt lat="44.04711" lon="6.83451">
        <ele>1028</ele>
        <time>2020-06-05T09:22:42.000Z</time>
      </trkpt>
      <trkpt lat="44.04712" lon="6.8345">
        <ele>1028</ele>
        <time>2020-06-05T09:22:43.000Z</time>
      </trkpt>
      <trkpt lat="44.04712" lon="6.8345">
        <ele>1028</ele>
        <time>2020-06-05T09:22:44.000Z</time>
      </trkpt>
      <trkpt lat="44.04713" lon="6.83449">
        <ele>1028</ele>
        <time>2020-06-05T09:22:45.000Z</time>
      </trkpt>
      <trkpt lat="44.04713" lon="6.83449">
        <ele>1028</ele>
        <time>2020-06-05T09:22:46.000Z</time>
      </trkpt>
      <trkpt lat="44.04713" lon="6.83448">
        <ele>1027</ele>
        <time>2020-06-05T09:22:47.000Z</time>
      </trkpt>
      <trkpt lat="44.04713" lon="6.83447">
        <ele>1027</ele>
        <time>2020-06-05T09:22:48.000Z</time>
      </trkpt>
      <trkpt lat="44.04714" lon="6.83446">
        <ele>1027</ele>
        <time>2020-06-05T09:22:49.000Z</time>
      </trkpt>
      <trkpt lat="44.04714" lon="6.83445">
        <ele>1027</ele>
        <time>2020-06-05T09:22:50.000Z</time>
      </trkpt>
      <trkpt lat="44.04715" lon="6.83444">
        <ele>1027</ele>
        <time>2020-06-05T09:22:51.000Z</time>
      </trkpt>
      <trkpt lat="44.04715" lon="6.83444">
        <ele>1027</ele>
        <time>2020-06-05T09:22:52.000Z</time>
      </trkpt>
      <trkpt lat="44.04716" lon="6.83443">
        <ele>1027</ele>
        <time>2020-06-05T09:22:53.000Z</time>
      </trkpt>
      <trkpt lat="44.04716" lon="6.83442">
        <ele>1027</ele>
        <time>2020-06-05T09:22:54.000Z</time>
      </trkpt>
      <trkpt lat="44.04717" lon="6.83442">
        <ele>1026</ele>
        <time>2020-06-05T09:22:55.000Z</time>
      </trkpt>
      <trkpt lat="44.04718" lon="6.83441">
        <ele>1026</ele>
        <time>2020-06-05T09:22:56.000Z</time>
      </trkpt>
      <trkpt lat="44.04718" lon="6.8344">
        <ele>1026</ele>
        <time>2020-06-05T09:22:57.000Z</time>
      </trkpt>
      <trkpt lat="44.04719" lon="6.8344">
        <ele>1026</ele>
        <time>2020-06-05T09:22:58.000Z</time>
      </trkpt>
      <trkpt lat="44.04719" lon="6.83439">
        <ele>1026</ele>
        <time>2020-06-05T09:22:59.000Z</time>
      </trkpt>
      <trkpt lat="44.0472" lon="6.83438">
        <ele>1026</ele>
        <time>2020-06-05T09:23:00.000Z</time>
      </trkpt>
      <trkpt lat="44.04721" lon="6.83438">
        <ele>1025</ele>
        <time>2020-06-05T09:23:01.000Z</time>
      </trkpt>
      <trkpt lat="44.04722" lon="6.83437">
        <ele>1025</ele>
        <time>2020-06-05T09:23:02.000Z</time>
      </trkpt>
      <trkpt lat="44.04723" lon="6.83436">
        <ele>1025</ele>
        <time>2020-06-05T09:23:03.000Z</time>
      </trkpt>
      <trkpt lat="44.04723" lon="6.83435">
        <ele>1025</ele>
        <time>2020-06-05T09:23:04.000Z</time>
      </trkpt>
      <trkpt lat="44.04724" lon="6.83434">
        <ele>1025</ele>
        <time>2020-06-05T09:23:05.000Z</time>
      </trkpt>
      <trkpt lat="44.04725" lon="6.83433">
        <ele>1025</ele>
        <time>2020-06-05T09:23:06.000Z</time>
      </trkpt>
      <trkpt lat="44.04725" lon="6.83432">
        <ele>1024</ele>
        <time>2020-06-05T09:23:07.000Z</time>
      </trkpt>
      <trkpt lat="44.04726" lon="6.83431">
        <ele>1024</ele>
        <time>2020-06-05T09:23:08.000Z</time>
      </trkpt>
      <trkpt lat="44.04727" lon="6.83429">
        <ele>1024</ele>
        <time>2020-06-05T09:23:09.000Z</time>
      </trkpt>
      <trkpt lat="44.04727" lon="6.83428">
        <ele>1024</ele>
        <time>2020-06-05T09:23:10.000Z</time>
      </trkpt>
      <trkpt lat="44.04728" lon="6.83426">
        <ele>1024</ele>
        <time>2020-06-05T09:23:11.000Z</time>
      </trkpt>
      <trkpt lat="44.04729" lon="6.83425">
        <ele>1024</ele>
        <time>2020-06-05T09:23:12.000Z</time>
      </trkpt>
      <trkpt lat="44.0473" lon="6.83424">
        <ele>1023</ele>
        <time>2020-06-05T09:23:13.000Z</time>
      </trkpt>
      <trkpt lat="44.04731" lon="6.83423">
        <ele>1023</ele>
        <time>2020-06-05T09:23:14.000Z</time>
      </trkpt>
      <trkpt lat="44.04732" lon="6.83422">
        <ele>1023</ele>
        <time>2020-06-05T09:23:15.000Z</time>
      </trkpt>
      <trkpt lat="44.04733" lon="6.83422">
        <ele>1023</ele>
        <time>2020-06-05T09:23:16.000Z</time>
      </trkpt>
      <trkpt lat="44.04735" lon="6.83421">
        <ele>1023</ele>
        <time>2020-06-05T09:23:17.000Z</time>
      </trkpt>
      <trkpt lat="44.04736" lon="6.83421">
        <ele>1023</ele>
        <time>2020-06-05T09:23:18.000Z</time>
      </trkpt>
      <trkpt lat="44.04737" lon="6.83421">
        <ele>1023</ele>
        <time>2020-06-05T09:23:19.000Z</time>
      </trkpt>
      <trkpt lat="44.04737" lon="6.83422">
        <ele>1023</ele>
        <time>2020-06-05T09:23:20.000Z</time>
      </trkpt>
      <trkpt lat="44.04738" lon="6.83422">
        <ele>1023</ele>
        <time>2020-06-05T09:23:21.000Z</time>
      </trkpt>
      <trkpt lat="44.04739" lon="6.83423">
        <ele>1022</ele>
        <time>2020-06-05T09:23:22.000Z</time>
      </trkpt>
      <trkpt lat="44.0474" lon="6.83423">
        <ele>1022</ele>
        <time>2020-06-05T09:23:23.000Z</time>
      </trkpt>
      <trkpt lat="44.04741" lon="6.83423">
        <ele>1022</ele>
        <time>2020-06-05T09:23:24.000Z</time>
      </trkpt>
      <trkpt lat="44.04742" lon="6.83422">
        <ele>1022</ele>
        <time>2020-06-05T09:23:25.000Z</time>
      </trkpt>
      <trkpt lat="44.04743" lon="6.83422">
        <ele>1022</ele>
        <time>2020-06-05T09:23:26.000Z</time>
      </trkpt>
      <trkpt lat="44.04743" lon="6.83421">
        <ele>1022</ele>
        <time>2020-06-05T09:23:27.000Z</time>
      </trkpt>
      <trkpt lat="44.04744" lon="6.83421">
        <ele>1021</ele>
        <time>2020-06-05T09:23:28.000Z</time>
      </trkpt>
      <trkpt lat="44.04745" lon="6.83421">
        <ele>1021</ele>
        <time>2020-06-05T09:23:29.000Z</time>
      </trkpt>
      <trkpt lat="44.04746" lon="6.8342">
        <ele>1021</ele>
        <time>2020-06-05T09:23:30.000Z</time>
      </trkpt>
      <trkpt lat="44.04747" lon="6.8342">
        <ele>1021</ele>
        <time>2020-06-05T09:23:31.000Z</time>
      </trkpt>
      <trkpt lat="44.04747" lon="6.83419">
        <ele>1021</ele>
        <time>2020-06-05T09:23:32.000Z</time>
      </trkpt>
      <trkpt lat="44.04748" lon="6.83419">
        <ele>1020</ele>
        <time>2020-06-05T09:23:33.000Z</time>
      </trkpt>
      <trkpt lat="44.04749" lon="6.83418">
        <ele>1020</ele>
        <time>2020-06-05T09:23:34.000Z</time>
      </trkpt>
      <trkpt lat="44.0475" lon="6.83418">
        <ele>1020</ele>
        <time>2020-06-05T09:23:35.000Z</time>
      </trkpt>
      <trkpt lat="44.04751" lon="6.83417">
        <ele>1020</ele>
        <time>2020-06-05T09:23:36.000Z</time>
      </trkpt>
      <trkpt lat="44.04752" lon="6.83417">
        <ele>1020</ele>
        <time>2020-06-05T09:23:37.000Z</time>
      </trkpt>
      <trkpt lat="44.04753" lon="6.83416">
        <ele>1020</ele>
        <time>2020-06-05T09:23:38.000Z</time>
      </trkpt>
      <trkpt lat="44.04754" lon="6.83415">
        <ele>1020</ele>
        <time>2020-06-05T09:23:39.000Z</time>
      </trkpt>
      <trkpt lat="44.04754" lon="6.83415">
        <ele>1020</ele>
        <time>2020-06-05T09:23:40.000Z</time>
      </trkpt>
      <trkpt lat="44.04755" lon="6.83414">
        <ele>1020</ele>
        <time>2020-06-05T09:23:41.000Z</time>
      </trkpt>
      <trkpt lat="44.04756" lon="6.83413">
        <ele>1019</ele>
        <time>2020-06-05T09:23:42.000Z</time>
      </trkpt>
      <trkpt lat="44.04756" lon="6.83412">
        <ele>1019</ele>
        <time>2020-06-05T09:23:43.000Z</time>
      </trkpt>
      <trkpt lat="44.04757" lon="6.83411">
        <ele>1019</ele>
        <time>2020-06-05T09:23:44.000Z</time>
      </trkpt>
      <trkpt lat="44.04758" lon="6.83411">
        <ele>1019</ele>
        <time>2020-06-05T09:23:45.000Z</time>
      </trkpt>
      <trkpt lat="44.04759" lon="6.8341">
        <ele>1019</ele>
        <time>2020-06-05T09:23:46.000Z</time>
      </trkpt>
      <trkpt lat="44.04759" lon="6.83409">
        <ele>1019</ele>
        <time>2020-06-05T09:23:47.000Z</time>
      </trkpt>
      <trkpt lat="44.0476" lon="6.83408">
        <ele>1019</ele>
        <time>2020-06-05T09:23:48.000Z</time>
      </trkpt>
      <trkpt lat="44.04761" lon="6.83408">
        <ele>1019</ele>
        <time>2020-06-05T09:23:49.000Z</time>
      </trkpt>
      <trkpt lat="44.04762" lon="6.83407">
        <ele>1019</ele>
        <time>2020-06-05T09:23:50.000Z</time>
      </trkpt>
      <trkpt lat="44.04763" lon="6.83407">
        <ele>1019</ele>
        <time>2020-06-05T09:23:51.000Z</time>
      </trkpt>
      <trkpt lat="44.04764" lon="6.83406">
        <ele>1019</ele>
        <time>2020-06-05T09:23:52.000Z</time>
      </trkpt>
      <trkpt lat="44.04765" lon="6.83406">
        <ele>1019</ele>
        <time>2020-06-05T09:23:53.000Z</time>
      </trkpt>
      <trkpt lat="44.04766" lon="6.83405">
        <ele>1019</ele>
        <time>2020-06-05T09:23:54.000Z</time>
      </trkpt>
      <trkpt lat="44.04767" lon="6.83405">
        <ele>1018</ele>
        <time>2020-06-05T09:23:55.000Z</time>
      </trkpt>
      <trkpt lat="44.04767" lon="6.83404">
        <ele>1018</ele>
        <time>2020-06-05T09:23:56.000Z</time>
      </trkpt>
      <trkpt lat="44.04768" lon="6.83404">
        <ele>1018</ele>
        <time>2020-06-05T09:23:57.000Z</time>
      </trkpt>
      <trkpt lat="44.04768" lon="6.83403">
        <ele>1018</ele>
        <time>2020-06-05T09:23:58.000Z</time>
      </trkpt>
      <trkpt lat="44.04768" lon="6.83402">
        <ele>1018</ele>
        <time>2020-06-05T09:23:59.000Z</time>
      </trkpt>
      <trkpt lat="44.04768" lon="6.83402">
        <ele>1018</ele>
        <time>2020-06-05T09:24:00.000Z</time>
      </trkpt>
      <trkpt lat="44.04768" lon="6.83401">
        <ele>1018</ele>
        <time>2020-06-05T09:24:01.000Z</time>
      </trkpt>
      <trkpt lat="44.04767" lon="6.834">
        <ele>1018</ele>
        <time>2020-06-05T09:24:02.000Z</time>
      </trkpt>
      <trkpt lat="44.04766" lon="6.834">
        <ele>1018</ele>
        <time>2020-06-05T09:24:03.000Z</time>
      </trkpt>
      <trkpt lat="44.04765" lon="6.83399">
        <ele>1017</ele>
        <time>2020-06-05T09:24:04.000Z</time>
      </trkpt>
      <trkpt lat="44.04764" lon="6.83399">
        <ele>1017</ele>
        <time>2020-06-05T09:24:05.000Z</time>
      </trkpt>
      <trkpt lat="44.04763" lon="6.83398">
        <ele>1017</ele>
        <time>2020-06-05T09:24:06.000Z</time>
      </trkpt>
      <trkpt lat="44.04763" lon="6.83397">
        <ele>1017</ele>
        <time>2020-06-05T09:24:07.000Z</time>
      </trkpt>
      <trkpt lat="44.04762" lon="6.83397">
        <ele>1017</ele>
        <time>2020-06-05T09:24:08.000Z</time>
      </trkpt>
      <trkpt lat="44.04761" lon="6.83396">
        <ele>1017</ele>
        <time>2020-06-05T09:24:09.000Z</time>
      </trkpt>
      <trkpt lat="44.0476" lon="6.83395">
        <ele>1017</ele>
        <time>2020-06-05T09:24:10.000Z</time>
      </trkpt>
      <trkpt lat="44.0476" lon="6.83394">
        <ele>1017</ele>
        <time>2020-06-05T09:24:11.000Z</time>
      </trkpt>
      <trkpt lat="44.04759" lon="6.83393">
        <ele>1017</ele>
        <time>2020-06-05T09:24:12.000Z</time>
      </trkpt>
      <trkpt lat="44.04758" lon="6.83392">
        <ele>1017</ele>
        <time>2020-06-05T09:24:13.000Z</time>
      </trkpt>
      <trkpt lat="44.04757" lon="6.83392">
        <ele>1017</ele>
        <time>2020-06-05T09:24:14.000Z</time>
      </trkpt>
      <trkpt lat="44.04756" lon="6.83391">
        <ele>1017</ele>
        <time>2020-06-05T09:24:15.000Z</time>
      </trkpt>
      <trkpt lat="44.04755" lon="6.8339">
        <ele>1017</ele>
        <time>2020-06-05T09:24:16.000Z</time>
      </trkpt>
      <trkpt lat="44.04754" lon="6.8339">
        <ele>1016</ele>
        <time>2020-06-05T09:24:17.000Z</time>
      </trkpt>
      <trkpt lat="44.04753" lon="6.8339">
        <ele>1016</ele>
        <time>2020-06-05T09:24:18.000Z</time>
      </trkpt>
      <trkpt lat="44.04752" lon="6.83389">
        <ele>1016</ele>
        <time>2020-06-05T09:24:19.000Z</time>
      </trkpt>
      <trkpt lat="44.04751" lon="6.83389">
        <ele>1016</ele>
        <time>2020-06-05T09:24:20.000Z</time>
      </trkpt>
      <trkpt lat="44.04751" lon="6.83388">
        <ele>1015</ele>
        <time>2020-06-05T09:24:21.000Z</time>
      </trkpt>
      <trkpt lat="44.04751" lon="6.83387">
        <ele>1015</ele>
        <time>2020-06-05T09:24:22.000Z</time>
      </trkpt>
      <trkpt lat="44.04752" lon="6.83386">
        <ele>1015</ele>
        <time>2020-06-05T09:24:23.000Z</time>
      </trkpt>
      <trkpt lat="44.04753" lon="6.83386">
        <ele>1015</ele>
        <time>2020-06-05T09:24:24.000Z</time>
      </trkpt>
      <trkpt lat="44.04753" lon="6.83386">
        <ele>1014</ele>
        <time>2020-06-05T09:24:25.000Z</time>
      </trkpt>
      <trkpt lat="44.04754" lon="6.83385">
        <ele>1014</ele>
        <time>2020-06-05T09:24:26.000Z</time>
      </trkpt>
      <trkpt lat="44.04755" lon="6.83385">
        <ele>1014</ele>
        <time>2020-06-05T09:24:27.000Z</time>
      </trkpt>
      <trkpt lat="44.04756" lon="6.83385">
        <ele>1013</ele>
        <time>2020-06-05T09:24:28.000Z</time>
      </trkpt>
      <trkpt lat="44.04757" lon="6.83385">
        <ele>1013</ele>
        <time>2020-06-05T09:24:29.000Z</time>
      </trkpt>
      <trkpt lat="44.04758" lon="6.83384">
        <ele>1013</ele>
        <time>2020-06-05T09:24:30.000Z</time>
      </trkpt>
      <trkpt lat="44.04759" lon="6.83384">
        <ele>1013</ele>
        <time>2020-06-05T09:24:31.000Z</time>
      </trkpt>
      <trkpt lat="44.04759" lon="6.83384">
        <ele>1012</ele>
        <time>2020-06-05T09:24:32.000Z</time>
      </trkpt>
      <trkpt lat="44.04759" lon="6.83384">
        <ele>1012</ele>
        <time>2020-06-05T09:24:33.000Z</time>
      </trkpt>
      <trkpt lat="44.0476" lon="6.83384">
        <ele>1012</ele>
        <time>2020-06-05T09:24:34.000Z</time>
      </trkpt>
      <trkpt lat="44.0476" lon="6.83383">
        <ele>1012</ele>
        <time>2020-06-05T09:24:35.000Z</time>
      </trkpt>
      <trkpt lat="44.04761" lon="6.83383">
        <ele>1012</ele>
        <time>2020-06-05T09:24:36.000Z</time>
      </trkpt>
      <trkpt lat="44.04762" lon="6.83382">
        <ele>1012</ele>
        <time>2020-06-05T09:24:37.000Z</time>
      </trkpt>
      <trkpt lat="44.04763" lon="6.83381">
        <ele>1011</ele>
        <time>2020-06-05T09:24:38.000Z</time>
      </trkpt>
      <trkpt lat="44.04764" lon="6.8338">
        <ele>1011</ele>
        <time>2020-06-05T09:24:39.000Z</time>
      </trkpt>
      <trkpt lat="44.04764" lon="6.8338">
        <ele>1011</ele>
        <time>2020-06-05T09:24:40.000Z</time>
      </trkpt>
      <trkpt lat="44.04765" lon="6.83379">
        <ele>1011</ele>
        <time>2020-06-05T09:24:41.000Z</time>
      </trkpt>
      <trkpt lat="44.04766" lon="6.83378">
        <ele>1011</ele>
        <time>2020-06-05T09:24:42.000Z</time>
      </trkpt>
      <trkpt lat="44.04767" lon="6.83377">
        <ele>1010</ele>
        <time>2020-06-05T09:24:43.000Z</time>
      </trkpt>
      <trkpt lat="44.04768" lon="6.83377">
        <ele>1010</ele>
        <time>2020-06-05T09:24:44.000Z</time>
      </trkpt>
      <trkpt lat="44.04768" lon="6.83376">
        <ele>1010</ele>
        <time>2020-06-05T09:24:45.000Z</time>
      </trkpt>
      <trkpt lat="44.04769" lon="6.83375">
        <ele>1010</ele>
        <time>2020-06-05T09:24:46.000Z</time>
      </trkpt>
      <trkpt lat="44.0477" lon="6.83375">
        <ele>1009</ele>
        <time>2020-06-05T09:24:47.000Z</time>
      </trkpt>
      <trkpt lat="44.04771" lon="6.83374">
        <ele>1009</ele>
        <time>2020-06-05T09:24:48.000Z</time>
      </trkpt>
      <trkpt lat="44.04771" lon="6.83374">
        <ele>1009</ele>
        <time>2020-06-05T09:24:49.000Z</time>
      </trkpt>
      <trkpt lat="44.04772" lon="6.83373">
        <ele>1008</ele>
        <time>2020-06-05T09:24:50.000Z</time>
      </trkpt>
      <trkpt lat="44.04772" lon="6.83372">
        <ele>1008</ele>
        <time>2020-06-05T09:24:51.000Z</time>
      </trkpt>
      <trkpt lat="44.04773" lon="6.83372">
        <ele>1008</ele>
        <time>2020-06-05T09:24:52.000Z</time>
      </trkpt>
      <trkpt lat="44.04774" lon="6.83371">
        <ele>1007</ele>
        <time>2020-06-05T09:24:53.000Z</time>
      </trkpt>
      <trkpt lat="44.04774" lon="6.8337">
        <ele>1007</ele>
        <time>2020-06-05T09:24:54.000Z</time>
      </trkpt>
      <trkpt lat="44.04775" lon="6.8337">
        <ele>1007</ele>
        <time>2020-06-05T09:24:55.000Z</time>
      </trkpt>
      <trkpt lat="44.04775" lon="6.83369">
        <ele>1007</ele>
        <time>2020-06-05T09:24:56.000Z</time>
      </trkpt>
      <trkpt lat="44.04776" lon="6.83369">
        <ele>1007</ele>
        <time>2020-06-05T09:24:57.000Z</time>
      </trkpt>
      <trkpt lat="44.04777" lon="6.83368">
        <ele>1006</ele>
        <time>2020-06-05T09:24:58.000Z</time>
      </trkpt>
      <trkpt lat="44.04778" lon="6.83368">
        <ele>1006</ele>
        <time>2020-06-05T09:24:59.000Z</time>
      </trkpt>
      <trkpt lat="44.04779" lon="6.83367">
        <ele>1006</ele>
        <time>2020-06-05T09:25:00.000Z</time>
      </trkpt>
      <trkpt lat="44.04781" lon="6.83367">
        <ele>1006</ele>
        <time>2020-06-05T09:25:01.000Z</time>
      </trkpt>
      <trkpt lat="44.04782" lon="6.83366">
        <ele>1006</ele>
        <time>2020-06-05T09:25:02.000Z</time>
      </trkpt>
      <trkpt lat="44.04783" lon="6.83366">
        <ele>1006</ele>
        <time>2020-06-05T09:25:03.000Z</time>
      </trkpt>
      <trkpt lat="44.04784" lon="6.83366">
        <ele>1006</ele>
        <time>2020-06-05T09:25:04.000Z</time>
      </trkpt>
      <trkpt lat="44.04785" lon="6.83366">
        <ele>1006</ele>
        <time>2020-06-05T09:25:05.000Z</time>
      </trkpt>
      <trkpt lat="44.04786" lon="6.83365">
        <ele>1005</ele>
        <time>2020-06-05T09:25:06.000Z</time>
      </trkpt>
      <trkpt lat="44.04787" lon="6.83365">
        <ele>1005</ele>
        <time>2020-06-05T09:25:07.000Z</time>
      </trkpt>
      <trkpt lat="44.04788" lon="6.83365">
        <ele>1005</ele>
        <time>2020-06-05T09:25:08.000Z</time>
      </trkpt>
      <trkpt lat="44.04788" lon="6.83364">
        <ele>1005</ele>
        <time>2020-06-05T09:25:09.000Z</time>
      </trkpt>
      <trkpt lat="44.04788" lon="6.83363">
        <ele>1005</ele>
        <time>2020-06-05T09:25:10.000Z</time>
      </trkpt>
      <trkpt lat="44.04788" lon="6.83362">
        <ele>1004</ele>
        <time>2020-06-05T09:25:11.000Z</time>
      </trkpt>
      <trkpt lat="44.04787" lon="6.83361">
        <ele>1004</ele>
        <time>2020-06-05T09:25:12.000Z</time>
      </trkpt>
      <trkpt lat="44.04787" lon="6.83361">
        <ele>1004</ele>
        <time>2020-06-05T09:25:13.000Z</time>
      </trkpt>
      <trkpt lat="44.04786" lon="6.8336">
        <ele>1004</ele>
        <time>2020-06-05T09:25:14.000Z</time>
      </trkpt>
      <trkpt lat="44.04786" lon="6.8336">
        <ele>1004</ele>
        <time>2020-06-05T09:25:15.000Z</time>
      </trkpt>
      <trkpt lat="44.04785" lon="6.8336">
        <ele>1003</ele>
        <time>2020-06-05T09:25:16.000Z</time>
      </trkpt>
      <trkpt lat="44.04785" lon="6.83359">
        <ele>1003</ele>
        <time>2020-06-05T09:25:17.000Z</time>
      </trkpt>
      <trkpt lat="44.04784" lon="6.83358">
        <ele>1003</ele>
        <time>2020-06-05T09:25:18.000Z</time>
      </trkpt>
      <trkpt lat="44.04784" lon="6.83358">
        <ele>1003</ele>
        <time>2020-06-05T09:25:19.000Z</time>
      </trkpt>
      <trkpt lat="44.04783" lon="6.83357">
        <ele>1002</ele>
        <time>2020-06-05T09:25:20.000Z</time>
      </trkpt>
      <trkpt lat="44.04782" lon="6.83357">
        <ele>1002</ele>
        <time>2020-06-05T09:25:21.000Z</time>
      </trkpt>
      <trkpt lat="44.04781" lon="6.83357">
        <ele>1002</ele>
        <time>2020-06-05T09:25:22.000Z</time>
      </trkpt>
      <trkpt lat="44.04781" lon="6.83357">
        <ele>1002</ele>
        <time>2020-06-05T09:25:23.000Z</time>
      </trkpt>
      <trkpt lat="44.0478" lon="6.83356">
        <ele>1002</ele>
        <time>2020-06-05T09:25:24.000Z</time>
      </trkpt>
      <trkpt lat="44.04779" lon="6.83356">
        <ele>1002</ele>
        <time>2020-06-05T09:25:25.000Z</time>
      </trkpt>
      <trkpt lat="44.04778" lon="6.83356">
        <ele>1001</ele>
        <time>2020-06-05T09:25:26.000Z</time>
      </trkpt>
      <trkpt lat="44.04777" lon="6.83356">
        <ele>1001</ele>
        <time>2020-06-05T09:25:27.000Z</time>
      </trkpt>
      <trkpt lat="44.04776" lon="6.83355">
        <ele>1001</ele>
        <time>2020-06-05T09:25:28.000Z</time>
      </trkpt>
      <trkpt lat="44.04776" lon="6.83355">
        <ele>1001</ele>
        <time>2020-06-05T09:25:29.000Z</time>
      </trkpt>
      <trkpt lat="44.04775" lon="6.83354">
        <ele>1001</ele>
        <time>2020-06-05T09:25:30.000Z</time>
      </trkpt>
      <trkpt lat="44.04774" lon="6.83354">
        <ele>1001</ele>
        <time>2020-06-05T09:25:31.000Z</time>
      </trkpt>
      <trkpt lat="44.04773" lon="6.83353">
        <ele>1001</ele>
        <time>2020-06-05T09:25:32.000Z</time>
      </trkpt>
      <trkpt lat="44.04772" lon="6.83353">
        <ele>1001</ele>
        <time>2020-06-05T09:25:33.000Z</time>
      </trkpt>
      <trkpt lat="44.04771" lon="6.83353">
        <ele>1000</ele>
        <time>2020-06-05T09:25:34.000Z</time>
      </trkpt>
      <trkpt lat="44.0477" lon="6.83353">
        <ele>1000</ele>
        <time>2020-06-05T09:25:35.000Z</time>
      </trkpt>
      <trkpt lat="44.04769" lon="6.83353">
        <ele>1000</ele>
        <time>2020-06-05T09:25:36.000Z</time>
      </trkpt>
      <trkpt lat="44.04768" lon="6.83353">
        <ele>1000</ele>
        <time>2020-06-05T09:25:37.000Z</time>
      </trkpt>
      <trkpt lat="44.04767" lon="6.83353">
        <ele>1000</ele>
        <time>2020-06-05T09:25:38.000Z</time>
      </trkpt>
      <trkpt lat="44.04766" lon="6.83353">
        <ele>1000</ele>
        <time>2020-06-05T09:25:39.000Z</time>
      </trkpt>
      <trkpt lat="44.04765" lon="6.83353">
        <ele>999</ele>
        <time>2020-06-05T09:25:40.000Z</time>
      </trkpt>
      <trkpt lat="44.04764" lon="6.83353">
        <ele>999</ele>
        <time>2020-06-05T09:25:41.000Z</time>
      </trkpt>
      <trkpt lat="44.04763" lon="6.83352">
        <ele>999</ele>
        <time>2020-06-05T09:25:42.000Z</time>
      </trkpt>
      <trkpt lat="44.04762" lon="6.83352">
        <ele>999</ele>
        <time>2020-06-05T09:25:43.000Z</time>
      </trkpt>
      <trkpt lat="44.04761" lon="6.83351">
        <ele>999</ele>
        <time>2020-06-05T09:25:44.000Z</time>
      </trkpt>
      <trkpt lat="44.0476" lon="6.8335">
        <ele>999</ele>
        <time>2020-06-05T09:25:45.000Z</time>
      </trkpt>
      <trkpt lat="44.0476" lon="6.8335">
        <ele>998</ele>
        <time>2020-06-05T09:25:46.000Z</time>
      </trkpt>
      <trkpt lat="44.04759" lon="6.83349">
        <ele>998</ele>
        <time>2020-06-05T09:25:47.000Z</time>
      </trkpt>
      <trkpt lat="44.04758" lon="6.83348">
        <ele>998</ele>
        <time>2020-06-05T09:25:48.000Z</time>
      </trkpt>
      <trkpt lat="44.04758" lon="6.83347">
        <ele>998</ele>
        <time>2020-06-05T09:25:49.000Z</time>
      </trkpt>
      <trkpt lat="44.04758" lon="6.83346">
        <ele>998</ele>
        <time>2020-06-05T09:25:50.000Z</time>
      </trkpt>
      <trkpt lat="44.04759" lon="6.83345">
        <ele>997</ele>
        <time>2020-06-05T09:25:51.000Z</time>
      </trkpt>
      <trkpt lat="44.04759" lon="6.83345">
        <ele>997</ele>
        <time>2020-06-05T09:25:52.000Z</time>
      </trkpt>
      <trkpt lat="44.0476" lon="6.83344">
        <ele>997</ele>
        <time>2020-06-05T09:25:53.000Z</time>
      </trkpt>
      <trkpt lat="44.04761" lon="6.83343">
        <ele>997</ele>
        <time>2020-06-05T09:25:54.000Z</time>
      </trkpt>
      <trkpt lat="44.04762" lon="6.83343">
        <ele>996</ele>
        <time>2020-06-05T09:25:55.000Z</time>
      </trkpt>
      <trkpt lat="44.04763" lon="6.83342">
        <ele>996</ele>
        <time>2020-06-05T09:25:56.000Z</time>
      </trkpt>
      <trkpt lat="44.04763" lon="6.83341">
        <ele>996</ele>
        <time>2020-06-05T09:25:57.000Z</time>
      </trkpt>
      <trkpt lat="44.04764" lon="6.83339">
        <ele>996</ele>
        <time>2020-06-05T09:25:58.000Z</time>
      </trkpt>
      <trkpt lat="44.04765" lon="6.83338">
        <ele>995</ele>
        <time>2020-06-05T09:25:59.000Z</time>
      </trkpt>
      <trkpt lat="44.04765" lon="6.83338">
        <ele>995</ele>
        <time>2020-06-05T09:26:00.000Z</time>
      </trkpt>
      <trkpt lat="44.04766" lon="6.83337">
        <ele>995</ele>
        <time>2020-06-05T09:26:01.000Z</time>
      </trkpt>
      <trkpt lat="44.04767" lon="6.83335">
        <ele>995</ele>
        <time>2020-06-05T09:26:02.000Z</time>
      </trkpt>
      <trkpt lat="44.04768" lon="6.83334">
        <ele>994</ele>
        <time>2020-06-05T09:26:03.000Z</time>
      </trkpt>
      <trkpt lat="44.04769" lon="6.83333">
        <ele>994</ele>
        <time>2020-06-05T09:26:04.000Z</time>
      </trkpt>
      <trkpt lat="44.0477" lon="6.83333">
        <ele>994</ele>
        <time>2020-06-05T09:26:05.000Z</time>
      </trkpt>
      <trkpt lat="44.0477" lon="6.83333">
        <ele>994</ele>
        <time>2020-06-05T09:26:06.000Z</time>
      </trkpt>
      <trkpt lat="44.04771" lon="6.83333">
        <ele>994</ele>
        <time>2020-06-05T09:26:07.000Z</time>
      </trkpt>
      <trkpt lat="44.04772" lon="6.83332">
        <ele>993</ele>
        <time>2020-06-05T09:26:08.000Z</time>
      </trkpt>
      <trkpt lat="44.04773" lon="6.83332">
        <ele>993</ele>
        <time>2020-06-05T09:26:09.000Z</time>
      </trkpt>
      <trkpt lat="44.04775" lon="6.83332">
        <ele>993</ele>
        <time>2020-06-05T09:26:10.000Z</time>
      </trkpt>
      <trkpt lat="44.04776" lon="6.83331">
        <ele>993</ele>
        <time>2020-06-05T09:26:11.000Z</time>
      </trkpt>
      <trkpt lat="44.04777" lon="6.83331">
        <ele>992</ele>
        <time>2020-06-05T09:26:12.000Z</time>
      </trkpt>
      <trkpt lat="44.04779" lon="6.83331">
        <ele>992</ele>
        <time>2020-06-05T09:26:13.000Z</time>
      </trkpt>
      <trkpt lat="44.0478" lon="6.83331">
        <ele>992</ele>
        <time>2020-06-05T09:26:14.000Z</time>
      </trkpt>
      <trkpt lat="44.04781" lon="6.8333">
        <ele>992</ele>
        <time>2020-06-05T09:26:15.000Z</time>
      </trkpt>
      <trkpt lat="44.04782" lon="6.8333">
        <ele>992</ele>
        <time>2020-06-05T09:26:16.000Z</time>
      </trkpt>
      <trkpt lat="44.04783" lon="6.8333">
        <ele>992</ele>
        <time>2020-06-05T09:26:17.000Z</time>
      </trkpt>
      <trkpt lat="44.04784" lon="6.83329">
        <ele>992</ele>
        <time>2020-06-05T09:26:18.000Z</time>
      </trkpt>
      <trkpt lat="44.04785" lon="6.83329">
        <ele>991</ele>
        <time>2020-06-05T09:26:19.000Z</time>
      </trkpt>
      <trkpt lat="44.04786" lon="6.83329">
        <ele>991</ele>
        <time>2020-06-05T09:26:20.000Z</time>
      </trkpt>
      <trkpt lat="44.04787" lon="6.83328">
        <ele>991</ele>
        <time>2020-06-05T09:26:21.000Z</time>
      </trkpt>
      <trkpt lat="44.04788" lon="6.83328">
        <ele>991</ele>
        <time>2020-06-05T09:26:22.000Z</time>
      </trkpt>
      <trkpt lat="44.04789" lon="6.83328">
        <ele>991</ele>
        <time>2020-06-05T09:26:23.000Z</time>
      </trkpt>
      <trkpt lat="44.0479" lon="6.83328">
        <ele>991</ele>
        <time>2020-06-05T09:26:24.000Z</time>
      </trkpt>
      <trkpt lat="44.0479" lon="6.83327">
        <ele>991</ele>
        <time>2020-06-05T09:26:25.000Z</time>
      </trkpt>
      <trkpt lat="44.04791" lon="6.83327">
        <ele>991</ele>
        <time>2020-06-05T09:26:26.000Z</time>
      </trkpt>
      <trkpt lat="44.04792" lon="6.83326">
        <ele>991</ele>
        <time>2020-06-05T09:26:27.000Z</time>
      </trkpt>
      <trkpt lat="44.04793" lon="6.83325">
        <ele>991</ele>
        <time>2020-06-05T09:26:28.000Z</time>
      </trkpt>
      <trkpt lat="44.04794" lon="6.83324">
        <ele>990</ele>
        <time>2020-06-05T09:26:29.000Z</time>
      </trkpt>
      <trkpt lat="44.04795" lon="6.83324">
        <ele>990</ele>
        <time>2020-06-05T09:26:30.000Z</time>
      </trkpt>
      <trkpt lat="44.04795" lon="6.83323">
        <ele>990</ele>
        <time>2020-06-05T09:26:31.000Z</time>
      </trkpt>
      <trkpt lat="44.04796" lon="6.83322">
        <ele>990</ele>
        <time>2020-06-05T09:26:32.000Z</time>
      </trkpt>
      <trkpt lat="44.04797" lon="6.83322">
        <ele>990</ele>
        <time>2020-06-05T09:26:33.000Z</time>
      </trkpt>
      <trkpt lat="44.04798" lon="6.83321">
        <ele>989</ele>
        <time>2020-06-05T09:26:34.000Z</time>
      </trkpt>
      <trkpt lat="44.04799" lon="6.8332">
        <ele>989</ele>
        <time>2020-06-05T09:26:35.000Z</time>
      </trkpt>
      <trkpt lat="44.048" lon="6.83319">
        <ele>989</ele>
        <time>2020-06-05T09:26:36.000Z</time>
      </trkpt>
      <trkpt lat="44.04801" lon="6.83319">
        <ele>989</ele>
        <time>2020-06-05T09:26:37.000Z</time>
      </trkpt>
      <trkpt lat="44.04802" lon="6.83318">
        <ele>988</ele>
        <time>2020-06-05T09:26:38.000Z</time>
      </trkpt>
      <trkpt lat="44.04803" lon="6.83317">
        <ele>988</ele>
        <time>2020-06-05T09:26:39.000Z</time>
      </trkpt>
      <trkpt lat="44.04804" lon="6.83317">
        <ele>988</ele>
        <time>2020-06-05T09:26:40.000Z</time>
      </trkpt>
      <trkpt lat="44.04805" lon="6.83316">
        <ele>988</ele>
        <time>2020-06-05T09:26:41.000Z</time>
      </trkpt>
      <trkpt lat="44.04806" lon="6.83315">
        <ele>988</ele>
        <time>2020-06-05T09:26:42.000Z</time>
      </trkpt>
      <trkpt lat="44.04807" lon="6.83314">
        <ele>987</ele>
        <time>2020-06-05T09:26:43.000Z</time>
      </trkpt>
      <trkpt lat="44.04808" lon="6.83313">
        <ele>987</ele>
        <time>2020-06-05T09:26:44.000Z</time>
      </trkpt>
      <trkpt lat="44.04808" lon="6.83312">
        <ele>987</ele>
        <time>2020-06-05T09:26:45.000Z</time>
      </trkpt>
      <trkpt lat="44.04809" lon="6.83311">
        <ele>987</ele>
        <time>2020-06-05T09:26:46.000Z</time>
      </trkpt>
      <trkpt lat="44.0481" lon="6.8331">
        <ele>987</ele>
        <time>2020-06-05T09:26:47.000Z</time>
      </trkpt>
      <trkpt lat="44.04811" lon="6.83309">
        <ele>987</ele>
        <time>2020-06-05T09:26:48.000Z</time>
      </trkpt>
      <trkpt lat="44.04811" lon="6.83308">
        <ele>986</ele>
        <time>2020-06-05T09:26:49.000Z</time>
      </trkpt>
      <trkpt lat="44.04812" lon="6.83307">
        <ele>986</ele>
        <time>2020-06-05T09:26:50.000Z</time>
      </trkpt>
      <trkpt lat="44.04812" lon="6.83306">
        <ele>986</ele>
        <time>2020-06-05T09:26:51.000Z</time>
      </trkpt>
      <trkpt lat="44.04812" lon="6.83305">
        <ele>986</ele>
        <time>2020-06-05T09:26:52.000Z</time>
      </trkpt>
      <trkpt lat="44.04812" lon="6.83304">
        <ele>986</ele>
        <time>2020-06-05T09:26:53.000Z</time>
      </trkpt>
      <trkpt lat="44.04811" lon="6.83304">
        <ele>985</ele>
        <time>2020-06-05T09:26:54.000Z</time>
      </trkpt>
      <trkpt lat="44.04811" lon="6.83304">
        <ele>985</ele>
        <time>2020-06-05T09:26:55.000Z</time>
      </trkpt>
      <trkpt lat="44.04811" lon="6.83303">
        <ele>985</ele>
        <time>2020-06-05T09:26:56.000Z</time>
      </trkpt>
      <trkpt lat="44.04811" lon="6.83303">
        <ele>985</ele>
        <time>2020-06-05T09:26:57.000Z</time>
      </trkpt>
      <trkpt lat="44.04811" lon="6.83303">
        <ele>985</ele>
        <time>2020-06-05T09:26:58.000Z</time>
      </trkpt>
      <trkpt lat="44.0481" lon="6.83303">
        <ele>984</ele>
        <time>2020-06-05T09:26:59.000Z</time>
      </trkpt>
      <trkpt lat="44.0481" lon="6.83303">
        <ele>984</ele>
        <time>2020-06-05T09:27:00.000Z</time>
      </trkpt>
      <trkpt lat="44.04809" lon="6.83303">
        <ele>984</ele>
        <time>2020-06-05T09:27:01.000Z</time>
      </trkpt>
      <trkpt lat="44.04808" lon="6.83303">
        <ele>984</ele>
        <time>2020-06-05T09:27:02.000Z</time>
      </trkpt>
      <trkpt lat="44.04808" lon="6.83303">
        <ele>983</ele>
        <time>2020-06-05T09:27:03.000Z</time>
      </trkpt>
      <trkpt lat="44.04807" lon="6.83302">
        <ele>983</ele>
        <time>2020-06-05T09:27:04.000Z</time>
      </trkpt>
      <trkpt lat="44.04806" lon="6.83302">
        <ele>983</ele>
        <time>2020-06-05T09:27:05.000Z</time>
      </trkpt>
      <trkpt lat="44.04805" lon="6.83301">
        <ele>983</ele>
        <time>2020-06-05T09:27:06.000Z</time>
      </trkpt>
      <trkpt lat="44.04805" lon="6.83301">
        <ele>983</ele>
        <time>2020-06-05T09:27:07.000Z</time>
      </trkpt>
      <trkpt lat="44.04804" lon="6.83301">
        <ele>983</ele>
        <time>2020-06-05T09:27:08.000Z</time>
      </trkpt>
      <trkpt lat="44.04803" lon="6.83301">
        <ele>982</ele>
        <time>2020-06-05T09:27:09.000Z</time>
      </trkpt>
      <trkpt lat="44.04802" lon="6.83301">
        <ele>982</ele>
        <time>2020-06-05T09:27:10.000Z</time>
      </trkpt>
      <trkpt lat="44.04801" lon="6.83301">
        <ele>982</ele>
        <time>2020-06-05T09:27:11.000Z</time>
      </trkpt>
      <trkpt lat="44.048" lon="6.833">
        <ele>982</ele>
        <time>2020-06-05T09:27:12.000Z</time>
      </trkpt>
      <trkpt lat="44.04799" lon="6.833">
        <ele>982</ele>
        <time>2020-06-05T09:27:13.000Z</time>
      </trkpt>
      <trkpt lat="44.04798" lon="6.833">
        <ele>982</ele>
        <time>2020-06-05T09:27:14.000Z</time>
      </trkpt>
      <trkpt lat="44.04797" lon="6.833">
        <ele>981</ele>
        <time>2020-06-05T09:27:15.000Z</time>
      </trkpt>
      <trkpt lat="44.04797" lon="6.83299">
        <ele>981</ele>
        <time>2020-06-05T09:27:16.000Z</time>
      </trkpt>
      <trkpt lat="44.04796" lon="6.83299">
        <ele>981</ele>
        <time>2020-06-05T09:27:17.000Z</time>
      </trkpt>
      <trkpt lat="44.04796" lon="6.83298">
        <ele>981</ele>
        <time>2020-06-05T09:27:18.000Z</time>
      </trkpt>
      <trkpt lat="44.04795" lon="6.83298">
        <ele>981</ele>
        <time>2020-06-05T09:27:19.000Z</time>
      </trkpt>
      <trkpt lat="44.04795" lon="6.83298">
        <ele>980</ele>
        <time>2020-06-05T09:27:20.000Z</time>
      </trkpt>
      <trkpt lat="44.04794" lon="6.83298">
        <ele>980</ele>
        <time>2020-06-05T09:27:21.000Z</time>
      </trkpt>
      <trkpt lat="44.04794" lon="6.83297">
        <ele>980</ele>
        <time>2020-06-05T09:27:22.000Z</time>
      </trkpt>
      <trkpt lat="44.04793" lon="6.83297">
        <ele>980</ele>
        <time>2020-06-05T09:27:23.000Z</time>
      </trkpt>
      <trkpt lat="44.04792" lon="6.83297">
        <ele>980</ele>
        <time>2020-06-05T09:27:24.000Z</time>
      </trkpt>
      <trkpt lat="44.04791" lon="6.83297">
        <ele>980</ele>
        <time>2020-06-05T09:27:25.000Z</time>
      </trkpt>
      <trkpt lat="44.0479" lon="6.83297">
        <ele>980</ele>
        <time>2020-06-05T09:27:26.000Z</time>
      </trkpt>
      <trkpt lat="44.04789" lon="6.83297">
        <ele>979</ele>
        <time>2020-06-05T09:27:27.000Z</time>
      </trkpt>
      <trkpt lat="44.04788" lon="6.83296">
        <ele>979</ele>
        <time>2020-06-05T09:27:28.000Z</time>
      </trkpt>
      <trkpt lat="44.04788" lon="6.83296">
        <ele>979</ele>
        <time>2020-06-05T09:27:29.000Z</time>
      </trkpt>
      <trkpt lat="44.04787" lon="6.83295">
        <ele>979</ele>
        <time>2020-06-05T09:27:30.000Z</time>
      </trkpt>
      <trkpt lat="44.04786" lon="6.83295">
        <ele>979</ele>
        <time>2020-06-05T09:27:31.000Z</time>
      </trkpt>
      <trkpt lat="44.04785" lon="6.83295">
        <ele>979</ele>
        <time>2020-06-05T09:27:32.000Z</time>
      </trkpt>
      <trkpt lat="44.04784" lon="6.83295">
        <ele>978</ele>
        <time>2020-06-05T09:27:33.000Z</time>
      </trkpt>
      <trkpt lat="44.04783" lon="6.83295">
        <ele>978</ele>
        <time>2020-06-05T09:27:34.000Z</time>
      </trkpt>
      <trkpt lat="44.04781" lon="6.83294">
        <ele>978</ele>
        <time>2020-06-05T09:27:35.000Z</time>
      </trkpt>
      <trkpt lat="44.04781" lon="6.83294">
        <ele>978</ele>
        <time>2020-06-05T09:27:36.000Z</time>
      </trkpt>
      <trkpt lat="44.04781" lon="6.83293">
        <ele>978</ele>
        <time>2020-06-05T09:27:37.000Z</time>
      </trkpt>
      <trkpt lat="44.04781" lon="6.83292">
        <ele>977</ele>
        <time>2020-06-05T09:27:38.000Z</time>
      </trkpt>
      <trkpt lat="44.04781" lon="6.83291">
        <ele>977</ele>
        <time>2020-06-05T09:27:39.000Z</time>
      </trkpt>
      <trkpt lat="44.04782" lon="6.8329">
        <ele>977</ele>
        <time>2020-06-05T09:27:40.000Z</time>
      </trkpt>
      <trkpt lat="44.04782" lon="6.83289">
        <ele>977</ele>
        <time>2020-06-05T09:27:41.000Z</time>
      </trkpt>
      <trkpt lat="44.04782" lon="6.83288">
        <ele>976</ele>
        <time>2020-06-05T09:27:42.000Z</time>
      </trkpt>
      <trkpt lat="44.04782" lon="6.83288">
        <ele>976</ele>
        <time>2020-06-05T09:27:43.000Z</time>
      </trkpt>
      <trkpt lat="44.04783" lon="6.83287">
        <ele>976</ele>
        <time>2020-06-05T09:27:44.000Z</time>
      </trkpt>
      <trkpt lat="44.04783" lon="6.83286">
        <ele>976</ele>
        <time>2020-06-05T09:27:45.000Z</time>
      </trkpt>
      <trkpt lat="44.04783" lon="6.83285">
        <ele>976</ele>
        <time>2020-06-05T09:27:46.000Z</time>
      </trkpt>
      <trkpt lat="44.04784" lon="6.83284">
        <ele>975</ele>
        <time>2020-06-05T09:27:47.000Z</time>
      </trkpt>
      <trkpt lat="44.04784" lon="6.83283">
        <ele>975</ele>
        <time>2020-06-05T09:27:48.000Z</time>
      </trkpt>
      <trkpt lat="44.04784" lon="6.83281">
        <ele>975</ele>
        <time>2020-06-05T09:27:49.000Z</time>
      </trkpt>
      <trkpt lat="44.04785" lon="6.8328">
        <ele>975</ele>
        <time>2020-06-05T09:27:50.000Z</time>
      </trkpt>
      <trkpt lat="44.04785" lon="6.83279">
        <ele>975</ele>
        <time>2020-06-05T09:27:51.000Z</time>
      </trkpt>
      <trkpt lat="44.04786" lon="6.83277">
        <ele>974</ele>
        <time>2020-06-05T09:27:52.000Z</time>
      </trkpt>
      <trkpt lat="44.04786" lon="6.83276">
        <ele>974</ele>
        <time>2020-06-05T09:27:53.000Z</time>
      </trkpt>
      <trkpt lat="44.04787" lon="6.83274">
        <ele>974</ele>
        <time>2020-06-05T09:27:54.000Z</time>
      </trkpt>
      <trkpt lat="44.04787" lon="6.83273">
        <ele>974</ele>
        <time>2020-06-05T09:27:55.000Z</time>
      </trkpt>
      <trkpt lat="44.04788" lon="6.83272">
        <ele>974</ele>
        <time>2020-06-05T09:27:56.000Z</time>
      </trkpt>
      <trkpt lat="44.04788" lon="6.83271">
        <ele>974</ele>
        <time>2020-06-05T09:27:57.000Z</time>
      </trkpt>
      <trkpt lat="44.04789" lon="6.8327">
        <ele>973</ele>
        <time>2020-06-05T09:27:58.000Z</time>
      </trkpt>
      <trkpt lat="44.0479" lon="6.83269">
        <ele>973</ele>
        <time>2020-06-05T09:27:59.000Z</time>
      </trkpt>
      <trkpt lat="44.04791" lon="6.83268">
        <ele>973</ele>
        <time>2020-06-05T09:28:00.000Z</time>
      </trkpt>
      <trkpt lat="44.04791" lon="6.83267">
        <ele>973</ele>
        <time>2020-06-05T09:28:01.000Z</time>
      </trkpt>
      <trkpt lat="44.04792" lon="6.83266">
        <ele>973</ele>
        <time>2020-06-05T09:28:02.000Z</time>
      </trkpt>
      <trkpt lat="44.04793" lon="6.83264">
        <ele>972</ele>
        <time>2020-06-05T09:28:03.000Z</time>
      </trkpt>
      <trkpt lat="44.04793" lon="6.83263">
        <ele>972</ele>
        <time>2020-06-05T09:28:04.000Z</time>
      </trkpt>
      <trkpt lat="44.04794" lon="6.83261">
        <ele>972</ele>
        <time>2020-06-05T09:28:05.000Z</time>
      </trkpt>
      <trkpt lat="44.04795" lon="6.8326">
        <ele>972</ele>
        <time>2020-06-05T09:28:06.000Z</time>
      </trkpt>
      <trkpt lat="44.04796" lon="6.83259">
        <ele>971</ele>
        <time>2020-06-05T09:28:07.000Z</time>
      </trkpt>
      <trkpt lat="44.04796" lon="6.83257">
        <ele>971</ele>
        <time>2020-06-05T09:28:08.000Z</time>
      </trkpt>
      <trkpt lat="44.04797" lon="6.83256">
        <ele>971</ele>
        <time>2020-06-05T09:28:09.000Z</time>
      </trkpt>
      <trkpt lat="44.04798" lon="6.83256">
        <ele>971</ele>
        <time>2020-06-05T09:28:10.000Z</time>
      </trkpt>
      <trkpt lat="44.04798" lon="6.83256">
        <ele>971</ele>
        <time>2020-06-05T09:28:11.000Z</time>
      </trkpt>
      <trkpt lat="44.04799" lon="6.83255">
        <ele>970</ele>
        <time>2020-06-05T09:28:12.000Z</time>
      </trkpt>
      <trkpt lat="44.048" lon="6.83255">
        <ele>970</ele>
        <time>2020-06-05T09:28:13.000Z</time>
      </trkpt>
      <trkpt lat="44.04801" lon="6.83254">
        <ele>970</ele>
        <time>2020-06-05T09:28:14.000Z</time>
      </trkpt>
      <trkpt lat="44.04802" lon="6.83254">
        <ele>970</ele>
        <time>2020-06-05T09:28:15.000Z</time>
      </trkpt>
      <trkpt lat="44.04802" lon="6.83253">
        <ele>970</ele>
        <time>2020-06-05T09:28:16.000Z</time>
      </trkpt>
      <trkpt lat="44.04803" lon="6.83253">
        <ele>969</ele>
        <time>2020-06-05T09:28:17.000Z</time>
      </trkpt>
      <trkpt lat="44.04804" lon="6.83252">
        <ele>969</ele>
        <time>2020-06-05T09:28:18.000Z</time>
      </trkpt>
      <trkpt lat="44.04804" lon="6.83251">
        <ele>969</ele>
        <time>2020-06-05T09:28:19.000Z</time>
      </trkpt>
      <trkpt lat="44.04805" lon="6.8325">
        <ele>969</ele>
        <time>2020-06-05T09:28:20.000Z</time>
      </trkpt>
      <trkpt lat="44.04806" lon="6.83249">
        <ele>968</ele>
        <time>2020-06-05T09:28:21.000Z</time>
      </trkpt>
      <trkpt lat="44.04807" lon="6.83248">
        <ele>968</ele>
        <time>2020-06-05T09:28:22.000Z</time>
      </trkpt>
      <trkpt lat="44.04808" lon="6.83247">
        <ele>968</ele>
        <time>2020-06-05T09:28:23.000Z</time>
      </trkpt>
      <trkpt lat="44.04809" lon="6.83247">
        <ele>967</ele>
        <time>2020-06-05T09:28:24.000Z</time>
      </trkpt>
      <trkpt lat="44.04809" lon="6.83245">
        <ele>967</ele>
        <time>2020-06-05T09:28:25.000Z</time>
      </trkpt>
      <trkpt lat="44.0481" lon="6.83244">
        <ele>967</ele>
        <time>2020-06-05T09:28:26.000Z</time>
      </trkpt>
      <trkpt lat="44.04811" lon="6.83243">
        <ele>967</ele>
        <time>2020-06-05T09:28:27.000Z</time>
      </trkpt>
      <trkpt lat="44.04811" lon="6.83242">
        <ele>966</ele>
        <time>2020-06-05T09:28:28.000Z</time>
      </trkpt>
      <trkpt lat="44.04812" lon="6.83241">
        <ele>966</ele>
        <time>2020-06-05T09:28:29.000Z</time>
      </trkpt>
      <trkpt lat="44.04812" lon="6.8324">
        <ele>966</ele>
        <time>2020-06-05T09:28:30.000Z</time>
      </trkpt>
      <trkpt lat="44.04812" lon="6.83239">
        <ele>966</ele>
        <time>2020-06-05T09:28:31.000Z</time>
      </trkpt>
      <trkpt lat="44.04812" lon="6.83238">
        <ele>965</ele>
        <time>2020-06-05T09:28:32.000Z</time>
      </trkpt>
      <trkpt lat="44.04812" lon="6.83238">
        <ele>965</ele>
        <time>2020-06-05T09:28:33.000Z</time>
      </trkpt>
      <trkpt lat="44.04811" lon="6.83238">
        <ele>965</ele>
        <time>2020-06-05T09:28:34.000Z</time>
      </trkpt>
      <trkpt lat="44.04811" lon="6.83237">
        <ele>965</ele>
        <time>2020-06-05T09:28:35.000Z</time>
      </trkpt>
      <trkpt lat="44.04811" lon="6.83237">
        <ele>965</ele>
        <time>2020-06-05T09:28:36.000Z</time>
      </trkpt>
      <trkpt lat="44.04811" lon="6.83236">
        <ele>965</ele>
        <time>2020-06-05T09:28:37.000Z</time>
      </trkpt>
      <trkpt lat="44.04811" lon="6.83235">
        <ele>964</ele>
        <time>2020-06-05T09:28:38.000Z</time>
      </trkpt>
      <trkpt lat="44.0481" lon="6.83234">
        <ele>964</ele>
        <time>2020-06-05T09:28:39.000Z</time>
      </trkpt>
      <trkpt lat="44.0481" lon="6.83233">
        <ele>964</ele>
        <time>2020-06-05T09:28:40.000Z</time>
      </trkpt>
      <trkpt lat="44.04809" lon="6.83232">
        <ele>964</ele>
        <time>2020-06-05T09:28:41.000Z</time>
      </trkpt>
      <trkpt lat="44.04809" lon="6.83231">
        <ele>963</ele>
        <time>2020-06-05T09:28:42.000Z</time>
      </trkpt>
      <trkpt lat="44.04809" lon="6.8323">
        <ele>963</ele>
        <time>2020-06-05T09:28:43.000Z</time>
      </trkpt>
      <trkpt lat="44.04808" lon="6.83229">
        <ele>963</ele>
        <time>2020-06-05T09:28:44.000Z</time>
      </trkpt>
      <trkpt lat="44.04808" lon="6.83228">
        <ele>963</ele>
        <time>2020-06-05T09:28:45.000Z</time>
      </trkpt>
      <trkpt lat="44.04808" lon="6.83226">
        <ele>962</ele>
        <time>2020-06-05T09:28:46.000Z</time>
      </trkpt>
      <trkpt lat="44.04808" lon="6.83225">
        <ele>962</ele>
        <time>2020-06-05T09:28:47.000Z</time>
      </trkpt>
      <trkpt lat="44.04808" lon="6.83224">
        <ele>961</ele>
        <time>2020-06-05T09:28:48.000Z</time>
      </trkpt>
      <trkpt lat="44.04808" lon="6.83223">
        <ele>961</ele>
        <time>2020-06-05T09:28:49.000Z</time>
      </trkpt>
      <trkpt lat="44.04809" lon="6.83222">
        <ele>960</ele>
        <time>2020-06-05T09:28:50.000Z</time>
      </trkpt>
      <trkpt lat="44.04809" lon="6.8322">
        <ele>960</ele>
        <time>2020-06-05T09:28:51.000Z</time>
      </trkpt>
      <trkpt lat="44.0481" lon="6.8322">
        <ele>959</ele>
        <time>2020-06-05T09:28:52.000Z</time>
      </trkpt>
      <trkpt lat="44.04809" lon="6.83219">
        <ele>959</ele>
        <time>2020-06-05T09:28:53.000Z</time>
      </trkpt>
      <trkpt lat="44.04809" lon="6.83219">
        <ele>958</ele>
        <time>2020-06-05T09:28:54.000Z</time>
      </trkpt>
      <trkpt lat="44.04808" lon="6.83218">
        <ele>958</ele>
        <time>2020-06-05T09:28:55.000Z</time>
      </trkpt>
      <trkpt lat="44.04808" lon="6.83218">
        <ele>958</ele>
        <time>2020-06-05T09:28:56.000Z</time>
      </trkpt>
      <trkpt lat="44.04807" lon="6.83218">
        <ele>957</ele>
        <time>2020-06-05T09:28:57.000Z</time>
      </trkpt>
      <trkpt lat="44.04806" lon="6.83218">
        <ele>957</ele>
        <time>2020-06-05T09:28:58.000Z</time>
      </trkpt>
      <trkpt lat="44.04806" lon="6.83218">
        <ele>957</ele>
        <time>2020-06-05T09:28:59.000Z</time>
      </trkpt>
      <trkpt lat="44.04806" lon="6.83217">
        <ele>956</ele>
        <time>2020-06-05T09:29:00.000Z</time>
      </trkpt>
      <trkpt lat="44.04805" lon="6.83217">
        <ele>956</ele>
        <time>2020-06-05T09:29:01.000Z</time>
      </trkpt>
      <trkpt lat="44.04805" lon="6.83215">
        <ele>956</ele>
        <time>2020-06-05T09:29:02.000Z</time>
      </trkpt>
      <trkpt lat="44.04804" lon="6.83214">
        <ele>956</ele>
        <time>2020-06-05T09:29:03.000Z</time>
      </trkpt>
      <trkpt lat="44.04804" lon="6.83213">
        <ele>955</ele>
        <time>2020-06-05T09:29:04.000Z</time>
      </trkpt>
      <trkpt lat="44.04803" lon="6.83212">
        <ele>955</ele>
        <time>2020-06-05T09:29:05.000Z</time>
      </trkpt>
      <trkpt lat="44.04802" lon="6.83211">
        <ele>955</ele>
        <time>2020-06-05T09:29:06.000Z</time>
      </trkpt>
      <trkpt lat="44.04801" lon="6.83211">
        <ele>955</ele>
        <time>2020-06-05T09:29:07.000Z</time>
      </trkpt>
      <trkpt lat="44.048" lon="6.83212">
        <ele>955</ele>
        <time>2020-06-05T09:29:08.000Z</time>
      </trkpt>
      <trkpt lat="44.04799" lon="6.83212">
        <ele>955</ele>
        <time>2020-06-05T09:29:09.000Z</time>
      </trkpt>
      <trkpt lat="44.04798" lon="6.83212">
        <ele>954</ele>
        <time>2020-06-05T09:29:10.000Z</time>
      </trkpt>
      <trkpt lat="44.04797" lon="6.8321">
        <ele>954</ele>
        <time>2020-06-05T09:29:11.000Z</time>
      </trkpt>
      <trkpt lat="44.04797" lon="6.83209">
        <ele>954</ele>
        <time>2020-06-05T09:29:12.000Z</time>
      </trkpt>
      <trkpt lat="44.04797" lon="6.83208">
        <ele>954</ele>
        <time>2020-06-05T09:29:13.000Z</time>
      </trkpt>
      <trkpt lat="44.04797" lon="6.83206">
        <ele>953</ele>
        <time>2020-06-05T09:29:14.000Z</time>
      </trkpt>
      <trkpt lat="44.04797" lon="6.83205">
        <ele>953</ele>
        <time>2020-06-05T09:29:15.000Z</time>
      </trkpt>
      <trkpt lat="44.04797" lon="6.83204">
        <ele>953</ele>
        <time>2020-06-05T09:29:16.000Z</time>
      </trkpt>
      <trkpt lat="44.04797" lon="6.83202">
        <ele>953</ele>
        <time>2020-06-05T09:29:17.000Z</time>
      </trkpt>
      <trkpt lat="44.04797" lon="6.83201">
        <ele>952</ele>
        <time>2020-06-05T09:29:18.000Z</time>
      </trkpt>
      <trkpt lat="44.04797" lon="6.832">
        <ele>952</ele>
        <time>2020-06-05T09:29:19.000Z</time>
      </trkpt>
      <trkpt lat="44.04797" lon="6.83198">
        <ele>952</ele>
        <time>2020-06-05T09:29:20.000Z</time>
      </trkpt>
      <trkpt lat="44.04797" lon="6.83197">
        <ele>952</ele>
        <time>2020-06-05T09:29:21.000Z</time>
      </trkpt>
      <trkpt lat="44.04797" lon="6.83196">
        <ele>952</ele>
        <time>2020-06-05T09:29:22.000Z</time>
      </trkpt>
      <trkpt lat="44.04798" lon="6.83195">
        <ele>951</ele>
        <time>2020-06-05T09:29:23.000Z</time>
      </trkpt>
      <trkpt lat="44.04798" lon="6.83194">
        <ele>951</ele>
        <time>2020-06-05T09:29:24.000Z</time>
      </trkpt>
      <trkpt lat="44.04799" lon="6.83193">
        <ele>951</ele>
        <time>2020-06-05T09:29:25.000Z</time>
      </trkpt>
      <trkpt lat="44.04799" lon="6.83192">
        <ele>950</ele>
        <time>2020-06-05T09:29:26.000Z</time>
      </trkpt>
      <trkpt lat="44.04799" lon="6.83191">
        <ele>950</ele>
        <time>2020-06-05T09:29:27.000Z</time>
      </trkpt>
      <trkpt lat="44.048" lon="6.8319">
        <ele>950</ele>
        <time>2020-06-05T09:29:28.000Z</time>
      </trkpt>
      <trkpt lat="44.048" lon="6.83189">
        <ele>950</ele>
        <time>2020-06-05T09:29:29.000Z</time>
      </trkpt>
      <trkpt lat="44.04801" lon="6.83188">
        <ele>950</ele>
        <time>2020-06-05T09:29:30.000Z</time>
      </trkpt>
      <trkpt lat="44.04802" lon="6.83187">
        <ele>949</ele>
        <time>2020-06-05T09:29:31.000Z</time>
      </trkpt>
      <trkpt lat="44.04803" lon="6.83186">
        <ele>949</ele>
        <time>2020-06-05T09:29:32.000Z</time>
      </trkpt>
      <trkpt lat="44.04804" lon="6.83185">
        <ele>949</ele>
        <time>2020-06-05T09:29:33.000Z</time>
      </trkpt>
      <trkpt lat="44.04804" lon="6.83184">
        <ele>949</ele>
        <time>2020-06-05T09:29:34.000Z</time>
      </trkpt>
      <trkpt lat="44.04805" lon="6.83184">
        <ele>949</ele>
        <time>2020-06-05T09:29:35.000Z</time>
      </trkpt>
      <trkpt lat="44.04806" lon="6.83183">
        <ele>948</ele>
        <time>2020-06-05T09:29:36.000Z</time>
      </trkpt>
      <trkpt lat="44.04807" lon="6.83183">
        <ele>948</ele>
        <time>2020-06-05T09:29:37.000Z</time>
      </trkpt>
      <trkpt lat="44.04807" lon="6.83182">
        <ele>948</ele>
        <time>2020-06-05T09:29:38.000Z</time>
      </trkpt>
      <trkpt lat="44.04807" lon="6.83182">
        <ele>948</ele>
        <time>2020-06-05T09:29:39.000Z</time>
      </trkpt>
      <trkpt lat="44.04808" lon="6.83181">
        <ele>948</ele>
        <time>2020-06-05T09:29:40.000Z</time>
      </trkpt>
      <trkpt lat="44.04807" lon="6.8318">
        <ele>948</ele>
        <time>2020-06-05T09:29:41.000Z</time>
      </trkpt>
      <trkpt lat="44.04807" lon="6.83179">
        <ele>947</ele>
        <time>2020-06-05T09:29:42.000Z</time>
      </trkpt>
      <trkpt lat="44.04806" lon="6.83178">
        <ele>947</ele>
        <time>2020-06-05T09:29:43.000Z</time>
      </trkpt>
      <trkpt lat="44.04806" lon="6.83177">
        <ele>947</ele>
        <time>2020-06-05T09:29:44.000Z</time>
      </trkpt>
      <trkpt lat="44.04805" lon="6.83177">
        <ele>947</ele>
        <time>2020-06-05T09:29:45.000Z</time>
      </trkpt>
      <trkpt lat="44.04804" lon="6.83177">
        <ele>947</ele>
        <time>2020-06-05T09:29:46.000Z</time>
      </trkpt>
      <trkpt lat="44.04804" lon="6.83177">
        <ele>947</ele>
        <time>2020-06-05T09:29:47.000Z</time>
      </trkpt>
      <trkpt lat="44.04803" lon="6.83177">
        <ele>947</ele>
        <time>2020-06-05T09:29:48.000Z</time>
      </trkpt>
      <trkpt lat="44.04802" lon="6.83177">
        <ele>946</ele>
        <time>2020-06-05T09:29:49.000Z</time>
      </trkpt>
      <trkpt lat="44.04801" lon="6.83176">
        <ele>946</ele>
        <time>2020-06-05T09:29:50.000Z</time>
      </trkpt>
      <trkpt lat="44.04801" lon="6.83175">
        <ele>946</ele>
        <time>2020-06-05T09:29:51.000Z</time>
      </trkpt>
      <trkpt lat="44.048" lon="6.83174">
        <ele>946</ele>
        <time>2020-06-05T09:29:52.000Z</time>
      </trkpt>
      <trkpt lat="44.048" lon="6.83174">
        <ele>946</ele>
        <time>2020-06-05T09:29:53.000Z</time>
      </trkpt>
      <trkpt lat="44.04799" lon="6.83174">
        <ele>946</ele>
        <time>2020-06-05T09:29:54.000Z</time>
      </trkpt>
      <trkpt lat="44.04798" lon="6.83174">
        <ele>945</ele>
        <time>2020-06-05T09:29:55.000Z</time>
      </trkpt>
      <trkpt lat="44.04797" lon="6.83174">
        <ele>945</ele>
        <time>2020-06-05T09:29:56.000Z</time>
      </trkpt>
      <trkpt lat="44.04797" lon="6.83174">
        <ele>945</ele>
        <time>2020-06-05T09:29:57.000Z</time>
      </trkpt>
      <trkpt lat="44.04797" lon="6.83175">
        <ele>945</ele>
        <time>2020-06-05T09:29:58.000Z</time>
      </trkpt>
      <trkpt lat="44.04796" lon="6.83175">
        <ele>945</ele>
        <time>2020-06-05T09:29:59.000Z</time>
      </trkpt>
      <trkpt lat="44.04796" lon="6.83175">
        <ele>944</ele>
        <time>2020-06-05T09:30:00.000Z</time>
      </trkpt>
      <trkpt lat="44.04795" lon="6.83175">
        <ele>944</ele>
        <time>2020-06-05T09:30:01.000Z</time>
      </trkpt>
      <trkpt lat="44.04794" lon="6.83176">
        <ele>944</ele>
        <time>2020-06-05T09:30:02.000Z</time>
      </trkpt>
      <trkpt lat="44.04793" lon="6.83176">
        <ele>944</ele>
        <time>2020-06-05T09:30:03.000Z</time>
      </trkpt>
      <trkpt lat="44.04792" lon="6.83176">
        <ele>944</ele>
        <time>2020-06-05T09:30:04.000Z</time>
      </trkpt>
      <trkpt lat="44.04791" lon="6.83176">
        <ele>944</ele>
        <time>2020-06-05T09:30:05.000Z</time>
      </trkpt>
      <trkpt lat="44.0479" lon="6.83176">
        <ele>943</ele>
        <time>2020-06-05T09:30:06.000Z</time>
      </trkpt>
      <trkpt lat="44.04789" lon="6.83176">
        <ele>943</ele>
        <time>2020-06-05T09:30:07.000Z</time>
      </trkpt>
      <trkpt lat="44.04788" lon="6.83176">
        <ele>943</ele>
        <time>2020-06-05T09:30:08.000Z</time>
      </trkpt>
      <trkpt lat="44.04787" lon="6.83177">
        <ele>943</ele>
        <time>2020-06-05T09:30:09.000Z</time>
      </trkpt>
      <trkpt lat="44.04786" lon="6.83177">
        <ele>943</ele>
        <time>2020-06-05T09:30:10.000Z</time>
      </trkpt>
      <trkpt lat="44.04785" lon="6.83177">
        <ele>943</ele>
        <time>2020-06-05T09:30:11.000Z</time>
      </trkpt>
      <trkpt lat="44.04785" lon="6.83177">
        <ele>942</ele>
        <time>2020-06-05T09:30:12.000Z</time>
      </trkpt>
      <trkpt lat="44.04784" lon="6.83178">
        <ele>942</ele>
        <time>2020-06-05T09:30:13.000Z</time>
      </trkpt>
      <trkpt lat="44.04783" lon="6.83178">
        <ele>942</ele>
        <time>2020-06-05T09:30:14.000Z</time>
      </trkpt>
      <trkpt lat="44.04782" lon="6.83178">
        <ele>942</ele>
        <time>2020-06-05T09:30:15.000Z</time>
      </trkpt>
      <trkpt lat="44.04781" lon="6.83179">
        <ele>941</ele>
        <time>2020-06-05T09:30:16.000Z</time>
      </trkpt>
      <trkpt lat="44.04781" lon="6.83179">
        <ele>941</ele>
        <time>2020-06-05T09:30:17.000Z</time>
      </trkpt>
      <trkpt lat="44.0478" lon="6.8318">
        <ele>941</ele>
        <time>2020-06-05T09:30:18.000Z</time>
      </trkpt>
      <trkpt lat="44.04779" lon="6.83181">
        <ele>941</ele>
        <time>2020-06-05T09:30:19.000Z</time>
      </trkpt>
      <trkpt lat="44.04779" lon="6.83181">
        <ele>941</ele>
        <time>2020-06-05T09:30:20.000Z</time>
      </trkpt>
      <trkpt lat="44.04778" lon="6.83182">
        <ele>941</ele>
        <time>2020-06-05T09:30:21.000Z</time>
      </trkpt>
      <trkpt lat="44.04777" lon="6.83182">
        <ele>941</ele>
        <time>2020-06-05T09:30:22.000Z</time>
      </trkpt>
      <trkpt lat="44.04777" lon="6.83182">
        <ele>940</ele>
        <time>2020-06-05T09:30:23.000Z</time>
      </trkpt>
      <trkpt lat="44.04776" lon="6.83183">
        <ele>940</ele>
        <time>2020-06-05T09:30:24.000Z</time>
      </trkpt>
      <trkpt lat="44.04775" lon="6.83183">
        <ele>940</ele>
        <time>2020-06-05T09:30:25.000Z</time>
      </trkpt>
      <trkpt lat="44.04774" lon="6.83184">
        <ele>940</ele>
        <time>2020-06-05T09:30:26.000Z</time>
      </trkpt>
      <trkpt lat="44.04773" lon="6.83184">
        <ele>940</ele>
        <time>2020-06-05T09:30:27.000Z</time>
      </trkpt>
      <trkpt lat="44.04772" lon="6.83185">
        <ele>940</ele>
        <time>2020-06-05T09:30:28.000Z</time>
      </trkpt>
      <trkpt lat="44.04771" lon="6.83185">
        <ele>939</ele>
        <time>2020-06-05T09:30:29.000Z</time>
      </trkpt>
      <trkpt lat="44.04771" lon="6.83186">
        <ele>939</ele>
        <time>2020-06-05T09:30:30.000Z</time>
      </trkpt>
      <trkpt lat="44.0477" lon="6.83186">
        <ele>939</ele>
        <time>2020-06-05T09:30:31.000Z</time>
      </trkpt>
      <trkpt lat="44.04769" lon="6.83186">
        <ele>939</ele>
        <time>2020-06-05T09:30:32.000Z</time>
      </trkpt>
      <trkpt lat="44.04768" lon="6.83187">
        <ele>939</ele>
        <time>2020-06-05T09:30:33.000Z</time>
      </trkpt>
      <trkpt lat="44.04767" lon="6.83187">
        <ele>939</ele>
        <time>2020-06-05T09:30:34.000Z</time>
      </trkpt>
      <trkpt lat="44.04766" lon="6.83188">
        <ele>939</ele>
        <time>2020-06-05T09:30:35.000Z</time>
      </trkpt>
      <trkpt lat="44.04765" lon="6.83188">
        <ele>939</ele>
        <time>2020-06-05T09:30:36.000Z</time>
      </trkpt>
      <trkpt lat="44.04764" lon="6.83189">
        <ele>938</ele>
        <time>2020-06-05T09:30:37.000Z</time>
      </trkpt>
      <trkpt lat="44.04764" lon="6.83189">
        <ele>938</ele>
        <time>2020-06-05T09:30:38.000Z</time>
      </trkpt>
      <trkpt lat="44.04763" lon="6.8319">
        <ele>938</ele>
        <time>2020-06-05T09:30:39.000Z</time>
      </trkpt>
      <trkpt lat="44.04762" lon="6.8319">
        <ele>938</ele>
        <time>2020-06-05T09:30:40.000Z</time>
      </trkpt>
      <trkpt lat="44.04761" lon="6.83191">
        <ele>938</ele>
        <time>2020-06-05T09:30:41.000Z</time>
      </trkpt>
      <trkpt lat="44.0476" lon="6.83191">
        <ele>937</ele>
        <time>2020-06-05T09:30:42.000Z</time>
      </trkpt>
      <trkpt lat="44.04759" lon="6.83192">
        <ele>937</ele>
        <time>2020-06-05T09:30:43.000Z</time>
      </trkpt>
      <trkpt lat="44.04758" lon="6.83192">
        <ele>937</ele>
        <time>2020-06-05T09:30:44.000Z</time>
      </trkpt>
      <trkpt lat="44.04757" lon="6.83192">
        <ele>937</ele>
        <time>2020-06-05T09:30:45.000Z</time>
      </trkpt>
      <trkpt lat="44.04757" lon="6.83193">
        <ele>936</ele>
        <time>2020-06-05T09:30:46.000Z</time>
      </trkpt>
      <trkpt lat="44.04756" lon="6.83193">
        <ele>936</ele>
        <time>2020-06-05T09:30:47.000Z</time>
      </trkpt>
      <trkpt lat="44.04755" lon="6.83193">
        <ele>936</ele>
        <time>2020-06-05T09:30:48.000Z</time>
      </trkpt>
      <trkpt lat="44.04754" lon="6.83193">
        <ele>936</ele>
        <time>2020-06-05T09:30:49.000Z</time>
      </trkpt>
      <trkpt lat="44.04754" lon="6.83193">
        <ele>936</ele>
        <time>2020-06-05T09:30:50.000Z</time>
      </trkpt>
      <trkpt lat="44.04753" lon="6.83193">
        <ele>936</ele>
        <time>2020-06-05T09:30:51.000Z</time>
      </trkpt>
      <trkpt lat="44.04752" lon="6.83193">
        <ele>935</ele>
        <time>2020-06-05T09:30:52.000Z</time>
      </trkpt>
      <trkpt lat="44.04751" lon="6.83193">
        <ele>935</ele>
        <time>2020-06-05T09:30:53.000Z</time>
      </trkpt>
      <trkpt lat="44.0475" lon="6.83192">
        <ele>935</ele>
        <time>2020-06-05T09:30:54.000Z</time>
      </trkpt>
      <trkpt lat="44.04749" lon="6.83192">
        <ele>935</ele>
        <time>2020-06-05T09:30:55.000Z</time>
      </trkpt>
      <trkpt lat="44.04748" lon="6.83191">
        <ele>934</ele>
        <time>2020-06-05T09:30:56.000Z</time>
      </trkpt>
      <trkpt lat="44.04748" lon="6.83191">
        <ele>934</ele>
        <time>2020-06-05T09:30:57.000Z</time>
      </trkpt>
      <trkpt lat="44.04747" lon="6.83191">
        <ele>934</ele>
        <time>2020-06-05T09:30:58.000Z</time>
      </trkpt>
      <trkpt lat="44.04746" lon="6.83191">
        <ele>934</ele>
        <time>2020-06-05T09:30:59.000Z</time>
      </trkpt>
      <trkpt lat="44.04745" lon="6.83191">
        <ele>934</ele>
        <time>2020-06-05T09:31:00.000Z</time>
      </trkpt>
      <trkpt lat="44.04744" lon="6.83191">
        <ele>934</ele>
        <time>2020-06-05T09:31:01.000Z</time>
      </trkpt>
      <trkpt lat="44.04743" lon="6.83191">
        <ele>933</ele>
        <time>2020-06-05T09:31:02.000Z</time>
      </trkpt>
      <trkpt lat="44.04742" lon="6.83191">
        <ele>933</ele>
        <time>2020-06-05T09:31:03.000Z</time>
      </trkpt>
      <trkpt lat="44.04741" lon="6.83191">
        <ele>933</ele>
        <time>2020-06-05T09:31:04.000Z</time>
      </trkpt>
      <trkpt lat="44.0474" lon="6.83191">
        <ele>933</ele>
        <time>2020-06-05T09:31:05.000Z</time>
      </trkpt>
      <trkpt lat="44.04739" lon="6.83191">
        <ele>933</ele>
        <time>2020-06-05T09:31:06.000Z</time>
      </trkpt>
      <trkpt lat="44.04738" lon="6.83191">
        <ele>933</ele>
        <time>2020-06-05T09:31:07.000Z</time>
      </trkpt>
      <trkpt lat="44.04737" lon="6.8319">
        <ele>933</ele>
        <time>2020-06-05T09:31:08.000Z</time>
      </trkpt>
      <trkpt lat="44.04735" lon="6.83189">
        <ele>933</ele>
        <time>2020-06-05T09:31:09.000Z</time>
      </trkpt>
      <trkpt lat="44.04734" lon="6.83189">
        <ele>932</ele>
        <time>2020-06-05T09:31:10.000Z</time>
      </trkpt>
      <trkpt lat="44.04733" lon="6.83189">
        <ele>932</ele>
        <time>2020-06-05T09:31:11.000Z</time>
      </trkpt>
      <trkpt lat="44.04732" lon="6.83188">
        <ele>932</ele>
        <time>2020-06-05T09:31:12.000Z</time>
      </trkpt>
      <trkpt lat="44.04731" lon="6.83188">
        <ele>932</ele>
        <time>2020-06-05T09:31:13.000Z</time>
      </trkpt>
      <trkpt lat="44.0473" lon="6.83188">
        <ele>931</ele>
        <time>2020-06-05T09:31:14.000Z</time>
      </trkpt>
      <trkpt lat="44.04729" lon="6.83187">
        <ele>931</ele>
        <time>2020-06-05T09:31:15.000Z</time>
      </trkpt>
      <trkpt lat="44.04728" lon="6.83187">
        <ele>931</ele>
        <time>2020-06-05T09:31:16.000Z</time>
      </trkpt>
      <trkpt lat="44.04727" lon="6.83187">
        <ele>931</ele>
        <time>2020-06-05T09:31:17.000Z</time>
      </trkpt>
      <trkpt lat="44.04725" lon="6.83187">
        <ele>930</ele>
        <time>2020-06-05T09:31:18.000Z</time>
      </trkpt>
      <trkpt lat="44.04724" lon="6.83187">
        <ele>930</ele>
        <time>2020-06-05T09:31:19.000Z</time>
      </trkpt>
      <trkpt lat="44.04723" lon="6.83187">
        <ele>930</ele>
        <time>2020-06-05T09:31:20.000Z</time>
      </trkpt>
      <trkpt lat="44.04722" lon="6.83186">
        <ele>929</ele>
        <time>2020-06-05T09:31:21.000Z</time>
      </trkpt>
      <trkpt lat="44.04721" lon="6.83186">
        <ele>929</ele>
        <time>2020-06-05T09:31:22.000Z</time>
      </trkpt>
      <trkpt lat="44.0472" lon="6.83186">
        <ele>929</ele>
        <time>2020-06-05T09:31:23.000Z</time>
      </trkpt>
      <trkpt lat="44.04719" lon="6.83185">
        <ele>928</ele>
        <time>2020-06-05T09:31:24.000Z</time>
      </trkpt>
      <trkpt lat="44.04718" lon="6.83185">
        <ele>928</ele>
        <time>2020-06-05T09:31:25.000Z</time>
      </trkpt>
      <trkpt lat="44.04717" lon="6.83184">
        <ele>928</ele>
        <time>2020-06-05T09:31:26.000Z</time>
      </trkpt>
      <trkpt lat="44.04716" lon="6.83184">
        <ele>927</ele>
        <time>2020-06-05T09:31:27.000Z</time>
      </trkpt>
      <trkpt lat="44.04715" lon="6.83184">
        <ele>927</ele>
        <time>2020-06-05T09:31:28.000Z</time>
      </trkpt>
      <trkpt lat="44.04714" lon="6.83184">
        <ele>927</ele>
        <time>2020-06-05T09:31:29.000Z</time>
      </trkpt>
      <trkpt lat="44.04713" lon="6.83184">
        <ele>927</ele>
        <time>2020-06-05T09:31:30.000Z</time>
      </trkpt>
      <trkpt lat="44.04712" lon="6.83185">
        <ele>927</ele>
        <time>2020-06-05T09:31:31.000Z</time>
      </trkpt>
      <trkpt lat="44.04711" lon="6.83185">
        <ele>926</ele>
        <time>2020-06-05T09:31:32.000Z</time>
      </trkpt>
      <trkpt lat="44.0471" lon="6.83185">
        <ele>926</ele>
        <time>2020-06-05T09:31:33.000Z</time>
      </trkpt>
      <trkpt lat="44.04708" lon="6.83186">
        <ele>926</ele>
        <time>2020-06-05T09:31:34.000Z</time>
      </trkpt>
      <trkpt lat="44.04707" lon="6.83186">
        <ele>926</ele>
        <time>2020-06-05T09:31:35.000Z</time>
      </trkpt>
      <trkpt lat="44.04706" lon="6.83186">
        <ele>926</ele>
        <time>2020-06-05T09:31:36.000Z</time>
      </trkpt>
      <trkpt lat="44.04706" lon="6.83187">
        <ele>926</ele>
        <time>2020-06-05T09:31:37.000Z</time>
      </trkpt>
      <trkpt lat="44.04705" lon="6.83187">
        <ele>925</ele>
        <time>2020-06-05T09:31:38.000Z</time>
      </trkpt>
      <trkpt lat="44.04704" lon="6.83187">
        <ele>925</ele>
        <time>2020-06-05T09:31:39.000Z</time>
      </trkpt>
      <trkpt lat="44.04703" lon="6.83188">
        <ele>925</ele>
        <time>2020-06-05T09:31:40.000Z</time>
      </trkpt>
      <trkpt lat="44.04702" lon="6.83188">
        <ele>925</ele>
        <time>2020-06-05T09:31:41.000Z</time>
      </trkpt>
      <trkpt lat="44.04701" lon="6.83188">
        <ele>925</ele>
        <time>2020-06-05T09:31:42.000Z</time>
      </trkpt>
      <trkpt lat="44.047" lon="6.83187">
        <ele>925</ele>
        <time>2020-06-05T09:31:43.000Z</time>
      </trkpt>
      <trkpt lat="44.04699" lon="6.83187">
        <ele>925</ele>
        <time>2020-06-05T09:31:44.000Z</time>
      </trkpt>
      <trkpt lat="44.04698" lon="6.83187">
        <ele>924</ele>
        <time>2020-06-05T09:31:45.000Z</time>
      </trkpt>
      <trkpt lat="44.04697" lon="6.83187">
        <ele>924</ele>
        <time>2020-06-05T09:31:46.000Z</time>
      </trkpt>
      <trkpt lat="44.04696" lon="6.83187">
        <ele>924</ele>
        <time>2020-06-05T09:31:47.000Z</time>
      </trkpt>
      <trkpt lat="44.04695" lon="6.83187">
        <ele>924</ele>
        <time>2020-06-05T09:31:48.000Z</time>
      </trkpt>
      <trkpt lat="44.04694" lon="6.83186">
        <ele>924</ele>
        <time>2020-06-05T09:31:49.000Z</time>
      </trkpt>
      <trkpt lat="44.04694" lon="6.83186">
        <ele>924</ele>
        <time>2020-06-05T09:31:50.000Z</time>
      </trkpt>
      <trkpt lat="44.04693" lon="6.83186">
        <ele>924</ele>
        <time>2020-06-05T09:31:51.000Z</time>
      </trkpt>
      <trkpt lat="44.04692" lon="6.83186">
        <ele>923</ele>
        <time>2020-06-05T09:31:52.000Z</time>
      </trkpt>
      <trkpt lat="44.04691" lon="6.83186">
        <ele>923</ele>
        <time>2020-06-05T09:31:53.000Z</time>
      </trkpt>
      <trkpt lat="44.0469" lon="6.83186">
        <ele>923</ele>
        <time>2020-06-05T09:31:54.000Z</time>
      </trkpt>
      <trkpt lat="44.04689" lon="6.83186">
        <ele>923</ele>
        <time>2020-06-05T09:31:55.000Z</time>
      </trkpt>
      <trkpt lat="44.04689" lon="6.83186">
        <ele>923</ele>
        <time>2020-06-05T09:31:56.000Z</time>
      </trkpt>
      <trkpt lat="44.04688" lon="6.83186">
        <ele>923</ele>
        <time>2020-06-05T09:31:57.000Z</time>
      </trkpt>
      <trkpt lat="44.04687" lon="6.83185">
        <ele>923</ele>
        <time>2020-06-05T09:31:58.000Z</time>
      </trkpt>
      <trkpt lat="44.04686" lon="6.83185">
        <ele>923</ele>
        <time>2020-06-05T09:31:59.000Z</time>
      </trkpt>
      <trkpt lat="44.04685" lon="6.83185">
        <ele>923</ele>
        <time>2020-06-05T09:32:00.000Z</time>
      </trkpt>
      <trkpt lat="44.04684" lon="6.83185">
        <ele>923</ele>
        <time>2020-06-05T09:32:01.000Z</time>
      </trkpt>
      <trkpt lat="44.04683" lon="6.83184">
        <ele>922</ele>
        <time>2020-06-05T09:32:02.000Z</time>
      </trkpt>
      <trkpt lat="44.04683" lon="6.83184">
        <ele>922</ele>
        <time>2020-06-05T09:32:03.000Z</time>
      </trkpt>
      <trkpt lat="44.04681" lon="6.83184">
        <ele>922</ele>
        <time>2020-06-05T09:32:04.000Z</time>
      </trkpt>
      <trkpt lat="44.0468" lon="6.83183">
        <ele>922</ele>
        <time>2020-06-05T09:32:05.000Z</time>
      </trkpt>
      <trkpt lat="44.04679" lon="6.83183">
        <ele>922</ele>
        <time>2020-06-05T09:32:06.000Z</time>
      </trkpt>
      <trkpt lat="44.04678" lon="6.83183">
        <ele>922</ele>
        <time>2020-06-05T09:32:07.000Z</time>
      </trkpt>
      <trkpt lat="44.04676" lon="6.83184">
        <ele>922</ele>
        <time>2020-06-05T09:32:08.000Z</time>
      </trkpt>
      <trkpt lat="44.04675" lon="6.83184">
        <ele>922</ele>
        <time>2020-06-05T09:32:09.000Z</time>
      </trkpt>
      <trkpt lat="44.04674" lon="6.83184">
        <ele>922</ele>
        <time>2020-06-05T09:32:10.000Z</time>
      </trkpt>
      <trkpt lat="44.04672" lon="6.83184">
        <ele>922</ele>
        <time>2020-06-05T09:32:11.000Z</time>
      </trkpt>
      <trkpt lat="44.04671" lon="6.83185">
        <ele>922</ele>
        <time>2020-06-05T09:32:12.000Z</time>
      </trkpt>
      <trkpt lat="44.04669" lon="6.83185">
        <ele>922</ele>
        <time>2020-06-05T09:32:13.000Z</time>
      </trkpt>
      <trkpt lat="44.04668" lon="6.83185">
        <ele>922</ele>
        <time>2020-06-05T09:32:14.000Z</time>
      </trkpt>
      <trkpt lat="44.04667" lon="6.83185">
        <ele>922</ele>
        <time>2020-06-05T09:32:15.000Z</time>
      </trkpt>
      <trkpt lat="44.04666" lon="6.83186">
        <ele>921</ele>
        <time>2020-06-05T09:32:16.000Z</time>
      </trkpt>
      <trkpt lat="44.04664" lon="6.83186">
        <ele>921</ele>
        <time>2020-06-05T09:32:17.000Z</time>
      </trkpt>
      <trkpt lat="44.04663" lon="6.83186">
        <ele>921</ele>
        <time>2020-06-05T09:32:18.000Z</time>
      </trkpt>
      <trkpt lat="44.04662" lon="6.83187">
        <ele>921</ele>
        <time>2020-06-05T09:32:19.000Z</time>
      </trkpt>
      <trkpt lat="44.04661" lon="6.83187">
        <ele>921</ele>
        <time>2020-06-05T09:32:20.000Z</time>
      </trkpt>
      <trkpt lat="44.04659" lon="6.83188">
        <ele>921</ele>
        <time>2020-06-05T09:32:21.000Z</time>
      </trkpt>
      <trkpt lat="44.04658" lon="6.83188">
        <ele>921</ele>
        <time>2020-06-05T09:32:22.000Z</time>
      </trkpt>
      <trkpt lat="44.04657" lon="6.83189">
        <ele>921</ele>
        <time>2020-06-05T09:32:23.000Z</time>
      </trkpt>
      <trkpt lat="44.04656" lon="6.83189">
        <ele>921</ele>
        <time>2020-06-05T09:32:24.000Z</time>
      </trkpt>
      <trkpt lat="44.04655" lon="6.83189">
        <ele>921</ele>
        <time>2020-06-05T09:32:25.000Z</time>
      </trkpt>
      <trkpt lat="44.04654" lon="6.8319">
        <ele>920</ele>
        <time>2020-06-05T09:32:26.000Z</time>
      </trkpt>
      <trkpt lat="44.04652" lon="6.8319">
        <ele>920</ele>
        <time>2020-06-05T09:32:27.000Z</time>
      </trkpt>
      <trkpt lat="44.04651" lon="6.83191">
        <ele>920</ele>
        <time>2020-06-05T09:32:28.000Z</time>
      </trkpt>
      <trkpt lat="44.0465" lon="6.83191">
        <ele>920</ele>
        <time>2020-06-05T09:32:29.000Z</time>
      </trkpt>
      <trkpt lat="44.04649" lon="6.83192">
        <ele>920</ele>
        <time>2020-06-05T09:32:30.000Z</time>
      </trkpt>
      <trkpt lat="44.04648" lon="6.83192">
        <ele>920</ele>
        <time>2020-06-05T09:32:31.000Z</time>
      </trkpt>
      <trkpt lat="44.04647" lon="6.83192">
        <ele>919</ele>
        <time>2020-06-05T09:32:32.000Z</time>
      </trkpt>
      <trkpt lat="44.04645" lon="6.83192">
        <ele>919</ele>
        <time>2020-06-05T09:32:33.000Z</time>
      </trkpt>
      <trkpt lat="44.04644" lon="6.83192">
        <ele>919</ele>
        <time>2020-06-05T09:32:34.000Z</time>
      </trkpt>
      <trkpt lat="44.04643" lon="6.83191">
        <ele>919</ele>
        <time>2020-06-05T09:32:35.000Z</time>
      </trkpt>
      <trkpt lat="44.04642" lon="6.83191">
        <ele>919</ele>
        <time>2020-06-05T09:32:36.000Z</time>
      </trkpt>
      <trkpt lat="44.04641" lon="6.83191">
        <ele>919</ele>
        <time>2020-06-05T09:32:37.000Z</time>
      </trkpt>
      <trkpt lat="44.04641" lon="6.83192">
        <ele>919</ele>
        <time>2020-06-05T09:32:38.000Z</time>
      </trkpt>
      <trkpt lat="44.0464" lon="6.83192">
        <ele>918</ele>
        <time>2020-06-05T09:32:39.000Z</time>
      </trkpt>
      <trkpt lat="44.04639" lon="6.83192">
        <ele>918</ele>
        <time>2020-06-05T09:32:40.000Z</time>
      </trkpt>
      <trkpt lat="44.04638" lon="6.83192">
        <ele>918</ele>
        <time>2020-06-05T09:32:41.000Z</time>
      </trkpt>
      <trkpt lat="44.04637" lon="6.83192">
        <ele>918</ele>
        <time>2020-06-05T09:32:42.000Z</time>
      </trkpt>
      <trkpt lat="44.04636" lon="6.83193">
        <ele>918</ele>
        <time>2020-06-05T09:32:43.000Z</time>
      </trkpt>
      <trkpt lat="44.04635" lon="6.83193">
        <ele>918</ele>
        <time>2020-06-05T09:32:44.000Z</time>
      </trkpt>
      <trkpt lat="44.04634" lon="6.83194">
        <ele>918</ele>
        <time>2020-06-05T09:32:45.000Z</time>
      </trkpt>
      <trkpt lat="44.04633" lon="6.83195">
        <ele>918</ele>
        <time>2020-06-05T09:32:46.000Z</time>
      </trkpt>
      <trkpt lat="44.04632" lon="6.83195">
        <ele>917</ele>
        <time>2020-06-05T09:32:47.000Z</time>
      </trkpt>
      <trkpt lat="44.04631" lon="6.83196">
        <ele>917</ele>
        <time>2020-06-05T09:32:48.000Z</time>
      </trkpt>
      <trkpt lat="44.0463" lon="6.83197">
        <ele>917</ele>
        <time>2020-06-05T09:32:49.000Z</time>
      </trkpt>
      <trkpt lat="44.04629" lon="6.83197">
        <ele>917</ele>
        <time>2020-06-05T09:32:50.000Z</time>
      </trkpt>
      <trkpt lat="44.04628" lon="6.83198">
        <ele>917</ele>
        <time>2020-06-05T09:32:51.000Z</time>
      </trkpt>
      <trkpt lat="44.04628" lon="6.83198">
        <ele>917</ele>
        <time>2020-06-05T09:32:52.000Z</time>
      </trkpt>
      <trkpt lat="44.04628" lon="6.83199">
        <ele>916</ele>
        <time>2020-06-05T09:32:53.000Z</time>
      </trkpt>
      <trkpt lat="44.04627" lon="6.832">
        <ele>916</ele>
        <time>2020-06-05T09:32:54.000Z</time>
      </trkpt>
      <trkpt lat="44.04627" lon="6.83201">
        <ele>916</ele>
        <time>2020-06-05T09:32:55.000Z</time>
      </trkpt>
      <trkpt lat="44.04626" lon="6.832">
        <ele>916</ele>
        <time>2020-06-05T09:32:56.000Z</time>
      </trkpt>
      <trkpt lat="44.04625" lon="6.832">
        <ele>916</ele>
        <time>2020-06-05T09:32:57.000Z</time>
      </trkpt>
      <trkpt lat="44.04625" lon="6.83199">
        <ele>916</ele>
        <time>2020-06-05T09:32:58.000Z</time>
      </trkpt>
      <trkpt lat="44.04624" lon="6.83199">
        <ele>916</ele>
        <time>2020-06-05T09:32:59.000Z</time>
      </trkpt>
      <trkpt lat="44.04623" lon="6.83199">
        <ele>916</ele>
        <time>2020-06-05T09:33:00.000Z</time>
      </trkpt>
      <trkpt lat="44.04622" lon="6.83199">
        <ele>916</ele>
        <time>2020-06-05T09:33:01.000Z</time>
      </trkpt>
      <trkpt lat="44.04622" lon="6.832">
        <ele>916</ele>
        <time>2020-06-05T09:33:02.000Z</time>
      </trkpt>
      <trkpt lat="44.04621" lon="6.832">
        <ele>916</ele>
        <time>2020-06-05T09:33:03.000Z</time>
      </trkpt>
      <trkpt lat="44.0462" lon="6.83201">
        <ele>916</ele>
        <time>2020-06-05T09:33:04.000Z</time>
      </trkpt>
      <trkpt lat="44.04619" lon="6.83201">
        <ele>916</ele>
        <time>2020-06-05T09:33:05.000Z</time>
      </trkpt>
      <trkpt lat="44.04618" lon="6.83202">
        <ele>916</ele>
        <time>2020-06-05T09:33:06.000Z</time>
      </trkpt>
      <trkpt lat="44.04617" lon="6.83202">
        <ele>916</ele>
        <time>2020-06-05T09:33:07.000Z</time>
      </trkpt>
      <trkpt lat="44.04616" lon="6.83202">
        <ele>916</ele>
        <time>2020-06-05T09:33:08.000Z</time>
      </trkpt>
      <trkpt lat="44.04615" lon="6.83202">
        <ele>916</ele>
        <time>2020-06-05T09:33:09.000Z</time>
      </trkpt>
      <trkpt lat="44.04614" lon="6.83202">
        <ele>916</ele>
        <time>2020-06-05T09:33:10.000Z</time>
      </trkpt>
      <trkpt lat="44.04613" lon="6.83202">
        <ele>916</ele>
        <time>2020-06-05T09:33:11.000Z</time>
      </trkpt>
      <trkpt lat="44.04613" lon="6.83202">
        <ele>916</ele>
        <time>2020-06-05T09:33:12.000Z</time>
      </trkpt>
      <trkpt lat="44.04612" lon="6.83202">
        <ele>916</ele>
        <time>2020-06-05T09:33:13.000Z</time>
      </trkpt>
      <trkpt lat="44.04611" lon="6.83202">
        <ele>915</ele>
        <time>2020-06-05T09:33:14.000Z</time>
      </trkpt>
      <trkpt lat="44.04611" lon="6.83202">
        <ele>915</ele>
        <time>2020-06-05T09:33:15.000Z</time>
      </trkpt>
      <trkpt lat="44.0461" lon="6.83201">
        <ele>915</ele>
        <time>2020-06-05T09:33:16.000Z</time>
      </trkpt>
      <trkpt lat="44.04609" lon="6.83201">
        <ele>915</ele>
        <time>2020-06-05T09:33:17.000Z</time>
      </trkpt>
      <trkpt lat="44.04608" lon="6.832">
        <ele>915</ele>
        <time>2020-06-05T09:33:18.000Z</time>
      </trkpt>
      <trkpt lat="44.04607" lon="6.83199">
        <ele>915</ele>
        <time>2020-06-05T09:33:19.000Z</time>
      </trkpt>
      <trkpt lat="44.04606" lon="6.83198">
        <ele>915</ele>
        <time>2020-06-05T09:33:20.000Z</time>
      </trkpt>
      <trkpt lat="44.04605" lon="6.83197">
        <ele>915</ele>
        <time>2020-06-05T09:33:21.000Z</time>
      </trkpt>
      <trkpt lat="44.04605" lon="6.83197">
        <ele>915</ele>
        <time>2020-06-05T09:33:22.000Z</time>
      </trkpt>
      <trkpt lat="44.04604" lon="6.83196">
        <ele>915</ele>
        <time>2020-06-05T09:33:23.000Z</time>
      </trkpt>
      <trkpt lat="44.04603" lon="6.83195">
        <ele>914</ele>
        <time>2020-06-05T09:33:24.000Z</time>
      </trkpt>
      <trkpt lat="44.04602" lon="6.83195">
        <ele>914</ele>
        <time>2020-06-05T09:33:25.000Z</time>
      </trkpt>
      <trkpt lat="44.04601" lon="6.83195">
        <ele>914</ele>
        <time>2020-06-05T09:33:26.000Z</time>
      </trkpt>
      <trkpt lat="44.046" lon="6.83195">
        <ele>914</ele>
        <time>2020-06-05T09:33:27.000Z</time>
      </trkpt>
      <trkpt lat="44.04599" lon="6.83195">
        <ele>914</ele>
        <time>2020-06-05T09:33:28.000Z</time>
      </trkpt>
      <trkpt lat="44.04598" lon="6.83194">
        <ele>914</ele>
        <time>2020-06-05T09:33:29.000Z</time>
      </trkpt>
      <trkpt lat="44.04597" lon="6.83194">
        <ele>913</ele>
        <time>2020-06-05T09:33:30.000Z</time>
      </trkpt>
      <trkpt lat="44.04596" lon="6.83193">
        <ele>913</ele>
        <time>2020-06-05T09:33:31.000Z</time>
      </trkpt>
      <trkpt lat="44.04595" lon="6.83193">
        <ele>913</ele>
        <time>2020-06-05T09:33:32.000Z</time>
      </trkpt>
      <trkpt lat="44.04594" lon="6.83192">
        <ele>913</ele>
        <time>2020-06-05T09:33:33.000Z</time>
      </trkpt>
      <trkpt lat="44.04593" lon="6.83191">
        <ele>913</ele>
        <time>2020-06-05T09:33:34.000Z</time>
      </trkpt>
      <trkpt lat="44.04592" lon="6.83191">
        <ele>913</ele>
        <time>2020-06-05T09:33:35.000Z</time>
      </trkpt>
      <trkpt lat="44.04591" lon="6.83191">
        <ele>913</ele>
        <time>2020-06-05T09:33:36.000Z</time>
      </trkpt>
      <trkpt lat="44.0459" lon="6.83191">
        <ele>913</ele>
        <time>2020-06-05T09:33:37.000Z</time>
      </trkpt>
      <trkpt lat="44.04589" lon="6.8319">
        <ele>913</ele>
        <time>2020-06-05T09:33:38.000Z</time>
      </trkpt>
      <trkpt lat="44.04588" lon="6.8319">
        <ele>913</ele>
        <time>2020-06-05T09:33:39.000Z</time>
      </trkpt>
      <trkpt lat="44.04587" lon="6.83189">
        <ele>912</ele>
        <time>2020-06-05T09:33:40.000Z</time>
      </trkpt>
      <trkpt lat="44.04586" lon="6.83189">
        <ele>912</ele>
        <time>2020-06-05T09:33:41.000Z</time>
      </trkpt>
      <trkpt lat="44.04586" lon="6.83189">
        <ele>912</ele>
        <time>2020-06-05T09:33:42.000Z</time>
      </trkpt>
      <trkpt lat="44.04585" lon="6.83188">
        <ele>912</ele>
        <time>2020-06-05T09:33:43.000Z</time>
      </trkpt>
      <trkpt lat="44.04584" lon="6.83188">
        <ele>912</ele>
        <time>2020-06-05T09:33:44.000Z</time>
      </trkpt>
      <trkpt lat="44.04583" lon="6.83187">
        <ele>912</ele>
        <time>2020-06-05T09:33:45.000Z</time>
      </trkpt>
      <trkpt lat="44.04582" lon="6.83187">
        <ele>912</ele>
        <time>2020-06-05T09:33:46.000Z</time>
      </trkpt>
      <trkpt lat="44.04581" lon="6.83186">
        <ele>912</ele>
        <time>2020-06-05T09:33:47.000Z</time>
      </trkpt>
      <trkpt lat="44.0458" lon="6.83185">
        <ele>912</ele>
        <time>2020-06-05T09:33:48.000Z</time>
      </trkpt>
      <trkpt lat="44.04579" lon="6.83184">
        <ele>912</ele>
        <time>2020-06-05T09:33:49.000Z</time>
      </trkpt>
      <trkpt lat="44.04579" lon="6.83183">
        <ele>912</ele>
        <time>2020-06-05T09:33:50.000Z</time>
      </trkpt>
      <trkpt lat="44.04578" lon="6.83182">
        <ele>912</ele>
        <time>2020-06-05T09:33:51.000Z</time>
      </trkpt>
      <trkpt lat="44.04577" lon="6.8318">
        <ele>912</ele>
        <time>2020-06-05T09:33:52.000Z</time>
      </trkpt>
      <trkpt lat="44.04576" lon="6.83179">
        <ele>912</ele>
        <time>2020-06-05T09:33:53.000Z</time>
      </trkpt>
      <trkpt lat="44.04575" lon="6.83178">
        <ele>911</ele>
        <time>2020-06-05T09:33:54.000Z</time>
      </trkpt>
      <trkpt lat="44.04575" lon="6.83177">
        <ele>911</ele>
        <time>2020-06-05T09:33:55.000Z</time>
      </trkpt>
      <trkpt lat="44.04573" lon="6.83176">
        <ele>911</ele>
        <time>2020-06-05T09:33:56.000Z</time>
      </trkpt>
      <trkpt lat="44.04573" lon="6.83175">
        <ele>911</ele>
        <time>2020-06-05T09:33:57.000Z</time>
      </trkpt>
      <trkpt lat="44.04572" lon="6.83174">
        <ele>911</ele>
        <time>2020-06-05T09:33:58.000Z</time>
      </trkpt>
      <trkpt lat="44.04571" lon="6.83174">
        <ele>911</ele>
        <time>2020-06-05T09:33:59.000Z</time>
      </trkpt>
      <trkpt lat="44.0457" lon="6.83173">
        <ele>911</ele>
        <time>2020-06-05T09:34:00.000Z</time>
      </trkpt>
      <trkpt lat="44.04569" lon="6.83172">
        <ele>910</ele>
        <time>2020-06-05T09:34:01.000Z</time>
      </trkpt>
      <trkpt lat="44.04568" lon="6.83172">
        <ele>910</ele>
        <time>2020-06-05T09:34:02.000Z</time>
      </trkpt>
      <trkpt lat="44.04567" lon="6.83171">
        <ele>910</ele>
        <time>2020-06-05T09:34:03.000Z</time>
      </trkpt>
      <trkpt lat="44.04567" lon="6.83171">
        <ele>910</ele>
        <time>2020-06-05T09:34:04.000Z</time>
      </trkpt>
      <trkpt lat="44.04566" lon="6.8317">
        <ele>910</ele>
        <time>2020-06-05T09:34:05.000Z</time>
      </trkpt>
      <trkpt lat="44.04565" lon="6.83169">
        <ele>910</ele>
        <time>2020-06-05T09:34:06.000Z</time>
      </trkpt>
      <trkpt lat="44.04564" lon="6.83169">
        <ele>910</ele>
        <time>2020-06-05T09:34:07.000Z</time>
      </trkpt>
      <trkpt lat="44.04563" lon="6.83168">
        <ele>909</ele>
        <time>2020-06-05T09:34:08.000Z</time>
      </trkpt>
      <trkpt lat="44.04562" lon="6.83167">
        <ele>909</ele>
        <time>2020-06-05T09:34:09.000Z</time>
      </trkpt>
      <trkpt lat="44.04562" lon="6.83167">
        <ele>909</ele>
        <time>2020-06-05T09:34:10.000Z</time>
      </trkpt>
      <trkpt lat="44.04561" lon="6.83166">
        <ele>909</ele>
        <time>2020-06-05T09:34:11.000Z</time>
      </trkpt>
      <trkpt lat="44.0456" lon="6.83165">
        <ele>909</ele>
        <time>2020-06-05T09:34:12.000Z</time>
      </trkpt>
      <trkpt lat="44.04559" lon="6.83164">
        <ele>909</ele>
        <time>2020-06-05T09:34:13.000Z</time>
      </trkpt>
      <trkpt lat="44.04559" lon="6.83163">
        <ele>909</ele>
        <time>2020-06-05T09:34:14.000Z</time>
      </trkpt>
      <trkpt lat="44.04558" lon="6.83162">
        <ele>909</ele>
        <time>2020-06-05T09:34:15.000Z</time>
      </trkpt>
      <trkpt lat="44.04557" lon="6.83161">
        <ele>908</ele>
        <time>2020-06-05T09:34:16.000Z</time>
      </trkpt>
      <trkpt lat="44.04557" lon="6.8316">
        <ele>908</ele>
        <time>2020-06-05T09:34:17.000Z</time>
      </trkpt>
      <trkpt lat="44.04556" lon="6.83159">
        <ele>908</ele>
        <time>2020-06-05T09:34:18.000Z</time>
      </trkpt>
      <trkpt lat="44.04555" lon="6.83158">
        <ele>908</ele>
        <time>2020-06-05T09:34:19.000Z</time>
      </trkpt>
      <trkpt lat="44.04554" lon="6.83158">
        <ele>908</ele>
        <time>2020-06-05T09:34:20.000Z</time>
      </trkpt>
      <trkpt lat="44.04553" lon="6.83157">
        <ele>908</ele>
        <time>2020-06-05T09:34:21.000Z</time>
      </trkpt>
      <trkpt lat="44.04552" lon="6.83156">
        <ele>908</ele>
        <time>2020-06-05T09:34:22.000Z</time>
      </trkpt>
      <trkpt lat="44.04552" lon="6.83155">
        <ele>908</ele>
        <time>2020-06-05T09:34:23.000Z</time>
      </trkpt>
      <trkpt lat="44.04551" lon="6.83154">
        <ele>907</ele>
        <time>2020-06-05T09:34:24.000Z</time>
      </trkpt>
      <trkpt lat="44.0455" lon="6.83153">
        <ele>907</ele>
        <time>2020-06-05T09:34:25.000Z</time>
      </trkpt>
      <trkpt lat="44.04549" lon="6.83152">
        <ele>907</ele>
        <time>2020-06-05T09:34:26.000Z</time>
      </trkpt>
      <trkpt lat="44.04548" lon="6.83152">
        <ele>907</ele>
        <time>2020-06-05T09:34:27.000Z</time>
      </trkpt>
      <trkpt lat="44.04548" lon="6.83151">
        <ele>907</ele>
        <time>2020-06-05T09:34:28.000Z</time>
      </trkpt>
      <trkpt lat="44.04547" lon="6.8315">
        <ele>907</ele>
        <time>2020-06-05T09:34:29.000Z</time>
      </trkpt>
      <trkpt lat="44.04546" lon="6.83149">
        <ele>907</ele>
        <time>2020-06-05T09:34:30.000Z</time>
      </trkpt>
      <trkpt lat="44.04545" lon="6.83148">
        <ele>907</ele>
        <time>2020-06-05T09:34:31.000Z</time>
      </trkpt>
      <trkpt lat="44.04544" lon="6.83147">
        <ele>907</ele>
        <time>2020-06-05T09:34:32.000Z</time>
      </trkpt>
      <trkpt lat="44.04543" lon="6.83147">
        <ele>907</ele>
        <time>2020-06-05T09:34:33.000Z</time>
      </trkpt>
      <trkpt lat="44.04543" lon="6.83146">
        <ele>906</ele>
        <time>2020-06-05T09:34:34.000Z</time>
      </trkpt>
      <trkpt lat="44.04542" lon="6.83146">
        <ele>906</ele>
        <time>2020-06-05T09:34:35.000Z</time>
      </trkpt>
      <trkpt lat="44.04541" lon="6.83145">
        <ele>906</ele>
        <time>2020-06-05T09:34:36.000Z</time>
      </trkpt>
      <trkpt lat="44.0454" lon="6.83144">
        <ele>906</ele>
        <time>2020-06-05T09:34:37.000Z</time>
      </trkpt>
      <trkpt lat="44.04539" lon="6.83144">
        <ele>906</ele>
        <time>2020-06-05T09:34:38.000Z</time>
      </trkpt>
      <trkpt lat="44.04538" lon="6.83143">
        <ele>906</ele>
        <time>2020-06-05T09:34:39.000Z</time>
      </trkpt>
      <trkpt lat="44.04537" lon="6.83143">
        <ele>906</ele>
        <time>2020-06-05T09:34:40.000Z</time>
      </trkpt>
      <trkpt lat="44.04536" lon="6.83142">
        <ele>906</ele>
        <time>2020-06-05T09:34:41.000Z</time>
      </trkpt>
      <trkpt lat="44.04536" lon="6.83142">
        <ele>906</ele>
        <time>2020-06-05T09:34:42.000Z</time>
      </trkpt>
      <trkpt lat="44.04536" lon="6.83142">
        <ele>906</ele>
        <time>2020-06-05T09:34:43.000Z</time>
      </trkpt>
      <trkpt lat="44.04536" lon="6.83142">
        <ele>906</ele>
        <time>2020-06-05T09:34:44.000Z</time>
      </trkpt>
      <trkpt lat="44.04535" lon="6.83142">
        <ele>906</ele>
        <time>2020-06-05T09:34:45.000Z</time>
      </trkpt>
      <trkpt lat="44.04535" lon="6.83142">
        <ele>906</ele>
        <time>2020-06-05T09:34:46.000Z</time>
      </trkpt>
      <trkpt lat="44.04535" lon="6.83142">
        <ele>906</ele>
        <time>2020-06-05T09:34:47.000Z</time>
      </trkpt>
      <trkpt lat="44.04535" lon="6.83142">
        <ele>906</ele>
        <time>2020-06-05T09:34:48.000Z</time>
      </trkpt>
      <trkpt lat="44.04535" lon="6.83142">
        <ele>906</ele>
        <time>2020-06-05T09:34:49.000Z</time>
      </trkpt>
      <trkpt lat="44.04534" lon="6.83142">
        <ele>906</ele>
        <time>2020-06-05T09:34:50.000Z</time>
      </trkpt>
      <trkpt lat="44.04534" lon="6.83142">
        <ele>906</ele>
        <time>2020-06-05T09:34:51.000Z</time>
      </trkpt>
      <trkpt lat="44.04534" lon="6.83142">
        <ele>906</ele>
        <time>2020-06-05T09:34:52.000Z</time>
      </trkpt>
      <trkpt lat="44.04534" lon="6.83142">
        <ele>906</ele>
        <time>2020-06-05T09:34:53.000Z</time>
      </trkpt>
      <trkpt lat="44.04534" lon="6.83142">
        <ele>905</ele>
        <time>2020-06-05T09:34:54.000Z</time>
      </trkpt>
      <trkpt lat="44.04534" lon="6.83142">
        <ele>905</ele>
        <time>2020-06-05T09:34:55.000Z</time>
      </trkpt>
      <trkpt lat="44.04534" lon="6.83142">
        <ele>905</ele>
        <time>2020-06-05T09:34:56.000Z</time>
      </trkpt>
      <trkpt lat="44.04534" lon="6.83142">
        <ele>905</ele>
        <time>2020-06-05T09:34:57.000Z</time>
      </trkpt>
      <trkpt lat="44.04534" lon="6.83142">
        <ele>905</ele>
        <time>2020-06-05T09:34:58.000Z</time>
      </trkpt>
      <trkpt lat="44.04534" lon="6.83142">
        <ele>905</ele>
        <time>2020-06-05T09:34:59.000Z</time>
      </trkpt>
      <trkpt lat="44.04534" lon="6.83142">
        <ele>905</ele>
        <time>2020-06-05T09:35:00.000Z</time>
      </trkpt>
      <trkpt lat="44.04534" lon="6.83142">
        <ele>905</ele>
        <time>2020-06-05T09:35:01.000Z</time>
      </trkpt>
      <trkpt lat="44.04534" lon="6.83142">
        <ele>905</ele>
        <time>2020-06-05T09:35:02.000Z</time>
      </trkpt>
      <trkpt lat="44.04534" lon="6.83141">
        <ele>905</ele>
        <time>2020-06-05T09:35:03.000Z</time>
      </trkpt>
      <trkpt lat="44.04534" lon="6.83141">
        <ele>905</ele>
        <time>2020-06-05T09:35:04.000Z</time>
      </trkpt>
      <trkpt lat="44.04534" lon="6.83141">
        <ele>905</ele>
        <time>2020-06-05T09:35:05.000Z</time>
      </trkpt>
      <trkpt lat="44.04534" lon="6.83141">
        <ele>905</ele>
        <time>2020-06-05T09:35:06.000Z</time>
      </trkpt>
      <trkpt lat="44.04534" lon="6.83141">
        <ele>905</ele>
        <time>2020-06-05T09:35:07.000Z</time>
      </trkpt>
      <trkpt lat="44.04534" lon="6.83141">
        <ele>905</ele>
        <time>2020-06-05T09:35:08.000Z</time>
      </trkpt>
      <trkpt lat="44.04534" lon="6.83141">
        <ele>905</ele>
        <time>2020-06-05T09:35:09.000Z</time>
      </trkpt>
      <trkpt lat="44.04534" lon="6.83141">
        <ele>904</ele>
        <time>2020-06-05T09:35:10.000Z</time>
      </trkpt>
      <trkpt lat="44.04534" lon="6.83141">
        <ele>904</ele>
        <time>2020-06-05T09:35:11.000Z</time>
      </trkpt>
      <trkpt lat="44.04534" lon="6.83141">
        <ele>904</ele>
        <time>2020-06-05T09:35:12.000Z</time>
      </trkpt>
      <trkpt lat="44.04534" lon="6.83141">
        <ele>904</ele>
        <time>2020-06-05T09:35:13.000Z</time>
      </trkpt>
      <trkpt lat="44.04534" lon="6.83141">
        <ele>904</ele>
        <time>2020-06-05T09:35:14.000Z</time>
      </trkpt>
      <trkpt lat="44.04534" lon="6.83141">
        <ele>904</ele>
        <time>2020-06-05T09:35:15.000Z</time>
      </trkpt>
      <trkpt lat="44.04534" lon="6.83141">
        <ele>904</ele>
        <time>2020-06-05T09:35:16.000Z</time>
      </trkpt>
      <trkpt lat="44.04534" lon="6.83141">
        <ele>904</ele>
        <time>2020-06-05T09:35:17.000Z</time>
      </trkpt>
      <trkpt lat="44.04534" lon="6.83141">
        <ele>904</ele>
        <time>2020-06-05T09:35:18.000Z</time>
      </trkpt>
      <trkpt lat="44.04534" lon="6.83141">
        <ele>904</ele>
        <time>2020-06-05T09:35:19.000Z</time>
      </trkpt>
      <trkpt lat="44.04534" lon="6.83141">
        <ele>904</ele>
        <time>2020-06-05T09:35:20.000Z</time>
      </trkpt>
      <trkpt lat="44.04534" lon="6.83141">
        <ele>904</ele>
        <time>2020-06-05T09:35:21.000Z</time>
      </trkpt>
      <trkpt lat="44.04533" lon="6.83141">
        <ele>904</ele>
        <time>2020-06-05T09:35:22.000Z</time>
      </trkpt>
      <trkpt lat="44.04533" lon="6.83141">
        <ele>904</ele>
        <time>2020-06-05T09:35:23.000Z</time>
      </trkpt>
      <trkpt lat="44.04532" lon="6.83141">
        <ele>903</ele>
        <time>2020-06-05T09:35:24.000Z</time>
      </trkpt>
      <trkpt lat="44.04532" lon="6.8314">
        <ele>903</ele>
        <time>2020-06-05T09:35:25.000Z</time>
      </trkpt>
      <trkpt lat="44.04531" lon="6.8314">
        <ele>903</ele>
        <time>2020-06-05T09:35:26.000Z</time>
      </trkpt>
      <trkpt lat="44.0453" lon="6.83139">
        <ele>903</ele>
        <time>2020-06-05T09:35:27.000Z</time>
      </trkpt>
      <trkpt lat="44.04529" lon="6.83139">
        <ele>903</ele>
        <time>2020-06-05T09:35:28.000Z</time>
      </trkpt>
      <trkpt lat="44.04529" lon="6.83139">
        <ele>903</ele>
        <time>2020-06-05T09:35:29.000Z</time>
      </trkpt>
      <trkpt lat="44.04528" lon="6.83139">
        <ele>902</ele>
        <time>2020-06-05T09:35:30.000Z</time>
      </trkpt>
      <trkpt lat="44.04527" lon="6.83138">
        <ele>902</ele>
        <time>2020-06-05T09:35:31.000Z</time>
      </trkpt>
      <trkpt lat="44.04526" lon="6.83138">
        <ele>902</ele>
        <time>2020-06-05T09:35:32.000Z</time>
      </trkpt>
      <trkpt lat="44.04525" lon="6.83138">
        <ele>902</ele>
        <time>2020-06-05T09:35:33.000Z</time>
      </trkpt>
      <trkpt lat="44.04524" lon="6.83138">
        <ele>902</ele>
        <time>2020-06-05T09:35:34.000Z</time>
      </trkpt>
      <trkpt lat="44.04523" lon="6.83138">
        <ele>902</ele>
        <time>2020-06-05T09:35:35.000Z</time>
      </trkpt>
      <trkpt lat="44.04523" lon="6.83138">
        <ele>902</ele>
        <time>2020-06-05T09:35:36.000Z</time>
      </trkpt>
      <trkpt lat="44.04522" lon="6.83138">
        <ele>901</ele>
        <time>2020-06-05T09:35:37.000Z</time>
      </trkpt>
      <trkpt lat="44.04521" lon="6.83137">
        <ele>901</ele>
        <time>2020-06-05T09:35:38.000Z</time>
      </trkpt>
      <trkpt lat="44.0452" lon="6.83137">
        <ele>901</ele>
        <time>2020-06-05T09:35:39.000Z</time>
      </trkpt>
      <trkpt lat="44.04519" lon="6.83136">
        <ele>901</ele>
        <time>2020-06-05T09:35:40.000Z</time>
      </trkpt>
      <trkpt lat="44.04518" lon="6.83135">
        <ele>900</ele>
        <time>2020-06-05T09:35:41.000Z</time>
      </trkpt>
      <trkpt lat="44.04518" lon="6.83135">
        <ele>900</ele>
        <time>2020-06-05T09:35:42.000Z</time>
      </trkpt>
      <trkpt lat="44.04517" lon="6.83134">
        <ele>900</ele>
        <time>2020-06-05T09:35:43.000Z</time>
      </trkpt>
      <trkpt lat="44.04517" lon="6.83134">
        <ele>900</ele>
        <time>2020-06-05T09:35:44.000Z</time>
      </trkpt>
      <trkpt lat="44.04517" lon="6.83134">
        <ele>900</ele>
        <time>2020-06-05T09:35:45.000Z</time>
      </trkpt>
      <trkpt lat="44.04517" lon="6.83134">
        <ele>900</ele>
        <time>2020-06-05T09:35:46.000Z</time>
      </trkpt>
      <trkpt lat="44.04517" lon="6.83134">
        <ele>900</ele>
        <time>2020-06-05T09:35:47.000Z</time>
      </trkpt>
      <trkpt lat="44.04516" lon="6.83134">
        <ele>899</ele>
        <time>2020-06-05T09:35:48.000Z</time>
      </trkpt>
      <trkpt lat="44.04515" lon="6.83133">
        <ele>899</ele>
        <time>2020-06-05T09:35:49.000Z</time>
      </trkpt>
      <trkpt lat="44.04514" lon="6.83133">
        <ele>899</ele>
        <time>2020-06-05T09:35:50.000Z</time>
      </trkpt>
      <trkpt lat="44.04513" lon="6.83133">
        <ele>899</ele>
        <time>2020-06-05T09:35:51.000Z</time>
      </trkpt>
      <trkpt lat="44.04513" lon="6.83132">
        <ele>899</ele>
        <time>2020-06-05T09:35:52.000Z</time>
      </trkpt>
      <trkpt lat="44.04512" lon="6.83132">
        <ele>899</ele>
        <time>2020-06-05T09:35:53.000Z</time>
      </trkpt>
      <trkpt lat="44.04511" lon="6.83132">
        <ele>899</ele>
        <time>2020-06-05T09:35:54.000Z</time>
      </trkpt>
      <trkpt lat="44.0451" lon="6.83132">
        <ele>899</ele>
        <time>2020-06-05T09:35:55.000Z</time>
      </trkpt>
      <trkpt lat="44.0451" lon="6.83133">
        <ele>899</ele>
        <time>2020-06-05T09:35:56.000Z</time>
      </trkpt>
      <trkpt lat="44.04509" lon="6.83132">
        <ele>899</ele>
        <time>2020-06-05T09:35:57.000Z</time>
      </trkpt>
      <trkpt lat="44.04508" lon="6.83133">
        <ele>899</ele>
        <time>2020-06-05T09:35:58.000Z</time>
      </trkpt>
      <trkpt lat="44.04507" lon="6.83133">
        <ele>899</ele>
        <time>2020-06-05T09:35:59.000Z</time>
      </trkpt>
      <trkpt lat="44.04506" lon="6.83134">
        <ele>898</ele>
        <time>2020-06-05T09:36:00.000Z</time>
      </trkpt>
      <trkpt lat="44.04506" lon="6.83134">
        <ele>898</ele>
        <time>2020-06-05T09:36:01.000Z</time>
      </trkpt>
      <trkpt lat="44.04505" lon="6.83135">
        <ele>898</ele>
        <time>2020-06-05T09:36:02.000Z</time>
      </trkpt>
      <trkpt lat="44.04504" lon="6.83135">
        <ele>898</ele>
        <time>2020-06-05T09:36:03.000Z</time>
      </trkpt>
      <trkpt lat="44.04504" lon="6.83136">
        <ele>898</ele>
        <time>2020-06-05T09:36:04.000Z</time>
      </trkpt>
      <trkpt lat="44.04503" lon="6.83136">
        <ele>898</ele>
        <time>2020-06-05T09:36:05.000Z</time>
      </trkpt>
      <trkpt lat="44.04503" lon="6.83137">
        <ele>898</ele>
        <time>2020-06-05T09:36:06.000Z</time>
      </trkpt>
      <trkpt lat="44.04503" lon="6.83137">
        <ele>898</ele>
        <time>2020-06-05T09:36:07.000Z</time>
      </trkpt>
      <trkpt lat="44.04503" lon="6.83138">
        <ele>898</ele>
        <time>2020-06-05T09:36:08.000Z</time>
      </trkpt>
      <trkpt lat="44.04502" lon="6.83139">
        <ele>898</ele>
        <time>2020-06-05T09:36:09.000Z</time>
      </trkpt>
      <trkpt lat="44.04502" lon="6.83139">
        <ele>897</ele>
        <time>2020-06-05T09:36:10.000Z</time>
      </trkpt>
      <trkpt lat="44.04501" lon="6.8314">
        <ele>897</ele>
        <time>2020-06-05T09:36:11.000Z</time>
      </trkpt>
      <trkpt lat="44.04501" lon="6.8314">
        <ele>897</ele>
        <time>2020-06-05T09:36:12.000Z</time>
      </trkpt>
      <trkpt lat="44.045" lon="6.8314">
        <ele>897</ele>
        <time>2020-06-05T09:36:13.000Z</time>
      </trkpt>
      <trkpt lat="44.04499" lon="6.8314">
        <ele>897</ele>
        <time>2020-06-05T09:36:14.000Z</time>
      </trkpt>
      <trkpt lat="44.04498" lon="6.83141">
        <ele>897</ele>
        <time>2020-06-05T09:36:15.000Z</time>
      </trkpt>
      <trkpt lat="44.04497" lon="6.83141">
        <ele>896</ele>
        <time>2020-06-05T09:36:16.000Z</time>
      </trkpt>
      <trkpt lat="44.04496" lon="6.83141">
        <ele>896</ele>
        <time>2020-06-05T09:36:17.000Z</time>
      </trkpt>
      <trkpt lat="44.04496" lon="6.83141">
        <ele>896</ele>
        <time>2020-06-05T09:36:18.000Z</time>
      </trkpt>
      <trkpt lat="44.04495" lon="6.83141">
        <ele>896</ele>
        <time>2020-06-05T09:36:19.000Z</time>
      </trkpt>
      <trkpt lat="44.04494" lon="6.83142">
        <ele>896</ele>
        <time>2020-06-05T09:36:20.000Z</time>
      </trkpt>
      <trkpt lat="44.04494" lon="6.83143">
        <ele>895</ele>
        <time>2020-06-05T09:36:21.000Z</time>
      </trkpt>
      <trkpt lat="44.04493" lon="6.83143">
        <ele>895</ele>
        <time>2020-06-05T09:36:22.000Z</time>
      </trkpt>
      <trkpt lat="44.04492" lon="6.83144">
        <ele>895</ele>
        <time>2020-06-05T09:36:23.000Z</time>
      </trkpt>
      <trkpt lat="44.04492" lon="6.83144">
        <ele>895</ele>
        <time>2020-06-05T09:36:24.000Z</time>
      </trkpt>
      <trkpt lat="44.04491" lon="6.83145">
        <ele>894</ele>
        <time>2020-06-05T09:36:25.000Z</time>
      </trkpt>
      <trkpt lat="44.04491" lon="6.83146">
        <ele>894</ele>
        <time>2020-06-05T09:36:26.000Z</time>
      </trkpt>
      <trkpt lat="44.0449" lon="6.83147">
        <ele>893</ele>
        <time>2020-06-05T09:36:27.000Z</time>
      </trkpt>
      <trkpt lat="44.0449" lon="6.83147">
        <ele>893</ele>
        <time>2020-06-05T09:36:28.000Z</time>
      </trkpt>
      <trkpt lat="44.0449" lon="6.83148">
        <ele>893</ele>
        <time>2020-06-05T09:36:29.000Z</time>
      </trkpt>
      <trkpt lat="44.0449" lon="6.83148">
        <ele>892</ele>
        <time>2020-06-05T09:36:30.000Z</time>
      </trkpt>
      <trkpt lat="44.04489" lon="6.83149">
        <ele>892</ele>
        <time>2020-06-05T09:36:31.000Z</time>
      </trkpt>
      <trkpt lat="44.04489" lon="6.8315">
        <ele>892</ele>
        <time>2020-06-05T09:36:32.000Z</time>
      </trkpt>
      <trkpt lat="44.04489" lon="6.8315">
        <ele>891</ele>
        <time>2020-06-05T09:36:33.000Z</time>
      </trkpt>
      <trkpt lat="44.04488" lon="6.83151">
        <ele>891</ele>
        <time>2020-06-05T09:36:34.000Z</time>
      </trkpt>
      <trkpt lat="44.04488" lon="6.83151">
        <ele>891</ele>
        <time>2020-06-05T09:36:35.000Z</time>
      </trkpt>
      <trkpt lat="44.04487" lon="6.83152">
        <ele>890</ele>
        <time>2020-06-05T09:36:36.000Z</time>
      </trkpt>
      <trkpt lat="44.04486" lon="6.83152">
        <ele>890</ele>
        <time>2020-06-05T09:36:37.000Z</time>
      </trkpt>
      <trkpt lat="44.04486" lon="6.83153">
        <ele>890</ele>
        <time>2020-06-05T09:36:38.000Z</time>
      </trkpt>
      <trkpt lat="44.04486" lon="6.83153">
        <ele>890</ele>
        <time>2020-06-05T09:36:39.000Z</time>
      </trkpt>
      <trkpt lat="44.04486" lon="6.83154">
        <ele>889</ele>
        <time>2020-06-05T09:36:40.000Z</time>
      </trkpt>
      <trkpt lat="44.04485" lon="6.83154">
        <ele>889</ele>
        <time>2020-06-05T09:36:41.000Z</time>
      </trkpt>
      <trkpt lat="44.04485" lon="6.83155">
        <ele>889</ele>
        <time>2020-06-05T09:36:42.000Z</time>
      </trkpt>
      <trkpt lat="44.04485" lon="6.83156">
        <ele>889</ele>
        <time>2020-06-05T09:36:43.000Z</time>
      </trkpt>
      <trkpt lat="44.04485" lon="6.83157">
        <ele>889</ele>
        <time>2020-06-05T09:36:44.000Z</time>
      </trkpt>
      <trkpt lat="44.04485" lon="6.83158">
        <ele>888</ele>
        <time>2020-06-05T09:36:45.000Z</time>
      </trkpt>
      <trkpt lat="44.04484" lon="6.83159">
        <ele>888</ele>
        <time>2020-06-05T09:36:46.000Z</time>
      </trkpt>
      <trkpt lat="44.04484" lon="6.83159">
        <ele>888</ele>
        <time>2020-06-05T09:36:47.000Z</time>
      </trkpt>
      <trkpt lat="44.04484" lon="6.8316">
        <ele>888</ele>
        <time>2020-06-05T09:36:48.000Z</time>
      </trkpt>
      <trkpt lat="44.04483" lon="6.8316">
        <ele>887</ele>
        <time>2020-06-05T09:36:49.000Z</time>
      </trkpt>
      <trkpt lat="44.04483" lon="6.8316">
        <ele>887</ele>
        <time>2020-06-05T09:36:50.000Z</time>
      </trkpt>
      <trkpt lat="44.04483" lon="6.83161">
        <ele>887</ele>
        <time>2020-06-05T09:36:51.000Z</time>
      </trkpt>
      <trkpt lat="44.04483" lon="6.83161">
        <ele>887</ele>
        <time>2020-06-05T09:36:52.000Z</time>
      </trkpt>
      <trkpt lat="44.04482" lon="6.83162">
        <ele>887</ele>
        <time>2020-06-05T09:36:53.000Z</time>
      </trkpt>
      <trkpt lat="44.04482" lon="6.83163">
        <ele>887</ele>
        <time>2020-06-05T09:36:54.000Z</time>
      </trkpt>
      <trkpt lat="44.04482" lon="6.83164">
        <ele>887</ele>
        <time>2020-06-05T09:36:55.000Z</time>
      </trkpt>
      <trkpt lat="44.04482" lon="6.83165">
        <ele>886</ele>
        <time>2020-06-05T09:36:56.000Z</time>
      </trkpt>
      <trkpt lat="44.04482" lon="6.83165">
        <ele>886</ele>
        <time>2020-06-05T09:36:57.000Z</time>
      </trkpt>
      <trkpt lat="44.04482" lon="6.83166">
        <ele>886</ele>
        <time>2020-06-05T09:36:58.000Z</time>
      </trkpt>
      <trkpt lat="44.04481" lon="6.83166">
        <ele>886</ele>
        <time>2020-06-05T09:36:59.000Z</time>
      </trkpt>
      <trkpt lat="44.04481" lon="6.83166">
        <ele>886</ele>
        <time>2020-06-05T09:37:00.000Z</time>
      </trkpt>
      <trkpt lat="44.04481" lon="6.83166">
        <ele>886</ele>
        <time>2020-06-05T09:37:01.000Z</time>
      </trkpt>
      <trkpt lat="44.04481" lon="6.83166">
        <ele>886</ele>
        <time>2020-06-05T09:37:02.000Z</time>
      </trkpt>
      <trkpt lat="44.04482" lon="6.83167">
        <ele>886</ele>
        <time>2020-06-05T09:37:03.000Z</time>
      </trkpt>
      <trkpt lat="44.04482" lon="6.83167">
        <ele>886</ele>
        <time>2020-06-05T09:37:04.000Z</time>
      </trkpt>
      <trkpt lat="44.04482" lon="6.83167">
        <ele>886</ele>
        <time>2020-06-05T09:37:05.000Z</time>
      </trkpt>
      <trkpt lat="44.04482" lon="6.83167">
        <ele>885</ele>
        <time>2020-06-05T09:37:06.000Z</time>
      </trkpt>
      <trkpt lat="44.04482" lon="6.83167">
        <ele>885</ele>
        <time>2020-06-05T09:37:07.000Z</time>
      </trkpt>
      <trkpt lat="44.04482" lon="6.83167">
        <ele>885</ele>
        <time>2020-06-05T09:37:08.000Z</time>
      </trkpt>
      <trkpt lat="44.04482" lon="6.83167">
        <ele>885</ele>
        <time>2020-06-05T09:37:09.000Z</time>
      </trkpt>
      <trkpt lat="44.04482" lon="6.83167">
        <ele>885</ele>
        <time>2020-06-05T09:37:10.000Z</time>
      </trkpt>
      <trkpt lat="44.04482" lon="6.83168">
        <ele>885</ele>
        <time>2020-06-05T09:37:11.000Z</time>
      </trkpt>
      <trkpt lat="44.04482" lon="6.83169">
        <ele>885</ele>
        <time>2020-06-05T09:37:12.000Z</time>
      </trkpt>
      <trkpt lat="44.04482" lon="6.8317">
        <ele>885</ele>
        <time>2020-06-05T09:37:13.000Z</time>
      </trkpt>
      <trkpt lat="44.04481" lon="6.83171">
        <ele>885</ele>
        <time>2020-06-05T09:37:14.000Z</time>
      </trkpt>
      <trkpt lat="44.04481" lon="6.83172">
        <ele>884</ele>
        <time>2020-06-05T09:37:15.000Z</time>
      </trkpt>
      <trkpt lat="44.04481" lon="6.83172">
        <ele>884</ele>
        <time>2020-06-05T09:37:16.000Z</time>
      </trkpt>
      <trkpt lat="44.04481" lon="6.83173">
        <ele>884</ele>
        <time>2020-06-05T09:37:17.000Z</time>
      </trkpt>
      <trkpt lat="44.04481" lon="6.83174">
        <ele>884</ele>
        <time>2020-06-05T09:37:18.000Z</time>
      </trkpt>
      <trkpt lat="44.0448" lon="6.83175">
        <ele>884</ele>
        <time>2020-06-05T09:37:19.000Z</time>
      </trkpt>
      <trkpt lat="44.0448" lon="6.83176">
        <ele>884</ele>
        <time>2020-06-05T09:37:20.000Z</time>
      </trkpt>
      <trkpt lat="44.04479" lon="6.83177">
        <ele>884</ele>
        <time>2020-06-05T09:37:21.000Z</time>
      </trkpt>
      <trkpt lat="44.04479" lon="6.83177">
        <ele>884</ele>
        <time>2020-06-05T09:37:22.000Z</time>
      </trkpt>
      <trkpt lat="44.04479" lon="6.83178">
        <ele>884</ele>
        <time>2020-06-05T09:37:23.000Z</time>
      </trkpt>
      <trkpt lat="44.04478" lon="6.83179">
        <ele>883</ele>
        <time>2020-06-05T09:37:24.000Z</time>
      </trkpt>
      <trkpt lat="44.04477" lon="6.83179">
        <ele>883</ele>
        <time>2020-06-05T09:37:25.000Z</time>
      </trkpt>
      <trkpt lat="44.04477" lon="6.8318">
        <ele>883</ele>
        <time>2020-06-05T09:37:26.000Z</time>
      </trkpt>
      <trkpt lat="44.04477" lon="6.83181">
        <ele>883</ele>
        <time>2020-06-05T09:37:27.000Z</time>
      </trkpt>
      <trkpt lat="44.04476" lon="6.83181">
        <ele>883</ele>
        <time>2020-06-05T09:37:28.000Z</time>
      </trkpt>
      <trkpt lat="44.04476" lon="6.83182">
        <ele>883</ele>
        <time>2020-06-05T09:37:29.000Z</time>
      </trkpt>
      <trkpt lat="44.04475" lon="6.83182">
        <ele>883</ele>
        <time>2020-06-05T09:37:30.000Z</time>
      </trkpt>
      <trkpt lat="44.04474" lon="6.83182">
        <ele>883</ele>
        <time>2020-06-05T09:37:31.000Z</time>
      </trkpt>
      <trkpt lat="44.04474" lon="6.83182">
        <ele>883</ele>
        <time>2020-06-05T09:37:32.000Z</time>
      </trkpt>
      <trkpt lat="44.04473" lon="6.83182">
        <ele>883</ele>
        <time>2020-06-05T09:37:33.000Z</time>
      </trkpt>
      <trkpt lat="44.04472" lon="6.83181">
        <ele>883</ele>
        <time>2020-06-05T09:37:34.000Z</time>
      </trkpt>
      <trkpt lat="44.04472" lon="6.83181">
        <ele>882</ele>
        <time>2020-06-05T09:37:35.000Z</time>
      </trkpt>
      <trkpt lat="44.04471" lon="6.83181">
        <ele>882</ele>
        <time>2020-06-05T09:37:36.000Z</time>
      </trkpt>
      <trkpt lat="44.04471" lon="6.8318">
        <ele>882</ele>
        <time>2020-06-05T09:37:37.000Z</time>
      </trkpt>
      <trkpt lat="44.04471" lon="6.83179">
        <ele>882</ele>
        <time>2020-06-05T09:37:38.000Z</time>
      </trkpt>
      <trkpt lat="44.04471" lon="6.83178">
        <ele>882</ele>
        <time>2020-06-05T09:37:39.000Z</time>
      </trkpt>
      <trkpt lat="44.04471" lon="6.83178">
        <ele>882</ele>
        <time>2020-06-05T09:37:40.000Z</time>
      </trkpt>
      <trkpt lat="44.04471" lon="6.83177">
        <ele>882</ele>
        <time>2020-06-05T09:37:41.000Z</time>
      </trkpt>
      <trkpt lat="44.04471" lon="6.83177">
        <ele>882</ele>
        <time>2020-06-05T09:37:42.000Z</time>
      </trkpt>
      <trkpt lat="44.04471" lon="6.83176">
        <ele>882</ele>
        <time>2020-06-05T09:37:43.000Z</time>
      </trkpt>
      <trkpt lat="44.04471" lon="6.83176">
        <ele>881</ele>
        <time>2020-06-05T09:37:44.000Z</time>
      </trkpt>
      <trkpt lat="44.04471" lon="6.83175">
        <ele>881</ele>
        <time>2020-06-05T09:37:45.000Z</time>
      </trkpt>
      <trkpt lat="44.0447" lon="6.83175">
        <ele>881</ele>
        <time>2020-06-05T09:37:46.000Z</time>
      </trkpt>
      <trkpt lat="44.04469" lon="6.83174">
        <ele>881</ele>
        <time>2020-06-05T09:37:47.000Z</time>
      </trkpt>
      <trkpt lat="44.04469" lon="6.83173">
        <ele>880</ele>
        <time>2020-06-05T09:37:48.000Z</time>
      </trkpt>
      <trkpt lat="44.04469" lon="6.83172">
        <ele>880</ele>
        <time>2020-06-05T09:37:49.000Z</time>
      </trkpt>
      <trkpt lat="44.04468" lon="6.8317">
        <ele>880</ele>
        <time>2020-06-05T09:37:50.000Z</time>
      </trkpt>
      <trkpt lat="44.04468" lon="6.83169">
        <ele>880</ele>
        <time>2020-06-05T09:37:51.000Z</time>
      </trkpt>
      <trkpt lat="44.04467" lon="6.83168">
        <ele>879</ele>
        <time>2020-06-05T09:37:52.000Z</time>
      </trkpt>
      <trkpt lat="44.04467" lon="6.83167">
        <ele>879</ele>
        <time>2020-06-05T09:37:53.000Z</time>
      </trkpt>
      <trkpt lat="44.04466" lon="6.83165">
        <ele>879</ele>
        <time>2020-06-05T09:37:54.000Z</time>
      </trkpt>
      <trkpt lat="44.04466" lon="6.83164">
        <ele>879</ele>
        <time>2020-06-05T09:37:55.000Z</time>
      </trkpt>
      <trkpt lat="44.04465" lon="6.83163">
        <ele>879</ele>
        <time>2020-06-05T09:37:56.000Z</time>
      </trkpt>
      <trkpt lat="44.04465" lon="6.83162">
        <ele>879</ele>
        <time>2020-06-05T09:37:57.000Z</time>
      </trkpt>
      <trkpt lat="44.04464" lon="6.83161">
        <ele>879</ele>
        <time>2020-06-05T09:37:58.000Z</time>
      </trkpt>
      <trkpt lat="44.04464" lon="6.83159">
        <ele>878</ele>
        <time>2020-06-05T09:37:59.000Z</time>
      </trkpt>
      <trkpt lat="44.04464" lon="6.83158">
        <ele>878</ele>
        <time>2020-06-05T09:38:00.000Z</time>
      </trkpt>
      <trkpt lat="44.04463" lon="6.83157">
        <ele>878</ele>
        <time>2020-06-05T09:38:01.000Z</time>
      </trkpt>
      <trkpt lat="44.04463" lon="6.83155">
        <ele>878</ele>
        <time>2020-06-05T09:38:02.000Z</time>
      </trkpt>
      <trkpt lat="44.04463" lon="6.83154">
        <ele>878</ele>
        <time>2020-06-05T09:38:03.000Z</time>
      </trkpt>
      <trkpt lat="44.04463" lon="6.83153">
        <ele>878</ele>
        <time>2020-06-05T09:38:04.000Z</time>
      </trkpt>
      <trkpt lat="44.04463" lon="6.83152">
        <ele>877</ele>
        <time>2020-06-05T09:38:05.000Z</time>
      </trkpt>
      <trkpt lat="44.04463" lon="6.83151">
        <ele>877</ele>
        <time>2020-06-05T09:38:06.000Z</time>
      </trkpt>
      <trkpt lat="44.04463" lon="6.83149">
        <ele>877</ele>
        <time>2020-06-05T09:38:07.000Z</time>
      </trkpt>
      <trkpt lat="44.04463" lon="6.83148">
        <ele>877</ele>
        <time>2020-06-05T09:38:08.000Z</time>
      </trkpt>
      <trkpt lat="44.04463" lon="6.83147">
        <ele>877</ele>
        <time>2020-06-05T09:38:09.000Z</time>
      </trkpt>
      <trkpt lat="44.04463" lon="6.83146">
        <ele>876</ele>
        <time>2020-06-05T09:38:10.000Z</time>
      </trkpt>
      <trkpt lat="44.04462" lon="6.83145">
        <ele>876</ele>
        <time>2020-06-05T09:38:11.000Z</time>
      </trkpt>
      <trkpt lat="44.04462" lon="6.83144">
        <ele>876</ele>
        <time>2020-06-05T09:38:12.000Z</time>
      </trkpt>
      <trkpt lat="44.04462" lon="6.83143">
        <ele>875</ele>
        <time>2020-06-05T09:38:13.000Z</time>
      </trkpt>
      <trkpt lat="44.04462" lon="6.83142">
        <ele>875</ele>
        <time>2020-06-05T09:38:14.000Z</time>
      </trkpt>
      <trkpt lat="44.04462" lon="6.83141">
        <ele>875</ele>
        <time>2020-06-05T09:38:15.000Z</time>
      </trkpt>
      <trkpt lat="44.04461" lon="6.8314">
        <ele>875</ele>
        <time>2020-06-05T09:38:16.000Z</time>
      </trkpt>
      <trkpt lat="44.04461" lon="6.83139">
        <ele>874</ele>
        <time>2020-06-05T09:38:17.000Z</time>
      </trkpt>
      <trkpt lat="44.0446" lon="6.83139">
        <ele>874</ele>
        <time>2020-06-05T09:38:18.000Z</time>
      </trkpt>
      <trkpt lat="44.0446" lon="6.83139">
        <ele>874</ele>
        <time>2020-06-05T09:38:19.000Z</time>
      </trkpt>
      <trkpt lat="44.04459" lon="6.8314">
        <ele>874</ele>
        <time>2020-06-05T09:38:20.000Z</time>
      </trkpt>
      <trkpt lat="44.04458" lon="6.83141">
        <ele>873</ele>
        <time>2020-06-05T09:38:21.000Z</time>
      </trkpt>
      <trkpt lat="44.04458" lon="6.83142">
        <ele>873</ele>
        <time>2020-06-05T09:38:22.000Z</time>
      </trkpt>
      <trkpt lat="44.04458" lon="6.83143">
        <ele>873</ele>
        <time>2020-06-05T09:38:23.000Z</time>
      </trkpt>
      <trkpt lat="44.04457" lon="6.83144">
        <ele>872</ele>
        <time>2020-06-05T09:38:24.000Z</time>
      </trkpt>
      <trkpt lat="44.04457" lon="6.83145">
        <ele>872</ele>
        <time>2020-06-05T09:38:25.000Z</time>
      </trkpt>
      <trkpt lat="44.04456" lon="6.83147">
        <ele>872</ele>
        <time>2020-06-05T09:38:26.000Z</time>
      </trkpt>
      <trkpt lat="44.04456" lon="6.83148">
        <ele>871</ele>
        <time>2020-06-05T09:38:27.000Z</time>
      </trkpt>
      <trkpt lat="44.04455" lon="6.83149">
        <ele>871</ele>
        <time>2020-06-05T09:38:28.000Z</time>
      </trkpt>
      <trkpt lat="44.04455" lon="6.8315">
        <ele>871</ele>
        <time>2020-06-05T09:38:29.000Z</time>
      </trkpt>
      <trkpt lat="44.04455" lon="6.8315">
        <ele>870</ele>
        <time>2020-06-05T09:38:30.000Z</time>
      </trkpt>
      <trkpt lat="44.04454" lon="6.83151">
        <ele>870</ele>
        <time>2020-06-05T09:38:31.000Z</time>
      </trkpt>
      <trkpt lat="44.04453" lon="6.83151">
        <ele>870</ele>
        <time>2020-06-05T09:38:32.000Z</time>
      </trkpt>
      <trkpt lat="44.04453" lon="6.83152">
        <ele>870</ele>
        <time>2020-06-05T09:38:33.000Z</time>
      </trkpt>
      <trkpt lat="44.04452" lon="6.83152">
        <ele>869</ele>
        <time>2020-06-05T09:38:34.000Z</time>
      </trkpt>
      <trkpt lat="44.04451" lon="6.83151">
        <ele>869</ele>
        <time>2020-06-05T09:38:35.000Z</time>
      </trkpt>
      <trkpt lat="44.0445" lon="6.8315">
        <ele>869</ele>
        <time>2020-06-05T09:38:36.000Z</time>
      </trkpt>
      <trkpt lat="44.0445" lon="6.83148">
        <ele>868</ele>
        <time>2020-06-05T09:38:37.000Z</time>
      </trkpt>
      <trkpt lat="44.0445" lon="6.83147">
        <ele>868</ele>
        <time>2020-06-05T09:38:38.000Z</time>
      </trkpt>
      <trkpt lat="44.0445" lon="6.83146">
        <ele>868</ele>
        <time>2020-06-05T09:38:39.000Z</time>
      </trkpt>
      <trkpt lat="44.0445" lon="6.83144">
        <ele>868</ele>
        <time>2020-06-05T09:38:40.000Z</time>
      </trkpt>
      <trkpt lat="44.0445" lon="6.83143">
        <ele>867</ele>
        <time>2020-06-05T09:38:41.000Z</time>
      </trkpt>
      <trkpt lat="44.0445" lon="6.83142">
        <ele>867</ele>
        <time>2020-06-05T09:38:42.000Z</time>
      </trkpt>
      <trkpt lat="44.0445" lon="6.83141">
        <ele>867</ele>
        <time>2020-06-05T09:38:43.000Z</time>
      </trkpt>
      <trkpt lat="44.0445" lon="6.8314">
        <ele>866</ele>
        <time>2020-06-05T09:38:44.000Z</time>
      </trkpt>
      <trkpt lat="44.0445" lon="6.83139">
        <ele>866</ele>
        <time>2020-06-05T09:38:45.000Z</time>
      </trkpt>
      <trkpt lat="44.04449" lon="6.83139">
        <ele>866</ele>
        <time>2020-06-05T09:38:46.000Z</time>
      </trkpt>
      <trkpt lat="44.04448" lon="6.83139">
        <ele>865</ele>
        <time>2020-06-05T09:38:47.000Z</time>
      </trkpt>
      <trkpt lat="44.04448" lon="6.8314">
        <ele>865</ele>
        <time>2020-06-05T09:38:48.000Z</time>
      </trkpt>
      <trkpt lat="44.04447" lon="6.8314">
        <ele>865</ele>
        <time>2020-06-05T09:38:49.000Z</time>
      </trkpt>
      <trkpt lat="44.04446" lon="6.83141">
        <ele>865</ele>
        <time>2020-06-05T09:38:50.000Z</time>
      </trkpt>
      <trkpt lat="44.04445" lon="6.83142">
        <ele>864</ele>
        <time>2020-06-05T09:38:51.000Z</time>
      </trkpt>
      <trkpt lat="44.04445" lon="6.83143">
        <ele>864</ele>
        <time>2020-06-05T09:38:52.000Z</time>
      </trkpt>
      <trkpt lat="44.04444" lon="6.83144">
        <ele>864</ele>
        <time>2020-06-05T09:38:53.000Z</time>
      </trkpt>
      <trkpt lat="44.04444" lon="6.83145">
        <ele>864</ele>
        <time>2020-06-05T09:38:54.000Z</time>
      </trkpt>
      <trkpt lat="44.04443" lon="6.83146">
        <ele>864</ele>
        <time>2020-06-05T09:38:55.000Z</time>
      </trkpt>
      <trkpt lat="44.04442" lon="6.83147">
        <ele>863</ele>
        <time>2020-06-05T09:38:56.000Z</time>
      </trkpt>
      <trkpt lat="44.04442" lon="6.83148">
        <ele>863</ele>
        <time>2020-06-05T09:38:57.000Z</time>
      </trkpt>
      <trkpt lat="44.04441" lon="6.83148">
        <ele>863</ele>
        <time>2020-06-05T09:38:58.000Z</time>
      </trkpt>
      <trkpt lat="44.0444" lon="6.83149">
        <ele>863</ele>
        <time>2020-06-05T09:38:59.000Z</time>
      </trkpt>
      <trkpt lat="44.0444" lon="6.83149">
        <ele>863</ele>
        <time>2020-06-05T09:39:00.000Z</time>
      </trkpt>
      <trkpt lat="44.04439" lon="6.83149">
        <ele>863</ele>
        <time>2020-06-05T09:39:01.000Z</time>
      </trkpt>
      <trkpt lat="44.04438" lon="6.8315">
        <ele>862</ele>
        <time>2020-06-05T09:39:02.000Z</time>
      </trkpt>
      <trkpt lat="44.04437" lon="6.8315">
        <ele>862</ele>
        <time>2020-06-05T09:39:03.000Z</time>
      </trkpt>
      <trkpt lat="44.04436" lon="6.83149">
        <ele>862</ele>
        <time>2020-06-05T09:39:04.000Z</time>
      </trkpt>
      <trkpt lat="44.04436" lon="6.83149">
        <ele>862</ele>
        <time>2020-06-05T09:39:05.000Z</time>
      </trkpt>
      <trkpt lat="44.04435" lon="6.83148">
        <ele>862</ele>
        <time>2020-06-05T09:39:06.000Z</time>
      </trkpt>
      <trkpt lat="44.04435" lon="6.83146">
        <ele>861</ele>
        <time>2020-06-05T09:39:07.000Z</time>
      </trkpt>
      <trkpt lat="44.04435" lon="6.83145">
        <ele>861</ele>
        <time>2020-06-05T09:39:08.000Z</time>
      </trkpt>
      <trkpt lat="44.04435" lon="6.83144">
        <ele>861</ele>
        <time>2020-06-05T09:39:09.000Z</time>
      </trkpt>
      <trkpt lat="44.04435" lon="6.83143">
        <ele>861</ele>
        <time>2020-06-05T09:39:10.000Z</time>
      </trkpt>
      <trkpt lat="44.04434" lon="6.83142">
        <ele>861</ele>
        <time>2020-06-05T09:39:11.000Z</time>
      </trkpt>
      <trkpt lat="44.04435" lon="6.83141">
        <ele>860</ele>
        <time>2020-06-05T09:39:12.000Z</time>
      </trkpt>
      <trkpt lat="44.04435" lon="6.8314">
        <ele>860</ele>
        <time>2020-06-05T09:39:13.000Z</time>
      </trkpt>
      <trkpt lat="44.04435" lon="6.83139">
        <ele>860</ele>
        <time>2020-06-05T09:39:14.000Z</time>
      </trkpt>
      <trkpt lat="44.04435" lon="6.83138">
        <ele>860</ele>
        <time>2020-06-05T09:39:15.000Z</time>
      </trkpt>
      <trkpt lat="44.04435" lon="6.83137">
        <ele>860</ele>
        <time>2020-06-05T09:39:16.000Z</time>
      </trkpt>
      <trkpt lat="44.04435" lon="6.83136">
        <ele>859</ele>
        <time>2020-06-05T09:39:17.000Z</time>
      </trkpt>
      <trkpt lat="44.04435" lon="6.83135">
        <ele>859</ele>
        <time>2020-06-05T09:39:18.000Z</time>
      </trkpt>
      <trkpt lat="44.04436" lon="6.83134">
        <ele>859</ele>
        <time>2020-06-05T09:39:19.000Z</time>
      </trkpt>
      <trkpt lat="44.04436" lon="6.83133">
        <ele>859</ele>
        <time>2020-06-05T09:39:20.000Z</time>
      </trkpt>
      <trkpt lat="44.04436" lon="6.83132">
        <ele>858</ele>
        <time>2020-06-05T09:39:21.000Z</time>
      </trkpt>
      <trkpt lat="44.04436" lon="6.83131">
        <ele>858</ele>
        <time>2020-06-05T09:39:22.000Z</time>
      </trkpt>
      <trkpt lat="44.04436" lon="6.8313">
        <ele>858</ele>
        <time>2020-06-05T09:39:23.000Z</time>
      </trkpt>
      <trkpt lat="44.04436" lon="6.83129">
        <ele>858</ele>
        <time>2020-06-05T09:39:24.000Z</time>
      </trkpt>
      <trkpt lat="44.04436" lon="6.83128">
        <ele>858</ele>
        <time>2020-06-05T09:39:25.000Z</time>
      </trkpt>
      <trkpt lat="44.04436" lon="6.83127">
        <ele>857</ele>
        <time>2020-06-05T09:39:26.000Z</time>
      </trkpt>
      <trkpt lat="44.04436" lon="6.83126">
        <ele>857</ele>
        <time>2020-06-05T09:39:27.000Z</time>
      </trkpt>
      <trkpt lat="44.04436" lon="6.83124">
        <ele>857</ele>
        <time>2020-06-05T09:39:28.000Z</time>
      </trkpt>
      <trkpt lat="44.04436" lon="6.83124">
        <ele>857</ele>
        <time>2020-06-05T09:39:29.000Z</time>
      </trkpt>
      <trkpt lat="44.04436" lon="6.83123">
        <ele>856</ele>
        <time>2020-06-05T09:39:30.000Z</time>
      </trkpt>
      <trkpt lat="44.04436" lon="6.83122">
        <ele>856</ele>
        <time>2020-06-05T09:39:31.000Z</time>
      </trkpt>
      <trkpt lat="44.04435" lon="6.8312">
        <ele>856</ele>
        <time>2020-06-05T09:39:32.000Z</time>
      </trkpt>
      <trkpt lat="44.04435" lon="6.83119">
        <ele>856</ele>
        <time>2020-06-05T09:39:33.000Z</time>
      </trkpt>
      <trkpt lat="44.04435" lon="6.83118">
        <ele>856</ele>
        <time>2020-06-05T09:39:34.000Z</time>
      </trkpt>
      <trkpt lat="44.04435" lon="6.83117">
        <ele>855</ele>
        <time>2020-06-05T09:39:35.000Z</time>
      </trkpt>
      <trkpt lat="44.04435" lon="6.83116">
        <ele>855</ele>
        <time>2020-06-05T09:39:36.000Z</time>
      </trkpt>
      <trkpt lat="44.04436" lon="6.83114">
        <ele>855</ele>
        <time>2020-06-05T09:39:37.000Z</time>
      </trkpt>
      <trkpt lat="44.04436" lon="6.83113">
        <ele>855</ele>
        <time>2020-06-05T09:39:38.000Z</time>
      </trkpt>
      <trkpt lat="44.04437" lon="6.83112">
        <ele>855</ele>
        <time>2020-06-05T09:39:39.000Z</time>
      </trkpt>
      <trkpt lat="44.04437" lon="6.83111">
        <ele>854</ele>
        <time>2020-06-05T09:39:40.000Z</time>
      </trkpt>
      <trkpt lat="44.04437" lon="6.8311">
        <ele>854</ele>
        <time>2020-06-05T09:39:41.000Z</time>
      </trkpt>
      <trkpt lat="44.04438" lon="6.83108">
        <ele>854</ele>
        <time>2020-06-05T09:39:42.000Z</time>
      </trkpt>
      <trkpt lat="44.04438" lon="6.83107">
        <ele>853</ele>
        <time>2020-06-05T09:39:43.000Z</time>
      </trkpt>
      <trkpt lat="44.04439" lon="6.83106">
        <ele>853</ele>
        <time>2020-06-05T09:39:44.000Z</time>
      </trkpt>
      <trkpt lat="44.04439" lon="6.83105">
        <ele>853</ele>
        <time>2020-06-05T09:39:45.000Z</time>
      </trkpt>
      <trkpt lat="44.0444" lon="6.83104">
        <ele>852</ele>
        <time>2020-06-05T09:39:46.000Z</time>
      </trkpt>
      <trkpt lat="44.04441" lon="6.83103">
        <ele>852</ele>
        <time>2020-06-05T09:39:47.000Z</time>
      </trkpt>
      <trkpt lat="44.04441" lon="6.83102">
        <ele>852</ele>
        <time>2020-06-05T09:39:48.000Z</time>
      </trkpt>
      <trkpt lat="44.04442" lon="6.83101">
        <ele>852</ele>
        <time>2020-06-05T09:39:49.000Z</time>
      </trkpt>
      <trkpt lat="44.04442" lon="6.831">
        <ele>852</ele>
        <time>2020-06-05T09:39:50.000Z</time>
      </trkpt>
      <trkpt lat="44.04443" lon="6.83098">
        <ele>851</ele>
        <time>2020-06-05T09:39:51.000Z</time>
      </trkpt>
      <trkpt lat="44.04443" lon="6.83097">
        <ele>851</ele>
        <time>2020-06-05T09:39:52.000Z</time>
      </trkpt>
      <trkpt lat="44.04443" lon="6.83096">
        <ele>851</ele>
        <time>2020-06-05T09:39:53.000Z</time>
      </trkpt>
      <trkpt lat="44.04444" lon="6.83095">
        <ele>851</ele>
        <time>2020-06-05T09:39:54.000Z</time>
      </trkpt>
      <trkpt lat="44.04444" lon="6.83094">
        <ele>851</ele>
        <time>2020-06-05T09:39:55.000Z</time>
      </trkpt>
      <trkpt lat="44.04443" lon="6.83093">
        <ele>850</ele>
        <time>2020-06-05T09:39:56.000Z</time>
      </trkpt>
      <trkpt lat="44.04443" lon="6.83093">
        <ele>850</ele>
        <time>2020-06-05T09:39:57.000Z</time>
      </trkpt>
      <trkpt lat="44.04443" lon="6.83094">
        <ele>850</ele>
        <time>2020-06-05T09:39:58.000Z</time>
      </trkpt>
      <trkpt lat="44.04442" lon="6.83094">
        <ele>850</ele>
        <time>2020-06-05T09:39:59.000Z</time>
      </trkpt>
      <trkpt lat="44.04442" lon="6.83095">
        <ele>850</ele>
        <time>2020-06-05T09:40:00.000Z</time>
      </trkpt>
      <trkpt lat="44.04441" lon="6.83095">
        <ele>849</ele>
        <time>2020-06-05T09:40:01.000Z</time>
      </trkpt>
      <trkpt lat="44.04441" lon="6.83096">
        <ele>849</ele>
        <time>2020-06-05T09:40:02.000Z</time>
      </trkpt>
      <trkpt lat="44.0444" lon="6.83096">
        <ele>849</ele>
        <time>2020-06-05T09:40:03.000Z</time>
      </trkpt>
      <trkpt lat="44.04439" lon="6.83096">
        <ele>849</ele>
        <time>2020-06-05T09:40:04.000Z</time>
      </trkpt>
      <trkpt lat="44.04438" lon="6.83097">
        <ele>849</ele>
        <time>2020-06-05T09:40:05.000Z</time>
      </trkpt>
      <trkpt lat="44.04437" lon="6.83097">
        <ele>849</ele>
        <time>2020-06-05T09:40:06.000Z</time>
      </trkpt>
      <trkpt lat="44.04436" lon="6.83098">
        <ele>849</ele>
        <time>2020-06-05T09:40:07.000Z</time>
      </trkpt>
      <trkpt lat="44.04436" lon="6.83099">
        <ele>849</ele>
        <time>2020-06-05T09:40:08.000Z</time>
      </trkpt>
      <trkpt lat="44.04435" lon="6.83099">
        <ele>849</ele>
        <time>2020-06-05T09:40:09.000Z</time>
      </trkpt>
      <trkpt lat="44.04434" lon="6.831">
        <ele>849</ele>
        <time>2020-06-05T09:40:10.000Z</time>
      </trkpt>
      <trkpt lat="44.04434" lon="6.83101">
        <ele>849</ele>
        <time>2020-06-05T09:40:11.000Z</time>
      </trkpt>
      <trkpt lat="44.04433" lon="6.83101">
        <ele>848</ele>
        <time>2020-06-05T09:40:12.000Z</time>
      </trkpt>
      <trkpt lat="44.04433" lon="6.83102">
        <ele>848</ele>
        <time>2020-06-05T09:40:13.000Z</time>
      </trkpt>
      <trkpt lat="44.04433" lon="6.83103">
        <ele>848</ele>
        <time>2020-06-05T09:40:14.000Z</time>
      </trkpt>
      <trkpt lat="44.04432" lon="6.83103">
        <ele>848</ele>
        <time>2020-06-05T09:40:15.000Z</time>
      </trkpt>
      <trkpt lat="44.04432" lon="6.83104">
        <ele>848</ele>
        <time>2020-06-05T09:40:16.000Z</time>
      </trkpt>
      <trkpt lat="44.04431" lon="6.83105">
        <ele>848</ele>
        <time>2020-06-05T09:40:17.000Z</time>
      </trkpt>
      <trkpt lat="44.0443" lon="6.83105">
        <ele>848</ele>
        <time>2020-06-05T09:40:18.000Z</time>
      </trkpt>
      <trkpt lat="44.0443" lon="6.83105">
        <ele>848</ele>
        <time>2020-06-05T09:40:19.000Z</time>
      </trkpt>
      <trkpt lat="44.0443" lon="6.83105">
        <ele>848</ele>
        <time>2020-06-05T09:40:20.000Z</time>
      </trkpt>
      <trkpt lat="44.04429" lon="6.83106">
        <ele>848</ele>
        <time>2020-06-05T09:40:21.000Z</time>
      </trkpt>
      <trkpt lat="44.04429" lon="6.83107">
        <ele>848</ele>
        <time>2020-06-05T09:40:22.000Z</time>
      </trkpt>
      <trkpt lat="44.04428" lon="6.83108">
        <ele>848</ele>
        <time>2020-06-05T09:40:23.000Z</time>
      </trkpt>
      <trkpt lat="44.04427" lon="6.8311">
        <ele>848</ele>
        <time>2020-06-05T09:40:24.000Z</time>
      </trkpt>
      <trkpt lat="44.04426" lon="6.83111">
        <ele>848</ele>
        <time>2020-06-05T09:40:25.000Z</time>
      </trkpt>
      <trkpt lat="44.04426" lon="6.83112">
        <ele>848</ele>
        <time>2020-06-05T09:40:26.000Z</time>
      </trkpt>
      <trkpt lat="44.04425" lon="6.83113">
        <ele>848</ele>
        <time>2020-06-05T09:40:27.000Z</time>
      </trkpt>
      <trkpt lat="44.04424" lon="6.83114">
        <ele>848</ele>
        <time>2020-06-05T09:40:28.000Z</time>
      </trkpt>
      <trkpt lat="44.04424" lon="6.83115">
        <ele>847</ele>
        <time>2020-06-05T09:40:29.000Z</time>
      </trkpt>
      <trkpt lat="44.04423" lon="6.83116">
        <ele>847</ele>
        <time>2020-06-05T09:40:30.000Z</time>
      </trkpt>
      <trkpt lat="44.04422" lon="6.83117">
        <ele>847</ele>
        <time>2020-06-05T09:40:31.000Z</time>
      </trkpt>
      <trkpt lat="44.04421" lon="6.83118">
        <ele>847</ele>
        <time>2020-06-05T09:40:32.000Z</time>
      </trkpt>
      <trkpt lat="44.04421" lon="6.83119">
        <ele>847</ele>
        <time>2020-06-05T09:40:33.000Z</time>
      </trkpt>
      <trkpt lat="44.0442" lon="6.8312">
        <ele>847</ele>
        <time>2020-06-05T09:40:34.000Z</time>
      </trkpt>
      <trkpt lat="44.04419" lon="6.83121">
        <ele>847</ele>
        <time>2020-06-05T09:40:35.000Z</time>
      </trkpt>
      <trkpt lat="44.04418" lon="6.83122">
        <ele>847</ele>
        <time>2020-06-05T09:40:36.000Z</time>
      </trkpt>
      <trkpt lat="44.04417" lon="6.83123">
        <ele>847</ele>
        <time>2020-06-05T09:40:37.000Z</time>
      </trkpt>
      <trkpt lat="44.04416" lon="6.83124">
        <ele>847</ele>
        <time>2020-06-05T09:40:38.000Z</time>
      </trkpt>
      <trkpt lat="44.04415" lon="6.83125">
        <ele>846</ele>
        <time>2020-06-05T09:40:39.000Z</time>
      </trkpt>
      <trkpt lat="44.04414" lon="6.83126">
        <ele>846</ele>
        <time>2020-06-05T09:40:40.000Z</time>
      </trkpt>
      <trkpt lat="44.04413" lon="6.83127">
        <ele>846</ele>
        <time>2020-06-05T09:40:41.000Z</time>
      </trkpt>
      <trkpt lat="44.04413" lon="6.83128">
        <ele>846</ele>
        <time>2020-06-05T09:40:42.000Z</time>
      </trkpt>
      <trkpt lat="44.04412" lon="6.83129">
        <ele>846</ele>
        <time>2020-06-05T09:40:43.000Z</time>
      </trkpt>
      <trkpt lat="44.04411" lon="6.8313">
        <ele>846</ele>
        <time>2020-06-05T09:40:44.000Z</time>
      </trkpt>
      <trkpt lat="44.0441" lon="6.83131">
        <ele>846</ele>
        <time>2020-06-05T09:40:45.000Z</time>
      </trkpt>
      <trkpt lat="44.04409" lon="6.83132">
        <ele>846</ele>
        <time>2020-06-05T09:40:46.000Z</time>
      </trkpt>
      <trkpt lat="44.04408" lon="6.83133">
        <ele>845</ele>
        <time>2020-06-05T09:40:47.000Z</time>
      </trkpt>
      <trkpt lat="44.04407" lon="6.83134">
        <ele>845</ele>
        <time>2020-06-05T09:40:48.000Z</time>
      </trkpt>
      <trkpt lat="44.04406" lon="6.83135">
        <ele>845</ele>
        <time>2020-06-05T09:40:49.000Z</time>
      </trkpt>
      <trkpt lat="44.04406" lon="6.83136">
        <ele>845</ele>
        <time>2020-06-05T09:40:50.000Z</time>
      </trkpt>
      <trkpt lat="44.04406" lon="6.83137">
        <ele>845</ele>
        <time>2020-06-05T09:40:51.000Z</time>
      </trkpt>
      <trkpt lat="44.04405" lon="6.83138">
        <ele>844</ele>
        <time>2020-06-05T09:40:52.000Z</time>
      </trkpt>
      <trkpt lat="44.04405" lon="6.83138">
        <ele>844</ele>
        <time>2020-06-05T09:40:53.000Z</time>
      </trkpt>
      <trkpt lat="44.04405" lon="6.83138">
        <ele>844</ele>
        <time>2020-06-05T09:40:54.000Z</time>
      </trkpt>
      <trkpt lat="44.04405" lon="6.83139">
        <ele>844</ele>
        <time>2020-06-05T09:40:55.000Z</time>
      </trkpt>
      <trkpt lat="44.04405" lon="6.83139">
        <ele>844</ele>
        <time>2020-06-05T09:40:56.000Z</time>
      </trkpt>
      <trkpt lat="44.04405" lon="6.83139">
        <ele>843</ele>
        <time>2020-06-05T09:40:57.000Z</time>
      </trkpt>
      <trkpt lat="44.04405" lon="6.83139">
        <ele>843</ele>
        <time>2020-06-05T09:40:58.000Z</time>
      </trkpt>
      <trkpt lat="44.04405" lon="6.83139">
        <ele>843</ele>
        <time>2020-06-05T09:40:59.000Z</time>
      </trkpt>
      <trkpt lat="44.04405" lon="6.83139">
        <ele>843</ele>
        <time>2020-06-05T09:41:00.000Z</time>
      </trkpt>
      <trkpt lat="44.04405" lon="6.8314">
        <ele>843</ele>
        <time>2020-06-05T09:41:01.000Z</time>
      </trkpt>
      <trkpt lat="44.04405" lon="6.8314">
        <ele>843</ele>
        <time>2020-06-05T09:41:02.000Z</time>
      </trkpt>
      <trkpt lat="44.04405" lon="6.8314">
        <ele>843</ele>
        <time>2020-06-05T09:41:03.000Z</time>
      </trkpt>
      <trkpt lat="44.04404" lon="6.83141">
        <ele>843</ele>
        <time>2020-06-05T09:41:04.000Z</time>
      </trkpt>
      <trkpt lat="44.04404" lon="6.83142">
        <ele>843</ele>
        <time>2020-06-05T09:41:05.000Z</time>
      </trkpt>
      <trkpt lat="44.04404" lon="6.83142">
        <ele>842</ele>
        <time>2020-06-05T09:41:06.000Z</time>
      </trkpt>
      <trkpt lat="44.04403" lon="6.83142">
        <ele>842</ele>
        <time>2020-06-05T09:41:07.000Z</time>
      </trkpt>
      <trkpt lat="44.04403" lon="6.83142">
        <ele>842</ele>
        <time>2020-06-05T09:41:08.000Z</time>
      </trkpt>
      <trkpt lat="44.04403" lon="6.83143">
        <ele>842</ele>
        <time>2020-06-05T09:41:09.000Z</time>
      </trkpt>
      <trkpt lat="44.04403" lon="6.83143">
        <ele>842</ele>
        <time>2020-06-05T09:41:10.000Z</time>
      </trkpt>
      <trkpt lat="44.04403" lon="6.83143">
        <ele>842</ele>
        <time>2020-06-05T09:41:11.000Z</time>
      </trkpt>
      <trkpt lat="44.04403" lon="6.83143">
        <ele>842</ele>
        <time>2020-06-05T09:41:12.000Z</time>
      </trkpt>
      <trkpt lat="44.04403" lon="6.83143">
        <ele>841</ele>
        <time>2020-06-05T09:41:13.000Z</time>
      </trkpt>
      <trkpt lat="44.04403" lon="6.83143">
        <ele>841</ele>
        <time>2020-06-05T09:41:14.000Z</time>
      </trkpt>
      <trkpt lat="44.04403" lon="6.83143">
        <ele>841</ele>
        <time>2020-06-05T09:41:15.000Z</time>
      </trkpt>
      <trkpt lat="44.04403" lon="6.83143">
        <ele>841</ele>
        <time>2020-06-05T09:41:16.000Z</time>
      </trkpt>
      <trkpt lat="44.04404" lon="6.83144">
        <ele>841</ele>
        <time>2020-06-05T09:41:17.000Z</time>
      </trkpt>
      <trkpt lat="44.04403" lon="6.83144">
        <ele>841</ele>
        <time>2020-06-05T09:41:18.000Z</time>
      </trkpt>
      <trkpt lat="44.04403" lon="6.83145">
        <ele>840</ele>
        <time>2020-06-05T09:41:19.000Z</time>
      </trkpt>
      <trkpt lat="44.04402" lon="6.83147">
        <ele>840</ele>
        <time>2020-06-05T09:41:20.000Z</time>
      </trkpt>
      <trkpt lat="44.04402" lon="6.83148">
        <ele>840</ele>
        <time>2020-06-05T09:41:21.000Z</time>
      </trkpt>
      <trkpt lat="44.04402" lon="6.83149">
        <ele>840</ele>
        <time>2020-06-05T09:41:22.000Z</time>
      </trkpt>
      <trkpt lat="44.04401" lon="6.8315">
        <ele>839</ele>
        <time>2020-06-05T09:41:23.000Z</time>
      </trkpt>
      <trkpt lat="44.04401" lon="6.83151">
        <ele>839</ele>
        <time>2020-06-05T09:41:24.000Z</time>
      </trkpt>
      <trkpt lat="44.04401" lon="6.83152">
        <ele>839</ele>
        <time>2020-06-05T09:41:25.000Z</time>
      </trkpt>
      <trkpt lat="44.04401" lon="6.83154">
        <ele>839</ele>
        <time>2020-06-05T09:41:26.000Z</time>
      </trkpt>
      <trkpt lat="44.04401" lon="6.83155">
        <ele>838</ele>
        <time>2020-06-05T09:41:27.000Z</time>
      </trkpt>
      <trkpt lat="44.04401" lon="6.83156">
        <ele>838</ele>
        <time>2020-06-05T09:41:28.000Z</time>
      </trkpt>
      <trkpt lat="44.04402" lon="6.83157">
        <ele>838</ele>
        <time>2020-06-05T09:41:29.000Z</time>
      </trkpt>
      <trkpt lat="44.04402" lon="6.83158">
        <ele>838</ele>
        <time>2020-06-05T09:41:30.000Z</time>
      </trkpt>
      <trkpt lat="44.04402" lon="6.83158">
        <ele>838</ele>
        <time>2020-06-05T09:41:31.000Z</time>
      </trkpt>
      <trkpt lat="44.04403" lon="6.83159">
        <ele>838</ele>
        <time>2020-06-05T09:41:32.000Z</time>
      </trkpt>
      <trkpt lat="44.04403" lon="6.8316">
        <ele>837</ele>
        <time>2020-06-05T09:41:33.000Z</time>
      </trkpt>
      <trkpt lat="44.04403" lon="6.83161">
        <ele>837</ele>
        <time>2020-06-05T09:41:34.000Z</time>
      </trkpt>
      <trkpt lat="44.04404" lon="6.83162">
        <ele>837</ele>
        <time>2020-06-05T09:41:35.000Z</time>
      </trkpt>
      <trkpt lat="44.04404" lon="6.83163">
        <ele>837</ele>
        <time>2020-06-05T09:41:36.000Z</time>
      </trkpt>
      <trkpt lat="44.04404" lon="6.83163">
        <ele>837</ele>
        <time>2020-06-05T09:41:37.000Z</time>
      </trkpt>
      <trkpt lat="44.04404" lon="6.83164">
        <ele>837</ele>
        <time>2020-06-05T09:41:38.000Z</time>
      </trkpt>
      <trkpt lat="44.04404" lon="6.83165">
        <ele>836</ele>
        <time>2020-06-05T09:41:39.000Z</time>
      </trkpt>
      <trkpt lat="44.04405" lon="6.83166">
        <ele>836</ele>
        <time>2020-06-05T09:41:40.000Z</time>
      </trkpt>
      <trkpt lat="44.04405" lon="6.83167">
        <ele>836</ele>
        <time>2020-06-05T09:41:41.000Z</time>
      </trkpt>
      <trkpt lat="44.04405" lon="6.83167">
        <ele>836</ele>
        <time>2020-06-05T09:41:42.000Z</time>
      </trkpt>
      <trkpt lat="44.04405" lon="6.83167">
        <ele>836</ele>
        <time>2020-06-05T09:41:43.000Z</time>
      </trkpt>
      <trkpt lat="44.04405" lon="6.83167">
        <ele>836</ele>
        <time>2020-06-05T09:41:44.000Z</time>
      </trkpt>
      <trkpt lat="44.04405" lon="6.83167">
        <ele>836</ele>
        <time>2020-06-05T09:41:45.000Z</time>
      </trkpt>
      <trkpt lat="44.04405" lon="6.83167">
        <ele>836</ele>
        <time>2020-06-05T09:41:46.000Z</time>
      </trkpt>
      <trkpt lat="44.04405" lon="6.83167">
        <ele>836</ele>
        <time>2020-06-05T09:41:47.000Z</time>
      </trkpt>
      <trkpt lat="44.04405" lon="6.83167">
        <ele>836</ele>
        <time>2020-06-05T09:41:48.000Z</time>
      </trkpt>
      <trkpt lat="44.04405" lon="6.83167">
        <ele>836</ele>
        <time>2020-06-05T09:41:49.000Z</time>
      </trkpt>
      <trkpt lat="44.04405" lon="6.83168">
        <ele>836</ele>
        <time>2020-06-05T09:41:50.000Z</time>
      </trkpt>
      <trkpt lat="44.04405" lon="6.83168">
        <ele>836</ele>
        <time>2020-06-05T09:41:51.000Z</time>
      </trkpt>
      <trkpt lat="44.04405" lon="6.83168">
        <ele>836</ele>
        <time>2020-06-05T09:41:52.000Z</time>
      </trkpt>
      <trkpt lat="44.04405" lon="6.83168">
        <ele>836</ele>
        <time>2020-06-05T09:41:53.000Z</time>
      </trkpt>
      <trkpt lat="44.04405" lon="6.83169">
        <ele>836</ele>
        <time>2020-06-05T09:41:54.000Z</time>
      </trkpt>
      <trkpt lat="44.04404" lon="6.8317">
        <ele>836</ele>
        <time>2020-06-05T09:41:55.000Z</time>
      </trkpt>
      <trkpt lat="44.04404" lon="6.83171">
        <ele>836</ele>
        <time>2020-06-05T09:41:56.000Z</time>
      </trkpt>
      <trkpt lat="44.04404" lon="6.83171">
        <ele>836</ele>
        <time>2020-06-05T09:41:57.000Z</time>
      </trkpt>
      <trkpt lat="44.04404" lon="6.83172">
        <ele>836</ele>
        <time>2020-06-05T09:41:58.000Z</time>
      </trkpt>
      <trkpt lat="44.04403" lon="6.83173">
        <ele>836</ele>
        <time>2020-06-05T09:41:59.000Z</time>
      </trkpt>
      <trkpt lat="44.04402" lon="6.83174">
        <ele>836</ele>
        <time>2020-06-05T09:42:00.000Z</time>
      </trkpt>
      <trkpt lat="44.04402" lon="6.83175">
        <ele>836</ele>
        <time>2020-06-05T09:42:01.000Z</time>
      </trkpt>
      <trkpt lat="44.04402" lon="6.83177">
        <ele>836</ele>
        <time>2020-06-05T09:42:02.000Z</time>
      </trkpt>
      <trkpt lat="44.04402" lon="6.83178">
        <ele>836</ele>
        <time>2020-06-05T09:42:03.000Z</time>
      </trkpt>
      <trkpt lat="44.04402" lon="6.83179">
        <ele>835</ele>
        <time>2020-06-05T09:42:04.000Z</time>
      </trkpt>
      <trkpt lat="44.04402" lon="6.8318">
        <ele>835</ele>
        <time>2020-06-05T09:42:05.000Z</time>
      </trkpt>
      <trkpt lat="44.04402" lon="6.83182">
        <ele>835</ele>
        <time>2020-06-05T09:42:06.000Z</time>
      </trkpt>
      <trkpt lat="44.04402" lon="6.83183">
        <ele>835</ele>
        <time>2020-06-05T09:42:07.000Z</time>
      </trkpt>
      <trkpt lat="44.04402" lon="6.83185">
        <ele>835</ele>
        <time>2020-06-05T09:42:08.000Z</time>
      </trkpt>
      <trkpt lat="44.04402" lon="6.83186">
        <ele>835</ele>
        <time>2020-06-05T09:42:09.000Z</time>
      </trkpt>
      <trkpt lat="44.04402" lon="6.83187">
        <ele>835</ele>
        <time>2020-06-05T09:42:10.000Z</time>
      </trkpt>
      <trkpt lat="44.04402" lon="6.83189">
        <ele>835</ele>
        <time>2020-06-05T09:42:11.000Z</time>
      </trkpt>
      <trkpt lat="44.04402" lon="6.8319">
        <ele>835</ele>
        <time>2020-06-05T09:42:12.000Z</time>
      </trkpt>
      <trkpt lat="44.04403" lon="6.83192">
        <ele>835</ele>
        <time>2020-06-05T09:42:13.000Z</time>
      </trkpt>
      <trkpt lat="44.04403" lon="6.83193">
        <ele>835</ele>
        <time>2020-06-05T09:42:14.000Z</time>
      </trkpt>
      <trkpt lat="44.04403" lon="6.83195">
        <ele>835</ele>
        <time>2020-06-05T09:42:15.000Z</time>
      </trkpt>
      <trkpt lat="44.04402" lon="6.83196">
        <ele>835</ele>
        <time>2020-06-05T09:42:16.000Z</time>
      </trkpt>
      <trkpt lat="44.04402" lon="6.83198">
        <ele>835</ele>
        <time>2020-06-05T09:42:17.000Z</time>
      </trkpt>
      <trkpt lat="44.04403" lon="6.83199">
        <ele>835</ele>
        <time>2020-06-05T09:42:18.000Z</time>
      </trkpt>
      <trkpt lat="44.04403" lon="6.832">
        <ele>835</ele>
        <time>2020-06-05T09:42:19.000Z</time>
      </trkpt>
      <trkpt lat="44.04403" lon="6.83201">
        <ele>835</ele>
        <time>2020-06-05T09:42:20.000Z</time>
      </trkpt>
      <trkpt lat="44.04403" lon="6.83202">
        <ele>835</ele>
        <time>2020-06-05T09:42:21.000Z</time>
      </trkpt>
      <trkpt lat="44.04403" lon="6.83203">
        <ele>835</ele>
        <time>2020-06-05T09:42:22.000Z</time>
      </trkpt>
      <trkpt lat="44.04403" lon="6.83204">
        <ele>835</ele>
        <time>2020-06-05T09:42:23.000Z</time>
      </trkpt>
      <trkpt lat="44.04402" lon="6.83205">
        <ele>835</ele>
        <time>2020-06-05T09:42:24.000Z</time>
      </trkpt>
      <trkpt lat="44.04402" lon="6.83206">
        <ele>835</ele>
        <time>2020-06-05T09:42:25.000Z</time>
      </trkpt>
      <trkpt lat="44.04402" lon="6.83207">
        <ele>835</ele>
        <time>2020-06-05T09:42:26.000Z</time>
      </trkpt>
      <trkpt lat="44.04402" lon="6.83208">
        <ele>835</ele>
        <time>2020-06-05T09:42:27.000Z</time>
      </trkpt>
      <trkpt lat="44.04402" lon="6.8321">
        <ele>835</ele>
        <time>2020-06-05T09:42:28.000Z</time>
      </trkpt>
      <trkpt lat="44.04402" lon="6.83211">
        <ele>835</ele>
        <time>2020-06-05T09:42:29.000Z</time>
      </trkpt>
      <trkpt lat="44.04402" lon="6.83212">
        <ele>835</ele>
        <time>2020-06-05T09:42:30.000Z</time>
      </trkpt>
      <trkpt lat="44.04402" lon="6.83214">
        <ele>835</ele>
        <time>2020-06-05T09:42:31.000Z</time>
      </trkpt>
      <trkpt lat="44.04402" lon="6.83215">
        <ele>835</ele>
        <time>2020-06-05T09:42:32.000Z</time>
      </trkpt>
      <trkpt lat="44.04402" lon="6.83217">
        <ele>835</ele>
        <time>2020-06-05T09:42:33.000Z</time>
      </trkpt>
      <trkpt lat="44.04402" lon="6.83218">
        <ele>835</ele>
        <time>2020-06-05T09:42:34.000Z</time>
      </trkpt>
      <trkpt lat="44.04402" lon="6.83219">
        <ele>835</ele>
        <time>2020-06-05T09:42:35.000Z</time>
      </trkpt>
      <trkpt lat="44.04402" lon="6.8322">
        <ele>835</ele>
        <time>2020-06-05T09:42:36.000Z</time>
      </trkpt>
      <trkpt lat="44.04402" lon="6.83222">
        <ele>835</ele>
        <time>2020-06-05T09:42:37.000Z</time>
      </trkpt>
      <trkpt lat="44.04402" lon="6.83223">
        <ele>835</ele>
        <time>2020-06-05T09:42:38.000Z</time>
      </trkpt>
      <trkpt lat="44.04401" lon="6.83224">
        <ele>836</ele>
        <time>2020-06-05T09:42:39.000Z</time>
      </trkpt>
      <trkpt lat="44.04401" lon="6.83226">
        <ele>836</ele>
        <time>2020-06-05T09:42:40.000Z</time>
      </trkpt>
      <trkpt lat="44.04401" lon="6.83227">
        <ele>836</ele>
        <time>2020-06-05T09:42:41.000Z</time>
      </trkpt>
      <trkpt lat="44.044" lon="6.83228">
        <ele>836</ele>
        <time>2020-06-05T09:42:42.000Z</time>
      </trkpt>
      <trkpt lat="44.044" lon="6.83229">
        <ele>836</ele>
        <time>2020-06-05T09:42:43.000Z</time>
      </trkpt>
      <trkpt lat="44.04399" lon="6.8323">
        <ele>836</ele>
        <time>2020-06-05T09:42:44.000Z</time>
      </trkpt>
      <trkpt lat="44.04399" lon="6.83231">
        <ele>836</ele>
        <time>2020-06-05T09:42:45.000Z</time>
      </trkpt>
      <trkpt lat="44.04398" lon="6.83233">
        <ele>836</ele>
        <time>2020-06-05T09:42:46.000Z</time>
      </trkpt>
      <trkpt lat="44.04398" lon="6.83234">
        <ele>836</ele>
        <time>2020-06-05T09:42:47.000Z</time>
      </trkpt>
      <trkpt lat="44.04398" lon="6.83235">
        <ele>836</ele>
        <time>2020-06-05T09:42:48.000Z</time>
      </trkpt>
      <trkpt lat="44.04397" lon="6.83235">
        <ele>836</ele>
        <time>2020-06-05T09:42:49.000Z</time>
      </trkpt>
      <trkpt lat="44.04397" lon="6.83236">
        <ele>836</ele>
        <time>2020-06-05T09:42:50.000Z</time>
      </trkpt>
      <trkpt lat="44.04397" lon="6.83237">
        <ele>836</ele>
        <time>2020-06-05T09:42:51.000Z</time>
      </trkpt>
      <trkpt lat="44.04396" lon="6.83238">
        <ele>836</ele>
        <time>2020-06-05T09:42:52.000Z</time>
      </trkpt>
      <trkpt lat="44.04396" lon="6.83239">
        <ele>836</ele>
        <time>2020-06-05T09:42:53.000Z</time>
      </trkpt>
      <trkpt lat="44.04396" lon="6.8324">
        <ele>836</ele>
        <time>2020-06-05T09:42:54.000Z</time>
      </trkpt>
      <trkpt lat="44.04395" lon="6.83241">
        <ele>836</ele>
        <time>2020-06-05T09:42:55.000Z</time>
      </trkpt>
      <trkpt lat="44.04395" lon="6.83242">
        <ele>836</ele>
        <time>2020-06-05T09:42:56.000Z</time>
      </trkpt>
      <trkpt lat="44.04394" lon="6.83243">
        <ele>837</ele>
        <time>2020-06-05T09:42:57.000Z</time>
      </trkpt>
      <trkpt lat="44.04394" lon="6.83244">
        <ele>837</ele>
        <time>2020-06-05T09:42:58.000Z</time>
      </trkpt>
      <trkpt lat="44.04393" lon="6.83245">
        <ele>837</ele>
        <time>2020-06-05T09:42:59.000Z</time>
      </trkpt>
      <trkpt lat="44.04393" lon="6.83246">
        <ele>837</ele>
        <time>2020-06-05T09:43:00.000Z</time>
      </trkpt>
      <trkpt lat="44.04393" lon="6.83247">
        <ele>837</ele>
        <time>2020-06-05T09:43:01.000Z</time>
      </trkpt>
      <trkpt lat="44.04392" lon="6.83248">
        <ele>837</ele>
        <time>2020-06-05T09:43:02.000Z</time>
      </trkpt>
      <trkpt lat="44.04392" lon="6.8325">
        <ele>837</ele>
        <time>2020-06-05T09:43:03.000Z</time>
      </trkpt>
      <trkpt lat="44.04392" lon="6.83251">
        <ele>837</ele>
        <time>2020-06-05T09:43:04.000Z</time>
      </trkpt>
      <trkpt lat="44.04392" lon="6.83252">
        <ele>837</ele>
        <time>2020-06-05T09:43:05.000Z</time>
      </trkpt>
      <trkpt lat="44.04391" lon="6.83253">
        <ele>837</ele>
        <time>2020-06-05T09:43:06.000Z</time>
      </trkpt>
      <trkpt lat="44.04391" lon="6.83254">
        <ele>837</ele>
        <time>2020-06-05T09:43:07.000Z</time>
      </trkpt>
      <trkpt lat="44.04391" lon="6.83255">
        <ele>837</ele>
        <time>2020-06-05T09:43:08.000Z</time>
      </trkpt>
      <trkpt lat="44.0439" lon="6.83256">
        <ele>837</ele>
        <time>2020-06-05T09:43:09.000Z</time>
      </trkpt>
      <trkpt lat="44.0439" lon="6.83257">
        <ele>837</ele>
        <time>2020-06-05T09:43:10.000Z</time>
      </trkpt>
      <trkpt lat="44.0439" lon="6.83258">
        <ele>837</ele>
        <time>2020-06-05T09:43:11.000Z</time>
      </trkpt>
      <trkpt lat="44.0439" lon="6.83259">
        <ele>838</ele>
        <time>2020-06-05T09:43:12.000Z</time>
      </trkpt>
      <trkpt lat="44.04389" lon="6.83259">
        <ele>838</ele>
        <time>2020-06-05T09:43:13.000Z</time>
      </trkpt>
      <trkpt lat="44.04389" lon="6.8326">
        <ele>838</ele>
        <time>2020-06-05T09:43:14.000Z</time>
      </trkpt>
      <trkpt lat="44.04389" lon="6.8326">
        <ele>838</ele>
        <time>2020-06-05T09:43:15.000Z</time>
      </trkpt>
      <trkpt lat="44.04389" lon="6.8326">
        <ele>838</ele>
        <time>2020-06-05T09:43:16.000Z</time>
      </trkpt>
      <trkpt lat="44.04389" lon="6.8326">
        <ele>838</ele>
        <time>2020-06-05T09:43:17.000Z</time>
      </trkpt>
      <trkpt lat="44.04388" lon="6.8326">
        <ele>838</ele>
        <time>2020-06-05T09:43:18.000Z</time>
      </trkpt>
      <trkpt lat="44.04388" lon="6.83261">
        <ele>838</ele>
        <time>2020-06-05T09:43:19.000Z</time>
      </trkpt>
      <trkpt lat="44.04388" lon="6.83261">
        <ele>838</ele>
        <time>2020-06-05T09:43:20.000Z</time>
      </trkpt>
      <trkpt lat="44.04388" lon="6.83261">
        <ele>838</ele>
        <time>2020-06-05T09:43:21.000Z</time>
      </trkpt>
      <trkpt lat="44.04388" lon="6.83261">
        <ele>839</ele>
        <time>2020-06-05T09:43:22.000Z</time>
      </trkpt>
      <trkpt lat="44.04388" lon="6.83261">
        <ele>839</ele>
        <time>2020-06-05T09:43:23.000Z</time>
      </trkpt>
      <trkpt lat="44.04387" lon="6.83261">
        <ele>839</ele>
        <time>2020-06-05T09:43:24.000Z</time>
      </trkpt>
      <trkpt lat="44.04387" lon="6.83262">
        <ele>839</ele>
        <time>2020-06-05T09:43:25.000Z</time>
      </trkpt>
      <trkpt lat="44.04387" lon="6.83262">
        <ele>839</ele>
        <time>2020-06-05T09:43:26.000Z</time>
      </trkpt>
      <trkpt lat="44.04387" lon="6.83262">
        <ele>839</ele>
        <time>2020-06-05T09:43:27.000Z</time>
      </trkpt>
      <trkpt lat="44.04387" lon="6.83263">
        <ele>839</ele>
        <time>2020-06-05T09:43:28.000Z</time>
      </trkpt>
      <trkpt lat="44.04387" lon="6.83264">
        <ele>839</ele>
        <time>2020-06-05T09:43:29.000Z</time>
      </trkpt>
      <trkpt lat="44.04387" lon="6.83264">
        <ele>839</ele>
        <time>2020-06-05T09:43:30.000Z</time>
      </trkpt>
      <trkpt lat="44.04386" lon="6.83265">
        <ele>839</ele>
        <time>2020-06-05T09:43:31.000Z</time>
      </trkpt>
      <trkpt lat="44.04386" lon="6.83265">
        <ele>839</ele>
        <time>2020-06-05T09:43:32.000Z</time>
      </trkpt>
      <trkpt lat="44.04386" lon="6.83265">
        <ele>839</ele>
        <time>2020-06-05T09:43:33.000Z</time>
      </trkpt>
      <trkpt lat="44.04386" lon="6.83265">
        <ele>839</ele>
        <time>2020-06-05T09:43:34.000Z</time>
      </trkpt>
      <trkpt lat="44.04386" lon="6.83265">
        <ele>839</ele>
        <time>2020-06-05T09:43:35.000Z</time>
      </trkpt>
      <trkpt lat="44.04386" lon="6.83265">
        <ele>839</ele>
        <time>2020-06-05T09:43:36.000Z</time>
      </trkpt>
      <trkpt lat="44.04386" lon="6.83266">
        <ele>839</ele>
        <time>2020-06-05T09:43:37.000Z</time>
      </trkpt>
      <trkpt lat="44.04386" lon="6.83266">
        <ele>839</ele>
        <time>2020-06-05T09:43:38.000Z</time>
      </trkpt>
      <trkpt lat="44.04386" lon="6.83266">
        <ele>839</ele>
        <time>2020-06-05T09:43:39.000Z</time>
      </trkpt>
      <trkpt lat="44.04386" lon="6.83266">
        <ele>839</ele>
        <time>2020-06-05T09:43:40.000Z</time>
      </trkpt>
      <trkpt lat="44.04385" lon="6.83267">
        <ele>839</ele>
        <time>2020-06-05T09:43:41.000Z</time>
      </trkpt>
      <trkpt lat="44.04385" lon="6.83267">
        <ele>839</ele>
        <time>2020-06-05T09:43:42.000Z</time>
      </trkpt>
      <trkpt lat="44.04385" lon="6.83268">
        <ele>839</ele>
        <time>2020-06-05T09:43:43.000Z</time>
      </trkpt>
      <trkpt lat="44.04385" lon="6.83269">
        <ele>839</ele>
        <time>2020-06-05T09:43:44.000Z</time>
      </trkpt>
      <trkpt lat="44.04385" lon="6.83269">
        <ele>839</ele>
        <time>2020-06-05T09:43:45.000Z</time>
      </trkpt>
      <trkpt lat="44.04384" lon="6.83269">
        <ele>839</ele>
        <time>2020-06-05T09:43:46.000Z</time>
      </trkpt>
      <trkpt lat="44.04384" lon="6.83269">
        <ele>840</ele>
        <time>2020-06-05T09:43:47.000Z</time>
      </trkpt>
      <trkpt lat="44.04384" lon="6.83269">
        <ele>840</ele>
        <time>2020-06-05T09:43:48.000Z</time>
      </trkpt>
      <trkpt lat="44.04384" lon="6.83269">
        <ele>840</ele>
        <time>2020-06-05T09:43:49.000Z</time>
      </trkpt>
      <trkpt lat="44.04384" lon="6.83269">
        <ele>840</ele>
        <time>2020-06-05T09:43:50.000Z</time>
      </trkpt>
      <trkpt lat="44.04384" lon="6.83269">
        <ele>840</ele>
        <time>2020-06-05T09:43:51.000Z</time>
      </trkpt>
      <trkpt lat="44.04384" lon="6.8327">
        <ele>840</ele>
        <time>2020-06-05T09:43:52.000Z</time>
      </trkpt>
      <trkpt lat="44.04384" lon="6.8327">
        <ele>840</ele>
        <time>2020-06-05T09:43:53.000Z</time>
      </trkpt>
      <trkpt lat="44.04384" lon="6.8327">
        <ele>840</ele>
        <time>2020-06-05T09:43:54.000Z</time>
      </trkpt>
      <trkpt lat="44.04384" lon="6.8327">
        <ele>840</ele>
        <time>2020-06-05T09:43:55.000Z</time>
      </trkpt>
      <trkpt lat="44.04384" lon="6.8327">
        <ele>840</ele>
        <time>2020-06-05T09:43:56.000Z</time>
      </trkpt>
      <trkpt lat="44.04384" lon="6.8327">
        <ele>840</ele>
        <time>2020-06-05T09:43:57.000Z</time>
      </trkpt>
      <trkpt lat="44.04384" lon="6.8327">
        <ele>840</ele>
        <time>2020-06-05T09:43:58.000Z</time>
      </trkpt>
      <trkpt lat="44.04384" lon="6.8327">
        <ele>840</ele>
        <time>2020-06-05T09:43:59.000Z</time>
      </trkpt>
      <trkpt lat="44.04384" lon="6.8327">
        <ele>840</ele>
        <time>2020-06-05T09:44:00.000Z</time>
      </trkpt>
      <trkpt lat="44.04384" lon="6.8327">
        <ele>840</ele>
        <time>2020-06-05T09:44:01.000Z</time>
      </trkpt>
      <trkpt lat="44.04383" lon="6.8327">
        <ele>840</ele>
        <time>2020-06-05T09:44:02.000Z</time>
      </trkpt>
      <trkpt lat="44.04383" lon="6.8327">
        <ele>840</ele>
        <time>2020-06-05T09:44:03.000Z</time>
      </trkpt>
      <trkpt lat="44.04383" lon="6.8327">
        <ele>840</ele>
        <time>2020-06-05T09:44:04.000Z</time>
      </trkpt>
      <trkpt lat="44.04383" lon="6.8327">
        <ele>840</ele>
        <time>2020-06-05T09:44:05.000Z</time>
      </trkpt>
      <trkpt lat="44.04383" lon="6.8327">
        <ele>840</ele>
        <time>2020-06-05T09:44:06.000Z</time>
      </trkpt>
      <trkpt lat="44.04383" lon="6.8327">
        <ele>840</ele>
        <time>2020-06-05T09:44:07.000Z</time>
      </trkpt>
      <trkpt lat="44.04383" lon="6.8327">
        <ele>840</ele>
        <time>2020-06-05T09:44:08.000Z</time>
      </trkpt>
      <trkpt lat="44.04383" lon="6.8327">
        <ele>840</ele>
        <time>2020-06-05T09:44:09.000Z</time>
      </trkpt>
      <trkpt lat="44.04383" lon="6.8327">
        <ele>840</ele>
        <time>2020-06-05T09:44:10.000Z</time>
      </trkpt>
      <trkpt lat="44.04383" lon="6.8327">
        <ele>840</ele>
        <time>2020-06-05T09:44:11.000Z</time>
      </trkpt>
      <trkpt lat="44.04383" lon="6.8327">
        <ele>840</ele>
        <time>2020-06-05T09:44:12.000Z</time>
      </trkpt>
      <trkpt lat="44.04383" lon="6.8327">
        <ele>840</ele>
        <time>2020-06-05T09:44:13.000Z</time>
      </trkpt>
      <trkpt lat="44.04383" lon="6.8327">
        <ele>840</ele>
        <time>2020-06-05T09:44:14.000Z</time>
      </trkpt>
      <trkpt lat="44.04383" lon="6.8327">
        <ele>840</ele>
        <time>2020-06-05T09:44:15.000Z</time>
      </trkpt>
      <trkpt lat="44.04383" lon="6.8327">
        <ele>840</ele>
        <time>2020-06-05T09:44:16.000Z</time>
      </trkpt>
      <trkpt lat="44.04383" lon="6.8327">
        <ele>840</ele>
        <time>2020-06-05T09:44:17.000Z</time>
      </trkpt>
      <trkpt lat="44.04383" lon="6.8327">
        <ele>840</ele>
        <time>2020-06-05T09:44:18.000Z</time>
      </trkpt>
      <trkpt lat="44.04383" lon="6.8327">
        <ele>840</ele>
        <time>2020-06-05T09:44:19.000Z</time>
      </trkpt>
      <trkpt lat="44.04383" lon="6.8327">
        <ele>840</ele>
        <time>2020-06-05T09:44:20.000Z</time>
      </trkpt>
      <trkpt lat="44.04383" lon="6.8327">
        <ele>840</ele>
        <time>2020-06-05T09:44:21.000Z</time>
      </trkpt>
      <trkpt lat="44.04383" lon="6.8327">
        <ele>840</ele>
        <time>2020-06-05T09:44:22.000Z</time>
      </trkpt>
      <trkpt lat="44.04383" lon="6.8327">
        <ele>840</ele>
        <time>2020-06-05T09:44:23.000Z</time>
      </trkpt>
      <trkpt lat="44.04383" lon="6.8327">
        <ele>840</ele>
        <time>2020-06-05T09:44:24.000Z</time>
      </trkpt>
      <trkpt lat="44.04383" lon="6.8327">
        <ele>840</ele>
        <time>2020-06-05T09:44:25.000Z</time>
      </trkpt>
      <trkpt lat="44.04383" lon="6.8327">
        <ele>840</ele>
        <time>2020-06-05T09:44:26.000Z</time>
      </trkpt>
      <trkpt lat="44.04383" lon="6.8327">
        <ele>840</ele>
        <time>2020-06-05T09:44:27.000Z</time>
      </trkpt>
      <trkpt lat="44.04383" lon="6.8327">
        <ele>840</ele>
        <time>2020-06-05T09:44:28.000Z</time>
      </trkpt>
      <trkpt lat="44.04383" lon="6.8327">
        <ele>840</ele>
        <time>2020-06-05T09:44:29.000Z</time>
      </trkpt>
      <trkpt lat="44.04383" lon="6.8327">
        <ele>840</ele>
        <time>2020-06-05T09:44:30.000Z</time>
      </trkpt>
      <trkpt lat="44.04383" lon="6.8327">
        <ele>840</ele>
        <time>2020-06-05T09:44:31.000Z</time>
      </trkpt>
      <trkpt lat="44.04383" lon="6.8327">
        <ele>840</ele>
        <time>2020-06-05T09:44:32.000Z</time>
      </trkpt>
      <trkpt lat="44.04383" lon="6.8327">
        <ele>840</ele>
        <time>2020-06-05T09:44:33.000Z</time>
      </trkpt>
      <trkpt lat="44.04382" lon="6.83271">
        <ele>840</ele>
        <time>2020-06-05T09:44:34.000Z</time>
      </trkpt>
      <trkpt lat="44.04381" lon="6.83271">
        <ele>840</ele>
        <time>2020-06-05T09:44:35.000Z</time>
      </trkpt>
      <trkpt lat="44.0438" lon="6.83272">
        <ele>840</ele>
        <time>2020-06-05T09:44:36.000Z</time>
      </trkpt>
      <trkpt lat="44.0438" lon="6.83272">
        <ele>840</ele>
        <time>2020-06-05T09:44:37.000Z</time>
      </trkpt>
      <trkpt lat="44.04379" lon="6.83273">
        <ele>840</ele>
        <time>2020-06-05T09:44:38.000Z</time>
      </trkpt>
      <trkpt lat="44.04378" lon="6.83273">
        <ele>840</ele>
        <time>2020-06-05T09:44:39.000Z</time>
      </trkpt>
      <trkpt lat="44.04378" lon="6.83273">
        <ele>840</ele>
        <time>2020-06-05T09:44:40.000Z</time>
      </trkpt>
      <trkpt lat="44.04378" lon="6.83273">
        <ele>840</ele>
        <time>2020-06-05T09:44:41.000Z</time>
      </trkpt>
      <trkpt lat="44.04377" lon="6.83273">
        <ele>840</ele>
        <time>2020-06-05T09:44:42.000Z</time>
      </trkpt>
      <trkpt lat="44.04377" lon="6.83274">
        <ele>839</ele>
        <time>2020-06-05T09:44:43.000Z</time>
      </trkpt>
      <trkpt lat="44.04376" lon="6.83275">
        <ele>839</ele>
        <time>2020-06-05T09:44:44.000Z</time>
      </trkpt>
      <trkpt lat="44.04376" lon="6.83275">
        <ele>839</ele>
        <time>2020-06-05T09:44:45.000Z</time>
      </trkpt>
      <trkpt lat="44.04376" lon="6.83276">
        <ele>839</ele>
        <time>2020-06-05T09:44:46.000Z</time>
      </trkpt>
      <trkpt lat="44.04376" lon="6.83276">
        <ele>840</ele>
        <time>2020-06-05T09:44:47.000Z</time>
      </trkpt>
      <trkpt lat="44.04376" lon="6.83276">
        <ele>840</ele>
        <time>2020-06-05T09:44:48.000Z</time>
      </trkpt>
      <trkpt lat="44.04375" lon="6.83277">
        <ele>840</ele>
        <time>2020-06-05T09:44:49.000Z</time>
      </trkpt>
      <trkpt lat="44.04375" lon="6.83277">
        <ele>840</ele>
        <time>2020-06-05T09:44:50.000Z</time>
      </trkpt>
      <trkpt lat="44.04375" lon="6.83278">
        <ele>840</ele>
        <time>2020-06-05T09:44:51.000Z</time>
      </trkpt>
      <trkpt lat="44.04374" lon="6.83278">
        <ele>840</ele>
        <time>2020-06-05T09:44:52.000Z</time>
      </trkpt>
      <trkpt lat="44.04374" lon="6.83278">
        <ele>840</ele>
        <time>2020-06-05T09:44:53.000Z</time>
      </trkpt>
      <trkpt lat="44.04374" lon="6.83278">
        <ele>840</ele>
        <time>2020-06-05T09:44:54.000Z</time>
      </trkpt>
      <trkpt lat="44.04374" lon="6.83278">
        <ele>840</ele>
        <time>2020-06-05T09:44:55.000Z</time>
      </trkpt>
      <trkpt lat="44.04373" lon="6.83278">
        <ele>840</ele>
        <time>2020-06-05T09:44:56.000Z</time>
      </trkpt>
      <trkpt lat="44.04373" lon="6.83278">
        <ele>840</ele>
        <time>2020-06-05T09:44:57.000Z</time>
      </trkpt>
      <trkpt lat="44.04373" lon="6.83278">
        <ele>840</ele>
        <time>2020-06-05T09:44:58.000Z</time>
      </trkpt>
      <trkpt lat="44.04373" lon="6.83278">
        <ele>840</ele>
        <time>2020-06-05T09:44:59.000Z</time>
      </trkpt>
      <trkpt lat="44.04373" lon="6.83279">
        <ele>840</ele>
        <time>2020-06-05T09:45:00.000Z</time>
      </trkpt>
      <trkpt lat="44.04373" lon="6.83279">
        <ele>840</ele>
        <time>2020-06-05T09:45:01.000Z</time>
      </trkpt>
      <trkpt lat="44.04373" lon="6.83279">
        <ele>840</ele>
        <time>2020-06-05T09:45:02.000Z</time>
      </trkpt>
      <trkpt lat="44.04373" lon="6.83279">
        <ele>840</ele>
        <time>2020-06-05T09:45:03.000Z</time>
      </trkpt>
      <trkpt lat="44.04373" lon="6.83279">
        <ele>840</ele>
        <time>2020-06-05T09:45:04.000Z</time>
      </trkpt>
      <trkpt lat="44.04373" lon="6.83279">
        <ele>840</ele>
        <time>2020-06-05T09:45:05.000Z</time>
      </trkpt>
      <trkpt lat="44.04373" lon="6.83279">
        <ele>840</ele>
        <time>2020-06-05T09:45:06.000Z</time>
      </trkpt>
      <trkpt lat="44.04373" lon="6.83279">
        <ele>840</ele>
        <time>2020-06-05T09:45:07.000Z</time>
      </trkpt>
      <trkpt lat="44.04373" lon="6.83279">
        <ele>840</ele>
        <time>2020-06-05T09:45:08.000Z</time>
      </trkpt>
      <trkpt lat="44.04373" lon="6.83279">
        <ele>840</ele>
        <time>2020-06-05T09:45:09.000Z</time>
      </trkpt>
      <trkpt lat="44.04373" lon="6.83279">
        <ele>840</ele>
        <time>2020-06-05T09:45:10.000Z</time>
      </trkpt>
      <trkpt lat="44.04373" lon="6.83279">
        <ele>840</ele>
        <time>2020-06-05T09:45:11.000Z</time>
      </trkpt>
      <trkpt lat="44.04373" lon="6.8328">
        <ele>840</ele>
        <time>2020-06-05T09:45:12.000Z</time>
      </trkpt>
      <trkpt lat="44.04373" lon="6.83281">
        <ele>840</ele>
        <time>2020-06-05T09:45:13.000Z</time>
      </trkpt>
      <trkpt lat="44.04372" lon="6.83282">
        <ele>840</ele>
        <time>2020-06-05T09:45:14.000Z</time>
      </trkpt>
      <trkpt lat="44.04372" lon="6.83282">
        <ele>840</ele>
        <time>2020-06-05T09:45:15.000Z</time>
      </trkpt>
      <trkpt lat="44.04371" lon="6.83284">
        <ele>840</ele>
        <time>2020-06-05T09:45:16.000Z</time>
      </trkpt>
      <trkpt lat="44.04371" lon="6.83285">
        <ele>840</ele>
        <time>2020-06-05T09:45:17.000Z</time>
      </trkpt>
      <trkpt lat="44.0437" lon="6.83286">
        <ele>840</ele>
        <time>2020-06-05T09:45:18.000Z</time>
      </trkpt>
      <trkpt lat="44.0437" lon="6.83288">
        <ele>840</ele>
        <time>2020-06-05T09:45:19.000Z</time>
      </trkpt>
      <trkpt lat="44.04369" lon="6.83289">
        <ele>840</ele>
        <time>2020-06-05T09:45:20.000Z</time>
      </trkpt>
      <trkpt lat="44.04369" lon="6.83289">
        <ele>840</ele>
        <time>2020-06-05T09:45:21.000Z</time>
      </trkpt>
      <trkpt lat="44.04369" lon="6.83289">
        <ele>840</ele>
        <time>2020-06-05T09:45:22.000Z</time>
      </trkpt>
      <trkpt lat="44.04369" lon="6.83289">
        <ele>840</ele>
        <time>2020-06-05T09:45:23.000Z</time>
      </trkpt>
      <trkpt lat="44.04369" lon="6.83289">
        <ele>840</ele>
        <time>2020-06-05T09:45:24.000Z</time>
      </trkpt>
      <trkpt lat="44.04369" lon="6.83289">
        <ele>840</ele>
        <time>2020-06-05T09:45:25.000Z</time>
      </trkpt>
      <trkpt lat="44.04369" lon="6.83289">
        <ele>840</ele>
        <time>2020-06-05T09:45:26.000Z</time>
      </trkpt>
      <trkpt lat="44.04369" lon="6.83289">
        <ele>840</ele>
        <time>2020-06-05T09:45:27.000Z</time>
      </trkpt>
      <trkpt lat="44.04369" lon="6.83289">
        <ele>840</ele>
        <time>2020-06-05T09:45:28.000Z</time>
      </trkpt>
      <trkpt lat="44.04369" lon="6.83289">
        <ele>840</ele>
        <time>2020-06-05T09:45:29.000Z</time>
      </trkpt>
      <trkpt lat="44.04369" lon="6.83289">
        <ele>840</ele>
        <time>2020-06-05T09:45:30.000Z</time>
      </trkpt>
      <trkpt lat="44.04369" lon="6.83289">
        <ele>840</ele>
        <time>2020-06-05T09:45:31.000Z</time>
      </trkpt>
      <trkpt lat="44.04369" lon="6.83289">
        <ele>840</ele>
        <time>2020-06-05T09:45:32.000Z</time>
      </trkpt>
      <trkpt lat="44.04369" lon="6.8329">
        <ele>840</ele>
        <time>2020-06-05T09:45:33.000Z</time>
      </trkpt>
      <trkpt lat="44.04369" lon="6.83291">
        <ele>840</ele>
        <time>2020-06-05T09:45:34.000Z</time>
      </trkpt>
      <trkpt lat="44.04368" lon="6.83292">
        <ele>840</ele>
        <time>2020-06-05T09:45:35.000Z</time>
      </trkpt>
      <trkpt lat="44.04368" lon="6.83293">
        <ele>840</ele>
        <time>2020-06-05T09:45:36.000Z</time>
      </trkpt>
      <trkpt lat="44.04368" lon="6.83294">
        <ele>840</ele>
        <time>2020-06-05T09:45:37.000Z</time>
      </trkpt>
      <trkpt lat="44.04368" lon="6.83296">
        <ele>840</ele>
        <time>2020-06-05T09:45:38.000Z</time>
      </trkpt>
      <trkpt lat="44.04368" lon="6.83297">
        <ele>840</ele>
        <time>2020-06-05T09:45:39.000Z</time>
      </trkpt>
      <trkpt lat="44.04367" lon="6.83298">
        <ele>840</ele>
        <time>2020-06-05T09:45:40.000Z</time>
      </trkpt>
      <trkpt lat="44.04367" lon="6.833">
        <ele>840</ele>
        <time>2020-06-05T09:45:41.000Z</time>
      </trkpt>
      <trkpt lat="44.04366" lon="6.83301">
        <ele>841</ele>
        <time>2020-06-05T09:45:42.000Z</time>
      </trkpt>
      <trkpt lat="44.04366" lon="6.83303">
        <ele>841</ele>
        <time>2020-06-05T09:45:43.000Z</time>
      </trkpt>
      <trkpt lat="44.04365" lon="6.83304">
        <ele>841</ele>
        <time>2020-06-05T09:45:44.000Z</time>
      </trkpt>
      <trkpt lat="44.04365" lon="6.83305">
        <ele>841</ele>
        <time>2020-06-05T09:45:45.000Z</time>
      </trkpt>
      <trkpt lat="44.04365" lon="6.83306">
        <ele>842</ele>
        <time>2020-06-05T09:45:46.000Z</time>
      </trkpt>
      <trkpt lat="44.04364" lon="6.83308">
        <ele>842</ele>
        <time>2020-06-05T09:45:47.000Z</time>
      </trkpt>
      <trkpt lat="44.04364" lon="6.83309">
        <ele>842</ele>
        <time>2020-06-05T09:45:48.000Z</time>
      </trkpt>
      <trkpt lat="44.04363" lon="6.83311">
        <ele>842</ele>
        <time>2020-06-05T09:45:49.000Z</time>
      </trkpt>
      <trkpt lat="44.04362" lon="6.83312">
        <ele>842</ele>
        <time>2020-06-05T09:45:50.000Z</time>
      </trkpt>
      <trkpt lat="44.04362" lon="6.83313">
        <ele>842</ele>
        <time>2020-06-05T09:45:51.000Z</time>
      </trkpt>
      <trkpt lat="44.04361" lon="6.83315">
        <ele>843</ele>
        <time>2020-06-05T09:45:52.000Z</time>
      </trkpt>
      <trkpt lat="44.04361" lon="6.83316">
        <ele>843</ele>
        <time>2020-06-05T09:45:53.000Z</time>
      </trkpt>
      <trkpt lat="44.04361" lon="6.83317">
        <ele>843</ele>
        <time>2020-06-05T09:45:54.000Z</time>
      </trkpt>
      <trkpt lat="44.0436" lon="6.83318">
        <ele>843</ele>
        <time>2020-06-05T09:45:55.000Z</time>
      </trkpt>
      <trkpt lat="44.04359" lon="6.83319">
        <ele>843</ele>
        <time>2020-06-05T09:45:56.000Z</time>
      </trkpt>
      <trkpt lat="44.04359" lon="6.8332">
        <ele>843</ele>
        <time>2020-06-05T09:45:57.000Z</time>
      </trkpt>
      <trkpt lat="44.04359" lon="6.83322">
        <ele>843</ele>
        <time>2020-06-05T09:45:58.000Z</time>
      </trkpt>
      <trkpt lat="44.04358" lon="6.83323">
        <ele>844</ele>
        <time>2020-06-05T09:45:59.000Z</time>
      </trkpt>
      <trkpt lat="44.04358" lon="6.83324">
        <ele>844</ele>
        <time>2020-06-05T09:46:00.000Z</time>
      </trkpt>
      <trkpt lat="44.04358" lon="6.83324">
        <ele>844</ele>
        <time>2020-06-05T09:46:01.000Z</time>
      </trkpt>
      <trkpt lat="44.04358" lon="6.83324">
        <ele>844</ele>
        <time>2020-06-05T09:46:02.000Z</time>
      </trkpt>
      <trkpt lat="44.04358" lon="6.83324">
        <ele>844</ele>
        <time>2020-06-05T09:46:03.000Z</time>
      </trkpt>
      <trkpt lat="44.04358" lon="6.83324">
        <ele>844</ele>
        <time>2020-06-05T09:46:04.000Z</time>
      </trkpt>
      <trkpt lat="44.04358" lon="6.83324">
        <ele>844</ele>
        <time>2020-06-05T09:46:05.000Z</time>
      </trkpt>
      <trkpt lat="44.04358" lon="6.83325">
        <ele>844</ele>
        <time>2020-06-05T09:46:06.000Z</time>
      </trkpt>
      <trkpt lat="44.04357" lon="6.83325">
        <ele>844</ele>
        <time>2020-06-05T09:46:07.000Z</time>
      </trkpt>
      <trkpt lat="44.04357" lon="6.83326">
        <ele>844</ele>
        <time>2020-06-05T09:46:08.000Z</time>
      </trkpt>
      <trkpt lat="44.04357" lon="6.83327">
        <ele>844</ele>
        <time>2020-06-05T09:46:09.000Z</time>
      </trkpt>
      <trkpt lat="44.04357" lon="6.83329">
        <ele>844</ele>
        <time>2020-06-05T09:46:10.000Z</time>
      </trkpt>
      <trkpt lat="44.04357" lon="6.8333">
        <ele>845</ele>
        <time>2020-06-05T09:46:11.000Z</time>
      </trkpt>
      <trkpt lat="44.04357" lon="6.83331">
        <ele>845</ele>
        <time>2020-06-05T09:46:12.000Z</time>
      </trkpt>
      <trkpt lat="44.04356" lon="6.83332">
        <ele>845</ele>
        <time>2020-06-05T09:46:13.000Z</time>
      </trkpt>
      <trkpt lat="44.04356" lon="6.83333">
        <ele>845</ele>
        <time>2020-06-05T09:46:14.000Z</time>
      </trkpt>
      <trkpt lat="44.04355" lon="6.83334">
        <ele>846</ele>
        <time>2020-06-05T09:46:15.000Z</time>
      </trkpt>
      <trkpt lat="44.04355" lon="6.83335">
        <ele>846</ele>
        <time>2020-06-05T09:46:16.000Z</time>
      </trkpt>
      <trkpt lat="44.04355" lon="6.83336">
        <ele>846</ele>
        <time>2020-06-05T09:46:17.000Z</time>
      </trkpt>
      <trkpt lat="44.04355" lon="6.83337">
        <ele>846</ele>
        <time>2020-06-05T09:46:18.000Z</time>
      </trkpt>
      <trkpt lat="44.04355" lon="6.83338">
        <ele>847</ele>
        <time>2020-06-05T09:46:19.000Z</time>
      </trkpt>
      <trkpt lat="44.04355" lon="6.83339">
        <ele>847</ele>
        <time>2020-06-05T09:46:20.000Z</time>
      </trkpt>
      <trkpt lat="44.04355" lon="6.8334">
        <ele>847</ele>
        <time>2020-06-05T09:46:21.000Z</time>
      </trkpt>
      <trkpt lat="44.04355" lon="6.83341">
        <ele>847</ele>
        <time>2020-06-05T09:46:22.000Z</time>
      </trkpt>
      <trkpt lat="44.04355" lon="6.83342">
        <ele>847</ele>
        <time>2020-06-05T09:46:23.000Z</time>
      </trkpt>
      <trkpt lat="44.04355" lon="6.83343">
        <ele>848</ele>
        <time>2020-06-05T09:46:24.000Z</time>
      </trkpt>
      <trkpt lat="44.04355" lon="6.83344">
        <ele>848</ele>
        <time>2020-06-05T09:46:25.000Z</time>
      </trkpt>
      <trkpt lat="44.04355" lon="6.83345">
        <ele>848</ele>
        <time>2020-06-05T09:46:26.000Z</time>
      </trkpt>
      <trkpt lat="44.04355" lon="6.83346">
        <ele>848</ele>
        <time>2020-06-05T09:46:27.000Z</time>
      </trkpt>
      <trkpt lat="44.04355" lon="6.83346">
        <ele>849</ele>
        <time>2020-06-05T09:46:28.000Z</time>
      </trkpt>
      <trkpt lat="44.04356" lon="6.83347">
        <ele>849</ele>
        <time>2020-06-05T09:46:29.000Z</time>
      </trkpt>
      <trkpt lat="44.04356" lon="6.83347">
        <ele>849</ele>
        <time>2020-06-05T09:46:30.000Z</time>
      </trkpt>
      <trkpt lat="44.04356" lon="6.83348">
        <ele>849</ele>
        <time>2020-06-05T09:46:31.000Z</time>
      </trkpt>
      <trkpt lat="44.04356" lon="6.8335">
        <ele>849</ele>
        <time>2020-06-05T09:46:32.000Z</time>
      </trkpt>
      <trkpt lat="44.04356" lon="6.83351">
        <ele>849</ele>
        <time>2020-06-05T09:46:33.000Z</time>
      </trkpt>
      <trkpt lat="44.04356" lon="6.83352">
        <ele>850</ele>
        <time>2020-06-05T09:46:34.000Z</time>
      </trkpt>
      <trkpt lat="44.04356" lon="6.83353">
        <ele>850</ele>
        <time>2020-06-05T09:46:35.000Z</time>
      </trkpt>
      <trkpt lat="44.04356" lon="6.83353">
        <ele>850</ele>
        <time>2020-06-05T09:46:36.000Z</time>
      </trkpt>
      <trkpt lat="44.04356" lon="6.83354">
        <ele>850</ele>
        <time>2020-06-05T09:46:37.000Z</time>
      </trkpt>
      <trkpt lat="44.04356" lon="6.83355">
        <ele>850</ele>
        <time>2020-06-05T09:46:38.000Z</time>
      </trkpt>
      <trkpt lat="44.04356" lon="6.83356">
        <ele>850</ele>
        <time>2020-06-05T09:46:39.000Z</time>
      </trkpt>
      <trkpt lat="44.04356" lon="6.83357">
        <ele>851</ele>
        <time>2020-06-05T09:46:40.000Z</time>
      </trkpt>
      <trkpt lat="44.04356" lon="6.83358">
        <ele>851</ele>
        <time>2020-06-05T09:46:41.000Z</time>
      </trkpt>
      <trkpt lat="44.04356" lon="6.83359">
        <ele>851</ele>
        <time>2020-06-05T09:46:42.000Z</time>
      </trkpt>
      <trkpt lat="44.04356" lon="6.8336">
        <ele>851</ele>
        <time>2020-06-05T09:46:43.000Z</time>
      </trkpt>
      <trkpt lat="44.04357" lon="6.83361">
        <ele>851</ele>
        <time>2020-06-05T09:46:44.000Z</time>
      </trkpt>
      <trkpt lat="44.04356" lon="6.83362">
        <ele>851</ele>
        <time>2020-06-05T09:46:45.000Z</time>
      </trkpt>
      <trkpt lat="44.04356" lon="6.83363">
        <ele>851</ele>
        <time>2020-06-05T09:46:46.000Z</time>
      </trkpt>
      <trkpt lat="44.04356" lon="6.83364">
        <ele>851</ele>
        <time>2020-06-05T09:46:47.000Z</time>
      </trkpt>
      <trkpt lat="44.04356" lon="6.83365">
        <ele>852</ele>
        <time>2020-06-05T09:46:48.000Z</time>
      </trkpt>
      <trkpt lat="44.04356" lon="6.83366">
        <ele>852</ele>
        <time>2020-06-05T09:46:49.000Z</time>
      </trkpt>
      <trkpt lat="44.04356" lon="6.83367">
        <ele>852</ele>
        <time>2020-06-05T09:46:50.000Z</time>
      </trkpt>
      <trkpt lat="44.04356" lon="6.83368">
        <ele>852</ele>
        <time>2020-06-05T09:46:51.000Z</time>
      </trkpt>
      <trkpt lat="44.04356" lon="6.83369">
        <ele>852</ele>
        <time>2020-06-05T09:46:52.000Z</time>
      </trkpt>
      <trkpt lat="44.04356" lon="6.8337">
        <ele>852</ele>
        <time>2020-06-05T09:46:53.000Z</time>
      </trkpt>
      <trkpt lat="44.04356" lon="6.83371">
        <ele>852</ele>
        <time>2020-06-05T09:46:54.000Z</time>
      </trkpt>
      <trkpt lat="44.04357" lon="6.83372">
        <ele>852</ele>
        <time>2020-06-05T09:46:55.000Z</time>
      </trkpt>
      <trkpt lat="44.04357" lon="6.83373">
        <ele>852</ele>
        <time>2020-06-05T09:46:56.000Z</time>
      </trkpt>
      <trkpt lat="44.04357" lon="6.83374">
        <ele>853</ele>
        <time>2020-06-05T09:46:57.000Z</time>
      </trkpt>
      <trkpt lat="44.04357" lon="6.83375">
        <ele>853</ele>
        <time>2020-06-05T09:46:58.000Z</time>
      </trkpt>
      <trkpt lat="44.04357" lon="6.83376">
        <ele>853</ele>
        <time>2020-06-05T09:46:59.000Z</time>
      </trkpt>
      <trkpt lat="44.04357" lon="6.83376">
        <ele>853</ele>
        <time>2020-06-05T09:47:00.000Z</time>
      </trkpt>
      <trkpt lat="44.04357" lon="6.83377">
        <ele>853</ele>
        <time>2020-06-05T09:47:01.000Z</time>
      </trkpt>
      <trkpt lat="44.04356" lon="6.83378">
        <ele>853</ele>
        <time>2020-06-05T09:47:02.000Z</time>
      </trkpt>
      <trkpt lat="44.04356" lon="6.83378">
        <ele>853</ele>
        <time>2020-06-05T09:47:03.000Z</time>
      </trkpt>
      <trkpt lat="44.04356" lon="6.83379">
        <ele>853</ele>
        <time>2020-06-05T09:47:04.000Z</time>
      </trkpt>
      <trkpt lat="44.04356" lon="6.8338">
        <ele>853</ele>
        <time>2020-06-05T09:47:05.000Z</time>
      </trkpt>
      <trkpt lat="44.04356" lon="6.83381">
        <ele>854</ele>
        <time>2020-06-05T09:47:06.000Z</time>
      </trkpt>
      <trkpt lat="44.04356" lon="6.83381">
        <ele>854</ele>
        <time>2020-06-05T09:47:07.000Z</time>
      </trkpt>
      <trkpt lat="44.04356" lon="6.83382">
        <ele>854</ele>
        <time>2020-06-05T09:47:08.000Z</time>
      </trkpt>
      <trkpt lat="44.04356" lon="6.83384">
        <ele>854</ele>
        <time>2020-06-05T09:47:09.000Z</time>
      </trkpt>
      <trkpt lat="44.04356" lon="6.83384">
        <ele>854</ele>
        <time>2020-06-05T09:47:10.000Z</time>
      </trkpt>
      <trkpt lat="44.04356" lon="6.83385">
        <ele>854</ele>
        <time>2020-06-05T09:47:11.000Z</time>
      </trkpt>
      <trkpt lat="44.04356" lon="6.83386">
        <ele>854</ele>
        <time>2020-06-05T09:47:12.000Z</time>
      </trkpt>
      <trkpt lat="44.04355" lon="6.83387">
        <ele>855</ele>
        <time>2020-06-05T09:47:13.000Z</time>
      </trkpt>
      <trkpt lat="44.04355" lon="6.83388">
        <ele>855</ele>
        <time>2020-06-05T09:47:14.000Z</time>
      </trkpt>
      <trkpt lat="44.04355" lon="6.83388">
        <ele>855</ele>
        <time>2020-06-05T09:47:15.000Z</time>
      </trkpt>
      <trkpt lat="44.04355" lon="6.83389">
        <ele>855</ele>
        <time>2020-06-05T09:47:16.000Z</time>
      </trkpt>
      <trkpt lat="44.04354" lon="6.83388">
        <ele>855</ele>
        <time>2020-06-05T09:47:17.000Z</time>
      </trkpt>
      <trkpt lat="44.04354" lon="6.83388">
        <ele>855</ele>
        <time>2020-06-05T09:47:18.000Z</time>
      </trkpt>
      <trkpt lat="44.04354" lon="6.83388">
        <ele>855</ele>
        <time>2020-06-05T09:47:19.000Z</time>
      </trkpt>
      <trkpt lat="44.04354" lon="6.83388">
        <ele>855</ele>
        <time>2020-06-05T09:47:20.000Z</time>
      </trkpt>
      <trkpt lat="44.04354" lon="6.83388">
        <ele>855</ele>
        <time>2020-06-05T09:47:21.000Z</time>
      </trkpt>
      <trkpt lat="44.04354" lon="6.83388">
        <ele>855</ele>
        <time>2020-06-05T09:47:22.000Z</time>
      </trkpt>
      <trkpt lat="44.04354" lon="6.83388">
        <ele>855</ele>
        <time>2020-06-05T09:47:23.000Z</time>
      </trkpt>
      <trkpt lat="44.04354" lon="6.83388">
        <ele>855</ele>
        <time>2020-06-05T09:47:24.000Z</time>
      </trkpt>
      <trkpt lat="44.04354" lon="6.83388">
        <ele>855</ele>
        <time>2020-06-05T09:47:25.000Z</time>
      </trkpt>
      <trkpt lat="44.04354" lon="6.83389">
        <ele>855</ele>
        <time>2020-06-05T09:47:26.000Z</time>
      </trkpt>
      <trkpt lat="44.04354" lon="6.83389">
        <ele>856</ele>
        <time>2020-06-05T09:47:27.000Z</time>
      </trkpt>
      <trkpt lat="44.04354" lon="6.83389">
        <ele>856</ele>
        <time>2020-06-05T09:47:28.000Z</time>
      </trkpt>
      <trkpt lat="44.04354" lon="6.83389">
        <ele>856</ele>
        <time>2020-06-05T09:47:29.000Z</time>
      </trkpt>
      <trkpt lat="44.04354" lon="6.83389">
        <ele>856</ele>
        <time>2020-06-05T09:47:30.000Z</time>
      </trkpt>
      <trkpt lat="44.04354" lon="6.83389">
        <ele>856</ele>
        <time>2020-06-05T09:47:31.000Z</time>
      </trkpt>
      <trkpt lat="44.04354" lon="6.83389">
        <ele>856</ele>
        <time>2020-06-05T09:47:32.000Z</time>
      </trkpt>
      <trkpt lat="44.04354" lon="6.83389">
        <ele>856</ele>
        <time>2020-06-05T09:47:33.000Z</time>
      </trkpt>
      <trkpt lat="44.04354" lon="6.83389">
        <ele>856</ele>
        <time>2020-06-05T09:47:34.000Z</time>
      </trkpt>
      <trkpt lat="44.04354" lon="6.83389">
        <ele>856</ele>
        <time>2020-06-05T09:47:35.000Z</time>
      </trkpt>
      <trkpt lat="44.04353" lon="6.83389">
        <ele>856</ele>
        <time>2020-06-05T09:47:36.000Z</time>
      </trkpt>
      <trkpt lat="44.04353" lon="6.83388">
        <ele>856</ele>
        <time>2020-06-05T09:47:37.000Z</time>
      </trkpt>
      <trkpt lat="44.04354" lon="6.83388">
        <ele>856</ele>
        <time>2020-06-05T09:47:38.000Z</time>
      </trkpt>
      <trkpt lat="44.04354" lon="6.83388">
        <ele>856</ele>
        <time>2020-06-05T09:47:39.000Z</time>
      </trkpt>
      <trkpt lat="44.04353" lon="6.83389">
        <ele>856</ele>
        <time>2020-06-05T09:47:40.000Z</time>
      </trkpt>
      <trkpt lat="44.04353" lon="6.8339">
        <ele>856</ele>
        <time>2020-06-05T09:47:41.000Z</time>
      </trkpt>
      <trkpt lat="44.04353" lon="6.83392">
        <ele>856</ele>
        <time>2020-06-05T09:47:42.000Z</time>
      </trkpt>
      <trkpt lat="44.04353" lon="6.83393">
        <ele>856</ele>
        <time>2020-06-05T09:47:43.000Z</time>
      </trkpt>
      <trkpt lat="44.04353" lon="6.83394">
        <ele>857</ele>
        <time>2020-06-05T09:47:44.000Z</time>
      </trkpt>
      <trkpt lat="44.04353" lon="6.83395">
        <ele>857</ele>
        <time>2020-06-05T09:47:45.000Z</time>
      </trkpt>
      <trkpt lat="44.04353" lon="6.83395">
        <ele>857</ele>
        <time>2020-06-05T09:47:46.000Z</time>
      </trkpt>
      <trkpt lat="44.04353" lon="6.83396">
        <ele>857</ele>
        <time>2020-06-05T09:47:47.000Z</time>
      </trkpt>
      <trkpt lat="44.04353" lon="6.83396">
        <ele>857</ele>
        <time>2020-06-05T09:47:48.000Z</time>
      </trkpt>
      <trkpt lat="44.04353" lon="6.83396">
        <ele>857</ele>
        <time>2020-06-05T09:47:49.000Z</time>
      </trkpt>
      <trkpt lat="44.04353" lon="6.83396">
        <ele>857</ele>
        <time>2020-06-05T09:47:50.000Z</time>
      </trkpt>
      <trkpt lat="44.04353" lon="6.83396">
        <ele>857</ele>
        <time>2020-06-05T09:47:51.000Z</time>
      </trkpt>
      <trkpt lat="44.04353" lon="6.83396">
        <ele>857</ele>
        <time>2020-06-05T09:47:52.000Z</time>
      </trkpt>
      <trkpt lat="44.04353" lon="6.83396">
        <ele>857</ele>
        <time>2020-06-05T09:47:53.000Z</time>
      </trkpt>
      <trkpt lat="44.04353" lon="6.83396">
        <ele>857</ele>
        <time>2020-06-05T09:47:54.000Z</time>
      </trkpt>
      <trkpt lat="44.04353" lon="6.83396">
        <ele>857</ele>
        <time>2020-06-05T09:47:55.000Z</time>
      </trkpt>
      <trkpt lat="44.04353" lon="6.83396">
        <ele>857</ele>
        <time>2020-06-05T09:47:56.000Z</time>
      </trkpt>
      <trkpt lat="44.04353" lon="6.83396">
        <ele>857</ele>
        <time>2020-06-05T09:47:57.000Z</time>
      </trkpt>
      <trkpt lat="44.04353" lon="6.83396">
        <ele>857</ele>
        <time>2020-06-05T09:47:58.000Z</time>
      </trkpt>
      <trkpt lat="44.04353" lon="6.83396">
        <ele>857</ele>
        <time>2020-06-05T09:47:59.000Z</time>
      </trkpt>
      <trkpt lat="44.04353" lon="6.83396">
        <ele>857</ele>
        <time>2020-06-05T09:48:00.000Z</time>
      </trkpt>
      <trkpt lat="44.04353" lon="6.83397">
        <ele>857</ele>
        <time>2020-06-05T09:48:01.000Z</time>
      </trkpt>
      <trkpt lat="44.04354" lon="6.83398">
        <ele>858</ele>
        <time>2020-06-05T09:48:02.000Z</time>
      </trkpt>
      <trkpt lat="44.04354" lon="6.83398">
        <ele>858</ele>
        <time>2020-06-05T09:48:03.000Z</time>
      </trkpt>
      <trkpt lat="44.04354" lon="6.83398">
        <ele>858</ele>
        <time>2020-06-05T09:48:04.000Z</time>
      </trkpt>
      <trkpt lat="44.04354" lon="6.83398">
        <ele>858</ele>
        <time>2020-06-05T09:48:05.000Z</time>
      </trkpt>
      <trkpt lat="44.04354" lon="6.83398">
        <ele>858</ele>
        <time>2020-06-05T09:48:06.000Z</time>
      </trkpt>
      <trkpt lat="44.04354" lon="6.83398">
        <ele>858</ele>
        <time>2020-06-05T09:48:07.000Z</time>
      </trkpt>
      <trkpt lat="44.04354" lon="6.83398">
        <ele>858</ele>
        <time>2020-06-05T09:48:08.000Z</time>
      </trkpt>
      <trkpt lat="44.04354" lon="6.83398">
        <ele>858</ele>
        <time>2020-06-05T09:48:09.000Z</time>
      </trkpt>
      <trkpt lat="44.04354" lon="6.83398">
        <ele>858</ele>
        <time>2020-06-05T09:48:10.000Z</time>
      </trkpt>
      <trkpt lat="44.04354" lon="6.83398">
        <ele>858</ele>
        <time>2020-06-05T09:48:11.000Z</time>
      </trkpt>
      <trkpt lat="44.04354" lon="6.83398">
        <ele>858</ele>
        <time>2020-06-05T09:48:12.000Z</time>
      </trkpt>
      <trkpt lat="44.04354" lon="6.83398">
        <ele>858</ele>
        <time>2020-06-05T09:48:13.000Z</time>
      </trkpt>
      <trkpt lat="44.04354" lon="6.83398">
        <ele>858</ele>
        <time>2020-06-05T09:48:14.000Z</time>
      </trkpt>
      <trkpt lat="44.04354" lon="6.83399">
        <ele>858</ele>
        <time>2020-06-05T09:48:15.000Z</time>
      </trkpt>
      <trkpt lat="44.04354" lon="6.834">
        <ele>858</ele>
        <time>2020-06-05T09:48:16.000Z</time>
      </trkpt>
      <trkpt lat="44.04355" lon="6.83401">
        <ele>858</ele>
        <time>2020-06-05T09:48:17.000Z</time>
      </trkpt>
      <trkpt lat="44.04355" lon="6.83401">
        <ele>858</ele>
        <time>2020-06-05T09:48:18.000Z</time>
      </trkpt>
      <trkpt lat="44.04355" lon="6.83402">
        <ele>858</ele>
        <time>2020-06-05T09:48:19.000Z</time>
      </trkpt>
      <trkpt lat="44.04356" lon="6.83403">
        <ele>859</ele>
        <time>2020-06-05T09:48:20.000Z</time>
      </trkpt>
      <trkpt lat="44.04356" lon="6.83403">
        <ele>859</ele>
        <time>2020-06-05T09:48:21.000Z</time>
      </trkpt>
      <trkpt lat="44.04357" lon="6.83404">
        <ele>859</ele>
        <time>2020-06-05T09:48:22.000Z</time>
      </trkpt>
      <trkpt lat="44.04358" lon="6.83405">
        <ele>859</ele>
        <time>2020-06-05T09:48:23.000Z</time>
      </trkpt>
      <trkpt lat="44.04358" lon="6.83406">
        <ele>859</ele>
        <time>2020-06-05T09:48:24.000Z</time>
      </trkpt>
      <trkpt lat="44.04359" lon="6.83407">
        <ele>860</ele>
        <time>2020-06-05T09:48:25.000Z</time>
      </trkpt>
      <trkpt lat="44.04359" lon="6.83408">
        <ele>860</ele>
        <time>2020-06-05T09:48:26.000Z</time>
      </trkpt>
      <trkpt lat="44.0436" lon="6.83409">
        <ele>860</ele>
        <time>2020-06-05T09:48:27.000Z</time>
      </trkpt>
      <trkpt lat="44.0436" lon="6.8341">
        <ele>860</ele>
        <time>2020-06-05T09:48:28.000Z</time>
      </trkpt>
      <trkpt lat="44.0436" lon="6.83411">
        <ele>860</ele>
        <time>2020-06-05T09:48:29.000Z</time>
      </trkpt>
      <trkpt lat="44.0436" lon="6.83412">
        <ele>860</ele>
        <time>2020-06-05T09:48:30.000Z</time>
      </trkpt>
      <trkpt lat="44.0436" lon="6.83413">
        <ele>860</ele>
        <time>2020-06-05T09:48:31.000Z</time>
      </trkpt>
      <trkpt lat="44.0436" lon="6.83414">
        <ele>860</ele>
        <time>2020-06-05T09:48:32.000Z</time>
      </trkpt>
      <trkpt lat="44.0436" lon="6.83415">
        <ele>861</ele>
        <time>2020-06-05T09:48:33.000Z</time>
      </trkpt>
      <trkpt lat="44.0436" lon="6.83414">
        <ele>861</ele>
        <time>2020-06-05T09:48:34.000Z</time>
      </trkpt>
      <trkpt lat="44.0436" lon="6.83415">
        <ele>861</ele>
        <time>2020-06-05T09:48:35.000Z</time>
      </trkpt>
      <trkpt lat="44.0436" lon="6.83416">
        <ele>861</ele>
        <time>2020-06-05T09:48:36.000Z</time>
      </trkpt>
      <trkpt lat="44.0436" lon="6.83416">
        <ele>861</ele>
        <time>2020-06-05T09:48:37.000Z</time>
      </trkpt>
      <trkpt lat="44.0436" lon="6.83417">
        <ele>861</ele>
        <time>2020-06-05T09:48:38.000Z</time>
      </trkpt>
      <trkpt lat="44.04359" lon="6.83418">
        <ele>861</ele>
        <time>2020-06-05T09:48:39.000Z</time>
      </trkpt>
      <trkpt lat="44.04359" lon="6.83419">
        <ele>861</ele>
        <time>2020-06-05T09:48:40.000Z</time>
      </trkpt>
      <trkpt lat="44.04359" lon="6.8342">
        <ele>861</ele>
        <time>2020-06-05T09:48:41.000Z</time>
      </trkpt>
      <trkpt lat="44.04358" lon="6.83421">
        <ele>861</ele>
        <time>2020-06-05T09:48:42.000Z</time>
      </trkpt>
      <trkpt lat="44.04358" lon="6.83422">
        <ele>861</ele>
        <time>2020-06-05T09:48:43.000Z</time>
      </trkpt>
      <trkpt lat="44.04358" lon="6.83423">
        <ele>861</ele>
        <time>2020-06-05T09:48:44.000Z</time>
      </trkpt>
      <trkpt lat="44.04358" lon="6.83424">
        <ele>861</ele>
        <time>2020-06-05T09:48:45.000Z</time>
      </trkpt>
      <trkpt lat="44.04358" lon="6.83425">
        <ele>862</ele>
        <time>2020-06-05T09:48:46.000Z</time>
      </trkpt>
      <trkpt lat="44.04358" lon="6.83426">
        <ele>862</ele>
        <time>2020-06-05T09:48:47.000Z</time>
      </trkpt>
      <trkpt lat="44.04358" lon="6.83427">
        <ele>862</ele>
        <time>2020-06-05T09:48:48.000Z</time>
      </trkpt>
      <trkpt lat="44.04357" lon="6.83428">
        <ele>862</ele>
        <time>2020-06-05T09:48:49.000Z</time>
      </trkpt>
      <trkpt lat="44.04356" lon="6.83428">
        <ele>862</ele>
        <time>2020-06-05T09:48:50.000Z</time>
      </trkpt>
      <trkpt lat="44.04356" lon="6.83428">
        <ele>862</ele>
        <time>2020-06-05T09:48:51.000Z</time>
      </trkpt>
      <trkpt lat="44.04356" lon="6.83428">
        <ele>862</ele>
        <time>2020-06-05T09:48:52.000Z</time>
      </trkpt>
      <trkpt lat="44.04356" lon="6.83428">
        <ele>862</ele>
        <time>2020-06-05T09:48:53.000Z</time>
      </trkpt>
      <trkpt lat="44.04356" lon="6.83429">
        <ele>862</ele>
        <time>2020-06-05T09:48:54.000Z</time>
      </trkpt>
      <trkpt lat="44.04356" lon="6.83429">
        <ele>863</ele>
        <time>2020-06-05T09:48:55.000Z</time>
      </trkpt>
      <trkpt lat="44.04356" lon="6.83429">
        <ele>863</ele>
        <time>2020-06-05T09:48:56.000Z</time>
      </trkpt>
      <trkpt lat="44.04355" lon="6.83429">
        <ele>863</ele>
        <time>2020-06-05T09:48:57.000Z</time>
      </trkpt>
      <trkpt lat="44.04355" lon="6.83429">
        <ele>863</ele>
        <time>2020-06-05T09:48:58.000Z</time>
      </trkpt>
      <trkpt lat="44.04355" lon="6.83429">
        <ele>863</ele>
        <time>2020-06-05T09:48:59.000Z</time>
      </trkpt>
      <trkpt lat="44.04355" lon="6.83429">
        <ele>863</ele>
        <time>2020-06-05T09:49:00.000Z</time>
      </trkpt>
      <trkpt lat="44.04355" lon="6.83429">
        <ele>863</ele>
        <time>2020-06-05T09:49:01.000Z</time>
      </trkpt>
      <trkpt lat="44.04355" lon="6.83429">
        <ele>863</ele>
        <time>2020-06-05T09:49:02.000Z</time>
      </trkpt>
      <trkpt lat="44.04355" lon="6.83429">
        <ele>863</ele>
        <time>2020-06-05T09:49:03.000Z</time>
      </trkpt>
      <trkpt lat="44.04355" lon="6.83429">
        <ele>863</ele>
        <time>2020-06-05T09:49:04.000Z</time>
      </trkpt>
      <trkpt lat="44.04355" lon="6.83429">
        <ele>863</ele>
        <time>2020-06-05T09:49:05.000Z</time>
      </trkpt>
      <trkpt lat="44.04355" lon="6.8343">
        <ele>863</ele>
        <time>2020-06-05T09:49:06.000Z</time>
      </trkpt>
      <trkpt lat="44.04355" lon="6.8343">
        <ele>863</ele>
        <time>2020-06-05T09:49:07.000Z</time>
      </trkpt>
      <trkpt lat="44.04355" lon="6.83432">
        <ele>863</ele>
        <time>2020-06-05T09:49:08.000Z</time>
      </trkpt>
      <trkpt lat="44.04355" lon="6.83433">
        <ele>863</ele>
        <time>2020-06-05T09:49:09.000Z</time>
      </trkpt>
      <trkpt lat="44.04355" lon="6.83434">
        <ele>863</ele>
        <time>2020-06-05T09:49:10.000Z</time>
      </trkpt>
      <trkpt lat="44.04355" lon="6.83435">
        <ele>863</ele>
        <time>2020-06-05T09:49:11.000Z</time>
      </trkpt>
      <trkpt lat="44.04354" lon="6.83436">
        <ele>864</ele>
        <time>2020-06-05T09:49:12.000Z</time>
      </trkpt>
      <trkpt lat="44.04354" lon="6.83437">
        <ele>864</ele>
        <time>2020-06-05T09:49:13.000Z</time>
      </trkpt>
      <trkpt lat="44.04353" lon="6.83438">
        <ele>864</ele>
        <time>2020-06-05T09:49:14.000Z</time>
      </trkpt>
      <trkpt lat="44.04352" lon="6.83439">
        <ele>864</ele>
        <time>2020-06-05T09:49:15.000Z</time>
      </trkpt>
      <trkpt lat="44.04352" lon="6.83439">
        <ele>864</ele>
        <time>2020-06-05T09:49:16.000Z</time>
      </trkpt>
      <trkpt lat="44.04351" lon="6.8344">
        <ele>864</ele>
        <time>2020-06-05T09:49:17.000Z</time>
      </trkpt>
      <trkpt lat="44.04351" lon="6.83441">
        <ele>865</ele>
        <time>2020-06-05T09:49:18.000Z</time>
      </trkpt>
      <trkpt lat="44.0435" lon="6.83442">
        <ele>865</ele>
        <time>2020-06-05T09:49:19.000Z</time>
      </trkpt>
      <trkpt lat="44.0435" lon="6.83443">
        <ele>865</ele>
        <time>2020-06-05T09:49:20.000Z</time>
      </trkpt>
      <trkpt lat="44.04349" lon="6.83443">
        <ele>865</ele>
        <time>2020-06-05T09:49:21.000Z</time>
      </trkpt>
      <trkpt lat="44.04349" lon="6.83444">
        <ele>865</ele>
        <time>2020-06-05T09:49:22.000Z</time>
      </trkpt>
      <trkpt lat="44.04349" lon="6.83445">
        <ele>866</ele>
        <time>2020-06-05T09:49:23.000Z</time>
      </trkpt>
      <trkpt lat="44.04348" lon="6.83446">
        <ele>866</ele>
        <time>2020-06-05T09:49:24.000Z</time>
      </trkpt>
      <trkpt lat="44.04348" lon="6.83447">
        <ele>866</ele>
        <time>2020-06-05T09:49:25.000Z</time>
      </trkpt>
      <trkpt lat="44.04347" lon="6.83448">
        <ele>866</ele>
        <time>2020-06-05T09:49:26.000Z</time>
      </trkpt>
      <trkpt lat="44.04346" lon="6.83449">
        <ele>866</ele>
        <time>2020-06-05T09:49:27.000Z</time>
      </trkpt>
      <trkpt lat="44.04346" lon="6.83449">
        <ele>866</ele>
        <time>2020-06-05T09:49:28.000Z</time>
      </trkpt>
      <trkpt lat="44.04345" lon="6.8345">
        <ele>866</ele>
        <time>2020-06-05T09:49:29.000Z</time>
      </trkpt>
      <trkpt lat="44.04344" lon="6.83451">
        <ele>866</ele>
        <time>2020-06-05T09:49:30.000Z</time>
      </trkpt>
      <trkpt lat="44.04343" lon="6.83451">
        <ele>866</ele>
        <time>2020-06-05T09:49:31.000Z</time>
      </trkpt>
      <trkpt lat="44.04342" lon="6.83451">
        <ele>866</ele>
        <time>2020-06-05T09:49:32.000Z</time>
      </trkpt>
      <trkpt lat="44.04341" lon="6.83451">
        <ele>866</ele>
        <time>2020-06-05T09:49:33.000Z</time>
      </trkpt>
      <trkpt lat="44.04341" lon="6.83451">
        <ele>866</ele>
        <time>2020-06-05T09:49:34.000Z</time>
      </trkpt>
      <trkpt lat="44.0434" lon="6.83452">
        <ele>866</ele>
        <time>2020-06-05T09:49:35.000Z</time>
      </trkpt>
      <trkpt lat="44.04339" lon="6.83452">
        <ele>866</ele>
        <time>2020-06-05T09:49:36.000Z</time>
      </trkpt>
      <trkpt lat="44.04338" lon="6.83452">
        <ele>867</ele>
        <time>2020-06-05T09:49:37.000Z</time>
      </trkpt>
      <trkpt lat="44.04337" lon="6.83453">
        <ele>867</ele>
        <time>2020-06-05T09:49:38.000Z</time>
      </trkpt>
      <trkpt lat="44.04336" lon="6.83453">
        <ele>867</ele>
        <time>2020-06-05T09:49:39.000Z</time>
      </trkpt>
      <trkpt lat="44.04335" lon="6.83455">
        <ele>867</ele>
        <time>2020-06-05T09:49:40.000Z</time>
      </trkpt>
      <trkpt lat="44.04334" lon="6.83455">
        <ele>867</ele>
        <time>2020-06-05T09:49:41.000Z</time>
      </trkpt>
      <trkpt lat="44.04333" lon="6.83456">
        <ele>867</ele>
        <time>2020-06-05T09:49:42.000Z</time>
      </trkpt>
      <trkpt lat="44.04333" lon="6.83457">
        <ele>867</ele>
        <time>2020-06-05T09:49:43.000Z</time>
      </trkpt>
      <trkpt lat="44.04332" lon="6.83459">
        <ele>868</ele>
        <time>2020-06-05T09:49:44.000Z</time>
      </trkpt>
      <trkpt lat="44.04331" lon="6.83459">
        <ele>868</ele>
        <time>2020-06-05T09:49:45.000Z</time>
      </trkpt>
      <trkpt lat="44.0433" lon="6.8346">
        <ele>868</ele>
        <time>2020-06-05T09:49:46.000Z</time>
      </trkpt>
      <trkpt lat="44.0433" lon="6.83461">
        <ele>868</ele>
        <time>2020-06-05T09:49:47.000Z</time>
      </trkpt>
      <trkpt lat="44.04329" lon="6.83462">
        <ele>868</ele>
        <time>2020-06-05T09:49:48.000Z</time>
      </trkpt>
      <trkpt lat="44.04328" lon="6.83463">
        <ele>868</ele>
        <time>2020-06-05T09:49:49.000Z</time>
      </trkpt>
      <trkpt lat="44.04328" lon="6.83464">
        <ele>868</ele>
        <time>2020-06-05T09:49:50.000Z</time>
      </trkpt>
      <trkpt lat="44.04327" lon="6.83463">
        <ele>869</ele>
        <time>2020-06-05T09:49:51.000Z</time>
      </trkpt>
      <trkpt lat="44.04326" lon="6.83463">
        <ele>869</ele>
        <time>2020-06-05T09:49:52.000Z</time>
      </trkpt>
      <trkpt lat="44.04326" lon="6.83463">
        <ele>869</ele>
        <time>2020-06-05T09:49:53.000Z</time>
      </trkpt>
      <trkpt lat="44.04326" lon="6.83463">
        <ele>869</ele>
        <time>2020-06-05T09:49:54.000Z</time>
      </trkpt>
      <trkpt lat="44.04326" lon="6.83463">
        <ele>869</ele>
        <time>2020-06-05T09:49:55.000Z</time>
      </trkpt>
      <trkpt lat="44.04326" lon="6.83463">
        <ele>869</ele>
        <time>2020-06-05T09:49:56.000Z</time>
      </trkpt>
      <trkpt lat="44.04326" lon="6.83463">
        <ele>869</ele>
        <time>2020-06-05T09:49:57.000Z</time>
      </trkpt>
      <trkpt lat="44.04326" lon="6.83463">
        <ele>869</ele>
        <time>2020-06-05T09:49:58.000Z</time>
      </trkpt>
      <trkpt lat="44.04326" lon="6.83463">
        <ele>869</ele>
        <time>2020-06-05T09:49:59.000Z</time>
      </trkpt>
      <trkpt lat="44.04326" lon="6.83463">
        <ele>869</ele>
        <time>2020-06-05T09:50:00.000Z</time>
      </trkpt>
      <trkpt lat="44.04326" lon="6.83463">
        <ele>869</ele>
        <time>2020-06-05T09:50:01.000Z</time>
      </trkpt>
      <trkpt lat="44.04326" lon="6.83463">
        <ele>869</ele>
        <time>2020-06-05T09:50:02.000Z</time>
      </trkpt>
      <trkpt lat="44.04326" lon="6.83463">
        <ele>869</ele>
        <time>2020-06-05T09:50:03.000Z</time>
      </trkpt>
      <trkpt lat="44.04326" lon="6.83463">
        <ele>869</ele>
        <time>2020-06-05T09:50:04.000Z</time>
      </trkpt>
      <trkpt lat="44.04326" lon="6.83463">
        <ele>869</ele>
        <time>2020-06-05T09:50:05.000Z</time>
      </trkpt>
      <trkpt lat="44.04326" lon="6.83463">
        <ele>869</ele>
        <time>2020-06-05T09:50:06.000Z</time>
      </trkpt>
      <trkpt lat="44.04326" lon="6.83463">
        <ele>869</ele>
        <time>2020-06-05T09:50:07.000Z</time>
      </trkpt>
      <trkpt lat="44.04326" lon="6.83463">
        <ele>869</ele>
        <time>2020-06-05T09:50:08.000Z</time>
      </trkpt>
      <trkpt lat="44.04326" lon="6.83463">
        <ele>869</ele>
        <time>2020-06-05T09:50:09.000Z</time>
      </trkpt>
      <trkpt lat="44.04326" lon="6.83463">
        <ele>869</ele>
        <time>2020-06-05T09:50:10.000Z</time>
      </trkpt>
      <trkpt lat="44.04326" lon="6.83463">
        <ele>869</ele>
        <time>2020-06-05T09:50:11.000Z</time>
      </trkpt>
      <trkpt lat="44.04326" lon="6.83463">
        <ele>869</ele>
        <time>2020-06-05T09:50:12.000Z</time>
      </trkpt>
      <trkpt lat="44.04326" lon="6.83463">
        <ele>870</ele>
        <time>2020-06-05T09:50:13.000Z</time>
      </trkpt>
      <trkpt lat="44.04326" lon="6.83463">
        <ele>870</ele>
        <time>2020-06-05T09:50:14.000Z</time>
      </trkpt>
      <trkpt lat="44.04325" lon="6.83463">
        <ele>870</ele>
        <time>2020-06-05T09:50:15.000Z</time>
      </trkpt>
      <trkpt lat="44.04325" lon="6.83462">
        <ele>870</ele>
        <time>2020-06-05T09:50:16.000Z</time>
      </trkpt>
      <trkpt lat="44.04325" lon="6.83463">
        <ele>870</ele>
        <time>2020-06-05T09:50:17.000Z</time>
      </trkpt>
      <trkpt lat="44.04325" lon="6.83463">
        <ele>870</ele>
        <time>2020-06-05T09:50:18.000Z</time>
      </trkpt>
      <trkpt lat="44.04325" lon="6.83463">
        <ele>870</ele>
        <time>2020-06-05T09:50:19.000Z</time>
      </trkpt>
      <trkpt lat="44.04325" lon="6.83463">
        <ele>870</ele>
        <time>2020-06-05T09:50:20.000Z</time>
      </trkpt>
      <trkpt lat="44.04325" lon="6.83463">
        <ele>870</ele>
        <time>2020-06-05T09:50:21.000Z</time>
      </trkpt>
      <trkpt lat="44.04325" lon="6.83463">
        <ele>870</ele>
        <time>2020-06-05T09:50:22.000Z</time>
      </trkpt>
      <trkpt lat="44.04325" lon="6.83463">
        <ele>870</ele>
        <time>2020-06-05T09:50:23.000Z</time>
      </trkpt>
      <trkpt lat="44.04325" lon="6.83463">
        <ele>870</ele>
        <time>2020-06-05T09:50:24.000Z</time>
      </trkpt>
      <trkpt lat="44.04325" lon="6.83463">
        <ele>870</ele>
        <time>2020-06-05T09:50:25.000Z</time>
      </trkpt>
      <trkpt lat="44.04325" lon="6.83463">
        <ele>870</ele>
        <time>2020-06-05T09:50:26.000Z</time>
      </trkpt>
      <trkpt lat="44.04325" lon="6.83463">
        <ele>870</ele>
        <time>2020-06-05T09:50:27.000Z</time>
      </trkpt>
      <trkpt lat="44.04325" lon="6.83463">
        <ele>870</ele>
        <time>2020-06-05T09:50:28.000Z</time>
      </trkpt>
      <trkpt lat="44.04325" lon="6.83463">
        <ele>870</ele>
        <time>2020-06-05T09:50:29.000Z</time>
      </trkpt>
      <trkpt lat="44.04325" lon="6.83463">
        <ele>870</ele>
        <time>2020-06-05T09:50:30.000Z</time>
      </trkpt>
      <trkpt lat="44.04325" lon="6.83463">
        <ele>870</ele>
        <time>2020-06-05T09:50:31.000Z</time>
      </trkpt>
      <trkpt lat="44.04325" lon="6.83463">
        <ele>870</ele>
        <time>2020-06-05T09:50:32.000Z</time>
      </trkpt>
      <trkpt lat="44.04325" lon="6.83463">
        <ele>870</ele>
        <time>2020-06-05T09:50:33.000Z</time>
      </trkpt>
      <trkpt lat="44.04325" lon="6.83463">
        <ele>870</ele>
        <time>2020-06-05T09:50:34.000Z</time>
      </trkpt>
      <trkpt lat="44.04325" lon="6.83462">
        <ele>869</ele>
        <time>2020-06-05T09:50:35.000Z</time>
      </trkpt>
      <trkpt lat="44.04325" lon="6.83462">
        <ele>869</ele>
        <time>2020-06-05T09:50:36.000Z</time>
      </trkpt>
      <trkpt lat="44.04325" lon="6.83463">
        <ele>869</ele>
        <time>2020-06-05T09:50:37.000Z</time>
      </trkpt>
      <trkpt lat="44.04325" lon="6.83463">
        <ele>869</ele>
        <time>2020-06-05T09:50:38.000Z</time>
      </trkpt>
      <trkpt lat="44.04325" lon="6.83463">
        <ele>869</ele>
        <time>2020-06-05T09:50:39.000Z</time>
      </trkpt>
      <trkpt lat="44.04325" lon="6.83462">
        <ele>869</ele>
        <time>2020-06-05T09:50:40.000Z</time>
      </trkpt>
      <trkpt lat="44.04325" lon="6.83462">
        <ele>869</ele>
        <time>2020-06-05T09:50:41.000Z</time>
      </trkpt>
      <trkpt lat="44.04325" lon="6.83462">
        <ele>869</ele>
        <time>2020-06-05T09:50:42.000Z</time>
      </trkpt>
      <trkpt lat="44.04325" lon="6.83462">
        <ele>869</ele>
        <time>2020-06-05T09:50:43.000Z</time>
      </trkpt>
      <trkpt lat="44.04325" lon="6.83462">
        <ele>869</ele>
        <time>2020-06-05T09:50:44.000Z</time>
      </trkpt>
      <trkpt lat="44.04325" lon="6.83462">
        <ele>869</ele>
        <time>2020-06-05T09:50:45.000Z</time>
      </trkpt>
      <trkpt lat="44.04325" lon="6.83462">
        <ele>869</ele>
        <time>2020-06-05T09:50:46.000Z</time>
      </trkpt>
      <trkpt lat="44.04325" lon="6.83462">
        <ele>869</ele>
        <time>2020-06-05T09:50:47.000Z</time>
      </trkpt>
      <trkpt lat="44.04325" lon="6.83462">
        <ele>869</ele>
        <time>2020-06-05T09:50:48.000Z</time>
      </trkpt>
      <trkpt lat="44.04325" lon="6.83462">
        <ele>869</ele>
        <time>2020-06-05T09:50:49.000Z</time>
      </trkpt>
      <trkpt lat="44.04325" lon="6.83462">
        <ele>869</ele>
        <time>2020-06-05T09:50:50.000Z</time>
      </trkpt>
      <trkpt lat="44.04325" lon="6.83462">
        <ele>869</ele>
        <time>2020-06-05T09:50:51.000Z</time>
      </trkpt>
      <trkpt lat="44.04325" lon="6.83462">
        <ele>869</ele>
        <time>2020-06-05T09:50:52.000Z</time>
      </trkpt>
      <trkpt lat="44.04325" lon="6.83462">
        <ele>869</ele>
        <time>2020-06-05T09:50:53.000Z</time>
      </trkpt>
      <trkpt lat="44.04325" lon="6.83462">
        <ele>869</ele>
        <time>2020-06-05T09:50:54.000Z</time>
      </trkpt>
      <trkpt lat="44.04325" lon="6.83462">
        <ele>869</ele>
        <time>2020-06-05T09:50:55.000Z</time>
      </trkpt>
      <trkpt lat="44.04325" lon="6.83462">
        <ele>869</ele>
        <time>2020-06-05T09:50:56.000Z</time>
      </trkpt>
      <trkpt lat="44.04325" lon="6.83462">
        <ele>869</ele>
        <time>2020-06-05T09:50:57.000Z</time>
      </trkpt>
      <trkpt lat="44.04325" lon="6.83462">
        <ele>869</ele>
        <time>2020-06-05T09:50:58.000Z</time>
      </trkpt>
      <trkpt lat="44.04325" lon="6.83462">
        <ele>869</ele>
        <time>2020-06-05T09:50:59.000Z</time>
      </trkpt>
      <trkpt lat="44.04325" lon="6.83462">
        <ele>869</ele>
        <time>2020-06-05T09:51:00.000Z</time>
      </trkpt>
      <trkpt lat="44.04325" lon="6.83462">
        <ele>869</ele>
        <time>2020-06-05T09:51:01.000Z</time>
      </trkpt>
      <trkpt lat="44.04325" lon="6.83462">
        <ele>869</ele>
        <time>2020-06-05T09:51:02.000Z</time>
      </trkpt>
      <trkpt lat="44.04325" lon="6.83462">
        <ele>869</ele>
        <time>2020-06-05T09:51:03.000Z</time>
      </trkpt>
      <trkpt lat="44.04325" lon="6.83462">
        <ele>869</ele>
        <time>2020-06-05T09:51:04.000Z</time>
      </trkpt>
      <trkpt lat="44.04325" lon="6.83462">
        <ele>869</ele>
        <time>2020-06-05T09:51:05.000Z</time>
      </trkpt>
      <trkpt lat="44.04325" lon="6.83462">
        <ele>869</ele>
        <time>2020-06-05T09:51:06.000Z</time>
      </trkpt>
      <trkpt lat="44.04325" lon="6.83462">
        <ele>869</ele>
        <time>2020-06-05T09:51:07.000Z</time>
      </trkpt>
      <trkpt lat="44.04325" lon="6.83462">
        <ele>869</ele>
        <time>2020-06-05T09:51:08.000Z</time>
      </trkpt>
      <trkpt lat="44.04325" lon="6.83462">
        <ele>869</ele>
        <time>2020-06-05T09:51:09.000Z</time>
      </trkpt>
      <trkpt lat="44.04325" lon="6.83462">
        <ele>869</ele>
        <time>2020-06-05T09:51:10.000Z</time>
      </trkpt>
      <trkpt lat="44.04325" lon="6.83462">
        <ele>869</ele>
        <time>2020-06-05T09:51:11.000Z</time>
      </trkpt>
      <trkpt lat="44.04325" lon="6.83462">
        <ele>869</ele>
        <time>2020-06-05T09:51:12.000Z</time>
      </trkpt>
      <trkpt lat="44.04325" lon="6.83463">
        <ele>869</ele>
        <time>2020-06-05T09:51:13.000Z</time>
      </trkpt>
      <trkpt lat="44.04325" lon="6.83464">
        <ele>869</ele>
        <time>2020-06-05T09:51:14.000Z</time>
      </trkpt>
      <trkpt lat="44.04325" lon="6.83465">
        <ele>869</ele>
        <time>2020-06-05T09:51:15.000Z</time>
      </trkpt>
      <trkpt lat="44.04325" lon="6.83466">
        <ele>869</ele>
        <time>2020-06-05T09:51:16.000Z</time>
      </trkpt>
      <trkpt lat="44.04325" lon="6.83467">
        <ele>869</ele>
        <time>2020-06-05T09:51:17.000Z</time>
      </trkpt>
      <trkpt lat="44.04325" lon="6.83468">
        <ele>869</ele>
        <time>2020-06-05T09:51:18.000Z</time>
      </trkpt>
      <trkpt lat="44.04325" lon="6.83469">
        <ele>869</ele>
        <time>2020-06-05T09:51:19.000Z</time>
      </trkpt>
      <trkpt lat="44.04325" lon="6.8347">
        <ele>869</ele>
        <time>2020-06-05T09:51:20.000Z</time>
      </trkpt>
      <trkpt lat="44.04325" lon="6.83472">
        <ele>869</ele>
        <time>2020-06-05T09:51:21.000Z</time>
      </trkpt>
      <trkpt lat="44.04325" lon="6.83473">
        <ele>869</ele>
        <time>2020-06-05T09:51:22.000Z</time>
      </trkpt>
      <trkpt lat="44.04325" lon="6.83474">
        <ele>869</ele>
        <time>2020-06-05T09:51:23.000Z</time>
      </trkpt>
      <trkpt lat="44.04325" lon="6.83475">
        <ele>869</ele>
        <time>2020-06-05T09:51:24.000Z</time>
      </trkpt>
      <trkpt lat="44.04325" lon="6.83476">
        <ele>869</ele>
        <time>2020-06-05T09:51:25.000Z</time>
      </trkpt>
      <trkpt lat="44.04325" lon="6.83477">
        <ele>870</ele>
        <time>2020-06-05T09:51:26.000Z</time>
      </trkpt>
      <trkpt lat="44.04326" lon="6.83478">
        <ele>870</ele>
        <time>2020-06-05T09:51:27.000Z</time>
      </trkpt>
      <trkpt lat="44.04326" lon="6.8348">
        <ele>870</ele>
        <time>2020-06-05T09:51:28.000Z</time>
      </trkpt>
      <trkpt lat="44.04326" lon="6.83481">
        <ele>870</ele>
        <time>2020-06-05T09:51:29.000Z</time>
      </trkpt>
      <trkpt lat="44.04326" lon="6.83482">
        <ele>870</ele>
        <time>2020-06-05T09:51:30.000Z</time>
      </trkpt>
      <trkpt lat="44.04326" lon="6.83484">
        <ele>870</ele>
        <time>2020-06-05T09:51:31.000Z</time>
      </trkpt>
      <trkpt lat="44.04327" lon="6.83485">
        <ele>870</ele>
        <time>2020-06-05T09:51:32.000Z</time>
      </trkpt>
      <trkpt lat="44.04327" lon="6.83486">
        <ele>870</ele>
        <time>2020-06-05T09:51:33.000Z</time>
      </trkpt>
      <trkpt lat="44.04327" lon="6.83487">
        <ele>870</ele>
        <time>2020-06-05T09:51:34.000Z</time>
      </trkpt>
      <trkpt lat="44.04327" lon="6.83488">
        <ele>870</ele>
        <time>2020-06-05T09:51:35.000Z</time>
      </trkpt>
      <trkpt lat="44.04327" lon="6.83489">
        <ele>870</ele>
        <time>2020-06-05T09:51:36.000Z</time>
      </trkpt>
      <trkpt lat="44.04327" lon="6.83491">
        <ele>870</ele>
        <time>2020-06-05T09:51:37.000Z</time>
      </trkpt>
      <trkpt lat="44.04327" lon="6.83492">
        <ele>870</ele>
        <time>2020-06-05T09:51:38.000Z</time>
      </trkpt>
      <trkpt lat="44.04327" lon="6.83493">
        <ele>871</ele>
        <time>2020-06-05T09:51:39.000Z</time>
      </trkpt>
      <trkpt lat="44.04327" lon="6.83494">
        <ele>871</ele>
        <time>2020-06-05T09:51:40.000Z</time>
      </trkpt>
      <trkpt lat="44.04328" lon="6.83495">
        <ele>871</ele>
        <time>2020-06-05T09:51:41.000Z</time>
      </trkpt>
      <trkpt lat="44.04327" lon="6.83497">
        <ele>871</ele>
        <time>2020-06-05T09:51:42.000Z</time>
      </trkpt>
      <trkpt lat="44.04327" lon="6.83498">
        <ele>871</ele>
        <time>2020-06-05T09:51:43.000Z</time>
      </trkpt>
      <trkpt lat="44.04327" lon="6.83499">
        <ele>871</ele>
        <time>2020-06-05T09:51:44.000Z</time>
      </trkpt>
      <trkpt lat="44.04327" lon="6.835">
        <ele>871</ele>
        <time>2020-06-05T09:51:45.000Z</time>
      </trkpt>
      <trkpt lat="44.04326" lon="6.83501">
        <ele>871</ele>
        <time>2020-06-05T09:51:46.000Z</time>
      </trkpt>
      <trkpt lat="44.04326" lon="6.83502">
        <ele>872</ele>
        <time>2020-06-05T09:51:47.000Z</time>
      </trkpt>
      <trkpt lat="44.04326" lon="6.83503">
        <ele>872</ele>
        <time>2020-06-05T09:51:48.000Z</time>
      </trkpt>
      <trkpt lat="44.04326" lon="6.83504">
        <ele>872</ele>
        <time>2020-06-05T09:51:49.000Z</time>
      </trkpt>
      <trkpt lat="44.04326" lon="6.83505">
        <ele>872</ele>
        <time>2020-06-05T09:51:50.000Z</time>
      </trkpt>
      <trkpt lat="44.04326" lon="6.83507">
        <ele>872</ele>
        <time>2020-06-05T09:51:51.000Z</time>
      </trkpt>
      <trkpt lat="44.04326" lon="6.83508">
        <ele>872</ele>
        <time>2020-06-05T09:51:52.000Z</time>
      </trkpt>
      <trkpt lat="44.04326" lon="6.83508">
        <ele>872</ele>
        <time>2020-06-05T09:51:53.000Z</time>
      </trkpt>
      <trkpt lat="44.04326" lon="6.8351">
        <ele>872</ele>
        <time>2020-06-05T09:51:54.000Z</time>
      </trkpt>
      <trkpt lat="44.04326" lon="6.83511">
        <ele>872</ele>
        <time>2020-06-05T09:51:55.000Z</time>
      </trkpt>
      <trkpt lat="44.04326" lon="6.83512">
        <ele>872</ele>
        <time>2020-06-05T09:51:56.000Z</time>
      </trkpt>
      <trkpt lat="44.04326" lon="6.83513">
        <ele>872</ele>
        <time>2020-06-05T09:51:57.000Z</time>
      </trkpt>
      <trkpt lat="44.04326" lon="6.83514">
        <ele>872</ele>
        <time>2020-06-05T09:51:58.000Z</time>
      </trkpt>
      <trkpt lat="44.04326" lon="6.83515">
        <ele>872</ele>
        <time>2020-06-05T09:51:59.000Z</time>
      </trkpt>
      <trkpt lat="44.04326" lon="6.83516">
        <ele>873</ele>
        <time>2020-06-05T09:52:00.000Z</time>
      </trkpt>
      <trkpt lat="44.04326" lon="6.83516">
        <ele>873</ele>
        <time>2020-06-05T09:52:01.000Z</time>
      </trkpt>
      <trkpt lat="44.04326" lon="6.83517">
        <ele>873</ele>
        <time>2020-06-05T09:52:02.000Z</time>
      </trkpt>
      <trkpt lat="44.04326" lon="6.83518">
        <ele>873</ele>
        <time>2020-06-05T09:52:03.000Z</time>
      </trkpt>
      <trkpt lat="44.04327" lon="6.83518">
        <ele>873</ele>
        <time>2020-06-05T09:52:04.000Z</time>
      </trkpt>
      <trkpt lat="44.04327" lon="6.83519">
        <ele>874</ele>
        <time>2020-06-05T09:52:05.000Z</time>
      </trkpt>
      <trkpt lat="44.04328" lon="6.8352">
        <ele>874</ele>
        <time>2020-06-05T09:52:06.000Z</time>
      </trkpt>
      <trkpt lat="44.04328" lon="6.83521">
        <ele>874</ele>
        <time>2020-06-05T09:52:07.000Z</time>
      </trkpt>
      <trkpt lat="44.04329" lon="6.83521">
        <ele>874</ele>
        <time>2020-06-05T09:52:08.000Z</time>
      </trkpt>
      <trkpt lat="44.04329" lon="6.83522">
        <ele>874</ele>
        <time>2020-06-05T09:52:09.000Z</time>
      </trkpt>
      <trkpt lat="44.04329" lon="6.83522">
        <ele>874</ele>
        <time>2020-06-05T09:52:10.000Z</time>
      </trkpt>
      <trkpt lat="44.04329" lon="6.83522">
        <ele>874</ele>
        <time>2020-06-05T09:52:11.000Z</time>
      </trkpt>
      <trkpt lat="44.04329" lon="6.83522">
        <ele>874</ele>
        <time>2020-06-05T09:52:12.000Z</time>
      </trkpt>
      <trkpt lat="44.04329" lon="6.83522">
        <ele>874</ele>
        <time>2020-06-05T09:52:13.000Z</time>
      </trkpt>
      <trkpt lat="44.04329" lon="6.83522">
        <ele>874</ele>
        <time>2020-06-05T09:52:14.000Z</time>
      </trkpt>
      <trkpt lat="44.04329" lon="6.83522">
        <ele>874</ele>
        <time>2020-06-05T09:52:15.000Z</time>
      </trkpt>
      <trkpt lat="44.04329" lon="6.83522">
        <ele>874</ele>
        <time>2020-06-05T09:52:16.000Z</time>
      </trkpt>
      <trkpt lat="44.0433" lon="6.83522">
        <ele>874</ele>
        <time>2020-06-05T09:52:17.000Z</time>
      </trkpt>
      <trkpt lat="44.0433" lon="6.83522">
        <ele>874</ele>
        <time>2020-06-05T09:52:18.000Z</time>
      </trkpt>
      <trkpt lat="44.0433" lon="6.83522">
        <ele>874</ele>
        <time>2020-06-05T09:52:19.000Z</time>
      </trkpt>
      <trkpt lat="44.0433" lon="6.83522">
        <ele>874</ele>
        <time>2020-06-05T09:52:20.000Z</time>
      </trkpt>
      <trkpt lat="44.0433" lon="6.83522">
        <ele>874</ele>
        <time>2020-06-05T09:52:21.000Z</time>
      </trkpt>
      <trkpt lat="44.0433" lon="6.83522">
        <ele>874</ele>
        <time>2020-06-05T09:52:22.000Z</time>
      </trkpt>
      <trkpt lat="44.0433" lon="6.83522">
        <ele>874</ele>
        <time>2020-06-05T09:52:23.000Z</time>
      </trkpt>
      <trkpt lat="44.0433" lon="6.83522">
        <ele>874</ele>
        <time>2020-06-05T09:52:24.000Z</time>
      </trkpt>
      <trkpt lat="44.0433" lon="6.83522">
        <ele>874</ele>
        <time>2020-06-05T09:52:25.000Z</time>
      </trkpt>
      <trkpt lat="44.0433" lon="6.83522">
        <ele>874</ele>
        <time>2020-06-05T09:52:26.000Z</time>
      </trkpt>
      <trkpt lat="44.0433" lon="6.83522">
        <ele>874</ele>
        <time>2020-06-05T09:52:27.000Z</time>
      </trkpt>
      <trkpt lat="44.0433" lon="6.83523">
        <ele>874</ele>
        <time>2020-06-05T09:52:28.000Z</time>
      </trkpt>
      <trkpt lat="44.0433" lon="6.83523">
        <ele>874</ele>
        <time>2020-06-05T09:52:29.000Z</time>
      </trkpt>
      <trkpt lat="44.0433" lon="6.83523">
        <ele>874</ele>
        <time>2020-06-05T09:52:30.000Z</time>
      </trkpt>
      <trkpt lat="44.0433" lon="6.83523">
        <ele>875</ele>
        <time>2020-06-05T09:52:31.000Z</time>
      </trkpt>
      <trkpt lat="44.0433" lon="6.83523">
        <ele>875</ele>
        <time>2020-06-05T09:52:32.000Z</time>
      </trkpt>
      <trkpt lat="44.0433" lon="6.83523">
        <ele>875</ele>
        <time>2020-06-05T09:52:33.000Z</time>
      </trkpt>
      <trkpt lat="44.0433" lon="6.83523">
        <ele>875</ele>
        <time>2020-06-05T09:52:34.000Z</time>
      </trkpt>
      <trkpt lat="44.0433" lon="6.83523">
        <ele>875</ele>
        <time>2020-06-05T09:52:35.000Z</time>
      </trkpt>
      <trkpt lat="44.0433" lon="6.83523">
        <ele>875</ele>
        <time>2020-06-05T09:52:36.000Z</time>
      </trkpt>
      <trkpt lat="44.0433" lon="6.83523">
        <ele>875</ele>
        <time>2020-06-05T09:52:37.000Z</time>
      </trkpt>
      <trkpt lat="44.0433" lon="6.83524">
        <ele>875</ele>
        <time>2020-06-05T09:52:38.000Z</time>
      </trkpt>
      <trkpt lat="44.0433" lon="6.83525">
        <ele>875</ele>
        <time>2020-06-05T09:52:39.000Z</time>
      </trkpt>
      <trkpt lat="44.04331" lon="6.83525">
        <ele>875</ele>
        <time>2020-06-05T09:52:40.000Z</time>
      </trkpt>
      <trkpt lat="44.04332" lon="6.83526">
        <ele>875</ele>
        <time>2020-06-05T09:52:41.000Z</time>
      </trkpt>
      <trkpt lat="44.04332" lon="6.83527">
        <ele>875</ele>
        <time>2020-06-05T09:52:42.000Z</time>
      </trkpt>
      <trkpt lat="44.04333" lon="6.83528">
        <ele>875</ele>
        <time>2020-06-05T09:52:43.000Z</time>
      </trkpt>
      <trkpt lat="44.04334" lon="6.83529">
        <ele>876</ele>
        <time>2020-06-05T09:52:44.000Z</time>
      </trkpt>
      <trkpt lat="44.04334" lon="6.83529">
        <ele>876</ele>
        <time>2020-06-05T09:52:45.000Z</time>
      </trkpt>
      <trkpt lat="44.04335" lon="6.8353">
        <ele>876</ele>
        <time>2020-06-05T09:52:46.000Z</time>
      </trkpt>
      <trkpt lat="44.04335" lon="6.8353">
        <ele>876</ele>
        <time>2020-06-05T09:52:47.000Z</time>
      </trkpt>
      <trkpt lat="44.04335" lon="6.8353">
        <ele>876</ele>
        <time>2020-06-05T09:52:48.000Z</time>
      </trkpt>
      <trkpt lat="44.04335" lon="6.83531">
        <ele>876</ele>
        <time>2020-06-05T09:52:49.000Z</time>
      </trkpt>
      <trkpt lat="44.04336" lon="6.8353">
        <ele>876</ele>
        <time>2020-06-05T09:52:50.000Z</time>
      </trkpt>
      <trkpt lat="44.04336" lon="6.8353">
        <ele>876</ele>
        <time>2020-06-05T09:52:51.000Z</time>
      </trkpt>
      <trkpt lat="44.04336" lon="6.83531">
        <ele>876</ele>
        <time>2020-06-05T09:52:52.000Z</time>
      </trkpt>
      <trkpt lat="44.04336" lon="6.83531">
        <ele>876</ele>
        <time>2020-06-05T09:52:53.000Z</time>
      </trkpt>
      <trkpt lat="44.04337" lon="6.83532">
        <ele>876</ele>
        <time>2020-06-05T09:52:54.000Z</time>
      </trkpt>
      <trkpt lat="44.04338" lon="6.83532">
        <ele>876</ele>
        <time>2020-06-05T09:52:55.000Z</time>
      </trkpt>
      <trkpt lat="44.04339" lon="6.83532">
        <ele>876</ele>
        <time>2020-06-05T09:52:56.000Z</time>
      </trkpt>
      <trkpt lat="44.04339" lon="6.83532">
        <ele>877</ele>
        <time>2020-06-05T09:52:57.000Z</time>
      </trkpt>
      <trkpt lat="44.0434" lon="6.83531">
        <ele>877</ele>
        <time>2020-06-05T09:52:58.000Z</time>
      </trkpt>
      <trkpt lat="44.0434" lon="6.83531">
        <ele>877</ele>
        <time>2020-06-05T09:52:59.000Z</time>
      </trkpt>
      <trkpt lat="44.0434" lon="6.8353">
        <ele>877</ele>
        <time>2020-06-05T09:53:00.000Z</time>
      </trkpt>
      <trkpt lat="44.04341" lon="6.83529">
        <ele>877</ele>
        <time>2020-06-05T09:53:01.000Z</time>
      </trkpt>
      <trkpt lat="44.04341" lon="6.83528">
        <ele>877</ele>
        <time>2020-06-05T09:53:02.000Z</time>
      </trkpt>
      <trkpt lat="44.04341" lon="6.83527">
        <ele>877</ele>
        <time>2020-06-05T09:53:03.000Z</time>
      </trkpt>
      <trkpt lat="44.04341" lon="6.83526">
        <ele>877</ele>
        <time>2020-06-05T09:53:04.000Z</time>
      </trkpt>
      <trkpt lat="44.04341" lon="6.83525">
        <ele>877</ele>
        <time>2020-06-05T09:53:05.000Z</time>
      </trkpt>
      <trkpt lat="44.04341" lon="6.83524">
        <ele>878</ele>
        <time>2020-06-05T09:53:06.000Z</time>
      </trkpt>
      <trkpt lat="44.04342" lon="6.83524">
        <ele>878</ele>
        <time>2020-06-05T09:53:07.000Z</time>
      </trkpt>
      <trkpt lat="44.04342" lon="6.83523">
        <ele>878</ele>
        <time>2020-06-05T09:53:08.000Z</time>
      </trkpt>
      <trkpt lat="44.04343" lon="6.83523">
        <ele>878</ele>
        <time>2020-06-05T09:53:09.000Z</time>
      </trkpt>
      <trkpt lat="44.04344" lon="6.83522">
        <ele>878</ele>
        <time>2020-06-05T09:53:10.000Z</time>
      </trkpt>
      <trkpt lat="44.04344" lon="6.83521">
        <ele>879</ele>
        <time>2020-06-05T09:53:11.000Z</time>
      </trkpt>
      <trkpt lat="44.04344" lon="6.8352">
        <ele>879</ele>
        <time>2020-06-05T09:53:12.000Z</time>
      </trkpt>
      <trkpt lat="44.04345" lon="6.83519">
        <ele>879</ele>
        <time>2020-06-05T09:53:13.000Z</time>
      </trkpt>
      <trkpt lat="44.04345" lon="6.83518">
        <ele>879</ele>
        <time>2020-06-05T09:53:14.000Z</time>
      </trkpt>
      <trkpt lat="44.04346" lon="6.83517">
        <ele>879</ele>
        <time>2020-06-05T09:53:15.000Z</time>
      </trkpt>
      <trkpt lat="44.04346" lon="6.83517">
        <ele>879</ele>
        <time>2020-06-05T09:53:16.000Z</time>
      </trkpt>
      <trkpt lat="44.04347" lon="6.83517">
        <ele>880</ele>
        <time>2020-06-05T09:53:17.000Z</time>
      </trkpt>
      <trkpt lat="44.04347" lon="6.83516">
        <ele>880</ele>
        <time>2020-06-05T09:53:18.000Z</time>
      </trkpt>
      <trkpt lat="44.04348" lon="6.83516">
        <ele>880</ele>
        <time>2020-06-05T09:53:19.000Z</time>
      </trkpt>
      <trkpt lat="44.04348" lon="6.83515">
        <ele>880</ele>
        <time>2020-06-05T09:53:20.000Z</time>
      </trkpt>
      <trkpt lat="44.04348" lon="6.83514">
        <ele>880</ele>
        <time>2020-06-05T09:53:21.000Z</time>
      </trkpt>
      <trkpt lat="44.04349" lon="6.83513">
        <ele>880</ele>
        <time>2020-06-05T09:53:22.000Z</time>
      </trkpt>
      <trkpt lat="44.04349" lon="6.83512">
        <ele>881</ele>
        <time>2020-06-05T09:53:23.000Z</time>
      </trkpt>
      <trkpt lat="44.0435" lon="6.83511">
        <ele>881</ele>
        <time>2020-06-05T09:53:24.000Z</time>
      </trkpt>
      <trkpt lat="44.0435" lon="6.83511">
        <ele>881</ele>
        <time>2020-06-05T09:53:25.000Z</time>
      </trkpt>
      <trkpt lat="44.0435" lon="6.8351">
        <ele>881</ele>
        <time>2020-06-05T09:53:26.000Z</time>
      </trkpt>
      <trkpt lat="44.04351" lon="6.83509">
        <ele>881</ele>
        <time>2020-06-05T09:53:27.000Z</time>
      </trkpt>
      <trkpt lat="44.04351" lon="6.83508">
        <ele>881</ele>
        <time>2020-06-05T09:53:28.000Z</time>
      </trkpt>
      <trkpt lat="44.04352" lon="6.83507">
        <ele>881</ele>
        <time>2020-06-05T09:53:29.000Z</time>
      </trkpt>
      <trkpt lat="44.04353" lon="6.83506">
        <ele>882</ele>
        <time>2020-06-05T09:53:30.000Z</time>
      </trkpt>
      <trkpt lat="44.04353" lon="6.83505">
        <ele>882</ele>
        <time>2020-06-05T09:53:31.000Z</time>
      </trkpt>
      <trkpt lat="44.04354" lon="6.83504">
        <ele>882</ele>
        <time>2020-06-05T09:53:32.000Z</time>
      </trkpt>
      <trkpt lat="44.04354" lon="6.83503">
        <ele>882</ele>
        <time>2020-06-05T09:53:33.000Z</time>
      </trkpt>
      <trkpt lat="44.04355" lon="6.83503">
        <ele>882</ele>
        <time>2020-06-05T09:53:34.000Z</time>
      </trkpt>
      <trkpt lat="44.04356" lon="6.83502">
        <ele>882</ele>
        <time>2020-06-05T09:53:35.000Z</time>
      </trkpt>
      <trkpt lat="44.04356" lon="6.83502">
        <ele>883</ele>
        <time>2020-06-05T09:53:36.000Z</time>
      </trkpt>
      <trkpt lat="44.04357" lon="6.83502">
        <ele>883</ele>
        <time>2020-06-05T09:53:37.000Z</time>
      </trkpt>
      <trkpt lat="44.04358" lon="6.83503">
        <ele>883</ele>
        <time>2020-06-05T09:53:38.000Z</time>
      </trkpt>
      <trkpt lat="44.04359" lon="6.83504">
        <ele>883</ele>
        <time>2020-06-05T09:53:39.000Z</time>
      </trkpt>
      <trkpt lat="44.0436" lon="6.83505">
        <ele>883</ele>
        <time>2020-06-05T09:53:40.000Z</time>
      </trkpt>
      <trkpt lat="44.0436" lon="6.83505">
        <ele>883</ele>
        <time>2020-06-05T09:53:41.000Z</time>
      </trkpt>
      <trkpt lat="44.0436" lon="6.83506">
        <ele>883</ele>
        <time>2020-06-05T09:53:42.000Z</time>
      </trkpt>
      <trkpt lat="44.04361" lon="6.83506">
        <ele>884</ele>
        <time>2020-06-05T09:53:43.000Z</time>
      </trkpt>
      <trkpt lat="44.04361" lon="6.83507">
        <ele>884</ele>
        <time>2020-06-05T09:53:44.000Z</time>
      </trkpt>
      <trkpt lat="44.04361" lon="6.83507">
        <ele>884</ele>
        <time>2020-06-05T09:53:45.000Z</time>
      </trkpt>
      <trkpt lat="44.04361" lon="6.83508">
        <ele>884</ele>
        <time>2020-06-05T09:53:46.000Z</time>
      </trkpt>
      <trkpt lat="44.04361" lon="6.83509">
        <ele>884</ele>
        <time>2020-06-05T09:53:47.000Z</time>
      </trkpt>
      <trkpt lat="44.04361" lon="6.8351">
        <ele>884</ele>
        <time>2020-06-05T09:53:48.000Z</time>
      </trkpt>
      <trkpt lat="44.04361" lon="6.83511">
        <ele>884</ele>
        <time>2020-06-05T09:53:49.000Z</time>
      </trkpt>
      <trkpt lat="44.04361" lon="6.83512">
        <ele>884</ele>
        <time>2020-06-05T09:53:50.000Z</time>
      </trkpt>
      <trkpt lat="44.04361" lon="6.83513">
        <ele>884</ele>
        <time>2020-06-05T09:53:51.000Z</time>
      </trkpt>
      <trkpt lat="44.04361" lon="6.83514">
        <ele>884</ele>
        <time>2020-06-05T09:53:52.000Z</time>
      </trkpt>
      <trkpt lat="44.04361" lon="6.83514">
        <ele>885</ele>
        <time>2020-06-05T09:53:53.000Z</time>
      </trkpt>
      <trkpt lat="44.04361" lon="6.83515">
        <ele>885</ele>
        <time>2020-06-05T09:53:54.000Z</time>
      </trkpt>
      <trkpt lat="44.04362" lon="6.83516">
        <ele>885</ele>
        <time>2020-06-05T09:53:55.000Z</time>
      </trkpt>
      <trkpt lat="44.04362" lon="6.83517">
        <ele>885</ele>
        <time>2020-06-05T09:53:56.000Z</time>
      </trkpt>
      <trkpt lat="44.04362" lon="6.83518">
        <ele>885</ele>
        <time>2020-06-05T09:53:57.000Z</time>
      </trkpt>
      <trkpt lat="44.04362" lon="6.83519">
        <ele>885</ele>
        <time>2020-06-05T09:53:58.000Z</time>
      </trkpt>
      <trkpt lat="44.04362" lon="6.8352">
        <ele>885</ele>
        <time>2020-06-05T09:53:59.000Z</time>
      </trkpt>
      <trkpt lat="44.04362" lon="6.83521">
        <ele>886</ele>
        <time>2020-06-05T09:54:00.000Z</time>
      </trkpt>
      <trkpt lat="44.04362" lon="6.83522">
        <ele>886</ele>
        <time>2020-06-05T09:54:01.000Z</time>
      </trkpt>
      <trkpt lat="44.04362" lon="6.83523">
        <ele>886</ele>
        <time>2020-06-05T09:54:02.000Z</time>
      </trkpt>
      <trkpt lat="44.04362" lon="6.83523">
        <ele>886</ele>
        <time>2020-06-05T09:54:03.000Z</time>
      </trkpt>
      <trkpt lat="44.04362" lon="6.83525">
        <ele>886</ele>
        <time>2020-06-05T09:54:04.000Z</time>
      </trkpt>
      <trkpt lat="44.04362" lon="6.83526">
        <ele>886</ele>
        <time>2020-06-05T09:54:05.000Z</time>
      </trkpt>
      <trkpt lat="44.04362" lon="6.83527">
        <ele>886</ele>
        <time>2020-06-05T09:54:06.000Z</time>
      </trkpt>
      <trkpt lat="44.04362" lon="6.83528">
        <ele>887</ele>
        <time>2020-06-05T09:54:07.000Z</time>
      </trkpt>
      <trkpt lat="44.04362" lon="6.83529">
        <ele>887</ele>
        <time>2020-06-05T09:54:08.000Z</time>
      </trkpt>
      <trkpt lat="44.04363" lon="6.8353">
        <ele>887</ele>
        <time>2020-06-05T09:54:09.000Z</time>
      </trkpt>
      <trkpt lat="44.04363" lon="6.83531">
        <ele>887</ele>
        <time>2020-06-05T09:54:10.000Z</time>
      </trkpt>
      <trkpt lat="44.04363" lon="6.83531">
        <ele>887</ele>
        <time>2020-06-05T09:54:11.000Z</time>
      </trkpt>
      <trkpt lat="44.04364" lon="6.83532">
        <ele>888</ele>
        <time>2020-06-05T09:54:12.000Z</time>
      </trkpt>
      <trkpt lat="44.04364" lon="6.83532">
        <ele>888</ele>
        <time>2020-06-05T09:54:13.000Z</time>
      </trkpt>
      <trkpt lat="44.04365" lon="6.83532">
        <ele>888</ele>
        <time>2020-06-05T09:54:14.000Z</time>
      </trkpt>
      <trkpt lat="44.04365" lon="6.83533">
        <ele>888</ele>
        <time>2020-06-05T09:54:15.000Z</time>
      </trkpt>
      <trkpt lat="44.04366" lon="6.83533">
        <ele>888</ele>
        <time>2020-06-05T09:54:16.000Z</time>
      </trkpt>
      <trkpt lat="44.04367" lon="6.83534">
        <ele>888</ele>
        <time>2020-06-05T09:54:17.000Z</time>
      </trkpt>
      <trkpt lat="44.04367" lon="6.83535">
        <ele>888</ele>
        <time>2020-06-05T09:54:18.000Z</time>
      </trkpt>
      <trkpt lat="44.04367" lon="6.83536">
        <ele>888</ele>
        <time>2020-06-05T09:54:19.000Z</time>
      </trkpt>
      <trkpt lat="44.04368" lon="6.83537">
        <ele>888</ele>
        <time>2020-06-05T09:54:20.000Z</time>
      </trkpt>
      <trkpt lat="44.04368" lon="6.83537">
        <ele>889</ele>
        <time>2020-06-05T09:54:21.000Z</time>
      </trkpt>
      <trkpt lat="44.04368" lon="6.83538">
        <ele>889</ele>
        <time>2020-06-05T09:54:22.000Z</time>
      </trkpt>
      <trkpt lat="44.04368" lon="6.83538">
        <ele>889</ele>
        <time>2020-06-05T09:54:23.000Z</time>
      </trkpt>
      <trkpt lat="44.04368" lon="6.83538">
        <ele>889</ele>
        <time>2020-06-05T09:54:24.000Z</time>
      </trkpt>
      <trkpt lat="44.04368" lon="6.83538">
        <ele>889</ele>
        <time>2020-06-05T09:54:25.000Z</time>
      </trkpt>
      <trkpt lat="44.04368" lon="6.83538">
        <ele>889</ele>
        <time>2020-06-05T09:54:26.000Z</time>
      </trkpt>
      <trkpt lat="44.04368" lon="6.83537">
        <ele>889</ele>
        <time>2020-06-05T09:54:27.000Z</time>
      </trkpt>
      <trkpt lat="44.04368" lon="6.83537">
        <ele>889</ele>
        <time>2020-06-05T09:54:28.000Z</time>
      </trkpt>
      <trkpt lat="44.04368" lon="6.83537">
        <ele>889</ele>
        <time>2020-06-05T09:54:29.000Z</time>
      </trkpt>
      <trkpt lat="44.04368" lon="6.83537">
        <ele>889</ele>
        <time>2020-06-05T09:54:30.000Z</time>
      </trkpt>
      <trkpt lat="44.04368" lon="6.83537">
        <ele>889</ele>
        <time>2020-06-05T09:54:31.000Z</time>
      </trkpt>
      <trkpt lat="44.04368" lon="6.83537">
        <ele>889</ele>
        <time>2020-06-05T09:54:32.000Z</time>
      </trkpt>
      <trkpt lat="44.04368" lon="6.83537">
        <ele>889</ele>
        <time>2020-06-05T09:54:33.000Z</time>
      </trkpt>
      <trkpt lat="44.04368" lon="6.83537">
        <ele>889</ele>
        <time>2020-06-05T09:54:34.000Z</time>
      </trkpt>
      <trkpt lat="44.04368" lon="6.83538">
        <ele>889</ele>
        <time>2020-06-05T09:54:35.000Z</time>
      </trkpt>
      <trkpt lat="44.04368" lon="6.83538">
        <ele>889</ele>
        <time>2020-06-05T09:54:36.000Z</time>
      </trkpt>
      <trkpt lat="44.04368" lon="6.83539">
        <ele>889</ele>
        <time>2020-06-05T09:54:37.000Z</time>
      </trkpt>
      <trkpt lat="44.04369" lon="6.83539">
        <ele>889</ele>
        <time>2020-06-05T09:54:38.000Z</time>
      </trkpt>
      <trkpt lat="44.04369" lon="6.8354">
        <ele>889</ele>
        <time>2020-06-05T09:54:39.000Z</time>
      </trkpt>
      <trkpt lat="44.0437" lon="6.8354">
        <ele>889</ele>
        <time>2020-06-05T09:54:40.000Z</time>
      </trkpt>
      <trkpt lat="44.04371" lon="6.83541">
        <ele>889</ele>
        <time>2020-06-05T09:54:41.000Z</time>
      </trkpt>
      <trkpt lat="44.04372" lon="6.83541">
        <ele>889</ele>
        <time>2020-06-05T09:54:42.000Z</time>
      </trkpt>
      <trkpt lat="44.04372" lon="6.83541">
        <ele>889</ele>
        <time>2020-06-05T09:54:43.000Z</time>
      </trkpt>
      <trkpt lat="44.04373" lon="6.83542">
        <ele>889</ele>
        <time>2020-06-05T09:54:44.000Z</time>
      </trkpt>
      <trkpt lat="44.04374" lon="6.83542">
        <ele>889</ele>
        <time>2020-06-05T09:54:45.000Z</time>
      </trkpt>
      <trkpt lat="44.04374" lon="6.83543">
        <ele>889</ele>
        <time>2020-06-05T09:54:46.000Z</time>
      </trkpt>
      <trkpt lat="44.04375" lon="6.83543">
        <ele>889</ele>
        <time>2020-06-05T09:54:47.000Z</time>
      </trkpt>
      <trkpt lat="44.04375" lon="6.83543">
        <ele>889</ele>
        <time>2020-06-05T09:54:48.000Z</time>
      </trkpt>
      <trkpt lat="44.04375" lon="6.83543">
        <ele>889</ele>
        <time>2020-06-05T09:54:49.000Z</time>
      </trkpt>
      <trkpt lat="44.04375" lon="6.83543">
        <ele>889</ele>
        <time>2020-06-05T09:54:50.000Z</time>
      </trkpt>
      <trkpt lat="44.04375" lon="6.83543">
        <ele>889</ele>
        <time>2020-06-05T09:54:51.000Z</time>
      </trkpt>
      <trkpt lat="44.04375" lon="6.83543">
        <ele>889</ele>
        <time>2020-06-05T09:54:52.000Z</time>
      </trkpt>
      <trkpt lat="44.04375" lon="6.83543">
        <ele>889</ele>
        <time>2020-06-05T09:54:53.000Z</time>
      </trkpt>
      <trkpt lat="44.04375" lon="6.83542">
        <ele>889</ele>
        <time>2020-06-05T09:54:54.000Z</time>
      </trkpt>
      <trkpt lat="44.04375" lon="6.83542">
        <ele>889</ele>
        <time>2020-06-05T09:54:55.000Z</time>
      </trkpt>
      <trkpt lat="44.04375" lon="6.83542">
        <ele>889</ele>
        <time>2020-06-05T09:54:56.000Z</time>
      </trkpt>
      <trkpt lat="44.04375" lon="6.83542">
        <ele>889</ele>
        <time>2020-06-05T09:54:57.000Z</time>
      </trkpt>
      <trkpt lat="44.04375" lon="6.83542">
        <ele>889</ele>
        <time>2020-06-05T09:54:58.000Z</time>
      </trkpt>
      <trkpt lat="44.04375" lon="6.83542">
        <ele>889</ele>
        <time>2020-06-05T09:54:59.000Z</time>
      </trkpt>
      <trkpt lat="44.04375" lon="6.83542">
        <ele>889</ele>
        <time>2020-06-05T09:55:00.000Z</time>
      </trkpt>
      <trkpt lat="44.04375" lon="6.83542">
        <ele>889</ele>
        <time>2020-06-05T09:55:01.000Z</time>
      </trkpt>
      <trkpt lat="44.04375" lon="6.83542">
        <ele>889</ele>
        <time>2020-06-05T09:55:02.000Z</time>
      </trkpt>
      <trkpt lat="44.04376" lon="6.83543">
        <ele>889</ele>
        <time>2020-06-05T09:55:03.000Z</time>
      </trkpt>
      <trkpt lat="44.04376" lon="6.83544">
        <ele>889</ele>
        <time>2020-06-05T09:55:04.000Z</time>
      </trkpt>
      <trkpt lat="44.04377" lon="6.83545">
        <ele>890</ele>
        <time>2020-06-05T09:55:05.000Z</time>
      </trkpt>
      <trkpt lat="44.04377" lon="6.83546">
        <ele>890</ele>
        <time>2020-06-05T09:55:06.000Z</time>
      </trkpt>
      <trkpt lat="44.04377" lon="6.83547">
        <ele>890</ele>
        <time>2020-06-05T09:55:07.000Z</time>
      </trkpt>
      <trkpt lat="44.04378" lon="6.83548">
        <ele>890</ele>
        <time>2020-06-05T09:55:08.000Z</time>
      </trkpt>
      <trkpt lat="44.04378" lon="6.8355">
        <ele>890</ele>
        <time>2020-06-05T09:55:09.000Z</time>
      </trkpt>
      <trkpt lat="44.04378" lon="6.8355">
        <ele>890</ele>
        <time>2020-06-05T09:55:10.000Z</time>
      </trkpt>
      <trkpt lat="44.04378" lon="6.83552">
        <ele>890</ele>
        <time>2020-06-05T09:55:11.000Z</time>
      </trkpt>
      <trkpt lat="44.04378" lon="6.83552">
        <ele>890</ele>
        <time>2020-06-05T09:55:12.000Z</time>
      </trkpt>
      <trkpt lat="44.04379" lon="6.83554">
        <ele>891</ele>
        <time>2020-06-05T09:55:13.000Z</time>
      </trkpt>
      <trkpt lat="44.04379" lon="6.83555">
        <ele>891</ele>
        <time>2020-06-05T09:55:14.000Z</time>
      </trkpt>
      <trkpt lat="44.04379" lon="6.83556">
        <ele>891</ele>
        <time>2020-06-05T09:55:15.000Z</time>
      </trkpt>
      <trkpt lat="44.04379" lon="6.83557">
        <ele>891</ele>
        <time>2020-06-05T09:55:16.000Z</time>
      </trkpt>
      <trkpt lat="44.04379" lon="6.83558">
        <ele>891</ele>
        <time>2020-06-05T09:55:17.000Z</time>
      </trkpt>
      <trkpt lat="44.04379" lon="6.83559">
        <ele>891</ele>
        <time>2020-06-05T09:55:18.000Z</time>
      </trkpt>
      <trkpt lat="44.04379" lon="6.8356">
        <ele>891</ele>
        <time>2020-06-05T09:55:19.000Z</time>
      </trkpt>
      <trkpt lat="44.04379" lon="6.83561">
        <ele>891</ele>
        <time>2020-06-05T09:55:20.000Z</time>
      </trkpt>
      <trkpt lat="44.04379" lon="6.83562">
        <ele>891</ele>
        <time>2020-06-05T09:55:21.000Z</time>
      </trkpt>
      <trkpt lat="44.04379" lon="6.83562">
        <ele>891</ele>
        <time>2020-06-05T09:55:22.000Z</time>
      </trkpt>
      <trkpt lat="44.04379" lon="6.83564">
        <ele>892</ele>
        <time>2020-06-05T09:55:23.000Z</time>
      </trkpt>
      <trkpt lat="44.0438" lon="6.83565">
        <ele>892</ele>
        <time>2020-06-05T09:55:24.000Z</time>
      </trkpt>
      <trkpt lat="44.0438" lon="6.83565">
        <ele>892</ele>
        <time>2020-06-05T09:55:25.000Z</time>
      </trkpt>
      <trkpt lat="44.0438" lon="6.83566">
        <ele>892</ele>
        <time>2020-06-05T09:55:26.000Z</time>
      </trkpt>
      <trkpt lat="44.0438" lon="6.83567">
        <ele>892</ele>
        <time>2020-06-05T09:55:27.000Z</time>
      </trkpt>
      <trkpt lat="44.0438" lon="6.83568">
        <ele>892</ele>
        <time>2020-06-05T09:55:28.000Z</time>
      </trkpt>
      <trkpt lat="44.0438" lon="6.83568">
        <ele>892</ele>
        <time>2020-06-05T09:55:29.000Z</time>
      </trkpt>
      <trkpt lat="44.0438" lon="6.83569">
        <ele>892</ele>
        <time>2020-06-05T09:55:30.000Z</time>
      </trkpt>
      <trkpt lat="44.0438" lon="6.8357">
        <ele>892</ele>
        <time>2020-06-05T09:55:31.000Z</time>
      </trkpt>
      <trkpt lat="44.0438" lon="6.83571">
        <ele>892</ele>
        <time>2020-06-05T09:55:32.000Z</time>
      </trkpt>
      <trkpt lat="44.0438" lon="6.83572">
        <ele>892</ele>
        <time>2020-06-05T09:55:33.000Z</time>
      </trkpt>
      <trkpt lat="44.0438" lon="6.83573">
        <ele>893</ele>
        <time>2020-06-05T09:55:34.000Z</time>
      </trkpt>
      <trkpt lat="44.0438" lon="6.83574">
        <ele>893</ele>
        <time>2020-06-05T09:55:35.000Z</time>
      </trkpt>
      <trkpt lat="44.0438" lon="6.83575">
        <ele>893</ele>
        <time>2020-06-05T09:55:36.000Z</time>
      </trkpt>
      <trkpt lat="44.0438" lon="6.83575">
        <ele>893</ele>
        <time>2020-06-05T09:55:37.000Z</time>
      </trkpt>
      <trkpt lat="44.04379" lon="6.83576">
        <ele>893</ele>
        <time>2020-06-05T09:55:38.000Z</time>
      </trkpt>
      <trkpt lat="44.04379" lon="6.83577">
        <ele>894</ele>
        <time>2020-06-05T09:55:39.000Z</time>
      </trkpt>
      <trkpt lat="44.04379" lon="6.83578">
        <ele>894</ele>
        <time>2020-06-05T09:55:40.000Z</time>
      </trkpt>
      <trkpt lat="44.04378" lon="6.83579">
        <ele>894</ele>
        <time>2020-06-05T09:55:41.000Z</time>
      </trkpt>
      <trkpt lat="44.04378" lon="6.8358">
        <ele>894</ele>
        <time>2020-06-05T09:55:42.000Z</time>
      </trkpt>
      <trkpt lat="44.04378" lon="6.83581">
        <ele>894</ele>
        <time>2020-06-05T09:55:43.000Z</time>
      </trkpt>
      <trkpt lat="44.04378" lon="6.83582">
        <ele>895</ele>
        <time>2020-06-05T09:55:44.000Z</time>
      </trkpt>
      <trkpt lat="44.04377" lon="6.83583">
        <ele>895</ele>
        <time>2020-06-05T09:55:45.000Z</time>
      </trkpt>
      <trkpt lat="44.04377" lon="6.83584">
        <ele>895</ele>
        <time>2020-06-05T09:55:46.000Z</time>
      </trkpt>
      <trkpt lat="44.04377" lon="6.83585">
        <ele>895</ele>
        <time>2020-06-05T09:55:47.000Z</time>
      </trkpt>
      <trkpt lat="44.04377" lon="6.83586">
        <ele>895</ele>
        <time>2020-06-05T09:55:48.000Z</time>
      </trkpt>
      <trkpt lat="44.04377" lon="6.83587">
        <ele>895</ele>
        <time>2020-06-05T09:55:49.000Z</time>
      </trkpt>
      <trkpt lat="44.04376" lon="6.83589">
        <ele>895</ele>
        <time>2020-06-05T09:55:50.000Z</time>
      </trkpt>
      <trkpt lat="44.04376" lon="6.8359">
        <ele>895</ele>
        <time>2020-06-05T09:55:51.000Z</time>
      </trkpt>
      <trkpt lat="44.04376" lon="6.83591">
        <ele>896</ele>
        <time>2020-06-05T09:55:52.000Z</time>
      </trkpt>
      <trkpt lat="44.04376" lon="6.83592">
        <ele>896</ele>
        <time>2020-06-05T09:55:53.000Z</time>
      </trkpt>
      <trkpt lat="44.04376" lon="6.83593">
        <ele>896</ele>
        <time>2020-06-05T09:55:54.000Z</time>
      </trkpt>
      <trkpt lat="44.04375" lon="6.83595">
        <ele>896</ele>
        <time>2020-06-05T09:55:55.000Z</time>
      </trkpt>
      <trkpt lat="44.04375" lon="6.83596">
        <ele>896</ele>
        <time>2020-06-05T09:55:56.000Z</time>
      </trkpt>
      <trkpt lat="44.04375" lon="6.83597">
        <ele>896</ele>
        <time>2020-06-05T09:55:57.000Z</time>
      </trkpt>
      <trkpt lat="44.04375" lon="6.83599">
        <ele>896</ele>
        <time>2020-06-05T09:55:58.000Z</time>
      </trkpt>
      <trkpt lat="44.04375" lon="6.836">
        <ele>896</ele>
        <time>2020-06-05T09:55:59.000Z</time>
      </trkpt>
      <trkpt lat="44.04375" lon="6.83601">
        <ele>896</ele>
        <time>2020-06-05T09:56:00.000Z</time>
      </trkpt>
      <trkpt lat="44.04375" lon="6.83603">
        <ele>896</ele>
        <time>2020-06-05T09:56:01.000Z</time>
      </trkpt>
      <trkpt lat="44.04376" lon="6.83604">
        <ele>896</ele>
        <time>2020-06-05T09:56:02.000Z</time>
      </trkpt>
      <trkpt lat="44.04376" lon="6.83605">
        <ele>896</ele>
        <time>2020-06-05T09:56:03.000Z</time>
      </trkpt>
      <trkpt lat="44.04376" lon="6.83606">
        <ele>896</ele>
        <time>2020-06-05T09:56:04.000Z</time>
      </trkpt>
      <trkpt lat="44.04376" lon="6.83607">
        <ele>896</ele>
        <time>2020-06-05T09:56:05.000Z</time>
      </trkpt>
      <trkpt lat="44.04376" lon="6.83609">
        <ele>896</ele>
        <time>2020-06-05T09:56:06.000Z</time>
      </trkpt>
      <trkpt lat="44.04377" lon="6.8361">
        <ele>897</ele>
        <time>2020-06-05T09:56:07.000Z</time>
      </trkpt>
      <trkpt lat="44.04377" lon="6.83611">
        <ele>897</ele>
        <time>2020-06-05T09:56:08.000Z</time>
      </trkpt>
      <trkpt lat="44.04377" lon="6.83612">
        <ele>897</ele>
        <time>2020-06-05T09:56:09.000Z</time>
      </trkpt>
      <trkpt lat="44.04377" lon="6.83613">
        <ele>897</ele>
        <time>2020-06-05T09:56:10.000Z</time>
      </trkpt>
      <trkpt lat="44.04378" lon="6.83615">
        <ele>897</ele>
        <time>2020-06-05T09:56:11.000Z</time>
      </trkpt>
      <trkpt lat="44.04378" lon="6.83616">
        <ele>897</ele>
        <time>2020-06-05T09:56:12.000Z</time>
      </trkpt>
      <trkpt lat="44.04378" lon="6.83617">
        <ele>897</ele>
        <time>2020-06-05T09:56:13.000Z</time>
      </trkpt>
      <trkpt lat="44.04378" lon="6.83618">
        <ele>897</ele>
        <time>2020-06-05T09:56:14.000Z</time>
      </trkpt>
      <trkpt lat="44.04379" lon="6.8362">
        <ele>897</ele>
        <time>2020-06-05T09:56:15.000Z</time>
      </trkpt>
      <trkpt lat="44.04379" lon="6.83621">
        <ele>898</ele>
        <time>2020-06-05T09:56:16.000Z</time>
      </trkpt>
      <trkpt lat="44.04379" lon="6.83622">
        <ele>898</ele>
        <time>2020-06-05T09:56:17.000Z</time>
      </trkpt>
      <trkpt lat="44.04379" lon="6.83623">
        <ele>898</ele>
        <time>2020-06-05T09:56:18.000Z</time>
      </trkpt>
      <trkpt lat="44.04379" lon="6.83623">
        <ele>898</ele>
        <time>2020-06-05T09:56:19.000Z</time>
      </trkpt>
      <trkpt lat="44.04379" lon="6.83624">
        <ele>898</ele>
        <time>2020-06-05T09:56:20.000Z</time>
      </trkpt>
      <trkpt lat="44.04379" lon="6.83624">
        <ele>898</ele>
        <time>2020-06-05T09:56:21.000Z</time>
      </trkpt>
      <trkpt lat="44.04379" lon="6.83624">
        <ele>898</ele>
        <time>2020-06-05T09:56:22.000Z</time>
      </trkpt>
      <trkpt lat="44.04379" lon="6.83624">
        <ele>898</ele>
        <time>2020-06-05T09:56:23.000Z</time>
      </trkpt>
      <trkpt lat="44.04379" lon="6.83624">
        <ele>898</ele>
        <time>2020-06-05T09:56:24.000Z</time>
      </trkpt>
      <trkpt lat="44.04379" lon="6.83624">
        <ele>898</ele>
        <time>2020-06-05T09:56:25.000Z</time>
      </trkpt>
      <trkpt lat="44.04379" lon="6.83624">
        <ele>898</ele>
        <time>2020-06-05T09:56:26.000Z</time>
      </trkpt>
      <trkpt lat="44.04379" lon="6.83624">
        <ele>898</ele>
        <time>2020-06-05T09:56:27.000Z</time>
      </trkpt>
      <trkpt lat="44.04379" lon="6.83625">
        <ele>898</ele>
        <time>2020-06-05T09:56:28.000Z</time>
      </trkpt>
      <trkpt lat="44.04379" lon="6.83626">
        <ele>898</ele>
        <time>2020-06-05T09:56:29.000Z</time>
      </trkpt>
      <trkpt lat="44.04379" lon="6.83626">
        <ele>898</ele>
        <time>2020-06-05T09:56:30.000Z</time>
      </trkpt>
      <trkpt lat="44.04379" lon="6.83626">
        <ele>898</ele>
        <time>2020-06-05T09:56:31.000Z</time>
      </trkpt>
      <trkpt lat="44.04379" lon="6.83626">
        <ele>898</ele>
        <time>2020-06-05T09:56:32.000Z</time>
      </trkpt>
      <trkpt lat="44.04379" lon="6.83626">
        <ele>898</ele>
        <time>2020-06-05T09:56:33.000Z</time>
      </trkpt>
      <trkpt lat="44.04379" lon="6.83626">
        <ele>898</ele>
        <time>2020-06-05T09:56:34.000Z</time>
      </trkpt>
      <trkpt lat="44.04379" lon="6.83626">
        <ele>898</ele>
        <time>2020-06-05T09:56:35.000Z</time>
      </trkpt>
      <trkpt lat="44.04379" lon="6.83626">
        <ele>898</ele>
        <time>2020-06-05T09:56:36.000Z</time>
      </trkpt>
      <trkpt lat="44.04379" lon="6.83626">
        <ele>898</ele>
        <time>2020-06-05T09:56:37.000Z</time>
      </trkpt>
      <trkpt lat="44.04379" lon="6.83626">
        <ele>898</ele>
        <time>2020-06-05T09:56:38.000Z</time>
      </trkpt>
      <trkpt lat="44.04379" lon="6.83626">
        <ele>898</ele>
        <time>2020-06-05T09:56:39.000Z</time>
      </trkpt>
      <trkpt lat="44.04379" lon="6.83627">
        <ele>898</ele>
        <time>2020-06-05T09:56:40.000Z</time>
      </trkpt>
      <trkpt lat="44.04379" lon="6.83627">
        <ele>898</ele>
        <time>2020-06-05T09:56:41.000Z</time>
      </trkpt>
      <trkpt lat="44.04379" lon="6.83627">
        <ele>898</ele>
        <time>2020-06-05T09:56:42.000Z</time>
      </trkpt>
      <trkpt lat="44.04379" lon="6.83627">
        <ele>898</ele>
        <time>2020-06-05T09:56:43.000Z</time>
      </trkpt>
      <trkpt lat="44.04379" lon="6.83627">
        <ele>898</ele>
        <time>2020-06-05T09:56:44.000Z</time>
      </trkpt>
      <trkpt lat="44.04379" lon="6.83627">
        <ele>898</ele>
        <time>2020-06-05T09:56:45.000Z</time>
      </trkpt>
      <trkpt lat="44.04379" lon="6.83627">
        <ele>898</ele>
        <time>2020-06-05T09:56:46.000Z</time>
      </trkpt>
      <trkpt lat="44.04379" lon="6.83627">
        <ele>898</ele>
        <time>2020-06-05T09:56:47.000Z</time>
      </trkpt>
      <trkpt lat="44.04379" lon="6.83626">
        <ele>898</ele>
        <time>2020-06-05T09:56:48.000Z</time>
      </trkpt>
      <trkpt lat="44.04379" lon="6.83626">
        <ele>898</ele>
        <time>2020-06-05T09:56:49.000Z</time>
      </trkpt>
      <trkpt lat="44.04379" lon="6.83626">
        <ele>898</ele>
        <time>2020-06-05T09:56:50.000Z</time>
      </trkpt>
      <trkpt lat="44.04379" lon="6.83626">
        <ele>898</ele>
        <time>2020-06-05T09:56:51.000Z</time>
      </trkpt>
      <trkpt lat="44.04379" lon="6.83626">
        <ele>898</ele>
        <time>2020-06-05T09:56:52.000Z</time>
      </trkpt>
      <trkpt lat="44.04379" lon="6.83627">
        <ele>898</ele>
        <time>2020-06-05T09:56:53.000Z</time>
      </trkpt>
      <trkpt lat="44.0438" lon="6.83628">
        <ele>898</ele>
        <time>2020-06-05T09:56:54.000Z</time>
      </trkpt>
      <trkpt lat="44.0438" lon="6.83628">
        <ele>898</ele>
        <time>2020-06-05T09:56:55.000Z</time>
      </trkpt>
      <trkpt lat="44.0438" lon="6.83628">
        <ele>898</ele>
        <time>2020-06-05T09:56:56.000Z</time>
      </trkpt>
      <trkpt lat="44.0438" lon="6.83628">
        <ele>898</ele>
        <time>2020-06-05T09:56:57.000Z</time>
      </trkpt>
      <trkpt lat="44.0438" lon="6.83628">
        <ele>898</ele>
        <time>2020-06-05T09:56:58.000Z</time>
      </trkpt>
      <trkpt lat="44.0438" lon="6.83628">
        <ele>898</ele>
        <time>2020-06-05T09:56:59.000Z</time>
      </trkpt>
      <trkpt lat="44.0438" lon="6.83628">
        <ele>898</ele>
        <time>2020-06-05T09:57:00.000Z</time>
      </trkpt>
      <trkpt lat="44.0438" lon="6.83628">
        <ele>898</ele>
        <time>2020-06-05T09:57:01.000Z</time>
      </trkpt>
      <trkpt lat="44.0438" lon="6.83628">
        <ele>898</ele>
        <time>2020-06-05T09:57:02.000Z</time>
      </trkpt>
      <trkpt lat="44.0438" lon="6.83628">
        <ele>898</ele>
        <time>2020-06-05T09:57:03.000Z</time>
      </trkpt>
      <trkpt lat="44.04379" lon="6.83628">
        <ele>898</ele>
        <time>2020-06-05T09:57:04.000Z</time>
      </trkpt>
      <trkpt lat="44.04379" lon="6.83628">
        <ele>898</ele>
        <time>2020-06-05T09:57:05.000Z</time>
      </trkpt>
      <trkpt lat="44.04379" lon="6.83628">
        <ele>898</ele>
        <time>2020-06-05T09:57:06.000Z</time>
      </trkpt>
      <trkpt lat="44.04379" lon="6.83628">
        <ele>898</ele>
        <time>2020-06-05T09:57:07.000Z</time>
      </trkpt>
      <trkpt lat="44.0438" lon="6.83628">
        <ele>898</ele>
        <time>2020-06-05T09:57:08.000Z</time>
      </trkpt>
      <trkpt lat="44.0438" lon="6.83628">
        <ele>898</ele>
        <time>2020-06-05T09:57:09.000Z</time>
      </trkpt>
      <trkpt lat="44.0438" lon="6.83628">
        <ele>898</ele>
        <time>2020-06-05T09:57:10.000Z</time>
      </trkpt>
      <trkpt lat="44.0438" lon="6.83628">
        <ele>898</ele>
        <time>2020-06-05T09:57:11.000Z</time>
      </trkpt>
      <trkpt lat="44.0438" lon="6.83628">
        <ele>898</ele>
        <time>2020-06-05T09:57:12.000Z</time>
      </trkpt>
      <trkpt lat="44.0438" lon="6.83628">
        <ele>898</ele>
        <time>2020-06-05T09:57:13.000Z</time>
      </trkpt>
      <trkpt lat="44.0438" lon="6.83628">
        <ele>898</ele>
        <time>2020-06-05T09:57:14.000Z</time>
      </trkpt>
      <trkpt lat="44.0438" lon="6.83628">
        <ele>898</ele>
        <time>2020-06-05T09:57:15.000Z</time>
      </trkpt>
      <trkpt lat="44.0438" lon="6.83628">
        <ele>898</ele>
        <time>2020-06-05T09:57:16.000Z</time>
      </trkpt>
      <trkpt lat="44.0438" lon="6.83628">
        <ele>898</ele>
        <time>2020-06-05T09:57:17.000Z</time>
      </trkpt>
      <trkpt lat="44.0438" lon="6.83628">
        <ele>898</ele>
        <time>2020-06-05T09:57:18.000Z</time>
      </trkpt>
      <trkpt lat="44.0438" lon="6.83628">
        <ele>898</ele>
        <time>2020-06-05T09:57:19.000Z</time>
      </trkpt>
      <trkpt lat="44.0438" lon="6.83628">
        <ele>898</ele>
        <time>2020-06-05T09:57:20.000Z</time>
      </trkpt>
      <trkpt lat="44.0438" lon="6.83628">
        <ele>898</ele>
        <time>2020-06-05T09:57:21.000Z</time>
      </trkpt>
      <trkpt lat="44.0438" lon="6.83629">
        <ele>898</ele>
        <time>2020-06-05T09:57:22.000Z</time>
      </trkpt>
      <trkpt lat="44.0438" lon="6.8363">
        <ele>898</ele>
        <time>2020-06-05T09:57:23.000Z</time>
      </trkpt>
      <trkpt lat="44.04379" lon="6.8363">
        <ele>898</ele>
        <time>2020-06-05T09:57:24.000Z</time>
      </trkpt>
      <trkpt lat="44.04379" lon="6.83631">
        <ele>898</ele>
        <time>2020-06-05T09:57:25.000Z</time>
      </trkpt>
      <trkpt lat="44.04379" lon="6.83633">
        <ele>899</ele>
        <time>2020-06-05T09:57:26.000Z</time>
      </trkpt>
      <trkpt lat="44.04379" lon="6.83634">
        <ele>899</ele>
        <time>2020-06-05T09:57:27.000Z</time>
      </trkpt>
      <trkpt lat="44.04378" lon="6.83635">
        <ele>899</ele>
        <time>2020-06-05T09:57:28.000Z</time>
      </trkpt>
      <trkpt lat="44.04378" lon="6.83636">
        <ele>899</ele>
        <time>2020-06-05T09:57:29.000Z</time>
      </trkpt>
      <trkpt lat="44.04377" lon="6.83636">
        <ele>899</ele>
        <time>2020-06-05T09:57:30.000Z</time>
      </trkpt>
      <trkpt lat="44.04377" lon="6.83637">
        <ele>899</ele>
        <time>2020-06-05T09:57:31.000Z</time>
      </trkpt>
      <trkpt lat="44.04377" lon="6.83638">
        <ele>899</ele>
        <time>2020-06-05T09:57:32.000Z</time>
      </trkpt>
      <trkpt lat="44.04376" lon="6.83639">
        <ele>899</ele>
        <time>2020-06-05T09:57:33.000Z</time>
      </trkpt>
      <trkpt lat="44.04375" lon="6.8364">
        <ele>899</ele>
        <time>2020-06-05T09:57:34.000Z</time>
      </trkpt>
      <trkpt lat="44.04375" lon="6.8364">
        <ele>899</ele>
        <time>2020-06-05T09:57:35.000Z</time>
      </trkpt>
      <trkpt lat="44.04374" lon="6.83641">
        <ele>899</ele>
        <time>2020-06-05T09:57:36.000Z</time>
      </trkpt>
      <trkpt lat="44.04374" lon="6.83641">
        <ele>900</ele>
        <time>2020-06-05T09:57:37.000Z</time>
      </trkpt>
      <trkpt lat="44.04373" lon="6.83641">
        <ele>900</ele>
        <time>2020-06-05T09:57:38.000Z</time>
      </trkpt>
      <trkpt lat="44.04372" lon="6.83642">
        <ele>900</ele>
        <time>2020-06-05T09:57:39.000Z</time>
      </trkpt>
      <trkpt lat="44.04371" lon="6.83642">
        <ele>900</ele>
        <time>2020-06-05T09:57:40.000Z</time>
      </trkpt>
      <trkpt lat="44.0437" lon="6.83642">
        <ele>900</ele>
        <time>2020-06-05T09:57:41.000Z</time>
      </trkpt>
      <trkpt lat="44.04369" lon="6.83642">
        <ele>900</ele>
        <time>2020-06-05T09:57:42.000Z</time>
      </trkpt>
      <trkpt lat="44.04368" lon="6.83642">
        <ele>900</ele>
        <time>2020-06-05T09:57:43.000Z</time>
      </trkpt>
      <trkpt lat="44.04368" lon="6.83642">
        <ele>900</ele>
        <time>2020-06-05T09:57:44.000Z</time>
      </trkpt>
      <trkpt lat="44.04367" lon="6.83642">
        <ele>900</ele>
        <time>2020-06-05T09:57:45.000Z</time>
      </trkpt>
      <trkpt lat="44.04366" lon="6.83642">
        <ele>900</ele>
        <time>2020-06-05T09:57:46.000Z</time>
      </trkpt>
      <trkpt lat="44.04365" lon="6.83642">
        <ele>900</ele>
        <time>2020-06-05T09:57:47.000Z</time>
      </trkpt>
      <trkpt lat="44.04365" lon="6.83643">
        <ele>900</ele>
        <time>2020-06-05T09:57:48.000Z</time>
      </trkpt>
      <trkpt lat="44.04364" lon="6.83643">
        <ele>900</ele>
        <time>2020-06-05T09:57:49.000Z</time>
      </trkpt>
      <trkpt lat="44.04363" lon="6.83643">
        <ele>900</ele>
        <time>2020-06-05T09:57:50.000Z</time>
      </trkpt>
      <trkpt lat="44.04362" lon="6.83643">
        <ele>900</ele>
        <time>2020-06-05T09:57:51.000Z</time>
      </trkpt>
      <trkpt lat="44.04361" lon="6.83644">
        <ele>900</ele>
        <time>2020-06-05T09:57:52.000Z</time>
      </trkpt>
      <trkpt lat="44.0436" lon="6.83643">
        <ele>900</ele>
        <time>2020-06-05T09:57:53.000Z</time>
      </trkpt>
      <trkpt lat="44.04359" lon="6.83643">
        <ele>900</ele>
        <time>2020-06-05T09:57:54.000Z</time>
      </trkpt>
      <trkpt lat="44.04358" lon="6.83644">
        <ele>901</ele>
        <time>2020-06-05T09:57:55.000Z</time>
      </trkpt>
      <trkpt lat="44.04358" lon="6.83644">
        <ele>901</ele>
        <time>2020-06-05T09:57:56.000Z</time>
      </trkpt>
      <trkpt lat="44.04357" lon="6.83645">
        <ele>901</ele>
        <time>2020-06-05T09:57:57.000Z</time>
      </trkpt>
      <trkpt lat="44.04356" lon="6.83645">
        <ele>901</ele>
        <time>2020-06-05T09:57:58.000Z</time>
      </trkpt>
      <trkpt lat="44.04355" lon="6.83646">
        <ele>901</ele>
        <time>2020-06-05T09:57:59.000Z</time>
      </trkpt>
      <trkpt lat="44.04355" lon="6.83647">
        <ele>901</ele>
        <time>2020-06-05T09:58:00.000Z</time>
      </trkpt>
      <trkpt lat="44.04355" lon="6.83648">
        <ele>901</ele>
        <time>2020-06-05T09:58:01.000Z</time>
      </trkpt>
      <trkpt lat="44.04354" lon="6.83648">
        <ele>901</ele>
        <time>2020-06-05T09:58:02.000Z</time>
      </trkpt>
      <trkpt lat="44.04354" lon="6.83649">
        <ele>901</ele>
        <time>2020-06-05T09:58:03.000Z</time>
      </trkpt>
      <trkpt lat="44.04353" lon="6.8365">
        <ele>901</ele>
        <time>2020-06-05T09:58:04.000Z</time>
      </trkpt>
      <trkpt lat="44.04353" lon="6.83652">
        <ele>901</ele>
        <time>2020-06-05T09:58:05.000Z</time>
      </trkpt>
      <trkpt lat="44.04353" lon="6.83653">
        <ele>901</ele>
        <time>2020-06-05T09:58:06.000Z</time>
      </trkpt>
      <trkpt lat="44.04353" lon="6.83654">
        <ele>902</ele>
        <time>2020-06-05T09:58:07.000Z</time>
      </trkpt>
      <trkpt lat="44.04353" lon="6.83655">
        <ele>902</ele>
        <time>2020-06-05T09:58:08.000Z</time>
      </trkpt>
      <trkpt lat="44.04353" lon="6.83656">
        <ele>902</ele>
        <time>2020-06-05T09:58:09.000Z</time>
      </trkpt>
      <trkpt lat="44.04353" lon="6.83657">
        <ele>902</ele>
        <time>2020-06-05T09:58:10.000Z</time>
      </trkpt>
      <trkpt lat="44.04353" lon="6.83658">
        <ele>902</ele>
        <time>2020-06-05T09:58:11.000Z</time>
      </trkpt>
      <trkpt lat="44.04353" lon="6.83658">
        <ele>902</ele>
        <time>2020-06-05T09:58:12.000Z</time>
      </trkpt>
      <trkpt lat="44.04353" lon="6.83658">
        <ele>902</ele>
        <time>2020-06-05T09:58:13.000Z</time>
      </trkpt>
      <trkpt lat="44.04353" lon="6.83658">
        <ele>902</ele>
        <time>2020-06-05T09:58:14.000Z</time>
      </trkpt>
      <trkpt lat="44.04353" lon="6.83658">
        <ele>902</ele>
        <time>2020-06-05T09:58:15.000Z</time>
      </trkpt>
      <trkpt lat="44.04353" lon="6.83659">
        <ele>903</ele>
        <time>2020-06-05T09:58:16.000Z</time>
      </trkpt>
      <trkpt lat="44.04353" lon="6.83659">
        <ele>903</ele>
        <time>2020-06-05T09:58:17.000Z</time>
      </trkpt>
      <trkpt lat="44.04353" lon="6.83659">
        <ele>903</ele>
        <time>2020-06-05T09:58:18.000Z</time>
      </trkpt>
      <trkpt lat="44.04353" lon="6.83659">
        <ele>903</ele>
        <time>2020-06-05T09:58:19.000Z</time>
      </trkpt>
      <trkpt lat="44.04353" lon="6.83659">
        <ele>903</ele>
        <time>2020-06-05T09:58:20.000Z</time>
      </trkpt>
      <trkpt lat="44.04353" lon="6.83659">
        <ele>903</ele>
        <time>2020-06-05T09:58:21.000Z</time>
      </trkpt>
      <trkpt lat="44.04353" lon="6.83659">
        <ele>903</ele>
        <time>2020-06-05T09:58:22.000Z</time>
      </trkpt>
      <trkpt lat="44.04353" lon="6.83659">
        <ele>903</ele>
        <time>2020-06-05T09:58:23.000Z</time>
      </trkpt>
      <trkpt lat="44.04353" lon="6.83659">
        <ele>903</ele>
        <time>2020-06-05T09:58:24.000Z</time>
      </trkpt>
      <trkpt lat="44.04353" lon="6.83659">
        <ele>903</ele>
        <time>2020-06-05T09:58:25.000Z</time>
      </trkpt>
      <trkpt lat="44.04353" lon="6.83659">
        <ele>903</ele>
        <time>2020-06-05T09:58:26.000Z</time>
      </trkpt>
      <trkpt lat="44.04353" lon="6.83659">
        <ele>903</ele>
        <time>2020-06-05T09:58:27.000Z</time>
      </trkpt>
      <trkpt lat="44.04353" lon="6.8366">
        <ele>903</ele>
        <time>2020-06-05T09:58:28.000Z</time>
      </trkpt>
      <trkpt lat="44.04354" lon="6.83661">
        <ele>903</ele>
        <time>2020-06-05T09:58:29.000Z</time>
      </trkpt>
      <trkpt lat="44.04354" lon="6.83662">
        <ele>903</ele>
        <time>2020-06-05T09:58:30.000Z</time>
      </trkpt>
      <trkpt lat="44.04354" lon="6.83663">
        <ele>904</ele>
        <time>2020-06-05T09:58:31.000Z</time>
      </trkpt>
      <trkpt lat="44.04355" lon="6.83664">
        <ele>904</ele>
        <time>2020-06-05T09:58:32.000Z</time>
      </trkpt>
      <trkpt lat="44.04355" lon="6.83665">
        <ele>904</ele>
        <time>2020-06-05T09:58:33.000Z</time>
      </trkpt>
      <trkpt lat="44.04355" lon="6.83666">
        <ele>904</ele>
        <time>2020-06-05T09:58:34.000Z</time>
      </trkpt>
      <trkpt lat="44.04355" lon="6.83667">
        <ele>904</ele>
        <time>2020-06-05T09:58:35.000Z</time>
      </trkpt>
      <trkpt lat="44.04355" lon="6.83668">
        <ele>904</ele>
        <time>2020-06-05T09:58:36.000Z</time>
      </trkpt>
      <trkpt lat="44.04355" lon="6.83669">
        <ele>905</ele>
        <time>2020-06-05T09:58:37.000Z</time>
      </trkpt>
      <trkpt lat="44.04355" lon="6.8367">
        <ele>905</ele>
        <time>2020-06-05T09:58:38.000Z</time>
      </trkpt>
      <trkpt lat="44.04355" lon="6.83671">
        <ele>905</ele>
        <time>2020-06-05T09:58:39.000Z</time>
      </trkpt>
      <trkpt lat="44.04355" lon="6.83672">
        <ele>905</ele>
        <time>2020-06-05T09:58:40.000Z</time>
      </trkpt>
      <trkpt lat="44.04355" lon="6.83673">
        <ele>905</ele>
        <time>2020-06-05T09:58:41.000Z</time>
      </trkpt>
      <trkpt lat="44.04354" lon="6.83674">
        <ele>905</ele>
        <time>2020-06-05T09:58:42.000Z</time>
      </trkpt>
      <trkpt lat="44.04354" lon="6.83675">
        <ele>905</ele>
        <time>2020-06-05T09:58:43.000Z</time>
      </trkpt>
      <trkpt lat="44.04354" lon="6.83675">
        <ele>906</ele>
        <time>2020-06-05T09:58:44.000Z</time>
      </trkpt>
      <trkpt lat="44.04354" lon="6.83677">
        <ele>906</ele>
        <time>2020-06-05T09:58:45.000Z</time>
      </trkpt>
      <trkpt lat="44.04354" lon="6.83678">
        <ele>906</ele>
        <time>2020-06-05T09:58:46.000Z</time>
      </trkpt>
      <trkpt lat="44.04354" lon="6.83679">
        <ele>906</ele>
        <time>2020-06-05T09:58:47.000Z</time>
      </trkpt>
      <trkpt lat="44.04354" lon="6.83679">
        <ele>906</ele>
        <time>2020-06-05T09:58:48.000Z</time>
      </trkpt>
      <trkpt lat="44.04353" lon="6.8368">
        <ele>907</ele>
        <time>2020-06-05T09:58:49.000Z</time>
      </trkpt>
      <trkpt lat="44.04353" lon="6.83681">
        <ele>907</ele>
        <time>2020-06-05T09:58:50.000Z</time>
      </trkpt>
      <trkpt lat="44.04352" lon="6.83682">
        <ele>907</ele>
        <time>2020-06-05T09:58:51.000Z</time>
      </trkpt>
      <trkpt lat="44.04352" lon="6.83682">
        <ele>907</ele>
        <time>2020-06-05T09:58:52.000Z</time>
      </trkpt>
      <trkpt lat="44.04352" lon="6.83683">
        <ele>907</ele>
        <time>2020-06-05T09:58:53.000Z</time>
      </trkpt>
      <trkpt lat="44.04351" lon="6.83683">
        <ele>907</ele>
        <time>2020-06-05T09:58:54.000Z</time>
      </trkpt>
      <trkpt lat="44.0435" lon="6.83684">
        <ele>907</ele>
        <time>2020-06-05T09:58:55.000Z</time>
      </trkpt>
      <trkpt lat="44.0435" lon="6.83684">
        <ele>908</ele>
        <time>2020-06-05T09:58:56.000Z</time>
      </trkpt>
      <trkpt lat="44.0435" lon="6.83685">
        <ele>908</ele>
        <time>2020-06-05T09:58:57.000Z</time>
      </trkpt>
      <trkpt lat="44.04349" lon="6.83685">
        <ele>908</ele>
        <time>2020-06-05T09:58:58.000Z</time>
      </trkpt>
      <trkpt lat="44.04349" lon="6.83686">
        <ele>908</ele>
        <time>2020-06-05T09:58:59.000Z</time>
      </trkpt>
      <trkpt lat="44.04348" lon="6.83686">
        <ele>908</ele>
        <time>2020-06-05T09:59:00.000Z</time>
      </trkpt>
      <trkpt lat="44.04348" lon="6.83687">
        <ele>909</ele>
        <time>2020-06-05T09:59:01.000Z</time>
      </trkpt>
      <trkpt lat="44.04347" lon="6.83687">
        <ele>909</ele>
        <time>2020-06-05T09:59:02.000Z</time>
      </trkpt>
      <trkpt lat="44.04347" lon="6.83688">
        <ele>909</ele>
        <time>2020-06-05T09:59:03.000Z</time>
      </trkpt>
      <trkpt lat="44.04346" lon="6.83689">
        <ele>909</ele>
        <time>2020-06-05T09:59:04.000Z</time>
      </trkpt>
      <trkpt lat="44.04345" lon="6.83689">
        <ele>909</ele>
        <time>2020-06-05T09:59:05.000Z</time>
      </trkpt>
      <trkpt lat="44.04345" lon="6.8369">
        <ele>909</ele>
        <time>2020-06-05T09:59:06.000Z</time>
      </trkpt>
      <trkpt lat="44.04344" lon="6.8369">
        <ele>910</ele>
        <time>2020-06-05T09:59:07.000Z</time>
      </trkpt>
      <trkpt lat="44.04344" lon="6.83691">
        <ele>910</ele>
        <time>2020-06-05T09:59:08.000Z</time>
      </trkpt>
      <trkpt lat="44.04343" lon="6.83691">
        <ele>910</ele>
        <time>2020-06-05T09:59:09.000Z</time>
      </trkpt>
      <trkpt lat="44.04343" lon="6.83692">
        <ele>910</ele>
        <time>2020-06-05T09:59:10.000Z</time>
      </trkpt>
      <trkpt lat="44.04342" lon="6.83693">
        <ele>910</ele>
        <time>2020-06-05T09:59:11.000Z</time>
      </trkpt>
      <trkpt lat="44.04341" lon="6.83694">
        <ele>910</ele>
        <time>2020-06-05T09:59:12.000Z</time>
      </trkpt>
      <trkpt lat="44.04341" lon="6.83695">
        <ele>910</ele>
        <time>2020-06-05T09:59:13.000Z</time>
      </trkpt>
      <trkpt lat="44.0434" lon="6.83695">
        <ele>910</ele>
        <time>2020-06-05T09:59:14.000Z</time>
      </trkpt>
      <trkpt lat="44.0434" lon="6.83696">
        <ele>910</ele>
        <time>2020-06-05T09:59:15.000Z</time>
      </trkpt>
      <trkpt lat="44.04339" lon="6.83697">
        <ele>911</ele>
        <time>2020-06-05T09:59:16.000Z</time>
      </trkpt>
      <trkpt lat="44.04339" lon="6.83697">
        <ele>911</ele>
        <time>2020-06-05T09:59:17.000Z</time>
      </trkpt>
      <trkpt lat="44.04338" lon="6.83698">
        <ele>911</ele>
        <time>2020-06-05T09:59:18.000Z</time>
      </trkpt>
      <trkpt lat="44.04338" lon="6.83698">
        <ele>911</ele>
        <time>2020-06-05T09:59:19.000Z</time>
      </trkpt>
      <trkpt lat="44.04337" lon="6.83699">
        <ele>911</ele>
        <time>2020-06-05T09:59:20.000Z</time>
      </trkpt>
      <trkpt lat="44.04337" lon="6.837">
        <ele>911</ele>
        <time>2020-06-05T09:59:21.000Z</time>
      </trkpt>
      <trkpt lat="44.04336" lon="6.83701">
        <ele>912</ele>
        <time>2020-06-05T09:59:22.000Z</time>
      </trkpt>
      <trkpt lat="44.04336" lon="6.83702">
        <ele>912</ele>
        <time>2020-06-05T09:59:23.000Z</time>
      </trkpt>
      <trkpt lat="44.04335" lon="6.83702">
        <ele>912</ele>
        <time>2020-06-05T09:59:24.000Z</time>
      </trkpt>
      <trkpt lat="44.04335" lon="6.83703">
        <ele>912</ele>
        <time>2020-06-05T09:59:25.000Z</time>
      </trkpt>
      <trkpt lat="44.04335" lon="6.83703">
        <ele>912</ele>
        <time>2020-06-05T09:59:26.000Z</time>
      </trkpt>
      <trkpt lat="44.04335" lon="6.83703">
        <ele>912</ele>
        <time>2020-06-05T09:59:27.000Z</time>
      </trkpt>
      <trkpt lat="44.04335" lon="6.83703">
        <ele>912</ele>
        <time>2020-06-05T09:59:28.000Z</time>
      </trkpt>
      <trkpt lat="44.04335" lon="6.83703">
        <ele>912</ele>
        <time>2020-06-05T09:59:29.000Z</time>
      </trkpt>
      <trkpt lat="44.04335" lon="6.83703">
        <ele>913</ele>
        <time>2020-06-05T09:59:30.000Z</time>
      </trkpt>
      <trkpt lat="44.04335" lon="6.83703">
        <ele>913</ele>
        <time>2020-06-05T09:59:31.000Z</time>
      </trkpt>
      <trkpt lat="44.04334" lon="6.83703">
        <ele>913</ele>
        <time>2020-06-05T09:59:32.000Z</time>
      </trkpt>
      <trkpt lat="44.04334" lon="6.83703">
        <ele>913</ele>
        <time>2020-06-05T09:59:33.000Z</time>
      </trkpt>
      <trkpt lat="44.04334" lon="6.83703">
        <ele>913</ele>
        <time>2020-06-05T09:59:34.000Z</time>
      </trkpt>
      <trkpt lat="44.04334" lon="6.83703">
        <ele>913</ele>
        <time>2020-06-05T09:59:35.000Z</time>
      </trkpt>
      <trkpt lat="44.04334" lon="6.83703">
        <ele>913</ele>
        <time>2020-06-05T09:59:36.000Z</time>
      </trkpt>
      <trkpt lat="44.04334" lon="6.83703">
        <ele>913</ele>
        <time>2020-06-05T09:59:37.000Z</time>
      </trkpt>
      <trkpt lat="44.04334" lon="6.83703">
        <ele>913</ele>
        <time>2020-06-05T09:59:38.000Z</time>
      </trkpt>
      <trkpt lat="44.04334" lon="6.83703">
        <ele>913</ele>
        <time>2020-06-05T09:59:39.000Z</time>
      </trkpt>
      <trkpt lat="44.04334" lon="6.83703">
        <ele>913</ele>
        <time>2020-06-05T09:59:40.000Z</time>
      </trkpt>
      <trkpt lat="44.04333" lon="6.83704">
        <ele>913</ele>
        <time>2020-06-05T09:59:41.000Z</time>
      </trkpt>
      <trkpt lat="44.04333" lon="6.83704">
        <ele>913</ele>
        <time>2020-06-05T09:59:42.000Z</time>
      </trkpt>
      <trkpt lat="44.04333" lon="6.83704">
        <ele>913</ele>
        <time>2020-06-05T09:59:43.000Z</time>
      </trkpt>
      <trkpt lat="44.04333" lon="6.83705">
        <ele>913</ele>
        <time>2020-06-05T09:59:44.000Z</time>
      </trkpt>
      <trkpt lat="44.04333" lon="6.83705">
        <ele>913</ele>
        <time>2020-06-05T09:59:45.000Z</time>
      </trkpt>
      <trkpt lat="44.04333" lon="6.83705">
        <ele>913</ele>
        <time>2020-06-05T09:59:46.000Z</time>
      </trkpt>
      <trkpt lat="44.04333" lon="6.83705">
        <ele>913</ele>
        <time>2020-06-05T09:59:47.000Z</time>
      </trkpt>
      <trkpt lat="44.04333" lon="6.83705">
        <ele>913</ele>
        <time>2020-06-05T09:59:48.000Z</time>
      </trkpt>
      <trkpt lat="44.04333" lon="6.83705">
        <ele>913</ele>
        <time>2020-06-05T09:59:49.000Z</time>
      </trkpt>
      <trkpt lat="44.04333" lon="6.83705">
        <ele>913</ele>
        <time>2020-06-05T09:59:50.000Z</time>
      </trkpt>
      <trkpt lat="44.04333" lon="6.83705">
        <ele>913</ele>
        <time>2020-06-05T09:59:51.000Z</time>
      </trkpt>
      <trkpt lat="44.04333" lon="6.83705">
        <ele>913</ele>
        <time>2020-06-05T09:59:52.000Z</time>
      </trkpt>
      <trkpt lat="44.04333" lon="6.83705">
        <ele>913</ele>
        <time>2020-06-05T09:59:53.000Z</time>
      </trkpt>
      <trkpt lat="44.04333" lon="6.83705">
        <ele>914</ele>
        <time>2020-06-05T09:59:54.000Z</time>
      </trkpt>
      <trkpt lat="44.04333" lon="6.83705">
        <ele>914</ele>
        <time>2020-06-05T09:59:55.000Z</time>
      </trkpt>
      <trkpt lat="44.04333" lon="6.83705">
        <ele>914</ele>
        <time>2020-06-05T09:59:56.000Z</time>
      </trkpt>
      <trkpt lat="44.04333" lon="6.83706">
        <ele>914</ele>
        <time>2020-06-05T09:59:57.000Z</time>
      </trkpt>
      <trkpt lat="44.04333" lon="6.83707">
        <ele>914</ele>
        <time>2020-06-05T09:59:58.000Z</time>
      </trkpt>
      <trkpt lat="44.04333" lon="6.83708">
        <ele>914</ele>
        <time>2020-06-05T09:59:59.000Z</time>
      </trkpt>
      <trkpt lat="44.04332" lon="6.83709">
        <ele>914</ele>
        <time>2020-06-05T10:00:00.000Z</time>
      </trkpt>
      <trkpt lat="44.04332" lon="6.83709">
        <ele>914</ele>
        <time>2020-06-05T10:00:01.000Z</time>
      </trkpt>
      <trkpt lat="44.04332" lon="6.8371">
        <ele>915</ele>
        <time>2020-06-05T10:00:02.000Z</time>
      </trkpt>
      <trkpt lat="44.04332" lon="6.83711">
        <ele>915</ele>
        <time>2020-06-05T10:00:03.000Z</time>
      </trkpt>
      <trkpt lat="44.04332" lon="6.83712">
        <ele>915</ele>
        <time>2020-06-05T10:00:04.000Z</time>
      </trkpt>
      <trkpt lat="44.04332" lon="6.83713">
        <ele>915</ele>
        <time>2020-06-05T10:00:05.000Z</time>
      </trkpt>
      <trkpt lat="44.04332" lon="6.83713">
        <ele>915</ele>
        <time>2020-06-05T10:00:06.000Z</time>
      </trkpt>
      <trkpt lat="44.04332" lon="6.83714">
        <ele>916</ele>
        <time>2020-06-05T10:00:07.000Z</time>
      </trkpt>
      <trkpt lat="44.04332" lon="6.83715">
        <ele>916</ele>
        <time>2020-06-05T10:00:08.000Z</time>
      </trkpt>
      <trkpt lat="44.04333" lon="6.83716">
        <ele>916</ele>
        <time>2020-06-05T10:00:09.000Z</time>
      </trkpt>
      <trkpt lat="44.04333" lon="6.83717">
        <ele>916</ele>
        <time>2020-06-05T10:00:10.000Z</time>
      </trkpt>
      <trkpt lat="44.04334" lon="6.83717">
        <ele>917</ele>
        <time>2020-06-05T10:00:11.000Z</time>
      </trkpt>
      <trkpt lat="44.04334" lon="6.83717">
        <ele>917</ele>
        <time>2020-06-05T10:00:12.000Z</time>
      </trkpt>
      <trkpt lat="44.04335" lon="6.83717">
        <ele>917</ele>
        <time>2020-06-05T10:00:13.000Z</time>
      </trkpt>
      <trkpt lat="44.04336" lon="6.83717">
        <ele>917</ele>
        <time>2020-06-05T10:00:14.000Z</time>
      </trkpt>
      <trkpt lat="44.04336" lon="6.83717">
        <ele>917</ele>
        <time>2020-06-05T10:00:15.000Z</time>
      </trkpt>
      <trkpt lat="44.04337" lon="6.83717">
        <ele>917</ele>
        <time>2020-06-05T10:00:16.000Z</time>
      </trkpt>
      <trkpt lat="44.04338" lon="6.83716">
        <ele>917</ele>
        <time>2020-06-05T10:00:17.000Z</time>
      </trkpt>
      <trkpt lat="44.04338" lon="6.83716">
        <ele>918</ele>
        <time>2020-06-05T10:00:18.000Z</time>
      </trkpt>
      <trkpt lat="44.04339" lon="6.83715">
        <ele>918</ele>
        <time>2020-06-05T10:00:19.000Z</time>
      </trkpt>
      <trkpt lat="44.04339" lon="6.83715">
        <ele>918</ele>
        <time>2020-06-05T10:00:20.000Z</time>
      </trkpt>
      <trkpt lat="44.0434" lon="6.83714">
        <ele>918</ele>
        <time>2020-06-05T10:00:21.000Z</time>
      </trkpt>
      <trkpt lat="44.04341" lon="6.83714">
        <ele>918</ele>
        <time>2020-06-05T10:00:22.000Z</time>
      </trkpt>
      <trkpt lat="44.04342" lon="6.83714">
        <ele>918</ele>
        <time>2020-06-05T10:00:23.000Z</time>
      </trkpt>
      <trkpt lat="44.04343" lon="6.83713">
        <ele>918</ele>
        <time>2020-06-05T10:00:24.000Z</time>
      </trkpt>
      <trkpt lat="44.04343" lon="6.83713">
        <ele>918</ele>
        <time>2020-06-05T10:00:25.000Z</time>
      </trkpt>
      <trkpt lat="44.04344" lon="6.83713">
        <ele>919</ele>
        <time>2020-06-05T10:00:26.000Z</time>
      </trkpt>
      <trkpt lat="44.04345" lon="6.83713">
        <ele>919</ele>
        <time>2020-06-05T10:00:27.000Z</time>
      </trkpt>
      <trkpt lat="44.04346" lon="6.83713">
        <ele>919</ele>
        <time>2020-06-05T10:00:28.000Z</time>
      </trkpt>
      <trkpt lat="44.04347" lon="6.83713">
        <ele>919</ele>
        <time>2020-06-05T10:00:29.000Z</time>
      </trkpt>
      <trkpt lat="44.04348" lon="6.83713">
        <ele>919</ele>
        <time>2020-06-05T10:00:30.000Z</time>
      </trkpt>
      <trkpt lat="44.04348" lon="6.83713">
        <ele>919</ele>
        <time>2020-06-05T10:00:31.000Z</time>
      </trkpt>
      <trkpt lat="44.04349" lon="6.83713">
        <ele>919</ele>
        <time>2020-06-05T10:00:32.000Z</time>
      </trkpt>
      <trkpt lat="44.0435" lon="6.83713">
        <ele>919</ele>
        <time>2020-06-05T10:00:33.000Z</time>
      </trkpt>
      <trkpt lat="44.04351" lon="6.83713">
        <ele>919</ele>
        <time>2020-06-05T10:00:34.000Z</time>
      </trkpt>
      <trkpt lat="44.04352" lon="6.83714">
        <ele>919</ele>
        <time>2020-06-05T10:00:35.000Z</time>
      </trkpt>
      <trkpt lat="44.04353" lon="6.83714">
        <ele>920</ele>
        <time>2020-06-05T10:00:36.000Z</time>
      </trkpt>
      <trkpt lat="44.04353" lon="6.83714">
        <ele>920</ele>
        <time>2020-06-05T10:00:37.000Z</time>
      </trkpt>
      <trkpt lat="44.04354" lon="6.83714">
        <ele>920</ele>
        <time>2020-06-05T10:00:38.000Z</time>
      </trkpt>
      <trkpt lat="44.04356" lon="6.83714">
        <ele>920</ele>
        <time>2020-06-05T10:00:39.000Z</time>
      </trkpt>
      <trkpt lat="44.04357" lon="6.83714">
        <ele>920</ele>
        <time>2020-06-05T10:00:40.000Z</time>
      </trkpt>
      <trkpt lat="44.04357" lon="6.83715">
        <ele>920</ele>
        <time>2020-06-05T10:00:41.000Z</time>
      </trkpt>
      <trkpt lat="44.04358" lon="6.83715">
        <ele>920</ele>
        <time>2020-06-05T10:00:42.000Z</time>
      </trkpt>
      <trkpt lat="44.04359" lon="6.83715">
        <ele>920</ele>
        <time>2020-06-05T10:00:43.000Z</time>
      </trkpt>
      <trkpt lat="44.0436" lon="6.83716">
        <ele>921</ele>
        <time>2020-06-05T10:00:44.000Z</time>
      </trkpt>
      <trkpt lat="44.0436" lon="6.83715">
        <ele>921</ele>
        <time>2020-06-05T10:00:45.000Z</time>
      </trkpt>
      <trkpt lat="44.04361" lon="6.83716">
        <ele>921</ele>
        <time>2020-06-05T10:00:46.000Z</time>
      </trkpt>
      <trkpt lat="44.04362" lon="6.83716">
        <ele>921</ele>
        <time>2020-06-05T10:00:47.000Z</time>
      </trkpt>
      <trkpt lat="44.04363" lon="6.83716">
        <ele>921</ele>
        <time>2020-06-05T10:00:48.000Z</time>
      </trkpt>
      <trkpt lat="44.04364" lon="6.83716">
        <ele>921</ele>
        <time>2020-06-05T10:00:49.000Z</time>
      </trkpt>
      <trkpt lat="44.04365" lon="6.83716">
        <ele>922</ele>
        <time>2020-06-05T10:00:50.000Z</time>
      </trkpt>
      <trkpt lat="44.04365" lon="6.83717">
        <ele>922</ele>
        <time>2020-06-05T10:00:51.000Z</time>
      </trkpt>
      <trkpt lat="44.04366" lon="6.83717">
        <ele>922</ele>
        <time>2020-06-05T10:00:52.000Z</time>
      </trkpt>
      <trkpt lat="44.04367" lon="6.83717">
        <ele>922</ele>
        <time>2020-06-05T10:00:53.000Z</time>
      </trkpt>
      <trkpt lat="44.04368" lon="6.83717">
        <ele>922</ele>
        <time>2020-06-05T10:00:54.000Z</time>
      </trkpt>
      <trkpt lat="44.04369" lon="6.83717">
        <ele>922</ele>
        <time>2020-06-05T10:00:55.000Z</time>
      </trkpt>
      <trkpt lat="44.0437" lon="6.83717">
        <ele>922</ele>
        <time>2020-06-05T10:00:56.000Z</time>
      </trkpt>
      <trkpt lat="44.04371" lon="6.83717">
        <ele>922</ele>
        <time>2020-06-05T10:00:57.000Z</time>
      </trkpt>
      <trkpt lat="44.04371" lon="6.83717">
        <ele>923</ele>
        <time>2020-06-05T10:00:58.000Z</time>
      </trkpt>
      <trkpt lat="44.04372" lon="6.83717">
        <ele>923</ele>
        <time>2020-06-05T10:00:59.000Z</time>
      </trkpt>
      <trkpt lat="44.04373" lon="6.83717">
        <ele>923</ele>
        <time>2020-06-05T10:01:00.000Z</time>
      </trkpt>
      <trkpt lat="44.04374" lon="6.83717">
        <ele>923</ele>
        <time>2020-06-05T10:01:01.000Z</time>
      </trkpt>
      <trkpt lat="44.04375" lon="6.83717">
        <ele>923</ele>
        <time>2020-06-05T10:01:02.000Z</time>
      </trkpt>
      <trkpt lat="44.04376" lon="6.83718">
        <ele>923</ele>
        <time>2020-06-05T10:01:03.000Z</time>
      </trkpt>
      <trkpt lat="44.04377" lon="6.83718">
        <ele>924</ele>
        <time>2020-06-05T10:01:04.000Z</time>
      </trkpt>
      <trkpt lat="44.04378" lon="6.83718">
        <ele>924</ele>
        <time>2020-06-05T10:01:05.000Z</time>
      </trkpt>
      <trkpt lat="44.04379" lon="6.83718">
        <ele>924</ele>
        <time>2020-06-05T10:01:06.000Z</time>
      </trkpt>
      <trkpt lat="44.0438" lon="6.83718">
        <ele>924</ele>
        <time>2020-06-05T10:01:07.000Z</time>
      </trkpt>
      <trkpt lat="44.0438" lon="6.83718">
        <ele>924</ele>
        <time>2020-06-05T10:01:08.000Z</time>
      </trkpt>
      <trkpt lat="44.04381" lon="6.83718">
        <ele>924</ele>
        <time>2020-06-05T10:01:09.000Z</time>
      </trkpt>
      <trkpt lat="44.04382" lon="6.83718">
        <ele>924</ele>
        <time>2020-06-05T10:01:10.000Z</time>
      </trkpt>
      <trkpt lat="44.04383" lon="6.83719">
        <ele>924</ele>
        <time>2020-06-05T10:01:11.000Z</time>
      </trkpt>
      <trkpt lat="44.04384" lon="6.83719">
        <ele>924</ele>
        <time>2020-06-05T10:01:12.000Z</time>
      </trkpt>
      <trkpt lat="44.04385" lon="6.83719">
        <ele>924</ele>
        <time>2020-06-05T10:01:13.000Z</time>
      </trkpt>
      <trkpt lat="44.04385" lon="6.83719">
        <ele>925</ele>
        <time>2020-06-05T10:01:14.000Z</time>
      </trkpt>
      <trkpt lat="44.04386" lon="6.83719">
        <ele>925</ele>
        <time>2020-06-05T10:01:15.000Z</time>
      </trkpt>
      <trkpt lat="44.04387" lon="6.8372">
        <ele>925</ele>
        <time>2020-06-05T10:01:16.000Z</time>
      </trkpt>
      <trkpt lat="44.04388" lon="6.8372">
        <ele>925</ele>
        <time>2020-06-05T10:01:17.000Z</time>
      </trkpt>
      <trkpt lat="44.04389" lon="6.83721">
        <ele>925</ele>
        <time>2020-06-05T10:01:18.000Z</time>
      </trkpt>
      <trkpt lat="44.0439" lon="6.83721">
        <ele>925</ele>
        <time>2020-06-05T10:01:19.000Z</time>
      </trkpt>
      <trkpt lat="44.0439" lon="6.83722">
        <ele>925</ele>
        <time>2020-06-05T10:01:20.000Z</time>
      </trkpt>
      <trkpt lat="44.04391" lon="6.83722">
        <ele>925</ele>
        <time>2020-06-05T10:01:21.000Z</time>
      </trkpt>
      <trkpt lat="44.04392" lon="6.83722">
        <ele>925</ele>
        <time>2020-06-05T10:01:22.000Z</time>
      </trkpt>
      <trkpt lat="44.04393" lon="6.83723">
        <ele>925</ele>
        <time>2020-06-05T10:01:23.000Z</time>
      </trkpt>
      <trkpt lat="44.04394" lon="6.83723">
        <ele>925</ele>
        <time>2020-06-05T10:01:24.000Z</time>
      </trkpt>
      <trkpt lat="44.04395" lon="6.83723">
        <ele>925</ele>
        <time>2020-06-05T10:01:25.000Z</time>
      </trkpt>
      <trkpt lat="44.04396" lon="6.83722">
        <ele>925</ele>
        <time>2020-06-05T10:01:26.000Z</time>
      </trkpt>
      <trkpt lat="44.04397" lon="6.83722">
        <ele>925</ele>
        <time>2020-06-05T10:01:27.000Z</time>
      </trkpt>
      <trkpt lat="44.04398" lon="6.83722">
        <ele>926</ele>
        <time>2020-06-05T10:01:28.000Z</time>
      </trkpt>
      <trkpt lat="44.04399" lon="6.83722">
        <ele>926</ele>
        <time>2020-06-05T10:01:29.000Z</time>
      </trkpt>
      <trkpt lat="44.044" lon="6.83722">
        <ele>926</ele>
        <time>2020-06-05T10:01:30.000Z</time>
      </trkpt>
      <trkpt lat="44.04401" lon="6.83722">
        <ele>926</ele>
        <time>2020-06-05T10:01:31.000Z</time>
      </trkpt>
      <trkpt lat="44.04402" lon="6.83722">
        <ele>926</ele>
        <time>2020-06-05T10:01:32.000Z</time>
      </trkpt>
      <trkpt lat="44.04403" lon="6.83721">
        <ele>926</ele>
        <time>2020-06-05T10:01:33.000Z</time>
      </trkpt>
      <trkpt lat="44.04404" lon="6.83721">
        <ele>926</ele>
        <time>2020-06-05T10:01:34.000Z</time>
      </trkpt>
      <trkpt lat="44.04405" lon="6.83721">
        <ele>926</ele>
        <time>2020-06-05T10:01:35.000Z</time>
      </trkpt>
      <trkpt lat="44.04406" lon="6.8372">
        <ele>926</ele>
        <time>2020-06-05T10:01:36.000Z</time>
      </trkpt>
      <trkpt lat="44.04407" lon="6.8372">
        <ele>926</ele>
        <time>2020-06-05T10:01:37.000Z</time>
      </trkpt>
      <trkpt lat="44.04407" lon="6.8372">
        <ele>926</ele>
        <time>2020-06-05T10:01:38.000Z</time>
      </trkpt>
      <trkpt lat="44.04408" lon="6.8372">
        <ele>926</ele>
        <time>2020-06-05T10:01:39.000Z</time>
      </trkpt>
      <trkpt lat="44.04409" lon="6.8372">
        <ele>926</ele>
        <time>2020-06-05T10:01:40.000Z</time>
      </trkpt>
      <trkpt lat="44.04408" lon="6.8372">
        <ele>926</ele>
        <time>2020-06-05T10:01:41.000Z</time>
      </trkpt>
      <trkpt lat="44.04408" lon="6.8372">
        <ele>926</ele>
        <time>2020-06-05T10:01:42.000Z</time>
      </trkpt>
      <trkpt lat="44.04409" lon="6.8372">
        <ele>926</ele>
        <time>2020-06-05T10:01:43.000Z</time>
      </trkpt>
      <trkpt lat="44.04409" lon="6.8372">
        <ele>926</ele>
        <time>2020-06-05T10:01:44.000Z</time>
      </trkpt>
      <trkpt lat="44.04409" lon="6.8372">
        <ele>926</ele>
        <time>2020-06-05T10:01:45.000Z</time>
      </trkpt>
      <trkpt lat="44.04409" lon="6.8372">
        <ele>926</ele>
        <time>2020-06-05T10:01:46.000Z</time>
      </trkpt>
      <trkpt lat="44.04409" lon="6.8372">
        <ele>926</ele>
        <time>2020-06-05T10:01:47.000Z</time>
      </trkpt>
      <trkpt lat="44.04409" lon="6.8372">
        <ele>926</ele>
        <time>2020-06-05T10:01:48.000Z</time>
      </trkpt>
      <trkpt lat="44.04409" lon="6.8372">
        <ele>926</ele>
        <time>2020-06-05T10:01:49.000Z</time>
      </trkpt>
      <trkpt lat="44.04409" lon="6.8372">
        <ele>926</ele>
        <time>2020-06-05T10:01:50.000Z</time>
      </trkpt>
      <trkpt lat="44.04409" lon="6.8372">
        <ele>926</ele>
        <time>2020-06-05T10:01:51.000Z</time>
      </trkpt>
      <trkpt lat="44.0441" lon="6.8372">
        <ele>926</ele>
        <time>2020-06-05T10:01:52.000Z</time>
      </trkpt>
      <trkpt lat="44.04411" lon="6.8372">
        <ele>926</ele>
        <time>2020-06-05T10:01:53.000Z</time>
      </trkpt>
      <trkpt lat="44.04412" lon="6.8372">
        <ele>926</ele>
        <time>2020-06-05T10:01:54.000Z</time>
      </trkpt>
      <trkpt lat="44.04413" lon="6.8372">
        <ele>926</ele>
        <time>2020-06-05T10:01:55.000Z</time>
      </trkpt>
      <trkpt lat="44.04414" lon="6.8372">
        <ele>926</ele>
        <time>2020-06-05T10:01:56.000Z</time>
      </trkpt>
      <trkpt lat="44.04416" lon="6.8372">
        <ele>927</ele>
        <time>2020-06-05T10:01:57.000Z</time>
      </trkpt>
      <trkpt lat="44.04417" lon="6.8372">
        <ele>927</ele>
        <time>2020-06-05T10:01:58.000Z</time>
      </trkpt>
      <trkpt lat="44.04418" lon="6.8372">
        <ele>927</ele>
        <time>2020-06-05T10:01:59.000Z</time>
      </trkpt>
      <trkpt lat="44.04419" lon="6.8372">
        <ele>927</ele>
        <time>2020-06-05T10:02:00.000Z</time>
      </trkpt>
      <trkpt lat="44.0442" lon="6.8372">
        <ele>927</ele>
        <time>2020-06-05T10:02:01.000Z</time>
      </trkpt>
      <trkpt lat="44.04421" lon="6.8372">
        <ele>927</ele>
        <time>2020-06-05T10:02:02.000Z</time>
      </trkpt>
      <trkpt lat="44.04422" lon="6.83721">
        <ele>927</ele>
        <time>2020-06-05T10:02:03.000Z</time>
      </trkpt>
      <trkpt lat="44.04423" lon="6.83721">
        <ele>927</ele>
        <time>2020-06-05T10:02:04.000Z</time>
      </trkpt>
      <trkpt lat="44.04424" lon="6.83722">
        <ele>927</ele>
        <time>2020-06-05T10:02:05.000Z</time>
      </trkpt>
      <trkpt lat="44.04424" lon="6.83722">
        <ele>927</ele>
        <time>2020-06-05T10:02:06.000Z</time>
      </trkpt>
      <trkpt lat="44.04425" lon="6.83722">
        <ele>927</ele>
        <time>2020-06-05T10:02:07.000Z</time>
      </trkpt>
      <trkpt lat="44.04426" lon="6.83723">
        <ele>927</ele>
        <time>2020-06-05T10:02:08.000Z</time>
      </trkpt>
      <trkpt lat="44.04426" lon="6.83723">
        <ele>927</ele>
        <time>2020-06-05T10:02:09.000Z</time>
      </trkpt>
      <trkpt lat="44.04426" lon="6.83723">
        <ele>927</ele>
        <time>2020-06-05T10:02:10.000Z</time>
      </trkpt>
      <trkpt lat="44.04426" lon="6.83723">
        <ele>927</ele>
        <time>2020-06-05T10:02:11.000Z</time>
      </trkpt>
      <trkpt lat="44.04426" lon="6.83723">
        <ele>927</ele>
        <time>2020-06-05T10:02:12.000Z</time>
      </trkpt>
      <trkpt lat="44.04426" lon="6.83723">
        <ele>927</ele>
        <time>2020-06-05T10:02:13.000Z</time>
      </trkpt>
      <trkpt lat="44.04426" lon="6.83723">
        <ele>927</ele>
        <time>2020-06-05T10:02:14.000Z</time>
      </trkpt>
      <trkpt lat="44.04426" lon="6.83723">
        <ele>927</ele>
        <time>2020-06-05T10:02:15.000Z</time>
      </trkpt>
      <trkpt lat="44.04426" lon="6.83723">
        <ele>927</ele>
        <time>2020-06-05T10:02:16.000Z</time>
      </trkpt>
      <trkpt lat="44.04426" lon="6.83723">
        <ele>927</ele>
        <time>2020-06-05T10:02:17.000Z</time>
      </trkpt>
      <trkpt lat="44.04426" lon="6.83723">
        <ele>927</ele>
        <time>2020-06-05T10:02:18.000Z</time>
      </trkpt>
      <trkpt lat="44.04426" lon="6.83723">
        <ele>927</ele>
        <time>2020-06-05T10:02:19.000Z</time>
      </trkpt>
      <trkpt lat="44.04426" lon="6.83723">
        <ele>927</ele>
        <time>2020-06-05T10:02:20.000Z</time>
      </trkpt>
      <trkpt lat="44.04426" lon="6.83723">
        <ele>927</ele>
        <time>2020-06-05T10:02:21.000Z</time>
      </trkpt>
      <trkpt lat="44.04426" lon="6.83723">
        <ele>927</ele>
        <time>2020-06-05T10:02:22.000Z</time>
      </trkpt>
      <trkpt lat="44.04426" lon="6.83722">
        <ele>927</ele>
        <time>2020-06-05T10:02:23.000Z</time>
      </trkpt>
      <trkpt lat="44.04426" lon="6.83722">
        <ele>926</ele>
        <time>2020-06-05T10:02:24.000Z</time>
      </trkpt>
      <trkpt lat="44.04426" lon="6.83721">
        <ele>926</ele>
        <time>2020-06-05T10:02:25.000Z</time>
      </trkpt>
      <trkpt lat="44.04427" lon="6.83721">
        <ele>926</ele>
        <time>2020-06-05T10:02:26.000Z</time>
      </trkpt>
      <trkpt lat="44.04427" lon="6.83722">
        <ele>926</ele>
        <time>2020-06-05T10:02:27.000Z</time>
      </trkpt>
      <trkpt lat="44.04428" lon="6.83722">
        <ele>926</ele>
        <time>2020-06-05T10:02:28.000Z</time>
      </trkpt>
      <trkpt lat="44.04429" lon="6.83722">
        <ele>926</ele>
        <time>2020-06-05T10:02:29.000Z</time>
      </trkpt>
      <trkpt lat="44.0443" lon="6.83722">
        <ele>926</ele>
        <time>2020-06-05T10:02:30.000Z</time>
      </trkpt>
      <trkpt lat="44.04431" lon="6.83721">
        <ele>927</ele>
        <time>2020-06-05T10:02:31.000Z</time>
      </trkpt>
      <trkpt lat="44.04432" lon="6.83722">
        <ele>927</ele>
        <time>2020-06-05T10:02:32.000Z</time>
      </trkpt>
      <trkpt lat="44.04433" lon="6.83722">
        <ele>927</ele>
        <time>2020-06-05T10:02:33.000Z</time>
      </trkpt>
      <trkpt lat="44.04434" lon="6.83722">
        <ele>927</ele>
        <time>2020-06-05T10:02:34.000Z</time>
      </trkpt>
      <trkpt lat="44.04435" lon="6.83722">
        <ele>927</ele>
        <time>2020-06-05T10:02:35.000Z</time>
      </trkpt>
      <trkpt lat="44.04436" lon="6.83722">
        <ele>927</ele>
        <time>2020-06-05T10:02:36.000Z</time>
      </trkpt>
      <trkpt lat="44.04437" lon="6.83723">
        <ele>927</ele>
        <time>2020-06-05T10:02:37.000Z</time>
      </trkpt>
      <trkpt lat="44.04438" lon="6.83723">
        <ele>928</ele>
        <time>2020-06-05T10:02:38.000Z</time>
      </trkpt>
      <trkpt lat="44.04439" lon="6.83724">
        <ele>928</ele>
        <time>2020-06-05T10:02:39.000Z</time>
      </trkpt>
      <trkpt lat="44.04439" lon="6.83725">
        <ele>928</ele>
        <time>2020-06-05T10:02:40.000Z</time>
      </trkpt>
      <trkpt lat="44.0444" lon="6.83725">
        <ele>928</ele>
        <time>2020-06-05T10:02:41.000Z</time>
      </trkpt>
      <trkpt lat="44.0444" lon="6.83726">
        <ele>928</ele>
        <time>2020-06-05T10:02:42.000Z</time>
      </trkpt>
      <trkpt lat="44.04441" lon="6.83726">
        <ele>928</ele>
        <time>2020-06-05T10:02:43.000Z</time>
      </trkpt>
      <trkpt lat="44.04441" lon="6.83726">
        <ele>928</ele>
        <time>2020-06-05T10:02:44.000Z</time>
      </trkpt>
      <trkpt lat="44.04441" lon="6.83726">
        <ele>928</ele>
        <time>2020-06-05T10:02:45.000Z</time>
      </trkpt>
      <trkpt lat="44.04441" lon="6.83726">
        <ele>928</ele>
        <time>2020-06-05T10:02:46.000Z</time>
      </trkpt>
      <trkpt lat="44.04441" lon="6.83726">
        <ele>928</ele>
        <time>2020-06-05T10:02:47.000Z</time>
      </trkpt>
      <trkpt lat="44.04441" lon="6.83726">
        <ele>928</ele>
        <time>2020-06-05T10:02:48.000Z</time>
      </trkpt>
      <trkpt lat="44.04441" lon="6.83726">
        <ele>928</ele>
        <time>2020-06-05T10:02:49.000Z</time>
      </trkpt>
      <trkpt lat="44.04441" lon="6.83726">
        <ele>928</ele>
        <time>2020-06-05T10:02:50.000Z</time>
      </trkpt>
      <trkpt lat="44.04442" lon="6.83726">
        <ele>928</ele>
        <time>2020-06-05T10:02:51.000Z</time>
      </trkpt>
      <trkpt lat="44.04444" lon="6.83726">
        <ele>928</ele>
        <time>2020-06-05T10:02:52.000Z</time>
      </trkpt>
      <trkpt lat="44.04445" lon="6.83726">
        <ele>929</ele>
        <time>2020-06-05T10:02:53.000Z</time>
      </trkpt>
      <trkpt lat="44.04446" lon="6.83726">
        <ele>929</ele>
        <time>2020-06-05T10:02:54.000Z</time>
      </trkpt>
      <trkpt lat="44.04447" lon="6.83726">
        <ele>929</ele>
        <time>2020-06-05T10:02:55.000Z</time>
      </trkpt>
      <trkpt lat="44.04448" lon="6.83726">
        <ele>929</ele>
        <time>2020-06-05T10:02:56.000Z</time>
      </trkpt>
      <trkpt lat="44.04449" lon="6.83727">
        <ele>929</ele>
        <time>2020-06-05T10:02:57.000Z</time>
      </trkpt>
      <trkpt lat="44.0445" lon="6.83727">
        <ele>929</ele>
        <time>2020-06-05T10:02:58.000Z</time>
      </trkpt>
      <trkpt lat="44.04452" lon="6.83728">
        <ele>929</ele>
        <time>2020-06-05T10:02:59.000Z</time>
      </trkpt>
      <trkpt lat="44.04453" lon="6.83728">
        <ele>929</ele>
        <time>2020-06-05T10:03:00.000Z</time>
      </trkpt>
      <trkpt lat="44.04454" lon="6.83728">
        <ele>929</ele>
        <time>2020-06-05T10:03:01.000Z</time>
      </trkpt>
      <trkpt lat="44.04455" lon="6.83728">
        <ele>929</ele>
        <time>2020-06-05T10:03:02.000Z</time>
      </trkpt>
      <trkpt lat="44.04456" lon="6.83729">
        <ele>929</ele>
        <time>2020-06-05T10:03:03.000Z</time>
      </trkpt>
      <trkpt lat="44.04457" lon="6.83729">
        <ele>929</ele>
        <time>2020-06-05T10:03:04.000Z</time>
      </trkpt>
      <trkpt lat="44.04458" lon="6.8373">
        <ele>929</ele>
        <time>2020-06-05T10:03:05.000Z</time>
      </trkpt>
      <trkpt lat="44.04459" lon="6.83731">
        <ele>929</ele>
        <time>2020-06-05T10:03:06.000Z</time>
      </trkpt>
      <trkpt lat="44.04459" lon="6.83731">
        <ele>930</ele>
        <time>2020-06-05T10:03:07.000Z</time>
      </trkpt>
      <trkpt lat="44.0446" lon="6.83732">
        <ele>930</ele>
        <time>2020-06-05T10:03:08.000Z</time>
      </trkpt>
      <trkpt lat="44.0446" lon="6.83733">
        <ele>930</ele>
        <time>2020-06-05T10:03:09.000Z</time>
      </trkpt>
      <trkpt lat="44.04461" lon="6.83734">
        <ele>930</ele>
        <time>2020-06-05T10:03:10.000Z</time>
      </trkpt>
      <trkpt lat="44.04462" lon="6.83734">
        <ele>930</ele>
        <time>2020-06-05T10:03:11.000Z</time>
      </trkpt>
      <trkpt lat="44.04462" lon="6.83735">
        <ele>930</ele>
        <time>2020-06-05T10:03:12.000Z</time>
      </trkpt>
      <trkpt lat="44.04463" lon="6.83735">
        <ele>931</ele>
        <time>2020-06-05T10:03:13.000Z</time>
      </trkpt>
      <trkpt lat="44.04464" lon="6.83735">
        <ele>931</ele>
        <time>2020-06-05T10:03:14.000Z</time>
      </trkpt>
      <trkpt lat="44.04465" lon="6.83735">
        <ele>931</ele>
        <time>2020-06-05T10:03:15.000Z</time>
      </trkpt>
      <trkpt lat="44.04466" lon="6.83736">
        <ele>931</ele>
        <time>2020-06-05T10:03:16.000Z</time>
      </trkpt>
      <trkpt lat="44.04467" lon="6.83736">
        <ele>931</ele>
        <time>2020-06-05T10:03:17.000Z</time>
      </trkpt>
      <trkpt lat="44.04468" lon="6.83736">
        <ele>931</ele>
        <time>2020-06-05T10:03:18.000Z</time>
      </trkpt>
      <trkpt lat="44.04469" lon="6.83736">
        <ele>931</ele>
        <time>2020-06-05T10:03:19.000Z</time>
      </trkpt>
      <trkpt lat="44.04469" lon="6.83736">
        <ele>931</ele>
        <time>2020-06-05T10:03:20.000Z</time>
      </trkpt>
      <trkpt lat="44.0447" lon="6.83736">
        <ele>931</ele>
        <time>2020-06-05T10:03:21.000Z</time>
      </trkpt>
      <trkpt lat="44.04471" lon="6.83736">
        <ele>931</ele>
        <time>2020-06-05T10:03:22.000Z</time>
      </trkpt>
      <trkpt lat="44.04472" lon="6.83736">
        <ele>931</ele>
        <time>2020-06-05T10:03:23.000Z</time>
      </trkpt>
      <trkpt lat="44.04473" lon="6.83736">
        <ele>931</ele>
        <time>2020-06-05T10:03:24.000Z</time>
      </trkpt>
      <trkpt lat="44.04473" lon="6.83736">
        <ele>931</ele>
        <time>2020-06-05T10:03:25.000Z</time>
      </trkpt>
      <trkpt lat="44.04474" lon="6.83736">
        <ele>931</ele>
        <time>2020-06-05T10:03:26.000Z</time>
      </trkpt>
      <trkpt lat="44.04475" lon="6.83736">
        <ele>931</ele>
        <time>2020-06-05T10:03:27.000Z</time>
      </trkpt>
      <trkpt lat="44.04475" lon="6.83736">
        <ele>931</ele>
        <time>2020-06-05T10:03:28.000Z</time>
      </trkpt>
      <trkpt lat="44.04475" lon="6.83736">
        <ele>931</ele>
        <time>2020-06-05T10:03:29.000Z</time>
      </trkpt>
      <trkpt lat="44.04475" lon="6.83736">
        <ele>931</ele>
        <time>2020-06-05T10:03:30.000Z</time>
      </trkpt>
      <trkpt lat="44.04475" lon="6.83736">
        <ele>931</ele>
        <time>2020-06-05T10:03:31.000Z</time>
      </trkpt>
      <trkpt lat="44.04475" lon="6.83736">
        <ele>931</ele>
        <time>2020-06-05T10:03:32.000Z</time>
      </trkpt>
      <trkpt lat="44.04475" lon="6.83736">
        <ele>931</ele>
        <time>2020-06-05T10:03:33.000Z</time>
      </trkpt>
      <trkpt lat="44.04475" lon="6.83736">
        <ele>931</ele>
        <time>2020-06-05T10:03:34.000Z</time>
      </trkpt>
      <trkpt lat="44.04475" lon="6.83736">
        <ele>931</ele>
        <time>2020-06-05T10:03:35.000Z</time>
      </trkpt>
      <trkpt lat="44.04475" lon="6.83736">
        <ele>931</ele>
        <time>2020-06-05T10:03:36.000Z</time>
      </trkpt>
      <trkpt lat="44.04475" lon="6.83735">
        <ele>931</ele>
        <time>2020-06-05T10:03:37.000Z</time>
      </trkpt>
      <trkpt lat="44.04475" lon="6.83735">
        <ele>931</ele>
        <time>2020-06-05T10:03:38.000Z</time>
      </trkpt>
      <trkpt lat="44.04476" lon="6.83735">
        <ele>931</ele>
        <time>2020-06-05T10:03:39.000Z</time>
      </trkpt>
      <trkpt lat="44.04477" lon="6.83734">
        <ele>931</ele>
        <time>2020-06-05T10:03:40.000Z</time>
      </trkpt>
      <trkpt lat="44.04478" lon="6.83734">
        <ele>931</ele>
        <time>2020-06-05T10:03:41.000Z</time>
      </trkpt>
      <trkpt lat="44.04479" lon="6.83734">
        <ele>931</ele>
        <time>2020-06-05T10:03:42.000Z</time>
      </trkpt>
      <trkpt lat="44.04479" lon="6.83733">
        <ele>931</ele>
        <time>2020-06-05T10:03:43.000Z</time>
      </trkpt>
      <trkpt lat="44.0448" lon="6.83732">
        <ele>931</ele>
        <time>2020-06-05T10:03:44.000Z</time>
      </trkpt>
      <trkpt lat="44.04481" lon="6.83731">
        <ele>932</ele>
        <time>2020-06-05T10:03:45.000Z</time>
      </trkpt>
      <trkpt lat="44.04482" lon="6.83731">
        <ele>932</ele>
        <time>2020-06-05T10:03:46.000Z</time>
      </trkpt>
      <trkpt lat="44.04483" lon="6.8373">
        <ele>932</ele>
        <time>2020-06-05T10:03:47.000Z</time>
      </trkpt>
      <trkpt lat="44.04484" lon="6.8373">
        <ele>932</ele>
        <time>2020-06-05T10:03:48.000Z</time>
      </trkpt>
      <trkpt lat="44.04486" lon="6.8373">
        <ele>932</ele>
        <time>2020-06-05T10:03:49.000Z</time>
      </trkpt>
      <trkpt lat="44.04487" lon="6.83729">
        <ele>932</ele>
        <time>2020-06-05T10:03:50.000Z</time>
      </trkpt>
      <trkpt lat="44.04488" lon="6.83729">
        <ele>932</ele>
        <time>2020-06-05T10:03:51.000Z</time>
      </trkpt>
      <trkpt lat="44.04489" lon="6.83729">
        <ele>932</ele>
        <time>2020-06-05T10:03:52.000Z</time>
      </trkpt>
      <trkpt lat="44.0449" lon="6.83728">
        <ele>932</ele>
        <time>2020-06-05T10:03:53.000Z</time>
      </trkpt>
      <trkpt lat="44.04491" lon="6.83728">
        <ele>932</ele>
        <time>2020-06-05T10:03:54.000Z</time>
      </trkpt>
      <trkpt lat="44.04491" lon="6.83728">
        <ele>932</ele>
        <time>2020-06-05T10:03:55.000Z</time>
      </trkpt>
      <trkpt lat="44.04492" lon="6.83727">
        <ele>932</ele>
        <time>2020-06-05T10:03:56.000Z</time>
      </trkpt>
      <trkpt lat="44.04493" lon="6.83727">
        <ele>932</ele>
        <time>2020-06-05T10:03:57.000Z</time>
      </trkpt>
      <trkpt lat="44.04494" lon="6.83727">
        <ele>932</ele>
        <time>2020-06-05T10:03:58.000Z</time>
      </trkpt>
      <trkpt lat="44.04495" lon="6.83726">
        <ele>932</ele>
        <time>2020-06-05T10:03:59.000Z</time>
      </trkpt>
      <trkpt lat="44.04495" lon="6.83726">
        <ele>932</ele>
        <time>2020-06-05T10:04:00.000Z</time>
      </trkpt>
      <trkpt lat="44.04496" lon="6.83726">
        <ele>932</ele>
        <time>2020-06-05T10:04:01.000Z</time>
      </trkpt>
      <trkpt lat="44.04496" lon="6.83726">
        <ele>932</ele>
        <time>2020-06-05T10:04:02.000Z</time>
      </trkpt>
      <trkpt lat="44.04497" lon="6.83727">
        <ele>932</ele>
        <time>2020-06-05T10:04:03.000Z</time>
      </trkpt>
      <trkpt lat="44.04498" lon="6.83727">
        <ele>932</ele>
        <time>2020-06-05T10:04:04.000Z</time>
      </trkpt>
      <trkpt lat="44.04499" lon="6.83727">
        <ele>932</ele>
        <time>2020-06-05T10:04:05.000Z</time>
      </trkpt>
      <trkpt lat="44.045" lon="6.83728">
        <ele>932</ele>
        <time>2020-06-05T10:04:06.000Z</time>
      </trkpt>
      <trkpt lat="44.04501" lon="6.83728">
        <ele>932</ele>
        <time>2020-06-05T10:04:07.000Z</time>
      </trkpt>
      <trkpt lat="44.04502" lon="6.83728">
        <ele>932</ele>
        <time>2020-06-05T10:04:08.000Z</time>
      </trkpt>
      <trkpt lat="44.04503" lon="6.83729">
        <ele>932</ele>
        <time>2020-06-05T10:04:09.000Z</time>
      </trkpt>
      <trkpt lat="44.04504" lon="6.83729">
        <ele>933</ele>
        <time>2020-06-05T10:04:10.000Z</time>
      </trkpt>
      <trkpt lat="44.04505" lon="6.8373">
        <ele>933</ele>
        <time>2020-06-05T10:04:11.000Z</time>
      </trkpt>
      <trkpt lat="44.04506" lon="6.8373">
        <ele>933</ele>
        <time>2020-06-05T10:04:12.000Z</time>
      </trkpt>
      <trkpt lat="44.04507" lon="6.83731">
        <ele>933</ele>
        <time>2020-06-05T10:04:13.000Z</time>
      </trkpt>
      <trkpt lat="44.04508" lon="6.83731">
        <ele>933</ele>
        <time>2020-06-05T10:04:14.000Z</time>
      </trkpt>
      <trkpt lat="44.04508" lon="6.83732">
        <ele>933</ele>
        <time>2020-06-05T10:04:15.000Z</time>
      </trkpt>
      <trkpt lat="44.04509" lon="6.83732">
        <ele>933</ele>
        <time>2020-06-05T10:04:16.000Z</time>
      </trkpt>
      <trkpt lat="44.0451" lon="6.83732">
        <ele>933</ele>
        <time>2020-06-05T10:04:17.000Z</time>
      </trkpt>
      <trkpt lat="44.0451" lon="6.83733">
        <ele>933</ele>
        <time>2020-06-05T10:04:18.000Z</time>
      </trkpt>
      <trkpt lat="44.0451" lon="6.83733">
        <ele>933</ele>
        <time>2020-06-05T10:04:19.000Z</time>
      </trkpt>
      <trkpt lat="44.0451" lon="6.83733">
        <ele>933</ele>
        <time>2020-06-05T10:04:20.000Z</time>
      </trkpt>
      <trkpt lat="44.0451" lon="6.83733">
        <ele>933</ele>
        <time>2020-06-05T10:04:21.000Z</time>
      </trkpt>
      <trkpt lat="44.0451" lon="6.83733">
        <ele>933</ele>
        <time>2020-06-05T10:04:22.000Z</time>
      </trkpt>
      <trkpt lat="44.0451" lon="6.83733">
        <ele>933</ele>
        <time>2020-06-05T10:04:23.000Z</time>
      </trkpt>
      <trkpt lat="44.04511" lon="6.83733">
        <ele>933</ele>
        <time>2020-06-05T10:04:24.000Z</time>
      </trkpt>
      <trkpt lat="44.04511" lon="6.83733">
        <ele>933</ele>
        <time>2020-06-05T10:04:25.000Z</time>
      </trkpt>
      <trkpt lat="44.0451" lon="6.83733">
        <ele>933</ele>
        <time>2020-06-05T10:04:26.000Z</time>
      </trkpt>
      <trkpt lat="44.0451" lon="6.83733">
        <ele>933</ele>
        <time>2020-06-05T10:04:27.000Z</time>
      </trkpt>
      <trkpt lat="44.0451" lon="6.83733">
        <ele>933</ele>
        <time>2020-06-05T10:04:28.000Z</time>
      </trkpt>
      <trkpt lat="44.0451" lon="6.83733">
        <ele>933</ele>
        <time>2020-06-05T10:04:29.000Z</time>
      </trkpt>
      <trkpt lat="44.0451" lon="6.83733">
        <ele>933</ele>
        <time>2020-06-05T10:04:30.000Z</time>
      </trkpt>
      <trkpt lat="44.0451" lon="6.83733">
        <ele>933</ele>
        <time>2020-06-05T10:04:31.000Z</time>
      </trkpt>
      <trkpt lat="44.0451" lon="6.83733">
        <ele>933</ele>
        <time>2020-06-05T10:04:32.000Z</time>
      </trkpt>
      <trkpt lat="44.0451" lon="6.83733">
        <ele>932</ele>
        <time>2020-06-05T10:04:33.000Z</time>
      </trkpt>
      <trkpt lat="44.0451" lon="6.83733">
        <ele>932</ele>
        <time>2020-06-05T10:04:34.000Z</time>
      </trkpt>
      <trkpt lat="44.0451" lon="6.83733">
        <ele>932</ele>
        <time>2020-06-05T10:04:35.000Z</time>
      </trkpt>
      <trkpt lat="44.0451" lon="6.83733">
        <ele>932</ele>
        <time>2020-06-05T10:04:36.000Z</time>
      </trkpt>
      <trkpt lat="44.0451" lon="6.83733">
        <ele>932</ele>
        <time>2020-06-05T10:04:37.000Z</time>
      </trkpt>
      <trkpt lat="44.0451" lon="6.83732">
        <ele>932</ele>
        <time>2020-06-05T10:04:38.000Z</time>
      </trkpt>
      <trkpt lat="44.0451" lon="6.83732">
        <ele>932</ele>
        <time>2020-06-05T10:04:39.000Z</time>
      </trkpt>
      <trkpt lat="44.0451" lon="6.83732">
        <ele>932</ele>
        <time>2020-06-05T10:04:40.000Z</time>
      </trkpt>
      <trkpt lat="44.0451" lon="6.83732">
        <ele>932</ele>
        <time>2020-06-05T10:04:41.000Z</time>
      </trkpt>
      <trkpt lat="44.0451" lon="6.83733">
        <ele>932</ele>
        <time>2020-06-05T10:04:42.000Z</time>
      </trkpt>
      <trkpt lat="44.0451" lon="6.83733">
        <ele>932</ele>
        <time>2020-06-05T10:04:43.000Z</time>
      </trkpt>
      <trkpt lat="44.0451" lon="6.83732">
        <ele>932</ele>
        <time>2020-06-05T10:04:44.000Z</time>
      </trkpt>
      <trkpt lat="44.0451" lon="6.83732">
        <ele>932</ele>
        <time>2020-06-05T10:04:45.000Z</time>
      </trkpt>
      <trkpt lat="44.0451" lon="6.83732">
        <ele>932</ele>
        <time>2020-06-05T10:04:46.000Z</time>
      </trkpt>
      <trkpt lat="44.0451" lon="6.83732">
        <ele>932</ele>
        <time>2020-06-05T10:04:47.000Z</time>
      </trkpt>
      <trkpt lat="44.0451" lon="6.83732">
        <ele>932</ele>
        <time>2020-06-05T10:04:48.000Z</time>
      </trkpt>
      <trkpt lat="44.0451" lon="6.83732">
        <ele>932</ele>
        <time>2020-06-05T10:04:49.000Z</time>
      </trkpt>
      <trkpt lat="44.0451" lon="6.83732">
        <ele>932</ele>
        <time>2020-06-05T10:04:50.000Z</time>
      </trkpt>
      <trkpt lat="44.04511" lon="6.83732">
        <ele>932</ele>
        <time>2020-06-05T10:04:51.000Z</time>
      </trkpt>
      <trkpt lat="44.04512" lon="6.83732">
        <ele>932</ele>
        <time>2020-06-05T10:04:52.000Z</time>
      </trkpt>
      <trkpt lat="44.04513" lon="6.83732">
        <ele>932</ele>
        <time>2020-06-05T10:04:53.000Z</time>
      </trkpt>
      <trkpt lat="44.04514" lon="6.83732">
        <ele>932</ele>
        <time>2020-06-05T10:04:54.000Z</time>
      </trkpt>
      <trkpt lat="44.04515" lon="6.83732">
        <ele>932</ele>
        <time>2020-06-05T10:04:55.000Z</time>
      </trkpt>
      <trkpt lat="44.04516" lon="6.83732">
        <ele>933</ele>
        <time>2020-06-05T10:04:56.000Z</time>
      </trkpt>
      <trkpt lat="44.04517" lon="6.83732">
        <ele>933</ele>
        <time>2020-06-05T10:04:57.000Z</time>
      </trkpt>
      <trkpt lat="44.04518" lon="6.83732">
        <ele>933</ele>
        <time>2020-06-05T10:04:58.000Z</time>
      </trkpt>
      <trkpt lat="44.04519" lon="6.83731">
        <ele>933</ele>
        <time>2020-06-05T10:04:59.000Z</time>
      </trkpt>
      <trkpt lat="44.0452" lon="6.83731">
        <ele>933</ele>
        <time>2020-06-05T10:05:00.000Z</time>
      </trkpt>
      <trkpt lat="44.04521" lon="6.83732">
        <ele>933</ele>
        <time>2020-06-05T10:05:01.000Z</time>
      </trkpt>
      <trkpt lat="44.04522" lon="6.83732">
        <ele>933</ele>
        <time>2020-06-05T10:05:02.000Z</time>
      </trkpt>
      <trkpt lat="44.04523" lon="6.83732">
        <ele>933</ele>
        <time>2020-06-05T10:05:03.000Z</time>
      </trkpt>
      <trkpt lat="44.04523" lon="6.83732">
        <ele>933</ele>
        <time>2020-06-05T10:05:04.000Z</time>
      </trkpt>
      <trkpt lat="44.04524" lon="6.83733">
        <ele>933</ele>
        <time>2020-06-05T10:05:05.000Z</time>
      </trkpt>
      <trkpt lat="44.04525" lon="6.83733">
        <ele>933</ele>
        <time>2020-06-05T10:05:06.000Z</time>
      </trkpt>
      <trkpt lat="44.04526" lon="6.83733">
        <ele>933</ele>
        <time>2020-06-05T10:05:07.000Z</time>
      </trkpt>
      <trkpt lat="44.04527" lon="6.83734">
        <ele>933</ele>
        <time>2020-06-05T10:05:08.000Z</time>
      </trkpt>
      <trkpt lat="44.04528" lon="6.83734">
        <ele>933</ele>
        <time>2020-06-05T10:05:09.000Z</time>
      </trkpt>
      <trkpt lat="44.04529" lon="6.83734">
        <ele>933</ele>
        <time>2020-06-05T10:05:10.000Z</time>
      </trkpt>
      <trkpt lat="44.0453" lon="6.83734">
        <ele>934</ele>
        <time>2020-06-05T10:05:11.000Z</time>
      </trkpt>
      <trkpt lat="44.04531" lon="6.83734">
        <ele>934</ele>
        <time>2020-06-05T10:05:12.000Z</time>
      </trkpt>
      <trkpt lat="44.04532" lon="6.83734">
        <ele>934</ele>
        <time>2020-06-05T10:05:13.000Z</time>
      </trkpt>
      <trkpt lat="44.04533" lon="6.83735">
        <ele>934</ele>
        <time>2020-06-05T10:05:14.000Z</time>
      </trkpt>
      <trkpt lat="44.04534" lon="6.83735">
        <ele>934</ele>
        <time>2020-06-05T10:05:15.000Z</time>
      </trkpt>
      <trkpt lat="44.04535" lon="6.83735">
        <ele>934</ele>
        <time>2020-06-05T10:05:16.000Z</time>
      </trkpt>
      <trkpt lat="44.04536" lon="6.83735">
        <ele>934</ele>
        <time>2020-06-05T10:05:17.000Z</time>
      </trkpt>
      <trkpt lat="44.04537" lon="6.83735">
        <ele>934</ele>
        <time>2020-06-05T10:05:18.000Z</time>
      </trkpt>
      <trkpt lat="44.04538" lon="6.83735">
        <ele>934</ele>
        <time>2020-06-05T10:05:19.000Z</time>
      </trkpt>
      <trkpt lat="44.04538" lon="6.83735">
        <ele>934</ele>
        <time>2020-06-05T10:05:20.000Z</time>
      </trkpt>
      <trkpt lat="44.0454" lon="6.83734">
        <ele>934</ele>
        <time>2020-06-05T10:05:21.000Z</time>
      </trkpt>
      <trkpt lat="44.0454" lon="6.83734">
        <ele>934</ele>
        <time>2020-06-05T10:05:22.000Z</time>
      </trkpt>
      <trkpt lat="44.04541" lon="6.83734">
        <ele>934</ele>
        <time>2020-06-05T10:05:23.000Z</time>
      </trkpt>
      <trkpt lat="44.04542" lon="6.83735">
        <ele>934</ele>
        <time>2020-06-05T10:05:24.000Z</time>
      </trkpt>
      <trkpt lat="44.04543" lon="6.83735">
        <ele>934</ele>
        <time>2020-06-05T10:05:25.000Z</time>
      </trkpt>
      <trkpt lat="44.04544" lon="6.83734">
        <ele>934</ele>
        <time>2020-06-05T10:05:26.000Z</time>
      </trkpt>
      <trkpt lat="44.04545" lon="6.83734">
        <ele>934</ele>
        <time>2020-06-05T10:05:27.000Z</time>
      </trkpt>
      <trkpt lat="44.04546" lon="6.83734">
        <ele>934</ele>
        <time>2020-06-05T10:05:28.000Z</time>
      </trkpt>
      <trkpt lat="44.04548" lon="6.83734">
        <ele>934</ele>
        <time>2020-06-05T10:05:29.000Z</time>
      </trkpt>
      <trkpt lat="44.04549" lon="6.83734">
        <ele>934</ele>
        <time>2020-06-05T10:05:30.000Z</time>
      </trkpt>
      <trkpt lat="44.04549" lon="6.83734">
        <ele>934</ele>
        <time>2020-06-05T10:05:31.000Z</time>
      </trkpt>
      <trkpt lat="44.0455" lon="6.83735">
        <ele>934</ele>
        <time>2020-06-05T10:05:32.000Z</time>
      </trkpt>
      <trkpt lat="44.04551" lon="6.83735">
        <ele>934</ele>
        <time>2020-06-05T10:05:33.000Z</time>
      </trkpt>
      <trkpt lat="44.04552" lon="6.83736">
        <ele>934</ele>
        <time>2020-06-05T10:05:34.000Z</time>
      </trkpt>
      <trkpt lat="44.04552" lon="6.83736">
        <ele>935</ele>
        <time>2020-06-05T10:05:35.000Z</time>
      </trkpt>
      <trkpt lat="44.04553" lon="6.83736">
        <ele>935</ele>
        <time>2020-06-05T10:05:36.000Z</time>
      </trkpt>
      <trkpt lat="44.04554" lon="6.83736">
        <ele>935</ele>
        <time>2020-06-05T10:05:37.000Z</time>
      </trkpt>
      <trkpt lat="44.04555" lon="6.83736">
        <ele>935</ele>
        <time>2020-06-05T10:05:38.000Z</time>
      </trkpt>
      <trkpt lat="44.04555" lon="6.83736">
        <ele>935</ele>
        <time>2020-06-05T10:05:39.000Z</time>
      </trkpt>
      <trkpt lat="44.04556" lon="6.83736">
        <ele>935</ele>
        <time>2020-06-05T10:05:40.000Z</time>
      </trkpt>
      <trkpt lat="44.04557" lon="6.83736">
        <ele>935</ele>
        <time>2020-06-05T10:05:41.000Z</time>
      </trkpt>
      <trkpt lat="44.04558" lon="6.83736">
        <ele>935</ele>
        <time>2020-06-05T10:05:42.000Z</time>
      </trkpt>
      <trkpt lat="44.04559" lon="6.83736">
        <ele>935</ele>
        <time>2020-06-05T10:05:43.000Z</time>
      </trkpt>
      <trkpt lat="44.0456" lon="6.83736">
        <ele>935</ele>
        <time>2020-06-05T10:05:44.000Z</time>
      </trkpt>
      <trkpt lat="44.04561" lon="6.83736">
        <ele>935</ele>
        <time>2020-06-05T10:05:45.000Z</time>
      </trkpt>
      <trkpt lat="44.04562" lon="6.83735">
        <ele>935</ele>
        <time>2020-06-05T10:05:46.000Z</time>
      </trkpt>
      <trkpt lat="44.04563" lon="6.83736">
        <ele>935</ele>
        <time>2020-06-05T10:05:47.000Z</time>
      </trkpt>
      <trkpt lat="44.04564" lon="6.83736">
        <ele>935</ele>
        <time>2020-06-05T10:05:48.000Z</time>
      </trkpt>
      <trkpt lat="44.04565" lon="6.83737">
        <ele>935</ele>
        <time>2020-06-05T10:05:49.000Z</time>
      </trkpt>
      <trkpt lat="44.04566" lon="6.83737">
        <ele>935</ele>
        <time>2020-06-05T10:05:50.000Z</time>
      </trkpt>
      <trkpt lat="44.04566" lon="6.83737">
        <ele>935</ele>
        <time>2020-06-05T10:05:51.000Z</time>
      </trkpt>
      <trkpt lat="44.04567" lon="6.83738">
        <ele>935</ele>
        <time>2020-06-05T10:05:52.000Z</time>
      </trkpt>
      <trkpt lat="44.04568" lon="6.83738">
        <ele>935</ele>
        <time>2020-06-05T10:05:53.000Z</time>
      </trkpt>
      <trkpt lat="44.04569" lon="6.83738">
        <ele>935</ele>
        <time>2020-06-05T10:05:54.000Z</time>
      </trkpt>
      <trkpt lat="44.04569" lon="6.83738">
        <ele>935</ele>
        <time>2020-06-05T10:05:55.000Z</time>
      </trkpt>
      <trkpt lat="44.0457" lon="6.83739">
        <ele>935</ele>
        <time>2020-06-05T10:05:56.000Z</time>
      </trkpt>
      <trkpt lat="44.04571" lon="6.83739">
        <ele>936</ele>
        <time>2020-06-05T10:05:57.000Z</time>
      </trkpt>
      <trkpt lat="44.04572" lon="6.83739">
        <ele>936</ele>
        <time>2020-06-05T10:05:58.000Z</time>
      </trkpt>
      <trkpt lat="44.04572" lon="6.8374">
        <ele>936</ele>
        <time>2020-06-05T10:05:59.000Z</time>
      </trkpt>
      <trkpt lat="44.04573" lon="6.8374">
        <ele>936</ele>
        <time>2020-06-05T10:06:00.000Z</time>
      </trkpt>
      <trkpt lat="44.04574" lon="6.8374">
        <ele>936</ele>
        <time>2020-06-05T10:06:01.000Z</time>
      </trkpt>
      <trkpt lat="44.04575" lon="6.8374">
        <ele>936</ele>
        <time>2020-06-05T10:06:02.000Z</time>
      </trkpt>
      <trkpt lat="44.04575" lon="6.8374">
        <ele>936</ele>
        <time>2020-06-05T10:06:03.000Z</time>
      </trkpt>
      <trkpt lat="44.04576" lon="6.8374">
        <ele>936</ele>
        <time>2020-06-05T10:06:04.000Z</time>
      </trkpt>
      <trkpt lat="44.04577" lon="6.8374">
        <ele>936</ele>
        <time>2020-06-05T10:06:05.000Z</time>
      </trkpt>
      <trkpt lat="44.04577" lon="6.8374">
        <ele>936</ele>
        <time>2020-06-05T10:06:06.000Z</time>
      </trkpt>
      <trkpt lat="44.04578" lon="6.8374">
        <ele>936</ele>
        <time>2020-06-05T10:06:07.000Z</time>
      </trkpt>
      <trkpt lat="44.04579" lon="6.83741">
        <ele>936</ele>
        <time>2020-06-05T10:06:08.000Z</time>
      </trkpt>
      <trkpt lat="44.0458" lon="6.83741">
        <ele>936</ele>
        <time>2020-06-05T10:06:09.000Z</time>
      </trkpt>
      <trkpt lat="44.04581" lon="6.83742">
        <ele>936</ele>
        <time>2020-06-05T10:06:10.000Z</time>
      </trkpt>
      <trkpt lat="44.04581" lon="6.83743">
        <ele>936</ele>
        <time>2020-06-05T10:06:11.000Z</time>
      </trkpt>
      <trkpt lat="44.04582" lon="6.83744">
        <ele>936</ele>
        <time>2020-06-05T10:06:12.000Z</time>
      </trkpt>
      <trkpt lat="44.04583" lon="6.83745">
        <ele>936</ele>
        <time>2020-06-05T10:06:13.000Z</time>
      </trkpt>
      <trkpt lat="44.04584" lon="6.83746">
        <ele>937</ele>
        <time>2020-06-05T10:06:14.000Z</time>
      </trkpt>
      <trkpt lat="44.04584" lon="6.83747">
        <ele>937</ele>
        <time>2020-06-05T10:06:15.000Z</time>
      </trkpt>
      <trkpt lat="44.04585" lon="6.83748">
        <ele>937</ele>
        <time>2020-06-05T10:06:16.000Z</time>
      </trkpt>
      <trkpt lat="44.04586" lon="6.8375">
        <ele>937</ele>
        <time>2020-06-05T10:06:17.000Z</time>
      </trkpt>
      <trkpt lat="44.04586" lon="6.83751">
        <ele>937</ele>
        <time>2020-06-05T10:06:18.000Z</time>
      </trkpt>
      <trkpt lat="44.04587" lon="6.83753">
        <ele>937</ele>
        <time>2020-06-05T10:06:19.000Z</time>
      </trkpt>
      <trkpt lat="44.04587" lon="6.83754">
        <ele>937</ele>
        <time>2020-06-05T10:06:20.000Z</time>
      </trkpt>
      <trkpt lat="44.04588" lon="6.83755">
        <ele>937</ele>
        <time>2020-06-05T10:06:21.000Z</time>
      </trkpt>
      <trkpt lat="44.04588" lon="6.83756">
        <ele>937</ele>
        <time>2020-06-05T10:06:22.000Z</time>
      </trkpt>
      <trkpt lat="44.04589" lon="6.83758">
        <ele>937</ele>
        <time>2020-06-05T10:06:23.000Z</time>
      </trkpt>
      <trkpt lat="44.04589" lon="6.83759">
        <ele>937</ele>
        <time>2020-06-05T10:06:24.000Z</time>
      </trkpt>
      <trkpt lat="44.0459" lon="6.8376">
        <ele>937</ele>
        <time>2020-06-05T10:06:25.000Z</time>
      </trkpt>
      <trkpt lat="44.04591" lon="6.83762">
        <ele>937</ele>
        <time>2020-06-05T10:06:26.000Z</time>
      </trkpt>
      <trkpt lat="44.04591" lon="6.83763">
        <ele>937</ele>
        <time>2020-06-05T10:06:27.000Z</time>
      </trkpt>
      <trkpt lat="44.04592" lon="6.83765">
        <ele>936</ele>
        <time>2020-06-05T10:06:28.000Z</time>
      </trkpt>
      <trkpt lat="44.04592" lon="6.83766">
        <ele>936</ele>
        <time>2020-06-05T10:06:29.000Z</time>
      </trkpt>
      <trkpt lat="44.04592" lon="6.83767">
        <ele>937</ele>
        <time>2020-06-05T10:06:30.000Z</time>
      </trkpt>
      <trkpt lat="44.04593" lon="6.83768">
        <ele>937</ele>
        <time>2020-06-05T10:06:31.000Z</time>
      </trkpt>
      <trkpt lat="44.04593" lon="6.8377">
        <ele>937</ele>
        <time>2020-06-05T10:06:32.000Z</time>
      </trkpt>
      <trkpt lat="44.04593" lon="6.8377">
        <ele>937</ele>
        <time>2020-06-05T10:06:33.000Z</time>
      </trkpt>
      <trkpt lat="44.04594" lon="6.83771">
        <ele>937</ele>
        <time>2020-06-05T10:06:34.000Z</time>
      </trkpt>
      <trkpt lat="44.04594" lon="6.83772">
        <ele>937</ele>
        <time>2020-06-05T10:06:35.000Z</time>
      </trkpt>
      <trkpt lat="44.04594" lon="6.83774">
        <ele>937</ele>
        <time>2020-06-05T10:06:36.000Z</time>
      </trkpt>
      <trkpt lat="44.04595" lon="6.83774">
        <ele>938</ele>
        <time>2020-06-05T10:06:37.000Z</time>
      </trkpt>
      <trkpt lat="44.04595" lon="6.83775">
        <ele>938</ele>
        <time>2020-06-05T10:06:38.000Z</time>
      </trkpt>
      <trkpt lat="44.04596" lon="6.83775">
        <ele>938</ele>
        <time>2020-06-05T10:06:39.000Z</time>
      </trkpt>
      <trkpt lat="44.04596" lon="6.83776">
        <ele>938</ele>
        <time>2020-06-05T10:06:40.000Z</time>
      </trkpt>
      <trkpt lat="44.04597" lon="6.83776">
        <ele>938</ele>
        <time>2020-06-05T10:06:41.000Z</time>
      </trkpt>
      <trkpt lat="44.04598" lon="6.83777">
        <ele>938</ele>
        <time>2020-06-05T10:06:42.000Z</time>
      </trkpt>
      <trkpt lat="44.04599" lon="6.83778">
        <ele>939</ele>
        <time>2020-06-05T10:06:43.000Z</time>
      </trkpt>
      <trkpt lat="44.046" lon="6.83778">
        <ele>939</ele>
        <time>2020-06-05T10:06:44.000Z</time>
      </trkpt>
      <trkpt lat="44.046" lon="6.83779">
        <ele>939</ele>
        <time>2020-06-05T10:06:45.000Z</time>
      </trkpt>
      <trkpt lat="44.04601" lon="6.8378">
        <ele>939</ele>
        <time>2020-06-05T10:06:46.000Z</time>
      </trkpt>
      <trkpt lat="44.04602" lon="6.8378">
        <ele>939</ele>
        <time>2020-06-05T10:06:47.000Z</time>
      </trkpt>
      <trkpt lat="44.04603" lon="6.83781">
        <ele>939</ele>
        <time>2020-06-05T10:06:48.000Z</time>
      </trkpt>
      <trkpt lat="44.04604" lon="6.83782">
        <ele>939</ele>
        <time>2020-06-05T10:06:49.000Z</time>
      </trkpt>
      <trkpt lat="44.04604" lon="6.83782">
        <ele>939</ele>
        <time>2020-06-05T10:06:50.000Z</time>
      </trkpt>
      <trkpt lat="44.04605" lon="6.83782">
        <ele>940</ele>
        <time>2020-06-05T10:06:51.000Z</time>
      </trkpt>
      <trkpt lat="44.04606" lon="6.83783">
        <ele>940</ele>
        <time>2020-06-05T10:06:52.000Z</time>
      </trkpt>
      <trkpt lat="44.04607" lon="6.83783">
        <ele>940</ele>
        <time>2020-06-05T10:06:53.000Z</time>
      </trkpt>
      <trkpt lat="44.04608" lon="6.83784">
        <ele>940</ele>
        <time>2020-06-05T10:06:54.000Z</time>
      </trkpt>
      <trkpt lat="44.04609" lon="6.83784">
        <ele>940</ele>
        <time>2020-06-05T10:06:55.000Z</time>
      </trkpt>
      <trkpt lat="44.0461" lon="6.83784">
        <ele>940</ele>
        <time>2020-06-05T10:06:56.000Z</time>
      </trkpt>
      <trkpt lat="44.0461" lon="6.83785">
        <ele>940</ele>
        <time>2020-06-05T10:06:57.000Z</time>
      </trkpt>
      <trkpt lat="44.04611" lon="6.83785">
        <ele>940</ele>
        <time>2020-06-05T10:06:58.000Z</time>
      </trkpt>
      <trkpt lat="44.04612" lon="6.83786">
        <ele>940</ele>
        <time>2020-06-05T10:06:59.000Z</time>
      </trkpt>
      <trkpt lat="44.04613" lon="6.83786">
        <ele>941</ele>
        <time>2020-06-05T10:07:00.000Z</time>
      </trkpt>
      <trkpt lat="44.04614" lon="6.83787">
        <ele>941</ele>
        <time>2020-06-05T10:07:01.000Z</time>
      </trkpt>
      <trkpt lat="44.04615" lon="6.83787">
        <ele>941</ele>
        <time>2020-06-05T10:07:02.000Z</time>
      </trkpt>
      <trkpt lat="44.04616" lon="6.83788">
        <ele>941</ele>
        <time>2020-06-05T10:07:03.000Z</time>
      </trkpt>
      <trkpt lat="44.04617" lon="6.83788">
        <ele>941</ele>
        <time>2020-06-05T10:07:04.000Z</time>
      </trkpt>
      <trkpt lat="44.04617" lon="6.83789">
        <ele>941</ele>
        <time>2020-06-05T10:07:05.000Z</time>
      </trkpt>
      <trkpt lat="44.04618" lon="6.83789">
        <ele>941</ele>
        <time>2020-06-05T10:07:06.000Z</time>
      </trkpt>
      <trkpt lat="44.04619" lon="6.8379">
        <ele>941</ele>
        <time>2020-06-05T10:07:07.000Z</time>
      </trkpt>
      <trkpt lat="44.0462" lon="6.83791">
        <ele>941</ele>
        <time>2020-06-05T10:07:08.000Z</time>
      </trkpt>
      <trkpt lat="44.04621" lon="6.83791">
        <ele>941</ele>
        <time>2020-06-05T10:07:09.000Z</time>
      </trkpt>
      <trkpt lat="44.04622" lon="6.83792">
        <ele>941</ele>
        <time>2020-06-05T10:07:10.000Z</time>
      </trkpt>
      <trkpt lat="44.04623" lon="6.83792">
        <ele>941</ele>
        <time>2020-06-05T10:07:11.000Z</time>
      </trkpt>
      <trkpt lat="44.04624" lon="6.83793">
        <ele>941</ele>
        <time>2020-06-05T10:07:12.000Z</time>
      </trkpt>
      <trkpt lat="44.04624" lon="6.83794">
        <ele>941</ele>
        <time>2020-06-05T10:07:13.000Z</time>
      </trkpt>
      <trkpt lat="44.04625" lon="6.83794">
        <ele>941</ele>
        <time>2020-06-05T10:07:14.000Z</time>
      </trkpt>
      <trkpt lat="44.04626" lon="6.83795">
        <ele>941</ele>
        <time>2020-06-05T10:07:15.000Z</time>
      </trkpt>
      <trkpt lat="44.04627" lon="6.83795">
        <ele>941</ele>
        <time>2020-06-05T10:07:16.000Z</time>
      </trkpt>
      <trkpt lat="44.04627" lon="6.83796">
        <ele>941</ele>
        <time>2020-06-05T10:07:17.000Z</time>
      </trkpt>
      <trkpt lat="44.04628" lon="6.83797">
        <ele>942</ele>
        <time>2020-06-05T10:07:18.000Z</time>
      </trkpt>
      <trkpt lat="44.04629" lon="6.83798">
        <ele>942</ele>
        <time>2020-06-05T10:07:19.000Z</time>
      </trkpt>
      <trkpt lat="44.04629" lon="6.83799">
        <ele>942</ele>
        <time>2020-06-05T10:07:20.000Z</time>
      </trkpt>
      <trkpt lat="44.04629" lon="6.838">
        <ele>942</ele>
        <time>2020-06-05T10:07:21.000Z</time>
      </trkpt>
      <trkpt lat="44.0463" lon="6.83801">
        <ele>942</ele>
        <time>2020-06-05T10:07:22.000Z</time>
      </trkpt>
      <trkpt lat="44.04631" lon="6.83802">
        <ele>942</ele>
        <time>2020-06-05T10:07:23.000Z</time>
      </trkpt>
      <trkpt lat="44.04631" lon="6.83803">
        <ele>942</ele>
        <time>2020-06-05T10:07:24.000Z</time>
      </trkpt>
      <trkpt lat="44.04632" lon="6.83805">
        <ele>942</ele>
        <time>2020-06-05T10:07:25.000Z</time>
      </trkpt>
      <trkpt lat="44.04632" lon="6.83806">
        <ele>942</ele>
        <time>2020-06-05T10:07:26.000Z</time>
      </trkpt>
      <trkpt lat="44.04632" lon="6.83807">
        <ele>942</ele>
        <time>2020-06-05T10:07:27.000Z</time>
      </trkpt>
      <trkpt lat="44.04633" lon="6.83809">
        <ele>942</ele>
        <time>2020-06-05T10:07:28.000Z</time>
      </trkpt>
      <trkpt lat="44.04633" lon="6.8381">
        <ele>942</ele>
        <time>2020-06-05T10:07:29.000Z</time>
      </trkpt>
      <trkpt lat="44.04634" lon="6.83811">
        <ele>942</ele>
        <time>2020-06-05T10:07:30.000Z</time>
      </trkpt>
      <trkpt lat="44.04634" lon="6.83812">
        <ele>942</ele>
        <time>2020-06-05T10:07:31.000Z</time>
      </trkpt>
      <trkpt lat="44.04634" lon="6.83813">
        <ele>942</ele>
        <time>2020-06-05T10:07:32.000Z</time>
      </trkpt>
      <trkpt lat="44.04635" lon="6.83814">
        <ele>942</ele>
        <time>2020-06-05T10:07:33.000Z</time>
      </trkpt>
      <trkpt lat="44.04635" lon="6.83815">
        <ele>942</ele>
        <time>2020-06-05T10:07:34.000Z</time>
      </trkpt>
      <trkpt lat="44.04635" lon="6.83816">
        <ele>942</ele>
        <time>2020-06-05T10:07:35.000Z</time>
      </trkpt>
      <trkpt lat="44.04636" lon="6.83817">
        <ele>942</ele>
        <time>2020-06-05T10:07:36.000Z</time>
      </trkpt>
      <trkpt lat="44.04636" lon="6.83818">
        <ele>942</ele>
        <time>2020-06-05T10:07:37.000Z</time>
      </trkpt>
      <trkpt lat="44.04637" lon="6.83819">
        <ele>942</ele>
        <time>2020-06-05T10:07:38.000Z</time>
      </trkpt>
      <trkpt lat="44.04637" lon="6.8382">
        <ele>942</ele>
        <time>2020-06-05T10:07:39.000Z</time>
      </trkpt>
      <trkpt lat="44.04638" lon="6.83821">
        <ele>942</ele>
        <time>2020-06-05T10:07:40.000Z</time>
      </trkpt>
      <trkpt lat="44.04638" lon="6.83821">
        <ele>942</ele>
        <time>2020-06-05T10:07:41.000Z</time>
      </trkpt>
      <trkpt lat="44.04638" lon="6.83822">
        <ele>942</ele>
        <time>2020-06-05T10:07:42.000Z</time>
      </trkpt>
      <trkpt lat="44.04639" lon="6.83823">
        <ele>943</ele>
        <time>2020-06-05T10:07:43.000Z</time>
      </trkpt>
      <trkpt lat="44.04639" lon="6.83824">
        <ele>943</ele>
        <time>2020-06-05T10:07:44.000Z</time>
      </trkpt>
      <trkpt lat="44.04639" lon="6.83825">
        <ele>943</ele>
        <time>2020-06-05T10:07:45.000Z</time>
      </trkpt>
      <trkpt lat="44.0464" lon="6.83827">
        <ele>943</ele>
        <time>2020-06-05T10:07:46.000Z</time>
      </trkpt>
      <trkpt lat="44.0464" lon="6.83827">
        <ele>943</ele>
        <time>2020-06-05T10:07:47.000Z</time>
      </trkpt>
      <trkpt lat="44.04641" lon="6.83829">
        <ele>943</ele>
        <time>2020-06-05T10:07:48.000Z</time>
      </trkpt>
      <trkpt lat="44.04641" lon="6.8383">
        <ele>943</ele>
        <time>2020-06-05T10:07:49.000Z</time>
      </trkpt>
      <trkpt lat="44.04641" lon="6.83831">
        <ele>944</ele>
        <time>2020-06-05T10:07:50.000Z</time>
      </trkpt>
      <trkpt lat="44.04642" lon="6.83832">
        <ele>944</ele>
        <time>2020-06-05T10:07:51.000Z</time>
      </trkpt>
      <trkpt lat="44.04642" lon="6.83832">
        <ele>944</ele>
        <time>2020-06-05T10:07:52.000Z</time>
      </trkpt>
      <trkpt lat="44.04642" lon="6.83834">
        <ele>944</ele>
        <time>2020-06-05T10:07:53.000Z</time>
      </trkpt>
      <trkpt lat="44.04643" lon="6.83834">
        <ele>945</ele>
        <time>2020-06-05T10:07:54.000Z</time>
      </trkpt>
      <trkpt lat="44.04643" lon="6.83835">
        <ele>945</ele>
        <time>2020-06-05T10:07:55.000Z</time>
      </trkpt>
      <trkpt lat="44.04644" lon="6.83836">
        <ele>945</ele>
        <time>2020-06-05T10:07:56.000Z</time>
      </trkpt>
      <trkpt lat="44.04644" lon="6.83837">
        <ele>945</ele>
        <time>2020-06-05T10:07:57.000Z</time>
      </trkpt>
      <trkpt lat="44.04645" lon="6.83838">
        <ele>945</ele>
        <time>2020-06-05T10:07:58.000Z</time>
      </trkpt>
      <trkpt lat="44.04646" lon="6.83839">
        <ele>945</ele>
        <time>2020-06-05T10:07:59.000Z</time>
      </trkpt>
      <trkpt lat="44.04646" lon="6.83839">
        <ele>946</ele>
        <time>2020-06-05T10:08:00.000Z</time>
      </trkpt>
      <trkpt lat="44.04647" lon="6.8384">
        <ele>946</ele>
        <time>2020-06-05T10:08:01.000Z</time>
      </trkpt>
      <trkpt lat="44.04647" lon="6.83841">
        <ele>946</ele>
        <time>2020-06-05T10:08:02.000Z</time>
      </trkpt>
      <trkpt lat="44.04647" lon="6.83841">
        <ele>946</ele>
        <time>2020-06-05T10:08:03.000Z</time>
      </trkpt>
      <trkpt lat="44.04647" lon="6.83841">
        <ele>946</ele>
        <time>2020-06-05T10:08:04.000Z</time>
      </trkpt>
      <trkpt lat="44.04647" lon="6.83841">
        <ele>946</ele>
        <time>2020-06-05T10:08:05.000Z</time>
      </trkpt>
      <trkpt lat="44.04647" lon="6.83841">
        <ele>946</ele>
        <time>2020-06-05T10:08:06.000Z</time>
      </trkpt>
      <trkpt lat="44.04647" lon="6.83841">
        <ele>946</ele>
        <time>2020-06-05T10:08:07.000Z</time>
      </trkpt>
      <trkpt lat="44.04647" lon="6.83841">
        <ele>947</ele>
        <time>2020-06-05T10:08:08.000Z</time>
      </trkpt>
      <trkpt lat="44.04646" lon="6.83841">
        <ele>947</ele>
        <time>2020-06-05T10:08:09.000Z</time>
      </trkpt>
      <trkpt lat="44.04646" lon="6.83841">
        <ele>947</ele>
        <time>2020-06-05T10:08:10.000Z</time>
      </trkpt>
      <trkpt lat="44.04646" lon="6.83841">
        <ele>947</ele>
        <time>2020-06-05T10:08:11.000Z</time>
      </trkpt>
      <trkpt lat="44.04646" lon="6.83841">
        <ele>947</ele>
        <time>2020-06-05T10:08:12.000Z</time>
      </trkpt>
      <trkpt lat="44.04646" lon="6.83841">
        <ele>947</ele>
        <time>2020-06-05T10:08:13.000Z</time>
      </trkpt>
      <trkpt lat="44.04646" lon="6.83841">
        <ele>947</ele>
        <time>2020-06-05T10:08:14.000Z</time>
      </trkpt>
      <trkpt lat="44.04646" lon="6.83841">
        <ele>947</ele>
        <time>2020-06-05T10:08:15.000Z</time>
      </trkpt>
      <trkpt lat="44.04646" lon="6.83841">
        <ele>947</ele>
        <time>2020-06-05T10:08:16.000Z</time>
      </trkpt>
      <trkpt lat="44.04646" lon="6.83841">
        <ele>947</ele>
        <time>2020-06-05T10:08:17.000Z</time>
      </trkpt>
      <trkpt lat="44.04646" lon="6.83841">
        <ele>947</ele>
        <time>2020-06-05T10:08:18.000Z</time>
      </trkpt>
      <trkpt lat="44.04646" lon="6.83841">
        <ele>947</ele>
        <time>2020-06-05T10:08:19.000Z</time>
      </trkpt>
      <trkpt lat="44.04646" lon="6.83841">
        <ele>947</ele>
        <time>2020-06-05T10:08:20.000Z</time>
      </trkpt>
      <trkpt lat="44.04646" lon="6.83841">
        <ele>947</ele>
        <time>2020-06-05T10:08:21.000Z</time>
      </trkpt>
      <trkpt lat="44.04646" lon="6.83841">
        <ele>947</ele>
        <time>2020-06-05T10:08:22.000Z</time>
      </trkpt>
      <trkpt lat="44.04646" lon="6.83841">
        <ele>947</ele>
        <time>2020-06-05T10:08:23.000Z</time>
      </trkpt>
      <trkpt lat="44.04646" lon="6.83841">
        <ele>947</ele>
        <time>2020-06-05T10:08:24.000Z</time>
      </trkpt>
      <trkpt lat="44.04646" lon="6.83841">
        <ele>947</ele>
        <time>2020-06-05T10:08:25.000Z</time>
      </trkpt>
      <trkpt lat="44.04646" lon="6.83841">
        <ele>947</ele>
        <time>2020-06-05T10:08:26.000Z</time>
      </trkpt>
      <trkpt lat="44.04646" lon="6.83841">
        <ele>947</ele>
        <time>2020-06-05T10:08:27.000Z</time>
      </trkpt>
      <trkpt lat="44.04646" lon="6.83841">
        <ele>947</ele>
        <time>2020-06-05T10:08:28.000Z</time>
      </trkpt>
      <trkpt lat="44.04646" lon="6.83841">
        <ele>947</ele>
        <time>2020-06-05T10:08:29.000Z</time>
      </trkpt>
      <trkpt lat="44.04646" lon="6.83841">
        <ele>947</ele>
        <time>2020-06-05T10:08:30.000Z</time>
      </trkpt>
      <trkpt lat="44.04646" lon="6.83841">
        <ele>947</ele>
        <time>2020-06-05T10:08:31.000Z</time>
      </trkpt>
      <trkpt lat="44.04646" lon="6.83842">
        <ele>947</ele>
        <time>2020-06-05T10:08:32.000Z</time>
      </trkpt>
      <trkpt lat="44.04646" lon="6.83841">
        <ele>947</ele>
        <time>2020-06-05T10:08:33.000Z</time>
      </trkpt>
      <trkpt lat="44.04646" lon="6.83841">
        <ele>947</ele>
        <time>2020-06-05T10:08:34.000Z</time>
      </trkpt>
      <trkpt lat="44.04647" lon="6.83842">
        <ele>947</ele>
        <time>2020-06-05T10:08:35.000Z</time>
      </trkpt>
      <trkpt lat="44.04648" lon="6.83843">
        <ele>947</ele>
        <time>2020-06-05T10:08:36.000Z</time>
      </trkpt>
      <trkpt lat="44.04648" lon="6.83843">
        <ele>947</ele>
        <time>2020-06-05T10:08:37.000Z</time>
      </trkpt>
      <trkpt lat="44.04649" lon="6.83844">
        <ele>947</ele>
        <time>2020-06-05T10:08:38.000Z</time>
      </trkpt>
      <trkpt lat="44.0465" lon="6.83845">
        <ele>947</ele>
        <time>2020-06-05T10:08:39.000Z</time>
      </trkpt>
      <trkpt lat="44.04651" lon="6.83846">
        <ele>947</ele>
        <time>2020-06-05T10:08:40.000Z</time>
      </trkpt>
      <trkpt lat="44.04651" lon="6.83847">
        <ele>947</ele>
        <time>2020-06-05T10:08:41.000Z</time>
      </trkpt>
      <trkpt lat="44.04652" lon="6.83848">
        <ele>947</ele>
        <time>2020-06-05T10:08:42.000Z</time>
      </trkpt>
      <trkpt lat="44.04652" lon="6.8385">
        <ele>947</ele>
        <time>2020-06-05T10:08:43.000Z</time>
      </trkpt>
      <trkpt lat="44.04653" lon="6.83851">
        <ele>947</ele>
        <time>2020-06-05T10:08:44.000Z</time>
      </trkpt>
      <trkpt lat="44.04653" lon="6.83852">
        <ele>948</ele>
        <time>2020-06-05T10:08:45.000Z</time>
      </trkpt>
      <trkpt lat="44.04654" lon="6.83853">
        <ele>948</ele>
        <time>2020-06-05T10:08:46.000Z</time>
      </trkpt>
      <trkpt lat="44.04654" lon="6.83854">
        <ele>948</ele>
        <time>2020-06-05T10:08:47.000Z</time>
      </trkpt>
      <trkpt lat="44.04655" lon="6.83855">
        <ele>948</ele>
        <time>2020-06-05T10:08:48.000Z</time>
      </trkpt>
      <trkpt lat="44.04656" lon="6.83856">
        <ele>948</ele>
        <time>2020-06-05T10:08:49.000Z</time>
      </trkpt>
      <trkpt lat="44.04656" lon="6.83857">
        <ele>948</ele>
        <time>2020-06-05T10:08:50.000Z</time>
      </trkpt>
      <trkpt lat="44.04657" lon="6.83858">
        <ele>948</ele>
        <time>2020-06-05T10:08:51.000Z</time>
      </trkpt>
      <trkpt lat="44.04657" lon="6.8386">
        <ele>948</ele>
        <time>2020-06-05T10:08:52.000Z</time>
      </trkpt>
      <trkpt lat="44.04658" lon="6.8386">
        <ele>948</ele>
        <time>2020-06-05T10:08:53.000Z</time>
      </trkpt>
      <trkpt lat="44.04658" lon="6.83861">
        <ele>948</ele>
        <time>2020-06-05T10:08:54.000Z</time>
      </trkpt>
      <trkpt lat="44.04659" lon="6.83862">
        <ele>948</ele>
        <time>2020-06-05T10:08:55.000Z</time>
      </trkpt>
      <trkpt lat="44.0466" lon="6.83863">
        <ele>948</ele>
        <time>2020-06-05T10:08:56.000Z</time>
      </trkpt>
      <trkpt lat="44.0466" lon="6.83864">
        <ele>948</ele>
        <time>2020-06-05T10:08:57.000Z</time>
      </trkpt>
      <trkpt lat="44.04661" lon="6.83864">
        <ele>949</ele>
        <time>2020-06-05T10:08:58.000Z</time>
      </trkpt>
      <trkpt lat="44.04662" lon="6.83865">
        <ele>949</ele>
        <time>2020-06-05T10:08:59.000Z</time>
      </trkpt>
      <trkpt lat="44.04663" lon="6.83866">
        <ele>949</ele>
        <time>2020-06-05T10:09:00.000Z</time>
      </trkpt>
      <trkpt lat="44.04663" lon="6.83866">
        <ele>949</ele>
        <time>2020-06-05T10:09:01.000Z</time>
      </trkpt>
      <trkpt lat="44.04664" lon="6.83867">
        <ele>949</ele>
        <time>2020-06-05T10:09:02.000Z</time>
      </trkpt>
      <trkpt lat="44.04664" lon="6.83868">
        <ele>949</ele>
        <time>2020-06-05T10:09:03.000Z</time>
      </trkpt>
      <trkpt lat="44.04665" lon="6.83869">
        <ele>950</ele>
        <time>2020-06-05T10:09:04.000Z</time>
      </trkpt>
      <trkpt lat="44.04665" lon="6.8387">
        <ele>950</ele>
        <time>2020-06-05T10:09:05.000Z</time>
      </trkpt>
      <trkpt lat="44.04666" lon="6.83871">
        <ele>950</ele>
        <time>2020-06-05T10:09:06.000Z</time>
      </trkpt>
      <trkpt lat="44.04667" lon="6.83872">
        <ele>950</ele>
        <time>2020-06-05T10:09:07.000Z</time>
      </trkpt>
      <trkpt lat="44.04667" lon="6.83873">
        <ele>950</ele>
        <time>2020-06-05T10:09:08.000Z</time>
      </trkpt>
      <trkpt lat="44.04668" lon="6.83875">
        <ele>950</ele>
        <time>2020-06-05T10:09:09.000Z</time>
      </trkpt>
      <trkpt lat="44.04669" lon="6.83875">
        <ele>950</ele>
        <time>2020-06-05T10:09:10.000Z</time>
      </trkpt>
      <trkpt lat="44.04669" lon="6.83876">
        <ele>950</ele>
        <time>2020-06-05T10:09:11.000Z</time>
      </trkpt>
      <trkpt lat="44.0467" lon="6.83877">
        <ele>950</ele>
        <time>2020-06-05T10:09:12.000Z</time>
      </trkpt>
      <trkpt lat="44.04671" lon="6.83878">
        <ele>950</ele>
        <time>2020-06-05T10:09:13.000Z</time>
      </trkpt>
      <trkpt lat="44.04671" lon="6.83879">
        <ele>950</ele>
        <time>2020-06-05T10:09:14.000Z</time>
      </trkpt>
      <trkpt lat="44.04672" lon="6.8388">
        <ele>951</ele>
        <time>2020-06-05T10:09:15.000Z</time>
      </trkpt>
      <trkpt lat="44.04673" lon="6.83882">
        <ele>951</ele>
        <time>2020-06-05T10:09:16.000Z</time>
      </trkpt>
      <trkpt lat="44.04673" lon="6.83883">
        <ele>951</ele>
        <time>2020-06-05T10:09:17.000Z</time>
      </trkpt>
      <trkpt lat="44.04674" lon="6.83884">
        <ele>951</ele>
        <time>2020-06-05T10:09:18.000Z</time>
      </trkpt>
      <trkpt lat="44.04674" lon="6.83885">
        <ele>951</ele>
        <time>2020-06-05T10:09:19.000Z</time>
      </trkpt>
      <trkpt lat="44.04674" lon="6.83886">
        <ele>951</ele>
        <time>2020-06-05T10:09:20.000Z</time>
      </trkpt>
      <trkpt lat="44.04675" lon="6.83888">
        <ele>951</ele>
        <time>2020-06-05T10:09:21.000Z</time>
      </trkpt>
      <trkpt lat="44.04675" lon="6.83889">
        <ele>951</ele>
        <time>2020-06-05T10:09:22.000Z</time>
      </trkpt>
      <trkpt lat="44.04676" lon="6.83889">
        <ele>951</ele>
        <time>2020-06-05T10:09:23.000Z</time>
      </trkpt>
      <trkpt lat="44.04677" lon="6.83889">
        <ele>951</ele>
        <time>2020-06-05T10:09:24.000Z</time>
      </trkpt>
      <trkpt lat="44.04678" lon="6.8389">
        <ele>951</ele>
        <time>2020-06-05T10:09:25.000Z</time>
      </trkpt>
      <trkpt lat="44.04679" lon="6.8389">
        <ele>951</ele>
        <time>2020-06-05T10:09:26.000Z</time>
      </trkpt>
      <trkpt lat="44.0468" lon="6.8389">
        <ele>952</ele>
        <time>2020-06-05T10:09:27.000Z</time>
      </trkpt>
      <trkpt lat="44.04681" lon="6.83891">
        <ele>952</ele>
        <time>2020-06-05T10:09:28.000Z</time>
      </trkpt>
      <trkpt lat="44.04682" lon="6.83891">
        <ele>952</ele>
        <time>2020-06-05T10:09:29.000Z</time>
      </trkpt>
      <trkpt lat="44.04683" lon="6.83892">
        <ele>952</ele>
        <time>2020-06-05T10:09:30.000Z</time>
      </trkpt>
      <trkpt lat="44.04684" lon="6.83893">
        <ele>952</ele>
        <time>2020-06-05T10:09:31.000Z</time>
      </trkpt>
      <trkpt lat="44.04685" lon="6.83895">
        <ele>952</ele>
        <time>2020-06-05T10:09:32.000Z</time>
      </trkpt>
      <trkpt lat="44.04686" lon="6.83896">
        <ele>952</ele>
        <time>2020-06-05T10:09:33.000Z</time>
      </trkpt>
      <trkpt lat="44.04687" lon="6.83898">
        <ele>952</ele>
        <time>2020-06-05T10:09:34.000Z</time>
      </trkpt>
      <trkpt lat="44.04687" lon="6.83899">
        <ele>952</ele>
        <time>2020-06-05T10:09:35.000Z</time>
      </trkpt>
      <trkpt lat="44.04687" lon="6.839">
        <ele>952</ele>
        <time>2020-06-05T10:09:36.000Z</time>
      </trkpt>
      <trkpt lat="44.04687" lon="6.83901">
        <ele>952</ele>
        <time>2020-06-05T10:09:37.000Z</time>
      </trkpt>
      <trkpt lat="44.04687" lon="6.83903">
        <ele>952</ele>
        <time>2020-06-05T10:09:38.000Z</time>
      </trkpt>
      <trkpt lat="44.04687" lon="6.83904">
        <ele>952</ele>
        <time>2020-06-05T10:09:39.000Z</time>
      </trkpt>
      <trkpt lat="44.04688" lon="6.83905">
        <ele>952</ele>
        <time>2020-06-05T10:09:40.000Z</time>
      </trkpt>
      <trkpt lat="44.04688" lon="6.83906">
        <ele>952</ele>
        <time>2020-06-05T10:09:41.000Z</time>
      </trkpt>
      <trkpt lat="44.04688" lon="6.83907">
        <ele>952</ele>
        <time>2020-06-05T10:09:42.000Z</time>
      </trkpt>
      <trkpt lat="44.04688" lon="6.83908">
        <ele>952</ele>
        <time>2020-06-05T10:09:43.000Z</time>
      </trkpt>
      <trkpt lat="44.04688" lon="6.8391">
        <ele>952</ele>
        <time>2020-06-05T10:09:44.000Z</time>
      </trkpt>
      <trkpt lat="44.04688" lon="6.83911">
        <ele>952</ele>
        <time>2020-06-05T10:09:45.000Z</time>
      </trkpt>
      <trkpt lat="44.04689" lon="6.83913">
        <ele>952</ele>
        <time>2020-06-05T10:09:46.000Z</time>
      </trkpt>
      <trkpt lat="44.04689" lon="6.83914">
        <ele>952</ele>
        <time>2020-06-05T10:09:47.000Z</time>
      </trkpt>
      <trkpt lat="44.0469" lon="6.83915">
        <ele>953</ele>
        <time>2020-06-05T10:09:48.000Z</time>
      </trkpt>
      <trkpt lat="44.0469" lon="6.83916">
        <ele>953</ele>
        <time>2020-06-05T10:09:49.000Z</time>
      </trkpt>
      <trkpt lat="44.04691" lon="6.83917">
        <ele>953</ele>
        <time>2020-06-05T10:09:50.000Z</time>
      </trkpt>
      <trkpt lat="44.04691" lon="6.83919">
        <ele>953</ele>
        <time>2020-06-05T10:09:51.000Z</time>
      </trkpt>
      <trkpt lat="44.04692" lon="6.8392">
        <ele>953</ele>
        <time>2020-06-05T10:09:52.000Z</time>
      </trkpt>
      <trkpt lat="44.04692" lon="6.83921">
        <ele>953</ele>
        <time>2020-06-05T10:09:53.000Z</time>
      </trkpt>
      <trkpt lat="44.04693" lon="6.83923">
        <ele>953</ele>
        <time>2020-06-05T10:09:54.000Z</time>
      </trkpt>
      <trkpt lat="44.04693" lon="6.83924">
        <ele>953</ele>
        <time>2020-06-05T10:09:55.000Z</time>
      </trkpt>
      <trkpt lat="44.04693" lon="6.83925">
        <ele>953</ele>
        <time>2020-06-05T10:09:56.000Z</time>
      </trkpt>
      <trkpt lat="44.04694" lon="6.83927">
        <ele>954</ele>
        <time>2020-06-05T10:09:57.000Z</time>
      </trkpt>
      <trkpt lat="44.04694" lon="6.83928">
        <ele>954</ele>
        <time>2020-06-05T10:09:58.000Z</time>
      </trkpt>
      <trkpt lat="44.04694" lon="6.83929">
        <ele>954</ele>
        <time>2020-06-05T10:09:59.000Z</time>
      </trkpt>
      <trkpt lat="44.04695" lon="6.8393">
        <ele>954</ele>
        <time>2020-06-05T10:10:00.000Z</time>
      </trkpt>
      <trkpt lat="44.04695" lon="6.83931">
        <ele>954</ele>
        <time>2020-06-05T10:10:01.000Z</time>
      </trkpt>
      <trkpt lat="44.04696" lon="6.83931">
        <ele>954</ele>
        <time>2020-06-05T10:10:02.000Z</time>
      </trkpt>
      <trkpt lat="44.04696" lon="6.83932">
        <ele>954</ele>
        <time>2020-06-05T10:10:03.000Z</time>
      </trkpt>
      <trkpt lat="44.04697" lon="6.83933">
        <ele>954</ele>
        <time>2020-06-05T10:10:04.000Z</time>
      </trkpt>
      <trkpt lat="44.04698" lon="6.83934">
        <ele>955</ele>
        <time>2020-06-05T10:10:05.000Z</time>
      </trkpt>
      <trkpt lat="44.04698" lon="6.83935">
        <ele>955</ele>
        <time>2020-06-05T10:10:06.000Z</time>
      </trkpt>
      <trkpt lat="44.04699" lon="6.83936">
        <ele>955</ele>
        <time>2020-06-05T10:10:07.000Z</time>
      </trkpt>
      <trkpt lat="44.047" lon="6.83937">
        <ele>955</ele>
        <time>2020-06-05T10:10:08.000Z</time>
      </trkpt>
      <trkpt lat="44.047" lon="6.83938">
        <ele>955</ele>
        <time>2020-06-05T10:10:09.000Z</time>
      </trkpt>
      <trkpt lat="44.04701" lon="6.83939">
        <ele>955</ele>
        <time>2020-06-05T10:10:10.000Z</time>
      </trkpt>
      <trkpt lat="44.04701" lon="6.8394">
        <ele>955</ele>
        <time>2020-06-05T10:10:11.000Z</time>
      </trkpt>
      <trkpt lat="44.04702" lon="6.83941">
        <ele>955</ele>
        <time>2020-06-05T10:10:12.000Z</time>
      </trkpt>
      <trkpt lat="44.04702" lon="6.83942">
        <ele>955</ele>
        <time>2020-06-05T10:10:13.000Z</time>
      </trkpt>
      <trkpt lat="44.04703" lon="6.83943">
        <ele>955</ele>
        <time>2020-06-05T10:10:14.000Z</time>
      </trkpt>
      <trkpt lat="44.04704" lon="6.83944">
        <ele>955</ele>
        <time>2020-06-05T10:10:15.000Z</time>
      </trkpt>
      <trkpt lat="44.04704" lon="6.83945">
        <ele>955</ele>
        <time>2020-06-05T10:10:16.000Z</time>
      </trkpt>
      <trkpt lat="44.04705" lon="6.83946">
        <ele>956</ele>
        <time>2020-06-05T10:10:17.000Z</time>
      </trkpt>
      <trkpt lat="44.04705" lon="6.83947">
        <ele>956</ele>
        <time>2020-06-05T10:10:18.000Z</time>
      </trkpt>
      <trkpt lat="44.04706" lon="6.83948">
        <ele>956</ele>
        <time>2020-06-05T10:10:19.000Z</time>
      </trkpt>
      <trkpt lat="44.04706" lon="6.83949">
        <ele>956</ele>
        <time>2020-06-05T10:10:20.000Z</time>
      </trkpt>
      <trkpt lat="44.04706" lon="6.83949">
        <ele>956</ele>
        <time>2020-06-05T10:10:21.000Z</time>
      </trkpt>
      <trkpt lat="44.04706" lon="6.83949">
        <ele>956</ele>
        <time>2020-06-05T10:10:22.000Z</time>
      </trkpt>
      <trkpt lat="44.04707" lon="6.8395">
        <ele>956</ele>
        <time>2020-06-05T10:10:23.000Z</time>
      </trkpt>
      <trkpt lat="44.04708" lon="6.83951">
        <ele>956</ele>
        <time>2020-06-05T10:10:24.000Z</time>
      </trkpt>
      <trkpt lat="44.04708" lon="6.83951">
        <ele>956</ele>
        <time>2020-06-05T10:10:25.000Z</time>
      </trkpt>
      <trkpt lat="44.04709" lon="6.83952">
        <ele>956</ele>
        <time>2020-06-05T10:10:26.000Z</time>
      </trkpt>
      <trkpt lat="44.0471" lon="6.83954">
        <ele>956</ele>
        <time>2020-06-05T10:10:27.000Z</time>
      </trkpt>
      <trkpt lat="44.0471" lon="6.83955">
        <ele>956</ele>
        <time>2020-06-05T10:10:28.000Z</time>
      </trkpt>
      <trkpt lat="44.04711" lon="6.83955">
        <ele>956</ele>
        <time>2020-06-05T10:10:29.000Z</time>
      </trkpt>
      <trkpt lat="44.04712" lon="6.83956">
        <ele>956</ele>
        <time>2020-06-05T10:10:30.000Z</time>
      </trkpt>
      <trkpt lat="44.04712" lon="6.83957">
        <ele>957</ele>
        <time>2020-06-05T10:10:31.000Z</time>
      </trkpt>
      <trkpt lat="44.04713" lon="6.83958">
        <ele>957</ele>
        <time>2020-06-05T10:10:32.000Z</time>
      </trkpt>
      <trkpt lat="44.04714" lon="6.83959">
        <ele>957</ele>
        <time>2020-06-05T10:10:33.000Z</time>
      </trkpt>
      <trkpt lat="44.04715" lon="6.8396">
        <ele>957</ele>
        <time>2020-06-05T10:10:34.000Z</time>
      </trkpt>
      <trkpt lat="44.04716" lon="6.83961">
        <ele>957</ele>
        <time>2020-06-05T10:10:35.000Z</time>
      </trkpt>
      <trkpt lat="44.04716" lon="6.83962">
        <ele>957</ele>
        <time>2020-06-05T10:10:36.000Z</time>
      </trkpt>
      <trkpt lat="44.04717" lon="6.83963">
        <ele>957</ele>
        <time>2020-06-05T10:10:37.000Z</time>
      </trkpt>
      <trkpt lat="44.04718" lon="6.83964">
        <ele>957</ele>
        <time>2020-06-05T10:10:38.000Z</time>
      </trkpt>
      <trkpt lat="44.04718" lon="6.83966">
        <ele>957</ele>
        <time>2020-06-05T10:10:39.000Z</time>
      </trkpt>
      <trkpt lat="44.04719" lon="6.83967">
        <ele>957</ele>
        <time>2020-06-05T10:10:40.000Z</time>
      </trkpt>
      <trkpt lat="44.0472" lon="6.83968">
        <ele>957</ele>
        <time>2020-06-05T10:10:41.000Z</time>
      </trkpt>
      <trkpt lat="44.0472" lon="6.83969">
        <ele>957</ele>
        <time>2020-06-05T10:10:42.000Z</time>
      </trkpt>
      <trkpt lat="44.04721" lon="6.8397">
        <ele>958</ele>
        <time>2020-06-05T10:10:43.000Z</time>
      </trkpt>
      <trkpt lat="44.04722" lon="6.83971">
        <ele>958</ele>
        <time>2020-06-05T10:10:44.000Z</time>
      </trkpt>
      <trkpt lat="44.04723" lon="6.83972">
        <ele>958</ele>
        <time>2020-06-05T10:10:45.000Z</time>
      </trkpt>
      <trkpt lat="44.04724" lon="6.83973">
        <ele>958</ele>
        <time>2020-06-05T10:10:46.000Z</time>
      </trkpt>
      <trkpt lat="44.04724" lon="6.83974">
        <ele>958</ele>
        <time>2020-06-05T10:10:47.000Z</time>
      </trkpt>
      <trkpt lat="44.04725" lon="6.83975">
        <ele>958</ele>
        <time>2020-06-05T10:10:48.000Z</time>
      </trkpt>
      <trkpt lat="44.04726" lon="6.83977">
        <ele>958</ele>
        <time>2020-06-05T10:10:49.000Z</time>
      </trkpt>
      <trkpt lat="44.04726" lon="6.83978">
        <ele>958</ele>
        <time>2020-06-05T10:10:50.000Z</time>
      </trkpt>
      <trkpt lat="44.04727" lon="6.83979">
        <ele>958</ele>
        <time>2020-06-05T10:10:51.000Z</time>
      </trkpt>
      <trkpt lat="44.04728" lon="6.8398">
        <ele>958</ele>
        <time>2020-06-05T10:10:52.000Z</time>
      </trkpt>
      <trkpt lat="44.04729" lon="6.83981">
        <ele>958</ele>
        <time>2020-06-05T10:10:53.000Z</time>
      </trkpt>
      <trkpt lat="44.04729" lon="6.83982">
        <ele>958</ele>
        <time>2020-06-05T10:10:54.000Z</time>
      </trkpt>
      <trkpt lat="44.0473" lon="6.83983">
        <ele>958</ele>
        <time>2020-06-05T10:10:55.000Z</time>
      </trkpt>
      <trkpt lat="44.04731" lon="6.83984">
        <ele>959</ele>
        <time>2020-06-05T10:10:56.000Z</time>
      </trkpt>
      <trkpt lat="44.04732" lon="6.83985">
        <ele>959</ele>
        <time>2020-06-05T10:10:57.000Z</time>
      </trkpt>
      <trkpt lat="44.04733" lon="6.83985">
        <ele>959</ele>
        <time>2020-06-05T10:10:58.000Z</time>
      </trkpt>
      <trkpt lat="44.04734" lon="6.83986">
        <ele>959</ele>
        <time>2020-06-05T10:10:59.000Z</time>
      </trkpt>
      <trkpt lat="44.04735" lon="6.83987">
        <ele>959</ele>
        <time>2020-06-05T10:11:00.000Z</time>
      </trkpt>
      <trkpt lat="44.04736" lon="6.83988">
        <ele>959</ele>
        <time>2020-06-05T10:11:01.000Z</time>
      </trkpt>
      <trkpt lat="44.04737" lon="6.83989">
        <ele>959</ele>
        <time>2020-06-05T10:11:02.000Z</time>
      </trkpt>
      <trkpt lat="44.04738" lon="6.8399">
        <ele>959</ele>
        <time>2020-06-05T10:11:03.000Z</time>
      </trkpt>
      <trkpt lat="44.04738" lon="6.83991">
        <ele>959</ele>
        <time>2020-06-05T10:11:04.000Z</time>
      </trkpt>
      <trkpt lat="44.04739" lon="6.83992">
        <ele>960</ele>
        <time>2020-06-05T10:11:05.000Z</time>
      </trkpt>
      <trkpt lat="44.0474" lon="6.83992">
        <ele>960</ele>
        <time>2020-06-05T10:11:06.000Z</time>
      </trkpt>
      <trkpt lat="44.0474" lon="6.83993">
        <ele>960</ele>
        <time>2020-06-05T10:11:07.000Z</time>
      </trkpt>
      <trkpt lat="44.04741" lon="6.83995">
        <ele>960</ele>
        <time>2020-06-05T10:11:08.000Z</time>
      </trkpt>
      <trkpt lat="44.04741" lon="6.83996">
        <ele>960</ele>
        <time>2020-06-05T10:11:09.000Z</time>
      </trkpt>
      <trkpt lat="44.04742" lon="6.83997">
        <ele>960</ele>
        <time>2020-06-05T10:11:10.000Z</time>
      </trkpt>
      <trkpt lat="44.04742" lon="6.83999">
        <ele>960</ele>
        <time>2020-06-05T10:11:11.000Z</time>
      </trkpt>
      <trkpt lat="44.04743" lon="6.84">
        <ele>960</ele>
        <time>2020-06-05T10:11:12.000Z</time>
      </trkpt>
      <trkpt lat="44.04743" lon="6.84001">
        <ele>961</ele>
        <time>2020-06-05T10:11:13.000Z</time>
      </trkpt>
      <trkpt lat="44.04744" lon="6.84003">
        <ele>961</ele>
        <time>2020-06-05T10:11:14.000Z</time>
      </trkpt>
      <trkpt lat="44.04744" lon="6.84005">
        <ele>961</ele>
        <time>2020-06-05T10:11:15.000Z</time>
      </trkpt>
      <trkpt lat="44.04744" lon="6.84006">
        <ele>961</ele>
        <time>2020-06-05T10:11:16.000Z</time>
      </trkpt>
      <trkpt lat="44.04744" lon="6.84007">
        <ele>961</ele>
        <time>2020-06-05T10:11:17.000Z</time>
      </trkpt>
      <trkpt lat="44.04744" lon="6.84009">
        <ele>961</ele>
        <time>2020-06-05T10:11:18.000Z</time>
      </trkpt>
      <trkpt lat="44.04744" lon="6.8401">
        <ele>961</ele>
        <time>2020-06-05T10:11:19.000Z</time>
      </trkpt>
      <trkpt lat="44.04744" lon="6.84012">
        <ele>961</ele>
        <time>2020-06-05T10:11:20.000Z</time>
      </trkpt>
      <trkpt lat="44.04743" lon="6.84013">
        <ele>961</ele>
        <time>2020-06-05T10:11:21.000Z</time>
      </trkpt>
      <trkpt lat="44.04742" lon="6.84014">
        <ele>961</ele>
        <time>2020-06-05T10:11:22.000Z</time>
      </trkpt>
      <trkpt lat="44.04741" lon="6.84015">
        <ele>961</ele>
        <time>2020-06-05T10:11:23.000Z</time>
      </trkpt>
      <trkpt lat="44.04741" lon="6.84016">
        <ele>961</ele>
        <time>2020-06-05T10:11:24.000Z</time>
      </trkpt>
      <trkpt lat="44.0474" lon="6.84017">
        <ele>961</ele>
        <time>2020-06-05T10:11:25.000Z</time>
      </trkpt>
      <trkpt lat="44.04739" lon="6.84018">
        <ele>961</ele>
        <time>2020-06-05T10:11:26.000Z</time>
      </trkpt>
      <trkpt lat="44.04739" lon="6.8402">
        <ele>961</ele>
        <time>2020-06-05T10:11:27.000Z</time>
      </trkpt>
      <trkpt lat="44.04739" lon="6.84021">
        <ele>961</ele>
        <time>2020-06-05T10:11:28.000Z</time>
      </trkpt>
      <trkpt lat="44.04739" lon="6.84022">
        <ele>962</ele>
        <time>2020-06-05T10:11:29.000Z</time>
      </trkpt>
      <trkpt lat="44.04738" lon="6.84023">
        <ele>962</ele>
        <time>2020-06-05T10:11:30.000Z</time>
      </trkpt>
      <trkpt lat="44.04738" lon="6.84024">
        <ele>962</ele>
        <time>2020-06-05T10:11:31.000Z</time>
      </trkpt>
      <trkpt lat="44.04738" lon="6.84025">
        <ele>962</ele>
        <time>2020-06-05T10:11:32.000Z</time>
      </trkpt>
      <trkpt lat="44.04737" lon="6.84026">
        <ele>962</ele>
        <time>2020-06-05T10:11:33.000Z</time>
      </trkpt>
      <trkpt lat="44.04737" lon="6.84027">
        <ele>962</ele>
        <time>2020-06-05T10:11:34.000Z</time>
      </trkpt>
      <trkpt lat="44.04737" lon="6.84029">
        <ele>962</ele>
        <time>2020-06-05T10:11:35.000Z</time>
      </trkpt>
      <trkpt lat="44.04737" lon="6.8403">
        <ele>962</ele>
        <time>2020-06-05T10:11:36.000Z</time>
      </trkpt>
      <trkpt lat="44.04736" lon="6.84031">
        <ele>962</ele>
        <time>2020-06-05T10:11:37.000Z</time>
      </trkpt>
      <trkpt lat="44.04736" lon="6.84033">
        <ele>963</ele>
        <time>2020-06-05T10:11:38.000Z</time>
      </trkpt>
      <trkpt lat="44.04736" lon="6.84034">
        <ele>963</ele>
        <time>2020-06-05T10:11:39.000Z</time>
      </trkpt>
      <trkpt lat="44.04735" lon="6.84035">
        <ele>963</ele>
        <time>2020-06-05T10:11:40.000Z</time>
      </trkpt>
      <trkpt lat="44.04735" lon="6.84036">
        <ele>963</ele>
        <time>2020-06-05T10:11:41.000Z</time>
      </trkpt>
      <trkpt lat="44.04735" lon="6.84037">
        <ele>963</ele>
        <time>2020-06-05T10:11:42.000Z</time>
      </trkpt>
      <trkpt lat="44.04735" lon="6.84039">
        <ele>963</ele>
        <time>2020-06-05T10:11:43.000Z</time>
      </trkpt>
      <trkpt lat="44.04735" lon="6.8404">
        <ele>964</ele>
        <time>2020-06-05T10:11:44.000Z</time>
      </trkpt>
      <trkpt lat="44.04735" lon="6.84041">
        <ele>964</ele>
        <time>2020-06-05T10:11:45.000Z</time>
      </trkpt>
      <trkpt lat="44.04735" lon="6.84042">
        <ele>964</ele>
        <time>2020-06-05T10:11:46.000Z</time>
      </trkpt>
      <trkpt lat="44.04736" lon="6.84043">
        <ele>964</ele>
        <time>2020-06-05T10:11:47.000Z</time>
      </trkpt>
      <trkpt lat="44.04735" lon="6.84044">
        <ele>964</ele>
        <time>2020-06-05T10:11:48.000Z</time>
      </trkpt>
      <trkpt lat="44.04735" lon="6.84045">
        <ele>964</ele>
        <time>2020-06-05T10:11:49.000Z</time>
      </trkpt>
      <trkpt lat="44.04735" lon="6.84046">
        <ele>964</ele>
        <time>2020-06-05T10:11:50.000Z</time>
      </trkpt>
      <trkpt lat="44.04734" lon="6.84046">
        <ele>964</ele>
        <time>2020-06-05T10:11:51.000Z</time>
      </trkpt>
      <trkpt lat="44.04734" lon="6.84047">
        <ele>964</ele>
        <time>2020-06-05T10:11:52.000Z</time>
      </trkpt>
      <trkpt lat="44.04734" lon="6.84047">
        <ele>964</ele>
        <time>2020-06-05T10:11:53.000Z</time>
      </trkpt>
      <trkpt lat="44.04734" lon="6.84047">
        <ele>964</ele>
        <time>2020-06-05T10:11:54.000Z</time>
      </trkpt>
      <trkpt lat="44.04734" lon="6.84047">
        <ele>964</ele>
        <time>2020-06-05T10:11:55.000Z</time>
      </trkpt>
      <trkpt lat="44.04734" lon="6.84047">
        <ele>964</ele>
        <time>2020-06-05T10:11:56.000Z</time>
      </trkpt>
      <trkpt lat="44.04734" lon="6.84047">
        <ele>964</ele>
        <time>2020-06-05T10:11:57.000Z</time>
      </trkpt>
      <trkpt lat="44.04734" lon="6.84047">
        <ele>964</ele>
        <time>2020-06-05T10:11:58.000Z</time>
      </trkpt>
      <trkpt lat="44.04734" lon="6.84047">
        <ele>964</ele>
        <time>2020-06-05T10:11:59.000Z</time>
      </trkpt>
      <trkpt lat="44.04734" lon="6.84047">
        <ele>964</ele>
        <time>2020-06-05T10:12:00.000Z</time>
      </trkpt>
      <trkpt lat="44.04734" lon="6.84047">
        <ele>964</ele>
        <time>2020-06-05T10:12:01.000Z</time>
      </trkpt>
      <trkpt lat="44.04734" lon="6.84047">
        <ele>964</ele>
        <time>2020-06-05T10:12:02.000Z</time>
      </trkpt>
      <trkpt lat="44.04734" lon="6.84047">
        <ele>964</ele>
        <time>2020-06-05T10:12:03.000Z</time>
      </trkpt>
      <trkpt lat="44.04734" lon="6.84047">
        <ele>964</ele>
        <time>2020-06-05T10:12:04.000Z</time>
      </trkpt>
      <trkpt lat="44.04734" lon="6.84047">
        <ele>964</ele>
        <time>2020-06-05T10:12:05.000Z</time>
      </trkpt>
      <trkpt lat="44.04734" lon="6.84047">
        <ele>964</ele>
        <time>2020-06-05T10:12:06.000Z</time>
      </trkpt>
      <trkpt lat="44.04734" lon="6.84047">
        <ele>964</ele>
        <time>2020-06-05T10:12:07.000Z</time>
      </trkpt>
      <trkpt lat="44.04734" lon="6.84047">
        <ele>964</ele>
        <time>2020-06-05T10:12:08.000Z</time>
      </trkpt>
      <trkpt lat="44.04734" lon="6.84047">
        <ele>964</ele>
        <time>2020-06-05T10:12:09.000Z</time>
      </trkpt>
      <trkpt lat="44.04734" lon="6.84047">
        <ele>964</ele>
        <time>2020-06-05T10:12:10.000Z</time>
      </trkpt>
      <trkpt lat="44.04734" lon="6.84047">
        <ele>964</ele>
        <time>2020-06-05T10:12:11.000Z</time>
      </trkpt>
      <trkpt lat="44.04734" lon="6.84047">
        <ele>964</ele>
        <time>2020-06-05T10:12:12.000Z</time>
      </trkpt>
      <trkpt lat="44.04734" lon="6.84046">
        <ele>964</ele>
        <time>2020-06-05T10:12:13.000Z</time>
      </trkpt>
      <trkpt lat="44.04734" lon="6.84046">
        <ele>964</ele>
        <time>2020-06-05T10:12:14.000Z</time>
      </trkpt>
      <trkpt lat="44.04734" lon="6.84047">
        <ele>964</ele>
        <time>2020-06-05T10:12:15.000Z</time>
      </trkpt>
      <trkpt lat="44.04734" lon="6.84047">
        <ele>964</ele>
        <time>2020-06-05T10:12:16.000Z</time>
      </trkpt>
      <trkpt lat="44.04734" lon="6.84047">
        <ele>964</ele>
        <time>2020-06-05T10:12:17.000Z</time>
      </trkpt>
      <trkpt lat="44.04734" lon="6.84046">
        <ele>964</ele>
        <time>2020-06-05T10:12:18.000Z</time>
      </trkpt>
      <trkpt lat="44.04734" lon="6.84046">
        <ele>963</ele>
        <time>2020-06-05T10:12:19.000Z</time>
      </trkpt>
      <trkpt lat="44.04734" lon="6.84046">
        <ele>963</ele>
        <time>2020-06-05T10:12:20.000Z</time>
      </trkpt>
      <trkpt lat="44.04733" lon="6.84046">
        <ele>963</ele>
        <time>2020-06-05T10:12:21.000Z</time>
      </trkpt>
      <trkpt lat="44.04733" lon="6.84046">
        <ele>963</ele>
        <time>2020-06-05T10:12:22.000Z</time>
      </trkpt>
      <trkpt lat="44.04732" lon="6.84046">
        <ele>963</ele>
        <time>2020-06-05T10:12:23.000Z</time>
      </trkpt>
      <trkpt lat="44.04732" lon="6.84046">
        <ele>963</ele>
        <time>2020-06-05T10:12:24.000Z</time>
      </trkpt>
      <trkpt lat="44.04732" lon="6.84047">
        <ele>963</ele>
        <time>2020-06-05T10:12:25.000Z</time>
      </trkpt>
      <trkpt lat="44.04731" lon="6.84047">
        <ele>963</ele>
        <time>2020-06-05T10:12:26.000Z</time>
      </trkpt>
      <trkpt lat="44.04731" lon="6.84048">
        <ele>963</ele>
        <time>2020-06-05T10:12:27.000Z</time>
      </trkpt>
      <trkpt lat="44.04731" lon="6.84048">
        <ele>963</ele>
        <time>2020-06-05T10:12:28.000Z</time>
      </trkpt>
      <trkpt lat="44.0473" lon="6.84049">
        <ele>963</ele>
        <time>2020-06-05T10:12:29.000Z</time>
      </trkpt>
      <trkpt lat="44.0473" lon="6.84049">
        <ele>963</ele>
        <time>2020-06-05T10:12:30.000Z</time>
      </trkpt>
      <trkpt lat="44.0473" lon="6.84049">
        <ele>963</ele>
        <time>2020-06-05T10:12:31.000Z</time>
      </trkpt>
      <trkpt lat="44.0473" lon="6.84049">
        <ele>963</ele>
        <time>2020-06-05T10:12:32.000Z</time>
      </trkpt>
      <trkpt lat="44.0473" lon="6.84049">
        <ele>963</ele>
        <time>2020-06-05T10:12:33.000Z</time>
      </trkpt>
      <trkpt lat="44.0473" lon="6.84049">
        <ele>963</ele>
        <time>2020-06-05T10:12:34.000Z</time>
      </trkpt>
      <trkpt lat="44.0473" lon="6.84049">
        <ele>963</ele>
        <time>2020-06-05T10:12:35.000Z</time>
      </trkpt>
      <trkpt lat="44.0473" lon="6.84049">
        <ele>963</ele>
        <time>2020-06-05T10:12:36.000Z</time>
      </trkpt>
      <trkpt lat="44.0473" lon="6.84049">
        <ele>963</ele>
        <time>2020-06-05T10:12:37.000Z</time>
      </trkpt>
      <trkpt lat="44.0473" lon="6.84049">
        <ele>963</ele>
        <time>2020-06-05T10:12:38.000Z</time>
      </trkpt>
      <trkpt lat="44.0473" lon="6.84049">
        <ele>963</ele>
        <time>2020-06-05T10:12:39.000Z</time>
      </trkpt>
      <trkpt lat="44.0473" lon="6.84049">
        <ele>963</ele>
        <time>2020-06-05T10:12:40.000Z</time>
      </trkpt>
      <trkpt lat="44.0473" lon="6.84049">
        <ele>963</ele>
        <time>2020-06-05T10:12:41.000Z</time>
      </trkpt>
      <trkpt lat="44.0473" lon="6.84049">
        <ele>963</ele>
        <time>2020-06-05T10:12:42.000Z</time>
      </trkpt>
      <trkpt lat="44.0473" lon="6.84048">
        <ele>963</ele>
        <time>2020-06-05T10:12:43.000Z</time>
      </trkpt>
      <trkpt lat="44.0473" lon="6.84048">
        <ele>963</ele>
        <time>2020-06-05T10:12:44.000Z</time>
      </trkpt>
      <trkpt lat="44.0473" lon="6.84048">
        <ele>963</ele>
        <time>2020-06-05T10:12:45.000Z</time>
      </trkpt>
      <trkpt lat="44.0473" lon="6.84048">
        <ele>963</ele>
        <time>2020-06-05T10:12:46.000Z</time>
      </trkpt>
      <trkpt lat="44.0473" lon="6.84048">
        <ele>963</ele>
        <time>2020-06-05T10:12:47.000Z</time>
      </trkpt>
      <trkpt lat="44.0473" lon="6.84049">
        <ele>963</ele>
        <time>2020-06-05T10:12:48.000Z</time>
      </trkpt>
      <trkpt lat="44.0473" lon="6.84049">
        <ele>963</ele>
        <time>2020-06-05T10:12:49.000Z</time>
      </trkpt>
      <trkpt lat="44.0473" lon="6.84049">
        <ele>963</ele>
        <time>2020-06-05T10:12:50.000Z</time>
      </trkpt>
      <trkpt lat="44.0473" lon="6.84049">
        <ele>963</ele>
        <time>2020-06-05T10:12:51.000Z</time>
      </trkpt>
      <trkpt lat="44.0473" lon="6.84049">
        <ele>963</ele>
        <time>2020-06-05T10:12:52.000Z</time>
      </trkpt>
      <trkpt lat="44.0473" lon="6.84049">
        <ele>963</ele>
        <time>2020-06-05T10:12:53.000Z</time>
      </trkpt>
      <trkpt lat="44.0473" lon="6.84049">
        <ele>963</ele>
        <time>2020-06-05T10:12:54.000Z</time>
      </trkpt>
      <trkpt lat="44.0473" lon="6.84049">
        <ele>963</ele>
        <time>2020-06-05T10:12:55.000Z</time>
      </trkpt>
      <trkpt lat="44.0473" lon="6.84049">
        <ele>963</ele>
        <time>2020-06-05T10:12:56.000Z</time>
      </trkpt>
      <trkpt lat="44.0473" lon="6.84049">
        <ele>963</ele>
        <time>2020-06-05T10:12:57.000Z</time>
      </trkpt>
      <trkpt lat="44.0473" lon="6.84049">
        <ele>963</ele>
        <time>2020-06-05T10:12:58.000Z</time>
      </trkpt>
      <trkpt lat="44.0473" lon="6.84049">
        <ele>963</ele>
        <time>2020-06-05T10:12:59.000Z</time>
      </trkpt>
      <trkpt lat="44.0473" lon="6.84049">
        <ele>963</ele>
        <time>2020-06-05T10:13:00.000Z</time>
      </trkpt>
      <trkpt lat="44.0473" lon="6.84049">
        <ele>963</ele>
        <time>2020-06-05T10:13:01.000Z</time>
      </trkpt>
      <trkpt lat="44.0473" lon="6.84049">
        <ele>963</ele>
        <time>2020-06-05T10:13:02.000Z</time>
      </trkpt>
      <trkpt lat="44.0473" lon="6.84049">
        <ele>963</ele>
        <time>2020-06-05T10:13:03.000Z</time>
      </trkpt>
      <trkpt lat="44.0473" lon="6.84049">
        <ele>963</ele>
        <time>2020-06-05T10:13:04.000Z</time>
      </trkpt>
      <trkpt lat="44.0473" lon="6.84049">
        <ele>963</ele>
        <time>2020-06-05T10:13:05.000Z</time>
      </trkpt>
      <trkpt lat="44.0473" lon="6.84049">
        <ele>963</ele>
        <time>2020-06-05T10:13:06.000Z</time>
      </trkpt>
      <trkpt lat="44.0473" lon="6.84049">
        <ele>963</ele>
        <time>2020-06-05T10:13:07.000Z</time>
      </trkpt>
      <trkpt lat="44.0473" lon="6.84049">
        <ele>963</ele>
        <time>2020-06-05T10:13:08.000Z</time>
      </trkpt>
      <trkpt lat="44.0473" lon="6.84049">
        <ele>963</ele>
        <time>2020-06-05T10:13:09.000Z</time>
      </trkpt>
      <trkpt lat="44.0473" lon="6.84049">
        <ele>963</ele>
        <time>2020-06-05T10:13:10.000Z</time>
      </trkpt>
      <trkpt lat="44.0473" lon="6.84049">
        <ele>963</ele>
        <time>2020-06-05T10:13:11.000Z</time>
      </trkpt>
      <trkpt lat="44.0473" lon="6.84049">
        <ele>963</ele>
        <time>2020-06-05T10:13:12.000Z</time>
      </trkpt>
      <trkpt lat="44.0473" lon="6.84049">
        <ele>963</ele>
        <time>2020-06-05T10:13:13.000Z</time>
      </trkpt>
      <trkpt lat="44.0473" lon="6.84049">
        <ele>963</ele>
        <time>2020-06-05T10:13:14.000Z</time>
      </trkpt>
      <trkpt lat="44.0473" lon="6.84049">
        <ele>963</ele>
        <time>2020-06-05T10:13:15.000Z</time>
      </trkpt>
      <trkpt lat="44.0473" lon="6.84049">
        <ele>963</ele>
        <time>2020-06-05T10:13:16.000Z</time>
      </trkpt>
      <trkpt lat="44.0473" lon="6.84049">
        <ele>963</ele>
        <time>2020-06-05T10:13:17.000Z</time>
      </trkpt>
      <trkpt lat="44.0473" lon="6.8405">
        <ele>963</ele>
        <time>2020-06-05T10:13:18.000Z</time>
      </trkpt>
      <trkpt lat="44.0473" lon="6.84051">
        <ele>963</ele>
        <time>2020-06-05T10:13:19.000Z</time>
      </trkpt>
      <trkpt lat="44.04729" lon="6.84052">
        <ele>963</ele>
        <time>2020-06-05T10:13:20.000Z</time>
      </trkpt>
      <trkpt lat="44.04729" lon="6.84053">
        <ele>963</ele>
        <time>2020-06-05T10:13:21.000Z</time>
      </trkpt>
      <trkpt lat="44.04729" lon="6.84054">
        <ele>962</ele>
        <time>2020-06-05T10:13:22.000Z</time>
      </trkpt>
      <trkpt lat="44.04729" lon="6.84055">
        <ele>962</ele>
        <time>2020-06-05T10:13:23.000Z</time>
      </trkpt>
      <trkpt lat="44.04729" lon="6.84056">
        <ele>962</ele>
        <time>2020-06-05T10:13:24.000Z</time>
      </trkpt>
      <trkpt lat="44.04729" lon="6.84057">
        <ele>962</ele>
        <time>2020-06-05T10:13:25.000Z</time>
      </trkpt>
      <trkpt lat="44.04729" lon="6.84058">
        <ele>962</ele>
        <time>2020-06-05T10:13:26.000Z</time>
      </trkpt>
      <trkpt lat="44.04729" lon="6.84059">
        <ele>962</ele>
        <time>2020-06-05T10:13:27.000Z</time>
      </trkpt>
      <trkpt lat="44.04729" lon="6.84061">
        <ele>962</ele>
        <time>2020-06-05T10:13:28.000Z</time>
      </trkpt>
      <trkpt lat="44.04729" lon="6.84062">
        <ele>962</ele>
        <time>2020-06-05T10:13:29.000Z</time>
      </trkpt>
      <trkpt lat="44.04729" lon="6.84064">
        <ele>962</ele>
        <time>2020-06-05T10:13:30.000Z</time>
      </trkpt>
      <trkpt lat="44.04728" lon="6.84065">
        <ele>961</ele>
        <time>2020-06-05T10:13:31.000Z</time>
      </trkpt>
      <trkpt lat="44.04727" lon="6.84067">
        <ele>961</ele>
        <time>2020-06-05T10:13:32.000Z</time>
      </trkpt>
      <trkpt lat="44.04727" lon="6.84068">
        <ele>961</ele>
        <time>2020-06-05T10:13:33.000Z</time>
      </trkpt>
      <trkpt lat="44.04726" lon="6.84069">
        <ele>961</ele>
        <time>2020-06-05T10:13:34.000Z</time>
      </trkpt>
      <trkpt lat="44.04725" lon="6.8407">
        <ele>961</ele>
        <time>2020-06-05T10:13:35.000Z</time>
      </trkpt>
      <trkpt lat="44.04724" lon="6.84072">
        <ele>960</ele>
        <time>2020-06-05T10:13:36.000Z</time>
      </trkpt>
      <trkpt lat="44.04724" lon="6.84073">
        <ele>960</ele>
        <time>2020-06-05T10:13:37.000Z</time>
      </trkpt>
      <trkpt lat="44.04723" lon="6.84075">
        <ele>960</ele>
        <time>2020-06-05T10:13:38.000Z</time>
      </trkpt>
      <trkpt lat="44.04722" lon="6.84077">
        <ele>960</ele>
        <time>2020-06-05T10:13:39.000Z</time>
      </trkpt>
      <trkpt lat="44.04722" lon="6.84078">
        <ele>960</ele>
        <time>2020-06-05T10:13:40.000Z</time>
      </trkpt>
      <trkpt lat="44.04722" lon="6.84079">
        <ele>960</ele>
        <time>2020-06-05T10:13:41.000Z</time>
      </trkpt>
      <trkpt lat="44.04721" lon="6.84081">
        <ele>960</ele>
        <time>2020-06-05T10:13:42.000Z</time>
      </trkpt>
      <trkpt lat="44.04721" lon="6.84082">
        <ele>960</ele>
        <time>2020-06-05T10:13:43.000Z</time>
      </trkpt>
      <trkpt lat="44.0472" lon="6.84084">
        <ele>960</ele>
        <time>2020-06-05T10:13:44.000Z</time>
      </trkpt>
      <trkpt lat="44.04719" lon="6.84085">
        <ele>960</ele>
        <time>2020-06-05T10:13:45.000Z</time>
      </trkpt>
      <trkpt lat="44.04718" lon="6.84086">
        <ele>960</ele>
        <time>2020-06-05T10:13:46.000Z</time>
      </trkpt>
      <trkpt lat="44.04718" lon="6.84088">
        <ele>960</ele>
        <time>2020-06-05T10:13:47.000Z</time>
      </trkpt>
      <trkpt lat="44.04717" lon="6.84089">
        <ele>960</ele>
        <time>2020-06-05T10:13:48.000Z</time>
      </trkpt>
      <trkpt lat="44.04716" lon="6.8409">
        <ele>960</ele>
        <time>2020-06-05T10:13:49.000Z</time>
      </trkpt>
      <trkpt lat="44.04716" lon="6.84091">
        <ele>960</ele>
        <time>2020-06-05T10:13:50.000Z</time>
      </trkpt>
      <trkpt lat="44.04716" lon="6.84093">
        <ele>960</ele>
        <time>2020-06-05T10:13:51.000Z</time>
      </trkpt>
      <trkpt lat="44.04715" lon="6.84094">
        <ele>960</ele>
        <time>2020-06-05T10:13:52.000Z</time>
      </trkpt>
      <trkpt lat="44.04714" lon="6.84095">
        <ele>960</ele>
        <time>2020-06-05T10:13:53.000Z</time>
      </trkpt>
      <trkpt lat="44.04713" lon="6.84096">
        <ele>959</ele>
        <time>2020-06-05T10:13:54.000Z</time>
      </trkpt>
      <trkpt lat="44.04712" lon="6.84098">
        <ele>959</ele>
        <time>2020-06-05T10:13:55.000Z</time>
      </trkpt>
      <trkpt lat="44.04711" lon="6.84098">
        <ele>959</ele>
        <time>2020-06-05T10:13:56.000Z</time>
      </trkpt>
      <trkpt lat="44.0471" lon="6.84099">
        <ele>959</ele>
        <time>2020-06-05T10:13:57.000Z</time>
      </trkpt>
      <trkpt lat="44.04709" lon="6.841">
        <ele>959</ele>
        <time>2020-06-05T10:13:58.000Z</time>
      </trkpt>
      <trkpt lat="44.04708" lon="6.841">
        <ele>959</ele>
        <time>2020-06-05T10:13:59.000Z</time>
      </trkpt>
      <trkpt lat="44.04707" lon="6.84101">
        <ele>959</ele>
        <time>2020-06-05T10:14:00.000Z</time>
      </trkpt>
      <trkpt lat="44.04706" lon="6.84102">
        <ele>959</ele>
        <time>2020-06-05T10:14:01.000Z</time>
      </trkpt>
      <trkpt lat="44.04705" lon="6.84103">
        <ele>959</ele>
        <time>2020-06-05T10:14:02.000Z</time>
      </trkpt>
      <trkpt lat="44.04704" lon="6.84104">
        <ele>959</ele>
        <time>2020-06-05T10:14:03.000Z</time>
      </trkpt>
      <trkpt lat="44.04703" lon="6.84104">
        <ele>959</ele>
        <time>2020-06-05T10:14:04.000Z</time>
      </trkpt>
      <trkpt lat="44.04702" lon="6.84105">
        <ele>959</ele>
        <time>2020-06-05T10:14:05.000Z</time>
      </trkpt>
      <trkpt lat="44.04701" lon="6.84105">
        <ele>959</ele>
        <time>2020-06-05T10:14:06.000Z</time>
      </trkpt>
      <trkpt lat="44.047" lon="6.84105">
        <ele>959</ele>
        <time>2020-06-05T10:14:07.000Z</time>
      </trkpt>
      <trkpt lat="44.04699" lon="6.84106">
        <ele>959</ele>
        <time>2020-06-05T10:14:08.000Z</time>
      </trkpt>
      <trkpt lat="44.04698" lon="6.84106">
        <ele>958</ele>
        <time>2020-06-05T10:14:09.000Z</time>
      </trkpt>
      <trkpt lat="44.04697" lon="6.84107">
        <ele>958</ele>
        <time>2020-06-05T10:14:10.000Z</time>
      </trkpt>
      <trkpt lat="44.04696" lon="6.84107">
        <ele>958</ele>
        <time>2020-06-05T10:14:11.000Z</time>
      </trkpt>
      <trkpt lat="44.04695" lon="6.84108">
        <ele>958</ele>
        <time>2020-06-05T10:14:12.000Z</time>
      </trkpt>
      <trkpt lat="44.04694" lon="6.84108">
        <ele>958</ele>
        <time>2020-06-05T10:14:13.000Z</time>
      </trkpt>
      <trkpt lat="44.04693" lon="6.84108">
        <ele>958</ele>
        <time>2020-06-05T10:14:14.000Z</time>
      </trkpt>
      <trkpt lat="44.04693" lon="6.84109">
        <ele>958</ele>
        <time>2020-06-05T10:14:15.000Z</time>
      </trkpt>
      <trkpt lat="44.04692" lon="6.84109">
        <ele>958</ele>
        <time>2020-06-05T10:14:16.000Z</time>
      </trkpt>
      <trkpt lat="44.04692" lon="6.8411">
        <ele>958</ele>
        <time>2020-06-05T10:14:17.000Z</time>
      </trkpt>
      <trkpt lat="44.04691" lon="6.84109">
        <ele>958</ele>
        <time>2020-06-05T10:14:18.000Z</time>
      </trkpt>
      <trkpt lat="44.04691" lon="6.84109">
        <ele>958</ele>
        <time>2020-06-05T10:14:19.000Z</time>
      </trkpt>
      <trkpt lat="44.04691" lon="6.8411">
        <ele>958</ele>
        <time>2020-06-05T10:14:20.000Z</time>
      </trkpt>
      <trkpt lat="44.04691" lon="6.8411">
        <ele>957</ele>
        <time>2020-06-05T10:14:21.000Z</time>
      </trkpt>
      <trkpt lat="44.0469" lon="6.84111">
        <ele>957</ele>
        <time>2020-06-05T10:14:22.000Z</time>
      </trkpt>
      <trkpt lat="44.04689" lon="6.84111">
        <ele>957</ele>
        <time>2020-06-05T10:14:23.000Z</time>
      </trkpt>
      <trkpt lat="44.04689" lon="6.84111">
        <ele>957</ele>
        <time>2020-06-05T10:14:24.000Z</time>
      </trkpt>
      <trkpt lat="44.04688" lon="6.84112">
        <ele>957</ele>
        <time>2020-06-05T10:14:25.000Z</time>
      </trkpt>
      <trkpt lat="44.04687" lon="6.84112">
        <ele>957</ele>
        <time>2020-06-05T10:14:26.000Z</time>
      </trkpt>
      <trkpt lat="44.04686" lon="6.84113">
        <ele>957</ele>
        <time>2020-06-05T10:14:27.000Z</time>
      </trkpt>
      <trkpt lat="44.04686" lon="6.84113">
        <ele>956</ele>
        <time>2020-06-05T10:14:28.000Z</time>
      </trkpt>
      <trkpt lat="44.04685" lon="6.84114">
        <ele>956</ele>
        <time>2020-06-05T10:14:29.000Z</time>
      </trkpt>
      <trkpt lat="44.04684" lon="6.84115">
        <ele>956</ele>
        <time>2020-06-05T10:14:30.000Z</time>
      </trkpt>
      <trkpt lat="44.04684" lon="6.84115">
        <ele>956</ele>
        <time>2020-06-05T10:14:31.000Z</time>
      </trkpt>
      <trkpt lat="44.04683" lon="6.84116">
        <ele>956</ele>
        <time>2020-06-05T10:14:32.000Z</time>
      </trkpt>
      <trkpt lat="44.04682" lon="6.84117">
        <ele>956</ele>
        <time>2020-06-05T10:14:33.000Z</time>
      </trkpt>
      <trkpt lat="44.04681" lon="6.84117">
        <ele>956</ele>
        <time>2020-06-05T10:14:34.000Z</time>
      </trkpt>
      <trkpt lat="44.0468" lon="6.84118">
        <ele>955</ele>
        <time>2020-06-05T10:14:35.000Z</time>
      </trkpt>
      <trkpt lat="44.0468" lon="6.84119">
        <ele>955</ele>
        <time>2020-06-05T10:14:36.000Z</time>
      </trkpt>
      <trkpt lat="44.04679" lon="6.84119">
        <ele>955</ele>
        <time>2020-06-05T10:14:37.000Z</time>
      </trkpt>
      <trkpt lat="44.04678" lon="6.8412">
        <ele>955</ele>
        <time>2020-06-05T10:14:38.000Z</time>
      </trkpt>
      <trkpt lat="44.04677" lon="6.84121">
        <ele>955</ele>
        <time>2020-06-05T10:14:39.000Z</time>
      </trkpt>
      <trkpt lat="44.04676" lon="6.84121">
        <ele>954</ele>
        <time>2020-06-05T10:14:40.000Z</time>
      </trkpt>
      <trkpt lat="44.04675" lon="6.84122">
        <ele>954</ele>
        <time>2020-06-05T10:14:41.000Z</time>
      </trkpt>
      <trkpt lat="44.04674" lon="6.84122">
        <ele>954</ele>
        <time>2020-06-05T10:14:42.000Z</time>
      </trkpt>
      <trkpt lat="44.04673" lon="6.84123">
        <ele>954</ele>
        <time>2020-06-05T10:14:43.000Z</time>
      </trkpt>
      <trkpt lat="44.04672" lon="6.84123">
        <ele>954</ele>
        <time>2020-06-05T10:14:44.000Z</time>
      </trkpt>
      <trkpt lat="44.04671" lon="6.84124">
        <ele>954</ele>
        <time>2020-06-05T10:14:45.000Z</time>
      </trkpt>
      <trkpt lat="44.0467" lon="6.84124">
        <ele>954</ele>
        <time>2020-06-05T10:14:46.000Z</time>
      </trkpt>
      <trkpt lat="44.04669" lon="6.84125">
        <ele>954</ele>
        <time>2020-06-05T10:14:47.000Z</time>
      </trkpt>
      <trkpt lat="44.04668" lon="6.84125">
        <ele>954</ele>
        <time>2020-06-05T10:14:48.000Z</time>
      </trkpt>
      <trkpt lat="44.04667" lon="6.84125">
        <ele>953</ele>
        <time>2020-06-05T10:14:49.000Z</time>
      </trkpt>
      <trkpt lat="44.04666" lon="6.84125">
        <ele>953</ele>
        <time>2020-06-05T10:14:50.000Z</time>
      </trkpt>
      <trkpt lat="44.04665" lon="6.84125">
        <ele>953</ele>
        <time>2020-06-05T10:14:51.000Z</time>
      </trkpt>
      <trkpt lat="44.04663" lon="6.84125">
        <ele>953</ele>
        <time>2020-06-05T10:14:52.000Z</time>
      </trkpt>
      <trkpt lat="44.04662" lon="6.84125">
        <ele>953</ele>
        <time>2020-06-05T10:14:53.000Z</time>
      </trkpt>
      <trkpt lat="44.04661" lon="6.84125">
        <ele>953</ele>
        <time>2020-06-05T10:14:54.000Z</time>
      </trkpt>
      <trkpt lat="44.0466" lon="6.84126">
        <ele>953</ele>
        <time>2020-06-05T10:14:55.000Z</time>
      </trkpt>
      <trkpt lat="44.04659" lon="6.84126">
        <ele>953</ele>
        <time>2020-06-05T10:14:56.000Z</time>
      </trkpt>
      <trkpt lat="44.04659" lon="6.84127">
        <ele>953</ele>
        <time>2020-06-05T10:14:57.000Z</time>
      </trkpt>
      <trkpt lat="44.04657" lon="6.84127">
        <ele>953</ele>
        <time>2020-06-05T10:14:58.000Z</time>
      </trkpt>
      <trkpt lat="44.04656" lon="6.84128">
        <ele>953</ele>
        <time>2020-06-05T10:14:59.000Z</time>
      </trkpt>
      <trkpt lat="44.04655" lon="6.84129">
        <ele>953</ele>
        <time>2020-06-05T10:15:00.000Z</time>
      </trkpt>
      <trkpt lat="44.04654" lon="6.84129">
        <ele>953</ele>
        <time>2020-06-05T10:15:01.000Z</time>
      </trkpt>
      <trkpt lat="44.04653" lon="6.8413">
        <ele>953</ele>
        <time>2020-06-05T10:15:02.000Z</time>
      </trkpt>
      <trkpt lat="44.04652" lon="6.8413">
        <ele>953</ele>
        <time>2020-06-05T10:15:03.000Z</time>
      </trkpt>
      <trkpt lat="44.04651" lon="6.84131">
        <ele>953</ele>
        <time>2020-06-05T10:15:04.000Z</time>
      </trkpt>
      <trkpt lat="44.0465" lon="6.84132">
        <ele>953</ele>
        <time>2020-06-05T10:15:05.000Z</time>
      </trkpt>
      <trkpt lat="44.04649" lon="6.84132">
        <ele>953</ele>
        <time>2020-06-05T10:15:06.000Z</time>
      </trkpt>
      <trkpt lat="44.04648" lon="6.84133">
        <ele>953</ele>
        <time>2020-06-05T10:15:07.000Z</time>
      </trkpt>
      <trkpt lat="44.04647" lon="6.84134">
        <ele>953</ele>
        <time>2020-06-05T10:15:08.000Z</time>
      </trkpt>
      <trkpt lat="44.04645" lon="6.84134">
        <ele>953</ele>
        <time>2020-06-05T10:15:09.000Z</time>
      </trkpt>
      <trkpt lat="44.04644" lon="6.84135">
        <ele>953</ele>
        <time>2020-06-05T10:15:10.000Z</time>
      </trkpt>
      <trkpt lat="44.04643" lon="6.84136">
        <ele>953</ele>
        <time>2020-06-05T10:15:11.000Z</time>
      </trkpt>
      <trkpt lat="44.04642" lon="6.84137">
        <ele>953</ele>
        <time>2020-06-05T10:15:12.000Z</time>
      </trkpt>
      <trkpt lat="44.04641" lon="6.84138">
        <ele>953</ele>
        <time>2020-06-05T10:15:13.000Z</time>
      </trkpt>
      <trkpt lat="44.0464" lon="6.84139">
        <ele>953</ele>
        <time>2020-06-05T10:15:14.000Z</time>
      </trkpt>
      <trkpt lat="44.04639" lon="6.8414">
        <ele>953</ele>
        <time>2020-06-05T10:15:15.000Z</time>
      </trkpt>
      <trkpt lat="44.04638" lon="6.8414">
        <ele>953</ele>
        <time>2020-06-05T10:15:16.000Z</time>
      </trkpt>
      <trkpt lat="44.04637" lon="6.84141">
        <ele>953</ele>
        <time>2020-06-05T10:15:17.000Z</time>
      </trkpt>
      <trkpt lat="44.04636" lon="6.84142">
        <ele>954</ele>
        <time>2020-06-05T10:15:18.000Z</time>
      </trkpt>
      <trkpt lat="44.04635" lon="6.84143">
        <ele>954</ele>
        <time>2020-06-05T10:15:19.000Z</time>
      </trkpt>
      <trkpt lat="44.04634" lon="6.84143">
        <ele>954</ele>
        <time>2020-06-05T10:15:20.000Z</time>
      </trkpt>
      <trkpt lat="44.04633" lon="6.84144">
        <ele>954</ele>
        <time>2020-06-05T10:15:21.000Z</time>
      </trkpt>
      <trkpt lat="44.04632" lon="6.84145">
        <ele>954</ele>
        <time>2020-06-05T10:15:22.000Z</time>
      </trkpt>
      <trkpt lat="44.04632" lon="6.84146">
        <ele>954</ele>
        <time>2020-06-05T10:15:23.000Z</time>
      </trkpt>
      <trkpt lat="44.04631" lon="6.84147">
        <ele>954</ele>
        <time>2020-06-05T10:15:24.000Z</time>
      </trkpt>
      <trkpt lat="44.0463" lon="6.84148">
        <ele>954</ele>
        <time>2020-06-05T10:15:25.000Z</time>
      </trkpt>
      <trkpt lat="44.04629" lon="6.84149">
        <ele>954</ele>
        <time>2020-06-05T10:15:26.000Z</time>
      </trkpt>
      <trkpt lat="44.04628" lon="6.8415">
        <ele>954</ele>
        <time>2020-06-05T10:15:27.000Z</time>
      </trkpt>
      <trkpt lat="44.04627" lon="6.8415">
        <ele>954</ele>
        <time>2020-06-05T10:15:28.000Z</time>
      </trkpt>
      <trkpt lat="44.04626" lon="6.8415">
        <ele>954</ele>
        <time>2020-06-05T10:15:29.000Z</time>
      </trkpt>
      <trkpt lat="44.04625" lon="6.84151">
        <ele>954</ele>
        <time>2020-06-05T10:15:30.000Z</time>
      </trkpt>
      <trkpt lat="44.04624" lon="6.84151">
        <ele>954</ele>
        <time>2020-06-05T10:15:31.000Z</time>
      </trkpt>
      <trkpt lat="44.04623" lon="6.84152">
        <ele>954</ele>
        <time>2020-06-05T10:15:32.000Z</time>
      </trkpt>
      <trkpt lat="44.04622" lon="6.84153">
        <ele>953</ele>
        <time>2020-06-05T10:15:33.000Z</time>
      </trkpt>
      <trkpt lat="44.04622" lon="6.84154">
        <ele>953</ele>
        <time>2020-06-05T10:15:34.000Z</time>
      </trkpt>
      <trkpt lat="44.04621" lon="6.84155">
        <ele>953</ele>
        <time>2020-06-05T10:15:35.000Z</time>
      </trkpt>
      <trkpt lat="44.0462" lon="6.84155">
        <ele>953</ele>
        <time>2020-06-05T10:15:36.000Z</time>
      </trkpt>
      <trkpt lat="44.04619" lon="6.84156">
        <ele>953</ele>
        <time>2020-06-05T10:15:37.000Z</time>
      </trkpt>
      <trkpt lat="44.04619" lon="6.84156">
        <ele>953</ele>
        <time>2020-06-05T10:15:38.000Z</time>
      </trkpt>
      <trkpt lat="44.04618" lon="6.84157">
        <ele>952</ele>
        <time>2020-06-05T10:15:39.000Z</time>
      </trkpt>
      <trkpt lat="44.04618" lon="6.84158">
        <ele>952</ele>
        <time>2020-06-05T10:15:40.000Z</time>
      </trkpt>
      <trkpt lat="44.04617" lon="6.84159">
        <ele>952</ele>
        <time>2020-06-05T10:15:41.000Z</time>
      </trkpt>
      <trkpt lat="44.04616" lon="6.8416">
        <ele>952</ele>
        <time>2020-06-05T10:15:42.000Z</time>
      </trkpt>
      <trkpt lat="44.04616" lon="6.84161">
        <ele>952</ele>
        <time>2020-06-05T10:15:43.000Z</time>
      </trkpt>
      <trkpt lat="44.04615" lon="6.84162">
        <ele>952</ele>
        <time>2020-06-05T10:15:44.000Z</time>
      </trkpt>
      <trkpt lat="44.04615" lon="6.84163">
        <ele>952</ele>
        <time>2020-06-05T10:15:45.000Z</time>
      </trkpt>
      <trkpt lat="44.04615" lon="6.84163">
        <ele>952</ele>
        <time>2020-06-05T10:15:46.000Z</time>
      </trkpt>
      <trkpt lat="44.04615" lon="6.84164">
        <ele>952</ele>
        <time>2020-06-05T10:15:47.000Z</time>
      </trkpt>
      <trkpt lat="44.04615" lon="6.84164">
        <ele>952</ele>
        <time>2020-06-05T10:15:48.000Z</time>
      </trkpt>
      <trkpt lat="44.04615" lon="6.84164">
        <ele>952</ele>
        <time>2020-06-05T10:15:49.000Z</time>
      </trkpt>
      <trkpt lat="44.04615" lon="6.84164">
        <ele>952</ele>
        <time>2020-06-05T10:15:50.000Z</time>
      </trkpt>
      <trkpt lat="44.04615" lon="6.84164">
        <ele>952</ele>
        <time>2020-06-05T10:15:51.000Z</time>
      </trkpt>
      <trkpt lat="44.04615" lon="6.84165">
        <ele>952</ele>
        <time>2020-06-05T10:15:52.000Z</time>
      </trkpt>
      <trkpt lat="44.04615" lon="6.84165">
        <ele>952</ele>
        <time>2020-06-05T10:15:53.000Z</time>
      </trkpt>
      <trkpt lat="44.04614" lon="6.84165">
        <ele>952</ele>
        <time>2020-06-05T10:15:54.000Z</time>
      </trkpt>
      <trkpt lat="44.04614" lon="6.84165">
        <ele>952</ele>
        <time>2020-06-05T10:15:55.000Z</time>
      </trkpt>
      <trkpt lat="44.04614" lon="6.84165">
        <ele>952</ele>
        <time>2020-06-05T10:15:56.000Z</time>
      </trkpt>
      <trkpt lat="44.04614" lon="6.84166">
        <ele>952</ele>
        <time>2020-06-05T10:15:57.000Z</time>
      </trkpt>
      <trkpt lat="44.04614" lon="6.84166">
        <ele>952</ele>
        <time>2020-06-05T10:15:58.000Z</time>
      </trkpt>
      <trkpt lat="44.04614" lon="6.84166">
        <ele>952</ele>
        <time>2020-06-05T10:15:59.000Z</time>
      </trkpt>
      <trkpt lat="44.04614" lon="6.84165">
        <ele>952</ele>
        <time>2020-06-05T10:16:00.000Z</time>
      </trkpt>
      <trkpt lat="44.04614" lon="6.84165">
        <ele>952</ele>
        <time>2020-06-05T10:16:01.000Z</time>
      </trkpt>
      <trkpt lat="44.04614" lon="6.84165">
        <ele>952</ele>
        <time>2020-06-05T10:16:02.000Z</time>
      </trkpt>
      <trkpt lat="44.04614" lon="6.84166">
        <ele>952</ele>
        <time>2020-06-05T10:16:03.000Z</time>
      </trkpt>
      <trkpt lat="44.04614" lon="6.84166">
        <ele>952</ele>
        <time>2020-06-05T10:16:04.000Z</time>
      </trkpt>
      <trkpt lat="44.04614" lon="6.84165">
        <ele>952</ele>
        <time>2020-06-05T10:16:05.000Z</time>
      </trkpt>
      <trkpt lat="44.04614" lon="6.84165">
        <ele>952</ele>
        <time>2020-06-05T10:16:06.000Z</time>
      </trkpt>
      <trkpt lat="44.04614" lon="6.84165">
        <ele>952</ele>
        <time>2020-06-05T10:16:07.000Z</time>
      </trkpt>
      <trkpt lat="44.04614" lon="6.84165">
        <ele>952</ele>
        <time>2020-06-05T10:16:08.000Z</time>
      </trkpt>
      <trkpt lat="44.04614" lon="6.84165">
        <ele>952</ele>
        <time>2020-06-05T10:16:09.000Z</time>
      </trkpt>
      <trkpt lat="44.04614" lon="6.84166">
        <ele>952</ele>
        <time>2020-06-05T10:16:10.000Z</time>
      </trkpt>
      <trkpt lat="44.04614" lon="6.84166">
        <ele>952</ele>
        <time>2020-06-05T10:16:11.000Z</time>
      </trkpt>
      <trkpt lat="44.04614" lon="6.84165">
        <ele>952</ele>
        <time>2020-06-05T10:16:12.000Z</time>
      </trkpt>
      <trkpt lat="44.04614" lon="6.84165">
        <ele>952</ele>
        <time>2020-06-05T10:16:13.000Z</time>
      </trkpt>
      <trkpt lat="44.04614" lon="6.84165">
        <ele>952</ele>
        <time>2020-06-05T10:16:14.000Z</time>
      </trkpt>
      <trkpt lat="44.04614" lon="6.84165">
        <ele>952</ele>
        <time>2020-06-05T10:16:15.000Z</time>
      </trkpt>
      <trkpt lat="44.04614" lon="6.84165">
        <ele>952</ele>
        <time>2020-06-05T10:16:16.000Z</time>
      </trkpt>
      <trkpt lat="44.04614" lon="6.84165">
        <ele>952</ele>
        <time>2020-06-05T10:16:17.000Z</time>
      </trkpt>
      <trkpt lat="44.04614" lon="6.84165">
        <ele>952</ele>
        <time>2020-06-05T10:16:18.000Z</time>
      </trkpt>
      <trkpt lat="44.04614" lon="6.84165">
        <ele>952</ele>
        <time>2020-06-05T10:16:19.000Z</time>
      </trkpt>
      <trkpt lat="44.04614" lon="6.84165">
        <ele>952</ele>
        <time>2020-06-05T10:16:20.000Z</time>
      </trkpt>
      <trkpt lat="44.04614" lon="6.84165">
        <ele>952</ele>
        <time>2020-06-05T10:16:21.000Z</time>
      </trkpt>
      <trkpt lat="44.04614" lon="6.84165">
        <ele>952</ele>
        <time>2020-06-05T10:16:22.000Z</time>
      </trkpt>
      <trkpt lat="44.04614" lon="6.84166">
        <ele>952</ele>
        <time>2020-06-05T10:16:23.000Z</time>
      </trkpt>
      <trkpt lat="44.04614" lon="6.84166">
        <ele>952</ele>
        <time>2020-06-05T10:16:24.000Z</time>
      </trkpt>
      <trkpt lat="44.04613" lon="6.84166">
        <ele>952</ele>
        <time>2020-06-05T10:16:25.000Z</time>
      </trkpt>
      <trkpt lat="44.04613" lon="6.84165">
        <ele>952</ele>
        <time>2020-06-05T10:16:26.000Z</time>
      </trkpt>
      <trkpt lat="44.04613" lon="6.84165">
        <ele>952</ele>
        <time>2020-06-05T10:16:27.000Z</time>
      </trkpt>
      <trkpt lat="44.04613" lon="6.84164">
        <ele>952</ele>
        <time>2020-06-05T10:16:28.000Z</time>
      </trkpt>
      <trkpt lat="44.04613" lon="6.84164">
        <ele>952</ele>
        <time>2020-06-05T10:16:29.000Z</time>
      </trkpt>
      <trkpt lat="44.04613" lon="6.84164">
        <ele>952</ele>
        <time>2020-06-05T10:16:30.000Z</time>
      </trkpt>
      <trkpt lat="44.04613" lon="6.84164">
        <ele>952</ele>
        <time>2020-06-05T10:16:31.000Z</time>
      </trkpt>
      <trkpt lat="44.04613" lon="6.84164">
        <ele>952</ele>
        <time>2020-06-05T10:16:32.000Z</time>
      </trkpt>
      <trkpt lat="44.04613" lon="6.84164">
        <ele>952</ele>
        <time>2020-06-05T10:16:33.000Z</time>
      </trkpt>
      <trkpt lat="44.04613" lon="6.84164">
        <ele>952</ele>
        <time>2020-06-05T10:16:34.000Z</time>
      </trkpt>
      <trkpt lat="44.04613" lon="6.84164">
        <ele>952</ele>
        <time>2020-06-05T10:16:35.000Z</time>
      </trkpt>
      <trkpt lat="44.04613" lon="6.84164">
        <ele>951</ele>
        <time>2020-06-05T10:16:36.000Z</time>
      </trkpt>
      <trkpt lat="44.04613" lon="6.84165">
        <ele>951</ele>
        <time>2020-06-05T10:16:37.000Z</time>
      </trkpt>
      <trkpt lat="44.04613" lon="6.84165">
        <ele>951</ele>
        <time>2020-06-05T10:16:38.000Z</time>
      </trkpt>
      <trkpt lat="44.04613" lon="6.84166">
        <ele>951</ele>
        <time>2020-06-05T10:16:39.000Z</time>
      </trkpt>
      <trkpt lat="44.04612" lon="6.84167">
        <ele>951</ele>
        <time>2020-06-05T10:16:40.000Z</time>
      </trkpt>
      <trkpt lat="44.04611" lon="6.84168">
        <ele>951</ele>
        <time>2020-06-05T10:16:41.000Z</time>
      </trkpt>
      <trkpt lat="44.0461" lon="6.84169">
        <ele>951</ele>
        <time>2020-06-05T10:16:42.000Z</time>
      </trkpt>
      <trkpt lat="44.0461" lon="6.84169">
        <ele>951</ele>
        <time>2020-06-05T10:16:43.000Z</time>
      </trkpt>
      <trkpt lat="44.04609" lon="6.8417">
        <ele>951</ele>
        <time>2020-06-05T10:16:44.000Z</time>
      </trkpt>
      <trkpt lat="44.04608" lon="6.84171">
        <ele>951</ele>
        <time>2020-06-05T10:16:45.000Z</time>
      </trkpt>
      <trkpt lat="44.04607" lon="6.84172">
        <ele>951</ele>
        <time>2020-06-05T10:16:46.000Z</time>
      </trkpt>
      <trkpt lat="44.04605" lon="6.84173">
        <ele>951</ele>
        <time>2020-06-05T10:16:47.000Z</time>
      </trkpt>
      <trkpt lat="44.04605" lon="6.84174">
        <ele>951</ele>
        <time>2020-06-05T10:16:48.000Z</time>
      </trkpt>
      <trkpt lat="44.04604" lon="6.84175">
        <ele>951</ele>
        <time>2020-06-05T10:16:49.000Z</time>
      </trkpt>
      <trkpt lat="44.04603" lon="6.84176">
        <ele>951</ele>
        <time>2020-06-05T10:16:50.000Z</time>
      </trkpt>
      <trkpt lat="44.04602" lon="6.84177">
        <ele>951</ele>
        <time>2020-06-05T10:16:51.000Z</time>
      </trkpt>
      <trkpt lat="44.04601" lon="6.84178">
        <ele>951</ele>
        <time>2020-06-05T10:16:52.000Z</time>
      </trkpt>
      <trkpt lat="44.046" lon="6.84179">
        <ele>951</ele>
        <time>2020-06-05T10:16:53.000Z</time>
      </trkpt>
      <trkpt lat="44.04598" lon="6.84179">
        <ele>951</ele>
        <time>2020-06-05T10:16:54.000Z</time>
      </trkpt>
      <trkpt lat="44.04597" lon="6.8418">
        <ele>951</ele>
        <time>2020-06-05T10:16:55.000Z</time>
      </trkpt>
      <trkpt lat="44.04596" lon="6.8418">
        <ele>951</ele>
        <time>2020-06-05T10:16:56.000Z</time>
      </trkpt>
      <trkpt lat="44.04596" lon="6.84181">
        <ele>951</ele>
        <time>2020-06-05T10:16:57.000Z</time>
      </trkpt>
      <trkpt lat="44.04595" lon="6.84182">
        <ele>951</ele>
        <time>2020-06-05T10:16:58.000Z</time>
      </trkpt>
      <trkpt lat="44.04593" lon="6.84182">
        <ele>951</ele>
        <time>2020-06-05T10:16:59.000Z</time>
      </trkpt>
      <trkpt lat="44.04592" lon="6.84183">
        <ele>951</ele>
        <time>2020-06-05T10:17:00.000Z</time>
      </trkpt>
      <trkpt lat="44.04592" lon="6.84183">
        <ele>951</ele>
        <time>2020-06-05T10:17:01.000Z</time>
      </trkpt>
      <trkpt lat="44.04591" lon="6.84184">
        <ele>951</ele>
        <time>2020-06-05T10:17:02.000Z</time>
      </trkpt>
      <trkpt lat="44.0459" lon="6.84184">
        <ele>950</ele>
        <time>2020-06-05T10:17:03.000Z</time>
      </trkpt>
      <trkpt lat="44.04589" lon="6.84184">
        <ele>950</ele>
        <time>2020-06-05T10:17:04.000Z</time>
      </trkpt>
      <trkpt lat="44.04588" lon="6.84184">
        <ele>950</ele>
        <time>2020-06-05T10:17:05.000Z</time>
      </trkpt>
      <trkpt lat="44.04587" lon="6.84184">
        <ele>950</ele>
        <time>2020-06-05T10:17:06.000Z</time>
      </trkpt>
      <trkpt lat="44.04587" lon="6.84184">
        <ele>950</ele>
        <time>2020-06-05T10:17:07.000Z</time>
      </trkpt>
      <trkpt lat="44.04586" lon="6.84185">
        <ele>950</ele>
        <time>2020-06-05T10:17:08.000Z</time>
      </trkpt>
      <trkpt lat="44.04585" lon="6.84185">
        <ele>950</ele>
        <time>2020-06-05T10:17:09.000Z</time>
      </trkpt>
      <trkpt lat="44.04584" lon="6.84185">
        <ele>950</ele>
        <time>2020-06-05T10:17:10.000Z</time>
      </trkpt>
      <trkpt lat="44.04584" lon="6.84186">
        <ele>950</ele>
        <time>2020-06-05T10:17:11.000Z</time>
      </trkpt>
      <trkpt lat="44.04583" lon="6.84186">
        <ele>949</ele>
        <time>2020-06-05T10:17:12.000Z</time>
      </trkpt>
      <trkpt lat="44.04582" lon="6.84187">
        <ele>949</ele>
        <time>2020-06-05T10:17:13.000Z</time>
      </trkpt>
      <trkpt lat="44.04582" lon="6.84188">
        <ele>949</ele>
        <time>2020-06-05T10:17:14.000Z</time>
      </trkpt>
      <trkpt lat="44.04581" lon="6.84189">
        <ele>949</ele>
        <time>2020-06-05T10:17:15.000Z</time>
      </trkpt>
      <trkpt lat="44.0458" lon="6.8419">
        <ele>949</ele>
        <time>2020-06-05T10:17:16.000Z</time>
      </trkpt>
      <trkpt lat="44.04579" lon="6.84191">
        <ele>949</ele>
        <time>2020-06-05T10:17:17.000Z</time>
      </trkpt>
      <trkpt lat="44.04579" lon="6.84192">
        <ele>949</ele>
        <time>2020-06-05T10:17:18.000Z</time>
      </trkpt>
      <trkpt lat="44.04578" lon="6.84193">
        <ele>949</ele>
        <time>2020-06-05T10:17:19.000Z</time>
      </trkpt>
      <trkpt lat="44.04577" lon="6.84193">
        <ele>949</ele>
        <time>2020-06-05T10:17:20.000Z</time>
      </trkpt>
      <trkpt lat="44.04577" lon="6.84194">
        <ele>948</ele>
        <time>2020-06-05T10:17:21.000Z</time>
      </trkpt>
      <trkpt lat="44.04576" lon="6.84195">
        <ele>948</ele>
        <time>2020-06-05T10:17:22.000Z</time>
      </trkpt>
      <trkpt lat="44.04575" lon="6.84196">
        <ele>948</ele>
        <time>2020-06-05T10:17:23.000Z</time>
      </trkpt>
      <trkpt lat="44.04575" lon="6.84196">
        <ele>948</ele>
        <time>2020-06-05T10:17:24.000Z</time>
      </trkpt>
      <trkpt lat="44.04574" lon="6.84197">
        <ele>948</ele>
        <time>2020-06-05T10:17:25.000Z</time>
      </trkpt>
      <trkpt lat="44.04573" lon="6.84198">
        <ele>948</ele>
        <time>2020-06-05T10:17:26.000Z</time>
      </trkpt>
      <trkpt lat="44.04572" lon="6.84198">
        <ele>948</ele>
        <time>2020-06-05T10:17:27.000Z</time>
      </trkpt>
      <trkpt lat="44.04571" lon="6.84198">
        <ele>947</ele>
        <time>2020-06-05T10:17:28.000Z</time>
      </trkpt>
      <trkpt lat="44.04571" lon="6.84198">
        <ele>947</ele>
        <time>2020-06-05T10:17:29.000Z</time>
      </trkpt>
      <trkpt lat="44.0457" lon="6.84198">
        <ele>947</ele>
        <time>2020-06-05T10:17:30.000Z</time>
      </trkpt>
      <trkpt lat="44.0457" lon="6.84198">
        <ele>947</ele>
        <time>2020-06-05T10:17:31.000Z</time>
      </trkpt>
      <trkpt lat="44.04569" lon="6.84199">
        <ele>947</ele>
        <time>2020-06-05T10:17:32.000Z</time>
      </trkpt>
      <trkpt lat="44.04568" lon="6.84199">
        <ele>947</ele>
        <time>2020-06-05T10:17:33.000Z</time>
      </trkpt>
      <trkpt lat="44.04568" lon="6.84201">
        <ele>947</ele>
        <time>2020-06-05T10:17:34.000Z</time>
      </trkpt>
      <trkpt lat="44.04566" lon="6.84202">
        <ele>947</ele>
        <time>2020-06-05T10:17:35.000Z</time>
      </trkpt>
      <trkpt lat="44.04565" lon="6.84203">
        <ele>947</ele>
        <time>2020-06-05T10:17:36.000Z</time>
      </trkpt>
      <trkpt lat="44.04565" lon="6.84204">
        <ele>947</ele>
        <time>2020-06-05T10:17:37.000Z</time>
      </trkpt>
      <trkpt lat="44.04564" lon="6.84205">
        <ele>947</ele>
        <time>2020-06-05T10:17:38.000Z</time>
      </trkpt>
      <trkpt lat="44.04564" lon="6.84205">
        <ele>947</ele>
        <time>2020-06-05T10:17:39.000Z</time>
      </trkpt>
      <trkpt lat="44.04563" lon="6.84206">
        <ele>947</ele>
        <time>2020-06-05T10:17:40.000Z</time>
      </trkpt>
      <trkpt lat="44.04563" lon="6.84208">
        <ele>947</ele>
        <time>2020-06-05T10:17:41.000Z</time>
      </trkpt>
      <trkpt lat="44.04562" lon="6.84209">
        <ele>947</ele>
        <time>2020-06-05T10:17:42.000Z</time>
      </trkpt>
      <trkpt lat="44.04562" lon="6.8421">
        <ele>947</ele>
        <time>2020-06-05T10:17:43.000Z</time>
      </trkpt>
      <trkpt lat="44.04561" lon="6.84211">
        <ele>947</ele>
        <time>2020-06-05T10:17:44.000Z</time>
      </trkpt>
      <trkpt lat="44.04561" lon="6.84213">
        <ele>947</ele>
        <time>2020-06-05T10:17:45.000Z</time>
      </trkpt>
      <trkpt lat="44.04561" lon="6.84214">
        <ele>947</ele>
        <time>2020-06-05T10:17:46.000Z</time>
      </trkpt>
      <trkpt lat="44.0456" lon="6.84215">
        <ele>947</ele>
        <time>2020-06-05T10:17:47.000Z</time>
      </trkpt>
      <trkpt lat="44.0456" lon="6.84216">
        <ele>947</ele>
        <time>2020-06-05T10:17:48.000Z</time>
      </trkpt>
      <trkpt lat="44.0456" lon="6.84218">
        <ele>947</ele>
        <time>2020-06-05T10:17:49.000Z</time>
      </trkpt>
      <trkpt lat="44.04559" lon="6.84218">
        <ele>947</ele>
        <time>2020-06-05T10:17:50.000Z</time>
      </trkpt>
      <trkpt lat="44.04559" lon="6.84219">
        <ele>947</ele>
        <time>2020-06-05T10:17:51.000Z</time>
      </trkpt>
      <trkpt lat="44.04559" lon="6.8422">
        <ele>947</ele>
        <time>2020-06-05T10:17:52.000Z</time>
      </trkpt>
      <trkpt lat="44.04559" lon="6.84221">
        <ele>947</ele>
        <time>2020-06-05T10:17:53.000Z</time>
      </trkpt>
      <trkpt lat="44.04558" lon="6.84222">
        <ele>947</ele>
        <time>2020-06-05T10:17:54.000Z</time>
      </trkpt>
      <trkpt lat="44.04558" lon="6.84222">
        <ele>947</ele>
        <time>2020-06-05T10:17:55.000Z</time>
      </trkpt>
      <trkpt lat="44.04557" lon="6.84222">
        <ele>947</ele>
        <time>2020-06-05T10:17:56.000Z</time>
      </trkpt>
      <trkpt lat="44.04557" lon="6.84222">
        <ele>947</ele>
        <time>2020-06-05T10:17:57.000Z</time>
      </trkpt>
      <trkpt lat="44.04556" lon="6.84223">
        <ele>947</ele>
        <time>2020-06-05T10:17:58.000Z</time>
      </trkpt>
      <trkpt lat="44.04556" lon="6.84224">
        <ele>946</ele>
        <time>2020-06-05T10:17:59.000Z</time>
      </trkpt>
      <trkpt lat="44.04555" lon="6.84225">
        <ele>946</ele>
        <time>2020-06-05T10:18:00.000Z</time>
      </trkpt>
      <trkpt lat="44.04554" lon="6.84227">
        <ele>946</ele>
        <time>2020-06-05T10:18:01.000Z</time>
      </trkpt>
      <trkpt lat="44.04554" lon="6.84228">
        <ele>946</ele>
        <time>2020-06-05T10:18:02.000Z</time>
      </trkpt>
      <trkpt lat="44.04554" lon="6.84229">
        <ele>946</ele>
        <time>2020-06-05T10:18:03.000Z</time>
      </trkpt>
      <trkpt lat="44.04554" lon="6.84231">
        <ele>946</ele>
        <time>2020-06-05T10:18:04.000Z</time>
      </trkpt>
      <trkpt lat="44.04553" lon="6.84233">
        <ele>946</ele>
        <time>2020-06-05T10:18:05.000Z</time>
      </trkpt>
      <trkpt lat="44.04553" lon="6.84234">
        <ele>946</ele>
        <time>2020-06-05T10:18:06.000Z</time>
      </trkpt>
      <trkpt lat="44.04553" lon="6.84236">
        <ele>946</ele>
        <time>2020-06-05T10:18:07.000Z</time>
      </trkpt>
      <trkpt lat="44.04552" lon="6.84237">
        <ele>946</ele>
        <time>2020-06-05T10:18:08.000Z</time>
      </trkpt>
      <trkpt lat="44.04552" lon="6.84238">
        <ele>946</ele>
        <time>2020-06-05T10:18:09.000Z</time>
      </trkpt>
      <trkpt lat="44.04551" lon="6.8424">
        <ele>946</ele>
        <time>2020-06-05T10:18:10.000Z</time>
      </trkpt>
      <trkpt lat="44.04551" lon="6.84241">
        <ele>946</ele>
        <time>2020-06-05T10:18:11.000Z</time>
      </trkpt>
      <trkpt lat="44.0455" lon="6.84242">
        <ele>946</ele>
        <time>2020-06-05T10:18:12.000Z</time>
      </trkpt>
      <trkpt lat="44.0455" lon="6.84244">
        <ele>946</ele>
        <time>2020-06-05T10:18:13.000Z</time>
      </trkpt>
      <trkpt lat="44.04549" lon="6.84245">
        <ele>946</ele>
        <time>2020-06-05T10:18:14.000Z</time>
      </trkpt>
      <trkpt lat="44.04549" lon="6.84246">
        <ele>946</ele>
        <time>2020-06-05T10:18:15.000Z</time>
      </trkpt>
      <trkpt lat="44.04549" lon="6.84247">
        <ele>946</ele>
        <time>2020-06-05T10:18:16.000Z</time>
      </trkpt>
      <trkpt lat="44.04549" lon="6.84249">
        <ele>946</ele>
        <time>2020-06-05T10:18:17.000Z</time>
      </trkpt>
      <trkpt lat="44.04549" lon="6.8425">
        <ele>946</ele>
        <time>2020-06-05T10:18:18.000Z</time>
      </trkpt>
      <trkpt lat="44.04549" lon="6.84251">
        <ele>946</ele>
        <time>2020-06-05T10:18:19.000Z</time>
      </trkpt>
      <trkpt lat="44.04549" lon="6.84252">
        <ele>946</ele>
        <time>2020-06-05T10:18:20.000Z</time>
      </trkpt>
      <trkpt lat="44.04549" lon="6.84254">
        <ele>946</ele>
        <time>2020-06-05T10:18:21.000Z</time>
      </trkpt>
      <trkpt lat="44.04548" lon="6.84255">
        <ele>946</ele>
        <time>2020-06-05T10:18:22.000Z</time>
      </trkpt>
      <trkpt lat="44.04548" lon="6.84256">
        <ele>946</ele>
        <time>2020-06-05T10:18:23.000Z</time>
      </trkpt>
      <trkpt lat="44.04547" lon="6.84257">
        <ele>946</ele>
        <time>2020-06-05T10:18:24.000Z</time>
      </trkpt>
      <trkpt lat="44.04546" lon="6.84258">
        <ele>946</ele>
        <time>2020-06-05T10:18:25.000Z</time>
      </trkpt>
      <trkpt lat="44.04545" lon="6.84259">
        <ele>946</ele>
        <time>2020-06-05T10:18:26.000Z</time>
      </trkpt>
      <trkpt lat="44.04545" lon="6.8426">
        <ele>946</ele>
        <time>2020-06-05T10:18:27.000Z</time>
      </trkpt>
      <trkpt lat="44.04544" lon="6.84261">
        <ele>946</ele>
        <time>2020-06-05T10:18:28.000Z</time>
      </trkpt>
      <trkpt lat="44.04544" lon="6.84263">
        <ele>946</ele>
        <time>2020-06-05T10:18:29.000Z</time>
      </trkpt>
      <trkpt lat="44.04543" lon="6.84264">
        <ele>946</ele>
        <time>2020-06-05T10:18:30.000Z</time>
      </trkpt>
      <trkpt lat="44.04543" lon="6.84265">
        <ele>946</ele>
        <time>2020-06-05T10:18:31.000Z</time>
      </trkpt>
      <trkpt lat="44.04543" lon="6.84266">
        <ele>946</ele>
        <time>2020-06-05T10:18:32.000Z</time>
      </trkpt>
      <trkpt lat="44.04542" lon="6.84267">
        <ele>946</ele>
        <time>2020-06-05T10:18:33.000Z</time>
      </trkpt>
      <trkpt lat="44.04541" lon="6.84268">
        <ele>946</ele>
        <time>2020-06-05T10:18:34.000Z</time>
      </trkpt>
      <trkpt lat="44.0454" lon="6.84269">
        <ele>946</ele>
        <time>2020-06-05T10:18:35.000Z</time>
      </trkpt>
      <trkpt lat="44.04539" lon="6.8427">
        <ele>946</ele>
        <time>2020-06-05T10:18:36.000Z</time>
      </trkpt>
      <trkpt lat="44.04539" lon="6.84271">
        <ele>946</ele>
        <time>2020-06-05T10:18:37.000Z</time>
      </trkpt>
      <trkpt lat="44.04538" lon="6.84272">
        <ele>946</ele>
        <time>2020-06-05T10:18:38.000Z</time>
      </trkpt>
      <trkpt lat="44.04537" lon="6.84273">
        <ele>946</ele>
        <time>2020-06-05T10:18:39.000Z</time>
      </trkpt>
      <trkpt lat="44.04536" lon="6.84274">
        <ele>946</ele>
        <time>2020-06-05T10:18:40.000Z</time>
      </trkpt>
      <trkpt lat="44.04535" lon="6.84275">
        <ele>945</ele>
        <time>2020-06-05T10:18:41.000Z</time>
      </trkpt>
      <trkpt lat="44.04534" lon="6.84276">
        <ele>945</ele>
        <time>2020-06-05T10:18:42.000Z</time>
      </trkpt>
      <trkpt lat="44.04533" lon="6.84276">
        <ele>945</ele>
        <time>2020-06-05T10:18:43.000Z</time>
      </trkpt>
      <trkpt lat="44.04532" lon="6.84277">
        <ele>945</ele>
        <time>2020-06-05T10:18:44.000Z</time>
      </trkpt>
      <trkpt lat="44.04531" lon="6.84278">
        <ele>945</ele>
        <time>2020-06-05T10:18:45.000Z</time>
      </trkpt>
      <trkpt lat="44.0453" lon="6.84278">
        <ele>945</ele>
        <time>2020-06-05T10:18:46.000Z</time>
      </trkpt>
      <trkpt lat="44.04529" lon="6.84278">
        <ele>945</ele>
        <time>2020-06-05T10:18:47.000Z</time>
      </trkpt>
      <trkpt lat="44.04528" lon="6.84278">
        <ele>945</ele>
        <time>2020-06-05T10:18:48.000Z</time>
      </trkpt>
      <trkpt lat="44.04527" lon="6.84278">
        <ele>945</ele>
        <time>2020-06-05T10:18:49.000Z</time>
      </trkpt>
      <trkpt lat="44.04526" lon="6.84278">
        <ele>945</ele>
        <time>2020-06-05T10:18:50.000Z</time>
      </trkpt>
      <trkpt lat="44.04526" lon="6.84278">
        <ele>945</ele>
        <time>2020-06-05T10:18:51.000Z</time>
      </trkpt>
      <trkpt lat="44.04525" lon="6.84278">
        <ele>945</ele>
        <time>2020-06-05T10:18:52.000Z</time>
      </trkpt>
      <trkpt lat="44.04524" lon="6.84278">
        <ele>945</ele>
        <time>2020-06-05T10:18:53.000Z</time>
      </trkpt>
      <trkpt lat="44.04524" lon="6.84278">
        <ele>945</ele>
        <time>2020-06-05T10:18:54.000Z</time>
      </trkpt>
      <trkpt lat="44.04523" lon="6.84278">
        <ele>945</ele>
        <time>2020-06-05T10:18:55.000Z</time>
      </trkpt>
      <trkpt lat="44.04522" lon="6.84278">
        <ele>945</ele>
        <time>2020-06-05T10:18:56.000Z</time>
      </trkpt>
      <trkpt lat="44.04521" lon="6.84279">
        <ele>945</ele>
        <time>2020-06-05T10:18:57.000Z</time>
      </trkpt>
      <trkpt lat="44.0452" lon="6.84279">
        <ele>945</ele>
        <time>2020-06-05T10:18:58.000Z</time>
      </trkpt>
      <trkpt lat="44.04519" lon="6.84279">
        <ele>944</ele>
        <time>2020-06-05T10:18:59.000Z</time>
      </trkpt>
      <trkpt lat="44.04519" lon="6.8428">
        <ele>944</ele>
        <time>2020-06-05T10:19:00.000Z</time>
      </trkpt>
      <trkpt lat="44.04518" lon="6.8428">
        <ele>944</ele>
        <time>2020-06-05T10:19:01.000Z</time>
      </trkpt>
      <trkpt lat="44.04517" lon="6.84281">
        <ele>944</ele>
        <time>2020-06-05T10:19:02.000Z</time>
      </trkpt>
      <trkpt lat="44.04516" lon="6.84282">
        <ele>944</ele>
        <time>2020-06-05T10:19:03.000Z</time>
      </trkpt>
      <trkpt lat="44.04515" lon="6.84283">
        <ele>944</ele>
        <time>2020-06-05T10:19:04.000Z</time>
      </trkpt>
      <trkpt lat="44.04515" lon="6.84283">
        <ele>944</ele>
        <time>2020-06-05T10:19:05.000Z</time>
      </trkpt>
      <trkpt lat="44.04514" lon="6.84284">
        <ele>944</ele>
        <time>2020-06-05T10:19:06.000Z</time>
      </trkpt>
      <trkpt lat="44.04513" lon="6.84285">
        <ele>944</ele>
        <time>2020-06-05T10:19:07.000Z</time>
      </trkpt>
      <trkpt lat="44.04512" lon="6.84285">
        <ele>944</ele>
        <time>2020-06-05T10:19:08.000Z</time>
      </trkpt>
      <trkpt lat="44.04512" lon="6.84286">
        <ele>944</ele>
        <time>2020-06-05T10:19:09.000Z</time>
      </trkpt>
      <trkpt lat="44.04511" lon="6.84286">
        <ele>944</ele>
        <time>2020-06-05T10:19:10.000Z</time>
      </trkpt>
      <trkpt lat="44.0451" lon="6.84287">
        <ele>944</ele>
        <time>2020-06-05T10:19:11.000Z</time>
      </trkpt>
      <trkpt lat="44.04509" lon="6.84287">
        <ele>944</ele>
        <time>2020-06-05T10:19:12.000Z</time>
      </trkpt>
      <trkpt lat="44.04508" lon="6.84288">
        <ele>944</ele>
        <time>2020-06-05T10:19:13.000Z</time>
      </trkpt>
      <trkpt lat="44.04508" lon="6.84289">
        <ele>944</ele>
        <time>2020-06-05T10:19:14.000Z</time>
      </trkpt>
      <trkpt lat="44.04507" lon="6.8429">
        <ele>944</ele>
        <time>2020-06-05T10:19:15.000Z</time>
      </trkpt>
      <trkpt lat="44.04507" lon="6.84291">
        <ele>944</ele>
        <time>2020-06-05T10:19:16.000Z</time>
      </trkpt>
      <trkpt lat="44.04506" lon="6.84291">
        <ele>944</ele>
        <time>2020-06-05T10:19:17.000Z</time>
      </trkpt>
      <trkpt lat="44.04505" lon="6.84292">
        <ele>944</ele>
        <time>2020-06-05T10:19:18.000Z</time>
      </trkpt>
      <trkpt lat="44.04505" lon="6.84293">
        <ele>944</ele>
        <time>2020-06-05T10:19:19.000Z</time>
      </trkpt>
      <trkpt lat="44.04504" lon="6.84294">
        <ele>944</ele>
        <time>2020-06-05T10:19:20.000Z</time>
      </trkpt>
      <trkpt lat="44.04504" lon="6.84295">
        <ele>944</ele>
        <time>2020-06-05T10:19:21.000Z</time>
      </trkpt>
      <trkpt lat="44.04503" lon="6.84296">
        <ele>944</ele>
        <time>2020-06-05T10:19:22.000Z</time>
      </trkpt>
      <trkpt lat="44.04503" lon="6.84296">
        <ele>944</ele>
        <time>2020-06-05T10:19:23.000Z</time>
      </trkpt>
      <trkpt lat="44.04502" lon="6.84297">
        <ele>944</ele>
        <time>2020-06-05T10:19:24.000Z</time>
      </trkpt>
      <trkpt lat="44.04501" lon="6.84297">
        <ele>944</ele>
        <time>2020-06-05T10:19:25.000Z</time>
      </trkpt>
      <trkpt lat="44.04501" lon="6.84298">
        <ele>944</ele>
        <time>2020-06-05T10:19:26.000Z</time>
      </trkpt>
      <trkpt lat="44.045" lon="6.84299">
        <ele>944</ele>
        <time>2020-06-05T10:19:27.000Z</time>
      </trkpt>
      <trkpt lat="44.045" lon="6.843">
        <ele>943</ele>
        <time>2020-06-05T10:19:28.000Z</time>
      </trkpt>
      <trkpt lat="44.04499" lon="6.84301">
        <ele>943</ele>
        <time>2020-06-05T10:19:29.000Z</time>
      </trkpt>
      <trkpt lat="44.04499" lon="6.84302">
        <ele>943</ele>
        <time>2020-06-05T10:19:30.000Z</time>
      </trkpt>
      <trkpt lat="44.04499" lon="6.84304">
        <ele>943</ele>
        <time>2020-06-05T10:19:31.000Z</time>
      </trkpt>
      <trkpt lat="44.04498" lon="6.84306">
        <ele>943</ele>
        <time>2020-06-05T10:19:32.000Z</time>
      </trkpt>
      <trkpt lat="44.04498" lon="6.84307">
        <ele>943</ele>
        <time>2020-06-05T10:19:33.000Z</time>
      </trkpt>
      <trkpt lat="44.04498" lon="6.84308">
        <ele>943</ele>
        <time>2020-06-05T10:19:34.000Z</time>
      </trkpt>
      <trkpt lat="44.04498" lon="6.8431">
        <ele>943</ele>
        <time>2020-06-05T10:19:35.000Z</time>
      </trkpt>
      <trkpt lat="44.04498" lon="6.84311">
        <ele>943</ele>
        <time>2020-06-05T10:19:36.000Z</time>
      </trkpt>
      <trkpt lat="44.04498" lon="6.84312">
        <ele>943</ele>
        <time>2020-06-05T10:19:37.000Z</time>
      </trkpt>
      <trkpt lat="44.04498" lon="6.84314">
        <ele>943</ele>
        <time>2020-06-05T10:19:38.000Z</time>
      </trkpt>
      <trkpt lat="44.04498" lon="6.84315">
        <ele>943</ele>
        <time>2020-06-05T10:19:39.000Z</time>
      </trkpt>
      <trkpt lat="44.04498" lon="6.84315">
        <ele>943</ele>
        <time>2020-06-05T10:19:40.000Z</time>
      </trkpt>
      <trkpt lat="44.04498" lon="6.84315">
        <ele>943</ele>
        <time>2020-06-05T10:19:41.000Z</time>
      </trkpt>
      <trkpt lat="44.04498" lon="6.84316">
        <ele>942</ele>
        <time>2020-06-05T10:19:42.000Z</time>
      </trkpt>
      <trkpt lat="44.04498" lon="6.84317">
        <ele>942</ele>
        <time>2020-06-05T10:19:43.000Z</time>
      </trkpt>
      <trkpt lat="44.04497" lon="6.84318">
        <ele>942</ele>
        <time>2020-06-05T10:19:44.000Z</time>
      </trkpt>
      <trkpt lat="44.04497" lon="6.84319">
        <ele>942</ele>
        <time>2020-06-05T10:19:45.000Z</time>
      </trkpt>
      <trkpt lat="44.04496" lon="6.8432">
        <ele>942</ele>
        <time>2020-06-05T10:19:46.000Z</time>
      </trkpt>
      <trkpt lat="44.04496" lon="6.84321">
        <ele>942</ele>
        <time>2020-06-05T10:19:47.000Z</time>
      </trkpt>
      <trkpt lat="44.04495" lon="6.84321">
        <ele>942</ele>
        <time>2020-06-05T10:19:48.000Z</time>
      </trkpt>
      <trkpt lat="44.04495" lon="6.84322">
        <ele>942</ele>
        <time>2020-06-05T10:19:49.000Z</time>
      </trkpt>
      <trkpt lat="44.04495" lon="6.84322">
        <ele>942</ele>
        <time>2020-06-05T10:19:50.000Z</time>
      </trkpt>
      <trkpt lat="44.04495" lon="6.84323">
        <ele>942</ele>
        <time>2020-06-05T10:19:51.000Z</time>
      </trkpt>
      <trkpt lat="44.04495" lon="6.84324">
        <ele>942</ele>
        <time>2020-06-05T10:19:52.000Z</time>
      </trkpt>
      <trkpt lat="44.04495" lon="6.84324">
        <ele>943</ele>
        <time>2020-06-05T10:19:53.000Z</time>
      </trkpt>
      <trkpt lat="44.04496" lon="6.84325">
        <ele>943</ele>
        <time>2020-06-05T10:19:54.000Z</time>
      </trkpt>
      <trkpt lat="44.04496" lon="6.84326">
        <ele>943</ele>
        <time>2020-06-05T10:19:55.000Z</time>
      </trkpt>
      <trkpt lat="44.04497" lon="6.84327">
        <ele>943</ele>
        <time>2020-06-05T10:19:56.000Z</time>
      </trkpt>
      <trkpt lat="44.04497" lon="6.84328">
        <ele>943</ele>
        <time>2020-06-05T10:19:57.000Z</time>
      </trkpt>
      <trkpt lat="44.04497" lon="6.84328">
        <ele>943</ele>
        <time>2020-06-05T10:19:58.000Z</time>
      </trkpt>
      <trkpt lat="44.04498" lon="6.84328">
        <ele>943</ele>
        <time>2020-06-05T10:19:59.000Z</time>
      </trkpt>
      <trkpt lat="44.04499" lon="6.84329">
        <ele>943</ele>
        <time>2020-06-05T10:20:00.000Z</time>
      </trkpt>
      <trkpt lat="44.04499" lon="6.84329">
        <ele>943</ele>
        <time>2020-06-05T10:20:01.000Z</time>
      </trkpt>
      <trkpt lat="44.045" lon="6.84329">
        <ele>943</ele>
        <time>2020-06-05T10:20:02.000Z</time>
      </trkpt>
      <trkpt lat="44.045" lon="6.84329">
        <ele>943</ele>
        <time>2020-06-05T10:20:03.000Z</time>
      </trkpt>
      <trkpt lat="44.045" lon="6.84329">
        <ele>943</ele>
        <time>2020-06-05T10:20:04.000Z</time>
      </trkpt>
      <trkpt lat="44.045" lon="6.84329">
        <ele>943</ele>
        <time>2020-06-05T10:20:05.000Z</time>
      </trkpt>
      <trkpt lat="44.04501" lon="6.84329">
        <ele>943</ele>
        <time>2020-06-05T10:20:06.000Z</time>
      </trkpt>
      <trkpt lat="44.04501" lon="6.84329">
        <ele>943</ele>
        <time>2020-06-05T10:20:07.000Z</time>
      </trkpt>
      <trkpt lat="44.04501" lon="6.84329">
        <ele>943</ele>
        <time>2020-06-05T10:20:08.000Z</time>
      </trkpt>
      <trkpt lat="44.04501" lon="6.84329">
        <ele>943</ele>
        <time>2020-06-05T10:20:09.000Z</time>
      </trkpt>
      <trkpt lat="44.04501" lon="6.84329">
        <ele>943</ele>
        <time>2020-06-05T10:20:10.000Z</time>
      </trkpt>
      <trkpt lat="44.04501" lon="6.84329">
        <ele>943</ele>
        <time>2020-06-05T10:20:11.000Z</time>
      </trkpt>
      <trkpt lat="44.04501" lon="6.84329">
        <ele>943</ele>
        <time>2020-06-05T10:20:12.000Z</time>
      </trkpt>
      <trkpt lat="44.04501" lon="6.84329">
        <ele>943</ele>
        <time>2020-06-05T10:20:13.000Z</time>
      </trkpt>
      <trkpt lat="44.04501" lon="6.84329">
        <ele>943</ele>
        <time>2020-06-05T10:20:14.000Z</time>
      </trkpt>
      <trkpt lat="44.04502" lon="6.8433">
        <ele>943</ele>
        <time>2020-06-05T10:20:15.000Z</time>
      </trkpt>
      <trkpt lat="44.04502" lon="6.84331">
        <ele>943</ele>
        <time>2020-06-05T10:20:16.000Z</time>
      </trkpt>
      <trkpt lat="44.04502" lon="6.84331">
        <ele>943</ele>
        <time>2020-06-05T10:20:17.000Z</time>
      </trkpt>
      <trkpt lat="44.04502" lon="6.84331">
        <ele>943</ele>
        <time>2020-06-05T10:20:18.000Z</time>
      </trkpt>
      <trkpt lat="44.04502" lon="6.84331">
        <ele>943</ele>
        <time>2020-06-05T10:20:19.000Z</time>
      </trkpt>
      <trkpt lat="44.04502" lon="6.84331">
        <ele>943</ele>
        <time>2020-06-05T10:20:20.000Z</time>
      </trkpt>
      <trkpt lat="44.04502" lon="6.84331">
        <ele>943</ele>
        <time>2020-06-05T10:20:21.000Z</time>
      </trkpt>
      <trkpt lat="44.04502" lon="6.84331">
        <ele>943</ele>
        <time>2020-06-05T10:20:22.000Z</time>
      </trkpt>
      <trkpt lat="44.04502" lon="6.84331">
        <ele>943</ele>
        <time>2020-06-05T10:20:23.000Z</time>
      </trkpt>
      <trkpt lat="44.04502" lon="6.84331">
        <ele>943</ele>
        <time>2020-06-05T10:20:24.000Z</time>
      </trkpt>
      <trkpt lat="44.04502" lon="6.84331">
        <ele>943</ele>
        <time>2020-06-05T10:20:25.000Z</time>
      </trkpt>
      <trkpt lat="44.04502" lon="6.84331">
        <ele>943</ele>
        <time>2020-06-05T10:20:26.000Z</time>
      </trkpt>
      <trkpt lat="44.04502" lon="6.84331">
        <ele>943</ele>
        <time>2020-06-05T10:20:27.000Z</time>
      </trkpt>
      <trkpt lat="44.04502" lon="6.84331">
        <ele>943</ele>
        <time>2020-06-05T10:20:28.000Z</time>
      </trkpt>
      <trkpt lat="44.04502" lon="6.84331">
        <ele>943</ele>
        <time>2020-06-05T10:20:29.000Z</time>
      </trkpt>
      <trkpt lat="44.04502" lon="6.84331">
        <ele>943</ele>
        <time>2020-06-05T10:20:30.000Z</time>
      </trkpt>
      <trkpt lat="44.04502" lon="6.84331">
        <ele>943</ele>
        <time>2020-06-05T10:20:31.000Z</time>
      </trkpt>
      <trkpt lat="44.04502" lon="6.84331">
        <ele>943</ele>
        <time>2020-06-05T10:20:32.000Z</time>
      </trkpt>
      <trkpt lat="44.04502" lon="6.84331">
        <ele>943</ele>
        <time>2020-06-05T10:20:33.000Z</time>
      </trkpt>
      <trkpt lat="44.04502" lon="6.84332">
        <ele>943</ele>
        <time>2020-06-05T10:20:34.000Z</time>
      </trkpt>
      <trkpt lat="44.04502" lon="6.84332">
        <ele>943</ele>
        <time>2020-06-05T10:20:35.000Z</time>
      </trkpt>
      <trkpt lat="44.04502" lon="6.84332">
        <ele>943</ele>
        <time>2020-06-05T10:20:36.000Z</time>
      </trkpt>
      <trkpt lat="44.04502" lon="6.84331">
        <ele>943</ele>
        <time>2020-06-05T10:20:37.000Z</time>
      </trkpt>
      <trkpt lat="44.04502" lon="6.84331">
        <ele>943</ele>
        <time>2020-06-05T10:20:38.000Z</time>
      </trkpt>
      <trkpt lat="44.04502" lon="6.84331">
        <ele>943</ele>
        <time>2020-06-05T10:20:39.000Z</time>
      </trkpt>
      <trkpt lat="44.04502" lon="6.84331">
        <ele>943</ele>
        <time>2020-06-05T10:20:40.000Z</time>
      </trkpt>
      <trkpt lat="44.04502" lon="6.84331">
        <ele>943</ele>
        <time>2020-06-05T10:20:41.000Z</time>
      </trkpt>
      <trkpt lat="44.04502" lon="6.84331">
        <ele>943</ele>
        <time>2020-06-05T10:20:42.000Z</time>
      </trkpt>
      <trkpt lat="44.04503" lon="6.84331">
        <ele>943</ele>
        <time>2020-06-05T10:20:43.000Z</time>
      </trkpt>
      <trkpt lat="44.04503" lon="6.84331">
        <ele>943</ele>
        <time>2020-06-05T10:20:44.000Z</time>
      </trkpt>
      <trkpt lat="44.04503" lon="6.84331">
        <ele>943</ele>
        <time>2020-06-05T10:20:45.000Z</time>
      </trkpt>
      <trkpt lat="44.04503" lon="6.84331">
        <ele>943</ele>
        <time>2020-06-05T10:20:46.000Z</time>
      </trkpt>
      <trkpt lat="44.04503" lon="6.84331">
        <ele>943</ele>
        <time>2020-06-05T10:20:47.000Z</time>
      </trkpt>
      <trkpt lat="44.04503" lon="6.84331">
        <ele>943</ele>
        <time>2020-06-05T10:20:48.000Z</time>
      </trkpt>
      <trkpt lat="44.04503" lon="6.84331">
        <ele>943</ele>
        <time>2020-06-05T10:20:49.000Z</time>
      </trkpt>
      <trkpt lat="44.04503" lon="6.84331">
        <ele>943</ele>
        <time>2020-06-05T10:20:50.000Z</time>
      </trkpt>
      <trkpt lat="44.04503" lon="6.84331">
        <ele>943</ele>
        <time>2020-06-05T10:20:51.000Z</time>
      </trkpt>
      <trkpt lat="44.04503" lon="6.84331">
        <ele>943</ele>
        <time>2020-06-05T10:20:52.000Z</time>
      </trkpt>
      <trkpt lat="44.04503" lon="6.84331">
        <ele>943</ele>
        <time>2020-06-05T10:20:53.000Z</time>
      </trkpt>
      <trkpt lat="44.04503" lon="6.84331">
        <ele>943</ele>
        <time>2020-06-05T10:20:54.000Z</time>
      </trkpt>
      <trkpt lat="44.04503" lon="6.84331">
        <ele>943</ele>
        <time>2020-06-05T10:20:55.000Z</time>
      </trkpt>
      <trkpt lat="44.04503" lon="6.84331">
        <ele>943</ele>
        <time>2020-06-05T10:20:56.000Z</time>
      </trkpt>
      <trkpt lat="44.04503" lon="6.84331">
        <ele>943</ele>
        <time>2020-06-05T10:20:57.000Z</time>
      </trkpt>
      <trkpt lat="44.04503" lon="6.84331">
        <ele>943</ele>
        <time>2020-06-05T10:20:58.000Z</time>
      </trkpt>
      <trkpt lat="44.04503" lon="6.84331">
        <ele>943</ele>
        <time>2020-06-05T10:20:59.000Z</time>
      </trkpt>
      <trkpt lat="44.04503" lon="6.84331">
        <ele>943</ele>
        <time>2020-06-05T10:21:00.000Z</time>
      </trkpt>
      <trkpt lat="44.04503" lon="6.84331">
        <ele>943</ele>
        <time>2020-06-05T10:21:01.000Z</time>
      </trkpt>
      <trkpt lat="44.04503" lon="6.84331">
        <ele>943</ele>
        <time>2020-06-05T10:21:02.000Z</time>
      </trkpt>
      <trkpt lat="44.04503" lon="6.84331">
        <ele>944</ele>
        <time>2020-06-05T10:21:03.000Z</time>
      </trkpt>
      <trkpt lat="44.04503" lon="6.84331">
        <ele>944</ele>
        <time>2020-06-05T10:21:04.000Z</time>
      </trkpt>
      <trkpt lat="44.04503" lon="6.84331">
        <ele>944</ele>
        <time>2020-06-05T10:21:05.000Z</time>
      </trkpt>
      <trkpt lat="44.04503" lon="6.84331">
        <ele>944</ele>
        <time>2020-06-05T10:21:06.000Z</time>
      </trkpt>
      <trkpt lat="44.04503" lon="6.84331">
        <ele>944</ele>
        <time>2020-06-05T10:21:07.000Z</time>
      </trkpt>
      <trkpt lat="44.04503" lon="6.84331">
        <ele>944</ele>
        <time>2020-06-05T10:21:08.000Z</time>
      </trkpt>
      <trkpt lat="44.04503" lon="6.84331">
        <ele>944</ele>
        <time>2020-06-05T10:21:09.000Z</time>
      </trkpt>
      <trkpt lat="44.04503" lon="6.84331">
        <ele>944</ele>
        <time>2020-06-05T10:21:10.000Z</time>
      </trkpt>
      <trkpt lat="44.04503" lon="6.84331">
        <ele>944</ele>
        <time>2020-06-05T10:21:11.000Z</time>
      </trkpt>
      <trkpt lat="44.04503" lon="6.84331">
        <ele>944</ele>
        <time>2020-06-05T10:21:12.000Z</time>
      </trkpt>
      <trkpt lat="44.04503" lon="6.84331">
        <ele>944</ele>
        <time>2020-06-05T10:21:13.000Z</time>
      </trkpt>
      <trkpt lat="44.04503" lon="6.84331">
        <ele>944</ele>
        <time>2020-06-05T10:21:14.000Z</time>
      </trkpt>
      <trkpt lat="44.04503" lon="6.84331">
        <ele>944</ele>
        <time>2020-06-05T10:21:15.000Z</time>
      </trkpt>
      <trkpt lat="44.04503" lon="6.84331">
        <ele>944</ele>
        <time>2020-06-05T10:21:16.000Z</time>
      </trkpt>
      <trkpt lat="44.04503" lon="6.84331">
        <ele>944</ele>
        <time>2020-06-05T10:21:17.000Z</time>
      </trkpt>
      <trkpt lat="44.04503" lon="6.84331">
        <ele>944</ele>
        <time>2020-06-05T10:21:18.000Z</time>
      </trkpt>
      <trkpt lat="44.04503" lon="6.84331">
        <ele>944</ele>
        <time>2020-06-05T10:21:19.000Z</time>
      </trkpt>
      <trkpt lat="44.04503" lon="6.84331">
        <ele>944</ele>
        <time>2020-06-05T10:21:20.000Z</time>
      </trkpt>
      <trkpt lat="44.04503" lon="6.84331">
        <ele>944</ele>
        <time>2020-06-05T10:21:21.000Z</time>
      </trkpt>
      <trkpt lat="44.04503" lon="6.84331">
        <ele>944</ele>
        <time>2020-06-05T10:21:22.000Z</time>
      </trkpt>
      <trkpt lat="44.04503" lon="6.84331">
        <ele>944</ele>
        <time>2020-06-05T10:21:23.000Z</time>
      </trkpt>
      <trkpt lat="44.04503" lon="6.84331">
        <ele>944</ele>
        <time>2020-06-05T10:21:24.000Z</time>
      </trkpt>
      <trkpt lat="44.04503" lon="6.84331">
        <ele>944</ele>
        <time>2020-06-05T10:21:25.000Z</time>
      </trkpt>
      <trkpt lat="44.04503" lon="6.84331">
        <ele>944</ele>
        <time>2020-06-05T10:21:26.000Z</time>
      </trkpt>
      <trkpt lat="44.04502" lon="6.84331">
        <ele>944</ele>
        <time>2020-06-05T10:21:27.000Z</time>
      </trkpt>
      <trkpt lat="44.04502" lon="6.84331">
        <ele>944</ele>
        <time>2020-06-05T10:21:28.000Z</time>
      </trkpt>
      <trkpt lat="44.04502" lon="6.84331">
        <ele>944</ele>
        <time>2020-06-05T10:21:29.000Z</time>
      </trkpt>
      <trkpt lat="44.04502" lon="6.84331">
        <ele>944</ele>
        <time>2020-06-05T10:21:30.000Z</time>
      </trkpt>
      <trkpt lat="44.04502" lon="6.84331">
        <ele>944</ele>
        <time>2020-06-05T10:21:31.000Z</time>
      </trkpt>
      <trkpt lat="44.04502" lon="6.84331">
        <ele>944</ele>
        <time>2020-06-05T10:21:32.000Z</time>
      </trkpt>
      <trkpt lat="44.04502" lon="6.84331">
        <ele>944</ele>
        <time>2020-06-05T10:21:33.000Z</time>
      </trkpt>
      <trkpt lat="44.04502" lon="6.84331">
        <ele>944</ele>
        <time>2020-06-05T10:21:34.000Z</time>
      </trkpt>
      <trkpt lat="44.04502" lon="6.84331">
        <ele>944</ele>
        <time>2020-06-05T10:21:35.000Z</time>
      </trkpt>
      <trkpt lat="44.04502" lon="6.84331">
        <ele>944</ele>
        <time>2020-06-05T10:21:36.000Z</time>
      </trkpt>
      <trkpt lat="44.04502" lon="6.84331">
        <ele>944</ele>
        <time>2020-06-05T10:21:37.000Z</time>
      </trkpt>
      <trkpt lat="44.04502" lon="6.84331">
        <ele>944</ele>
        <time>2020-06-05T10:21:38.000Z</time>
      </trkpt>
      <trkpt lat="44.04502" lon="6.84331">
        <ele>944</ele>
        <time>2020-06-05T10:21:39.000Z</time>
      </trkpt>
      <trkpt lat="44.04502" lon="6.84331">
        <ele>944</ele>
        <time>2020-06-05T10:21:40.000Z</time>
      </trkpt>
      <trkpt lat="44.04502" lon="6.84331">
        <ele>944</ele>
        <time>2020-06-05T10:21:41.000Z</time>
      </trkpt>
      <trkpt lat="44.04502" lon="6.84331">
        <ele>944</ele>
        <time>2020-06-05T10:21:42.000Z</time>
      </trkpt>
      <trkpt lat="44.04502" lon="6.84331">
        <ele>944</ele>
        <time>2020-06-05T10:21:43.000Z</time>
      </trkpt>
      <trkpt lat="44.04502" lon="6.84331">
        <ele>944</ele>
        <time>2020-06-05T10:21:44.000Z</time>
      </trkpt>
      <trkpt lat="44.04502" lon="6.84331">
        <ele>944</ele>
        <time>2020-06-05T10:21:45.000Z</time>
      </trkpt>
      <trkpt lat="44.04502" lon="6.84331">
        <ele>944</ele>
        <time>2020-06-05T10:21:46.000Z</time>
      </trkpt>
      <trkpt lat="44.04502" lon="6.84331">
        <ele>944</ele>
        <time>2020-06-05T10:21:47.000Z</time>
      </trkpt>
      <trkpt lat="44.04502" lon="6.84331">
        <ele>944</ele>
        <time>2020-06-05T10:21:48.000Z</time>
      </trkpt>
      <trkpt lat="44.04502" lon="6.84331">
        <ele>944</ele>
        <time>2020-06-05T10:21:49.000Z</time>
      </trkpt>
      <trkpt lat="44.04502" lon="6.84331">
        <ele>944</ele>
        <time>2020-06-05T10:21:50.000Z</time>
      </trkpt>
      <trkpt lat="44.04502" lon="6.84331">
        <ele>944</ele>
        <time>2020-06-05T10:21:51.000Z</time>
      </trkpt>
      <trkpt lat="44.04502" lon="6.84331">
        <ele>944</ele>
        <time>2020-06-05T10:21:52.000Z</time>
      </trkpt>
      <trkpt lat="44.04502" lon="6.84331">
        <ele>944</ele>
        <time>2020-06-05T10:21:53.000Z</time>
      </trkpt>
      <trkpt lat="44.04502" lon="6.84331">
        <ele>944</ele>
        <time>2020-06-05T10:21:54.000Z</time>
      </trkpt>
      <trkpt lat="44.04502" lon="6.84331">
        <ele>944</ele>
        <time>2020-06-05T10:21:55.000Z</time>
      </trkpt>
      <trkpt lat="44.04502" lon="6.84331">
        <ele>944</ele>
        <time>2020-06-05T10:21:56.000Z</time>
      </trkpt>
      <trkpt lat="44.04502" lon="6.84331">
        <ele>944</ele>
        <time>2020-06-05T10:21:57.000Z</time>
      </trkpt>
      <trkpt lat="44.04503" lon="6.84331">
        <ele>944</ele>
        <time>2020-06-05T10:21:58.000Z</time>
      </trkpt>
      <trkpt lat="44.04503" lon="6.84331">
        <ele>944</ele>
        <time>2020-06-05T10:21:59.000Z</time>
      </trkpt>
      <trkpt lat="44.04503" lon="6.84331">
        <ele>944</ele>
        <time>2020-06-05T10:22:00.000Z</time>
      </trkpt>
      <trkpt lat="44.04503" lon="6.84331">
        <ele>944</ele>
        <time>2020-06-05T10:22:01.000Z</time>
      </trkpt>
      <trkpt lat="44.04503" lon="6.84331">
        <ele>944</ele>
        <time>2020-06-05T10:22:02.000Z</time>
      </trkpt>
      <trkpt lat="44.04503" lon="6.84331">
        <ele>944</ele>
        <time>2020-06-05T10:22:03.000Z</time>
      </trkpt>
      <trkpt lat="44.04503" lon="6.84331">
        <ele>944</ele>
        <time>2020-06-05T10:22:04.000Z</time>
      </trkpt>
      <trkpt lat="44.04503" lon="6.84331">
        <ele>944</ele>
        <time>2020-06-05T10:22:05.000Z</time>
      </trkpt>
      <trkpt lat="44.04503" lon="6.84331">
        <ele>944</ele>
        <time>2020-06-05T10:22:06.000Z</time>
      </trkpt>
      <trkpt lat="44.04503" lon="6.84331">
        <ele>944</ele>
        <time>2020-06-05T10:22:07.000Z</time>
      </trkpt>
      <trkpt lat="44.04503" lon="6.84331">
        <ele>944</ele>
        <time>2020-06-05T10:22:08.000Z</time>
      </trkpt>
      <trkpt lat="44.04503" lon="6.84331">
        <ele>944</ele>
        <time>2020-06-05T10:22:09.000Z</time>
      </trkpt>
      <trkpt lat="44.04503" lon="6.84331">
        <ele>944</ele>
        <time>2020-06-05T10:22:10.000Z</time>
      </trkpt>
      <trkpt lat="44.04503" lon="6.84331">
        <ele>944</ele>
        <time>2020-06-05T10:22:11.000Z</time>
      </trkpt>
      <trkpt lat="44.04503" lon="6.84331">
        <ele>944</ele>
        <time>2020-06-05T10:22:12.000Z</time>
      </trkpt>
      <trkpt lat="44.04503" lon="6.84331">
        <ele>944</ele>
        <time>2020-06-05T10:22:13.000Z</time>
      </trkpt>
      <trkpt lat="44.04503" lon="6.84331">
        <ele>943</ele>
        <time>2020-06-05T10:22:14.000Z</time>
      </trkpt>
      <trkpt lat="44.04503" lon="6.84332">
        <ele>943</ele>
        <time>2020-06-05T10:22:15.000Z</time>
      </trkpt>
      <trkpt lat="44.04503" lon="6.84332">
        <ele>943</ele>
        <time>2020-06-05T10:22:16.000Z</time>
      </trkpt>
      <trkpt lat="44.04503" lon="6.84332">
        <ele>943</ele>
        <time>2020-06-05T10:22:17.000Z</time>
      </trkpt>
      <trkpt lat="44.04503" lon="6.84332">
        <ele>943</ele>
        <time>2020-06-05T10:22:18.000Z</time>
      </trkpt>
      <trkpt lat="44.04503" lon="6.84332">
        <ele>943</ele>
        <time>2020-06-05T10:22:19.000Z</time>
      </trkpt>
      <trkpt lat="44.04503" lon="6.84332">
        <ele>943</ele>
        <time>2020-06-05T10:22:20.000Z</time>
      </trkpt>
      <trkpt lat="44.04503" lon="6.84332">
        <ele>943</ele>
        <time>2020-06-05T10:22:21.000Z</time>
      </trkpt>
      <trkpt lat="44.04503" lon="6.84332">
        <ele>943</ele>
        <time>2020-06-05T10:22:22.000Z</time>
      </trkpt>
      <trkpt lat="44.04503" lon="6.84332">
        <ele>943</ele>
        <time>2020-06-05T10:22:23.000Z</time>
      </trkpt>
      <trkpt lat="44.04503" lon="6.84332">
        <ele>943</ele>
        <time>2020-06-05T10:22:24.000Z</time>
      </trkpt>
      <trkpt lat="44.04503" lon="6.84332">
        <ele>943</ele>
        <time>2020-06-05T10:22:25.000Z</time>
      </trkpt>
      <trkpt lat="44.04503" lon="6.84332">
        <ele>943</ele>
        <time>2020-06-05T10:22:26.000Z</time>
      </trkpt>
      <trkpt lat="44.04503" lon="6.84332">
        <ele>943</ele>
        <time>2020-06-05T10:22:27.000Z</time>
      </trkpt>
      <trkpt lat="44.04503" lon="6.84332">
        <ele>943</ele>
        <time>2020-06-05T10:22:28.000Z</time>
      </trkpt>
      <trkpt lat="44.04503" lon="6.84332">
        <ele>943</ele>
        <time>2020-06-05T10:22:29.000Z</time>
      </trkpt>
      <trkpt lat="44.04503" lon="6.84332">
        <ele>943</ele>
        <time>2020-06-05T10:22:30.000Z</time>
      </trkpt>
      <trkpt lat="44.04503" lon="6.84332">
        <ele>943</ele>
        <time>2020-06-05T10:22:31.000Z</time>
      </trkpt>
      <trkpt lat="44.04503" lon="6.84332">
        <ele>943</ele>
        <time>2020-06-05T10:22:32.000Z</time>
      </trkpt>
      <trkpt lat="44.04503" lon="6.84332">
        <ele>943</ele>
        <time>2020-06-05T10:22:33.000Z</time>
      </trkpt>
      <trkpt lat="44.04503" lon="6.84332">
        <ele>943</ele>
        <time>2020-06-05T10:22:34.000Z</time>
      </trkpt>
      <trkpt lat="44.04503" lon="6.84332">
        <ele>943</ele>
        <time>2020-06-05T10:22:35.000Z</time>
      </trkpt>
      <trkpt lat="44.04503" lon="6.84332">
        <ele>944</ele>
        <time>2020-06-05T10:22:36.000Z</time>
      </trkpt>
      <trkpt lat="44.04504" lon="6.84332">
        <ele>944</ele>
        <time>2020-06-05T10:22:37.000Z</time>
      </trkpt>
      <trkpt lat="44.04504" lon="6.84332">
        <ele>944</ele>
        <time>2020-06-05T10:22:38.000Z</time>
      </trkpt>
      <trkpt lat="44.04504" lon="6.84332">
        <ele>944</ele>
        <time>2020-06-05T10:22:39.000Z</time>
      </trkpt>
      <trkpt lat="44.04504" lon="6.84332">
        <ele>944</ele>
        <time>2020-06-05T10:22:40.000Z</time>
      </trkpt>
      <trkpt lat="44.04504" lon="6.84332">
        <ele>944</ele>
        <time>2020-06-05T10:22:41.000Z</time>
      </trkpt>
      <trkpt lat="44.04504" lon="6.84332">
        <ele>944</ele>
        <time>2020-06-05T10:22:42.000Z</time>
      </trkpt>
      <trkpt lat="44.04504" lon="6.84332">
        <ele>944</ele>
        <time>2020-06-05T10:22:43.000Z</time>
      </trkpt>
      <trkpt lat="44.04505" lon="6.84332">
        <ele>944</ele>
        <time>2020-06-05T10:22:44.000Z</time>
      </trkpt>
      <trkpt lat="44.04505" lon="6.84332">
        <ele>944</ele>
        <time>2020-06-05T10:22:45.000Z</time>
      </trkpt>
      <trkpt lat="44.04505" lon="6.84332">
        <ele>944</ele>
        <time>2020-06-05T10:22:46.000Z</time>
      </trkpt>
      <trkpt lat="44.04505" lon="6.84332">
        <ele>944</ele>
        <time>2020-06-05T10:22:47.000Z</time>
      </trkpt>
      <trkpt lat="44.04505" lon="6.84332">
        <ele>944</ele>
        <time>2020-06-05T10:22:48.000Z</time>
      </trkpt>
      <trkpt lat="44.04505" lon="6.84332">
        <ele>944</ele>
        <time>2020-06-05T10:22:49.000Z</time>
      </trkpt>
      <trkpt lat="44.04505" lon="6.84331">
        <ele>944</ele>
        <time>2020-06-05T10:22:50.000Z</time>
      </trkpt>
      <trkpt lat="44.04505" lon="6.84331">
        <ele>944</ele>
        <time>2020-06-05T10:22:51.000Z</time>
      </trkpt>
      <trkpt lat="44.04505" lon="6.84331">
        <ele>944</ele>
        <time>2020-06-05T10:22:52.000Z</time>
      </trkpt>
      <trkpt lat="44.04505" lon="6.84331">
        <ele>944</ele>
        <time>2020-06-05T10:22:53.000Z</time>
      </trkpt>
      <trkpt lat="44.04505" lon="6.84331">
        <ele>944</ele>
        <time>2020-06-05T10:22:54.000Z</time>
      </trkpt>
      <trkpt lat="44.04505" lon="6.84331">
        <ele>944</ele>
        <time>2020-06-05T10:22:55.000Z</time>
      </trkpt>
      <trkpt lat="44.04505" lon="6.84331">
        <ele>944</ele>
        <time>2020-06-05T10:22:56.000Z</time>
      </trkpt>
      <trkpt lat="44.04505" lon="6.84331">
        <ele>944</ele>
        <time>2020-06-05T10:22:57.000Z</time>
      </trkpt>
      <trkpt lat="44.04505" lon="6.84331">
        <ele>944</ele>
        <time>2020-06-05T10:22:58.000Z</time>
      </trkpt>
      <trkpt lat="44.04505" lon="6.84331">
        <ele>944</ele>
        <time>2020-06-05T10:22:59.000Z</time>
      </trkpt>
      <trkpt lat="44.04505" lon="6.84331">
        <ele>944</ele>
        <time>2020-06-05T10:23:00.000Z</time>
      </trkpt>
      <trkpt lat="44.04505" lon="6.84331">
        <ele>944</ele>
        <time>2020-06-05T10:23:01.000Z</time>
      </trkpt>
      <trkpt lat="44.04505" lon="6.84331">
        <ele>944</ele>
        <time>2020-06-05T10:23:02.000Z</time>
      </trkpt>
      <trkpt lat="44.04505" lon="6.84331">
        <ele>944</ele>
        <time>2020-06-05T10:23:03.000Z</time>
      </trkpt>
      <trkpt lat="44.04505" lon="6.84331">
        <ele>944</ele>
        <time>2020-06-05T10:23:04.000Z</time>
      </trkpt>
      <trkpt lat="44.04505" lon="6.84331">
        <ele>944</ele>
        <time>2020-06-05T10:23:05.000Z</time>
      </trkpt>
      <trkpt lat="44.04505" lon="6.84331">
        <ele>944</ele>
        <time>2020-06-05T10:23:06.000Z</time>
      </trkpt>
      <trkpt lat="44.04505" lon="6.84331">
        <ele>944</ele>
        <time>2020-06-05T10:23:07.000Z</time>
      </trkpt>
      <trkpt lat="44.04505" lon="6.8433">
        <ele>944</ele>
        <time>2020-06-05T10:23:08.000Z</time>
      </trkpt>
      <trkpt lat="44.04505" lon="6.8433">
        <ele>945</ele>
        <time>2020-06-05T10:23:09.000Z</time>
      </trkpt>
      <trkpt lat="44.04505" lon="6.8433">
        <ele>945</ele>
        <time>2020-06-05T10:23:10.000Z</time>
      </trkpt>
      <trkpt lat="44.04505" lon="6.8433">
        <ele>945</ele>
        <time>2020-06-05T10:23:11.000Z</time>
      </trkpt>
      <trkpt lat="44.04505" lon="6.8433">
        <ele>945</ele>
        <time>2020-06-05T10:23:12.000Z</time>
      </trkpt>
      <trkpt lat="44.04505" lon="6.8433">
        <ele>945</ele>
        <time>2020-06-05T10:23:13.000Z</time>
      </trkpt>
      <trkpt lat="44.04505" lon="6.8433">
        <ele>945</ele>
        <time>2020-06-05T10:23:14.000Z</time>
      </trkpt>
      <trkpt lat="44.04505" lon="6.8433">
        <ele>945</ele>
        <time>2020-06-05T10:23:15.000Z</time>
      </trkpt>
      <trkpt lat="44.04505" lon="6.8433">
        <ele>945</ele>
        <time>2020-06-05T10:23:16.000Z</time>
      </trkpt>
      <trkpt lat="44.04505" lon="6.8433">
        <ele>945</ele>
        <time>2020-06-05T10:23:17.000Z</time>
      </trkpt>
      <trkpt lat="44.04505" lon="6.8433">
        <ele>945</ele>
        <time>2020-06-05T10:23:18.000Z</time>
      </trkpt>
      <trkpt lat="44.04505" lon="6.8433">
        <ele>945</ele>
        <time>2020-06-05T10:23:19.000Z</time>
      </trkpt>
      <trkpt lat="44.04505" lon="6.8433">
        <ele>945</ele>
        <time>2020-06-05T10:23:20.000Z</time>
      </trkpt>
      <trkpt lat="44.04505" lon="6.84331">
        <ele>945</ele>
        <time>2020-06-05T10:23:21.000Z</time>
      </trkpt>
      <trkpt lat="44.04505" lon="6.8433">
        <ele>945</ele>
        <time>2020-06-05T10:23:22.000Z</time>
      </trkpt>
      <trkpt lat="44.04505" lon="6.8433">
        <ele>945</ele>
        <time>2020-06-05T10:23:23.000Z</time>
      </trkpt>
      <trkpt lat="44.04504" lon="6.8433">
        <ele>945</ele>
        <time>2020-06-05T10:23:24.000Z</time>
      </trkpt>
      <trkpt lat="44.04504" lon="6.8433">
        <ele>945</ele>
        <time>2020-06-05T10:23:25.000Z</time>
      </trkpt>
      <trkpt lat="44.04504" lon="6.84331">
        <ele>944</ele>
        <time>2020-06-05T10:23:26.000Z</time>
      </trkpt>
      <trkpt lat="44.04504" lon="6.84331">
        <ele>944</ele>
        <time>2020-06-05T10:23:27.000Z</time>
      </trkpt>
      <trkpt lat="44.04504" lon="6.84331">
        <ele>944</ele>
        <time>2020-06-05T10:23:28.000Z</time>
      </trkpt>
      <trkpt lat="44.04504" lon="6.84331">
        <ele>944</ele>
        <time>2020-06-05T10:23:29.000Z</time>
      </trkpt>
      <trkpt lat="44.04504" lon="6.84331">
        <ele>944</ele>
        <time>2020-06-05T10:23:30.000Z</time>
      </trkpt>
      <trkpt lat="44.04504" lon="6.84331">
        <ele>944</ele>
        <time>2020-06-05T10:23:31.000Z</time>
      </trkpt>
      <trkpt lat="44.04504" lon="6.84331">
        <ele>944</ele>
        <time>2020-06-05T10:23:32.000Z</time>
      </trkpt>
      <trkpt lat="44.04504" lon="6.84331">
        <ele>944</ele>
        <time>2020-06-05T10:23:33.000Z</time>
      </trkpt>
      <trkpt lat="44.04504" lon="6.84331">
        <ele>945</ele>
        <time>2020-06-05T10:23:34.000Z</time>
      </trkpt>
      <trkpt lat="44.04504" lon="6.84331">
        <ele>945</ele>
        <time>2020-06-05T10:23:35.000Z</time>
      </trkpt>
      <trkpt lat="44.04504" lon="6.84331">
        <ele>945</ele>
        <time>2020-06-05T10:23:36.000Z</time>
      </trkpt>
      <trkpt lat="44.04504" lon="6.84331">
        <ele>945</ele>
        <time>2020-06-05T10:23:37.000Z</time>
      </trkpt>
      <trkpt lat="44.04504" lon="6.84331">
        <ele>945</ele>
        <time>2020-06-05T10:23:38.000Z</time>
      </trkpt>
      <trkpt lat="44.04504" lon="6.84331">
        <ele>945</ele>
        <time>2020-06-05T10:23:39.000Z</time>
      </trkpt>
      <trkpt lat="44.04504" lon="6.84331">
        <ele>945</ele>
        <time>2020-06-05T10:23:40.000Z</time>
      </trkpt>
      <trkpt lat="44.04504" lon="6.84331">
        <ele>945</ele>
        <time>2020-06-05T10:23:41.000Z</time>
      </trkpt>
      <trkpt lat="44.04504" lon="6.84331">
        <ele>945</ele>
        <time>2020-06-05T10:23:42.000Z</time>
      </trkpt>
      <trkpt lat="44.04504" lon="6.84331">
        <ele>945</ele>
        <time>2020-06-05T10:23:43.000Z</time>
      </trkpt>
      <trkpt lat="44.04504" lon="6.84331">
        <ele>945</ele>
        <time>2020-06-05T10:23:44.000Z</time>
      </trkpt>
      <trkpt lat="44.04504" lon="6.84331">
        <ele>945</ele>
        <time>2020-06-05T10:23:45.000Z</time>
      </trkpt>
      <trkpt lat="44.04504" lon="6.84331">
        <ele>945</ele>
        <time>2020-06-05T10:23:46.000Z</time>
      </trkpt>
      <trkpt lat="44.04504" lon="6.84331">
        <ele>945</ele>
        <time>2020-06-05T10:23:47.000Z</time>
      </trkpt>
      <trkpt lat="44.04504" lon="6.84331">
        <ele>945</ele>
        <time>2020-06-05T10:23:48.000Z</time>
      </trkpt>
      <trkpt lat="44.04504" lon="6.84331">
        <ele>945</ele>
        <time>2020-06-05T10:23:49.000Z</time>
      </trkpt>
      <trkpt lat="44.04504" lon="6.84331">
        <ele>945</ele>
        <time>2020-06-05T10:23:50.000Z</time>
      </trkpt>
      <trkpt lat="44.04504" lon="6.84331">
        <ele>945</ele>
        <time>2020-06-05T10:23:51.000Z</time>
      </trkpt>
      <trkpt lat="44.04504" lon="6.84331">
        <ele>945</ele>
        <time>2020-06-05T10:23:52.000Z</time>
      </trkpt>
      <trkpt lat="44.04504" lon="6.84331">
        <ele>945</ele>
        <time>2020-06-05T10:23:53.000Z</time>
      </trkpt>
      <trkpt lat="44.04504" lon="6.84331">
        <ele>945</ele>
        <time>2020-06-05T10:23:54.000Z</time>
      </trkpt>
      <trkpt lat="44.04504" lon="6.84331">
        <ele>945</ele>
        <time>2020-06-05T10:23:55.000Z</time>
      </trkpt>
      <trkpt lat="44.04504" lon="6.84331">
        <ele>945</ele>
        <time>2020-06-05T10:23:56.000Z</time>
      </trkpt>
      <trkpt lat="44.04504" lon="6.84331">
        <ele>945</ele>
        <time>2020-06-05T10:23:57.000Z</time>
      </trkpt>
      <trkpt lat="44.04504" lon="6.84331">
        <ele>945</ele>
        <time>2020-06-05T10:23:58.000Z</time>
      </trkpt>
      <trkpt lat="44.04504" lon="6.84331">
        <ele>945</ele>
        <time>2020-06-05T10:23:59.000Z</time>
      </trkpt>
      <trkpt lat="44.04504" lon="6.84331">
        <ele>945</ele>
        <time>2020-06-05T10:24:00.000Z</time>
      </trkpt>
      <trkpt lat="44.04504" lon="6.84331">
        <ele>945</ele>
        <time>2020-06-05T10:24:01.000Z</time>
      </trkpt>
      <trkpt lat="44.04504" lon="6.84331">
        <ele>945</ele>
        <time>2020-06-05T10:24:02.000Z</time>
      </trkpt>
      <trkpt lat="44.04504" lon="6.84331">
        <ele>945</ele>
        <time>2020-06-05T10:24:03.000Z</time>
      </trkpt>
      <trkpt lat="44.04504" lon="6.84331">
        <ele>945</ele>
        <time>2020-06-05T10:24:04.000Z</time>
      </trkpt>
      <trkpt lat="44.04504" lon="6.84331">
        <ele>945</ele>
        <time>2020-06-05T10:24:05.000Z</time>
      </trkpt>
      <trkpt lat="44.04504" lon="6.84331">
        <ele>945</ele>
        <time>2020-06-05T10:24:06.000Z</time>
      </trkpt>
      <trkpt lat="44.04504" lon="6.84331">
        <ele>945</ele>
        <time>2020-06-05T10:24:07.000Z</time>
      </trkpt>
      <trkpt lat="44.04504" lon="6.84331">
        <ele>945</ele>
        <time>2020-06-05T10:24:08.000Z</time>
      </trkpt>
      <trkpt lat="44.04504" lon="6.84331">
        <ele>945</ele>
        <time>2020-06-05T10:24:09.000Z</time>
      </trkpt>
      <trkpt lat="44.04504" lon="6.84331">
        <ele>945</ele>
        <time>2020-06-05T10:24:10.000Z</time>
      </trkpt>
      <trkpt lat="44.04504" lon="6.84331">
        <ele>945</ele>
        <time>2020-06-05T10:24:11.000Z</time>
      </trkpt>
      <trkpt lat="44.04504" lon="6.84331">
        <ele>945</ele>
        <time>2020-06-05T10:24:12.000Z</time>
      </trkpt>
      <trkpt lat="44.04504" lon="6.84331">
        <ele>945</ele>
        <time>2020-06-05T10:24:13.000Z</time>
      </trkpt>
      <trkpt lat="44.04504" lon="6.84331">
        <ele>945</ele>
        <time>2020-06-05T10:24:14.000Z</time>
      </trkpt>
      <trkpt lat="44.04504" lon="6.84331">
        <ele>945</ele>
        <time>2020-06-05T10:24:15.000Z</time>
      </trkpt>
      <trkpt lat="44.04504" lon="6.84331">
        <ele>945</ele>
        <time>2020-06-05T10:24:16.000Z</time>
      </trkpt>
      <trkpt lat="44.04504" lon="6.84331">
        <ele>945</ele>
        <time>2020-06-05T10:24:17.000Z</time>
      </trkpt>
      <trkpt lat="44.04504" lon="6.84331">
        <ele>945</ele>
        <time>2020-06-05T10:24:18.000Z</time>
      </trkpt>
      <trkpt lat="44.04504" lon="6.84331">
        <ele>945</ele>
        <time>2020-06-05T10:24:19.000Z</time>
      </trkpt>
      <trkpt lat="44.04504" lon="6.84331">
        <ele>944</ele>
        <time>2020-06-05T10:24:20.000Z</time>
      </trkpt>
      <trkpt lat="44.04504" lon="6.84331">
        <ele>944</ele>
        <time>2020-06-05T10:24:21.000Z</time>
      </trkpt>
      <trkpt lat="44.04504" lon="6.84331">
        <ele>944</ele>
        <time>2020-06-05T10:24:22.000Z</time>
      </trkpt>
      <trkpt lat="44.04504" lon="6.84331">
        <ele>944</ele>
        <time>2020-06-05T10:24:23.000Z</time>
      </trkpt>
      <trkpt lat="44.04504" lon="6.84331">
        <ele>944</ele>
        <time>2020-06-05T10:24:24.000Z</time>
      </trkpt>
      <trkpt lat="44.04504" lon="6.84331">
        <ele>944</ele>
        <time>2020-06-05T10:24:25.000Z</time>
      </trkpt>
      <trkpt lat="44.04504" lon="6.84331">
        <ele>944</ele>
        <time>2020-06-05T10:24:26.000Z</time>
      </trkpt>
      <trkpt lat="44.04504" lon="6.84331">
        <ele>944</ele>
        <time>2020-06-05T10:24:27.000Z</time>
      </trkpt>
      <trkpt lat="44.04504" lon="6.84331">
        <ele>944</ele>
        <time>2020-06-05T10:24:28.000Z</time>
      </trkpt>
      <trkpt lat="44.04504" lon="6.84331">
        <ele>944</ele>
        <time>2020-06-05T10:24:29.000Z</time>
      </trkpt>
      <trkpt lat="44.04504" lon="6.84331">
        <ele>944</ele>
        <time>2020-06-05T10:24:30.000Z</time>
      </trkpt>
      <trkpt lat="44.04504" lon="6.84331">
        <ele>944</ele>
        <time>2020-06-05T10:24:31.000Z</time>
      </trkpt>
      <trkpt lat="44.04504" lon="6.84331">
        <ele>944</ele>
        <time>2020-06-05T10:24:32.000Z</time>
      </trkpt>
      <trkpt lat="44.04504" lon="6.84331">
        <ele>944</ele>
        <time>2020-06-05T10:24:33.000Z</time>
      </trkpt>
      <trkpt lat="44.04503" lon="6.84331">
        <ele>944</ele>
        <time>2020-06-05T10:24:34.000Z</time>
      </trkpt>
      <trkpt lat="44.04503" lon="6.84331">
        <ele>944</ele>
        <time>2020-06-05T10:24:35.000Z</time>
      </trkpt>
      <trkpt lat="44.04503" lon="6.84331">
        <ele>944</ele>
        <time>2020-06-05T10:24:36.000Z</time>
      </trkpt>
      <trkpt lat="44.04502" lon="6.84331">
        <ele>944</ele>
        <time>2020-06-05T10:24:37.000Z</time>
      </trkpt>
      <trkpt lat="44.04502" lon="6.8433">
        <ele>944</ele>
        <time>2020-06-05T10:24:38.000Z</time>
      </trkpt>
      <trkpt lat="44.04502" lon="6.8433">
        <ele>944</ele>
        <time>2020-06-05T10:24:39.000Z</time>
      </trkpt>
      <trkpt lat="44.04502" lon="6.8433">
        <ele>944</ele>
        <time>2020-06-05T10:24:40.000Z</time>
      </trkpt>
      <trkpt lat="44.04502" lon="6.8433">
        <ele>944</ele>
        <time>2020-06-05T10:24:41.000Z</time>
      </trkpt>
      <trkpt lat="44.04502" lon="6.8433">
        <ele>944</ele>
        <time>2020-06-05T10:24:42.000Z</time>
      </trkpt>
      <trkpt lat="44.04502" lon="6.8433">
        <ele>944</ele>
        <time>2020-06-05T10:24:43.000Z</time>
      </trkpt>
      <trkpt lat="44.04501" lon="6.84329">
        <ele>944</ele>
        <time>2020-06-05T10:24:44.000Z</time>
      </trkpt>
      <trkpt lat="44.045" lon="6.84329">
        <ele>944</ele>
        <time>2020-06-05T10:24:45.000Z</time>
      </trkpt>
      <trkpt lat="44.04499" lon="6.84329">
        <ele>944</ele>
        <time>2020-06-05T10:24:46.000Z</time>
      </trkpt>
      <trkpt lat="44.04498" lon="6.84328">
        <ele>944</ele>
        <time>2020-06-05T10:24:47.000Z</time>
      </trkpt>
      <trkpt lat="44.04497" lon="6.84328">
        <ele>944</ele>
        <time>2020-06-05T10:24:48.000Z</time>
      </trkpt>
      <trkpt lat="44.04496" lon="6.84328">
        <ele>944</ele>
        <time>2020-06-05T10:24:49.000Z</time>
      </trkpt>
      <trkpt lat="44.04495" lon="6.84328">
        <ele>944</ele>
        <time>2020-06-05T10:24:50.000Z</time>
      </trkpt>
      <trkpt lat="44.04494" lon="6.84328">
        <ele>944</ele>
        <time>2020-06-05T10:24:51.000Z</time>
      </trkpt>
      <trkpt lat="44.04493" lon="6.84328">
        <ele>944</ele>
        <time>2020-06-05T10:24:52.000Z</time>
      </trkpt>
      <trkpt lat="44.04493" lon="6.84328">
        <ele>944</ele>
        <time>2020-06-05T10:24:53.000Z</time>
      </trkpt>
      <trkpt lat="44.04492" lon="6.84328">
        <ele>944</ele>
        <time>2020-06-05T10:24:54.000Z</time>
      </trkpt>
      <trkpt lat="44.04491" lon="6.84329">
        <ele>944</ele>
        <time>2020-06-05T10:24:55.000Z</time>
      </trkpt>
      <trkpt lat="44.0449" lon="6.8433">
        <ele>944</ele>
        <time>2020-06-05T10:24:56.000Z</time>
      </trkpt>
      <trkpt lat="44.0449" lon="6.8433">
        <ele>944</ele>
        <time>2020-06-05T10:24:57.000Z</time>
      </trkpt>
      <trkpt lat="44.04489" lon="6.84331">
        <ele>944</ele>
        <time>2020-06-05T10:24:58.000Z</time>
      </trkpt>
      <trkpt lat="44.04488" lon="6.84332">
        <ele>944</ele>
        <time>2020-06-05T10:24:59.000Z</time>
      </trkpt>
      <trkpt lat="44.04487" lon="6.84333">
        <ele>944</ele>
        <time>2020-06-05T10:25:00.000Z</time>
      </trkpt>
      <trkpt lat="44.04487" lon="6.84335">
        <ele>945</ele>
        <time>2020-06-05T10:25:01.000Z</time>
      </trkpt>
      <trkpt lat="44.04486" lon="6.84336">
        <ele>945</ele>
        <time>2020-06-05T10:25:02.000Z</time>
      </trkpt>
      <trkpt lat="44.04486" lon="6.84337">
        <ele>945</ele>
        <time>2020-06-05T10:25:03.000Z</time>
      </trkpt>
      <trkpt lat="44.04486" lon="6.84339">
        <ele>945</ele>
        <time>2020-06-05T10:25:04.000Z</time>
      </trkpt>
      <trkpt lat="44.04486" lon="6.8434">
        <ele>945</ele>
        <time>2020-06-05T10:25:05.000Z</time>
      </trkpt>
      <trkpt lat="44.04486" lon="6.84342">
        <ele>945</ele>
        <time>2020-06-05T10:25:06.000Z</time>
      </trkpt>
      <trkpt lat="44.04486" lon="6.84344">
        <ele>945</ele>
        <time>2020-06-05T10:25:07.000Z</time>
      </trkpt>
      <trkpt lat="44.04486" lon="6.84345">
        <ele>945</ele>
        <time>2020-06-05T10:25:08.000Z</time>
      </trkpt>
      <trkpt lat="44.04486" lon="6.84347">
        <ele>945</ele>
        <time>2020-06-05T10:25:09.000Z</time>
      </trkpt>
      <trkpt lat="44.04485" lon="6.84348">
        <ele>945</ele>
        <time>2020-06-05T10:25:10.000Z</time>
      </trkpt>
      <trkpt lat="44.04484" lon="6.8435">
        <ele>945</ele>
        <time>2020-06-05T10:25:11.000Z</time>
      </trkpt>
      <trkpt lat="44.04484" lon="6.84351">
        <ele>945</ele>
        <time>2020-06-05T10:25:12.000Z</time>
      </trkpt>
      <trkpt lat="44.04483" lon="6.84352">
        <ele>945</ele>
        <time>2020-06-05T10:25:13.000Z</time>
      </trkpt>
      <trkpt lat="44.04482" lon="6.84353">
        <ele>945</ele>
        <time>2020-06-05T10:25:14.000Z</time>
      </trkpt>
      <trkpt lat="44.04481" lon="6.84355">
        <ele>945</ele>
        <time>2020-06-05T10:25:15.000Z</time>
      </trkpt>
      <trkpt lat="44.04481" lon="6.84356">
        <ele>945</ele>
        <time>2020-06-05T10:25:16.000Z</time>
      </trkpt>
      <trkpt lat="44.0448" lon="6.84357">
        <ele>945</ele>
        <time>2020-06-05T10:25:17.000Z</time>
      </trkpt>
      <trkpt lat="44.0448" lon="6.84359">
        <ele>945</ele>
        <time>2020-06-05T10:25:18.000Z</time>
      </trkpt>
      <trkpt lat="44.04479" lon="6.8436">
        <ele>945</ele>
        <time>2020-06-05T10:25:19.000Z</time>
      </trkpt>
      <trkpt lat="44.04479" lon="6.84361">
        <ele>945</ele>
        <time>2020-06-05T10:25:20.000Z</time>
      </trkpt>
      <trkpt lat="44.04478" lon="6.84362">
        <ele>945</ele>
        <time>2020-06-05T10:25:21.000Z</time>
      </trkpt>
      <trkpt lat="44.04478" lon="6.84364">
        <ele>945</ele>
        <time>2020-06-05T10:25:22.000Z</time>
      </trkpt>
      <trkpt lat="44.04478" lon="6.84365">
        <ele>945</ele>
        <time>2020-06-05T10:25:23.000Z</time>
      </trkpt>
      <trkpt lat="44.04478" lon="6.84366">
        <ele>945</ele>
        <time>2020-06-05T10:25:24.000Z</time>
      </trkpt>
      <trkpt lat="44.04478" lon="6.84367">
        <ele>945</ele>
        <time>2020-06-05T10:25:25.000Z</time>
      </trkpt>
      <trkpt lat="44.04478" lon="6.84368">
        <ele>945</ele>
        <time>2020-06-05T10:25:26.000Z</time>
      </trkpt>
      <trkpt lat="44.04478" lon="6.84369">
        <ele>945</ele>
        <time>2020-06-05T10:25:27.000Z</time>
      </trkpt>
      <trkpt lat="44.04478" lon="6.8437">
        <ele>946</ele>
        <time>2020-06-05T10:25:28.000Z</time>
      </trkpt>
      <trkpt lat="44.04479" lon="6.84371">
        <ele>946</ele>
        <time>2020-06-05T10:25:29.000Z</time>
      </trkpt>
      <trkpt lat="44.04479" lon="6.84372">
        <ele>946</ele>
        <time>2020-06-05T10:25:30.000Z</time>
      </trkpt>
      <trkpt lat="44.04479" lon="6.84373">
        <ele>946</ele>
        <time>2020-06-05T10:25:31.000Z</time>
      </trkpt>
      <trkpt lat="44.0448" lon="6.84374">
        <ele>946</ele>
        <time>2020-06-05T10:25:32.000Z</time>
      </trkpt>
      <trkpt lat="44.0448" lon="6.84376">
        <ele>947</ele>
        <time>2020-06-05T10:25:33.000Z</time>
      </trkpt>
      <trkpt lat="44.0448" lon="6.84377">
        <ele>947</ele>
        <time>2020-06-05T10:25:34.000Z</time>
      </trkpt>
      <trkpt lat="44.04481" lon="6.84378">
        <ele>947</ele>
        <time>2020-06-05T10:25:35.000Z</time>
      </trkpt>
      <trkpt lat="44.04481" lon="6.84379">
        <ele>947</ele>
        <time>2020-06-05T10:25:36.000Z</time>
      </trkpt>
      <trkpt lat="44.04481" lon="6.8438">
        <ele>947</ele>
        <time>2020-06-05T10:25:37.000Z</time>
      </trkpt>
      <trkpt lat="44.04482" lon="6.84381">
        <ele>948</ele>
        <time>2020-06-05T10:25:38.000Z</time>
      </trkpt>
      <trkpt lat="44.04483" lon="6.84382">
        <ele>948</ele>
        <time>2020-06-05T10:25:39.000Z</time>
      </trkpt>
      <trkpt lat="44.04483" lon="6.84382">
        <ele>948</ele>
        <time>2020-06-05T10:25:40.000Z</time>
      </trkpt>
      <trkpt lat="44.04483" lon="6.84383">
        <ele>948</ele>
        <time>2020-06-05T10:25:41.000Z</time>
      </trkpt>
      <trkpt lat="44.04483" lon="6.84384">
        <ele>948</ele>
        <time>2020-06-05T10:25:42.000Z</time>
      </trkpt>
      <trkpt lat="44.04483" lon="6.84385">
        <ele>948</ele>
        <time>2020-06-05T10:25:43.000Z</time>
      </trkpt>
      <trkpt lat="44.04483" lon="6.84385">
        <ele>948</ele>
        <time>2020-06-05T10:25:44.000Z</time>
      </trkpt>
      <trkpt lat="44.04483" lon="6.84385">
        <ele>948</ele>
        <time>2020-06-05T10:25:45.000Z</time>
      </trkpt>
      <trkpt lat="44.04483" lon="6.84385">
        <ele>948</ele>
        <time>2020-06-05T10:25:46.000Z</time>
      </trkpt>
      <trkpt lat="44.04483" lon="6.84385">
        <ele>948</ele>
        <time>2020-06-05T10:25:47.000Z</time>
      </trkpt>
      <trkpt lat="44.04483" lon="6.84385">
        <ele>948</ele>
        <time>2020-06-05T10:25:48.000Z</time>
      </trkpt>
      <trkpt lat="44.04483" lon="6.84385">
        <ele>948</ele>
        <time>2020-06-05T10:25:49.000Z</time>
      </trkpt>
      <trkpt lat="44.04482" lon="6.84384">
        <ele>948</ele>
        <time>2020-06-05T10:25:50.000Z</time>
      </trkpt>
      <trkpt lat="44.04482" lon="6.84384">
        <ele>949</ele>
        <time>2020-06-05T10:25:51.000Z</time>
      </trkpt>
      <trkpt lat="44.04481" lon="6.84384">
        <ele>949</ele>
        <time>2020-06-05T10:25:52.000Z</time>
      </trkpt>
      <trkpt lat="44.04481" lon="6.84384">
        <ele>949</ele>
        <time>2020-06-05T10:25:53.000Z</time>
      </trkpt>
      <trkpt lat="44.04481" lon="6.84384">
        <ele>949</ele>
        <time>2020-06-05T10:25:54.000Z</time>
      </trkpt>
      <trkpt lat="44.04481" lon="6.84384">
        <ele>949</ele>
        <time>2020-06-05T10:25:55.000Z</time>
      </trkpt>
      <trkpt lat="44.04481" lon="6.84384">
        <ele>949</ele>
        <time>2020-06-05T10:25:56.000Z</time>
      </trkpt>
      <trkpt lat="44.04481" lon="6.84384">
        <ele>949</ele>
        <time>2020-06-05T10:25:57.000Z</time>
      </trkpt>
      <trkpt lat="44.04481" lon="6.84384">
        <ele>949</ele>
        <time>2020-06-05T10:25:58.000Z</time>
      </trkpt>
      <trkpt lat="44.04481" lon="6.84384">
        <ele>949</ele>
        <time>2020-06-05T10:25:59.000Z</time>
      </trkpt>
      <trkpt lat="44.04481" lon="6.84384">
        <ele>949</ele>
        <time>2020-06-05T10:26:00.000Z</time>
      </trkpt>
      <trkpt lat="44.04481" lon="6.84384">
        <ele>949</ele>
        <time>2020-06-05T10:26:01.000Z</time>
      </trkpt>
      <trkpt lat="44.04481" lon="6.84384">
        <ele>949</ele>
        <time>2020-06-05T10:26:02.000Z</time>
      </trkpt>
      <trkpt lat="44.04481" lon="6.84384">
        <ele>949</ele>
        <time>2020-06-05T10:26:03.000Z</time>
      </trkpt>
      <trkpt lat="44.04481" lon="6.84384">
        <ele>949</ele>
        <time>2020-06-05T10:26:04.000Z</time>
      </trkpt>
      <trkpt lat="44.04481" lon="6.84384">
        <ele>949</ele>
        <time>2020-06-05T10:26:05.000Z</time>
      </trkpt>
      <trkpt lat="44.04481" lon="6.84384">
        <ele>949</ele>
        <time>2020-06-05T10:26:06.000Z</time>
      </trkpt>
      <trkpt lat="44.04481" lon="6.84384">
        <ele>949</ele>
        <time>2020-06-05T10:26:07.000Z</time>
      </trkpt>
      <trkpt lat="44.04481" lon="6.84383">
        <ele>949</ele>
        <time>2020-06-05T10:26:08.000Z</time>
      </trkpt>
      <trkpt lat="44.04481" lon="6.84383">
        <ele>949</ele>
        <time>2020-06-05T10:26:09.000Z</time>
      </trkpt>
      <trkpt lat="44.04481" lon="6.84383">
        <ele>949</ele>
        <time>2020-06-05T10:26:10.000Z</time>
      </trkpt>
      <trkpt lat="44.04481" lon="6.84383">
        <ele>949</ele>
        <time>2020-06-05T10:26:11.000Z</time>
      </trkpt>
      <trkpt lat="44.04481" lon="6.84383">
        <ele>949</ele>
        <time>2020-06-05T10:26:12.000Z</time>
      </trkpt>
      <trkpt lat="44.04481" lon="6.84383">
        <ele>949</ele>
        <time>2020-06-05T10:26:13.000Z</time>
      </trkpt>
      <trkpt lat="44.04481" lon="6.84383">
        <ele>949</ele>
        <time>2020-06-05T10:26:14.000Z</time>
      </trkpt>
      <trkpt lat="44.04481" lon="6.84383">
        <ele>949</ele>
        <time>2020-06-05T10:26:15.000Z</time>
      </trkpt>
      <trkpt lat="44.04481" lon="6.84383">
        <ele>949</ele>
        <time>2020-06-05T10:26:16.000Z</time>
      </trkpt>
      <trkpt lat="44.04481" lon="6.84383">
        <ele>949</ele>
        <time>2020-06-05T10:26:17.000Z</time>
      </trkpt>
      <trkpt lat="44.04481" lon="6.84384">
        <ele>949</ele>
        <time>2020-06-05T10:26:18.000Z</time>
      </trkpt>
      <trkpt lat="44.04481" lon="6.84383">
        <ele>950</ele>
        <time>2020-06-05T10:26:19.000Z</time>
      </trkpt>
      <trkpt lat="44.0448" lon="6.84383">
        <ele>950</ele>
        <time>2020-06-05T10:26:20.000Z</time>
      </trkpt>
      <trkpt lat="44.0448" lon="6.84382">
        <ele>950</ele>
        <time>2020-06-05T10:26:21.000Z</time>
      </trkpt>
      <trkpt lat="44.0448" lon="6.84381">
        <ele>950</ele>
        <time>2020-06-05T10:26:22.000Z</time>
      </trkpt>
      <trkpt lat="44.04479" lon="6.8438">
        <ele>950</ele>
        <time>2020-06-05T10:26:23.000Z</time>
      </trkpt>
      <trkpt lat="44.04479" lon="6.84379">
        <ele>950</ele>
        <time>2020-06-05T10:26:24.000Z</time>
      </trkpt>
      <trkpt lat="44.04479" lon="6.84379">
        <ele>950</ele>
        <time>2020-06-05T10:26:25.000Z</time>
      </trkpt>
      <trkpt lat="44.04479" lon="6.84379">
        <ele>950</ele>
        <time>2020-06-05T10:26:26.000Z</time>
      </trkpt>
      <trkpt lat="44.04479" lon="6.84379">
        <ele>950</ele>
        <time>2020-06-05T10:26:27.000Z</time>
      </trkpt>
      <trkpt lat="44.04479" lon="6.84379">
        <ele>950</ele>
        <time>2020-06-05T10:26:28.000Z</time>
      </trkpt>
      <trkpt lat="44.04479" lon="6.84379">
        <ele>950</ele>
        <time>2020-06-05T10:26:29.000Z</time>
      </trkpt>
      <trkpt lat="44.04479" lon="6.84379">
        <ele>950</ele>
        <time>2020-06-05T10:26:30.000Z</time>
      </trkpt>
      <trkpt lat="44.04479" lon="6.84378">
        <ele>950</ele>
        <time>2020-06-05T10:26:31.000Z</time>
      </trkpt>
      <trkpt lat="44.04479" lon="6.84379">
        <ele>950</ele>
        <time>2020-06-05T10:26:32.000Z</time>
      </trkpt>
      <trkpt lat="44.04479" lon="6.84379">
        <ele>950</ele>
        <time>2020-06-05T10:26:33.000Z</time>
      </trkpt>
      <trkpt lat="44.04479" lon="6.84379">
        <ele>950</ele>
        <time>2020-06-05T10:26:34.000Z</time>
      </trkpt>
      <trkpt lat="44.04479" lon="6.84379">
        <ele>950</ele>
        <time>2020-06-05T10:26:35.000Z</time>
      </trkpt>
      <trkpt lat="44.04479" lon="6.84378">
        <ele>950</ele>
        <time>2020-06-05T10:26:36.000Z</time>
      </trkpt>
      <trkpt lat="44.04479" lon="6.84379">
        <ele>950</ele>
        <time>2020-06-05T10:26:37.000Z</time>
      </trkpt>
      <trkpt lat="44.04479" lon="6.8438">
        <ele>950</ele>
        <time>2020-06-05T10:26:38.000Z</time>
      </trkpt>
      <trkpt lat="44.04479" lon="6.8438">
        <ele>950</ele>
        <time>2020-06-05T10:26:39.000Z</time>
      </trkpt>
      <trkpt lat="44.04479" lon="6.8438">
        <ele>950</ele>
        <time>2020-06-05T10:26:40.000Z</time>
      </trkpt>
      <trkpt lat="44.04479" lon="6.8438">
        <ele>950</ele>
        <time>2020-06-05T10:26:41.000Z</time>
      </trkpt>
      <trkpt lat="44.04479" lon="6.8438">
        <ele>950</ele>
        <time>2020-06-05T10:26:42.000Z</time>
      </trkpt>
      <trkpt lat="44.04479" lon="6.8438">
        <ele>950</ele>
        <time>2020-06-05T10:26:43.000Z</time>
      </trkpt>
      <trkpt lat="44.04479" lon="6.8438">
        <ele>950</ele>
        <time>2020-06-05T10:26:44.000Z</time>
      </trkpt>
      <trkpt lat="44.04479" lon="6.8438">
        <ele>950</ele>
        <time>2020-06-05T10:26:45.000Z</time>
      </trkpt>
      <trkpt lat="44.04479" lon="6.8438">
        <ele>950</ele>
        <time>2020-06-05T10:26:46.000Z</time>
      </trkpt>
      <trkpt lat="44.04479" lon="6.8438">
        <ele>950</ele>
        <time>2020-06-05T10:26:47.000Z</time>
      </trkpt>
      <trkpt lat="44.04479" lon="6.8438">
        <ele>950</ele>
        <time>2020-06-05T10:26:48.000Z</time>
      </trkpt>
      <trkpt lat="44.04479" lon="6.8438">
        <ele>950</ele>
        <time>2020-06-05T10:26:49.000Z</time>
      </trkpt>
      <trkpt lat="44.04479" lon="6.8438">
        <ele>950</ele>
        <time>2020-06-05T10:26:50.000Z</time>
      </trkpt>
      <trkpt lat="44.04479" lon="6.8438">
        <ele>950</ele>
        <time>2020-06-05T10:26:51.000Z</time>
      </trkpt>
      <trkpt lat="44.04479" lon="6.84379">
        <ele>950</ele>
        <time>2020-06-05T10:26:52.000Z</time>
      </trkpt>
      <trkpt lat="44.04479" lon="6.84378">
        <ele>950</ele>
        <time>2020-06-05T10:26:53.000Z</time>
      </trkpt>
      <trkpt lat="44.04479" lon="6.84377">
        <ele>950</ele>
        <time>2020-06-05T10:26:54.000Z</time>
      </trkpt>
      <trkpt lat="44.04478" lon="6.84376">
        <ele>950</ele>
        <time>2020-06-05T10:26:55.000Z</time>
      </trkpt>
      <trkpt lat="44.04478" lon="6.84376">
        <ele>950</ele>
        <time>2020-06-05T10:26:56.000Z</time>
      </trkpt>
      <trkpt lat="44.04478" lon="6.84376">
        <ele>950</ele>
        <time>2020-06-05T10:26:57.000Z</time>
      </trkpt>
      <trkpt lat="44.04477" lon="6.84377">
        <ele>950</ele>
        <time>2020-06-05T10:26:58.000Z</time>
      </trkpt>
      <trkpt lat="44.04477" lon="6.84377">
        <ele>950</ele>
        <time>2020-06-05T10:26:59.000Z</time>
      </trkpt>
      <trkpt lat="44.04476" lon="6.84377">
        <ele>949</ele>
        <time>2020-06-05T10:27:00.000Z</time>
      </trkpt>
      <trkpt lat="44.04477" lon="6.84377">
        <ele>949</ele>
        <time>2020-06-05T10:27:01.000Z</time>
      </trkpt>
      <trkpt lat="44.04477" lon="6.84377">
        <ele>949</ele>
        <time>2020-06-05T10:27:02.000Z</time>
      </trkpt>
      <trkpt lat="44.04477" lon="6.84377">
        <ele>949</ele>
        <time>2020-06-05T10:27:03.000Z</time>
      </trkpt>
      <trkpt lat="44.04477" lon="6.84377">
        <ele>949</ele>
        <time>2020-06-05T10:27:04.000Z</time>
      </trkpt>
      <trkpt lat="44.04477" lon="6.84377">
        <ele>949</ele>
        <time>2020-06-05T10:27:05.000Z</time>
      </trkpt>
      <trkpt lat="44.04477" lon="6.84377">
        <ele>949</ele>
        <time>2020-06-05T10:27:06.000Z</time>
      </trkpt>
      <trkpt lat="44.04477" lon="6.84377">
        <ele>949</ele>
        <time>2020-06-05T10:27:07.000Z</time>
      </trkpt>
      <trkpt lat="44.04477" lon="6.84377">
        <ele>949</ele>
        <time>2020-06-05T10:27:08.000Z</time>
      </trkpt>
      <trkpt lat="44.04477" lon="6.84377">
        <ele>949</ele>
        <time>2020-06-05T10:27:09.000Z</time>
      </trkpt>
      <trkpt lat="44.04476" lon="6.84377">
        <ele>949</ele>
        <time>2020-06-05T10:27:10.000Z</time>
      </trkpt>
      <trkpt lat="44.04476" lon="6.84377">
        <ele>949</ele>
        <time>2020-06-05T10:27:11.000Z</time>
      </trkpt>
      <trkpt lat="44.04477" lon="6.84377">
        <ele>949</ele>
        <time>2020-06-05T10:27:12.000Z</time>
      </trkpt>
      <trkpt lat="44.04477" lon="6.84377">
        <ele>949</ele>
        <time>2020-06-05T10:27:13.000Z</time>
      </trkpt>
      <trkpt lat="44.04477" lon="6.84377">
        <ele>949</ele>
        <time>2020-06-05T10:27:14.000Z</time>
      </trkpt>
      <trkpt lat="44.04477" lon="6.84378">
        <ele>949</ele>
        <time>2020-06-05T10:27:15.000Z</time>
      </trkpt>
      <trkpt lat="44.04477" lon="6.84379">
        <ele>949</ele>
        <time>2020-06-05T10:27:16.000Z</time>
      </trkpt>
      <trkpt lat="44.04476" lon="6.8438">
        <ele>949</ele>
        <time>2020-06-05T10:27:17.000Z</time>
      </trkpt>
      <trkpt lat="44.04476" lon="6.8438">
        <ele>949</ele>
        <time>2020-06-05T10:27:18.000Z</time>
      </trkpt>
      <trkpt lat="44.04476" lon="6.84379">
        <ele>949</ele>
        <time>2020-06-05T10:27:19.000Z</time>
      </trkpt>
      <trkpt lat="44.04476" lon="6.84379">
        <ele>949</ele>
        <time>2020-06-05T10:27:20.000Z</time>
      </trkpt>
      <trkpt lat="44.04475" lon="6.84379">
        <ele>949</ele>
        <time>2020-06-05T10:27:21.000Z</time>
      </trkpt>
      <trkpt lat="44.04475" lon="6.84378">
        <ele>949</ele>
        <time>2020-06-05T10:27:22.000Z</time>
      </trkpt>
      <trkpt lat="44.04474" lon="6.84379">
        <ele>949</ele>
        <time>2020-06-05T10:27:23.000Z</time>
      </trkpt>
      <trkpt lat="44.04474" lon="6.8438">
        <ele>948</ele>
        <time>2020-06-05T10:27:24.000Z</time>
      </trkpt>
      <trkpt lat="44.04474" lon="6.84381">
        <ele>948</ele>
        <time>2020-06-05T10:27:25.000Z</time>
      </trkpt>
      <trkpt lat="44.04474" lon="6.84381">
        <ele>948</ele>
        <time>2020-06-05T10:27:26.000Z</time>
      </trkpt>
      <trkpt lat="44.04474" lon="6.84381">
        <ele>948</ele>
        <time>2020-06-05T10:27:27.000Z</time>
      </trkpt>
      <trkpt lat="44.04474" lon="6.84383">
        <ele>948</ele>
        <time>2020-06-05T10:27:28.000Z</time>
      </trkpt>
      <trkpt lat="44.04473" lon="6.84384">
        <ele>948</ele>
        <time>2020-06-05T10:27:29.000Z</time>
      </trkpt>
      <trkpt lat="44.04473" lon="6.84385">
        <ele>948</ele>
        <time>2020-06-05T10:27:30.000Z</time>
      </trkpt>
      <trkpt lat="44.04473" lon="6.84385">
        <ele>948</ele>
        <time>2020-06-05T10:27:31.000Z</time>
      </trkpt>
      <trkpt lat="44.04473" lon="6.84386">
        <ele>948</ele>
        <time>2020-06-05T10:27:32.000Z</time>
      </trkpt>
      <trkpt lat="44.04473" lon="6.84386">
        <ele>948</ele>
        <time>2020-06-05T10:27:33.000Z</time>
      </trkpt>
      <trkpt lat="44.04474" lon="6.84387">
        <ele>948</ele>
        <time>2020-06-05T10:27:34.000Z</time>
      </trkpt>
      <trkpt lat="44.04474" lon="6.84387">
        <ele>948</ele>
        <time>2020-06-05T10:27:35.000Z</time>
      </trkpt>
      <trkpt lat="44.04474" lon="6.84387">
        <ele>948</ele>
        <time>2020-06-05T10:27:36.000Z</time>
      </trkpt>
      <trkpt lat="44.04474" lon="6.84387">
        <ele>948</ele>
        <time>2020-06-05T10:27:37.000Z</time>
      </trkpt>
      <trkpt lat="44.04474" lon="6.84387">
        <ele>948</ele>
        <time>2020-06-05T10:27:38.000Z</time>
      </trkpt>
      <trkpt lat="44.04474" lon="6.84387">
        <ele>948</ele>
        <time>2020-06-05T10:27:39.000Z</time>
      </trkpt>
      <trkpt lat="44.04474" lon="6.84387">
        <ele>948</ele>
        <time>2020-06-05T10:27:40.000Z</time>
      </trkpt>
      <trkpt lat="44.04474" lon="6.84387">
        <ele>948</ele>
        <time>2020-06-05T10:27:41.000Z</time>
      </trkpt>
      <trkpt lat="44.04474" lon="6.84387">
        <ele>948</ele>
        <time>2020-06-05T10:27:42.000Z</time>
      </trkpt>
      <trkpt lat="44.04474" lon="6.84387">
        <ele>948</ele>
        <time>2020-06-05T10:27:43.000Z</time>
      </trkpt>
      <trkpt lat="44.04474" lon="6.84387">
        <ele>948</ele>
        <time>2020-06-05T10:27:44.000Z</time>
      </trkpt>
      <trkpt lat="44.04474" lon="6.84387">
        <ele>948</ele>
        <time>2020-06-05T10:27:45.000Z</time>
      </trkpt>
      <trkpt lat="44.04474" lon="6.84387">
        <ele>948</ele>
        <time>2020-06-05T10:27:46.000Z</time>
      </trkpt>
      <trkpt lat="44.04474" lon="6.84388">
        <ele>948</ele>
        <time>2020-06-05T10:27:47.000Z</time>
      </trkpt>
      <trkpt lat="44.04474" lon="6.84388">
        <ele>948</ele>
        <time>2020-06-05T10:27:48.000Z</time>
      </trkpt>
      <trkpt lat="44.04474" lon="6.84388">
        <ele>948</ele>
        <time>2020-06-05T10:27:49.000Z</time>
      </trkpt>
      <trkpt lat="44.04474" lon="6.84388">
        <ele>948</ele>
        <time>2020-06-05T10:27:50.000Z</time>
      </trkpt>
      <trkpt lat="44.04474" lon="6.84388">
        <ele>948</ele>
        <time>2020-06-05T10:27:51.000Z</time>
      </trkpt>
      <trkpt lat="44.04474" lon="6.84388">
        <ele>948</ele>
        <time>2020-06-05T10:27:52.000Z</time>
      </trkpt>
      <trkpt lat="44.04474" lon="6.84387">
        <ele>948</ele>
        <time>2020-06-05T10:27:53.000Z</time>
      </trkpt>
      <trkpt lat="44.04474" lon="6.84387">
        <ele>948</ele>
        <time>2020-06-05T10:27:54.000Z</time>
      </trkpt>
      <trkpt lat="44.04474" lon="6.84387">
        <ele>948</ele>
        <time>2020-06-05T10:27:55.000Z</time>
      </trkpt>
      <trkpt lat="44.04474" lon="6.84387">
        <ele>948</ele>
        <time>2020-06-05T10:27:56.000Z</time>
      </trkpt>
      <trkpt lat="44.04474" lon="6.84387">
        <ele>948</ele>
        <time>2020-06-05T10:27:57.000Z</time>
      </trkpt>
      <trkpt lat="44.04474" lon="6.84387">
        <ele>948</ele>
        <time>2020-06-05T10:27:58.000Z</time>
      </trkpt>
      <trkpt lat="44.04474" lon="6.84387">
        <ele>948</ele>
        <time>2020-06-05T10:27:59.000Z</time>
      </trkpt>
      <trkpt lat="44.04474" lon="6.84387">
        <ele>948</ele>
        <time>2020-06-05T10:28:00.000Z</time>
      </trkpt>
      <trkpt lat="44.04474" lon="6.84387">
        <ele>948</ele>
        <time>2020-06-05T10:28:01.000Z</time>
      </trkpt>
      <trkpt lat="44.04474" lon="6.84387">
        <ele>948</ele>
        <time>2020-06-05T10:28:02.000Z</time>
      </trkpt>
      <trkpt lat="44.04474" lon="6.84387">
        <ele>948</ele>
        <time>2020-06-05T10:28:03.000Z</time>
      </trkpt>
      <trkpt lat="44.04474" lon="6.84387">
        <ele>948</ele>
        <time>2020-06-05T10:28:04.000Z</time>
      </trkpt>
      <trkpt lat="44.04474" lon="6.84387">
        <ele>948</ele>
        <time>2020-06-05T10:28:05.000Z</time>
      </trkpt>
      <trkpt lat="44.04474" lon="6.84387">
        <ele>948</ele>
        <time>2020-06-05T10:28:06.000Z</time>
      </trkpt>
      <trkpt lat="44.04474" lon="6.84387">
        <ele>948</ele>
        <time>2020-06-05T10:28:07.000Z</time>
      </trkpt>
      <trkpt lat="44.04474" lon="6.84387">
        <ele>948</ele>
        <time>2020-06-05T10:28:08.000Z</time>
      </trkpt>
      <trkpt lat="44.04474" lon="6.84387">
        <ele>948</ele>
        <time>2020-06-05T10:28:09.000Z</time>
      </trkpt>
      <trkpt lat="44.04474" lon="6.84387">
        <ele>948</ele>
        <time>2020-06-05T10:28:10.000Z</time>
      </trkpt>
      <trkpt lat="44.04474" lon="6.84388">
        <ele>948</ele>
        <time>2020-06-05T10:28:11.000Z</time>
      </trkpt>
      <trkpt lat="44.04473" lon="6.84388">
        <ele>948</ele>
        <time>2020-06-05T10:28:12.000Z</time>
      </trkpt>
      <trkpt lat="44.04473" lon="6.84387">
        <ele>948</ele>
        <time>2020-06-05T10:28:13.000Z</time>
      </trkpt>
      <trkpt lat="44.04472" lon="6.84387">
        <ele>948</ele>
        <time>2020-06-05T10:28:14.000Z</time>
      </trkpt>
      <trkpt lat="44.04472" lon="6.84387">
        <ele>948</ele>
        <time>2020-06-05T10:28:15.000Z</time>
      </trkpt>
      <trkpt lat="44.04472" lon="6.84386">
        <ele>948</ele>
        <time>2020-06-05T10:28:16.000Z</time>
      </trkpt>
      <trkpt lat="44.04472" lon="6.84386">
        <ele>948</ele>
        <time>2020-06-05T10:28:17.000Z</time>
      </trkpt>
      <trkpt lat="44.04471" lon="6.84386">
        <ele>948</ele>
        <time>2020-06-05T10:28:18.000Z</time>
      </trkpt>
      <trkpt lat="44.04471" lon="6.84386">
        <ele>947</ele>
        <time>2020-06-05T10:28:19.000Z</time>
      </trkpt>
      <trkpt lat="44.04471" lon="6.84386">
        <ele>947</ele>
        <time>2020-06-05T10:28:20.000Z</time>
      </trkpt>
      <trkpt lat="44.04471" lon="6.84386">
        <ele>947</ele>
        <time>2020-06-05T10:28:21.000Z</time>
      </trkpt>
      <trkpt lat="44.04471" lon="6.84386">
        <ele>947</ele>
        <time>2020-06-05T10:28:22.000Z</time>
      </trkpt>
      <trkpt lat="44.04471" lon="6.84386">
        <ele>947</ele>
        <time>2020-06-05T10:28:23.000Z</time>
      </trkpt>
      <trkpt lat="44.04471" lon="6.84386">
        <ele>947</ele>
        <time>2020-06-05T10:28:24.000Z</time>
      </trkpt>
      <trkpt lat="44.04471" lon="6.84387">
        <ele>947</ele>
        <time>2020-06-05T10:28:25.000Z</time>
      </trkpt>
      <trkpt lat="44.04472" lon="6.84387">
        <ele>947</ele>
        <time>2020-06-05T10:28:26.000Z</time>
      </trkpt>
      <trkpt lat="44.04471" lon="6.84387">
        <ele>947</ele>
        <time>2020-06-05T10:28:27.000Z</time>
      </trkpt>
      <trkpt lat="44.04471" lon="6.84386">
        <ele>947</ele>
        <time>2020-06-05T10:28:28.000Z</time>
      </trkpt>
      <trkpt lat="44.04471" lon="6.84386">
        <ele>947</ele>
        <time>2020-06-05T10:28:29.000Z</time>
      </trkpt>
      <trkpt lat="44.04471" lon="6.84386">
        <ele>947</ele>
        <time>2020-06-05T10:28:30.000Z</time>
      </trkpt>
      <trkpt lat="44.04471" lon="6.84385">
        <ele>947</ele>
        <time>2020-06-05T10:28:31.000Z</time>
      </trkpt>
      <trkpt lat="44.04472" lon="6.84385">
        <ele>947</ele>
        <time>2020-06-05T10:28:32.000Z</time>
      </trkpt>
      <trkpt lat="44.04472" lon="6.84385">
        <ele>947</ele>
        <time>2020-06-05T10:28:33.000Z</time>
      </trkpt>
      <trkpt lat="44.04472" lon="6.84385">
        <ele>947</ele>
        <time>2020-06-05T10:28:34.000Z</time>
      </trkpt>
      <trkpt lat="44.04472" lon="6.84384">
        <ele>947</ele>
        <time>2020-06-05T10:28:35.000Z</time>
      </trkpt>
      <trkpt lat="44.04472" lon="6.84383">
        <ele>947</ele>
        <time>2020-06-05T10:28:36.000Z</time>
      </trkpt>
      <trkpt lat="44.04473" lon="6.84382">
        <ele>947</ele>
        <time>2020-06-05T10:28:37.000Z</time>
      </trkpt>
      <trkpt lat="44.04473" lon="6.8438">
        <ele>947</ele>
        <time>2020-06-05T10:28:38.000Z</time>
      </trkpt>
      <trkpt lat="44.04474" lon="6.84379">
        <ele>947</ele>
        <time>2020-06-05T10:28:39.000Z</time>
      </trkpt>
      <trkpt lat="44.04475" lon="6.84379">
        <ele>947</ele>
        <time>2020-06-05T10:28:40.000Z</time>
      </trkpt>
      <trkpt lat="44.04475" lon="6.84379">
        <ele>947</ele>
        <time>2020-06-05T10:28:41.000Z</time>
      </trkpt>
      <trkpt lat="44.04475" lon="6.84379">
        <ele>947</ele>
        <time>2020-06-05T10:28:42.000Z</time>
      </trkpt>
      <trkpt lat="44.04475" lon="6.84378">
        <ele>947</ele>
        <time>2020-06-05T10:28:43.000Z</time>
      </trkpt>
      <trkpt lat="44.04475" lon="6.84378">
        <ele>947</ele>
        <time>2020-06-05T10:28:44.000Z</time>
      </trkpt>
      <trkpt lat="44.04476" lon="6.84378">
        <ele>948</ele>
        <time>2020-06-05T10:28:45.000Z</time>
      </trkpt>
      <trkpt lat="44.04476" lon="6.84377">
        <ele>948</ele>
        <time>2020-06-05T10:28:46.000Z</time>
      </trkpt>
      <trkpt lat="44.04476" lon="6.84377">
        <ele>948</ele>
        <time>2020-06-05T10:28:47.000Z</time>
      </trkpt>
      <trkpt lat="44.04476" lon="6.84376">
        <ele>948</ele>
        <time>2020-06-05T10:28:48.000Z</time>
      </trkpt>
      <trkpt lat="44.04477" lon="6.84375">
        <ele>948</ele>
        <time>2020-06-05T10:28:49.000Z</time>
      </trkpt>
      <trkpt lat="44.04477" lon="6.84374">
        <ele>948</ele>
        <time>2020-06-05T10:28:50.000Z</time>
      </trkpt>
      <trkpt lat="44.04478" lon="6.84374">
        <ele>948</ele>
        <time>2020-06-05T10:28:51.000Z</time>
      </trkpt>
      <trkpt lat="44.04478" lon="6.84374">
        <ele>948</ele>
        <time>2020-06-05T10:28:52.000Z</time>
      </trkpt>
      <trkpt lat="44.04478" lon="6.84374">
        <ele>948</ele>
        <time>2020-06-05T10:28:53.000Z</time>
      </trkpt>
      <trkpt lat="44.04478" lon="6.84373">
        <ele>948</ele>
        <time>2020-06-05T10:28:54.000Z</time>
      </trkpt>
      <trkpt lat="44.04478" lon="6.84373">
        <ele>948</ele>
        <time>2020-06-05T10:28:55.000Z</time>
      </trkpt>
      <trkpt lat="44.04479" lon="6.84373">
        <ele>949</ele>
        <time>2020-06-05T10:28:56.000Z</time>
      </trkpt>
      <trkpt lat="44.04479" lon="6.84374">
        <ele>949</ele>
        <time>2020-06-05T10:28:57.000Z</time>
      </trkpt>
      <trkpt lat="44.04479" lon="6.84374">
        <ele>949</ele>
        <time>2020-06-05T10:28:58.000Z</time>
      </trkpt>
      <trkpt lat="44.04479" lon="6.84375">
        <ele>949</ele>
        <time>2020-06-05T10:28:59.000Z</time>
      </trkpt>
      <trkpt lat="44.04479" lon="6.84375">
        <ele>949</ele>
        <time>2020-06-05T10:29:00.000Z</time>
      </trkpt>
      <trkpt lat="44.04479" lon="6.84375">
        <ele>949</ele>
        <time>2020-06-05T10:29:01.000Z</time>
      </trkpt>
      <trkpt lat="44.04479" lon="6.84375">
        <ele>949</ele>
        <time>2020-06-05T10:29:02.000Z</time>
      </trkpt>
      <trkpt lat="44.04479" lon="6.84375">
        <ele>949</ele>
        <time>2020-06-05T10:29:03.000Z</time>
      </trkpt>
      <trkpt lat="44.04479" lon="6.84375">
        <ele>949</ele>
        <time>2020-06-05T10:29:04.000Z</time>
      </trkpt>
      <trkpt lat="44.0448" lon="6.84375">
        <ele>949</ele>
        <time>2020-06-05T10:29:05.000Z</time>
      </trkpt>
      <trkpt lat="44.04479" lon="6.84375">
        <ele>949</ele>
        <time>2020-06-05T10:29:06.000Z</time>
      </trkpt>
      <trkpt lat="44.0448" lon="6.84375">
        <ele>949</ele>
        <time>2020-06-05T10:29:07.000Z</time>
      </trkpt>
      <trkpt lat="44.0448" lon="6.84375">
        <ele>950</ele>
        <time>2020-06-05T10:29:08.000Z</time>
      </trkpt>
      <trkpt lat="44.0448" lon="6.84375">
        <ele>949</ele>
        <time>2020-06-05T10:29:09.000Z</time>
      </trkpt>
      <trkpt lat="44.0448" lon="6.84375">
        <ele>949</ele>
        <time>2020-06-05T10:29:10.000Z</time>
      </trkpt>
      <trkpt lat="44.04479" lon="6.84375">
        <ele>949</ele>
        <time>2020-06-05T10:29:11.000Z</time>
      </trkpt>
      <trkpt lat="44.04479" lon="6.84375">
        <ele>949</ele>
        <time>2020-06-05T10:29:12.000Z</time>
      </trkpt>
      <trkpt lat="44.04479" lon="6.84375">
        <ele>949</ele>
        <time>2020-06-05T10:29:13.000Z</time>
      </trkpt>
      <trkpt lat="44.04479" lon="6.84375">
        <ele>949</ele>
        <time>2020-06-05T10:29:14.000Z</time>
      </trkpt>
      <trkpt lat="44.04479" lon="6.84375">
        <ele>949</ele>
        <time>2020-06-05T10:29:15.000Z</time>
      </trkpt>
      <trkpt lat="44.04479" lon="6.84375">
        <ele>949</ele>
        <time>2020-06-05T10:29:16.000Z</time>
      </trkpt>
      <trkpt lat="44.0448" lon="6.84376">
        <ele>949</ele>
        <time>2020-06-05T10:29:17.000Z</time>
      </trkpt>
      <trkpt lat="44.0448" lon="6.84376">
        <ele>949</ele>
        <time>2020-06-05T10:29:18.000Z</time>
      </trkpt>
      <trkpt lat="44.0448" lon="6.84377">
        <ele>949</ele>
        <time>2020-06-05T10:29:19.000Z</time>
      </trkpt>
      <trkpt lat="44.0448" lon="6.84378">
        <ele>949</ele>
        <time>2020-06-05T10:29:20.000Z</time>
      </trkpt>
      <trkpt lat="44.0448" lon="6.84379">
        <ele>949</ele>
        <time>2020-06-05T10:29:21.000Z</time>
      </trkpt>
      <trkpt lat="44.0448" lon="6.8438">
        <ele>950</ele>
        <time>2020-06-05T10:29:22.000Z</time>
      </trkpt>
      <trkpt lat="44.0448" lon="6.8438">
        <ele>950</ele>
        <time>2020-06-05T10:29:23.000Z</time>
      </trkpt>
      <trkpt lat="44.0448" lon="6.8438">
        <ele>950</ele>
        <time>2020-06-05T10:29:24.000Z</time>
      </trkpt>
      <trkpt lat="44.04479" lon="6.8438">
        <ele>950</ele>
        <time>2020-06-05T10:29:25.000Z</time>
      </trkpt>
      <trkpt lat="44.04479" lon="6.8438">
        <ele>950</ele>
        <time>2020-06-05T10:29:26.000Z</time>
      </trkpt>
      <trkpt lat="44.04479" lon="6.8438">
        <ele>950</ele>
        <time>2020-06-05T10:29:27.000Z</time>
      </trkpt>
      <trkpt lat="44.04479" lon="6.8438">
        <ele>950</ele>
        <time>2020-06-05T10:29:28.000Z</time>
      </trkpt>
      <trkpt lat="44.04479" lon="6.8438">
        <ele>950</ele>
        <time>2020-06-05T10:29:29.000Z</time>
      </trkpt>
      <trkpt lat="44.04479" lon="6.8438">
        <ele>950</ele>
        <time>2020-06-05T10:29:30.000Z</time>
      </trkpt>
      <trkpt lat="44.04479" lon="6.8438">
        <ele>950</ele>
        <time>2020-06-05T10:29:31.000Z</time>
      </trkpt>
      <trkpt lat="44.04479" lon="6.8438">
        <ele>950</ele>
        <time>2020-06-05T10:29:32.000Z</time>
      </trkpt>
      <trkpt lat="44.04479" lon="6.8438">
        <ele>950</ele>
        <time>2020-06-05T10:29:33.000Z</time>
      </trkpt>
      <trkpt lat="44.04479" lon="6.8438">
        <ele>950</ele>
        <time>2020-06-05T10:29:34.000Z</time>
      </trkpt>
      <trkpt lat="44.04479" lon="6.8438">
        <ele>950</ele>
        <time>2020-06-05T10:29:35.000Z</time>
      </trkpt>
      <trkpt lat="44.04479" lon="6.84381">
        <ele>950</ele>
        <time>2020-06-05T10:29:36.000Z</time>
      </trkpt>
      <trkpt lat="44.0448" lon="6.8438">
        <ele>950</ele>
        <time>2020-06-05T10:29:37.000Z</time>
      </trkpt>
      <trkpt lat="44.0448" lon="6.8438">
        <ele>950</ele>
        <time>2020-06-05T10:29:38.000Z</time>
      </trkpt>
      <trkpt lat="44.0448" lon="6.8438">
        <ele>950</ele>
        <time>2020-06-05T10:29:39.000Z</time>
      </trkpt>
      <trkpt lat="44.0448" lon="6.8438">
        <ele>950</ele>
        <time>2020-06-05T10:29:40.000Z</time>
      </trkpt>
      <trkpt lat="44.0448" lon="6.8438">
        <ele>950</ele>
        <time>2020-06-05T10:29:41.000Z</time>
      </trkpt>
      <trkpt lat="44.0448" lon="6.8438">
        <ele>950</ele>
        <time>2020-06-05T10:29:42.000Z</time>
      </trkpt>
      <trkpt lat="44.0448" lon="6.8438">
        <ele>950</ele>
        <time>2020-06-05T10:29:43.000Z</time>
      </trkpt>
      <trkpt lat="44.0448" lon="6.8438">
        <ele>950</ele>
        <time>2020-06-05T10:29:44.000Z</time>
      </trkpt>
      <trkpt lat="44.0448" lon="6.8438">
        <ele>950</ele>
        <time>2020-06-05T10:29:45.000Z</time>
      </trkpt>
      <trkpt lat="44.04479" lon="6.8438">
        <ele>950</ele>
        <time>2020-06-05T10:29:46.000Z</time>
      </trkpt>
      <trkpt lat="44.04479" lon="6.8438">
        <ele>950</ele>
        <time>2020-06-05T10:29:47.000Z</time>
      </trkpt>
      <trkpt lat="44.04479" lon="6.84379">
        <ele>950</ele>
        <time>2020-06-05T10:29:48.000Z</time>
      </trkpt>
      <trkpt lat="44.04479" lon="6.84379">
        <ele>951</ele>
        <time>2020-06-05T10:29:49.000Z</time>
      </trkpt>
      <trkpt lat="44.04479" lon="6.84379">
        <ele>951</ele>
        <time>2020-06-05T10:29:50.000Z</time>
      </trkpt>
      <trkpt lat="44.04479" lon="6.84379">
        <ele>951</ele>
        <time>2020-06-05T10:29:51.000Z</time>
      </trkpt>
      <trkpt lat="44.04479" lon="6.84379">
        <ele>951</ele>
        <time>2020-06-05T10:29:52.000Z</time>
      </trkpt>
      <trkpt lat="44.04479" lon="6.84379">
        <ele>951</ele>
        <time>2020-06-05T10:29:53.000Z</time>
      </trkpt>
      <trkpt lat="44.04479" lon="6.84379">
        <ele>951</ele>
        <time>2020-06-05T10:29:54.000Z</time>
      </trkpt>
      <trkpt lat="44.04479" lon="6.84379">
        <ele>951</ele>
        <time>2020-06-05T10:29:55.000Z</time>
      </trkpt>
      <trkpt lat="44.04479" lon="6.84379">
        <ele>951</ele>
        <time>2020-06-05T10:29:56.000Z</time>
      </trkpt>
      <trkpt lat="44.04479" lon="6.84379">
        <ele>951</ele>
        <time>2020-06-05T10:29:57.000Z</time>
      </trkpt>
      <trkpt lat="44.04479" lon="6.84379">
        <ele>951</ele>
        <time>2020-06-05T10:29:58.000Z</time>
      </trkpt>
      <trkpt lat="44.0448" lon="6.84379">
        <ele>951</ele>
        <time>2020-06-05T10:29:59.000Z</time>
      </trkpt>
      <trkpt lat="44.0448" lon="6.84379">
        <ele>951</ele>
        <time>2020-06-05T10:30:00.000Z</time>
      </trkpt>
      <trkpt lat="44.0448" lon="6.84379">
        <ele>951</ele>
        <time>2020-06-05T10:30:01.000Z</time>
      </trkpt>
      <trkpt lat="44.0448" lon="6.84379">
        <ele>951</ele>
        <time>2020-06-05T10:30:02.000Z</time>
      </trkpt>
      <trkpt lat="44.04481" lon="6.8438">
        <ele>951</ele>
        <time>2020-06-05T10:30:03.000Z</time>
      </trkpt>
      <trkpt lat="44.04481" lon="6.8438">
        <ele>951</ele>
        <time>2020-06-05T10:30:04.000Z</time>
      </trkpt>
      <trkpt lat="44.04481" lon="6.84381">
        <ele>951</ele>
        <time>2020-06-05T10:30:05.000Z</time>
      </trkpt>
      <trkpt lat="44.04482" lon="6.84382">
        <ele>951</ele>
        <time>2020-06-05T10:30:06.000Z</time>
      </trkpt>
      <trkpt lat="44.04482" lon="6.84383">
        <ele>951</ele>
        <time>2020-06-05T10:30:07.000Z</time>
      </trkpt>
      <trkpt lat="44.04482" lon="6.84383">
        <ele>951</ele>
        <time>2020-06-05T10:30:08.000Z</time>
      </trkpt>
      <trkpt lat="44.04482" lon="6.84384">
        <ele>951</ele>
        <time>2020-06-05T10:30:09.000Z</time>
      </trkpt>
      <trkpt lat="44.04482" lon="6.84384">
        <ele>951</ele>
        <time>2020-06-05T10:30:12.000Z</time>
      </trkpt>
      <trkpt lat="44.04482" lon="6.84384">
        <ele>951</ele>
        <time>2020-06-05T10:30:13.000Z</time>
      </trkpt>
      <trkpt lat="44.04482" lon="6.84385">
        <ele>951</ele>
        <time>2020-06-05T10:30:14.000Z</time>
      </trkpt>
      <trkpt lat="44.04482" lon="6.84385">
        <ele>951</ele>
        <time>2020-06-05T10:30:15.000Z</time>
      </trkpt>
      <trkpt lat="44.04482" lon="6.84385">
        <ele>952</ele>
        <time>2020-06-05T10:30:16.000Z</time>
      </trkpt>
      <trkpt lat="44.04482" lon="6.84385">
        <ele>952</ele>
        <time>2020-06-05T10:30:17.000Z</time>
      </trkpt>
      <trkpt lat="44.04481" lon="6.84385">
        <ele>952</ele>
        <time>2020-06-05T10:30:18.000Z</time>
      </trkpt>
      <trkpt lat="44.04481" lon="6.84385">
        <ele>952</ele>
        <time>2020-06-05T10:30:19.000Z</time>
      </trkpt>
      <trkpt lat="44.04481" lon="6.84386">
        <ele>952</ele>
        <time>2020-06-05T10:30:20.000Z</time>
      </trkpt>
      <trkpt lat="44.0448" lon="6.84386">
        <ele>953</ele>
        <time>2020-06-05T10:30:21.000Z</time>
      </trkpt>
      <trkpt lat="44.0448" lon="6.84386">
        <ele>953</ele>
        <time>2020-06-05T10:30:22.000Z</time>
      </trkpt>
      <trkpt lat="44.0448" lon="6.84387">
        <ele>953</ele>
        <time>2020-06-05T10:30:23.000Z</time>
      </trkpt>
      <trkpt lat="44.0448" lon="6.84387">
        <ele>953</ele>
        <time>2020-06-05T10:30:24.000Z</time>
      </trkpt>
      <trkpt lat="44.0448" lon="6.84388">
        <ele>954</ele>
        <time>2020-06-05T10:30:25.000Z</time>
      </trkpt>
      <trkpt lat="44.0448" lon="6.84388">
        <ele>954</ele>
        <time>2020-06-05T10:30:26.000Z</time>
      </trkpt>
      <trkpt lat="44.0448" lon="6.84389">
        <ele>954</ele>
        <time>2020-06-05T10:30:27.000Z</time>
      </trkpt>
      <trkpt lat="44.0448" lon="6.84389">
        <ele>955</ele>
        <time>2020-06-05T10:30:28.000Z</time>
      </trkpt>
      <trkpt lat="44.0448" lon="6.8439">
        <ele>955</ele>
        <time>2020-06-05T10:30:29.000Z</time>
      </trkpt>
      <trkpt lat="44.0448" lon="6.8439">
        <ele>956</ele>
        <time>2020-06-05T10:30:30.000Z</time>
      </trkpt>
      <trkpt lat="44.04481" lon="6.84389">
        <ele>956</ele>
        <time>2020-06-05T10:30:31.000Z</time>
      </trkpt>
      <trkpt lat="44.04481" lon="6.84389">
        <ele>956</ele>
        <time>2020-06-05T10:30:32.000Z</time>
      </trkpt>
      <trkpt lat="44.04481" lon="6.84388">
        <ele>955</ele>
        <time>2020-06-05T10:30:33.000Z</time>
      </trkpt>
      <trkpt lat="44.04481" lon="6.84388">
        <ele>955</ele>
        <time>2020-06-05T10:30:34.000Z</time>
      </trkpt>
      <trkpt lat="44.04481" lon="6.84387">
        <ele>955</ele>
        <time>2020-06-05T10:30:35.000Z</time>
      </trkpt>
      <trkpt lat="44.04481" lon="6.84387">
        <ele>955</ele>
        <time>2020-06-05T10:30:36.000Z</time>
      </trkpt>
      <trkpt lat="44.04481" lon="6.84387">
        <ele>955</ele>
        <time>2020-06-05T10:30:37.000Z</time>
      </trkpt>
      <trkpt lat="44.04481" lon="6.84387">
        <ele>954</ele>
        <time>2020-06-05T10:30:38.000Z</time>
      </trkpt>
      <trkpt lat="44.04481" lon="6.84387">
        <ele>954</ele>
        <time>2020-06-05T10:30:39.000Z</time>
      </trkpt>
      <trkpt lat="44.04481" lon="6.84388">
        <ele>954</ele>
        <time>2020-06-05T10:30:40.000Z</time>
      </trkpt>
      <trkpt lat="44.04481" lon="6.84388">
        <ele>954</ele>
        <time>2020-06-05T10:30:41.000Z</time>
      </trkpt>
      <trkpt lat="44.04482" lon="6.84388">
        <ele>954</ele>
        <time>2020-06-05T10:30:42.000Z</time>
      </trkpt>
      <trkpt lat="44.04482" lon="6.84388">
        <ele>953</ele>
        <time>2020-06-05T10:30:43.000Z</time>
      </trkpt>
      <trkpt lat="44.04482" lon="6.84387">
        <ele>953</ele>
        <time>2020-06-05T10:30:44.000Z</time>
      </trkpt>
      <trkpt lat="44.04482" lon="6.84387">
        <ele>953</ele>
        <time>2020-06-05T10:30:45.000Z</time>
      </trkpt>
      <trkpt lat="44.04482" lon="6.84387">
        <ele>953</ele>
        <time>2020-06-05T10:30:46.000Z</time>
      </trkpt>
      <trkpt lat="44.04482" lon="6.84387">
        <ele>953</ele>
        <time>2020-06-05T10:30:47.000Z</time>
      </trkpt>
      <trkpt lat="44.04482" lon="6.84387">
        <ele>953</ele>
        <time>2020-06-05T10:30:48.000Z</time>
      </trkpt>
      <trkpt lat="44.04482" lon="6.84387">
        <ele>953</ele>
        <time>2020-06-05T10:30:49.000Z</time>
      </trkpt>
      <trkpt lat="44.04482" lon="6.84387">
        <ele>953</ele>
        <time>2020-06-05T10:30:50.000Z</time>
      </trkpt>
      <trkpt lat="44.04482" lon="6.84387">
        <ele>953</ele>
        <time>2020-06-05T10:30:51.000Z</time>
      </trkpt>
      <trkpt lat="44.04482" lon="6.84386">
        <ele>952</ele>
        <time>2020-06-05T10:30:52.000Z</time>
      </trkpt>
      <trkpt lat="44.04482" lon="6.84386">
        <ele>952</ele>
        <time>2020-06-05T10:30:53.000Z</time>
      </trkpt>
      <trkpt lat="44.04482" lon="6.84386">
        <ele>952</ele>
        <time>2020-06-05T10:30:54.000Z</time>
      </trkpt>
      <trkpt lat="44.04482" lon="6.84386">
        <ele>952</ele>
        <time>2020-06-05T10:30:55.000Z</time>
      </trkpt>
      <trkpt lat="44.04482" lon="6.84386">
        <ele>952</ele>
        <time>2020-06-05T10:30:56.000Z</time>
      </trkpt>
      <trkpt lat="44.04482" lon="6.84386">
        <ele>952</ele>
        <time>2020-06-05T10:30:57.000Z</time>
      </trkpt>
      <trkpt lat="44.04482" lon="6.84386">
        <ele>952</ele>
        <time>2020-06-05T10:30:58.000Z</time>
      </trkpt>
      <trkpt lat="44.04482" lon="6.84386">
        <ele>952</ele>
        <time>2020-06-05T10:30:59.000Z</time>
      </trkpt>
      <trkpt lat="44.04482" lon="6.84386">
        <ele>952</ele>
        <time>2020-06-05T10:31:00.000Z</time>
      </trkpt>
      <trkpt lat="44.04482" lon="6.84386">
        <ele>952</ele>
        <time>2020-06-05T10:31:01.000Z</time>
      </trkpt>
      <trkpt lat="44.04482" lon="6.84386">
        <ele>952</ele>
        <time>2020-06-05T10:31:02.000Z</time>
      </trkpt>
      <trkpt lat="44.04482" lon="6.84386">
        <ele>952</ele>
        <time>2020-06-05T10:31:03.000Z</time>
      </trkpt>
      <trkpt lat="44.04482" lon="6.84386">
        <ele>952</ele>
        <time>2020-06-05T10:31:04.000Z</time>
      </trkpt>
      <trkpt lat="44.04482" lon="6.84386">
        <ele>952</ele>
        <time>2020-06-05T10:31:05.000Z</time>
      </trkpt>
      <trkpt lat="44.04482" lon="6.84386">
        <ele>952</ele>
        <time>2020-06-05T10:31:06.000Z</time>
      </trkpt>
      <trkpt lat="44.04482" lon="6.84386">
        <ele>952</ele>
        <time>2020-06-05T10:31:07.000Z</time>
      </trkpt>
      <trkpt lat="44.04482" lon="6.84386">
        <ele>952</ele>
        <time>2020-06-05T10:31:08.000Z</time>
      </trkpt>
      <trkpt lat="44.04482" lon="6.84386">
        <ele>952</ele>
        <time>2020-06-05T10:31:09.000Z</time>
      </trkpt>
      <trkpt lat="44.04482" lon="6.84386">
        <ele>952</ele>
        <time>2020-06-05T10:31:10.000Z</time>
      </trkpt>
      <trkpt lat="44.04482" lon="6.84386">
        <ele>952</ele>
        <time>2020-06-05T10:31:11.000Z</time>
      </trkpt>
      <trkpt lat="44.04482" lon="6.84386">
        <ele>952</ele>
        <time>2020-06-05T10:31:12.000Z</time>
      </trkpt>
      <trkpt lat="44.04482" lon="6.84386">
        <ele>952</ele>
        <time>2020-06-05T10:31:13.000Z</time>
      </trkpt>
      <trkpt lat="44.04482" lon="6.84386">
        <ele>952</ele>
        <time>2020-06-05T10:31:14.000Z</time>
      </trkpt>
      <trkpt lat="44.04482" lon="6.84386">
        <ele>952</ele>
        <time>2020-06-05T10:31:15.000Z</time>
      </trkpt>
      <trkpt lat="44.04482" lon="6.84386">
        <ele>952</ele>
        <time>2020-06-05T10:31:16.000Z</time>
      </trkpt>
      <trkpt lat="44.04482" lon="6.84386">
        <ele>952</ele>
        <time>2020-06-05T10:31:17.000Z</time>
      </trkpt>
      <trkpt lat="44.04482" lon="6.84385">
        <ele>952</ele>
        <time>2020-06-05T10:31:18.000Z</time>
      </trkpt>
      <trkpt lat="44.04482" lon="6.84385">
        <ele>952</ele>
        <time>2020-06-05T10:31:19.000Z</time>
      </trkpt>
      <trkpt lat="44.04482" lon="6.84385">
        <ele>952</ele>
        <time>2020-06-05T10:31:20.000Z</time>
      </trkpt>
      <trkpt lat="44.04482" lon="6.84385">
        <ele>952</ele>
        <time>2020-06-05T10:31:21.000Z</time>
      </trkpt>
      <trkpt lat="44.04482" lon="6.84385">
        <ele>952</ele>
        <time>2020-06-05T10:31:22.000Z</time>
      </trkpt>
      <trkpt lat="44.04482" lon="6.84385">
        <ele>952</ele>
        <time>2020-06-05T10:31:23.000Z</time>
      </trkpt>
      <trkpt lat="44.04482" lon="6.84385">
        <ele>952</ele>
        <time>2020-06-05T10:31:24.000Z</time>
      </trkpt>
      <trkpt lat="44.04482" lon="6.84385">
        <ele>952</ele>
        <time>2020-06-05T10:31:25.000Z</time>
      </trkpt>
      <trkpt lat="44.04482" lon="6.84385">
        <ele>952</ele>
        <time>2020-06-05T10:31:26.000Z</time>
      </trkpt>
      <trkpt lat="44.04482" lon="6.84385">
        <ele>952</ele>
        <time>2020-06-05T10:31:27.000Z</time>
      </trkpt>
      <trkpt lat="44.04482" lon="6.84385">
        <ele>952</ele>
        <time>2020-06-05T10:31:28.000Z</time>
      </trkpt>
      <trkpt lat="44.04482" lon="6.84385">
        <ele>952</ele>
        <time>2020-06-05T10:31:29.000Z</time>
      </trkpt>
      <trkpt lat="44.04482" lon="6.84385">
        <ele>952</ele>
        <time>2020-06-05T10:31:30.000Z</time>
      </trkpt>
      <trkpt lat="44.04482" lon="6.84385">
        <ele>952</ele>
        <time>2020-06-05T10:31:31.000Z</time>
      </trkpt>
      <trkpt lat="44.04482" lon="6.84385">
        <ele>952</ele>
        <time>2020-06-05T10:31:32.000Z</time>
      </trkpt>
      <trkpt lat="44.04482" lon="6.84385">
        <ele>952</ele>
        <time>2020-06-05T10:31:33.000Z</time>
      </trkpt>
      <trkpt lat="44.04482" lon="6.84385">
        <ele>952</ele>
        <time>2020-06-05T10:31:34.000Z</time>
      </trkpt>
      <trkpt lat="44.04482" lon="6.84385">
        <ele>952</ele>
        <time>2020-06-05T10:31:35.000Z</time>
      </trkpt>
      <trkpt lat="44.04482" lon="6.84385">
        <ele>952</ele>
        <time>2020-06-05T10:31:36.000Z</time>
      </trkpt>
      <trkpt lat="44.04482" lon="6.84385">
        <ele>952</ele>
        <time>2020-06-05T10:31:37.000Z</time>
      </trkpt>
      <trkpt lat="44.04482" lon="6.84385">
        <ele>952</ele>
        <time>2020-06-05T10:31:38.000Z</time>
      </trkpt>
      <trkpt lat="44.04482" lon="6.84385">
        <ele>952</ele>
        <time>2020-06-05T10:31:39.000Z</time>
      </trkpt>
      <trkpt lat="44.04482" lon="6.84385">
        <ele>952</ele>
        <time>2020-06-05T10:31:40.000Z</time>
      </trkpt>
      <trkpt lat="44.04482" lon="6.84385">
        <ele>952</ele>
        <time>2020-06-05T10:31:41.000Z</time>
      </trkpt>
      <trkpt lat="44.04482" lon="6.84385">
        <ele>952</ele>
        <time>2020-06-05T10:31:42.000Z</time>
      </trkpt>
      <trkpt lat="44.04482" lon="6.84385">
        <ele>952</ele>
        <time>2020-06-05T10:31:43.000Z</time>
      </trkpt>
      <trkpt lat="44.04482" lon="6.84385">
        <ele>952</ele>
        <time>2020-06-05T10:31:44.000Z</time>
      </trkpt>
      <trkpt lat="44.04482" lon="6.84385">
        <ele>952</ele>
        <time>2020-06-05T10:31:45.000Z</time>
      </trkpt>
      <trkpt lat="44.04483" lon="6.84385">
        <ele>952</ele>
        <time>2020-06-05T10:31:46.000Z</time>
      </trkpt>
      <trkpt lat="44.04482" lon="6.84385">
        <ele>952</ele>
        <time>2020-06-05T10:31:47.000Z</time>
      </trkpt>
      <trkpt lat="44.04483" lon="6.84385">
        <ele>952</ele>
        <time>2020-06-05T10:31:48.000Z</time>
      </trkpt>
      <trkpt lat="44.04482" lon="6.84385">
        <ele>952</ele>
        <time>2020-06-05T10:31:49.000Z</time>
      </trkpt>
      <trkpt lat="44.04482" lon="6.84385">
        <ele>952</ele>
        <time>2020-06-05T10:31:50.000Z</time>
      </trkpt>
      <trkpt lat="44.04482" lon="6.84385">
        <ele>952</ele>
        <time>2020-06-05T10:31:51.000Z</time>
      </trkpt>
      <trkpt lat="44.04482" lon="6.84385">
        <ele>952</ele>
        <time>2020-06-05T10:31:52.000Z</time>
      </trkpt>
      <trkpt lat="44.04482" lon="6.84385">
        <ele>952</ele>
        <time>2020-06-05T10:31:53.000Z</time>
      </trkpt>
      <trkpt lat="44.04482" lon="6.84385">
        <ele>952</ele>
        <time>2020-06-05T10:31:54.000Z</time>
      </trkpt>
      <trkpt lat="44.04482" lon="6.84385">
        <ele>952</ele>
        <time>2020-06-05T10:31:55.000Z</time>
      </trkpt>
      <trkpt lat="44.04482" lon="6.84385">
        <ele>952</ele>
        <time>2020-06-05T10:31:56.000Z</time>
      </trkpt>
      <trkpt lat="44.04482" lon="6.84385">
        <ele>952</ele>
        <time>2020-06-05T10:31:57.000Z</time>
      </trkpt>
      <trkpt lat="44.04482" lon="6.84385">
        <ele>952</ele>
        <time>2020-06-05T10:31:58.000Z</time>
      </trkpt>
      <trkpt lat="44.04482" lon="6.84385">
        <ele>952</ele>
        <time>2020-06-05T10:31:59.000Z</time>
      </trkpt>
      <trkpt lat="44.04482" lon="6.84385">
        <ele>951</ele>
        <time>2020-06-05T10:32:00.000Z</time>
      </trkpt>
      <trkpt lat="44.04482" lon="6.84385">
        <ele>951</ele>
        <time>2020-06-05T10:32:01.000Z</time>
      </trkpt>
      <trkpt lat="44.04482" lon="6.84384">
        <ele>951</ele>
        <time>2020-06-05T10:32:02.000Z</time>
      </trkpt>
      <trkpt lat="44.04482" lon="6.84385">
        <ele>952</ele>
        <time>2020-06-05T10:32:03.000Z</time>
      </trkpt>
      <trkpt lat="44.04482" lon="6.84385">
        <ele>951</ele>
        <time>2020-06-05T10:32:04.000Z</time>
      </trkpt>
      <trkpt lat="44.04482" lon="6.84385">
        <ele>951</ele>
        <time>2020-06-05T10:32:05.000Z</time>
      </trkpt>
      <trkpt lat="44.04482" lon="6.84384">
        <ele>951</ele>
        <time>2020-06-05T10:32:06.000Z</time>
      </trkpt>
      <trkpt lat="44.04482" lon="6.84384">
        <ele>951</ele>
        <time>2020-06-05T10:32:07.000Z</time>
      </trkpt>
      <trkpt lat="44.04482" lon="6.84384">
        <ele>951</ele>
        <time>2020-06-05T10:32:08.000Z</time>
      </trkpt>
      <trkpt lat="44.04482" lon="6.84384">
        <ele>951</ele>
        <time>2020-06-05T10:32:09.000Z</time>
      </trkpt>
      <trkpt lat="44.04482" lon="6.84384">
        <ele>951</ele>
        <time>2020-06-05T10:32:10.000Z</time>
      </trkpt>
      <trkpt lat="44.04482" lon="6.84384">
        <ele>951</ele>
        <time>2020-06-05T10:32:11.000Z</time>
      </trkpt>
      <trkpt lat="44.04482" lon="6.84384">
        <ele>951</ele>
        <time>2020-06-05T10:32:12.000Z</time>
      </trkpt>
      <trkpt lat="44.04482" lon="6.84384">
        <ele>951</ele>
        <time>2020-06-05T10:32:13.000Z</time>
      </trkpt>
      <trkpt lat="44.04482" lon="6.84384">
        <ele>951</ele>
        <time>2020-06-05T10:32:14.000Z</time>
      </trkpt>
      <trkpt lat="44.04482" lon="6.84384">
        <ele>951</ele>
        <time>2020-06-05T10:32:15.000Z</time>
      </trkpt>
      <trkpt lat="44.04482" lon="6.84384">
        <ele>951</ele>
        <time>2020-06-05T10:32:16.000Z</time>
      </trkpt>
      <trkpt lat="44.04482" lon="6.84384">
        <ele>951</ele>
        <time>2020-06-05T10:32:17.000Z</time>
      </trkpt>
      <trkpt lat="44.04482" lon="6.84384">
        <ele>951</ele>
        <time>2020-06-05T10:32:18.000Z</time>
      </trkpt>
      <trkpt lat="44.04482" lon="6.84384">
        <ele>951</ele>
        <time>2020-06-05T10:32:19.000Z</time>
      </trkpt>
      <trkpt lat="44.04482" lon="6.84384">
        <ele>951</ele>
        <time>2020-06-05T10:32:20.000Z</time>
      </trkpt>
      <trkpt lat="44.04482" lon="6.84384">
        <ele>951</ele>
        <time>2020-06-05T10:32:21.000Z</time>
      </trkpt>
      <trkpt lat="44.04482" lon="6.84384">
        <ele>951</ele>
        <time>2020-06-05T10:32:22.000Z</time>
      </trkpt>
      <trkpt lat="44.04482" lon="6.84384">
        <ele>951</ele>
        <time>2020-06-05T10:32:23.000Z</time>
      </trkpt>
      <trkpt lat="44.04482" lon="6.84384">
        <ele>951</ele>
        <time>2020-06-05T10:32:24.000Z</time>
      </trkpt>
      <trkpt lat="44.04482" lon="6.84384">
        <ele>951</ele>
        <time>2020-06-05T10:32:25.000Z</time>
      </trkpt>
      <trkpt lat="44.04482" lon="6.84384">
        <ele>951</ele>
        <time>2020-06-05T10:32:26.000Z</time>
      </trkpt>
      <trkpt lat="44.04482" lon="6.84384">
        <ele>951</ele>
        <time>2020-06-05T10:32:27.000Z</time>
      </trkpt>
      <trkpt lat="44.04482" lon="6.84384">
        <ele>951</ele>
        <time>2020-06-05T10:32:28.000Z</time>
      </trkpt>
      <trkpt lat="44.04482" lon="6.84384">
        <ele>951</ele>
        <time>2020-06-05T10:32:29.000Z</time>
      </trkpt>
      <trkpt lat="44.04482" lon="6.84384">
        <ele>951</ele>
        <time>2020-06-05T10:32:30.000Z</time>
      </trkpt>
      <trkpt lat="44.04482" lon="6.84384">
        <ele>951</ele>
        <time>2020-06-05T10:32:31.000Z</time>
      </trkpt>
      <trkpt lat="44.04482" lon="6.84384">
        <ele>951</ele>
        <time>2020-06-05T10:32:32.000Z</time>
      </trkpt>
      <trkpt lat="44.04482" lon="6.84384">
        <ele>951</ele>
        <time>2020-06-05T10:32:33.000Z</time>
      </trkpt>
      <trkpt lat="44.04482" lon="6.84384">
        <ele>951</ele>
        <time>2020-06-05T10:32:34.000Z</time>
      </trkpt>
      <trkpt lat="44.04482" lon="6.84384">
        <ele>951</ele>
        <time>2020-06-05T10:32:35.000Z</time>
      </trkpt>
      <trkpt lat="44.04482" lon="6.84384">
        <ele>951</ele>
        <time>2020-06-05T10:32:36.000Z</time>
      </trkpt>
      <trkpt lat="44.04482" lon="6.84384">
        <ele>951</ele>
        <time>2020-06-05T10:32:37.000Z</time>
      </trkpt>
      <trkpt lat="44.04481" lon="6.84384">
        <ele>951</ele>
        <time>2020-06-05T10:32:38.000Z</time>
      </trkpt>
      <trkpt lat="44.04481" lon="6.84384">
        <ele>951</ele>
        <time>2020-06-05T10:32:39.000Z</time>
      </trkpt>
      <trkpt lat="44.04481" lon="6.84384">
        <ele>951</ele>
        <time>2020-06-05T10:32:40.000Z</time>
      </trkpt>
      <trkpt lat="44.04481" lon="6.84383">
        <ele>952</ele>
        <time>2020-06-05T10:32:41.000Z</time>
      </trkpt>
      <trkpt lat="44.0448" lon="6.84383">
        <ele>951</ele>
        <time>2020-06-05T10:32:42.000Z</time>
      </trkpt>
      <trkpt lat="44.0448" lon="6.84382">
        <ele>951</ele>
        <time>2020-06-05T10:32:43.000Z</time>
      </trkpt>
      <trkpt lat="44.0448" lon="6.84381">
        <ele>951</ele>
        <time>2020-06-05T10:32:44.000Z</time>
      </trkpt>
      <trkpt lat="44.04479" lon="6.8438">
        <ele>951</ele>
        <time>2020-06-05T10:32:45.000Z</time>
      </trkpt>
      <trkpt lat="44.04479" lon="6.84379">
        <ele>951</ele>
        <time>2020-06-05T10:32:46.000Z</time>
      </trkpt>
      <trkpt lat="44.04479" lon="6.84379">
        <ele>951</ele>
        <time>2020-06-05T10:32:47.000Z</time>
      </trkpt>
      <trkpt lat="44.04479" lon="6.84378">
        <ele>951</ele>
        <time>2020-06-05T10:32:48.000Z</time>
      </trkpt>
      <trkpt lat="44.04479" lon="6.84378">
        <ele>951</ele>
        <time>2020-06-05T10:32:49.000Z</time>
      </trkpt>
      <trkpt lat="44.04479" lon="6.84378">
        <ele>951</ele>
        <time>2020-06-05T10:32:50.000Z</time>
      </trkpt>
      <trkpt lat="44.04479" lon="6.84378">
        <ele>951</ele>
        <time>2020-06-05T10:32:51.000Z</time>
      </trkpt>
      <trkpt lat="44.04479" lon="6.84378">
        <ele>951</ele>
        <time>2020-06-05T10:32:52.000Z</time>
      </trkpt>
      <trkpt lat="44.04479" lon="6.84378">
        <ele>951</ele>
        <time>2020-06-05T10:32:53.000Z</time>
      </trkpt>
      <trkpt lat="44.04479" lon="6.84378">
        <ele>951</ele>
        <time>2020-06-05T10:32:54.000Z</time>
      </trkpt>
      <trkpt lat="44.04479" lon="6.84378">
        <ele>950</ele>
        <time>2020-06-05T10:32:55.000Z</time>
      </trkpt>
      <trkpt lat="44.04479" lon="6.84378">
        <ele>950</ele>
        <time>2020-06-05T10:32:56.000Z</time>
      </trkpt>
      <trkpt lat="44.04479" lon="6.84378">
        <ele>950</ele>
        <time>2020-06-05T10:32:57.000Z</time>
      </trkpt>
      <trkpt lat="44.04478" lon="6.84378">
        <ele>950</ele>
        <time>2020-06-05T10:32:58.000Z</time>
      </trkpt>
      <trkpt lat="44.04478" lon="6.84378">
        <ele>950</ele>
        <time>2020-06-05T10:32:59.000Z</time>
      </trkpt>
      <trkpt lat="44.04478" lon="6.84378">
        <ele>950</ele>
        <time>2020-06-05T10:33:00.000Z</time>
      </trkpt>
      <trkpt lat="44.04478" lon="6.84378">
        <ele>950</ele>
        <time>2020-06-05T10:33:01.000Z</time>
      </trkpt>
      <trkpt lat="44.04478" lon="6.84378">
        <ele>950</ele>
        <time>2020-06-05T10:33:02.000Z</time>
      </trkpt>
      <trkpt lat="44.04478" lon="6.84378">
        <ele>950</ele>
        <time>2020-06-05T10:33:03.000Z</time>
      </trkpt>
      <trkpt lat="44.04478" lon="6.84378">
        <ele>950</ele>
        <time>2020-06-05T10:33:04.000Z</time>
      </trkpt>
      <trkpt lat="44.04478" lon="6.84378">
        <ele>950</ele>
        <time>2020-06-05T10:33:05.000Z</time>
      </trkpt>
      <trkpt lat="44.04478" lon="6.84378">
        <ele>950</ele>
        <time>2020-06-05T10:33:06.000Z</time>
      </trkpt>
      <trkpt lat="44.04478" lon="6.84378">
        <ele>950</ele>
        <time>2020-06-05T10:33:07.000Z</time>
      </trkpt>
      <trkpt lat="44.04478" lon="6.84378">
        <ele>950</ele>
        <time>2020-06-05T10:33:08.000Z</time>
      </trkpt>
      <trkpt lat="44.04478" lon="6.84378">
        <ele>950</ele>
        <time>2020-06-05T10:33:09.000Z</time>
      </trkpt>
      <trkpt lat="44.04478" lon="6.84378">
        <ele>950</ele>
        <time>2020-06-05T10:33:10.000Z</time>
      </trkpt>
      <trkpt lat="44.04478" lon="6.84378">
        <ele>950</ele>
        <time>2020-06-05T10:33:11.000Z</time>
      </trkpt>
      <trkpt lat="44.04478" lon="6.84378">
        <ele>950</ele>
        <time>2020-06-05T10:33:12.000Z</time>
      </trkpt>
      <trkpt lat="44.04478" lon="6.84378">
        <ele>950</ele>
        <time>2020-06-05T10:33:13.000Z</time>
      </trkpt>
      <trkpt lat="44.04478" lon="6.84378">
        <ele>950</ele>
        <time>2020-06-05T10:33:14.000Z</time>
      </trkpt>
      <trkpt lat="44.04479" lon="6.84378">
        <ele>950</ele>
        <time>2020-06-05T10:33:15.000Z</time>
      </trkpt>
      <trkpt lat="44.04479" lon="6.84378">
        <ele>950</ele>
        <time>2020-06-05T10:33:16.000Z</time>
      </trkpt>
      <trkpt lat="44.04479" lon="6.84379">
        <ele>950</ele>
        <time>2020-06-05T10:33:17.000Z</time>
      </trkpt>
      <trkpt lat="44.04479" lon="6.84379">
        <ele>950</ele>
        <time>2020-06-05T10:33:18.000Z</time>
      </trkpt>
      <trkpt lat="44.04479" lon="6.84379">
        <ele>950</ele>
        <time>2020-06-05T10:33:19.000Z</time>
      </trkpt>
      <trkpt lat="44.04479" lon="6.84379">
        <ele>950</ele>
        <time>2020-06-05T10:33:20.000Z</time>
      </trkpt>
      <trkpt lat="44.04479" lon="6.84379">
        <ele>950</ele>
        <time>2020-06-05T10:33:21.000Z</time>
      </trkpt>
      <trkpt lat="44.04479" lon="6.8438">
        <ele>950</ele>
        <time>2020-06-05T10:33:22.000Z</time>
      </trkpt>
      <trkpt lat="44.04479" lon="6.84379">
        <ele>950</ele>
        <time>2020-06-05T10:33:23.000Z</time>
      </trkpt>
      <trkpt lat="44.04479" lon="6.84379">
        <ele>950</ele>
        <time>2020-06-05T10:33:24.000Z</time>
      </trkpt>
      <trkpt lat="44.04479" lon="6.84379">
        <ele>950</ele>
        <time>2020-06-05T10:33:25.000Z</time>
      </trkpt>
      <trkpt lat="44.04479" lon="6.84379">
        <ele>950</ele>
        <time>2020-06-05T10:33:26.000Z</time>
      </trkpt>
      <trkpt lat="44.04479" lon="6.84379">
        <ele>950</ele>
        <time>2020-06-05T10:33:27.000Z</time>
      </trkpt>
      <trkpt lat="44.04479" lon="6.84379">
        <ele>950</ele>
        <time>2020-06-05T10:33:28.000Z</time>
      </trkpt>
      <trkpt lat="44.04479" lon="6.84379">
        <ele>950</ele>
        <time>2020-06-05T10:33:29.000Z</time>
      </trkpt>
      <trkpt lat="44.04478" lon="6.84379">
        <ele>950</ele>
        <time>2020-06-05T10:33:30.000Z</time>
      </trkpt>
      <trkpt lat="44.04478" lon="6.84378">
        <ele>950</ele>
        <time>2020-06-05T10:33:31.000Z</time>
      </trkpt>
      <trkpt lat="44.04478" lon="6.84378">
        <ele>950</ele>
        <time>2020-06-05T10:33:32.000Z</time>
      </trkpt>
      <trkpt lat="44.04478" lon="6.84378">
        <ele>950</ele>
        <time>2020-06-05T10:33:33.000Z</time>
      </trkpt>
      <trkpt lat="44.04478" lon="6.84378">
        <ele>950</ele>
        <time>2020-06-05T10:33:34.000Z</time>
      </trkpt>
      <trkpt lat="44.04478" lon="6.84377">
        <ele>950</ele>
        <time>2020-06-05T10:33:35.000Z</time>
      </trkpt>
      <trkpt lat="44.04478" lon="6.84377">
        <ele>950</ele>
        <time>2020-06-05T10:33:36.000Z</time>
      </trkpt>
      <trkpt lat="44.04478" lon="6.84376">
        <ele>950</ele>
        <time>2020-06-05T10:33:37.000Z</time>
      </trkpt>
      <trkpt lat="44.04478" lon="6.84376">
        <ele>950</ele>
        <time>2020-06-05T10:33:38.000Z</time>
      </trkpt>
      <trkpt lat="44.04478" lon="6.84375">
        <ele>950</ele>
        <time>2020-06-05T10:33:39.000Z</time>
      </trkpt>
      <trkpt lat="44.04477" lon="6.84375">
        <ele>950</ele>
        <time>2020-06-05T10:33:40.000Z</time>
      </trkpt>
      <trkpt lat="44.04477" lon="6.84376">
        <ele>949</ele>
        <time>2020-06-05T10:33:41.000Z</time>
      </trkpt>
      <trkpt lat="44.04477" lon="6.84377">
        <ele>949</ele>
        <time>2020-06-05T10:33:42.000Z</time>
      </trkpt>
      <trkpt lat="44.04477" lon="6.84378">
        <ele>949</ele>
        <time>2020-06-05T10:33:43.000Z</time>
      </trkpt>
      <trkpt lat="44.04477" lon="6.84378">
        <ele>949</ele>
        <time>2020-06-05T10:33:44.000Z</time>
      </trkpt>
      <trkpt lat="44.04476" lon="6.84379">
        <ele>949</ele>
        <time>2020-06-05T10:33:45.000Z</time>
      </trkpt>
      <trkpt lat="44.04476" lon="6.8438">
        <ele>949</ele>
        <time>2020-06-05T10:33:46.000Z</time>
      </trkpt>
      <trkpt lat="44.04476" lon="6.8438">
        <ele>949</ele>
        <time>2020-06-05T10:33:47.000Z</time>
      </trkpt>
      <trkpt lat="44.04476" lon="6.8438">
        <ele>949</ele>
        <time>2020-06-05T10:33:48.000Z</time>
      </trkpt>
      <trkpt lat="44.04475" lon="6.8438">
        <ele>949</ele>
        <time>2020-06-05T10:33:49.000Z</time>
      </trkpt>
      <trkpt lat="44.04475" lon="6.8438">
        <ele>949</ele>
        <time>2020-06-05T10:33:50.000Z</time>
      </trkpt>
      <trkpt lat="44.04475" lon="6.8438">
        <ele>949</ele>
        <time>2020-06-05T10:33:51.000Z</time>
      </trkpt>
      <trkpt lat="44.04475" lon="6.8438">
        <ele>949</ele>
        <time>2020-06-05T10:33:52.000Z</time>
      </trkpt>
      <trkpt lat="44.04475" lon="6.8438">
        <ele>949</ele>
        <time>2020-06-05T10:33:53.000Z</time>
      </trkpt>
      <trkpt lat="44.04475" lon="6.84381">
        <ele>949</ele>
        <time>2020-06-05T10:33:54.000Z</time>
      </trkpt>
      <trkpt lat="44.04474" lon="6.84381">
        <ele>949</ele>
        <time>2020-06-05T10:33:55.000Z</time>
      </trkpt>
      <trkpt lat="44.04474" lon="6.8438">
        <ele>949</ele>
        <time>2020-06-05T10:33:56.000Z</time>
      </trkpt>
      <trkpt lat="44.04474" lon="6.8438">
        <ele>949</ele>
        <time>2020-06-05T10:33:57.000Z</time>
      </trkpt>
      <trkpt lat="44.04474" lon="6.8438">
        <ele>948</ele>
        <time>2020-06-05T10:33:58.000Z</time>
      </trkpt>
      <trkpt lat="44.04473" lon="6.8438">
        <ele>948</ele>
        <time>2020-06-05T10:33:59.000Z</time>
      </trkpt>
      <trkpt lat="44.04473" lon="6.8438">
        <ele>948</ele>
        <time>2020-06-05T10:34:00.000Z</time>
      </trkpt>
      <trkpt lat="44.04473" lon="6.84381">
        <ele>948</ele>
        <time>2020-06-05T10:34:01.000Z</time>
      </trkpt>
      <trkpt lat="44.04473" lon="6.84381">
        <ele>948</ele>
        <time>2020-06-05T10:34:02.000Z</time>
      </trkpt>
      <trkpt lat="44.04473" lon="6.84382">
        <ele>948</ele>
        <time>2020-06-05T10:34:03.000Z</time>
      </trkpt>
      <trkpt lat="44.04473" lon="6.84383">
        <ele>948</ele>
        <time>2020-06-05T10:34:04.000Z</time>
      </trkpt>
      <trkpt lat="44.04473" lon="6.84384">
        <ele>948</ele>
        <time>2020-06-05T10:34:05.000Z</time>
      </trkpt>
      <trkpt lat="44.04472" lon="6.84385">
        <ele>948</ele>
        <time>2020-06-05T10:34:06.000Z</time>
      </trkpt>
      <trkpt lat="44.04472" lon="6.84385">
        <ele>948</ele>
        <time>2020-06-05T10:34:07.000Z</time>
      </trkpt>
      <trkpt lat="44.04472" lon="6.84386">
        <ele>948</ele>
        <time>2020-06-05T10:34:08.000Z</time>
      </trkpt>
      <trkpt lat="44.04472" lon="6.84386">
        <ele>948</ele>
        <time>2020-06-05T10:34:09.000Z</time>
      </trkpt>
      <trkpt lat="44.04472" lon="6.84386">
        <ele>948</ele>
        <time>2020-06-05T10:34:10.000Z</time>
      </trkpt>
      <trkpt lat="44.04473" lon="6.84386">
        <ele>948</ele>
        <time>2020-06-05T10:34:11.000Z</time>
      </trkpt>
      <trkpt lat="44.04473" lon="6.84386">
        <ele>948</ele>
        <time>2020-06-05T10:34:12.000Z</time>
      </trkpt>
      <trkpt lat="44.04473" lon="6.84387">
        <ele>948</ele>
        <time>2020-06-05T10:34:13.000Z</time>
      </trkpt>
      <trkpt lat="44.04473" lon="6.84387">
        <ele>948</ele>
        <time>2020-06-05T10:34:14.000Z</time>
      </trkpt>
      <trkpt lat="44.04473" lon="6.84387">
        <ele>948</ele>
        <time>2020-06-05T10:34:15.000Z</time>
      </trkpt>
      <trkpt lat="44.04473" lon="6.84387">
        <ele>948</ele>
        <time>2020-06-05T10:34:16.000Z</time>
      </trkpt>
      <trkpt lat="44.04473" lon="6.84387">
        <ele>948</ele>
        <time>2020-06-05T10:34:17.000Z</time>
      </trkpt>
      <trkpt lat="44.04473" lon="6.84386">
        <ele>948</ele>
        <time>2020-06-05T10:34:18.000Z</time>
      </trkpt>
      <trkpt lat="44.04473" lon="6.84386">
        <ele>948</ele>
        <time>2020-06-05T10:34:19.000Z</time>
      </trkpt>
      <trkpt lat="44.04473" lon="6.84386">
        <ele>948</ele>
        <time>2020-06-05T10:34:20.000Z</time>
      </trkpt>
      <trkpt lat="44.04473" lon="6.84386">
        <ele>948</ele>
        <time>2020-06-05T10:34:21.000Z</time>
      </trkpt>
      <trkpt lat="44.04473" lon="6.84386">
        <ele>948</ele>
        <time>2020-06-05T10:34:22.000Z</time>
      </trkpt>
      <trkpt lat="44.04473" lon="6.84385">
        <ele>948</ele>
        <time>2020-06-05T10:34:23.000Z</time>
      </trkpt>
      <trkpt lat="44.04473" lon="6.84385">
        <ele>948</ele>
        <time>2020-06-05T10:34:24.000Z</time>
      </trkpt>
      <trkpt lat="44.04473" lon="6.84385">
        <ele>948</ele>
        <time>2020-06-05T10:34:25.000Z</time>
      </trkpt>
      <trkpt lat="44.04473" lon="6.84385">
        <ele>948</ele>
        <time>2020-06-05T10:34:26.000Z</time>
      </trkpt>
      <trkpt lat="44.04473" lon="6.84385">
        <ele>948</ele>
        <time>2020-06-05T10:34:27.000Z</time>
      </trkpt>
      <trkpt lat="44.04473" lon="6.84385">
        <ele>948</ele>
        <time>2020-06-05T10:34:28.000Z</time>
      </trkpt>
      <trkpt lat="44.04474" lon="6.84385">
        <ele>948</ele>
        <time>2020-06-05T10:34:29.000Z</time>
      </trkpt>
      <trkpt lat="44.04474" lon="6.84385">
        <ele>947</ele>
        <time>2020-06-05T10:34:30.000Z</time>
      </trkpt>
      <trkpt lat="44.04474" lon="6.84385">
        <ele>947</ele>
        <time>2020-06-05T10:34:31.000Z</time>
      </trkpt>
      <trkpt lat="44.04473" lon="6.84385">
        <ele>947</ele>
        <time>2020-06-05T10:34:32.000Z</time>
      </trkpt>
      <trkpt lat="44.04474" lon="6.84385">
        <ele>947</ele>
        <time>2020-06-05T10:34:33.000Z</time>
      </trkpt>
      <trkpt lat="44.04474" lon="6.84384">
        <ele>947</ele>
        <time>2020-06-05T10:34:34.000Z</time>
      </trkpt>
      <trkpt lat="44.04474" lon="6.84384">
        <ele>947</ele>
        <time>2020-06-05T10:34:35.000Z</time>
      </trkpt>
      <trkpt lat="44.04474" lon="6.84384">
        <ele>947</ele>
        <time>2020-06-05T10:34:36.000Z</time>
      </trkpt>
      <trkpt lat="44.04474" lon="6.84384">
        <ele>947</ele>
        <time>2020-06-05T10:34:37.000Z</time>
      </trkpt>
      <trkpt lat="44.04473" lon="6.84384">
        <ele>947</ele>
        <time>2020-06-05T10:34:38.000Z</time>
      </trkpt>
      <trkpt lat="44.04473" lon="6.84384">
        <ele>947</ele>
        <time>2020-06-05T10:34:39.000Z</time>
      </trkpt>
      <trkpt lat="44.04473" lon="6.84384">
        <ele>947</ele>
        <time>2020-06-05T10:34:40.000Z</time>
      </trkpt>
      <trkpt lat="44.04473" lon="6.84384">
        <ele>947</ele>
        <time>2020-06-05T10:34:41.000Z</time>
      </trkpt>
      <trkpt lat="44.04473" lon="6.84384">
        <ele>947</ele>
        <time>2020-06-05T10:34:42.000Z</time>
      </trkpt>
      <trkpt lat="44.04473" lon="6.84384">
        <ele>947</ele>
        <time>2020-06-05T10:34:43.000Z</time>
      </trkpt>
      <trkpt lat="44.04473" lon="6.84384">
        <ele>947</ele>
        <time>2020-06-05T10:34:44.000Z</time>
      </trkpt>
      <trkpt lat="44.04473" lon="6.84384">
        <ele>947</ele>
        <time>2020-06-05T10:34:45.000Z</time>
      </trkpt>
      <trkpt lat="44.04473" lon="6.84384">
        <ele>947</ele>
        <time>2020-06-05T10:34:46.000Z</time>
      </trkpt>
      <trkpt lat="44.04473" lon="6.84384">
        <ele>947</ele>
        <time>2020-06-05T10:34:47.000Z</time>
      </trkpt>
      <trkpt lat="44.04473" lon="6.84384">
        <ele>947</ele>
        <time>2020-06-05T10:34:48.000Z</time>
      </trkpt>
      <trkpt lat="44.04473" lon="6.84384">
        <ele>947</ele>
        <time>2020-06-05T10:34:49.000Z</time>
      </trkpt>
      <trkpt lat="44.04473" lon="6.84384">
        <ele>947</ele>
        <time>2020-06-05T10:34:50.000Z</time>
      </trkpt>
      <trkpt lat="44.04473" lon="6.84384">
        <ele>947</ele>
        <time>2020-06-05T10:34:51.000Z</time>
      </trkpt>
      <trkpt lat="44.04473" lon="6.84384">
        <ele>947</ele>
        <time>2020-06-05T10:34:52.000Z</time>
      </trkpt>
      <trkpt lat="44.04473" lon="6.84384">
        <ele>947</ele>
        <time>2020-06-05T10:34:53.000Z</time>
      </trkpt>
      <trkpt lat="44.04473" lon="6.84384">
        <ele>947</ele>
        <time>2020-06-05T10:34:54.000Z</time>
      </trkpt>
      <trkpt lat="44.04473" lon="6.84384">
        <ele>947</ele>
        <time>2020-06-05T10:34:55.000Z</time>
      </trkpt>
      <trkpt lat="44.04473" lon="6.84384">
        <ele>947</ele>
        <time>2020-06-05T10:34:56.000Z</time>
      </trkpt>
      <trkpt lat="44.04473" lon="6.84384">
        <ele>947</ele>
        <time>2020-06-05T10:34:57.000Z</time>
      </trkpt>
      <trkpt lat="44.04473" lon="6.84384">
        <ele>947</ele>
        <time>2020-06-05T10:34:58.000Z</time>
      </trkpt>
      <trkpt lat="44.04473" lon="6.84384">
        <ele>947</ele>
        <time>2020-06-05T10:34:59.000Z</time>
      </trkpt>
      <trkpt lat="44.04473" lon="6.84384">
        <ele>947</ele>
        <time>2020-06-05T10:35:00.000Z</time>
      </trkpt>
      <trkpt lat="44.04473" lon="6.84383">
        <ele>948</ele>
        <time>2020-06-05T10:35:01.000Z</time>
      </trkpt>
      <trkpt lat="44.04473" lon="6.84383">
        <ele>947</ele>
        <time>2020-06-05T10:35:02.000Z</time>
      </trkpt>
      <trkpt lat="44.04473" lon="6.84383">
        <ele>947</ele>
        <time>2020-06-05T10:35:03.000Z</time>
      </trkpt>
      <trkpt lat="44.04473" lon="6.84383">
        <ele>947</ele>
        <time>2020-06-05T10:35:04.000Z</time>
      </trkpt>
      <trkpt lat="44.04473" lon="6.84383">
        <ele>948</ele>
        <time>2020-06-05T10:35:05.000Z</time>
      </trkpt>
      <trkpt lat="44.04473" lon="6.84383">
        <ele>948</ele>
        <time>2020-06-05T10:35:06.000Z</time>
      </trkpt>
      <trkpt lat="44.04473" lon="6.84383">
        <ele>948</ele>
        <time>2020-06-05T10:35:07.000Z</time>
      </trkpt>
      <trkpt lat="44.04473" lon="6.84383">
        <ele>948</ele>
        <time>2020-06-05T10:35:08.000Z</time>
      </trkpt>
      <trkpt lat="44.04473" lon="6.84383">
        <ele>948</ele>
        <time>2020-06-05T10:35:09.000Z</time>
      </trkpt>
      <trkpt lat="44.04473" lon="6.84383">
        <ele>948</ele>
        <time>2020-06-05T10:35:10.000Z</time>
      </trkpt>
      <trkpt lat="44.04473" lon="6.84383">
        <ele>948</ele>
        <time>2020-06-05T10:35:11.000Z</time>
      </trkpt>
      <trkpt lat="44.04473" lon="6.84383">
        <ele>948</ele>
        <time>2020-06-05T10:35:12.000Z</time>
      </trkpt>
      <trkpt lat="44.04473" lon="6.84384">
        <ele>947</ele>
        <time>2020-06-05T10:35:13.000Z</time>
      </trkpt>
      <trkpt lat="44.04473" lon="6.84384">
        <ele>947</ele>
        <time>2020-06-05T10:35:14.000Z</time>
      </trkpt>
      <trkpt lat="44.04473" lon="6.84384">
        <ele>947</ele>
        <time>2020-06-05T10:35:15.000Z</time>
      </trkpt>
      <trkpt lat="44.04473" lon="6.84384">
        <ele>947</ele>
        <time>2020-06-05T10:35:16.000Z</time>
      </trkpt>
      <trkpt lat="44.04473" lon="6.84383">
        <ele>947</ele>
        <time>2020-06-05T10:35:17.000Z</time>
      </trkpt>
      <trkpt lat="44.04473" lon="6.84383">
        <ele>947</ele>
        <time>2020-06-05T10:35:18.000Z</time>
      </trkpt>
      <trkpt lat="44.04473" lon="6.84383">
        <ele>947</ele>
        <time>2020-06-05T10:35:19.000Z</time>
      </trkpt>
      <trkpt lat="44.04473" lon="6.84383">
        <ele>947</ele>
        <time>2020-06-05T10:35:20.000Z</time>
      </trkpt>
      <trkpt lat="44.04473" lon="6.84383">
        <ele>947</ele>
        <time>2020-06-05T10:35:21.000Z</time>
      </trkpt>
      <trkpt lat="44.04473" lon="6.84384">
        <ele>947</ele>
        <time>2020-06-05T10:35:22.000Z</time>
      </trkpt>
      <trkpt lat="44.04473" lon="6.84384">
        <ele>947</ele>
        <time>2020-06-05T10:35:23.000Z</time>
      </trkpt>
      <trkpt lat="44.04474" lon="6.8438">
        <ele>949</ele>
        <time>2020-06-05T10:35:24.000Z</time>
      </trkpt>
      <trkpt lat="44.04475" lon="6.8438">
        <ele>949</ele>
        <time>2020-06-05T10:35:25.000Z</time>
      </trkpt>
      <trkpt lat="44.04475" lon="6.84379">
        <ele>949</ele>
        <time>2020-06-05T10:35:26.000Z</time>
      </trkpt>
      <trkpt lat="44.04475" lon="6.84378">
        <ele>949</ele>
        <time>2020-06-05T10:35:27.000Z</time>
      </trkpt>
      <trkpt lat="44.04475" lon="6.84377">
        <ele>949</ele>
        <time>2020-06-05T10:35:28.000Z</time>
      </trkpt>
      <trkpt lat="44.04475" lon="6.84377">
        <ele>949</ele>
        <time>2020-06-05T10:35:29.000Z</time>
      </trkpt>
      <trkpt lat="44.04475" lon="6.84376">
        <ele>949</ele>
        <time>2020-06-05T10:35:30.000Z</time>
      </trkpt>
      <trkpt lat="44.04476" lon="6.84375">
        <ele>949</ele>
        <time>2020-06-05T10:35:31.000Z</time>
      </trkpt>
      <trkpt lat="44.04476" lon="6.84375">
        <ele>949</ele>
        <time>2020-06-05T10:35:32.000Z</time>
      </trkpt>
      <trkpt lat="44.04476" lon="6.84374">
        <ele>949</ele>
        <time>2020-06-05T10:35:33.000Z</time>
      </trkpt>
      <trkpt lat="44.04476" lon="6.84374">
        <ele>949</ele>
        <time>2020-06-05T10:35:34.000Z</time>
      </trkpt>
      <trkpt lat="44.04477" lon="6.84373">
        <ele>949</ele>
        <time>2020-06-05T10:35:35.000Z</time>
      </trkpt>
      <trkpt lat="44.04477" lon="6.84373">
        <ele>949</ele>
        <time>2020-06-05T10:35:36.000Z</time>
      </trkpt>
      <trkpt lat="44.04477" lon="6.84373">
        <ele>949</ele>
        <time>2020-06-05T10:35:37.000Z</time>
      </trkpt>
      <trkpt lat="44.04477" lon="6.84373">
        <ele>949</ele>
        <time>2020-06-05T10:35:38.000Z</time>
      </trkpt>
      <trkpt lat="44.04477" lon="6.84373">
        <ele>949</ele>
        <time>2020-06-05T10:35:39.000Z</time>
      </trkpt>
      <trkpt lat="44.04477" lon="6.84372">
        <ele>949</ele>
        <time>2020-06-05T10:35:40.000Z</time>
      </trkpt>
      <trkpt lat="44.04477" lon="6.84371">
        <ele>949</ele>
        <time>2020-06-05T10:35:41.000Z</time>
      </trkpt>
      <trkpt lat="44.04477" lon="6.84371">
        <ele>949</ele>
        <time>2020-06-05T10:35:42.000Z</time>
      </trkpt>
      <trkpt lat="44.04477" lon="6.8437">
        <ele>949</ele>
        <time>2020-06-05T10:35:43.000Z</time>
      </trkpt>
      <trkpt lat="44.04477" lon="6.84369">
        <ele>949</ele>
        <time>2020-06-05T10:35:44.000Z</time>
      </trkpt>
      <trkpt lat="44.04477" lon="6.84368">
        <ele>949</ele>
        <time>2020-06-05T10:35:45.000Z</time>
      </trkpt>
      <trkpt lat="44.04477" lon="6.84368">
        <ele>949</ele>
        <time>2020-06-05T10:35:46.000Z</time>
      </trkpt>
      <trkpt lat="44.04477" lon="6.84367">
        <ele>949</ele>
        <time>2020-06-05T10:35:47.000Z</time>
      </trkpt>
      <trkpt lat="44.04476" lon="6.84366">
        <ele>949</ele>
        <time>2020-06-05T10:35:48.000Z</time>
      </trkpt>
      <trkpt lat="44.04476" lon="6.84366">
        <ele>949</ele>
        <time>2020-06-05T10:35:49.000Z</time>
      </trkpt>
      <trkpt lat="44.04476" lon="6.84366">
        <ele>949</ele>
        <time>2020-06-05T10:35:50.000Z</time>
      </trkpt>
      <trkpt lat="44.04476" lon="6.84366">
        <ele>949</ele>
        <time>2020-06-05T10:35:51.000Z</time>
      </trkpt>
      <trkpt lat="44.04476" lon="6.84366">
        <ele>949</ele>
        <time>2020-06-05T10:35:52.000Z</time>
      </trkpt>
      <trkpt lat="44.04476" lon="6.84366">
        <ele>949</ele>
        <time>2020-06-05T10:35:53.000Z</time>
      </trkpt>
      <trkpt lat="44.04476" lon="6.84366">
        <ele>949</ele>
        <time>2020-06-05T10:35:54.000Z</time>
      </trkpt>
      <trkpt lat="44.04475" lon="6.84366">
        <ele>949</ele>
        <time>2020-06-05T10:35:55.000Z</time>
      </trkpt>
      <trkpt lat="44.04476" lon="6.84366">
        <ele>949</ele>
        <time>2020-06-05T10:35:56.000Z</time>
      </trkpt>
      <trkpt lat="44.04476" lon="6.84366">
        <ele>949</ele>
        <time>2020-06-05T10:35:57.000Z</time>
      </trkpt>
      <trkpt lat="44.04475" lon="6.84366">
        <ele>949</ele>
        <time>2020-06-05T10:35:58.000Z</time>
      </trkpt>
      <trkpt lat="44.04475" lon="6.84365">
        <ele>949</ele>
        <time>2020-06-05T10:35:59.000Z</time>
      </trkpt>
      <trkpt lat="44.04475" lon="6.84364">
        <ele>949</ele>
        <time>2020-06-05T10:36:00.000Z</time>
      </trkpt>
      <trkpt lat="44.04476" lon="6.84363">
        <ele>949</ele>
        <time>2020-06-05T10:36:01.000Z</time>
      </trkpt>
      <trkpt lat="44.04476" lon="6.84363">
        <ele>948</ele>
        <time>2020-06-05T10:36:02.000Z</time>
      </trkpt>
      <trkpt lat="44.04476" lon="6.84362">
        <ele>948</ele>
        <time>2020-06-05T10:36:03.000Z</time>
      </trkpt>
      <trkpt lat="44.04476" lon="6.84361">
        <ele>948</ele>
        <time>2020-06-05T10:36:04.000Z</time>
      </trkpt>
      <trkpt lat="44.04476" lon="6.8436">
        <ele>948</ele>
        <time>2020-06-05T10:36:05.000Z</time>
      </trkpt>
      <trkpt lat="44.04476" lon="6.84359">
        <ele>948</ele>
        <time>2020-06-05T10:36:06.000Z</time>
      </trkpt>
      <trkpt lat="44.04477" lon="6.84358">
        <ele>948</ele>
        <time>2020-06-05T10:36:07.000Z</time>
      </trkpt>
      <trkpt lat="44.04477" lon="6.84357">
        <ele>948</ele>
        <time>2020-06-05T10:36:08.000Z</time>
      </trkpt>
      <trkpt lat="44.04478" lon="6.84356">
        <ele>948</ele>
        <time>2020-06-05T10:36:09.000Z</time>
      </trkpt>
      <trkpt lat="44.04479" lon="6.84355">
        <ele>948</ele>
        <time>2020-06-05T10:36:10.000Z</time>
      </trkpt>
      <trkpt lat="44.04479" lon="6.84354">
        <ele>948</ele>
        <time>2020-06-05T10:36:11.000Z</time>
      </trkpt>
      <trkpt lat="44.0448" lon="6.84353">
        <ele>948</ele>
        <time>2020-06-05T10:36:12.000Z</time>
      </trkpt>
      <trkpt lat="44.0448" lon="6.84352">
        <ele>947</ele>
        <time>2020-06-05T10:36:13.000Z</time>
      </trkpt>
      <trkpt lat="44.04481" lon="6.84351">
        <ele>947</ele>
        <time>2020-06-05T10:36:14.000Z</time>
      </trkpt>
      <trkpt lat="44.04482" lon="6.8435">
        <ele>947</ele>
        <time>2020-06-05T10:36:15.000Z</time>
      </trkpt>
      <trkpt lat="44.04483" lon="6.84349">
        <ele>947</ele>
        <time>2020-06-05T10:36:16.000Z</time>
      </trkpt>
      <trkpt lat="44.04484" lon="6.84348">
        <ele>947</ele>
        <time>2020-06-05T10:36:17.000Z</time>
      </trkpt>
      <trkpt lat="44.04484" lon="6.84347">
        <ele>947</ele>
        <time>2020-06-05T10:36:18.000Z</time>
      </trkpt>
      <trkpt lat="44.04484" lon="6.84347">
        <ele>947</ele>
        <time>2020-06-05T10:36:19.000Z</time>
      </trkpt>
      <trkpt lat="44.04484" lon="6.84346">
        <ele>947</ele>
        <time>2020-06-05T10:36:20.000Z</time>
      </trkpt>
      <trkpt lat="44.04484" lon="6.84345">
        <ele>946</ele>
        <time>2020-06-05T10:36:21.000Z</time>
      </trkpt>
      <trkpt lat="44.04484" lon="6.84345">
        <ele>946</ele>
        <time>2020-06-05T10:36:22.000Z</time>
      </trkpt>
      <trkpt lat="44.04484" lon="6.84343">
        <ele>946</ele>
        <time>2020-06-05T10:36:23.000Z</time>
      </trkpt>
      <trkpt lat="44.04484" lon="6.84342">
        <ele>946</ele>
        <time>2020-06-05T10:36:24.000Z</time>
      </trkpt>
      <trkpt lat="44.04484" lon="6.84341">
        <ele>946</ele>
        <time>2020-06-05T10:36:25.000Z</time>
      </trkpt>
      <trkpt lat="44.04484" lon="6.8434">
        <ele>946</ele>
        <time>2020-06-05T10:36:26.000Z</time>
      </trkpt>
      <trkpt lat="44.04484" lon="6.84339">
        <ele>946</ele>
        <time>2020-06-05T10:36:27.000Z</time>
      </trkpt>
      <trkpt lat="44.04484" lon="6.84338">
        <ele>946</ele>
        <time>2020-06-05T10:36:28.000Z</time>
      </trkpt>
      <trkpt lat="44.04484" lon="6.84337">
        <ele>946</ele>
        <time>2020-06-05T10:36:29.000Z</time>
      </trkpt>
      <trkpt lat="44.04484" lon="6.84336">
        <ele>945</ele>
        <time>2020-06-05T10:36:30.000Z</time>
      </trkpt>
      <trkpt lat="44.04485" lon="6.84335">
        <ele>945</ele>
        <time>2020-06-05T10:36:31.000Z</time>
      </trkpt>
      <trkpt lat="44.04485" lon="6.84334">
        <ele>945</ele>
        <time>2020-06-05T10:36:32.000Z</time>
      </trkpt>
      <trkpt lat="44.04485" lon="6.84334">
        <ele>945</ele>
        <time>2020-06-05T10:36:33.000Z</time>
      </trkpt>
      <trkpt lat="44.04485" lon="6.84334">
        <ele>945</ele>
        <time>2020-06-05T10:36:34.000Z</time>
      </trkpt>
      <trkpt lat="44.04485" lon="6.84333">
        <ele>945</ele>
        <time>2020-06-05T10:36:35.000Z</time>
      </trkpt>
      <trkpt lat="44.04485" lon="6.84333">
        <ele>945</ele>
        <time>2020-06-05T10:36:36.000Z</time>
      </trkpt>
      <trkpt lat="44.04484" lon="6.84333">
        <ele>945</ele>
        <time>2020-06-05T10:36:37.000Z</time>
      </trkpt>
      <trkpt lat="44.04483" lon="6.84333">
        <ele>945</ele>
        <time>2020-06-05T10:36:38.000Z</time>
      </trkpt>
      <trkpt lat="44.04482" lon="6.84333">
        <ele>945</ele>
        <time>2020-06-05T10:36:39.000Z</time>
      </trkpt>
      <trkpt lat="44.04482" lon="6.84333">
        <ele>944</ele>
        <time>2020-06-05T10:36:40.000Z</time>
      </trkpt>
      <trkpt lat="44.04481" lon="6.84333">
        <ele>944</ele>
        <time>2020-06-05T10:36:41.000Z</time>
      </trkpt>
      <trkpt lat="44.04481" lon="6.84332">
        <ele>944</ele>
        <time>2020-06-05T10:36:42.000Z</time>
      </trkpt>
      <trkpt lat="44.04481" lon="6.84331">
        <ele>944</ele>
        <time>2020-06-05T10:36:43.000Z</time>
      </trkpt>
      <trkpt lat="44.04481" lon="6.8433">
        <ele>944</ele>
        <time>2020-06-05T10:36:44.000Z</time>
      </trkpt>
      <trkpt lat="44.04481" lon="6.8433">
        <ele>944</ele>
        <time>2020-06-05T10:36:45.000Z</time>
      </trkpt>
      <trkpt lat="44.04481" lon="6.8433">
        <ele>944</ele>
        <time>2020-06-05T10:36:46.000Z</time>
      </trkpt>
      <trkpt lat="44.04481" lon="6.8433">
        <ele>944</ele>
        <time>2020-06-05T10:36:47.000Z</time>
      </trkpt>
      <trkpt lat="44.04481" lon="6.84329">
        <ele>944</ele>
        <time>2020-06-05T10:36:48.000Z</time>
      </trkpt>
      <trkpt lat="44.04481" lon="6.84329">
        <ele>944</ele>
        <time>2020-06-05T10:36:49.000Z</time>
      </trkpt>
      <trkpt lat="44.04481" lon="6.84329">
        <ele>944</ele>
        <time>2020-06-05T10:36:50.000Z</time>
      </trkpt>
      <trkpt lat="44.04481" lon="6.84329">
        <ele>943</ele>
        <time>2020-06-05T10:36:51.000Z</time>
      </trkpt>
      <trkpt lat="44.0448" lon="6.84329">
        <ele>943</ele>
        <time>2020-06-05T10:36:52.000Z</time>
      </trkpt>
      <trkpt lat="44.0448" lon="6.84329">
        <ele>943</ele>
        <time>2020-06-05T10:36:53.000Z</time>
      </trkpt>
      <trkpt lat="44.0448" lon="6.84329">
        <ele>943</ele>
        <time>2020-06-05T10:36:54.000Z</time>
      </trkpt>
      <trkpt lat="44.0448" lon="6.84328">
        <ele>943</ele>
        <time>2020-06-05T10:36:55.000Z</time>
      </trkpt>
      <trkpt lat="44.04481" lon="6.84327">
        <ele>943</ele>
        <time>2020-06-05T10:36:56.000Z</time>
      </trkpt>
      <trkpt lat="44.04481" lon="6.84327">
        <ele>943</ele>
        <time>2020-06-05T10:36:57.000Z</time>
      </trkpt>
      <trkpt lat="44.04481" lon="6.84327">
        <ele>943</ele>
        <time>2020-06-05T10:36:58.000Z</time>
      </trkpt>
      <trkpt lat="44.04482" lon="6.84327">
        <ele>943</ele>
        <time>2020-06-05T10:36:59.000Z</time>
      </trkpt>
      <trkpt lat="44.04482" lon="6.84327">
        <ele>943</ele>
        <time>2020-06-05T10:37:00.000Z</time>
      </trkpt>
      <trkpt lat="44.04482" lon="6.84327">
        <ele>943</ele>
        <time>2020-06-05T10:37:01.000Z</time>
      </trkpt>
      <trkpt lat="44.04482" lon="6.84327">
        <ele>943</ele>
        <time>2020-06-05T10:37:02.000Z</time>
      </trkpt>
      <trkpt lat="44.04482" lon="6.84327">
        <ele>943</ele>
        <time>2020-06-05T10:37:03.000Z</time>
      </trkpt>
      <trkpt lat="44.04482" lon="6.84327">
        <ele>943</ele>
        <time>2020-06-05T10:37:04.000Z</time>
      </trkpt>
      <trkpt lat="44.04482" lon="6.84327">
        <ele>943</ele>
        <time>2020-06-05T10:37:05.000Z</time>
      </trkpt>
      <trkpt lat="44.04482" lon="6.84327">
        <ele>943</ele>
        <time>2020-06-05T10:37:06.000Z</time>
      </trkpt>
      <trkpt lat="44.04482" lon="6.84327">
        <ele>943</ele>
        <time>2020-06-05T10:37:07.000Z</time>
      </trkpt>
      <trkpt lat="44.04482" lon="6.84327">
        <ele>943</ele>
        <time>2020-06-05T10:37:08.000Z</time>
      </trkpt>
      <trkpt lat="44.04482" lon="6.84327">
        <ele>943</ele>
        <time>2020-06-05T10:37:09.000Z</time>
      </trkpt>
      <trkpt lat="44.04482" lon="6.84327">
        <ele>943</ele>
        <time>2020-06-05T10:37:10.000Z</time>
      </trkpt>
      <trkpt lat="44.04482" lon="6.84327">
        <ele>943</ele>
        <time>2020-06-05T10:37:11.000Z</time>
      </trkpt>
      <trkpt lat="44.04482" lon="6.84327">
        <ele>943</ele>
        <time>2020-06-05T10:37:12.000Z</time>
      </trkpt>
      <trkpt lat="44.04482" lon="6.84327">
        <ele>943</ele>
        <time>2020-06-05T10:37:13.000Z</time>
      </trkpt>
      <trkpt lat="44.04482" lon="6.84327">
        <ele>943</ele>
        <time>2020-06-05T10:37:14.000Z</time>
      </trkpt>
      <trkpt lat="44.04482" lon="6.84327">
        <ele>943</ele>
        <time>2020-06-05T10:37:15.000Z</time>
      </trkpt>
      <trkpt lat="44.04482" lon="6.84327">
        <ele>943</ele>
        <time>2020-06-05T10:37:16.000Z</time>
      </trkpt>
      <trkpt lat="44.04482" lon="6.84327">
        <ele>943</ele>
        <time>2020-06-05T10:37:17.000Z</time>
      </trkpt>
      <trkpt lat="44.04482" lon="6.84327">
        <ele>942</ele>
        <time>2020-06-05T10:37:18.000Z</time>
      </trkpt>
      <trkpt lat="44.04482" lon="6.84327">
        <ele>942</ele>
        <time>2020-06-05T10:37:19.000Z</time>
      </trkpt>
      <trkpt lat="44.04482" lon="6.84327">
        <ele>942</ele>
        <time>2020-06-05T10:37:20.000Z</time>
      </trkpt>
      <trkpt lat="44.04482" lon="6.84327">
        <ele>942</ele>
        <time>2020-06-05T10:37:21.000Z</time>
      </trkpt>
      <trkpt lat="44.04482" lon="6.84327">
        <ele>942</ele>
        <time>2020-06-05T10:37:22.000Z</time>
      </trkpt>
      <trkpt lat="44.04482" lon="6.84327">
        <ele>942</ele>
        <time>2020-06-05T10:37:23.000Z</time>
      </trkpt>
      <trkpt lat="44.04482" lon="6.84327">
        <ele>942</ele>
        <time>2020-06-05T10:37:24.000Z</time>
      </trkpt>
      <trkpt lat="44.04482" lon="6.84327">
        <ele>942</ele>
        <time>2020-06-05T10:37:25.000Z</time>
      </trkpt>
      <trkpt lat="44.04482" lon="6.84327">
        <ele>942</ele>
        <time>2020-06-05T10:37:26.000Z</time>
      </trkpt>
      <trkpt lat="44.04481" lon="6.84327">
        <ele>942</ele>
        <time>2020-06-05T10:37:27.000Z</time>
      </trkpt>
      <trkpt lat="44.04481" lon="6.84327">
        <ele>942</ele>
        <time>2020-06-05T10:37:28.000Z</time>
      </trkpt>
      <trkpt lat="44.04482" lon="6.84327">
        <ele>942</ele>
        <time>2020-06-05T10:37:29.000Z</time>
      </trkpt>
      <trkpt lat="44.04482" lon="6.84327">
        <ele>942</ele>
        <time>2020-06-05T10:37:30.000Z</time>
      </trkpt>
      <trkpt lat="44.04481" lon="6.84327">
        <ele>942</ele>
        <time>2020-06-05T10:37:31.000Z</time>
      </trkpt>
      <trkpt lat="44.04481" lon="6.84327">
        <ele>942</ele>
        <time>2020-06-05T10:37:32.000Z</time>
      </trkpt>
      <trkpt lat="44.04481" lon="6.84327">
        <ele>942</ele>
        <time>2020-06-05T10:37:33.000Z</time>
      </trkpt>
      <trkpt lat="44.04482" lon="6.84327">
        <ele>942</ele>
        <time>2020-06-05T10:37:34.000Z</time>
      </trkpt>
      <trkpt lat="44.04482" lon="6.84327">
        <ele>942</ele>
        <time>2020-06-05T10:37:35.000Z</time>
      </trkpt>
      <trkpt lat="44.04482" lon="6.84327">
        <ele>942</ele>
        <time>2020-06-05T10:37:36.000Z</time>
      </trkpt>
      <trkpt lat="44.04482" lon="6.84327">
        <ele>942</ele>
        <time>2020-06-05T10:37:37.000Z</time>
      </trkpt>
      <trkpt lat="44.04482" lon="6.84327">
        <ele>942</ele>
        <time>2020-06-05T10:37:38.000Z</time>
      </trkpt>
      <trkpt lat="44.04482" lon="6.84327">
        <ele>942</ele>
        <time>2020-06-05T10:37:39.000Z</time>
      </trkpt>
      <trkpt lat="44.04482" lon="6.84327">
        <ele>942</ele>
        <time>2020-06-05T10:37:40.000Z</time>
      </trkpt>
      <trkpt lat="44.04482" lon="6.84327">
        <ele>942</ele>
        <time>2020-06-05T10:37:41.000Z</time>
      </trkpt>
      <trkpt lat="44.04482" lon="6.84327">
        <ele>942</ele>
        <time>2020-06-05T10:37:42.000Z</time>
      </trkpt>
      <trkpt lat="44.04482" lon="6.84327">
        <ele>942</ele>
        <time>2020-06-05T10:37:43.000Z</time>
      </trkpt>
      <trkpt lat="44.04483" lon="6.84327">
        <ele>942</ele>
        <time>2020-06-05T10:37:44.000Z</time>
      </trkpt>
      <trkpt lat="44.04483" lon="6.84327">
        <ele>942</ele>
        <time>2020-06-05T10:37:45.000Z</time>
      </trkpt>
      <trkpt lat="44.04483" lon="6.84327">
        <ele>942</ele>
        <time>2020-06-05T10:37:46.000Z</time>
      </trkpt>
      <trkpt lat="44.04483" lon="6.84327">
        <ele>942</ele>
        <time>2020-06-05T10:37:47.000Z</time>
      </trkpt>
      <trkpt lat="44.04483" lon="6.84327">
        <ele>942</ele>
        <time>2020-06-05T10:37:48.000Z</time>
      </trkpt>
      <trkpt lat="44.04483" lon="6.84327">
        <ele>942</ele>
        <time>2020-06-05T10:37:49.000Z</time>
      </trkpt>
      <trkpt lat="44.04483" lon="6.84327">
        <ele>942</ele>
        <time>2020-06-05T10:37:50.000Z</time>
      </trkpt>
      <trkpt lat="44.04483" lon="6.84327">
        <ele>942</ele>
        <time>2020-06-05T10:37:51.000Z</time>
      </trkpt>
      <trkpt lat="44.04483" lon="6.84327">
        <ele>942</ele>
        <time>2020-06-05T10:37:52.000Z</time>
      </trkpt>
      <trkpt lat="44.04483" lon="6.84327">
        <ele>942</ele>
        <time>2020-06-05T10:37:53.000Z</time>
      </trkpt>
      <trkpt lat="44.04483" lon="6.84327">
        <ele>942</ele>
        <time>2020-06-05T10:37:54.000Z</time>
      </trkpt>
      <trkpt lat="44.04483" lon="6.84327">
        <ele>942</ele>
        <time>2020-06-05T10:37:55.000Z</time>
      </trkpt>
      <trkpt lat="44.04483" lon="6.84327">
        <ele>942</ele>
        <time>2020-06-05T10:37:56.000Z</time>
      </trkpt>
      <trkpt lat="44.04483" lon="6.84328">
        <ele>942</ele>
        <time>2020-06-05T10:37:57.000Z</time>
      </trkpt>
      <trkpt lat="44.04483" lon="6.84328">
        <ele>942</ele>
        <time>2020-06-05T10:37:58.000Z</time>
      </trkpt>
      <trkpt lat="44.04483" lon="6.84328">
        <ele>942</ele>
        <time>2020-06-05T10:37:59.000Z</time>
      </trkpt>
      <trkpt lat="44.04483" lon="6.84328">
        <ele>942</ele>
        <time>2020-06-05T10:38:00.000Z</time>
      </trkpt>
      <trkpt lat="44.04483" lon="6.84328">
        <ele>942</ele>
        <time>2020-06-05T10:38:01.000Z</time>
      </trkpt>
      <trkpt lat="44.04483" lon="6.84328">
        <ele>942</ele>
        <time>2020-06-05T10:38:02.000Z</time>
      </trkpt>
      <trkpt lat="44.04483" lon="6.84328">
        <ele>942</ele>
        <time>2020-06-05T10:38:03.000Z</time>
      </trkpt>
      <trkpt lat="44.04483" lon="6.84328">
        <ele>942</ele>
        <time>2020-06-05T10:38:04.000Z</time>
      </trkpt>
      <trkpt lat="44.04483" lon="6.84328">
        <ele>942</ele>
        <time>2020-06-05T10:38:05.000Z</time>
      </trkpt>
      <trkpt lat="44.04483" lon="6.84328">
        <ele>942</ele>
        <time>2020-06-05T10:38:06.000Z</time>
      </trkpt>
      <trkpt lat="44.04483" lon="6.84328">
        <ele>942</ele>
        <time>2020-06-05T10:38:07.000Z</time>
      </trkpt>
      <trkpt lat="44.04483" lon="6.84328">
        <ele>942</ele>
        <time>2020-06-05T10:38:08.000Z</time>
      </trkpt>
      <trkpt lat="44.04483" lon="6.84328">
        <ele>942</ele>
        <time>2020-06-05T10:38:09.000Z</time>
      </trkpt>
      <trkpt lat="44.04483" lon="6.84328">
        <ele>942</ele>
        <time>2020-06-05T10:38:10.000Z</time>
      </trkpt>
      <trkpt lat="44.04483" lon="6.84328">
        <ele>942</ele>
        <time>2020-06-05T10:38:11.000Z</time>
      </trkpt>
      <trkpt lat="44.04483" lon="6.84328">
        <ele>942</ele>
        <time>2020-06-05T10:38:12.000Z</time>
      </trkpt>
      <trkpt lat="44.04483" lon="6.84328">
        <ele>942</ele>
        <time>2020-06-05T10:38:13.000Z</time>
      </trkpt>
      <trkpt lat="44.04483" lon="6.84328">
        <ele>942</ele>
        <time>2020-06-05T10:38:14.000Z</time>
      </trkpt>
      <trkpt lat="44.04483" lon="6.84328">
        <ele>942</ele>
        <time>2020-06-05T10:38:15.000Z</time>
      </trkpt>
      <trkpt lat="44.04483" lon="6.84328">
        <ele>942</ele>
        <time>2020-06-05T10:38:16.000Z</time>
      </trkpt>
      <trkpt lat="44.04483" lon="6.84328">
        <ele>942</ele>
        <time>2020-06-05T10:38:17.000Z</time>
      </trkpt>
      <trkpt lat="44.04483" lon="6.84328">
        <ele>942</ele>
        <time>2020-06-05T10:38:18.000Z</time>
      </trkpt>
      <trkpt lat="44.04483" lon="6.84328">
        <ele>942</ele>
        <time>2020-06-05T10:38:19.000Z</time>
      </trkpt>
      <trkpt lat="44.04483" lon="6.84328">
        <ele>942</ele>
        <time>2020-06-05T10:38:20.000Z</time>
      </trkpt>
      <trkpt lat="44.04483" lon="6.84328">
        <ele>942</ele>
        <time>2020-06-05T10:38:21.000Z</time>
      </trkpt>
      <trkpt lat="44.04483" lon="6.84328">
        <ele>942</ele>
        <time>2020-06-05T10:38:22.000Z</time>
      </trkpt>
      <trkpt lat="44.04483" lon="6.84328">
        <ele>942</ele>
        <time>2020-06-05T10:38:23.000Z</time>
      </trkpt>
      <trkpt lat="44.04483" lon="6.84328">
        <ele>942</ele>
        <time>2020-06-05T10:38:24.000Z</time>
      </trkpt>
      <trkpt lat="44.04483" lon="6.84328">
        <ele>942</ele>
        <time>2020-06-05T10:38:25.000Z</time>
      </trkpt>
      <trkpt lat="44.04483" lon="6.84328">
        <ele>942</ele>
        <time>2020-06-05T10:38:26.000Z</time>
      </trkpt>
      <trkpt lat="44.04483" lon="6.84328">
        <ele>942</ele>
        <time>2020-06-05T10:38:27.000Z</time>
      </trkpt>
      <trkpt lat="44.04483" lon="6.84328">
        <ele>942</ele>
        <time>2020-06-05T10:38:28.000Z</time>
      </trkpt>
      <trkpt lat="44.04483" lon="6.84328">
        <ele>942</ele>
        <time>2020-06-05T10:38:29.000Z</time>
      </trkpt>
      <trkpt lat="44.04483" lon="6.84328">
        <ele>942</ele>
        <time>2020-06-05T10:38:30.000Z</time>
      </trkpt>
      <trkpt lat="44.04483" lon="6.84328">
        <ele>942</ele>
        <time>2020-06-05T10:38:31.000Z</time>
      </trkpt>
      <trkpt lat="44.04483" lon="6.84328">
        <ele>942</ele>
        <time>2020-06-05T10:38:32.000Z</time>
      </trkpt>
      <trkpt lat="44.04483" lon="6.84328">
        <ele>942</ele>
        <time>2020-06-05T10:38:33.000Z</time>
      </trkpt>
      <trkpt lat="44.04483" lon="6.84328">
        <ele>942</ele>
        <time>2020-06-05T10:38:34.000Z</time>
      </trkpt>
      <trkpt lat="44.04483" lon="6.84328">
        <ele>942</ele>
        <time>2020-06-05T10:38:35.000Z</time>
      </trkpt>
      <trkpt lat="44.04483" lon="6.84328">
        <ele>942</ele>
        <time>2020-06-05T10:38:36.000Z</time>
      </trkpt>
      <trkpt lat="44.04483" lon="6.84328">
        <ele>942</ele>
        <time>2020-06-05T10:38:37.000Z</time>
      </trkpt>
      <trkpt lat="44.04483" lon="6.84328">
        <ele>942</ele>
        <time>2020-06-05T10:38:38.000Z</time>
      </trkpt>
      <trkpt lat="44.04483" lon="6.84328">
        <ele>942</ele>
        <time>2020-06-05T10:38:39.000Z</time>
      </trkpt>
      <trkpt lat="44.04483" lon="6.84328">
        <ele>942</ele>
        <time>2020-06-05T10:38:40.000Z</time>
      </trkpt>
      <trkpt lat="44.04483" lon="6.84328">
        <ele>942</ele>
        <time>2020-06-05T10:38:41.000Z</time>
      </trkpt>
      <trkpt lat="44.04483" lon="6.84328">
        <ele>942</ele>
        <time>2020-06-05T10:38:42.000Z</time>
      </trkpt>
      <trkpt lat="44.04483" lon="6.84328">
        <ele>942</ele>
        <time>2020-06-05T10:38:43.000Z</time>
      </trkpt>
      <trkpt lat="44.04483" lon="6.84328">
        <ele>942</ele>
        <time>2020-06-05T10:38:44.000Z</time>
      </trkpt>
      <trkpt lat="44.04483" lon="6.84328">
        <ele>942</ele>
        <time>2020-06-05T10:38:45.000Z</time>
      </trkpt>
      <trkpt lat="44.04483" lon="6.84328">
        <ele>942</ele>
        <time>2020-06-05T10:38:46.000Z</time>
      </trkpt>
      <trkpt lat="44.04483" lon="6.84328">
        <ele>942</ele>
        <time>2020-06-05T10:38:47.000Z</time>
      </trkpt>
      <trkpt lat="44.04483" lon="6.84328">
        <ele>942</ele>
        <time>2020-06-05T10:38:48.000Z</time>
      </trkpt>
      <trkpt lat="44.04483" lon="6.84328">
        <ele>942</ele>
        <time>2020-06-05T10:38:49.000Z</time>
      </trkpt>
      <trkpt lat="44.04483" lon="6.84328">
        <ele>942</ele>
        <time>2020-06-05T10:38:50.000Z</time>
      </trkpt>
      <trkpt lat="44.04483" lon="6.84328">
        <ele>942</ele>
        <time>2020-06-05T10:38:51.000Z</time>
      </trkpt>
      <trkpt lat="44.04483" lon="6.84328">
        <ele>942</ele>
        <time>2020-06-05T10:38:52.000Z</time>
      </trkpt>
      <trkpt lat="44.04483" lon="6.84328">
        <ele>942</ele>
        <time>2020-06-05T10:38:53.000Z</time>
      </trkpt>
      <trkpt lat="44.04483" lon="6.84328">
        <ele>942</ele>
        <time>2020-06-05T10:38:54.000Z</time>
      </trkpt>
      <trkpt lat="44.04483" lon="6.84328">
        <ele>942</ele>
        <time>2020-06-05T10:38:55.000Z</time>
      </trkpt>
      <trkpt lat="44.04483" lon="6.84328">
        <ele>942</ele>
        <time>2020-06-05T10:38:56.000Z</time>
      </trkpt>
      <trkpt lat="44.04483" lon="6.84328">
        <ele>942</ele>
        <time>2020-06-05T10:38:57.000Z</time>
      </trkpt>
      <trkpt lat="44.04483" lon="6.84328">
        <ele>942</ele>
        <time>2020-06-05T10:38:58.000Z</time>
      </trkpt>
      <trkpt lat="44.04483" lon="6.84328">
        <ele>942</ele>
        <time>2020-06-05T10:38:59.000Z</time>
      </trkpt>
      <trkpt lat="44.04483" lon="6.84328">
        <ele>942</ele>
        <time>2020-06-05T10:39:00.000Z</time>
      </trkpt>
      <trkpt lat="44.04483" lon="6.84328">
        <ele>942</ele>
        <time>2020-06-05T10:39:01.000Z</time>
      </trkpt>
      <trkpt lat="44.04483" lon="6.84328">
        <ele>942</ele>
        <time>2020-06-05T10:39:02.000Z</time>
      </trkpt>
      <trkpt lat="44.04483" lon="6.84328">
        <ele>942</ele>
        <time>2020-06-05T10:39:03.000Z</time>
      </trkpt>
      <trkpt lat="44.04483" lon="6.84328">
        <ele>942</ele>
        <time>2020-06-05T10:39:04.000Z</time>
      </trkpt>
      <trkpt lat="44.04483" lon="6.84328">
        <ele>942</ele>
        <time>2020-06-05T10:39:05.000Z</time>
      </trkpt>
      <trkpt lat="44.04483" lon="6.84328">
        <ele>942</ele>
        <time>2020-06-05T10:39:06.000Z</time>
      </trkpt>
      <trkpt lat="44.04483" lon="6.84328">
        <ele>942</ele>
        <time>2020-06-05T10:39:07.000Z</time>
      </trkpt>
      <trkpt lat="44.04483" lon="6.84328">
        <ele>942</ele>
        <time>2020-06-05T10:39:08.000Z</time>
      </trkpt>
      <trkpt lat="44.04483" lon="6.84328">
        <ele>942</ele>
        <time>2020-06-05T10:39:09.000Z</time>
      </trkpt>
      <trkpt lat="44.04483" lon="6.84328">
        <ele>942</ele>
        <time>2020-06-05T10:39:10.000Z</time>
      </trkpt>
      <trkpt lat="44.04483" lon="6.84328">
        <ele>942</ele>
        <time>2020-06-05T10:39:11.000Z</time>
      </trkpt>
      <trkpt lat="44.04483" lon="6.84328">
        <ele>942</ele>
        <time>2020-06-05T10:39:12.000Z</time>
      </trkpt>
      <trkpt lat="44.04483" lon="6.84328">
        <ele>942</ele>
        <time>2020-06-05T10:39:13.000Z</time>
      </trkpt>
      <trkpt lat="44.04483" lon="6.84328">
        <ele>942</ele>
        <time>2020-06-05T10:39:14.000Z</time>
      </trkpt>
      <trkpt lat="44.04483" lon="6.84327">
        <ele>942</ele>
        <time>2020-06-05T10:39:15.000Z</time>
      </trkpt>
      <trkpt lat="44.04484" lon="6.84327">
        <ele>942</ele>
        <time>2020-06-05T10:39:16.000Z</time>
      </trkpt>
      <trkpt lat="44.04484" lon="6.84327">
        <ele>942</ele>
        <time>2020-06-05T10:39:17.000Z</time>
      </trkpt>
      <trkpt lat="44.04484" lon="6.84327">
        <ele>942</ele>
        <time>2020-06-05T10:39:18.000Z</time>
      </trkpt>
      <trkpt lat="44.04485" lon="6.84327">
        <ele>942</ele>
        <time>2020-06-05T10:39:19.000Z</time>
      </trkpt>
      <trkpt lat="44.04485" lon="6.84326">
        <ele>942</ele>
        <time>2020-06-05T10:39:20.000Z</time>
      </trkpt>
      <trkpt lat="44.04486" lon="6.84326">
        <ele>942</ele>
        <time>2020-06-05T10:39:21.000Z</time>
      </trkpt>
      <trkpt lat="44.04487" lon="6.84326">
        <ele>942</ele>
        <time>2020-06-05T10:39:22.000Z</time>
      </trkpt>
      <trkpt lat="44.04487" lon="6.84326">
        <ele>942</ele>
        <time>2020-06-05T10:39:23.000Z</time>
      </trkpt>
      <trkpt lat="44.04488" lon="6.84326">
        <ele>942</ele>
        <time>2020-06-05T10:39:24.000Z</time>
      </trkpt>
      <trkpt lat="44.04488" lon="6.84325">
        <ele>942</ele>
        <time>2020-06-05T10:39:25.000Z</time>
      </trkpt>
      <trkpt lat="44.04488" lon="6.84325">
        <ele>942</ele>
        <time>2020-06-05T10:39:26.000Z</time>
      </trkpt>
      <trkpt lat="44.04488" lon="6.84325">
        <ele>942</ele>
        <time>2020-06-05T10:39:27.000Z</time>
      </trkpt>
      <trkpt lat="44.04488" lon="6.84325">
        <ele>942</ele>
        <time>2020-06-05T10:39:28.000Z</time>
      </trkpt>
      <trkpt lat="44.04488" lon="6.84325">
        <ele>942</ele>
        <time>2020-06-05T10:39:29.000Z</time>
      </trkpt>
      <trkpt lat="44.04489" lon="6.84325">
        <ele>942</ele>
        <time>2020-06-05T10:39:30.000Z</time>
      </trkpt>
      <trkpt lat="44.04489" lon="6.84324">
        <ele>942</ele>
        <time>2020-06-05T10:39:31.000Z</time>
      </trkpt>
      <trkpt lat="44.0449" lon="6.84323">
        <ele>942</ele>
        <time>2020-06-05T10:39:32.000Z</time>
      </trkpt>
      <trkpt lat="44.04491" lon="6.84322">
        <ele>942</ele>
        <time>2020-06-05T10:39:33.000Z</time>
      </trkpt>
      <trkpt lat="44.04492" lon="6.84322">
        <ele>942</ele>
        <time>2020-06-05T10:39:34.000Z</time>
      </trkpt>
      <trkpt lat="44.04493" lon="6.84321">
        <ele>941</ele>
        <time>2020-06-05T10:39:35.000Z</time>
      </trkpt>
      <trkpt lat="44.04494" lon="6.84321">
        <ele>941</ele>
        <time>2020-06-05T10:39:36.000Z</time>
      </trkpt>
      <trkpt lat="44.04495" lon="6.8432">
        <ele>941</ele>
        <time>2020-06-05T10:39:37.000Z</time>
      </trkpt>
      <trkpt lat="44.04495" lon="6.8432">
        <ele>941</ele>
        <time>2020-06-05T10:39:38.000Z</time>
      </trkpt>
      <trkpt lat="44.04496" lon="6.84318">
        <ele>941</ele>
        <time>2020-06-05T10:39:39.000Z</time>
      </trkpt>
      <trkpt lat="44.04497" lon="6.84317">
        <ele>941</ele>
        <time>2020-06-05T10:39:40.000Z</time>
      </trkpt>
      <trkpt lat="44.04497" lon="6.84315">
        <ele>941</ele>
        <time>2020-06-05T10:39:41.000Z</time>
      </trkpt>
      <trkpt lat="44.04497" lon="6.84313">
        <ele>941</ele>
        <time>2020-06-05T10:39:42.000Z</time>
      </trkpt>
      <trkpt lat="44.04498" lon="6.84311">
        <ele>941</ele>
        <time>2020-06-05T10:39:43.000Z</time>
      </trkpt>
      <trkpt lat="44.04498" lon="6.84309">
        <ele>941</ele>
        <time>2020-06-05T10:39:44.000Z</time>
      </trkpt>
      <trkpt lat="44.04498" lon="6.84306">
        <ele>941</ele>
        <time>2020-06-05T10:39:45.000Z</time>
      </trkpt>
      <trkpt lat="44.04499" lon="6.84305">
        <ele>941</ele>
        <time>2020-06-05T10:39:46.000Z</time>
      </trkpt>
      <trkpt lat="44.04499" lon="6.84303">
        <ele>941</ele>
        <time>2020-06-05T10:39:47.000Z</time>
      </trkpt>
      <trkpt lat="44.04499" lon="6.84301">
        <ele>941</ele>
        <time>2020-06-05T10:39:48.000Z</time>
      </trkpt>
      <trkpt lat="44.04499" lon="6.843">
        <ele>941</ele>
        <time>2020-06-05T10:39:49.000Z</time>
      </trkpt>
      <trkpt lat="44.045" lon="6.84298">
        <ele>941</ele>
        <time>2020-06-05T10:39:50.000Z</time>
      </trkpt>
      <trkpt lat="44.045" lon="6.84297">
        <ele>941</ele>
        <time>2020-06-05T10:39:51.000Z</time>
      </trkpt>
      <trkpt lat="44.04501" lon="6.84296">
        <ele>941</ele>
        <time>2020-06-05T10:39:52.000Z</time>
      </trkpt>
      <trkpt lat="44.04501" lon="6.84296">
        <ele>941</ele>
        <time>2020-06-05T10:39:53.000Z</time>
      </trkpt>
      <trkpt lat="44.04502" lon="6.84294">
        <ele>941</ele>
        <time>2020-06-05T10:39:54.000Z</time>
      </trkpt>
      <trkpt lat="44.04502" lon="6.84294">
        <ele>941</ele>
        <time>2020-06-05T10:39:55.000Z</time>
      </trkpt>
      <trkpt lat="44.04503" lon="6.84292">
        <ele>941</ele>
        <time>2020-06-05T10:39:56.000Z</time>
      </trkpt>
      <trkpt lat="44.04504" lon="6.84291">
        <ele>941</ele>
        <time>2020-06-05T10:39:57.000Z</time>
      </trkpt>
      <trkpt lat="44.04505" lon="6.8429">
        <ele>941</ele>
        <time>2020-06-05T10:39:58.000Z</time>
      </trkpt>
      <trkpt lat="44.04506" lon="6.84289">
        <ele>941</ele>
        <time>2020-06-05T10:39:59.000Z</time>
      </trkpt>
      <trkpt lat="44.04506" lon="6.84288">
        <ele>941</ele>
        <time>2020-06-05T10:40:00.000Z</time>
      </trkpt>
      <trkpt lat="44.04507" lon="6.84286">
        <ele>941</ele>
        <time>2020-06-05T10:40:01.000Z</time>
      </trkpt>
      <trkpt lat="44.04508" lon="6.84285">
        <ele>941</ele>
        <time>2020-06-05T10:40:02.000Z</time>
      </trkpt>
      <trkpt lat="44.04509" lon="6.84285">
        <ele>941</ele>
        <time>2020-06-05T10:40:03.000Z</time>
      </trkpt>
      <trkpt lat="44.0451" lon="6.84284">
        <ele>942</ele>
        <time>2020-06-05T10:40:04.000Z</time>
      </trkpt>
      <trkpt lat="44.04511" lon="6.84284">
        <ele>942</ele>
        <time>2020-06-05T10:40:05.000Z</time>
      </trkpt>
      <trkpt lat="44.04512" lon="6.84283">
        <ele>942</ele>
        <time>2020-06-05T10:40:06.000Z</time>
      </trkpt>
      <trkpt lat="44.04513" lon="6.84282">
        <ele>942</ele>
        <time>2020-06-05T10:40:07.000Z</time>
      </trkpt>
      <trkpt lat="44.04514" lon="6.84281">
        <ele>942</ele>
        <time>2020-06-05T10:40:08.000Z</time>
      </trkpt>
      <trkpt lat="44.04515" lon="6.84279">
        <ele>942</ele>
        <time>2020-06-05T10:40:09.000Z</time>
      </trkpt>
      <trkpt lat="44.04516" lon="6.84278">
        <ele>942</ele>
        <time>2020-06-05T10:40:10.000Z</time>
      </trkpt>
      <trkpt lat="44.04517" lon="6.84278">
        <ele>942</ele>
        <time>2020-06-05T10:40:11.000Z</time>
      </trkpt>
      <trkpt lat="44.04518" lon="6.84277">
        <ele>942</ele>
        <time>2020-06-05T10:40:12.000Z</time>
      </trkpt>
      <trkpt lat="44.04519" lon="6.84277">
        <ele>942</ele>
        <time>2020-06-05T10:40:13.000Z</time>
      </trkpt>
      <trkpt lat="44.0452" lon="6.84276">
        <ele>942</ele>
        <time>2020-06-05T10:40:14.000Z</time>
      </trkpt>
      <trkpt lat="44.04521" lon="6.84276">
        <ele>942</ele>
        <time>2020-06-05T10:40:15.000Z</time>
      </trkpt>
      <trkpt lat="44.04522" lon="6.84275">
        <ele>942</ele>
        <time>2020-06-05T10:40:16.000Z</time>
      </trkpt>
      <trkpt lat="44.04523" lon="6.84275">
        <ele>943</ele>
        <time>2020-06-05T10:40:17.000Z</time>
      </trkpt>
      <trkpt lat="44.04523" lon="6.84275">
        <ele>943</ele>
        <time>2020-06-05T10:40:18.000Z</time>
      </trkpt>
      <trkpt lat="44.04524" lon="6.84275">
        <ele>943</ele>
        <time>2020-06-05T10:40:19.000Z</time>
      </trkpt>
      <trkpt lat="44.04525" lon="6.84275">
        <ele>943</ele>
        <time>2020-06-05T10:40:20.000Z</time>
      </trkpt>
      <trkpt lat="44.04526" lon="6.84275">
        <ele>944</ele>
        <time>2020-06-05T10:40:21.000Z</time>
      </trkpt>
      <trkpt lat="44.04527" lon="6.84274">
        <ele>944</ele>
        <time>2020-06-05T10:40:22.000Z</time>
      </trkpt>
      <trkpt lat="44.04528" lon="6.84274">
        <ele>944</ele>
        <time>2020-06-05T10:40:23.000Z</time>
      </trkpt>
      <trkpt lat="44.04529" lon="6.84273">
        <ele>944</ele>
        <time>2020-06-05T10:40:24.000Z</time>
      </trkpt>
      <trkpt lat="44.0453" lon="6.84272">
        <ele>944</ele>
        <time>2020-06-05T10:40:25.000Z</time>
      </trkpt>
      <trkpt lat="44.04531" lon="6.84271">
        <ele>944</ele>
        <time>2020-06-05T10:40:26.000Z</time>
      </trkpt>
      <trkpt lat="44.04532" lon="6.84271">
        <ele>944</ele>
        <time>2020-06-05T10:40:27.000Z</time>
      </trkpt>
      <trkpt lat="44.04533" lon="6.8427">
        <ele>945</ele>
        <time>2020-06-05T10:40:28.000Z</time>
      </trkpt>
      <trkpt lat="44.04534" lon="6.84269">
        <ele>945</ele>
        <time>2020-06-05T10:40:29.000Z</time>
      </trkpt>
      <trkpt lat="44.04535" lon="6.84269">
        <ele>945</ele>
        <time>2020-06-05T10:40:30.000Z</time>
      </trkpt>
      <trkpt lat="44.04536" lon="6.84268">
        <ele>945</ele>
        <time>2020-06-05T10:40:31.000Z</time>
      </trkpt>
      <trkpt lat="44.04537" lon="6.84267">
        <ele>945</ele>
        <time>2020-06-05T10:40:32.000Z</time>
      </trkpt>
      <trkpt lat="44.04538" lon="6.84266">
        <ele>945</ele>
        <time>2020-06-05T10:40:33.000Z</time>
      </trkpt>
      <trkpt lat="44.04538" lon="6.84265">
        <ele>945</ele>
        <time>2020-06-05T10:40:34.000Z</time>
      </trkpt>
      <trkpt lat="44.04539" lon="6.84264">
        <ele>945</ele>
        <time>2020-06-05T10:40:35.000Z</time>
      </trkpt>
      <trkpt lat="44.0454" lon="6.84263">
        <ele>945</ele>
        <time>2020-06-05T10:40:36.000Z</time>
      </trkpt>
      <trkpt lat="44.0454" lon="6.84262">
        <ele>945</ele>
        <time>2020-06-05T10:40:37.000Z</time>
      </trkpt>
      <trkpt lat="44.04541" lon="6.8426">
        <ele>945</ele>
        <time>2020-06-05T10:40:38.000Z</time>
      </trkpt>
      <trkpt lat="44.04541" lon="6.84258">
        <ele>945</ele>
        <time>2020-06-05T10:40:39.000Z</time>
      </trkpt>
      <trkpt lat="44.04542" lon="6.84257">
        <ele>945</ele>
        <time>2020-06-05T10:40:40.000Z</time>
      </trkpt>
      <trkpt lat="44.04543" lon="6.84256">
        <ele>945</ele>
        <time>2020-06-05T10:40:41.000Z</time>
      </trkpt>
      <trkpt lat="44.04544" lon="6.84255">
        <ele>945</ele>
        <time>2020-06-05T10:40:42.000Z</time>
      </trkpt>
      <trkpt lat="44.04545" lon="6.84253">
        <ele>945</ele>
        <time>2020-06-05T10:40:43.000Z</time>
      </trkpt>
      <trkpt lat="44.04546" lon="6.84252">
        <ele>945</ele>
        <time>2020-06-05T10:40:44.000Z</time>
      </trkpt>
      <trkpt lat="44.04546" lon="6.84251">
        <ele>945</ele>
        <time>2020-06-05T10:40:45.000Z</time>
      </trkpt>
      <trkpt lat="44.04547" lon="6.84249">
        <ele>945</ele>
        <time>2020-06-05T10:40:46.000Z</time>
      </trkpt>
      <trkpt lat="44.04547" lon="6.84248">
        <ele>945</ele>
        <time>2020-06-05T10:40:47.000Z</time>
      </trkpt>
      <trkpt lat="44.04547" lon="6.84247">
        <ele>945</ele>
        <time>2020-06-05T10:40:48.000Z</time>
      </trkpt>
      <trkpt lat="44.04547" lon="6.84245">
        <ele>945</ele>
        <time>2020-06-05T10:40:49.000Z</time>
      </trkpt>
      <trkpt lat="44.04547" lon="6.84243">
        <ele>945</ele>
        <time>2020-06-05T10:40:50.000Z</time>
      </trkpt>
      <trkpt lat="44.04548" lon="6.84241">
        <ele>945</ele>
        <time>2020-06-05T10:40:51.000Z</time>
      </trkpt>
      <trkpt lat="44.04548" lon="6.8424">
        <ele>945</ele>
        <time>2020-06-05T10:40:52.000Z</time>
      </trkpt>
      <trkpt lat="44.04549" lon="6.84238">
        <ele>945</ele>
        <time>2020-06-05T10:40:53.000Z</time>
      </trkpt>
      <trkpt lat="44.04549" lon="6.84237">
        <ele>945</ele>
        <time>2020-06-05T10:40:54.000Z</time>
      </trkpt>
      <trkpt lat="44.04549" lon="6.84235">
        <ele>945</ele>
        <time>2020-06-05T10:40:55.000Z</time>
      </trkpt>
      <trkpt lat="44.0455" lon="6.84234">
        <ele>944</ele>
        <time>2020-06-05T10:40:56.000Z</time>
      </trkpt>
      <trkpt lat="44.04551" lon="6.84232">
        <ele>944</ele>
        <time>2020-06-05T10:40:57.000Z</time>
      </trkpt>
      <trkpt lat="44.04551" lon="6.84231">
        <ele>944</ele>
        <time>2020-06-05T10:40:58.000Z</time>
      </trkpt>
      <trkpt lat="44.04552" lon="6.84229">
        <ele>944</ele>
        <time>2020-06-05T10:40:59.000Z</time>
      </trkpt>
      <trkpt lat="44.04552" lon="6.84228">
        <ele>944</ele>
        <time>2020-06-05T10:41:00.000Z</time>
      </trkpt>
      <trkpt lat="44.04552" lon="6.84227">
        <ele>944</ele>
        <time>2020-06-05T10:41:01.000Z</time>
      </trkpt>
      <trkpt lat="44.04553" lon="6.84225">
        <ele>944</ele>
        <time>2020-06-05T10:41:02.000Z</time>
      </trkpt>
      <trkpt lat="44.04553" lon="6.84223">
        <ele>944</ele>
        <time>2020-06-05T10:41:03.000Z</time>
      </trkpt>
      <trkpt lat="44.04554" lon="6.84222">
        <ele>944</ele>
        <time>2020-06-05T10:41:04.000Z</time>
      </trkpt>
      <trkpt lat="44.04554" lon="6.84221">
        <ele>944</ele>
        <time>2020-06-05T10:41:05.000Z</time>
      </trkpt>
      <trkpt lat="44.04554" lon="6.84219">
        <ele>944</ele>
        <time>2020-06-05T10:41:06.000Z</time>
      </trkpt>
      <trkpt lat="44.04554" lon="6.84218">
        <ele>944</ele>
        <time>2020-06-05T10:41:07.000Z</time>
      </trkpt>
      <trkpt lat="44.04554" lon="6.84218">
        <ele>944</ele>
        <time>2020-06-05T10:41:08.000Z</time>
      </trkpt>
      <trkpt lat="44.04554" lon="6.84218">
        <ele>944</ele>
        <time>2020-06-05T10:41:09.000Z</time>
      </trkpt>
      <trkpt lat="44.04554" lon="6.84218">
        <ele>944</ele>
        <time>2020-06-05T10:41:10.000Z</time>
      </trkpt>
      <trkpt lat="44.04554" lon="6.84218">
        <ele>944</ele>
        <time>2020-06-05T10:41:11.000Z</time>
      </trkpt>
      <trkpt lat="44.04554" lon="6.84218">
        <ele>944</ele>
        <time>2020-06-05T10:41:12.000Z</time>
      </trkpt>
      <trkpt lat="44.04554" lon="6.84218">
        <ele>944</ele>
        <time>2020-06-05T10:41:13.000Z</time>
      </trkpt>
      <trkpt lat="44.04555" lon="6.84218">
        <ele>944</ele>
        <time>2020-06-05T10:41:14.000Z</time>
      </trkpt>
      <trkpt lat="44.04555" lon="6.84218">
        <ele>944</ele>
        <time>2020-06-05T10:41:15.000Z</time>
      </trkpt>
      <trkpt lat="44.04555" lon="6.84217">
        <ele>944</ele>
        <time>2020-06-05T10:41:16.000Z</time>
      </trkpt>
      <trkpt lat="44.04555" lon="6.84216">
        <ele>944</ele>
        <time>2020-06-05T10:41:17.000Z</time>
      </trkpt>
      <trkpt lat="44.04555" lon="6.84215">
        <ele>944</ele>
        <time>2020-06-05T10:41:18.000Z</time>
      </trkpt>
      <trkpt lat="44.04555" lon="6.84214">
        <ele>944</ele>
        <time>2020-06-05T10:41:19.000Z</time>
      </trkpt>
      <trkpt lat="44.04556" lon="6.84212">
        <ele>944</ele>
        <time>2020-06-05T10:41:20.000Z</time>
      </trkpt>
      <trkpt lat="44.04556" lon="6.8421">
        <ele>944</ele>
        <time>2020-06-05T10:41:21.000Z</time>
      </trkpt>
      <trkpt lat="44.04557" lon="6.84208">
        <ele>944</ele>
        <time>2020-06-05T10:41:22.000Z</time>
      </trkpt>
      <trkpt lat="44.04557" lon="6.84207">
        <ele>943</ele>
        <time>2020-06-05T10:41:23.000Z</time>
      </trkpt>
      <trkpt lat="44.04558" lon="6.84205">
        <ele>943</ele>
        <time>2020-06-05T10:41:24.000Z</time>
      </trkpt>
      <trkpt lat="44.04558" lon="6.84204">
        <ele>943</ele>
        <time>2020-06-05T10:41:25.000Z</time>
      </trkpt>
      <trkpt lat="44.04559" lon="6.84203">
        <ele>943</ele>
        <time>2020-06-05T10:41:26.000Z</time>
      </trkpt>
      <trkpt lat="44.0456" lon="6.84202">
        <ele>943</ele>
        <time>2020-06-05T10:41:27.000Z</time>
      </trkpt>
      <trkpt lat="44.0456" lon="6.842">
        <ele>944</ele>
        <time>2020-06-05T10:41:28.000Z</time>
      </trkpt>
      <trkpt lat="44.04561" lon="6.842">
        <ele>944</ele>
        <time>2020-06-05T10:41:29.000Z</time>
      </trkpt>
      <trkpt lat="44.04563" lon="6.84199">
        <ele>944</ele>
        <time>2020-06-05T10:41:30.000Z</time>
      </trkpt>
      <trkpt lat="44.04564" lon="6.84198">
        <ele>944</ele>
        <time>2020-06-05T10:41:31.000Z</time>
      </trkpt>
      <trkpt lat="44.04565" lon="6.84198">
        <ele>944</ele>
        <time>2020-06-05T10:41:32.000Z</time>
      </trkpt>
      <trkpt lat="44.04565" lon="6.84197">
        <ele>944</ele>
        <time>2020-06-05T10:41:33.000Z</time>
      </trkpt>
      <trkpt lat="44.04566" lon="6.84196">
        <ele>944</ele>
        <time>2020-06-05T10:41:34.000Z</time>
      </trkpt>
      <trkpt lat="44.04567" lon="6.84195">
        <ele>944</ele>
        <time>2020-06-05T10:41:35.000Z</time>
      </trkpt>
      <trkpt lat="44.04568" lon="6.84195">
        <ele>944</ele>
        <time>2020-06-05T10:41:36.000Z</time>
      </trkpt>
      <trkpt lat="44.04569" lon="6.84195">
        <ele>945</ele>
        <time>2020-06-05T10:41:37.000Z</time>
      </trkpt>
      <trkpt lat="44.0457" lon="6.84194">
        <ele>945</ele>
        <time>2020-06-05T10:41:38.000Z</time>
      </trkpt>
      <trkpt lat="44.04571" lon="6.84194">
        <ele>945</ele>
        <time>2020-06-05T10:41:39.000Z</time>
      </trkpt>
      <trkpt lat="44.04572" lon="6.84193">
        <ele>945</ele>
        <time>2020-06-05T10:41:40.000Z</time>
      </trkpt>
      <trkpt lat="44.04573" lon="6.84193">
        <ele>945</ele>
        <time>2020-06-05T10:41:41.000Z</time>
      </trkpt>
      <trkpt lat="44.04573" lon="6.84193">
        <ele>945</ele>
        <time>2020-06-05T10:41:42.000Z</time>
      </trkpt>
      <trkpt lat="44.04574" lon="6.84192">
        <ele>945</ele>
        <time>2020-06-05T10:41:43.000Z</time>
      </trkpt>
      <trkpt lat="44.04575" lon="6.84192">
        <ele>945</ele>
        <time>2020-06-05T10:41:44.000Z</time>
      </trkpt>
      <trkpt lat="44.04575" lon="6.84191">
        <ele>946</ele>
        <time>2020-06-05T10:41:45.000Z</time>
      </trkpt>
      <trkpt lat="44.04576" lon="6.8419">
        <ele>946</ele>
        <time>2020-06-05T10:41:46.000Z</time>
      </trkpt>
      <trkpt lat="44.04577" lon="6.84188">
        <ele>946</ele>
        <time>2020-06-05T10:41:47.000Z</time>
      </trkpt>
      <trkpt lat="44.04578" lon="6.84187">
        <ele>946</ele>
        <time>2020-06-05T10:41:48.000Z</time>
      </trkpt>
      <trkpt lat="44.04579" lon="6.84186">
        <ele>946</ele>
        <time>2020-06-05T10:41:49.000Z</time>
      </trkpt>
      <trkpt lat="44.0458" lon="6.84184">
        <ele>946</ele>
        <time>2020-06-05T10:41:50.000Z</time>
      </trkpt>
      <trkpt lat="44.04581" lon="6.84183">
        <ele>946</ele>
        <time>2020-06-05T10:41:51.000Z</time>
      </trkpt>
      <trkpt lat="44.04581" lon="6.84183">
        <ele>946</ele>
        <time>2020-06-05T10:41:52.000Z</time>
      </trkpt>
      <trkpt lat="44.04582" lon="6.84182">
        <ele>947</ele>
        <time>2020-06-05T10:41:53.000Z</time>
      </trkpt>
      <trkpt lat="44.04583" lon="6.84181">
        <ele>947</ele>
        <time>2020-06-05T10:41:54.000Z</time>
      </trkpt>
      <trkpt lat="44.04584" lon="6.84181">
        <ele>947</ele>
        <time>2020-06-05T10:41:55.000Z</time>
      </trkpt>
      <trkpt lat="44.04585" lon="6.84181">
        <ele>947</ele>
        <time>2020-06-05T10:41:56.000Z</time>
      </trkpt>
      <trkpt lat="44.04586" lon="6.84181">
        <ele>947</ele>
        <time>2020-06-05T10:41:57.000Z</time>
      </trkpt>
      <trkpt lat="44.04587" lon="6.84181">
        <ele>947</ele>
        <time>2020-06-05T10:41:58.000Z</time>
      </trkpt>
      <trkpt lat="44.04587" lon="6.84181">
        <ele>947</ele>
        <time>2020-06-05T10:41:59.000Z</time>
      </trkpt>
      <trkpt lat="44.04589" lon="6.84181">
        <ele>947</ele>
        <time>2020-06-05T10:42:00.000Z</time>
      </trkpt>
      <trkpt lat="44.04589" lon="6.8418">
        <ele>947</ele>
        <time>2020-06-05T10:42:01.000Z</time>
      </trkpt>
      <trkpt lat="44.0459" lon="6.8418">
        <ele>947</ele>
        <time>2020-06-05T10:42:02.000Z</time>
      </trkpt>
      <trkpt lat="44.04591" lon="6.8418">
        <ele>947</ele>
        <time>2020-06-05T10:42:03.000Z</time>
      </trkpt>
      <trkpt lat="44.04592" lon="6.84179">
        <ele>947</ele>
        <time>2020-06-05T10:42:04.000Z</time>
      </trkpt>
      <trkpt lat="44.04593" lon="6.84179">
        <ele>947</ele>
        <time>2020-06-05T10:42:05.000Z</time>
      </trkpt>
      <trkpt lat="44.04594" lon="6.84178">
        <ele>947</ele>
        <time>2020-06-05T10:42:06.000Z</time>
      </trkpt>
      <trkpt lat="44.04595" lon="6.84178">
        <ele>947</ele>
        <time>2020-06-05T10:42:07.000Z</time>
      </trkpt>
      <trkpt lat="44.04596" lon="6.84177">
        <ele>947</ele>
        <time>2020-06-05T10:42:08.000Z</time>
      </trkpt>
      <trkpt lat="44.04597" lon="6.84177">
        <ele>947</ele>
        <time>2020-06-05T10:42:09.000Z</time>
      </trkpt>
      <trkpt lat="44.04597" lon="6.84177">
        <ele>947</ele>
        <time>2020-06-05T10:42:10.000Z</time>
      </trkpt>
      <trkpt lat="44.04598" lon="6.84176">
        <ele>947</ele>
        <time>2020-06-05T10:42:11.000Z</time>
      </trkpt>
      <trkpt lat="44.04599" lon="6.84175">
        <ele>947</ele>
        <time>2020-06-05T10:42:12.000Z</time>
      </trkpt>
      <trkpt lat="44.046" lon="6.84175">
        <ele>947</ele>
        <time>2020-06-05T10:42:13.000Z</time>
      </trkpt>
      <trkpt lat="44.04601" lon="6.84174">
        <ele>947</ele>
        <time>2020-06-05T10:42:14.000Z</time>
      </trkpt>
      <trkpt lat="44.04602" lon="6.84174">
        <ele>947</ele>
        <time>2020-06-05T10:42:15.000Z</time>
      </trkpt>
      <trkpt lat="44.04603" lon="6.84173">
        <ele>947</ele>
        <time>2020-06-05T10:42:16.000Z</time>
      </trkpt>
      <trkpt lat="44.04603" lon="6.84173">
        <ele>947</ele>
        <time>2020-06-05T10:42:17.000Z</time>
      </trkpt>
      <trkpt lat="44.04604" lon="6.84172">
        <ele>947</ele>
        <time>2020-06-05T10:42:18.000Z</time>
      </trkpt>
      <trkpt lat="44.04605" lon="6.84172">
        <ele>947</ele>
        <time>2020-06-05T10:42:19.000Z</time>
      </trkpt>
      <trkpt lat="44.04606" lon="6.84171">
        <ele>947</ele>
        <time>2020-06-05T10:42:20.000Z</time>
      </trkpt>
      <trkpt lat="44.04607" lon="6.8417">
        <ele>947</ele>
        <time>2020-06-05T10:42:21.000Z</time>
      </trkpt>
      <trkpt lat="44.04608" lon="6.8417">
        <ele>947</ele>
        <time>2020-06-05T10:42:22.000Z</time>
      </trkpt>
      <trkpt lat="44.04609" lon="6.84169">
        <ele>947</ele>
        <time>2020-06-05T10:42:23.000Z</time>
      </trkpt>
      <trkpt lat="44.04609" lon="6.84168">
        <ele>947</ele>
        <time>2020-06-05T10:42:24.000Z</time>
      </trkpt>
      <trkpt lat="44.0461" lon="6.84167">
        <ele>947</ele>
        <time>2020-06-05T10:42:25.000Z</time>
      </trkpt>
      <trkpt lat="44.04611" lon="6.84167">
        <ele>947</ele>
        <time>2020-06-05T10:42:26.000Z</time>
      </trkpt>
      <trkpt lat="44.04611" lon="6.84166">
        <ele>947</ele>
        <time>2020-06-05T10:42:27.000Z</time>
      </trkpt>
      <trkpt lat="44.04612" lon="6.84166">
        <ele>947</ele>
        <time>2020-06-05T10:42:28.000Z</time>
      </trkpt>
      <trkpt lat="44.04612" lon="6.84166">
        <ele>947</ele>
        <time>2020-06-05T10:42:29.000Z</time>
      </trkpt>
      <trkpt lat="44.04612" lon="6.84166">
        <ele>947</ele>
        <time>2020-06-05T10:42:30.000Z</time>
      </trkpt>
      <trkpt lat="44.04612" lon="6.84166">
        <ele>947</ele>
        <time>2020-06-05T10:42:31.000Z</time>
      </trkpt>
      <trkpt lat="44.04612" lon="6.84166">
        <ele>947</ele>
        <time>2020-06-05T10:42:32.000Z</time>
      </trkpt>
      <trkpt lat="44.04612" lon="6.84166">
        <ele>947</ele>
        <time>2020-06-05T10:42:33.000Z</time>
      </trkpt>
      <trkpt lat="44.04612" lon="6.84166">
        <ele>947</ele>
        <time>2020-06-05T10:42:34.000Z</time>
      </trkpt>
      <trkpt lat="44.04612" lon="6.84166">
        <ele>947</ele>
        <time>2020-06-05T10:42:35.000Z</time>
      </trkpt>
      <trkpt lat="44.04612" lon="6.84166">
        <ele>947</ele>
        <time>2020-06-05T10:42:36.000Z</time>
      </trkpt>
      <trkpt lat="44.04612" lon="6.84166">
        <ele>947</ele>
        <time>2020-06-05T10:42:37.000Z</time>
      </trkpt>
      <trkpt lat="44.04612" lon="6.84166">
        <ele>947</ele>
        <time>2020-06-05T10:42:38.000Z</time>
      </trkpt>
      <trkpt lat="44.04612" lon="6.84166">
        <ele>947</ele>
        <time>2020-06-05T10:42:39.000Z</time>
      </trkpt>
      <trkpt lat="44.04612" lon="6.84166">
        <ele>947</ele>
        <time>2020-06-05T10:42:40.000Z</time>
      </trkpt>
      <trkpt lat="44.04612" lon="6.84166">
        <ele>947</ele>
        <time>2020-06-05T10:42:41.000Z</time>
      </trkpt>
      <trkpt lat="44.04612" lon="6.84166">
        <ele>947</ele>
        <time>2020-06-05T10:42:42.000Z</time>
      </trkpt>
      <trkpt lat="44.04612" lon="6.84166">
        <ele>947</ele>
        <time>2020-06-05T10:42:43.000Z</time>
      </trkpt>
      <trkpt lat="44.04612" lon="6.84166">
        <ele>947</ele>
        <time>2020-06-05T10:42:44.000Z</time>
      </trkpt>
      <trkpt lat="44.04612" lon="6.84166">
        <ele>947</ele>
        <time>2020-06-05T10:42:45.000Z</time>
      </trkpt>
      <trkpt lat="44.04612" lon="6.84166">
        <ele>947</ele>
        <time>2020-06-05T10:42:46.000Z</time>
      </trkpt>
      <trkpt lat="44.04612" lon="6.84166">
        <ele>947</ele>
        <time>2020-06-05T10:42:47.000Z</time>
      </trkpt>
      <trkpt lat="44.04612" lon="6.84165">
        <ele>947</ele>
        <time>2020-06-05T10:42:48.000Z</time>
      </trkpt>
      <trkpt lat="44.04612" lon="6.84165">
        <ele>947</ele>
        <time>2020-06-05T10:42:49.000Z</time>
      </trkpt>
      <trkpt lat="44.04612" lon="6.84165">
        <ele>947</ele>
        <time>2020-06-05T10:42:50.000Z</time>
      </trkpt>
      <trkpt lat="44.04612" lon="6.84165">
        <ele>947</ele>
        <time>2020-06-05T10:42:51.000Z</time>
      </trkpt>
      <trkpt lat="44.04612" lon="6.84165">
        <ele>947</ele>
        <time>2020-06-05T10:42:52.000Z</time>
      </trkpt>
      <trkpt lat="44.04612" lon="6.84165">
        <ele>947</ele>
        <time>2020-06-05T10:42:53.000Z</time>
      </trkpt>
      <trkpt lat="44.04612" lon="6.84165">
        <ele>947</ele>
        <time>2020-06-05T10:42:54.000Z</time>
      </trkpt>
      <trkpt lat="44.04611" lon="6.84165">
        <ele>947</ele>
        <time>2020-06-05T10:42:55.000Z</time>
      </trkpt>
      <trkpt lat="44.04612" lon="6.84164">
        <ele>947</ele>
        <time>2020-06-05T10:42:56.000Z</time>
      </trkpt>
      <trkpt lat="44.04612" lon="6.84163">
        <ele>947</ele>
        <time>2020-06-05T10:42:57.000Z</time>
      </trkpt>
      <trkpt lat="44.04612" lon="6.84163">
        <ele>947</ele>
        <time>2020-06-05T10:42:58.000Z</time>
      </trkpt>
      <trkpt lat="44.04612" lon="6.84161">
        <ele>947</ele>
        <time>2020-06-05T10:42:59.000Z</time>
      </trkpt>
      <trkpt lat="44.04613" lon="6.8416">
        <ele>947</ele>
        <time>2020-06-05T10:43:00.000Z</time>
      </trkpt>
      <trkpt lat="44.04613" lon="6.84158">
        <ele>947</ele>
        <time>2020-06-05T10:43:01.000Z</time>
      </trkpt>
      <trkpt lat="44.04614" lon="6.84157">
        <ele>947</ele>
        <time>2020-06-05T10:43:02.000Z</time>
      </trkpt>
      <trkpt lat="44.04615" lon="6.84156">
        <ele>947</ele>
        <time>2020-06-05T10:43:03.000Z</time>
      </trkpt>
      <trkpt lat="44.04615" lon="6.84155">
        <ele>947</ele>
        <time>2020-06-05T10:43:04.000Z</time>
      </trkpt>
      <trkpt lat="44.04616" lon="6.84154">
        <ele>947</ele>
        <time>2020-06-05T10:43:05.000Z</time>
      </trkpt>
      <trkpt lat="44.04616" lon="6.84154">
        <ele>947</ele>
        <time>2020-06-05T10:43:06.000Z</time>
      </trkpt>
      <trkpt lat="44.04617" lon="6.84153">
        <ele>947</ele>
        <time>2020-06-05T10:43:07.000Z</time>
      </trkpt>
      <trkpt lat="44.04618" lon="6.84152">
        <ele>948</ele>
        <time>2020-06-05T10:43:08.000Z</time>
      </trkpt>
      <trkpt lat="44.04618" lon="6.84151">
        <ele>948</ele>
        <time>2020-06-05T10:43:09.000Z</time>
      </trkpt>
      <trkpt lat="44.04619" lon="6.84151">
        <ele>948</ele>
        <time>2020-06-05T10:43:10.000Z</time>
      </trkpt>
      <trkpt lat="44.0462" lon="6.8415">
        <ele>948</ele>
        <time>2020-06-05T10:43:11.000Z</time>
      </trkpt>
      <trkpt lat="44.0462" lon="6.84149">
        <ele>948</ele>
        <time>2020-06-05T10:43:12.000Z</time>
      </trkpt>
      <trkpt lat="44.04621" lon="6.84148">
        <ele>948</ele>
        <time>2020-06-05T10:43:13.000Z</time>
      </trkpt>
      <trkpt lat="44.04621" lon="6.84148">
        <ele>948</ele>
        <time>2020-06-05T10:43:14.000Z</time>
      </trkpt>
      <trkpt lat="44.04622" lon="6.84147">
        <ele>948</ele>
        <time>2020-06-05T10:43:15.000Z</time>
      </trkpt>
      <trkpt lat="44.04623" lon="6.84147">
        <ele>948</ele>
        <time>2020-06-05T10:43:16.000Z</time>
      </trkpt>
      <trkpt lat="44.04623" lon="6.84146">
        <ele>948</ele>
        <time>2020-06-05T10:43:17.000Z</time>
      </trkpt>
      <trkpt lat="44.04624" lon="6.84146">
        <ele>948</ele>
        <time>2020-06-05T10:43:18.000Z</time>
      </trkpt>
      <trkpt lat="44.04624" lon="6.84146">
        <ele>948</ele>
        <time>2020-06-05T10:43:19.000Z</time>
      </trkpt>
      <trkpt lat="44.04625" lon="6.84146">
        <ele>948</ele>
        <time>2020-06-05T10:43:20.000Z</time>
      </trkpt>
      <trkpt lat="44.04626" lon="6.84145">
        <ele>948</ele>
        <time>2020-06-05T10:43:21.000Z</time>
      </trkpt>
      <trkpt lat="44.04626" lon="6.84145">
        <ele>948</ele>
        <time>2020-06-05T10:43:22.000Z</time>
      </trkpt>
      <trkpt lat="44.04627" lon="6.84145">
        <ele>948</ele>
        <time>2020-06-05T10:43:23.000Z</time>
      </trkpt>
      <trkpt lat="44.04628" lon="6.84144">
        <ele>948</ele>
        <time>2020-06-05T10:43:24.000Z</time>
      </trkpt>
      <trkpt lat="44.04628" lon="6.84144">
        <ele>948</ele>
        <time>2020-06-05T10:43:25.000Z</time>
      </trkpt>
      <trkpt lat="44.04629" lon="6.84143">
        <ele>948</ele>
        <time>2020-06-05T10:43:26.000Z</time>
      </trkpt>
      <trkpt lat="44.04629" lon="6.84143">
        <ele>948</ele>
        <time>2020-06-05T10:43:27.000Z</time>
      </trkpt>
      <trkpt lat="44.0463" lon="6.84142">
        <ele>948</ele>
        <time>2020-06-05T10:43:28.000Z</time>
      </trkpt>
      <trkpt lat="44.0463" lon="6.84141">
        <ele>948</ele>
        <time>2020-06-05T10:43:29.000Z</time>
      </trkpt>
      <trkpt lat="44.04631" lon="6.8414">
        <ele>948</ele>
        <time>2020-06-05T10:43:30.000Z</time>
      </trkpt>
      <trkpt lat="44.04631" lon="6.8414">
        <ele>948</ele>
        <time>2020-06-05T10:43:31.000Z</time>
      </trkpt>
      <trkpt lat="44.04632" lon="6.84139">
        <ele>948</ele>
        <time>2020-06-05T10:43:32.000Z</time>
      </trkpt>
      <trkpt lat="44.04633" lon="6.84138">
        <ele>948</ele>
        <time>2020-06-05T10:43:33.000Z</time>
      </trkpt>
      <trkpt lat="44.04633" lon="6.84138">
        <ele>947</ele>
        <time>2020-06-05T10:43:34.000Z</time>
      </trkpt>
      <trkpt lat="44.04634" lon="6.84137">
        <ele>947</ele>
        <time>2020-06-05T10:43:35.000Z</time>
      </trkpt>
      <trkpt lat="44.04635" lon="6.84136">
        <ele>947</ele>
        <time>2020-06-05T10:43:36.000Z</time>
      </trkpt>
      <trkpt lat="44.04636" lon="6.84136">
        <ele>947</ele>
        <time>2020-06-05T10:43:37.000Z</time>
      </trkpt>
      <trkpt lat="44.04637" lon="6.84135">
        <ele>947</ele>
        <time>2020-06-05T10:43:38.000Z</time>
      </trkpt>
      <trkpt lat="44.04638" lon="6.84134">
        <ele>947</ele>
        <time>2020-06-05T10:43:39.000Z</time>
      </trkpt>
      <trkpt lat="44.04639" lon="6.84133">
        <ele>947</ele>
        <time>2020-06-05T10:43:40.000Z</time>
      </trkpt>
      <trkpt lat="44.0464" lon="6.84133">
        <ele>947</ele>
        <time>2020-06-05T10:43:41.000Z</time>
      </trkpt>
      <trkpt lat="44.04641" lon="6.84132">
        <ele>947</ele>
        <time>2020-06-05T10:43:42.000Z</time>
      </trkpt>
      <trkpt lat="44.04642" lon="6.84131">
        <ele>947</ele>
        <time>2020-06-05T10:43:43.000Z</time>
      </trkpt>
      <trkpt lat="44.04643" lon="6.84131">
        <ele>947</ele>
        <time>2020-06-05T10:43:44.000Z</time>
      </trkpt>
      <trkpt lat="44.04644" lon="6.8413">
        <ele>947</ele>
        <time>2020-06-05T10:43:45.000Z</time>
      </trkpt>
      <trkpt lat="44.04645" lon="6.8413">
        <ele>947</ele>
        <time>2020-06-05T10:43:46.000Z</time>
      </trkpt>
      <trkpt lat="44.04646" lon="6.84129">
        <ele>947</ele>
        <time>2020-06-05T10:43:47.000Z</time>
      </trkpt>
      <trkpt lat="44.04647" lon="6.84129">
        <ele>947</ele>
        <time>2020-06-05T10:43:48.000Z</time>
      </trkpt>
      <trkpt lat="44.04648" lon="6.84129">
        <ele>947</ele>
        <time>2020-06-05T10:43:49.000Z</time>
      </trkpt>
      <trkpt lat="44.04649" lon="6.84128">
        <ele>947</ele>
        <time>2020-06-05T10:43:50.000Z</time>
      </trkpt>
      <trkpt lat="44.0465" lon="6.84128">
        <ele>947</ele>
        <time>2020-06-05T10:43:51.000Z</time>
      </trkpt>
      <trkpt lat="44.04651" lon="6.84127">
        <ele>947</ele>
        <time>2020-06-05T10:43:52.000Z</time>
      </trkpt>
      <trkpt lat="44.04652" lon="6.84127">
        <ele>947</ele>
        <time>2020-06-05T10:43:53.000Z</time>
      </trkpt>
      <trkpt lat="44.04653" lon="6.84126">
        <ele>947</ele>
        <time>2020-06-05T10:43:54.000Z</time>
      </trkpt>
      <trkpt lat="44.04654" lon="6.84125">
        <ele>948</ele>
        <time>2020-06-05T10:43:55.000Z</time>
      </trkpt>
      <trkpt lat="44.04655" lon="6.84125">
        <ele>948</ele>
        <time>2020-06-05T10:43:56.000Z</time>
      </trkpt>
      <trkpt lat="44.04656" lon="6.84124">
        <ele>948</ele>
        <time>2020-06-05T10:43:57.000Z</time>
      </trkpt>
      <trkpt lat="44.04657" lon="6.84124">
        <ele>948</ele>
        <time>2020-06-05T10:43:58.000Z</time>
      </trkpt>
      <trkpt lat="44.04658" lon="6.84124">
        <ele>948</ele>
        <time>2020-06-05T10:43:59.000Z</time>
      </trkpt>
      <trkpt lat="44.04659" lon="6.84123">
        <ele>948</ele>
        <time>2020-06-05T10:44:00.000Z</time>
      </trkpt>
      <trkpt lat="44.0466" lon="6.84123">
        <ele>948</ele>
        <time>2020-06-05T10:44:01.000Z</time>
      </trkpt>
      <trkpt lat="44.04661" lon="6.84122">
        <ele>948</ele>
        <time>2020-06-05T10:44:02.000Z</time>
      </trkpt>
      <trkpt lat="44.04663" lon="6.84122">
        <ele>948</ele>
        <time>2020-06-05T10:44:03.000Z</time>
      </trkpt>
      <trkpt lat="44.04664" lon="6.84123">
        <ele>948</ele>
        <time>2020-06-05T10:44:04.000Z</time>
      </trkpt>
      <trkpt lat="44.04665" lon="6.84123">
        <ele>948</ele>
        <time>2020-06-05T10:44:05.000Z</time>
      </trkpt>
      <trkpt lat="44.04666" lon="6.84122">
        <ele>948</ele>
        <time>2020-06-05T10:44:06.000Z</time>
      </trkpt>
      <trkpt lat="44.04667" lon="6.84122">
        <ele>947</ele>
        <time>2020-06-05T10:44:07.000Z</time>
      </trkpt>
      <trkpt lat="44.04668" lon="6.84121">
        <ele>947</ele>
        <time>2020-06-05T10:44:08.000Z</time>
      </trkpt>
      <trkpt lat="44.04669" lon="6.84121">
        <ele>947</ele>
        <time>2020-06-05T10:44:09.000Z</time>
      </trkpt>
      <trkpt lat="44.0467" lon="6.84121">
        <ele>948</ele>
        <time>2020-06-05T10:44:10.000Z</time>
      </trkpt>
      <trkpt lat="44.04671" lon="6.8412">
        <ele>948</ele>
        <time>2020-06-05T10:44:11.000Z</time>
      </trkpt>
      <trkpt lat="44.04672" lon="6.8412">
        <ele>948</ele>
        <time>2020-06-05T10:44:12.000Z</time>
      </trkpt>
      <trkpt lat="44.04673" lon="6.84119">
        <ele>948</ele>
        <time>2020-06-05T10:44:13.000Z</time>
      </trkpt>
      <trkpt lat="44.04674" lon="6.84118">
        <ele>948</ele>
        <time>2020-06-05T10:44:14.000Z</time>
      </trkpt>
      <trkpt lat="44.04675" lon="6.84118">
        <ele>948</ele>
        <time>2020-06-05T10:44:15.000Z</time>
      </trkpt>
      <trkpt lat="44.04676" lon="6.84117">
        <ele>948</ele>
        <time>2020-06-05T10:44:16.000Z</time>
      </trkpt>
      <trkpt lat="44.04677" lon="6.84117">
        <ele>948</ele>
        <time>2020-06-05T10:44:17.000Z</time>
      </trkpt>
      <trkpt lat="44.04678" lon="6.84116">
        <ele>948</ele>
        <time>2020-06-05T10:44:18.000Z</time>
      </trkpt>
      <trkpt lat="44.04678" lon="6.84116">
        <ele>949</ele>
        <time>2020-06-05T10:44:19.000Z</time>
      </trkpt>
      <trkpt lat="44.04679" lon="6.84115">
        <ele>949</ele>
        <time>2020-06-05T10:44:20.000Z</time>
      </trkpt>
      <trkpt lat="44.0468" lon="6.84114">
        <ele>949</ele>
        <time>2020-06-05T10:44:21.000Z</time>
      </trkpt>
      <trkpt lat="44.04681" lon="6.84114">
        <ele>949</ele>
        <time>2020-06-05T10:44:22.000Z</time>
      </trkpt>
      <trkpt lat="44.04682" lon="6.84113">
        <ele>949</ele>
        <time>2020-06-05T10:44:23.000Z</time>
      </trkpt>
      <trkpt lat="44.04683" lon="6.84112">
        <ele>950</ele>
        <time>2020-06-05T10:44:24.000Z</time>
      </trkpt>
      <trkpt lat="44.04684" lon="6.84111">
        <ele>950</ele>
        <time>2020-06-05T10:44:25.000Z</time>
      </trkpt>
      <trkpt lat="44.04684" lon="6.84111">
        <ele>950</ele>
        <time>2020-06-05T10:44:26.000Z</time>
      </trkpt>
      <trkpt lat="44.04685" lon="6.8411">
        <ele>950</ele>
        <time>2020-06-05T10:44:27.000Z</time>
      </trkpt>
      <trkpt lat="44.04686" lon="6.8411">
        <ele>950</ele>
        <time>2020-06-05T10:44:28.000Z</time>
      </trkpt>
      <trkpt lat="44.04687" lon="6.84109">
        <ele>950</ele>
        <time>2020-06-05T10:44:29.000Z</time>
      </trkpt>
      <trkpt lat="44.04687" lon="6.84108">
        <ele>951</ele>
        <time>2020-06-05T10:44:30.000Z</time>
      </trkpt>
      <trkpt lat="44.04688" lon="6.84107">
        <ele>951</ele>
        <time>2020-06-05T10:44:31.000Z</time>
      </trkpt>
      <trkpt lat="44.04689" lon="6.84107">
        <ele>951</ele>
        <time>2020-06-05T10:44:32.000Z</time>
      </trkpt>
      <trkpt lat="44.0469" lon="6.84106">
        <ele>951</ele>
        <time>2020-06-05T10:44:33.000Z</time>
      </trkpt>
      <trkpt lat="44.0469" lon="6.84105">
        <ele>951</ele>
        <time>2020-06-05T10:44:34.000Z</time>
      </trkpt>
      <trkpt lat="44.04691" lon="6.84105">
        <ele>952</ele>
        <time>2020-06-05T10:44:35.000Z</time>
      </trkpt>
      <trkpt lat="44.04692" lon="6.84104">
        <ele>952</ele>
        <time>2020-06-05T10:44:36.000Z</time>
      </trkpt>
      <trkpt lat="44.04693" lon="6.84103">
        <ele>952</ele>
        <time>2020-06-05T10:44:37.000Z</time>
      </trkpt>
      <trkpt lat="44.04693" lon="6.84103">
        <ele>952</ele>
        <time>2020-06-05T10:44:38.000Z</time>
      </trkpt>
      <trkpt lat="44.04694" lon="6.84103">
        <ele>952</ele>
        <time>2020-06-05T10:44:39.000Z</time>
      </trkpt>
      <trkpt lat="44.04695" lon="6.84102">
        <ele>952</ele>
        <time>2020-06-05T10:44:40.000Z</time>
      </trkpt>
      <trkpt lat="44.04696" lon="6.84102">
        <ele>952</ele>
        <time>2020-06-05T10:44:41.000Z</time>
      </trkpt>
      <trkpt lat="44.04697" lon="6.84101">
        <ele>953</ele>
        <time>2020-06-05T10:44:42.000Z</time>
      </trkpt>
      <trkpt lat="44.04697" lon="6.84101">
        <ele>953</ele>
        <time>2020-06-05T10:44:43.000Z</time>
      </trkpt>
      <trkpt lat="44.04698" lon="6.841">
        <ele>953</ele>
        <time>2020-06-05T10:44:44.000Z</time>
      </trkpt>
      <trkpt lat="44.04699" lon="6.841">
        <ele>953</ele>
        <time>2020-06-05T10:44:45.000Z</time>
      </trkpt>
      <trkpt lat="44.047" lon="6.841">
        <ele>953</ele>
        <time>2020-06-05T10:44:46.000Z</time>
      </trkpt>
      <trkpt lat="44.04701" lon="6.84099">
        <ele>953</ele>
        <time>2020-06-05T10:44:47.000Z</time>
      </trkpt>
      <trkpt lat="44.04702" lon="6.84099">
        <ele>953</ele>
        <time>2020-06-05T10:44:48.000Z</time>
      </trkpt>
      <trkpt lat="44.04703" lon="6.84099">
        <ele>953</ele>
        <time>2020-06-05T10:44:49.000Z</time>
      </trkpt>
      <trkpt lat="44.04704" lon="6.84098">
        <ele>953</ele>
        <time>2020-06-05T10:44:50.000Z</time>
      </trkpt>
      <trkpt lat="44.04705" lon="6.84098">
        <ele>953</ele>
        <time>2020-06-05T10:44:51.000Z</time>
      </trkpt>
      <trkpt lat="44.04706" lon="6.84097">
        <ele>953</ele>
        <time>2020-06-05T10:44:52.000Z</time>
      </trkpt>
      <trkpt lat="44.04707" lon="6.84097">
        <ele>953</ele>
        <time>2020-06-05T10:44:53.000Z</time>
      </trkpt>
      <trkpt lat="44.04707" lon="6.84096">
        <ele>953</ele>
        <time>2020-06-05T10:44:54.000Z</time>
      </trkpt>
      <trkpt lat="44.04708" lon="6.84095">
        <ele>954</ele>
        <time>2020-06-05T10:44:55.000Z</time>
      </trkpt>
      <trkpt lat="44.04709" lon="6.84095">
        <ele>954</ele>
        <time>2020-06-05T10:44:56.000Z</time>
      </trkpt>
      <trkpt lat="44.0471" lon="6.84094">
        <ele>954</ele>
        <time>2020-06-05T10:44:57.000Z</time>
      </trkpt>
      <trkpt lat="44.0471" lon="6.84093">
        <ele>954</ele>
        <time>2020-06-05T10:44:58.000Z</time>
      </trkpt>
      <trkpt lat="44.04711" lon="6.84093">
        <ele>954</ele>
        <time>2020-06-05T10:44:59.000Z</time>
      </trkpt>
      <trkpt lat="44.04712" lon="6.84092">
        <ele>954</ele>
        <time>2020-06-05T10:45:00.000Z</time>
      </trkpt>
      <trkpt lat="44.04713" lon="6.84092">
        <ele>954</ele>
        <time>2020-06-05T10:45:01.000Z</time>
      </trkpt>
      <trkpt lat="44.04714" lon="6.84091">
        <ele>954</ele>
        <time>2020-06-05T10:45:02.000Z</time>
      </trkpt>
      <trkpt lat="44.04715" lon="6.8409">
        <ele>954</ele>
        <time>2020-06-05T10:45:03.000Z</time>
      </trkpt>
      <trkpt lat="44.04715" lon="6.84089">
        <ele>954</ele>
        <time>2020-06-05T10:45:04.000Z</time>
      </trkpt>
      <trkpt lat="44.04716" lon="6.84088">
        <ele>954</ele>
        <time>2020-06-05T10:45:05.000Z</time>
      </trkpt>
      <trkpt lat="44.04716" lon="6.84087">
        <ele>954</ele>
        <time>2020-06-05T10:45:06.000Z</time>
      </trkpt>
      <trkpt lat="44.04717" lon="6.84086">
        <ele>954</ele>
        <time>2020-06-05T10:45:07.000Z</time>
      </trkpt>
      <trkpt lat="44.04717" lon="6.84085">
        <ele>955</ele>
        <time>2020-06-05T10:45:08.000Z</time>
      </trkpt>
      <trkpt lat="44.04718" lon="6.84084">
        <ele>955</ele>
        <time>2020-06-05T10:45:09.000Z</time>
      </trkpt>
      <trkpt lat="44.04719" lon="6.84083">
        <ele>955</ele>
        <time>2020-06-05T10:45:10.000Z</time>
      </trkpt>
      <trkpt lat="44.04719" lon="6.84082">
        <ele>955</ele>
        <time>2020-06-05T10:45:11.000Z</time>
      </trkpt>
      <trkpt lat="44.0472" lon="6.84081">
        <ele>955</ele>
        <time>2020-06-05T10:45:12.000Z</time>
      </trkpt>
      <trkpt lat="44.04721" lon="6.84079">
        <ele>955</ele>
        <time>2020-06-05T10:45:13.000Z</time>
      </trkpt>
      <trkpt lat="44.04721" lon="6.84079">
        <ele>955</ele>
        <time>2020-06-05T10:45:14.000Z</time>
      </trkpt>
      <trkpt lat="44.04722" lon="6.84077">
        <ele>955</ele>
        <time>2020-06-05T10:45:15.000Z</time>
      </trkpt>
      <trkpt lat="44.04722" lon="6.84076">
        <ele>955</ele>
        <time>2020-06-05T10:45:16.000Z</time>
      </trkpt>
      <trkpt lat="44.04723" lon="6.84075">
        <ele>955</ele>
        <time>2020-06-05T10:45:17.000Z</time>
      </trkpt>
      <trkpt lat="44.04723" lon="6.84074">
        <ele>955</ele>
        <time>2020-06-05T10:45:18.000Z</time>
      </trkpt>
      <trkpt lat="44.04724" lon="6.84073">
        <ele>955</ele>
        <time>2020-06-05T10:45:19.000Z</time>
      </trkpt>
      <trkpt lat="44.04724" lon="6.84072">
        <ele>955</ele>
        <time>2020-06-05T10:45:20.000Z</time>
      </trkpt>
      <trkpt lat="44.04724" lon="6.8407">
        <ele>955</ele>
        <time>2020-06-05T10:45:21.000Z</time>
      </trkpt>
      <trkpt lat="44.04724" lon="6.84069">
        <ele>956</ele>
        <time>2020-06-05T10:45:22.000Z</time>
      </trkpt>
      <trkpt lat="44.04725" lon="6.84068">
        <ele>956</ele>
        <time>2020-06-05T10:45:23.000Z</time>
      </trkpt>
      <trkpt lat="44.04725" lon="6.84067">
        <ele>956</ele>
        <time>2020-06-05T10:45:24.000Z</time>
      </trkpt>
      <trkpt lat="44.04726" lon="6.84066">
        <ele>956</ele>
        <time>2020-06-05T10:45:25.000Z</time>
      </trkpt>
      <trkpt lat="44.04727" lon="6.84065">
        <ele>956</ele>
        <time>2020-06-05T10:45:26.000Z</time>
      </trkpt>
      <trkpt lat="44.04727" lon="6.84064">
        <ele>956</ele>
        <time>2020-06-05T10:45:27.000Z</time>
      </trkpt>
      <trkpt lat="44.04728" lon="6.84064">
        <ele>957</ele>
        <time>2020-06-05T10:45:28.000Z</time>
      </trkpt>
      <trkpt lat="44.04728" lon="6.84063">
        <ele>957</ele>
        <time>2020-06-05T10:45:29.000Z</time>
      </trkpt>
      <trkpt lat="44.04728" lon="6.84062">
        <ele>957</ele>
        <time>2020-06-05T10:45:30.000Z</time>
      </trkpt>
      <trkpt lat="44.04729" lon="6.84061">
        <ele>957</ele>
        <time>2020-06-05T10:45:31.000Z</time>
      </trkpt>
      <trkpt lat="44.04729" lon="6.8406">
        <ele>958</ele>
        <time>2020-06-05T10:45:32.000Z</time>
      </trkpt>
      <trkpt lat="44.0473" lon="6.84059">
        <ele>958</ele>
        <time>2020-06-05T10:45:33.000Z</time>
      </trkpt>
      <trkpt lat="44.0473" lon="6.84058">
        <ele>958</ele>
        <time>2020-06-05T10:45:34.000Z</time>
      </trkpt>
      <trkpt lat="44.0473" lon="6.84058">
        <ele>958</ele>
        <time>2020-06-05T10:45:35.000Z</time>
      </trkpt>
      <trkpt lat="44.04731" lon="6.84057">
        <ele>958</ele>
        <time>2020-06-05T10:45:36.000Z</time>
      </trkpt>
      <trkpt lat="44.04731" lon="6.84056">
        <ele>958</ele>
        <time>2020-06-05T10:45:37.000Z</time>
      </trkpt>
      <trkpt lat="44.04731" lon="6.84056">
        <ele>958</ele>
        <time>2020-06-05T10:45:38.000Z</time>
      </trkpt>
      <trkpt lat="44.04732" lon="6.84055">
        <ele>959</ele>
        <time>2020-06-05T10:45:39.000Z</time>
      </trkpt>
      <trkpt lat="44.04732" lon="6.84054">
        <ele>959</ele>
        <time>2020-06-05T10:45:40.000Z</time>
      </trkpt>
      <trkpt lat="44.04732" lon="6.84054">
        <ele>959</ele>
        <time>2020-06-05T10:45:41.000Z</time>
      </trkpt>
      <trkpt lat="44.04732" lon="6.84053">
        <ele>959</ele>
        <time>2020-06-05T10:45:42.000Z</time>
      </trkpt>
      <trkpt lat="44.04733" lon="6.84052">
        <ele>959</ele>
        <time>2020-06-05T10:45:43.000Z</time>
      </trkpt>
      <trkpt lat="44.04733" lon="6.84052">
        <ele>959</ele>
        <time>2020-06-05T10:45:44.000Z</time>
      </trkpt>
      <trkpt lat="44.04734" lon="6.84051">
        <ele>959</ele>
        <time>2020-06-05T10:45:45.000Z</time>
      </trkpt>
      <trkpt lat="44.04734" lon="6.8405">
        <ele>960</ele>
        <time>2020-06-05T10:45:46.000Z</time>
      </trkpt>
      <trkpt lat="44.04735" lon="6.84049">
        <ele>960</ele>
        <time>2020-06-05T10:45:47.000Z</time>
      </trkpt>
      <trkpt lat="44.04736" lon="6.84048">
        <ele>960</ele>
        <time>2020-06-05T10:45:48.000Z</time>
      </trkpt>
      <trkpt lat="44.04736" lon="6.84048">
        <ele>960</ele>
        <time>2020-06-05T10:45:49.000Z</time>
      </trkpt>
      <trkpt lat="44.04736" lon="6.84047">
        <ele>960</ele>
        <time>2020-06-05T10:45:50.000Z</time>
      </trkpt>
      <trkpt lat="44.04737" lon="6.84046">
        <ele>960</ele>
        <time>2020-06-05T10:45:51.000Z</time>
      </trkpt>
      <trkpt lat="44.04738" lon="6.84045">
        <ele>960</ele>
        <time>2020-06-05T10:45:52.000Z</time>
      </trkpt>
      <trkpt lat="44.04738" lon="6.84044">
        <ele>961</ele>
        <time>2020-06-05T10:45:53.000Z</time>
      </trkpt>
      <trkpt lat="44.04738" lon="6.84043">
        <ele>961</ele>
        <time>2020-06-05T10:45:54.000Z</time>
      </trkpt>
      <trkpt lat="44.04739" lon="6.84043">
        <ele>961</ele>
        <time>2020-06-05T10:45:55.000Z</time>
      </trkpt>
      <trkpt lat="44.04739" lon="6.84042">
        <ele>961</ele>
        <time>2020-06-05T10:45:56.000Z</time>
      </trkpt>
      <trkpt lat="44.0474" lon="6.84041">
        <ele>961</ele>
        <time>2020-06-05T10:45:57.000Z</time>
      </trkpt>
      <trkpt lat="44.0474" lon="6.84041">
        <ele>961</ele>
        <time>2020-06-05T10:45:58.000Z</time>
      </trkpt>
      <trkpt lat="44.04741" lon="6.8404">
        <ele>962</ele>
        <time>2020-06-05T10:45:59.000Z</time>
      </trkpt>
      <trkpt lat="44.04741" lon="6.84039">
        <ele>962</ele>
        <time>2020-06-05T10:46:00.000Z</time>
      </trkpt>
      <trkpt lat="44.04741" lon="6.84039">
        <ele>962</ele>
        <time>2020-06-05T10:46:01.000Z</time>
      </trkpt>
      <trkpt lat="44.04742" lon="6.84038">
        <ele>962</ele>
        <time>2020-06-05T10:46:02.000Z</time>
      </trkpt>
      <trkpt lat="44.04742" lon="6.84038">
        <ele>962</ele>
        <time>2020-06-05T10:46:03.000Z</time>
      </trkpt>
      <trkpt lat="44.04743" lon="6.84038">
        <ele>962</ele>
        <time>2020-06-05T10:46:04.000Z</time>
      </trkpt>
      <trkpt lat="44.04744" lon="6.84037">
        <ele>962</ele>
        <time>2020-06-05T10:46:05.000Z</time>
      </trkpt>
      <trkpt lat="44.04744" lon="6.84037">
        <ele>962</ele>
        <time>2020-06-05T10:46:06.000Z</time>
      </trkpt>
      <trkpt lat="44.04745" lon="6.84037">
        <ele>962</ele>
        <time>2020-06-05T10:46:07.000Z</time>
      </trkpt>
      <trkpt lat="44.04746" lon="6.84037">
        <ele>962</ele>
        <time>2020-06-05T10:46:08.000Z</time>
      </trkpt>
      <trkpt lat="44.04747" lon="6.84037">
        <ele>962</ele>
        <time>2020-06-05T10:46:09.000Z</time>
      </trkpt>
      <trkpt lat="44.04747" lon="6.84037">
        <ele>962</ele>
        <time>2020-06-05T10:46:10.000Z</time>
      </trkpt>
      <trkpt lat="44.04748" lon="6.84037">
        <ele>962</ele>
        <time>2020-06-05T10:46:11.000Z</time>
      </trkpt>
      <trkpt lat="44.04749" lon="6.84037">
        <ele>962</ele>
        <time>2020-06-05T10:46:12.000Z</time>
      </trkpt>
      <trkpt lat="44.0475" lon="6.84037">
        <ele>962</ele>
        <time>2020-06-05T10:46:13.000Z</time>
      </trkpt>
      <trkpt lat="44.04751" lon="6.84036">
        <ele>962</ele>
        <time>2020-06-05T10:46:14.000Z</time>
      </trkpt>
      <trkpt lat="44.04752" lon="6.84036">
        <ele>962</ele>
        <time>2020-06-05T10:46:15.000Z</time>
      </trkpt>
      <trkpt lat="44.04753" lon="6.84036">
        <ele>962</ele>
        <time>2020-06-05T10:46:16.000Z</time>
      </trkpt>
      <trkpt lat="44.04754" lon="6.84036">
        <ele>962</ele>
        <time>2020-06-05T10:46:17.000Z</time>
      </trkpt>
      <trkpt lat="44.04755" lon="6.84035">
        <ele>962</ele>
        <time>2020-06-05T10:46:18.000Z</time>
      </trkpt>
      <trkpt lat="44.04755" lon="6.84035">
        <ele>962</ele>
        <time>2020-06-05T10:46:19.000Z</time>
      </trkpt>
      <trkpt lat="44.04756" lon="6.84034">
        <ele>962</ele>
        <time>2020-06-05T10:46:20.000Z</time>
      </trkpt>
      <trkpt lat="44.04757" lon="6.84034">
        <ele>962</ele>
        <time>2020-06-05T10:46:21.000Z</time>
      </trkpt>
      <trkpt lat="44.04758" lon="6.84034">
        <ele>962</ele>
        <time>2020-06-05T10:46:22.000Z</time>
      </trkpt>
      <trkpt lat="44.04759" lon="6.84034">
        <ele>962</ele>
        <time>2020-06-05T10:46:23.000Z</time>
      </trkpt>
      <trkpt lat="44.0476" lon="6.84033">
        <ele>962</ele>
        <time>2020-06-05T10:46:24.000Z</time>
      </trkpt>
      <trkpt lat="44.04761" lon="6.84032">
        <ele>962</ele>
        <time>2020-06-05T10:46:25.000Z</time>
      </trkpt>
      <trkpt lat="44.04761" lon="6.84032">
        <ele>962</ele>
        <time>2020-06-05T10:46:26.000Z</time>
      </trkpt>
      <trkpt lat="44.04762" lon="6.84032">
        <ele>962</ele>
        <time>2020-06-05T10:46:27.000Z</time>
      </trkpt>
      <trkpt lat="44.04763" lon="6.84031">
        <ele>962</ele>
        <time>2020-06-05T10:46:28.000Z</time>
      </trkpt>
      <trkpt lat="44.04764" lon="6.8403">
        <ele>962</ele>
        <time>2020-06-05T10:46:29.000Z</time>
      </trkpt>
      <trkpt lat="44.04765" lon="6.8403">
        <ele>962</ele>
        <time>2020-06-05T10:46:30.000Z</time>
      </trkpt>
      <trkpt lat="44.04766" lon="6.8403">
        <ele>962</ele>
        <time>2020-06-05T10:46:31.000Z</time>
      </trkpt>
      <trkpt lat="44.04766" lon="6.84029">
        <ele>963</ele>
        <time>2020-06-05T10:46:32.000Z</time>
      </trkpt>
      <trkpt lat="44.04767" lon="6.84029">
        <ele>963</ele>
        <time>2020-06-05T10:46:33.000Z</time>
      </trkpt>
      <trkpt lat="44.04768" lon="6.84029">
        <ele>963</ele>
        <time>2020-06-05T10:46:34.000Z</time>
      </trkpt>
      <trkpt lat="44.04769" lon="6.84028">
        <ele>963</ele>
        <time>2020-06-05T10:46:35.000Z</time>
      </trkpt>
      <trkpt lat="44.0477" lon="6.84028">
        <ele>963</ele>
        <time>2020-06-05T10:46:36.000Z</time>
      </trkpt>
      <trkpt lat="44.0477" lon="6.84028">
        <ele>963</ele>
        <time>2020-06-05T10:46:37.000Z</time>
      </trkpt>
      <trkpt lat="44.04771" lon="6.84028">
        <ele>963</ele>
        <time>2020-06-05T10:46:38.000Z</time>
      </trkpt>
      <trkpt lat="44.04772" lon="6.84028">
        <ele>963</ele>
        <time>2020-06-05T10:46:39.000Z</time>
      </trkpt>
      <trkpt lat="44.04773" lon="6.84028">
        <ele>963</ele>
        <time>2020-06-05T10:46:40.000Z</time>
      </trkpt>
      <trkpt lat="44.04774" lon="6.84027">
        <ele>963</ele>
        <time>2020-06-05T10:46:41.000Z</time>
      </trkpt>
      <trkpt lat="44.04775" lon="6.84027">
        <ele>962</ele>
        <time>2020-06-05T10:46:42.000Z</time>
      </trkpt>
      <trkpt lat="44.04776" lon="6.84027">
        <ele>962</ele>
        <time>2020-06-05T10:46:43.000Z</time>
      </trkpt>
      <trkpt lat="44.04777" lon="6.84027">
        <ele>962</ele>
        <time>2020-06-05T10:46:44.000Z</time>
      </trkpt>
      <trkpt lat="44.04778" lon="6.84027">
        <ele>962</ele>
        <time>2020-06-05T10:46:45.000Z</time>
      </trkpt>
      <trkpt lat="44.04779" lon="6.84027">
        <ele>962</ele>
        <time>2020-06-05T10:46:46.000Z</time>
      </trkpt>
      <trkpt lat="44.0478" lon="6.84027">
        <ele>962</ele>
        <time>2020-06-05T10:46:47.000Z</time>
      </trkpt>
      <trkpt lat="44.04781" lon="6.84027">
        <ele>962</ele>
        <time>2020-06-05T10:46:48.000Z</time>
      </trkpt>
      <trkpt lat="44.04781" lon="6.84027">
        <ele>962</ele>
        <time>2020-06-05T10:46:49.000Z</time>
      </trkpt>
      <trkpt lat="44.04782" lon="6.84026">
        <ele>962</ele>
        <time>2020-06-05T10:46:50.000Z</time>
      </trkpt>
      <trkpt lat="44.04783" lon="6.84026">
        <ele>962</ele>
        <time>2020-06-05T10:46:51.000Z</time>
      </trkpt>
      <trkpt lat="44.04784" lon="6.84026">
        <ele>962</ele>
        <time>2020-06-05T10:46:52.000Z</time>
      </trkpt>
      <trkpt lat="44.04785" lon="6.84026">
        <ele>962</ele>
        <time>2020-06-05T10:46:53.000Z</time>
      </trkpt>
      <trkpt lat="44.04785" lon="6.84025">
        <ele>962</ele>
        <time>2020-06-05T10:46:54.000Z</time>
      </trkpt>
      <trkpt lat="44.04786" lon="6.84025">
        <ele>962</ele>
        <time>2020-06-05T10:46:55.000Z</time>
      </trkpt>
      <trkpt lat="44.04787" lon="6.84025">
        <ele>962</ele>
        <time>2020-06-05T10:46:56.000Z</time>
      </trkpt>
      <trkpt lat="44.04789" lon="6.84024">
        <ele>962</ele>
        <time>2020-06-05T10:46:57.000Z</time>
      </trkpt>
      <trkpt lat="44.04789" lon="6.84024">
        <ele>962</ele>
        <time>2020-06-05T10:46:58.000Z</time>
      </trkpt>
      <trkpt lat="44.0479" lon="6.84024">
        <ele>962</ele>
        <time>2020-06-05T10:46:59.000Z</time>
      </trkpt>
      <trkpt lat="44.04791" lon="6.84023">
        <ele>962</ele>
        <time>2020-06-05T10:47:00.000Z</time>
      </trkpt>
      <trkpt lat="44.04792" lon="6.84023">
        <ele>962</ele>
        <time>2020-06-05T10:47:01.000Z</time>
      </trkpt>
      <trkpt lat="44.04793" lon="6.84022">
        <ele>962</ele>
        <time>2020-06-05T10:47:02.000Z</time>
      </trkpt>
      <trkpt lat="44.04794" lon="6.84022">
        <ele>962</ele>
        <time>2020-06-05T10:47:03.000Z</time>
      </trkpt>
      <trkpt lat="44.04795" lon="6.84021">
        <ele>962</ele>
        <time>2020-06-05T10:47:04.000Z</time>
      </trkpt>
      <trkpt lat="44.04796" lon="6.84021">
        <ele>962</ele>
        <time>2020-06-05T10:47:05.000Z</time>
      </trkpt>
      <trkpt lat="44.04797" lon="6.8402">
        <ele>962</ele>
        <time>2020-06-05T10:47:06.000Z</time>
      </trkpt>
      <trkpt lat="44.04798" lon="6.8402">
        <ele>962</ele>
        <time>2020-06-05T10:47:07.000Z</time>
      </trkpt>
      <trkpt lat="44.04799" lon="6.8402">
        <ele>962</ele>
        <time>2020-06-05T10:47:08.000Z</time>
      </trkpt>
      <trkpt lat="44.048" lon="6.84019">
        <ele>962</ele>
        <time>2020-06-05T10:47:09.000Z</time>
      </trkpt>
      <trkpt lat="44.04801" lon="6.84019">
        <ele>962</ele>
        <time>2020-06-05T10:47:10.000Z</time>
      </trkpt>
      <trkpt lat="44.04801" lon="6.84019">
        <ele>962</ele>
        <time>2020-06-05T10:47:11.000Z</time>
      </trkpt>
      <trkpt lat="44.04802" lon="6.84018">
        <ele>962</ele>
        <time>2020-06-05T10:47:12.000Z</time>
      </trkpt>
      <trkpt lat="44.04802" lon="6.84018">
        <ele>962</ele>
        <time>2020-06-05T10:47:13.000Z</time>
      </trkpt>
      <trkpt lat="44.04803" lon="6.84017">
        <ele>963</ele>
        <time>2020-06-05T10:47:14.000Z</time>
      </trkpt>
      <trkpt lat="44.04804" lon="6.84018">
        <ele>963</ele>
        <time>2020-06-05T10:47:15.000Z</time>
      </trkpt>
      <trkpt lat="44.04805" lon="6.84018">
        <ele>963</ele>
        <time>2020-06-05T10:47:16.000Z</time>
      </trkpt>
      <trkpt lat="44.04805" lon="6.84018">
        <ele>963</ele>
        <time>2020-06-05T10:47:17.000Z</time>
      </trkpt>
      <trkpt lat="44.04806" lon="6.84019">
        <ele>963</ele>
        <time>2020-06-05T10:47:18.000Z</time>
      </trkpt>
      <trkpt lat="44.04807" lon="6.84019">
        <ele>963</ele>
        <time>2020-06-05T10:47:19.000Z</time>
      </trkpt>
      <trkpt lat="44.04808" lon="6.8402">
        <ele>963</ele>
        <time>2020-06-05T10:47:20.000Z</time>
      </trkpt>
      <trkpt lat="44.04809" lon="6.8402">
        <ele>963</ele>
        <time>2020-06-05T10:47:21.000Z</time>
      </trkpt>
      <trkpt lat="44.0481" lon="6.8402">
        <ele>963</ele>
        <time>2020-06-05T10:47:22.000Z</time>
      </trkpt>
      <trkpt lat="44.04811" lon="6.8402">
        <ele>963</ele>
        <time>2020-06-05T10:47:23.000Z</time>
      </trkpt>
      <trkpt lat="44.04811" lon="6.8402">
        <ele>963</ele>
        <time>2020-06-05T10:47:24.000Z</time>
      </trkpt>
      <trkpt lat="44.04811" lon="6.84021">
        <ele>963</ele>
        <time>2020-06-05T10:47:25.000Z</time>
      </trkpt>
      <trkpt lat="44.04811" lon="6.84021">
        <ele>963</ele>
        <time>2020-06-05T10:47:26.000Z</time>
      </trkpt>
      <trkpt lat="44.04811" lon="6.84021">
        <ele>963</ele>
        <time>2020-06-05T10:47:27.000Z</time>
      </trkpt>
      <trkpt lat="44.04811" lon="6.84021">
        <ele>963</ele>
        <time>2020-06-05T10:47:28.000Z</time>
      </trkpt>
      <trkpt lat="44.04811" lon="6.84021">
        <ele>963</ele>
        <time>2020-06-05T10:47:29.000Z</time>
      </trkpt>
      <trkpt lat="44.04811" lon="6.84021">
        <ele>963</ele>
        <time>2020-06-05T10:47:30.000Z</time>
      </trkpt>
      <trkpt lat="44.04811" lon="6.84021">
        <ele>963</ele>
        <time>2020-06-05T10:47:31.000Z</time>
      </trkpt>
      <trkpt lat="44.04812" lon="6.84021">
        <ele>963</ele>
        <time>2020-06-05T10:47:32.000Z</time>
      </trkpt>
      <trkpt lat="44.04812" lon="6.84021">
        <ele>963</ele>
        <time>2020-06-05T10:47:33.000Z</time>
      </trkpt>
      <trkpt lat="44.04812" lon="6.84021">
        <ele>963</ele>
        <time>2020-06-05T10:47:34.000Z</time>
      </trkpt>
      <trkpt lat="44.04813" lon="6.84021">
        <ele>963</ele>
        <time>2020-06-05T10:47:35.000Z</time>
      </trkpt>
      <trkpt lat="44.04814" lon="6.84021">
        <ele>963</ele>
        <time>2020-06-05T10:47:36.000Z</time>
      </trkpt>
      <trkpt lat="44.04815" lon="6.84021">
        <ele>963</ele>
        <time>2020-06-05T10:47:37.000Z</time>
      </trkpt>
      <trkpt lat="44.04816" lon="6.84021">
        <ele>963</ele>
        <time>2020-06-05T10:47:38.000Z</time>
      </trkpt>
      <trkpt lat="44.04816" lon="6.84021">
        <ele>963</ele>
        <time>2020-06-05T10:47:39.000Z</time>
      </trkpt>
      <trkpt lat="44.04817" lon="6.84021">
        <ele>963</ele>
        <time>2020-06-05T10:47:40.000Z</time>
      </trkpt>
      <trkpt lat="44.04818" lon="6.84021">
        <ele>963</ele>
        <time>2020-06-05T10:47:41.000Z</time>
      </trkpt>
      <trkpt lat="44.04818" lon="6.84021">
        <ele>963</ele>
        <time>2020-06-05T10:47:42.000Z</time>
      </trkpt>
      <trkpt lat="44.04819" lon="6.84021">
        <ele>963</ele>
        <time>2020-06-05T10:47:43.000Z</time>
      </trkpt>
      <trkpt lat="44.0482" lon="6.84021">
        <ele>963</ele>
        <time>2020-06-05T10:47:44.000Z</time>
      </trkpt>
      <trkpt lat="44.04821" lon="6.84021">
        <ele>963</ele>
        <time>2020-06-05T10:47:45.000Z</time>
      </trkpt>
      <trkpt lat="44.04821" lon="6.84021">
        <ele>963</ele>
        <time>2020-06-05T10:47:46.000Z</time>
      </trkpt>
      <trkpt lat="44.04822" lon="6.84021">
        <ele>963</ele>
        <time>2020-06-05T10:47:47.000Z</time>
      </trkpt>
      <trkpt lat="44.04823" lon="6.84021">
        <ele>963</ele>
        <time>2020-06-05T10:47:48.000Z</time>
      </trkpt>
      <trkpt lat="44.04824" lon="6.84022">
        <ele>963</ele>
        <time>2020-06-05T10:47:49.000Z</time>
      </trkpt>
      <trkpt lat="44.04825" lon="6.84022">
        <ele>963</ele>
        <time>2020-06-05T10:47:50.000Z</time>
      </trkpt>
      <trkpt lat="44.04825" lon="6.84022">
        <ele>963</ele>
        <time>2020-06-05T10:47:51.000Z</time>
      </trkpt>
      <trkpt lat="44.04826" lon="6.84022">
        <ele>963</ele>
        <time>2020-06-05T10:47:52.000Z</time>
      </trkpt>
      <trkpt lat="44.04826" lon="6.84022">
        <ele>963</ele>
        <time>2020-06-05T10:47:53.000Z</time>
      </trkpt>
      <trkpt lat="44.04827" lon="6.84023">
        <ele>963</ele>
        <time>2020-06-05T10:47:54.000Z</time>
      </trkpt>
      <trkpt lat="44.04827" lon="6.84023">
        <ele>963</ele>
        <time>2020-06-05T10:47:55.000Z</time>
      </trkpt>
      <trkpt lat="44.04828" lon="6.84023">
        <ele>963</ele>
        <time>2020-06-05T10:47:56.000Z</time>
      </trkpt>
      <trkpt lat="44.04829" lon="6.84023">
        <ele>963</ele>
        <time>2020-06-05T10:47:57.000Z</time>
      </trkpt>
      <trkpt lat="44.04829" lon="6.84023">
        <ele>963</ele>
        <time>2020-06-05T10:47:58.000Z</time>
      </trkpt>
      <trkpt lat="44.0483" lon="6.84023">
        <ele>963</ele>
        <time>2020-06-05T10:47:59.000Z</time>
      </trkpt>
      <trkpt lat="44.04831" lon="6.84023">
        <ele>963</ele>
        <time>2020-06-05T10:48:00.000Z</time>
      </trkpt>
      <trkpt lat="44.04832" lon="6.84023">
        <ele>963</ele>
        <time>2020-06-05T10:48:01.000Z</time>
      </trkpt>
      <trkpt lat="44.04832" lon="6.84023">
        <ele>963</ele>
        <time>2020-06-05T10:48:02.000Z</time>
      </trkpt>
      <trkpt lat="44.04833" lon="6.84024">
        <ele>963</ele>
        <time>2020-06-05T10:48:03.000Z</time>
      </trkpt>
      <trkpt lat="44.04833" lon="6.84024">
        <ele>963</ele>
        <time>2020-06-05T10:48:04.000Z</time>
      </trkpt>
      <trkpt lat="44.04833" lon="6.84024">
        <ele>963</ele>
        <time>2020-06-05T10:48:05.000Z</time>
      </trkpt>
      <trkpt lat="44.04833" lon="6.84024">
        <ele>963</ele>
        <time>2020-06-05T10:48:06.000Z</time>
      </trkpt>
      <trkpt lat="44.04833" lon="6.84024">
        <ele>963</ele>
        <time>2020-06-05T10:48:07.000Z</time>
      </trkpt>
      <trkpt lat="44.04833" lon="6.84024">
        <ele>963</ele>
        <time>2020-06-05T10:48:08.000Z</time>
      </trkpt>
      <trkpt lat="44.04833" lon="6.84024">
        <ele>963</ele>
        <time>2020-06-05T10:48:09.000Z</time>
      </trkpt>
      <trkpt lat="44.04833" lon="6.84024">
        <ele>963</ele>
        <time>2020-06-05T10:48:10.000Z</time>
      </trkpt>
      <trkpt lat="44.04834" lon="6.84024">
        <ele>963</ele>
        <time>2020-06-05T10:48:11.000Z</time>
      </trkpt>
      <trkpt lat="44.04834" lon="6.84024">
        <ele>963</ele>
        <time>2020-06-05T10:48:12.000Z</time>
      </trkpt>
      <trkpt lat="44.04835" lon="6.84024">
        <ele>963</ele>
        <time>2020-06-05T10:48:13.000Z</time>
      </trkpt>
      <trkpt lat="44.04835" lon="6.84024">
        <ele>963</ele>
        <time>2020-06-05T10:48:14.000Z</time>
      </trkpt>
      <trkpt lat="44.04836" lon="6.84024">
        <ele>963</ele>
        <time>2020-06-05T10:48:15.000Z</time>
      </trkpt>
      <trkpt lat="44.04836" lon="6.84024">
        <ele>963</ele>
        <time>2020-06-05T10:48:16.000Z</time>
      </trkpt>
      <trkpt lat="44.04837" lon="6.84024">
        <ele>963</ele>
        <time>2020-06-05T10:48:17.000Z</time>
      </trkpt>
      <trkpt lat="44.04838" lon="6.84025">
        <ele>963</ele>
        <time>2020-06-05T10:48:18.000Z</time>
      </trkpt>
      <trkpt lat="44.04839" lon="6.84025">
        <ele>963</ele>
        <time>2020-06-05T10:48:19.000Z</time>
      </trkpt>
      <trkpt lat="44.04839" lon="6.84025">
        <ele>963</ele>
        <time>2020-06-05T10:48:20.000Z</time>
      </trkpt>
      <trkpt lat="44.0484" lon="6.84026">
        <ele>963</ele>
        <time>2020-06-05T10:48:21.000Z</time>
      </trkpt>
      <trkpt lat="44.04841" lon="6.84026">
        <ele>963</ele>
        <time>2020-06-05T10:48:22.000Z</time>
      </trkpt>
      <trkpt lat="44.04842" lon="6.84027">
        <ele>963</ele>
        <time>2020-06-05T10:48:23.000Z</time>
      </trkpt>
      <trkpt lat="44.04843" lon="6.84028">
        <ele>963</ele>
        <time>2020-06-05T10:48:24.000Z</time>
      </trkpt>
      <trkpt lat="44.04844" lon="6.84028">
        <ele>963</ele>
        <time>2020-06-05T10:48:25.000Z</time>
      </trkpt>
      <trkpt lat="44.04844" lon="6.84029">
        <ele>963</ele>
        <time>2020-06-05T10:48:26.000Z</time>
      </trkpt>
      <trkpt lat="44.04845" lon="6.84029">
        <ele>963</ele>
        <time>2020-06-05T10:48:27.000Z</time>
      </trkpt>
      <trkpt lat="44.04846" lon="6.84029">
        <ele>963</ele>
        <time>2020-06-05T10:48:28.000Z</time>
      </trkpt>
      <trkpt lat="44.04847" lon="6.8403">
        <ele>963</ele>
        <time>2020-06-05T10:48:29.000Z</time>
      </trkpt>
      <trkpt lat="44.04848" lon="6.8403">
        <ele>963</ele>
        <time>2020-06-05T10:48:30.000Z</time>
      </trkpt>
      <trkpt lat="44.04849" lon="6.84031">
        <ele>963</ele>
        <time>2020-06-05T10:48:31.000Z</time>
      </trkpt>
      <trkpt lat="44.04849" lon="6.84032">
        <ele>963</ele>
        <time>2020-06-05T10:48:32.000Z</time>
      </trkpt>
      <trkpt lat="44.0485" lon="6.84032">
        <ele>963</ele>
        <time>2020-06-05T10:48:33.000Z</time>
      </trkpt>
      <trkpt lat="44.04851" lon="6.84033">
        <ele>963</ele>
        <time>2020-06-05T10:48:34.000Z</time>
      </trkpt>
      <trkpt lat="44.04851" lon="6.84033">
        <ele>963</ele>
        <time>2020-06-05T10:48:35.000Z</time>
      </trkpt>
      <trkpt lat="44.04852" lon="6.84033">
        <ele>963</ele>
        <time>2020-06-05T10:48:36.000Z</time>
      </trkpt>
      <trkpt lat="44.04853" lon="6.84034">
        <ele>963</ele>
        <time>2020-06-05T10:48:37.000Z</time>
      </trkpt>
      <trkpt lat="44.04854" lon="6.84035">
        <ele>963</ele>
        <time>2020-06-05T10:48:38.000Z</time>
      </trkpt>
      <trkpt lat="44.04855" lon="6.84036">
        <ele>963</ele>
        <time>2020-06-05T10:48:39.000Z</time>
      </trkpt>
      <trkpt lat="44.04856" lon="6.84037">
        <ele>963</ele>
        <time>2020-06-05T10:48:40.000Z</time>
      </trkpt>
      <trkpt lat="44.04856" lon="6.84038">
        <ele>963</ele>
        <time>2020-06-05T10:48:41.000Z</time>
      </trkpt>
      <trkpt lat="44.04857" lon="6.84039">
        <ele>963</ele>
        <time>2020-06-05T10:48:42.000Z</time>
      </trkpt>
      <trkpt lat="44.04858" lon="6.84039">
        <ele>964</ele>
        <time>2020-06-05T10:48:43.000Z</time>
      </trkpt>
      <trkpt lat="44.04858" lon="6.8404">
        <ele>964</ele>
        <time>2020-06-05T10:48:44.000Z</time>
      </trkpt>
      <trkpt lat="44.04859" lon="6.84041">
        <ele>964</ele>
        <time>2020-06-05T10:48:45.000Z</time>
      </trkpt>
      <trkpt lat="44.0486" lon="6.84042">
        <ele>964</ele>
        <time>2020-06-05T10:48:46.000Z</time>
      </trkpt>
      <trkpt lat="44.04861" lon="6.84043">
        <ele>964</ele>
        <time>2020-06-05T10:48:47.000Z</time>
      </trkpt>
      <trkpt lat="44.04862" lon="6.84043">
        <ele>964</ele>
        <time>2020-06-05T10:48:48.000Z</time>
      </trkpt>
      <trkpt lat="44.04863" lon="6.84044">
        <ele>964</ele>
        <time>2020-06-05T10:48:49.000Z</time>
      </trkpt>
      <trkpt lat="44.04864" lon="6.84044">
        <ele>964</ele>
        <time>2020-06-05T10:48:50.000Z</time>
      </trkpt>
      <trkpt lat="44.04865" lon="6.84045">
        <ele>964</ele>
        <time>2020-06-05T10:48:51.000Z</time>
      </trkpt>
      <trkpt lat="44.04865" lon="6.84045">
        <ele>964</ele>
        <time>2020-06-05T10:48:52.000Z</time>
      </trkpt>
      <trkpt lat="44.04866" lon="6.84045">
        <ele>964</ele>
        <time>2020-06-05T10:48:53.000Z</time>
      </trkpt>
      <trkpt lat="44.04868" lon="6.84046">
        <ele>964</ele>
        <time>2020-06-05T10:48:54.000Z</time>
      </trkpt>
      <trkpt lat="44.04869" lon="6.84046">
        <ele>964</ele>
        <time>2020-06-05T10:48:55.000Z</time>
      </trkpt>
      <trkpt lat="44.0487" lon="6.84046">
        <ele>964</ele>
        <time>2020-06-05T10:48:56.000Z</time>
      </trkpt>
      <trkpt lat="44.04871" lon="6.84046">
        <ele>963</ele>
        <time>2020-06-05T10:48:57.000Z</time>
      </trkpt>
      <trkpt lat="44.04872" lon="6.84047">
        <ele>963</ele>
        <time>2020-06-05T10:48:58.000Z</time>
      </trkpt>
      <trkpt lat="44.04873" lon="6.84047">
        <ele>963</ele>
        <time>2020-06-05T10:48:59.000Z</time>
      </trkpt>
      <trkpt lat="44.04874" lon="6.84047">
        <ele>963</ele>
        <time>2020-06-05T10:49:00.000Z</time>
      </trkpt>
      <trkpt lat="44.04875" lon="6.84047">
        <ele>963</ele>
        <time>2020-06-05T10:49:01.000Z</time>
      </trkpt>
      <trkpt lat="44.04876" lon="6.84047">
        <ele>963</ele>
        <time>2020-06-05T10:49:02.000Z</time>
      </trkpt>
      <trkpt lat="44.04877" lon="6.84048">
        <ele>963</ele>
        <time>2020-06-05T10:49:03.000Z</time>
      </trkpt>
      <trkpt lat="44.04878" lon="6.84048">
        <ele>963</ele>
        <time>2020-06-05T10:49:04.000Z</time>
      </trkpt>
      <trkpt lat="44.04878" lon="6.84048">
        <ele>964</ele>
        <time>2020-06-05T10:49:05.000Z</time>
      </trkpt>
      <trkpt lat="44.04879" lon="6.84047">
        <ele>964</ele>
        <time>2020-06-05T10:49:06.000Z</time>
      </trkpt>
      <trkpt lat="44.0488" lon="6.84047">
        <ele>964</ele>
        <time>2020-06-05T10:49:07.000Z</time>
      </trkpt>
      <trkpt lat="44.04881" lon="6.84047">
        <ele>964</ele>
        <time>2020-06-05T10:49:08.000Z</time>
      </trkpt>
      <trkpt lat="44.04882" lon="6.84047">
        <ele>964</ele>
        <time>2020-06-05T10:49:09.000Z</time>
      </trkpt>
      <trkpt lat="44.04883" lon="6.84047">
        <ele>964</ele>
        <time>2020-06-05T10:49:10.000Z</time>
      </trkpt>
      <trkpt lat="44.04885" lon="6.84047">
        <ele>964</ele>
        <time>2020-06-05T10:49:11.000Z</time>
      </trkpt>
      <trkpt lat="44.04886" lon="6.84047">
        <ele>964</ele>
        <time>2020-06-05T10:49:12.000Z</time>
      </trkpt>
      <trkpt lat="44.04887" lon="6.84047">
        <ele>964</ele>
        <time>2020-06-05T10:49:13.000Z</time>
      </trkpt>
      <trkpt lat="44.04888" lon="6.84047">
        <ele>964</ele>
        <time>2020-06-05T10:49:14.000Z</time>
      </trkpt>
      <trkpt lat="44.04889" lon="6.84048">
        <ele>964</ele>
        <time>2020-06-05T10:49:15.000Z</time>
      </trkpt>
      <trkpt lat="44.04889" lon="6.84048">
        <ele>964</ele>
        <time>2020-06-05T10:49:16.000Z</time>
      </trkpt>
      <trkpt lat="44.0489" lon="6.84048">
        <ele>964</ele>
        <time>2020-06-05T10:49:17.000Z</time>
      </trkpt>
      <trkpt lat="44.04891" lon="6.84048">
        <ele>964</ele>
        <time>2020-06-05T10:49:18.000Z</time>
      </trkpt>
      <trkpt lat="44.04892" lon="6.84047">
        <ele>964</ele>
        <time>2020-06-05T10:49:19.000Z</time>
      </trkpt>
      <trkpt lat="44.04892" lon="6.84047">
        <ele>964</ele>
        <time>2020-06-05T10:49:20.000Z</time>
      </trkpt>
      <trkpt lat="44.04893" lon="6.84047">
        <ele>964</ele>
        <time>2020-06-05T10:49:21.000Z</time>
      </trkpt>
      <trkpt lat="44.04894" lon="6.84047">
        <ele>964</ele>
        <time>2020-06-05T10:49:22.000Z</time>
      </trkpt>
      <trkpt lat="44.04895" lon="6.84046">
        <ele>964</ele>
        <time>2020-06-05T10:49:23.000Z</time>
      </trkpt>
      <trkpt lat="44.04895" lon="6.84046">
        <ele>964</ele>
        <time>2020-06-05T10:49:24.000Z</time>
      </trkpt>
      <trkpt lat="44.04896" lon="6.84046">
        <ele>964</ele>
        <time>2020-06-05T10:49:25.000Z</time>
      </trkpt>
      <trkpt lat="44.04896" lon="6.84046">
        <ele>964</ele>
        <time>2020-06-05T10:49:26.000Z</time>
      </trkpt>
      <trkpt lat="44.04896" lon="6.84046">
        <ele>964</ele>
        <time>2020-06-05T10:49:27.000Z</time>
      </trkpt>
      <trkpt lat="44.04896" lon="6.84046">
        <ele>964</ele>
        <time>2020-06-05T10:49:28.000Z</time>
      </trkpt>
      <trkpt lat="44.04896" lon="6.84046">
        <ele>964</ele>
        <time>2020-06-05T10:49:29.000Z</time>
      </trkpt>
      <trkpt lat="44.04896" lon="6.84046">
        <ele>964</ele>
        <time>2020-06-05T10:49:30.000Z</time>
      </trkpt>
      <trkpt lat="44.04896" lon="6.84046">
        <ele>965</ele>
        <time>2020-06-05T10:49:31.000Z</time>
      </trkpt>
      <trkpt lat="44.04896" lon="6.84046">
        <ele>965</ele>
        <time>2020-06-05T10:49:32.000Z</time>
      </trkpt>
      <trkpt lat="44.04896" lon="6.84046">
        <ele>965</ele>
        <time>2020-06-05T10:49:33.000Z</time>
      </trkpt>
      <trkpt lat="44.04896" lon="6.84046">
        <ele>965</ele>
        <time>2020-06-05T10:49:34.000Z</time>
      </trkpt>
      <trkpt lat="44.04897" lon="6.84046">
        <ele>965</ele>
        <time>2020-06-05T10:49:35.000Z</time>
      </trkpt>
      <trkpt lat="44.04897" lon="6.84046">
        <ele>965</ele>
        <time>2020-06-05T10:49:36.000Z</time>
      </trkpt>
      <trkpt lat="44.04897" lon="6.84046">
        <ele>965</ele>
        <time>2020-06-05T10:49:37.000Z</time>
      </trkpt>
      <trkpt lat="44.04897" lon="6.84046">
        <ele>965</ele>
        <time>2020-06-05T10:49:38.000Z</time>
      </trkpt>
      <trkpt lat="44.04897" lon="6.84046">
        <ele>965</ele>
        <time>2020-06-05T10:49:39.000Z</time>
      </trkpt>
      <trkpt lat="44.04897" lon="6.84046">
        <ele>965</ele>
        <time>2020-06-05T10:49:40.000Z</time>
      </trkpt>
      <trkpt lat="44.04897" lon="6.84045">
        <ele>965</ele>
        <time>2020-06-05T10:49:41.000Z</time>
      </trkpt>
      <trkpt lat="44.04898" lon="6.84044">
        <ele>965</ele>
        <time>2020-06-05T10:49:42.000Z</time>
      </trkpt>
      <trkpt lat="44.04899" lon="6.84044">
        <ele>965</ele>
        <time>2020-06-05T10:49:43.000Z</time>
      </trkpt>
      <trkpt lat="44.049" lon="6.84043">
        <ele>965</ele>
        <time>2020-06-05T10:49:44.000Z</time>
      </trkpt>
      <trkpt lat="44.04901" lon="6.84043">
        <ele>965</ele>
        <time>2020-06-05T10:49:45.000Z</time>
      </trkpt>
      <trkpt lat="44.04901" lon="6.84043">
        <ele>965</ele>
        <time>2020-06-05T10:49:46.000Z</time>
      </trkpt>
      <trkpt lat="44.04902" lon="6.84043">
        <ele>965</ele>
        <time>2020-06-05T10:49:47.000Z</time>
      </trkpt>
      <trkpt lat="44.04903" lon="6.84042">
        <ele>965</ele>
        <time>2020-06-05T10:49:48.000Z</time>
      </trkpt>
      <trkpt lat="44.04904" lon="6.84042">
        <ele>965</ele>
        <time>2020-06-05T10:49:49.000Z</time>
      </trkpt>
      <trkpt lat="44.04905" lon="6.84041">
        <ele>965</ele>
        <time>2020-06-05T10:49:50.000Z</time>
      </trkpt>
      <trkpt lat="44.04906" lon="6.84041">
        <ele>965</ele>
        <time>2020-06-05T10:49:51.000Z</time>
      </trkpt>
      <trkpt lat="44.04908" lon="6.84041">
        <ele>965</ele>
        <time>2020-06-05T10:49:52.000Z</time>
      </trkpt>
      <trkpt lat="44.04908" lon="6.8404">
        <ele>965</ele>
        <time>2020-06-05T10:49:53.000Z</time>
      </trkpt>
      <trkpt lat="44.04909" lon="6.84039">
        <ele>965</ele>
        <time>2020-06-05T10:49:54.000Z</time>
      </trkpt>
      <trkpt lat="44.0491" lon="6.84039">
        <ele>965</ele>
        <time>2020-06-05T10:49:55.000Z</time>
      </trkpt>
      <trkpt lat="44.04911" lon="6.84038">
        <ele>965</ele>
        <time>2020-06-05T10:49:56.000Z</time>
      </trkpt>
      <trkpt lat="44.04912" lon="6.84038">
        <ele>964</ele>
        <time>2020-06-05T10:49:57.000Z</time>
      </trkpt>
      <trkpt lat="44.04913" lon="6.84037">
        <ele>964</ele>
        <time>2020-06-05T10:49:58.000Z</time>
      </trkpt>
      <trkpt lat="44.04914" lon="6.84036">
        <ele>964</ele>
        <time>2020-06-05T10:49:59.000Z</time>
      </trkpt>
      <trkpt lat="44.04915" lon="6.84036">
        <ele>964</ele>
        <time>2020-06-05T10:50:00.000Z</time>
      </trkpt>
      <trkpt lat="44.04915" lon="6.84035">
        <ele>964</ele>
        <time>2020-06-05T10:50:01.000Z</time>
      </trkpt>
      <trkpt lat="44.04916" lon="6.84035">
        <ele>964</ele>
        <time>2020-06-05T10:50:02.000Z</time>
      </trkpt>
      <trkpt lat="44.04917" lon="6.84034">
        <ele>964</ele>
        <time>2020-06-05T10:50:03.000Z</time>
      </trkpt>
      <trkpt lat="44.04918" lon="6.84034">
        <ele>964</ele>
        <time>2020-06-05T10:50:04.000Z</time>
      </trkpt>
      <trkpt lat="44.04919" lon="6.84033">
        <ele>964</ele>
        <time>2020-06-05T10:50:05.000Z</time>
      </trkpt>
      <trkpt lat="44.04919" lon="6.84033">
        <ele>964</ele>
        <time>2020-06-05T10:50:06.000Z</time>
      </trkpt>
      <trkpt lat="44.0492" lon="6.84032">
        <ele>964</ele>
        <time>2020-06-05T10:50:07.000Z</time>
      </trkpt>
      <trkpt lat="44.04921" lon="6.8403">
        <ele>963</ele>
        <time>2020-06-05T10:50:08.000Z</time>
      </trkpt>
      <trkpt lat="44.04922" lon="6.8403">
        <ele>963</ele>
        <time>2020-06-05T10:50:09.000Z</time>
      </trkpt>
      <trkpt lat="44.04923" lon="6.84029">
        <ele>963</ele>
        <time>2020-06-05T10:50:10.000Z</time>
      </trkpt>
      <trkpt lat="44.04923" lon="6.84028">
        <ele>963</ele>
        <time>2020-06-05T10:50:11.000Z</time>
      </trkpt>
      <trkpt lat="44.04924" lon="6.84027">
        <ele>963</ele>
        <time>2020-06-05T10:50:12.000Z</time>
      </trkpt>
      <trkpt lat="44.04925" lon="6.84026">
        <ele>963</ele>
        <time>2020-06-05T10:50:13.000Z</time>
      </trkpt>
      <trkpt lat="44.04926" lon="6.84026">
        <ele>963</ele>
        <time>2020-06-05T10:50:14.000Z</time>
      </trkpt>
      <trkpt lat="44.04926" lon="6.84025">
        <ele>963</ele>
        <time>2020-06-05T10:50:15.000Z</time>
      </trkpt>
      <trkpt lat="44.04927" lon="6.84025">
        <ele>963</ele>
        <time>2020-06-05T10:50:16.000Z</time>
      </trkpt>
      <trkpt lat="44.04927" lon="6.84025">
        <ele>963</ele>
        <time>2020-06-05T10:50:17.000Z</time>
      </trkpt>
      <trkpt lat="44.04927" lon="6.84025">
        <ele>963</ele>
        <time>2020-06-05T10:50:18.000Z</time>
      </trkpt>
      <trkpt lat="44.04927" lon="6.84025">
        <ele>963</ele>
        <time>2020-06-05T10:50:19.000Z</time>
      </trkpt>
      <trkpt lat="44.04927" lon="6.84025">
        <ele>963</ele>
        <time>2020-06-05T10:50:20.000Z</time>
      </trkpt>
      <trkpt lat="44.04927" lon="6.84025">
        <ele>963</ele>
        <time>2020-06-05T10:50:21.000Z</time>
      </trkpt>
      <trkpt lat="44.04927" lon="6.84025">
        <ele>963</ele>
        <time>2020-06-05T10:50:22.000Z</time>
      </trkpt>
      <trkpt lat="44.04927" lon="6.84025">
        <ele>963</ele>
        <time>2020-06-05T10:50:23.000Z</time>
      </trkpt>
      <trkpt lat="44.04927" lon="6.84025">
        <ele>963</ele>
        <time>2020-06-05T10:50:24.000Z</time>
      </trkpt>
      <trkpt lat="44.04927" lon="6.84025">
        <ele>963</ele>
        <time>2020-06-05T10:50:25.000Z</time>
      </trkpt>
      <trkpt lat="44.04927" lon="6.84025">
        <ele>963</ele>
        <time>2020-06-05T10:50:26.000Z</time>
      </trkpt>
      <trkpt lat="44.04928" lon="6.84024">
        <ele>963</ele>
        <time>2020-06-05T10:50:27.000Z</time>
      </trkpt>
      <trkpt lat="44.04928" lon="6.84023">
        <ele>963</ele>
        <time>2020-06-05T10:50:28.000Z</time>
      </trkpt>
      <trkpt lat="44.04929" lon="6.84023">
        <ele>963</ele>
        <time>2020-06-05T10:50:29.000Z</time>
      </trkpt>
      <trkpt lat="44.04929" lon="6.84023">
        <ele>963</ele>
        <time>2020-06-05T10:50:30.000Z</time>
      </trkpt>
      <trkpt lat="44.04929" lon="6.84023">
        <ele>963</ele>
        <time>2020-06-05T10:50:31.000Z</time>
      </trkpt>
      <trkpt lat="44.04929" lon="6.84023">
        <ele>963</ele>
        <time>2020-06-05T10:50:32.000Z</time>
      </trkpt>
      <trkpt lat="44.04929" lon="6.84023">
        <ele>963</ele>
        <time>2020-06-05T10:50:33.000Z</time>
      </trkpt>
      <trkpt lat="44.04929" lon="6.84023">
        <ele>963</ele>
        <time>2020-06-05T10:50:34.000Z</time>
      </trkpt>
      <trkpt lat="44.04929" lon="6.84023">
        <ele>963</ele>
        <time>2020-06-05T10:50:35.000Z</time>
      </trkpt>
      <trkpt lat="44.04929" lon="6.84023">
        <ele>963</ele>
        <time>2020-06-05T10:50:36.000Z</time>
      </trkpt>
      <trkpt lat="44.04929" lon="6.84023">
        <ele>963</ele>
        <time>2020-06-05T10:50:37.000Z</time>
      </trkpt>
      <trkpt lat="44.04929" lon="6.84023">
        <ele>963</ele>
        <time>2020-06-05T10:50:38.000Z</time>
      </trkpt>
      <trkpt lat="44.04929" lon="6.84023">
        <ele>963</ele>
        <time>2020-06-05T10:50:39.000Z</time>
      </trkpt>
      <trkpt lat="44.04929" lon="6.84023">
        <ele>963</ele>
        <time>2020-06-05T10:50:40.000Z</time>
      </trkpt>
      <trkpt lat="44.04929" lon="6.84023">
        <ele>963</ele>
        <time>2020-06-05T10:50:41.000Z</time>
      </trkpt>
      <trkpt lat="44.04929" lon="6.84023">
        <ele>963</ele>
        <time>2020-06-05T10:50:42.000Z</time>
      </trkpt>
      <trkpt lat="44.04929" lon="6.84022">
        <ele>963</ele>
        <time>2020-06-05T10:50:43.000Z</time>
      </trkpt>
      <trkpt lat="44.0493" lon="6.84021">
        <ele>963</ele>
        <time>2020-06-05T10:50:44.000Z</time>
      </trkpt>
      <trkpt lat="44.04931" lon="6.8402">
        <ele>963</ele>
        <time>2020-06-05T10:50:45.000Z</time>
      </trkpt>
      <trkpt lat="44.04931" lon="6.84019">
        <ele>963</ele>
        <time>2020-06-05T10:50:46.000Z</time>
      </trkpt>
      <trkpt lat="44.04932" lon="6.84018">
        <ele>963</ele>
        <time>2020-06-05T10:50:47.000Z</time>
      </trkpt>
      <trkpt lat="44.04933" lon="6.84017">
        <ele>963</ele>
        <time>2020-06-05T10:50:48.000Z</time>
      </trkpt>
      <trkpt lat="44.04934" lon="6.84016">
        <ele>963</ele>
        <time>2020-06-05T10:50:49.000Z</time>
      </trkpt>
      <trkpt lat="44.04935" lon="6.84016">
        <ele>963</ele>
        <time>2020-06-05T10:50:50.000Z</time>
      </trkpt>
      <trkpt lat="44.04936" lon="6.84015">
        <ele>963</ele>
        <time>2020-06-05T10:50:51.000Z</time>
      </trkpt>
      <trkpt lat="44.04936" lon="6.84015">
        <ele>963</ele>
        <time>2020-06-05T10:50:52.000Z</time>
      </trkpt>
      <trkpt lat="44.04937" lon="6.84014">
        <ele>963</ele>
        <time>2020-06-05T10:50:53.000Z</time>
      </trkpt>
      <trkpt lat="44.04938" lon="6.84014">
        <ele>963</ele>
        <time>2020-06-05T10:50:54.000Z</time>
      </trkpt>
      <trkpt lat="44.04939" lon="6.84014">
        <ele>963</ele>
        <time>2020-06-05T10:50:55.000Z</time>
      </trkpt>
      <trkpt lat="44.04939" lon="6.84013">
        <ele>963</ele>
        <time>2020-06-05T10:50:56.000Z</time>
      </trkpt>
      <trkpt lat="44.04941" lon="6.84012">
        <ele>963</ele>
        <time>2020-06-05T10:50:57.000Z</time>
      </trkpt>
      <trkpt lat="44.04941" lon="6.84011">
        <ele>963</ele>
        <time>2020-06-05T10:50:58.000Z</time>
      </trkpt>
      <trkpt lat="44.04942" lon="6.84011">
        <ele>963</ele>
        <time>2020-06-05T10:50:59.000Z</time>
      </trkpt>
      <trkpt lat="44.04943" lon="6.8401">
        <ele>963</ele>
        <time>2020-06-05T10:51:00.000Z</time>
      </trkpt>
      <trkpt lat="44.04944" lon="6.84009">
        <ele>963</ele>
        <time>2020-06-05T10:51:01.000Z</time>
      </trkpt>
      <trkpt lat="44.04945" lon="6.84009">
        <ele>962</ele>
        <time>2020-06-05T10:51:02.000Z</time>
      </trkpt>
      <trkpt lat="44.04945" lon="6.84008">
        <ele>962</ele>
        <time>2020-06-05T10:51:03.000Z</time>
      </trkpt>
      <trkpt lat="44.04946" lon="6.84008">
        <ele>962</ele>
        <time>2020-06-05T10:51:04.000Z</time>
      </trkpt>
      <trkpt lat="44.04947" lon="6.84008">
        <ele>962</ele>
        <time>2020-06-05T10:51:05.000Z</time>
      </trkpt>
      <trkpt lat="44.04948" lon="6.84007">
        <ele>962</ele>
        <time>2020-06-05T10:51:06.000Z</time>
      </trkpt>
      <trkpt lat="44.04948" lon="6.84007">
        <ele>962</ele>
        <time>2020-06-05T10:51:07.000Z</time>
      </trkpt>
      <trkpt lat="44.04949" lon="6.84007">
        <ele>962</ele>
        <time>2020-06-05T10:51:08.000Z</time>
      </trkpt>
      <trkpt lat="44.04949" lon="6.84006">
        <ele>962</ele>
        <time>2020-06-05T10:51:09.000Z</time>
      </trkpt>
      <trkpt lat="44.0495" lon="6.84006">
        <ele>963</ele>
        <time>2020-06-05T10:51:10.000Z</time>
      </trkpt>
      <trkpt lat="44.04951" lon="6.84006">
        <ele>962</ele>
        <time>2020-06-05T10:51:11.000Z</time>
      </trkpt>
      <trkpt lat="44.04952" lon="6.84005">
        <ele>962</ele>
        <time>2020-06-05T10:51:12.000Z</time>
      </trkpt>
      <trkpt lat="44.04952" lon="6.84004">
        <ele>962</ele>
        <time>2020-06-05T10:51:13.000Z</time>
      </trkpt>
      <trkpt lat="44.04953" lon="6.84004">
        <ele>962</ele>
        <time>2020-06-05T10:51:14.000Z</time>
      </trkpt>
      <trkpt lat="44.04954" lon="6.84003">
        <ele>962</ele>
        <time>2020-06-05T10:51:15.000Z</time>
      </trkpt>
      <trkpt lat="44.04955" lon="6.84003">
        <ele>962</ele>
        <time>2020-06-05T10:51:16.000Z</time>
      </trkpt>
      <trkpt lat="44.04956" lon="6.84002">
        <ele>962</ele>
        <time>2020-06-05T10:51:17.000Z</time>
      </trkpt>
      <trkpt lat="44.04956" lon="6.84002">
        <ele>962</ele>
        <time>2020-06-05T10:51:18.000Z</time>
      </trkpt>
      <trkpt lat="44.04957" lon="6.84002">
        <ele>962</ele>
        <time>2020-06-05T10:51:19.000Z</time>
      </trkpt>
      <trkpt lat="44.04958" lon="6.84001">
        <ele>962</ele>
        <time>2020-06-05T10:51:20.000Z</time>
      </trkpt>
      <trkpt lat="44.04958" lon="6.84001">
        <ele>962</ele>
        <time>2020-06-05T10:51:21.000Z</time>
      </trkpt>
      <trkpt lat="44.04959" lon="6.84001">
        <ele>962</ele>
        <time>2020-06-05T10:51:22.000Z</time>
      </trkpt>
      <trkpt lat="44.04959" lon="6.84">
        <ele>963</ele>
        <time>2020-06-05T10:51:23.000Z</time>
      </trkpt>
      <trkpt lat="44.0496" lon="6.84">
        <ele>963</ele>
        <time>2020-06-05T10:51:24.000Z</time>
      </trkpt>
      <trkpt lat="44.0496" lon="6.83999">
        <ele>963</ele>
        <time>2020-06-05T10:51:25.000Z</time>
      </trkpt>
      <trkpt lat="44.04961" lon="6.83999">
        <ele>963</ele>
        <time>2020-06-05T10:51:26.000Z</time>
      </trkpt>
      <trkpt lat="44.04961" lon="6.83999">
        <ele>963</ele>
        <time>2020-06-05T10:51:27.000Z</time>
      </trkpt>
      <trkpt lat="44.04961" lon="6.83999">
        <ele>963</ele>
        <time>2020-06-05T10:51:28.000Z</time>
      </trkpt>
      <trkpt lat="44.04961" lon="6.83999">
        <ele>963</ele>
        <time>2020-06-05T10:51:29.000Z</time>
      </trkpt>
      <trkpt lat="44.04961" lon="6.84">
        <ele>963</ele>
        <time>2020-06-05T10:51:30.000Z</time>
      </trkpt>
      <trkpt lat="44.0496" lon="6.84">
        <ele>963</ele>
        <time>2020-06-05T10:51:31.000Z</time>
      </trkpt>
      <trkpt lat="44.0496" lon="6.84">
        <ele>963</ele>
        <time>2020-06-05T10:51:32.000Z</time>
      </trkpt>
      <trkpt lat="44.0496" lon="6.84">
        <ele>963</ele>
        <time>2020-06-05T10:51:33.000Z</time>
      </trkpt>
      <trkpt lat="44.04961" lon="6.84">
        <ele>963</ele>
        <time>2020-06-05T10:51:34.000Z</time>
      </trkpt>
      <trkpt lat="44.04961" lon="6.84">
        <ele>963</ele>
        <time>2020-06-05T10:51:35.000Z</time>
      </trkpt>
      <trkpt lat="44.04961" lon="6.83999">
        <ele>963</ele>
        <time>2020-06-05T10:51:36.000Z</time>
      </trkpt>
      <trkpt lat="44.04962" lon="6.83999">
        <ele>963</ele>
        <time>2020-06-05T10:51:37.000Z</time>
      </trkpt>
      <trkpt lat="44.04963" lon="6.83998">
        <ele>963</ele>
        <time>2020-06-05T10:51:38.000Z</time>
      </trkpt>
      <trkpt lat="44.04963" lon="6.83998">
        <ele>963</ele>
        <time>2020-06-05T10:51:39.000Z</time>
      </trkpt>
      <trkpt lat="44.04964" lon="6.83997">
        <ele>963</ele>
        <time>2020-06-05T10:51:40.000Z</time>
      </trkpt>
      <trkpt lat="44.04965" lon="6.83996">
        <ele>963</ele>
        <time>2020-06-05T10:51:41.000Z</time>
      </trkpt>
      <trkpt lat="44.04965" lon="6.83995">
        <ele>963</ele>
        <time>2020-06-05T10:51:42.000Z</time>
      </trkpt>
      <trkpt lat="44.04966" lon="6.83994">
        <ele>963</ele>
        <time>2020-06-05T10:51:43.000Z</time>
      </trkpt>
      <trkpt lat="44.04967" lon="6.83994">
        <ele>963</ele>
        <time>2020-06-05T10:51:44.000Z</time>
      </trkpt>
      <trkpt lat="44.04967" lon="6.83993">
        <ele>963</ele>
        <time>2020-06-05T10:51:45.000Z</time>
      </trkpt>
      <trkpt lat="44.04968" lon="6.83992">
        <ele>963</ele>
        <time>2020-06-05T10:51:46.000Z</time>
      </trkpt>
      <trkpt lat="44.04969" lon="6.83991">
        <ele>963</ele>
        <time>2020-06-05T10:51:47.000Z</time>
      </trkpt>
      <trkpt lat="44.04969" lon="6.83989">
        <ele>963</ele>
        <time>2020-06-05T10:51:48.000Z</time>
      </trkpt>
      <trkpt lat="44.0497" lon="6.83988">
        <ele>963</ele>
        <time>2020-06-05T10:51:49.000Z</time>
      </trkpt>
      <trkpt lat="44.0497" lon="6.83987">
        <ele>963</ele>
        <time>2020-06-05T10:51:50.000Z</time>
      </trkpt>
      <trkpt lat="44.04971" lon="6.83986">
        <ele>963</ele>
        <time>2020-06-05T10:51:51.000Z</time>
      </trkpt>
      <trkpt lat="44.04971" lon="6.83985">
        <ele>963</ele>
        <time>2020-06-05T10:51:52.000Z</time>
      </trkpt>
      <trkpt lat="44.04971" lon="6.83984">
        <ele>963</ele>
        <time>2020-06-05T10:51:53.000Z</time>
      </trkpt>
      <trkpt lat="44.0497" lon="6.83984">
        <ele>963</ele>
        <time>2020-06-05T10:51:54.000Z</time>
      </trkpt>
      <trkpt lat="44.0497" lon="6.83983">
        <ele>963</ele>
        <time>2020-06-05T10:51:55.000Z</time>
      </trkpt>
      <trkpt lat="44.0497" lon="6.83982">
        <ele>963</ele>
        <time>2020-06-05T10:51:56.000Z</time>
      </trkpt>
      <trkpt lat="44.04969" lon="6.83981">
        <ele>963</ele>
        <time>2020-06-05T10:51:57.000Z</time>
      </trkpt>
      <trkpt lat="44.04969" lon="6.8398">
        <ele>963</ele>
        <time>2020-06-05T10:51:58.000Z</time>
      </trkpt>
      <trkpt lat="44.04969" lon="6.83979">
        <ele>964</ele>
        <time>2020-06-05T10:51:59.000Z</time>
      </trkpt>
      <trkpt lat="44.04969" lon="6.83978">
        <ele>964</ele>
        <time>2020-06-05T10:52:00.000Z</time>
      </trkpt>
      <trkpt lat="44.04968" lon="6.83977">
        <ele>964</ele>
        <time>2020-06-05T10:52:01.000Z</time>
      </trkpt>
      <trkpt lat="44.04968" lon="6.83976">
        <ele>964</ele>
        <time>2020-06-05T10:52:02.000Z</time>
      </trkpt>
      <trkpt lat="44.04968" lon="6.83975">
        <ele>964</ele>
        <time>2020-06-05T10:52:03.000Z</time>
      </trkpt>
      <trkpt lat="44.04968" lon="6.83974">
        <ele>964</ele>
        <time>2020-06-05T10:52:04.000Z</time>
      </trkpt>
      <trkpt lat="44.04969" lon="6.83973">
        <ele>964</ele>
        <time>2020-06-05T10:52:05.000Z</time>
      </trkpt>
      <trkpt lat="44.0497" lon="6.83971">
        <ele>964</ele>
        <time>2020-06-05T10:52:06.000Z</time>
      </trkpt>
      <trkpt lat="44.04971" lon="6.8397">
        <ele>964</ele>
        <time>2020-06-05T10:52:07.000Z</time>
      </trkpt>
      <trkpt lat="44.04971" lon="6.83969">
        <ele>964</ele>
        <time>2020-06-05T10:52:08.000Z</time>
      </trkpt>
      <trkpt lat="44.04972" lon="6.83968">
        <ele>964</ele>
        <time>2020-06-05T10:52:09.000Z</time>
      </trkpt>
      <trkpt lat="44.04973" lon="6.83967">
        <ele>964</ele>
        <time>2020-06-05T10:52:10.000Z</time>
      </trkpt>
      <trkpt lat="44.04974" lon="6.83966">
        <ele>964</ele>
        <time>2020-06-05T10:52:11.000Z</time>
      </trkpt>
      <trkpt lat="44.04975" lon="6.83965">
        <ele>964</ele>
        <time>2020-06-05T10:52:12.000Z</time>
      </trkpt>
      <trkpt lat="44.04976" lon="6.83964">
        <ele>964</ele>
        <time>2020-06-05T10:52:13.000Z</time>
      </trkpt>
      <trkpt lat="44.04977" lon="6.83963">
        <ele>964</ele>
        <time>2020-06-05T10:52:14.000Z</time>
      </trkpt>
      <trkpt lat="44.04978" lon="6.83963">
        <ele>964</ele>
        <time>2020-06-05T10:52:15.000Z</time>
      </trkpt>
      <trkpt lat="44.04979" lon="6.83962">
        <ele>964</ele>
        <time>2020-06-05T10:52:16.000Z</time>
      </trkpt>
      <trkpt lat="44.0498" lon="6.83961">
        <ele>965</ele>
        <time>2020-06-05T10:52:17.000Z</time>
      </trkpt>
      <trkpt lat="44.0498" lon="6.83961">
        <ele>965</ele>
        <time>2020-06-05T10:52:18.000Z</time>
      </trkpt>
      <trkpt lat="44.04981" lon="6.8396">
        <ele>965</ele>
        <time>2020-06-05T10:52:19.000Z</time>
      </trkpt>
      <trkpt lat="44.04982" lon="6.8396">
        <ele>965</ele>
        <time>2020-06-05T10:52:20.000Z</time>
      </trkpt>
      <trkpt lat="44.04983" lon="6.83959">
        <ele>965</ele>
        <time>2020-06-05T10:52:21.000Z</time>
      </trkpt>
      <trkpt lat="44.04984" lon="6.83959">
        <ele>965</ele>
        <time>2020-06-05T10:52:22.000Z</time>
      </trkpt>
      <trkpt lat="44.04985" lon="6.83959">
        <ele>965</ele>
        <time>2020-06-05T10:52:23.000Z</time>
      </trkpt>
      <trkpt lat="44.04986" lon="6.83959">
        <ele>965</ele>
        <time>2020-06-05T10:52:24.000Z</time>
      </trkpt>
      <trkpt lat="44.04987" lon="6.83958">
        <ele>965</ele>
        <time>2020-06-05T10:52:25.000Z</time>
      </trkpt>
      <trkpt lat="44.04987" lon="6.83957">
        <ele>965</ele>
        <time>2020-06-05T10:52:26.000Z</time>
      </trkpt>
      <trkpt lat="44.04988" lon="6.83957">
        <ele>965</ele>
        <time>2020-06-05T10:52:27.000Z</time>
      </trkpt>
      <trkpt lat="44.04989" lon="6.83957">
        <ele>965</ele>
        <time>2020-06-05T10:52:28.000Z</time>
      </trkpt>
      <trkpt lat="44.0499" lon="6.83956">
        <ele>965</ele>
        <time>2020-06-05T10:52:29.000Z</time>
      </trkpt>
      <trkpt lat="44.04991" lon="6.83955">
        <ele>965</ele>
        <time>2020-06-05T10:52:30.000Z</time>
      </trkpt>
      <trkpt lat="44.04992" lon="6.83955">
        <ele>965</ele>
        <time>2020-06-05T10:52:31.000Z</time>
      </trkpt>
      <trkpt lat="44.04993" lon="6.83954">
        <ele>965</ele>
        <time>2020-06-05T10:52:32.000Z</time>
      </trkpt>
      <trkpt lat="44.04994" lon="6.83953">
        <ele>965</ele>
        <time>2020-06-05T10:52:33.000Z</time>
      </trkpt>
      <trkpt lat="44.04994" lon="6.83953">
        <ele>965</ele>
        <time>2020-06-05T10:52:34.000Z</time>
      </trkpt>
      <trkpt lat="44.04995" lon="6.83952">
        <ele>965</ele>
        <time>2020-06-05T10:52:35.000Z</time>
      </trkpt>
      <trkpt lat="44.04995" lon="6.83952">
        <ele>965</ele>
        <time>2020-06-05T10:52:36.000Z</time>
      </trkpt>
      <trkpt lat="44.04996" lon="6.83952">
        <ele>965</ele>
        <time>2020-06-05T10:52:37.000Z</time>
      </trkpt>
      <trkpt lat="44.04997" lon="6.83952">
        <ele>965</ele>
        <time>2020-06-05T10:52:38.000Z</time>
      </trkpt>
      <trkpt lat="44.04998" lon="6.83951">
        <ele>965</ele>
        <time>2020-06-05T10:52:39.000Z</time>
      </trkpt>
      <trkpt lat="44.04998" lon="6.83951">
        <ele>965</ele>
        <time>2020-06-05T10:52:40.000Z</time>
      </trkpt>
      <trkpt lat="44.04999" lon="6.8395">
        <ele>965</ele>
        <time>2020-06-05T10:52:41.000Z</time>
      </trkpt>
      <trkpt lat="44.05" lon="6.8395">
        <ele>965</ele>
        <time>2020-06-05T10:52:42.000Z</time>
      </trkpt>
      <trkpt lat="44.05" lon="6.8395">
        <ele>965</ele>
        <time>2020-06-05T10:52:43.000Z</time>
      </trkpt>
      <trkpt lat="44.05" lon="6.8395">
        <ele>965</ele>
        <time>2020-06-05T10:52:44.000Z</time>
      </trkpt>
      <trkpt lat="44.05" lon="6.8395">
        <ele>965</ele>
        <time>2020-06-05T10:52:45.000Z</time>
      </trkpt>
      <trkpt lat="44.05" lon="6.8395">
        <ele>965</ele>
        <time>2020-06-05T10:52:46.000Z</time>
      </trkpt>
      <trkpt lat="44.05001" lon="6.8395">
        <ele>965</ele>
        <time>2020-06-05T10:52:47.000Z</time>
      </trkpt>
      <trkpt lat="44.05001" lon="6.8395">
        <ele>966</ele>
        <time>2020-06-05T10:52:48.000Z</time>
      </trkpt>
      <trkpt lat="44.05001" lon="6.8395">
        <ele>966</ele>
        <time>2020-06-05T10:52:49.000Z</time>
      </trkpt>
      <trkpt lat="44.05001" lon="6.8395">
        <ele>966</ele>
        <time>2020-06-05T10:52:50.000Z</time>
      </trkpt>
      <trkpt lat="44.05001" lon="6.8395">
        <ele>966</ele>
        <time>2020-06-05T10:52:51.000Z</time>
      </trkpt>
      <trkpt lat="44.05001" lon="6.8395">
        <ele>966</ele>
        <time>2020-06-05T10:52:52.000Z</time>
      </trkpt>
      <trkpt lat="44.05001" lon="6.83949">
        <ele>966</ele>
        <time>2020-06-05T10:52:53.000Z</time>
      </trkpt>
      <trkpt lat="44.05001" lon="6.83949">
        <ele>966</ele>
        <time>2020-06-05T10:52:54.000Z</time>
      </trkpt>
      <trkpt lat="44.05001" lon="6.83949">
        <ele>966</ele>
        <time>2020-06-05T10:52:55.000Z</time>
      </trkpt>
      <trkpt lat="44.05001" lon="6.83949">
        <ele>966</ele>
        <time>2020-06-05T10:52:56.000Z</time>
      </trkpt>
      <trkpt lat="44.05001" lon="6.83949">
        <ele>966</ele>
        <time>2020-06-05T10:52:57.000Z</time>
      </trkpt>
      <trkpt lat="44.05001" lon="6.83949">
        <ele>966</ele>
        <time>2020-06-05T10:52:58.000Z</time>
      </trkpt>
      <trkpt lat="44.05001" lon="6.83949">
        <ele>966</ele>
        <time>2020-06-05T10:52:59.000Z</time>
      </trkpt>
      <trkpt lat="44.05001" lon="6.83949">
        <ele>966</ele>
        <time>2020-06-05T10:53:00.000Z</time>
      </trkpt>
      <trkpt lat="44.05001" lon="6.8395">
        <ele>966</ele>
        <time>2020-06-05T10:53:01.000Z</time>
      </trkpt>
      <trkpt lat="44.05001" lon="6.8395">
        <ele>966</ele>
        <time>2020-06-05T10:53:02.000Z</time>
      </trkpt>
      <trkpt lat="44.05002" lon="6.8395">
        <ele>966</ele>
        <time>2020-06-05T10:53:03.000Z</time>
      </trkpt>
      <trkpt lat="44.05003" lon="6.83951">
        <ele>966</ele>
        <time>2020-06-05T10:53:04.000Z</time>
      </trkpt>
      <trkpt lat="44.05004" lon="6.83951">
        <ele>966</ele>
        <time>2020-06-05T10:53:05.000Z</time>
      </trkpt>
      <trkpt lat="44.05005" lon="6.83951">
        <ele>966</ele>
        <time>2020-06-05T10:53:06.000Z</time>
      </trkpt>
      <trkpt lat="44.05006" lon="6.83952">
        <ele>966</ele>
        <time>2020-06-05T10:53:07.000Z</time>
      </trkpt>
      <trkpt lat="44.05007" lon="6.83952">
        <ele>966</ele>
        <time>2020-06-05T10:53:08.000Z</time>
      </trkpt>
      <trkpt lat="44.05007" lon="6.83952">
        <ele>966</ele>
        <time>2020-06-05T10:53:09.000Z</time>
      </trkpt>
      <trkpt lat="44.05008" lon="6.83952">
        <ele>966</ele>
        <time>2020-06-05T10:53:10.000Z</time>
      </trkpt>
      <trkpt lat="44.05009" lon="6.83952">
        <ele>966</ele>
        <time>2020-06-05T10:53:11.000Z</time>
      </trkpt>
      <trkpt lat="44.0501" lon="6.83952">
        <ele>966</ele>
        <time>2020-06-05T10:53:12.000Z</time>
      </trkpt>
      <trkpt lat="44.05012" lon="6.83951">
        <ele>966</ele>
        <time>2020-06-05T10:53:13.000Z</time>
      </trkpt>
      <trkpt lat="44.05012" lon="6.8395">
        <ele>966</ele>
        <time>2020-06-05T10:53:14.000Z</time>
      </trkpt>
      <trkpt lat="44.05013" lon="6.83949">
        <ele>966</ele>
        <time>2020-06-05T10:53:15.000Z</time>
      </trkpt>
      <trkpt lat="44.05014" lon="6.83949">
        <ele>966</ele>
        <time>2020-06-05T10:53:16.000Z</time>
      </trkpt>
      <trkpt lat="44.05015" lon="6.83948">
        <ele>966</ele>
        <time>2020-06-05T10:53:17.000Z</time>
      </trkpt>
      <trkpt lat="44.05016" lon="6.83948">
        <ele>966</ele>
        <time>2020-06-05T10:53:18.000Z</time>
      </trkpt>
      <trkpt lat="44.05017" lon="6.83947">
        <ele>966</ele>
        <time>2020-06-05T10:53:19.000Z</time>
      </trkpt>
      <trkpt lat="44.05018" lon="6.83947">
        <ele>966</ele>
        <time>2020-06-05T10:53:20.000Z</time>
      </trkpt>
      <trkpt lat="44.05018" lon="6.83946">
        <ele>966</ele>
        <time>2020-06-05T10:53:21.000Z</time>
      </trkpt>
      <trkpt lat="44.05019" lon="6.83945">
        <ele>966</ele>
        <time>2020-06-05T10:53:22.000Z</time>
      </trkpt>
      <trkpt lat="44.0502" lon="6.83945">
        <ele>966</ele>
        <time>2020-06-05T10:53:23.000Z</time>
      </trkpt>
      <trkpt lat="44.0502" lon="6.83944">
        <ele>966</ele>
        <time>2020-06-05T10:53:24.000Z</time>
      </trkpt>
      <trkpt lat="44.05021" lon="6.83943">
        <ele>966</ele>
        <time>2020-06-05T10:53:25.000Z</time>
      </trkpt>
      <trkpt lat="44.05021" lon="6.83942">
        <ele>966</ele>
        <time>2020-06-05T10:53:26.000Z</time>
      </trkpt>
      <trkpt lat="44.05022" lon="6.83941">
        <ele>966</ele>
        <time>2020-06-05T10:53:27.000Z</time>
      </trkpt>
      <trkpt lat="44.05022" lon="6.83941">
        <ele>966</ele>
        <time>2020-06-05T10:53:28.000Z</time>
      </trkpt>
      <trkpt lat="44.05023" lon="6.83941">
        <ele>966</ele>
        <time>2020-06-05T10:53:29.000Z</time>
      </trkpt>
      <trkpt lat="44.05023" lon="6.83941">
        <ele>966</ele>
        <time>2020-06-05T10:53:30.000Z</time>
      </trkpt>
      <trkpt lat="44.05024" lon="6.83941">
        <ele>966</ele>
        <time>2020-06-05T10:53:31.000Z</time>
      </trkpt>
      <trkpt lat="44.05024" lon="6.83941">
        <ele>966</ele>
        <time>2020-06-05T10:53:32.000Z</time>
      </trkpt>
      <trkpt lat="44.05025" lon="6.83942">
        <ele>966</ele>
        <time>2020-06-05T10:53:33.000Z</time>
      </trkpt>
      <trkpt lat="44.05025" lon="6.83942">
        <ele>966</ele>
        <time>2020-06-05T10:53:34.000Z</time>
      </trkpt>
      <trkpt lat="44.05026" lon="6.83943">
        <ele>966</ele>
        <time>2020-06-05T10:53:35.000Z</time>
      </trkpt>
      <trkpt lat="44.05026" lon="6.83943">
        <ele>966</ele>
        <time>2020-06-05T10:53:36.000Z</time>
      </trkpt>
      <trkpt lat="44.05027" lon="6.83944">
        <ele>966</ele>
        <time>2020-06-05T10:53:37.000Z</time>
      </trkpt>
      <trkpt lat="44.05027" lon="6.83945">
        <ele>966</ele>
        <time>2020-06-05T10:53:38.000Z</time>
      </trkpt>
      <trkpt lat="44.05027" lon="6.83946">
        <ele>966</ele>
        <time>2020-06-05T10:53:39.000Z</time>
      </trkpt>
      <trkpt lat="44.05028" lon="6.83947">
        <ele>966</ele>
        <time>2020-06-05T10:53:40.000Z</time>
      </trkpt>
      <trkpt lat="44.05028" lon="6.83949">
        <ele>966</ele>
        <time>2020-06-05T10:53:41.000Z</time>
      </trkpt>
      <trkpt lat="44.05028" lon="6.8395">
        <ele>967</ele>
        <time>2020-06-05T10:53:42.000Z</time>
      </trkpt>
      <trkpt lat="44.05028" lon="6.83951">
        <ele>967</ele>
        <time>2020-06-05T10:53:43.000Z</time>
      </trkpt>
      <trkpt lat="44.05028" lon="6.83952">
        <ele>967</ele>
        <time>2020-06-05T10:53:44.000Z</time>
      </trkpt>
      <trkpt lat="44.05028" lon="6.83954">
        <ele>967</ele>
        <time>2020-06-05T10:53:45.000Z</time>
      </trkpt>
      <trkpt lat="44.05027" lon="6.83955">
        <ele>967</ele>
        <time>2020-06-05T10:53:46.000Z</time>
      </trkpt>
      <trkpt lat="44.05027" lon="6.83957">
        <ele>967</ele>
        <time>2020-06-05T10:53:47.000Z</time>
      </trkpt>
      <trkpt lat="44.05028" lon="6.83959">
        <ele>967</ele>
        <time>2020-06-05T10:53:48.000Z</time>
      </trkpt>
      <trkpt lat="44.05028" lon="6.8396">
        <ele>967</ele>
        <time>2020-06-05T10:53:49.000Z</time>
      </trkpt>
      <trkpt lat="44.05029" lon="6.83962">
        <ele>968</ele>
        <time>2020-06-05T10:53:50.000Z</time>
      </trkpt>
      <trkpt lat="44.05029" lon="6.83963">
        <ele>968</ele>
        <time>2020-06-05T10:53:51.000Z</time>
      </trkpt>
      <trkpt lat="44.0503" lon="6.83964">
        <ele>968</ele>
        <time>2020-06-05T10:53:52.000Z</time>
      </trkpt>
      <trkpt lat="44.05031" lon="6.83965">
        <ele>968</ele>
        <time>2020-06-05T10:53:53.000Z</time>
      </trkpt>
      <trkpt lat="44.05032" lon="6.83966">
        <ele>968</ele>
        <time>2020-06-05T10:53:54.000Z</time>
      </trkpt>
      <trkpt lat="44.05032" lon="6.83967">
        <ele>968</ele>
        <time>2020-06-05T10:53:55.000Z</time>
      </trkpt>
      <trkpt lat="44.05033" lon="6.83968">
        <ele>968</ele>
        <time>2020-06-05T10:53:56.000Z</time>
      </trkpt>
      <trkpt lat="44.05033" lon="6.83969">
        <ele>968</ele>
        <time>2020-06-05T10:53:57.000Z</time>
      </trkpt>
      <trkpt lat="44.05034" lon="6.8397">
        <ele>968</ele>
        <time>2020-06-05T10:53:58.000Z</time>
      </trkpt>
      <trkpt lat="44.05034" lon="6.83972">
        <ele>968</ele>
        <time>2020-06-05T10:53:59.000Z</time>
      </trkpt>
      <trkpt lat="44.05035" lon="6.83973">
        <ele>968</ele>
        <time>2020-06-05T10:54:00.000Z</time>
      </trkpt>
      <trkpt lat="44.05035" lon="6.83974">
        <ele>968</ele>
        <time>2020-06-05T10:54:01.000Z</time>
      </trkpt>
      <trkpt lat="44.05036" lon="6.83975">
        <ele>968</ele>
        <time>2020-06-05T10:54:02.000Z</time>
      </trkpt>
      <trkpt lat="44.05037" lon="6.83977">
        <ele>968</ele>
        <time>2020-06-05T10:54:03.000Z</time>
      </trkpt>
      <trkpt lat="44.05038" lon="6.83977">
        <ele>968</ele>
        <time>2020-06-05T10:54:04.000Z</time>
      </trkpt>
      <trkpt lat="44.05039" lon="6.83978">
        <ele>968</ele>
        <time>2020-06-05T10:54:05.000Z</time>
      </trkpt>
      <trkpt lat="44.0504" lon="6.83978">
        <ele>968</ele>
        <time>2020-06-05T10:54:06.000Z</time>
      </trkpt>
      <trkpt lat="44.05041" lon="6.83977">
        <ele>968</ele>
        <time>2020-06-05T10:54:07.000Z</time>
      </trkpt>
      <trkpt lat="44.05041" lon="6.83977">
        <ele>968</ele>
        <time>2020-06-05T10:54:08.000Z</time>
      </trkpt>
      <trkpt lat="44.05043" lon="6.83976">
        <ele>968</ele>
        <time>2020-06-05T10:54:09.000Z</time>
      </trkpt>
      <trkpt lat="44.05044" lon="6.83976">
        <ele>968</ele>
        <time>2020-06-05T10:54:10.000Z</time>
      </trkpt>
      <trkpt lat="44.05046" lon="6.83976">
        <ele>968</ele>
        <time>2020-06-05T10:54:11.000Z</time>
      </trkpt>
      <trkpt lat="44.05047" lon="6.83975">
        <ele>968</ele>
        <time>2020-06-05T10:54:12.000Z</time>
      </trkpt>
      <trkpt lat="44.05048" lon="6.83975">
        <ele>968</ele>
        <time>2020-06-05T10:54:13.000Z</time>
      </trkpt>
      <trkpt lat="44.05049" lon="6.83975">
        <ele>968</ele>
        <time>2020-06-05T10:54:14.000Z</time>
      </trkpt>
      <trkpt lat="44.0505" lon="6.83975">
        <ele>968</ele>
        <time>2020-06-05T10:54:15.000Z</time>
      </trkpt>
      <trkpt lat="44.05051" lon="6.83975">
        <ele>968</ele>
        <time>2020-06-05T10:54:16.000Z</time>
      </trkpt>
      <trkpt lat="44.05052" lon="6.83975">
        <ele>968</ele>
        <time>2020-06-05T10:54:17.000Z</time>
      </trkpt>
      <trkpt lat="44.05053" lon="6.83974">
        <ele>968</ele>
        <time>2020-06-05T10:54:18.000Z</time>
      </trkpt>
      <trkpt lat="44.05054" lon="6.83974">
        <ele>968</ele>
        <time>2020-06-05T10:54:19.000Z</time>
      </trkpt>
      <trkpt lat="44.05055" lon="6.83974">
        <ele>968</ele>
        <time>2020-06-05T10:54:20.000Z</time>
      </trkpt>
      <trkpt lat="44.05056" lon="6.83975">
        <ele>968</ele>
        <time>2020-06-05T10:54:21.000Z</time>
      </trkpt>
      <trkpt lat="44.05057" lon="6.83976">
        <ele>968</ele>
        <time>2020-06-05T10:54:22.000Z</time>
      </trkpt>
      <trkpt lat="44.05058" lon="6.83977">
        <ele>968</ele>
        <time>2020-06-05T10:54:23.000Z</time>
      </trkpt>
      <trkpt lat="44.05058" lon="6.83978">
        <ele>968</ele>
        <time>2020-06-05T10:54:24.000Z</time>
      </trkpt>
      <trkpt lat="44.05058" lon="6.8398">
        <ele>968</ele>
        <time>2020-06-05T10:54:25.000Z</time>
      </trkpt>
      <trkpt lat="44.05058" lon="6.83982">
        <ele>968</ele>
        <time>2020-06-05T10:54:26.000Z</time>
      </trkpt>
      <trkpt lat="44.05058" lon="6.83984">
        <ele>968</ele>
        <time>2020-06-05T10:54:27.000Z</time>
      </trkpt>
      <trkpt lat="44.05058" lon="6.83985">
        <ele>968</ele>
        <time>2020-06-05T10:54:28.000Z</time>
      </trkpt>
      <trkpt lat="44.05058" lon="6.83987">
        <ele>968</ele>
        <time>2020-06-05T10:54:29.000Z</time>
      </trkpt>
      <trkpt lat="44.05058" lon="6.83988">
        <ele>968</ele>
        <time>2020-06-05T10:54:30.000Z</time>
      </trkpt>
      <trkpt lat="44.05058" lon="6.83989">
        <ele>968</ele>
        <time>2020-06-05T10:54:31.000Z</time>
      </trkpt>
      <trkpt lat="44.05058" lon="6.8399">
        <ele>968</ele>
        <time>2020-06-05T10:54:32.000Z</time>
      </trkpt>
      <trkpt lat="44.05058" lon="6.8399">
        <ele>968</ele>
        <time>2020-06-05T10:54:33.000Z</time>
      </trkpt>
      <trkpt lat="44.05058" lon="6.83991">
        <ele>968</ele>
        <time>2020-06-05T10:54:34.000Z</time>
      </trkpt>
      <trkpt lat="44.05059" lon="6.83992">
        <ele>968</ele>
        <time>2020-06-05T10:54:35.000Z</time>
      </trkpt>
      <trkpt lat="44.0506" lon="6.83993">
        <ele>969</ele>
        <time>2020-06-05T10:54:36.000Z</time>
      </trkpt>
      <trkpt lat="44.0506" lon="6.83995">
        <ele>969</ele>
        <time>2020-06-05T10:54:37.000Z</time>
      </trkpt>
      <trkpt lat="44.0506" lon="6.83996">
        <ele>969</ele>
        <time>2020-06-05T10:54:38.000Z</time>
      </trkpt>
      <trkpt lat="44.05061" lon="6.83997">
        <ele>969</ele>
        <time>2020-06-05T10:54:39.000Z</time>
      </trkpt>
      <trkpt lat="44.05061" lon="6.83998">
        <ele>969</ele>
        <time>2020-06-05T10:54:40.000Z</time>
      </trkpt>
      <trkpt lat="44.0506" lon="6.84">
        <ele>969</ele>
        <time>2020-06-05T10:54:41.000Z</time>
      </trkpt>
      <trkpt lat="44.0506" lon="6.84002">
        <ele>969</ele>
        <time>2020-06-05T10:54:42.000Z</time>
      </trkpt>
      <trkpt lat="44.05059" lon="6.84003">
        <ele>969</ele>
        <time>2020-06-05T10:54:43.000Z</time>
      </trkpt>
      <trkpt lat="44.05059" lon="6.84004">
        <ele>969</ele>
        <time>2020-06-05T10:54:44.000Z</time>
      </trkpt>
      <trkpt lat="44.05059" lon="6.84005">
        <ele>969</ele>
        <time>2020-06-05T10:54:45.000Z</time>
      </trkpt>
      <trkpt lat="44.05058" lon="6.84006">
        <ele>969</ele>
        <time>2020-06-05T10:54:46.000Z</time>
      </trkpt>
      <trkpt lat="44.05058" lon="6.84008">
        <ele>969</ele>
        <time>2020-06-05T10:54:47.000Z</time>
      </trkpt>
      <trkpt lat="44.05058" lon="6.84009">
        <ele>969</ele>
        <time>2020-06-05T10:54:48.000Z</time>
      </trkpt>
      <trkpt lat="44.05058" lon="6.84011">
        <ele>969</ele>
        <time>2020-06-05T10:54:49.000Z</time>
      </trkpt>
      <trkpt lat="44.05058" lon="6.84012">
        <ele>969</ele>
        <time>2020-06-05T10:54:50.000Z</time>
      </trkpt>
      <trkpt lat="44.05057" lon="6.84013">
        <ele>970</ele>
        <time>2020-06-05T10:54:51.000Z</time>
      </trkpt>
      <trkpt lat="44.05057" lon="6.84015">
        <ele>970</ele>
        <time>2020-06-05T10:54:52.000Z</time>
      </trkpt>
      <trkpt lat="44.05057" lon="6.84016">
        <ele>970</ele>
        <time>2020-06-05T10:54:53.000Z</time>
      </trkpt>
      <trkpt lat="44.05057" lon="6.84018">
        <ele>970</ele>
        <time>2020-06-05T10:54:54.000Z</time>
      </trkpt>
      <trkpt lat="44.05057" lon="6.8402">
        <ele>970</ele>
        <time>2020-06-05T10:54:55.000Z</time>
      </trkpt>
      <trkpt lat="44.05057" lon="6.84021">
        <ele>970</ele>
        <time>2020-06-05T10:54:56.000Z</time>
      </trkpt>
      <trkpt lat="44.05058" lon="6.84023">
        <ele>970</ele>
        <time>2020-06-05T10:54:57.000Z</time>
      </trkpt>
      <trkpt lat="44.05058" lon="6.84024">
        <ele>970</ele>
        <time>2020-06-05T10:54:58.000Z</time>
      </trkpt>
      <trkpt lat="44.05058" lon="6.84026">
        <ele>970</ele>
        <time>2020-06-05T10:54:59.000Z</time>
      </trkpt>
      <trkpt lat="44.05058" lon="6.84028">
        <ele>970</ele>
        <time>2020-06-05T10:55:00.000Z</time>
      </trkpt>
      <trkpt lat="44.05057" lon="6.84029">
        <ele>970</ele>
        <time>2020-06-05T10:55:01.000Z</time>
      </trkpt>
      <trkpt lat="44.05058" lon="6.84031">
        <ele>971</ele>
        <time>2020-06-05T10:55:02.000Z</time>
      </trkpt>
      <trkpt lat="44.05058" lon="6.84032">
        <ele>971</ele>
        <time>2020-06-05T10:55:03.000Z</time>
      </trkpt>
      <trkpt lat="44.05058" lon="6.84033">
        <ele>971</ele>
        <time>2020-06-05T10:55:04.000Z</time>
      </trkpt>
      <trkpt lat="44.05059" lon="6.84034">
        <ele>971</ele>
        <time>2020-06-05T10:55:05.000Z</time>
      </trkpt>
      <trkpt lat="44.0506" lon="6.84035">
        <ele>971</ele>
        <time>2020-06-05T10:55:06.000Z</time>
      </trkpt>
      <trkpt lat="44.05061" lon="6.84036">
        <ele>971</ele>
        <time>2020-06-05T10:55:07.000Z</time>
      </trkpt>
      <trkpt lat="44.05062" lon="6.84036">
        <ele>971</ele>
        <time>2020-06-05T10:55:08.000Z</time>
      </trkpt>
      <trkpt lat="44.05062" lon="6.84037">
        <ele>971</ele>
        <time>2020-06-05T10:55:09.000Z</time>
      </trkpt>
      <trkpt lat="44.05063" lon="6.84037">
        <ele>971</ele>
        <time>2020-06-05T10:55:10.000Z</time>
      </trkpt>
      <trkpt lat="44.05065" lon="6.84037">
        <ele>971</ele>
        <time>2020-06-05T10:55:11.000Z</time>
      </trkpt>
      <trkpt lat="44.05066" lon="6.84038">
        <ele>971</ele>
        <time>2020-06-05T10:55:12.000Z</time>
      </trkpt>
      <trkpt lat="44.05067" lon="6.84038">
        <ele>971</ele>
        <time>2020-06-05T10:55:13.000Z</time>
      </trkpt>
      <trkpt lat="44.05068" lon="6.84038">
        <ele>971</ele>
        <time>2020-06-05T10:55:14.000Z</time>
      </trkpt>
      <trkpt lat="44.05069" lon="6.84039">
        <ele>971</ele>
        <time>2020-06-05T10:55:15.000Z</time>
      </trkpt>
      <trkpt lat="44.0507" lon="6.84039">
        <ele>971</ele>
        <time>2020-06-05T10:55:16.000Z</time>
      </trkpt>
      <trkpt lat="44.05071" lon="6.8404">
        <ele>971</ele>
        <time>2020-06-05T10:55:17.000Z</time>
      </trkpt>
      <trkpt lat="44.05072" lon="6.84041">
        <ele>971</ele>
        <time>2020-06-05T10:55:18.000Z</time>
      </trkpt>
      <trkpt lat="44.05073" lon="6.84042">
        <ele>971</ele>
        <time>2020-06-05T10:55:19.000Z</time>
      </trkpt>
      <trkpt lat="44.05074" lon="6.84043">
        <ele>970</ele>
        <time>2020-06-05T10:55:20.000Z</time>
      </trkpt>
      <trkpt lat="44.05074" lon="6.84044">
        <ele>970</ele>
        <time>2020-06-05T10:55:21.000Z</time>
      </trkpt>
      <trkpt lat="44.05075" lon="6.84045">
        <ele>970</ele>
        <time>2020-06-05T10:55:22.000Z</time>
      </trkpt>
      <trkpt lat="44.05076" lon="6.84046">
        <ele>970</ele>
        <time>2020-06-05T10:55:23.000Z</time>
      </trkpt>
      <trkpt lat="44.05077" lon="6.84047">
        <ele>970</ele>
        <time>2020-06-05T10:55:24.000Z</time>
      </trkpt>
      <trkpt lat="44.05077" lon="6.84049">
        <ele>970</ele>
        <time>2020-06-05T10:55:25.000Z</time>
      </trkpt>
      <trkpt lat="44.05078" lon="6.8405">
        <ele>970</ele>
        <time>2020-06-05T10:55:26.000Z</time>
      </trkpt>
      <trkpt lat="44.05079" lon="6.84051">
        <ele>970</ele>
        <time>2020-06-05T10:55:27.000Z</time>
      </trkpt>
      <trkpt lat="44.05079" lon="6.84051">
        <ele>970</ele>
        <time>2020-06-05T10:55:28.000Z</time>
      </trkpt>
      <trkpt lat="44.0508" lon="6.84052">
        <ele>970</ele>
        <time>2020-06-05T10:55:29.000Z</time>
      </trkpt>
      <trkpt lat="44.05081" lon="6.84052">
        <ele>970</ele>
        <time>2020-06-05T10:55:30.000Z</time>
      </trkpt>
      <trkpt lat="44.05083" lon="6.84052">
        <ele>970</ele>
        <time>2020-06-05T10:55:31.000Z</time>
      </trkpt>
      <trkpt lat="44.05084" lon="6.84052">
        <ele>970</ele>
        <time>2020-06-05T10:55:32.000Z</time>
      </trkpt>
      <trkpt lat="44.05084" lon="6.84053">
        <ele>970</ele>
        <time>2020-06-05T10:55:33.000Z</time>
      </trkpt>
      <trkpt lat="44.05085" lon="6.84054">
        <ele>970</ele>
        <time>2020-06-05T10:55:34.000Z</time>
      </trkpt>
      <trkpt lat="44.05085" lon="6.84055">
        <ele>970</ele>
        <time>2020-06-05T10:55:35.000Z</time>
      </trkpt>
      <trkpt lat="44.05086" lon="6.84055">
        <ele>970</ele>
        <time>2020-06-05T10:55:36.000Z</time>
      </trkpt>
      <trkpt lat="44.05087" lon="6.84056">
        <ele>970</ele>
        <time>2020-06-05T10:55:37.000Z</time>
      </trkpt>
      <trkpt lat="44.05087" lon="6.84057">
        <ele>970</ele>
        <time>2020-06-05T10:55:38.000Z</time>
      </trkpt>
      <trkpt lat="44.05088" lon="6.84058">
        <ele>970</ele>
        <time>2020-06-05T10:55:39.000Z</time>
      </trkpt>
      <trkpt lat="44.05089" lon="6.84059">
        <ele>970</ele>
        <time>2020-06-05T10:55:40.000Z</time>
      </trkpt>
      <trkpt lat="44.05089" lon="6.8406">
        <ele>970</ele>
        <time>2020-06-05T10:55:41.000Z</time>
      </trkpt>
      <trkpt lat="44.0509" lon="6.84062">
        <ele>970</ele>
        <time>2020-06-05T10:55:42.000Z</time>
      </trkpt>
      <trkpt lat="44.05091" lon="6.84063">
        <ele>970</ele>
        <time>2020-06-05T10:55:43.000Z</time>
      </trkpt>
      <trkpt lat="44.05091" lon="6.84064">
        <ele>970</ele>
        <time>2020-06-05T10:55:44.000Z</time>
      </trkpt>
      <trkpt lat="44.05092" lon="6.84065">
        <ele>971</ele>
        <time>2020-06-05T10:55:45.000Z</time>
      </trkpt>
      <trkpt lat="44.05093" lon="6.84067">
        <ele>971</ele>
        <time>2020-06-05T10:55:46.000Z</time>
      </trkpt>
      <trkpt lat="44.05094" lon="6.84068">
        <ele>971</ele>
        <time>2020-06-05T10:55:47.000Z</time>
      </trkpt>
      <trkpt lat="44.05094" lon="6.8407">
        <ele>971</ele>
        <time>2020-06-05T10:55:48.000Z</time>
      </trkpt>
      <trkpt lat="44.05095" lon="6.8407">
        <ele>971</ele>
        <time>2020-06-05T10:55:49.000Z</time>
      </trkpt>
      <trkpt lat="44.05096" lon="6.84071">
        <ele>971</ele>
        <time>2020-06-05T10:55:50.000Z</time>
      </trkpt>
      <trkpt lat="44.05097" lon="6.84072">
        <ele>971</ele>
        <time>2020-06-05T10:55:51.000Z</time>
      </trkpt>
      <trkpt lat="44.05097" lon="6.84073">
        <ele>971</ele>
        <time>2020-06-05T10:55:52.000Z</time>
      </trkpt>
      <trkpt lat="44.05098" lon="6.84073">
        <ele>971</ele>
        <time>2020-06-05T10:55:53.000Z</time>
      </trkpt>
      <trkpt lat="44.05099" lon="6.84073">
        <ele>971</ele>
        <time>2020-06-05T10:55:54.000Z</time>
      </trkpt>
      <trkpt lat="44.051" lon="6.84074">
        <ele>971</ele>
        <time>2020-06-05T10:55:55.000Z</time>
      </trkpt>
      <trkpt lat="44.051" lon="6.84073">
        <ele>971</ele>
        <time>2020-06-05T10:55:56.000Z</time>
      </trkpt>
      <trkpt lat="44.05101" lon="6.84074">
        <ele>971</ele>
        <time>2020-06-05T10:55:57.000Z</time>
      </trkpt>
      <trkpt lat="44.05101" lon="6.84074">
        <ele>971</ele>
        <time>2020-06-05T10:55:58.000Z</time>
      </trkpt>
      <trkpt lat="44.05102" lon="6.84074">
        <ele>971</ele>
        <time>2020-06-05T10:55:59.000Z</time>
      </trkpt>
      <trkpt lat="44.05103" lon="6.84075">
        <ele>971</ele>
        <time>2020-06-05T10:56:00.000Z</time>
      </trkpt>
      <trkpt lat="44.05104" lon="6.84075">
        <ele>971</ele>
        <time>2020-06-05T10:56:01.000Z</time>
      </trkpt>
      <trkpt lat="44.05105" lon="6.84075">
        <ele>971</ele>
        <time>2020-06-05T10:56:02.000Z</time>
      </trkpt>
      <trkpt lat="44.05107" lon="6.84075">
        <ele>971</ele>
        <time>2020-06-05T10:56:03.000Z</time>
      </trkpt>
      <trkpt lat="44.05108" lon="6.84076">
        <ele>971</ele>
        <time>2020-06-05T10:56:04.000Z</time>
      </trkpt>
      <trkpt lat="44.05109" lon="6.84077">
        <ele>971</ele>
        <time>2020-06-05T10:56:05.000Z</time>
      </trkpt>
      <trkpt lat="44.0511" lon="6.84079">
        <ele>971</ele>
        <time>2020-06-05T10:56:06.000Z</time>
      </trkpt>
      <trkpt lat="44.0511" lon="6.8408">
        <ele>971</ele>
        <time>2020-06-05T10:56:07.000Z</time>
      </trkpt>
      <trkpt lat="44.05111" lon="6.84081">
        <ele>971</ele>
        <time>2020-06-05T10:56:08.000Z</time>
      </trkpt>
      <trkpt lat="44.05111" lon="6.84082">
        <ele>971</ele>
        <time>2020-06-05T10:56:09.000Z</time>
      </trkpt>
      <trkpt lat="44.05112" lon="6.84083">
        <ele>971</ele>
        <time>2020-06-05T10:56:10.000Z</time>
      </trkpt>
      <trkpt lat="44.05112" lon="6.84084">
        <ele>971</ele>
        <time>2020-06-05T10:56:11.000Z</time>
      </trkpt>
      <trkpt lat="44.05113" lon="6.84086">
        <ele>971</ele>
        <time>2020-06-05T10:56:12.000Z</time>
      </trkpt>
      <trkpt lat="44.05114" lon="6.84088">
        <ele>971</ele>
        <time>2020-06-05T10:56:13.000Z</time>
      </trkpt>
      <trkpt lat="44.05115" lon="6.84089">
        <ele>971</ele>
        <time>2020-06-05T10:56:14.000Z</time>
      </trkpt>
      <trkpt lat="44.05115" lon="6.84091">
        <ele>971</ele>
        <time>2020-06-05T10:56:15.000Z</time>
      </trkpt>
      <trkpt lat="44.05115" lon="6.84092">
        <ele>971</ele>
        <time>2020-06-05T10:56:16.000Z</time>
      </trkpt>
      <trkpt lat="44.05115" lon="6.84093">
        <ele>971</ele>
        <time>2020-06-05T10:56:17.000Z</time>
      </trkpt>
      <trkpt lat="44.05116" lon="6.84095">
        <ele>971</ele>
        <time>2020-06-05T10:56:18.000Z</time>
      </trkpt>
      <trkpt lat="44.05116" lon="6.84096">
        <ele>971</ele>
        <time>2020-06-05T10:56:19.000Z</time>
      </trkpt>
      <trkpt lat="44.05117" lon="6.84098">
        <ele>971</ele>
        <time>2020-06-05T10:56:20.000Z</time>
      </trkpt>
      <trkpt lat="44.05117" lon="6.84099">
        <ele>971</ele>
        <time>2020-06-05T10:56:21.000Z</time>
      </trkpt>
      <trkpt lat="44.05118" lon="6.841">
        <ele>971</ele>
        <time>2020-06-05T10:56:22.000Z</time>
      </trkpt>
      <trkpt lat="44.05119" lon="6.84101">
        <ele>971</ele>
        <time>2020-06-05T10:56:23.000Z</time>
      </trkpt>
      <trkpt lat="44.05119" lon="6.84103">
        <ele>971</ele>
        <time>2020-06-05T10:56:24.000Z</time>
      </trkpt>
      <trkpt lat="44.05121" lon="6.84104">
        <ele>971</ele>
        <time>2020-06-05T10:56:25.000Z</time>
      </trkpt>
      <trkpt lat="44.05122" lon="6.84105">
        <ele>971</ele>
        <time>2020-06-05T10:56:26.000Z</time>
      </trkpt>
      <trkpt lat="44.05123" lon="6.84107">
        <ele>971</ele>
        <time>2020-06-05T10:56:27.000Z</time>
      </trkpt>
      <trkpt lat="44.05124" lon="6.84108">
        <ele>971</ele>
        <time>2020-06-05T10:56:28.000Z</time>
      </trkpt>
      <trkpt lat="44.05124" lon="6.84109">
        <ele>972</ele>
        <time>2020-06-05T10:56:29.000Z</time>
      </trkpt>
      <trkpt lat="44.05125" lon="6.84111">
        <ele>972</ele>
        <time>2020-06-05T10:56:30.000Z</time>
      </trkpt>
      <trkpt lat="44.05126" lon="6.84112">
        <ele>972</ele>
        <time>2020-06-05T10:56:31.000Z</time>
      </trkpt>
      <trkpt lat="44.05127" lon="6.84114">
        <ele>972</ele>
        <time>2020-06-05T10:56:32.000Z</time>
      </trkpt>
      <trkpt lat="44.05128" lon="6.84115">
        <ele>972</ele>
        <time>2020-06-05T10:56:33.000Z</time>
      </trkpt>
      <trkpt lat="44.05129" lon="6.84116">
        <ele>972</ele>
        <time>2020-06-05T10:56:34.000Z</time>
      </trkpt>
      <trkpt lat="44.0513" lon="6.84117">
        <ele>972</ele>
        <time>2020-06-05T10:56:35.000Z</time>
      </trkpt>
      <trkpt lat="44.05131" lon="6.84118">
        <ele>972</ele>
        <time>2020-06-05T10:56:36.000Z</time>
      </trkpt>
      <trkpt lat="44.05132" lon="6.84119">
        <ele>972</ele>
        <time>2020-06-05T10:56:37.000Z</time>
      </trkpt>
      <trkpt lat="44.05133" lon="6.84121">
        <ele>971</ele>
        <time>2020-06-05T10:56:38.000Z</time>
      </trkpt>
      <trkpt lat="44.05134" lon="6.84122">
        <ele>971</ele>
        <time>2020-06-05T10:56:39.000Z</time>
      </trkpt>
      <trkpt lat="44.05135" lon="6.84123">
        <ele>971</ele>
        <time>2020-06-05T10:56:40.000Z</time>
      </trkpt>
      <trkpt lat="44.05135" lon="6.84124">
        <ele>971</ele>
        <time>2020-06-05T10:56:41.000Z</time>
      </trkpt>
      <trkpt lat="44.05136" lon="6.84125">
        <ele>971</ele>
        <time>2020-06-05T10:56:42.000Z</time>
      </trkpt>
      <trkpt lat="44.05137" lon="6.84127">
        <ele>971</ele>
        <time>2020-06-05T10:56:43.000Z</time>
      </trkpt>
      <trkpt lat="44.05137" lon="6.84128">
        <ele>971</ele>
        <time>2020-06-05T10:56:44.000Z</time>
      </trkpt>
      <trkpt lat="44.05138" lon="6.84129">
        <ele>971</ele>
        <time>2020-06-05T10:56:45.000Z</time>
      </trkpt>
      <trkpt lat="44.05138" lon="6.8413">
        <ele>971</ele>
        <time>2020-06-05T10:56:46.000Z</time>
      </trkpt>
      <trkpt lat="44.05139" lon="6.84132">
        <ele>971</ele>
        <time>2020-06-05T10:56:47.000Z</time>
      </trkpt>
      <trkpt lat="44.0514" lon="6.84133">
        <ele>971</ele>
        <time>2020-06-05T10:56:48.000Z</time>
      </trkpt>
      <trkpt lat="44.0514" lon="6.84134">
        <ele>971</ele>
        <time>2020-06-05T10:56:49.000Z</time>
      </trkpt>
      <trkpt lat="44.05141" lon="6.84135">
        <ele>971</ele>
        <time>2020-06-05T10:56:50.000Z</time>
      </trkpt>
      <trkpt lat="44.05142" lon="6.84136">
        <ele>971</ele>
        <time>2020-06-05T10:56:51.000Z</time>
      </trkpt>
      <trkpt lat="44.05143" lon="6.84137">
        <ele>971</ele>
        <time>2020-06-05T10:56:52.000Z</time>
      </trkpt>
      <trkpt lat="44.05144" lon="6.84138">
        <ele>971</ele>
        <time>2020-06-05T10:56:53.000Z</time>
      </trkpt>
      <trkpt lat="44.05144" lon="6.84138">
        <ele>971</ele>
        <time>2020-06-05T10:56:54.000Z</time>
      </trkpt>
      <trkpt lat="44.05145" lon="6.84139">
        <ele>971</ele>
        <time>2020-06-05T10:56:55.000Z</time>
      </trkpt>
      <trkpt lat="44.05145" lon="6.8414">
        <ele>971</ele>
        <time>2020-06-05T10:56:56.000Z</time>
      </trkpt>
      <trkpt lat="44.05146" lon="6.84141">
        <ele>971</ele>
        <time>2020-06-05T10:56:57.000Z</time>
      </trkpt>
      <trkpt lat="44.05147" lon="6.84142">
        <ele>970</ele>
        <time>2020-06-05T10:56:58.000Z</time>
      </trkpt>
      <trkpt lat="44.05147" lon="6.84143">
        <ele>970</ele>
        <time>2020-06-05T10:56:59.000Z</time>
      </trkpt>
      <trkpt lat="44.05148" lon="6.84144">
        <ele>970</ele>
        <time>2020-06-05T10:57:00.000Z</time>
      </trkpt>
      <trkpt lat="44.05148" lon="6.84144">
        <ele>970</ele>
        <time>2020-06-05T10:57:01.000Z</time>
      </trkpt>
      <trkpt lat="44.05149" lon="6.84146">
        <ele>970</ele>
        <time>2020-06-05T10:57:02.000Z</time>
      </trkpt>
      <trkpt lat="44.0515" lon="6.84147">
        <ele>970</ele>
        <time>2020-06-05T10:57:03.000Z</time>
      </trkpt>
      <trkpt lat="44.05151" lon="6.84148">
        <ele>970</ele>
        <time>2020-06-05T10:57:04.000Z</time>
      </trkpt>
      <trkpt lat="44.05151" lon="6.84149">
        <ele>970</ele>
        <time>2020-06-05T10:57:05.000Z</time>
      </trkpt>
      <trkpt lat="44.05152" lon="6.8415">
        <ele>970</ele>
        <time>2020-06-05T10:57:06.000Z</time>
      </trkpt>
      <trkpt lat="44.05152" lon="6.84151">
        <ele>970</ele>
        <time>2020-06-05T10:57:07.000Z</time>
      </trkpt>
      <trkpt lat="44.05153" lon="6.84152">
        <ele>970</ele>
        <time>2020-06-05T10:57:08.000Z</time>
      </trkpt>
      <trkpt lat="44.05154" lon="6.84153">
        <ele>970</ele>
        <time>2020-06-05T10:57:09.000Z</time>
      </trkpt>
      <trkpt lat="44.05154" lon="6.84155">
        <ele>970</ele>
        <time>2020-06-05T10:57:10.000Z</time>
      </trkpt>
      <trkpt lat="44.05155" lon="6.84156">
        <ele>970</ele>
        <time>2020-06-05T10:57:11.000Z</time>
      </trkpt>
      <trkpt lat="44.05155" lon="6.84157">
        <ele>970</ele>
        <time>2020-06-05T10:57:12.000Z</time>
      </trkpt>
      <trkpt lat="44.05156" lon="6.84158">
        <ele>970</ele>
        <time>2020-06-05T10:57:13.000Z</time>
      </trkpt>
      <trkpt lat="44.05156" lon="6.8416">
        <ele>970</ele>
        <time>2020-06-05T10:57:14.000Z</time>
      </trkpt>
      <trkpt lat="44.05157" lon="6.84161">
        <ele>970</ele>
        <time>2020-06-05T10:57:15.000Z</time>
      </trkpt>
      <trkpt lat="44.05157" lon="6.84162">
        <ele>970</ele>
        <time>2020-06-05T10:57:16.000Z</time>
      </trkpt>
      <trkpt lat="44.05158" lon="6.84163">
        <ele>969</ele>
        <time>2020-06-05T10:57:17.000Z</time>
      </trkpt>
      <trkpt lat="44.05159" lon="6.84164">
        <ele>969</ele>
        <time>2020-06-05T10:57:18.000Z</time>
      </trkpt>
      <trkpt lat="44.05159" lon="6.84165">
        <ele>969</ele>
        <time>2020-06-05T10:57:19.000Z</time>
      </trkpt>
      <trkpt lat="44.0516" lon="6.84166">
        <ele>969</ele>
        <time>2020-06-05T10:57:20.000Z</time>
      </trkpt>
      <trkpt lat="44.05161" lon="6.84167">
        <ele>969</ele>
        <time>2020-06-05T10:57:21.000Z</time>
      </trkpt>
      <trkpt lat="44.05161" lon="6.84168">
        <ele>969</ele>
        <time>2020-06-05T10:57:22.000Z</time>
      </trkpt>
      <trkpt lat="44.05161" lon="6.84169">
        <ele>969</ele>
        <time>2020-06-05T10:57:23.000Z</time>
      </trkpt>
      <trkpt lat="44.05162" lon="6.8417">
        <ele>969</ele>
        <time>2020-06-05T10:57:24.000Z</time>
      </trkpt>
      <trkpt lat="44.05162" lon="6.84171">
        <ele>969</ele>
        <time>2020-06-05T10:57:25.000Z</time>
      </trkpt>
      <trkpt lat="44.05163" lon="6.84171">
        <ele>969</ele>
        <time>2020-06-05T10:57:26.000Z</time>
      </trkpt>
      <trkpt lat="44.05163" lon="6.84172">
        <ele>969</ele>
        <time>2020-06-05T10:57:27.000Z</time>
      </trkpt>
      <trkpt lat="44.05164" lon="6.84172">
        <ele>969</ele>
        <time>2020-06-05T10:57:28.000Z</time>
      </trkpt>
      <trkpt lat="44.05165" lon="6.84173">
        <ele>969</ele>
        <time>2020-06-05T10:57:29.000Z</time>
      </trkpt>
      <trkpt lat="44.05166" lon="6.84174">
        <ele>968</ele>
        <time>2020-06-05T10:57:30.000Z</time>
      </trkpt>
      <trkpt lat="44.05167" lon="6.84174">
        <ele>968</ele>
        <time>2020-06-05T10:57:31.000Z</time>
      </trkpt>
      <trkpt lat="44.05168" lon="6.84175">
        <ele>968</ele>
        <time>2020-06-05T10:57:32.000Z</time>
      </trkpt>
      <trkpt lat="44.05168" lon="6.84176">
        <ele>968</ele>
        <time>2020-06-05T10:57:33.000Z</time>
      </trkpt>
      <trkpt lat="44.05169" lon="6.84176">
        <ele>968</ele>
        <time>2020-06-05T10:57:34.000Z</time>
      </trkpt>
      <trkpt lat="44.0517" lon="6.84177">
        <ele>967</ele>
        <time>2020-06-05T10:57:35.000Z</time>
      </trkpt>
      <trkpt lat="44.05172" lon="6.84178">
        <ele>967</ele>
        <time>2020-06-05T10:57:36.000Z</time>
      </trkpt>
      <trkpt lat="44.05173" lon="6.84178">
        <ele>967</ele>
        <time>2020-06-05T10:57:37.000Z</time>
      </trkpt>
      <trkpt lat="44.05174" lon="6.84179">
        <ele>967</ele>
        <time>2020-06-05T10:57:38.000Z</time>
      </trkpt>
      <trkpt lat="44.05175" lon="6.84179">
        <ele>966</ele>
        <time>2020-06-05T10:57:39.000Z</time>
      </trkpt>
      <trkpt lat="44.05176" lon="6.84179">
        <ele>966</ele>
        <time>2020-06-05T10:57:40.000Z</time>
      </trkpt>
      <trkpt lat="44.05176" lon="6.8418">
        <ele>966</ele>
        <time>2020-06-05T10:57:41.000Z</time>
      </trkpt>
      <trkpt lat="44.05177" lon="6.8418">
        <ele>966</ele>
        <time>2020-06-05T10:57:42.000Z</time>
      </trkpt>
      <trkpt lat="44.05178" lon="6.8418">
        <ele>966</ele>
        <time>2020-06-05T10:57:43.000Z</time>
      </trkpt>
      <trkpt lat="44.05179" lon="6.84181">
        <ele>966</ele>
        <time>2020-06-05T10:57:44.000Z</time>
      </trkpt>
      <trkpt lat="44.0518" lon="6.84182">
        <ele>966</ele>
        <time>2020-06-05T10:57:45.000Z</time>
      </trkpt>
      <trkpt lat="44.0518" lon="6.84183">
        <ele>966</ele>
        <time>2020-06-05T10:57:46.000Z</time>
      </trkpt>
      <trkpt lat="44.05181" lon="6.84184">
        <ele>966</ele>
        <time>2020-06-05T10:57:47.000Z</time>
      </trkpt>
      <trkpt lat="44.05182" lon="6.84185">
        <ele>966</ele>
        <time>2020-06-05T10:57:48.000Z</time>
      </trkpt>
      <trkpt lat="44.05183" lon="6.84186">
        <ele>966</ele>
        <time>2020-06-05T10:57:49.000Z</time>
      </trkpt>
      <trkpt lat="44.05184" lon="6.84187">
        <ele>966</ele>
        <time>2020-06-05T10:57:50.000Z</time>
      </trkpt>
      <trkpt lat="44.05185" lon="6.84187">
        <ele>966</ele>
        <time>2020-06-05T10:57:51.000Z</time>
      </trkpt>
      <trkpt lat="44.05186" lon="6.84188">
        <ele>966</ele>
        <time>2020-06-05T10:57:52.000Z</time>
      </trkpt>
      <trkpt lat="44.05187" lon="6.84189">
        <ele>966</ele>
        <time>2020-06-05T10:57:53.000Z</time>
      </trkpt>
      <trkpt lat="44.05188" lon="6.8419">
        <ele>966</ele>
        <time>2020-06-05T10:57:54.000Z</time>
      </trkpt>
      <trkpt lat="44.05189" lon="6.8419">
        <ele>966</ele>
        <time>2020-06-05T10:57:55.000Z</time>
      </trkpt>
      <trkpt lat="44.0519" lon="6.84191">
        <ele>966</ele>
        <time>2020-06-05T10:57:56.000Z</time>
      </trkpt>
      <trkpt lat="44.05191" lon="6.84192">
        <ele>966</ele>
        <time>2020-06-05T10:57:57.000Z</time>
      </trkpt>
      <trkpt lat="44.05192" lon="6.84193">
        <ele>966</ele>
        <time>2020-06-05T10:57:58.000Z</time>
      </trkpt>
      <trkpt lat="44.05192" lon="6.84194">
        <ele>966</ele>
        <time>2020-06-05T10:57:59.000Z</time>
      </trkpt>
      <trkpt lat="44.05193" lon="6.84194">
        <ele>966</ele>
        <time>2020-06-05T10:58:00.000Z</time>
      </trkpt>
      <trkpt lat="44.05194" lon="6.84195">
        <ele>966</ele>
        <time>2020-06-05T10:58:01.000Z</time>
      </trkpt>
      <trkpt lat="44.05194" lon="6.84195">
        <ele>966</ele>
        <time>2020-06-05T10:58:02.000Z</time>
      </trkpt>
      <trkpt lat="44.05195" lon="6.84196">
        <ele>966</ele>
        <time>2020-06-05T10:58:03.000Z</time>
      </trkpt>
      <trkpt lat="44.05196" lon="6.84196">
        <ele>966</ele>
        <time>2020-06-05T10:58:04.000Z</time>
      </trkpt>
      <trkpt lat="44.05197" lon="6.84197">
        <ele>966</ele>
        <time>2020-06-05T10:58:05.000Z</time>
      </trkpt>
      <trkpt lat="44.05198" lon="6.84197">
        <ele>966</ele>
        <time>2020-06-05T10:58:06.000Z</time>
      </trkpt>
      <trkpt lat="44.05199" lon="6.84198">
        <ele>966</ele>
        <time>2020-06-05T10:58:07.000Z</time>
      </trkpt>
      <trkpt lat="44.052" lon="6.84199">
        <ele>966</ele>
        <time>2020-06-05T10:58:08.000Z</time>
      </trkpt>
      <trkpt lat="44.05202" lon="6.84199">
        <ele>966</ele>
        <time>2020-06-05T10:58:09.000Z</time>
      </trkpt>
      <trkpt lat="44.05203" lon="6.842">
        <ele>966</ele>
        <time>2020-06-05T10:58:10.000Z</time>
      </trkpt>
      <trkpt lat="44.05204" lon="6.84201">
        <ele>966</ele>
        <time>2020-06-05T10:58:11.000Z</time>
      </trkpt>
      <trkpt lat="44.05205" lon="6.84201">
        <ele>966</ele>
        <time>2020-06-05T10:58:12.000Z</time>
      </trkpt>
      <trkpt lat="44.05206" lon="6.84202">
        <ele>966</ele>
        <time>2020-06-05T10:58:13.000Z</time>
      </trkpt>
      <trkpt lat="44.05207" lon="6.84203">
        <ele>966</ele>
        <time>2020-06-05T10:58:14.000Z</time>
      </trkpt>
      <trkpt lat="44.05208" lon="6.84203">
        <ele>966</ele>
        <time>2020-06-05T10:58:15.000Z</time>
      </trkpt>
      <trkpt lat="44.05209" lon="6.84204">
        <ele>966</ele>
        <time>2020-06-05T10:58:16.000Z</time>
      </trkpt>
      <trkpt lat="44.05209" lon="6.84205">
        <ele>966</ele>
        <time>2020-06-05T10:58:17.000Z</time>
      </trkpt>
      <trkpt lat="44.0521" lon="6.84206">
        <ele>966</ele>
        <time>2020-06-05T10:58:18.000Z</time>
      </trkpt>
      <trkpt lat="44.05211" lon="6.84207">
        <ele>966</ele>
        <time>2020-06-05T10:58:19.000Z</time>
      </trkpt>
      <trkpt lat="44.05211" lon="6.84208">
        <ele>966</ele>
        <time>2020-06-05T10:58:20.000Z</time>
      </trkpt>
      <trkpt lat="44.05212" lon="6.84209">
        <ele>966</ele>
        <time>2020-06-05T10:58:21.000Z</time>
      </trkpt>
      <trkpt lat="44.05212" lon="6.84211">
        <ele>966</ele>
        <time>2020-06-05T10:58:22.000Z</time>
      </trkpt>
      <trkpt lat="44.05212" lon="6.84212">
        <ele>966</ele>
        <time>2020-06-05T10:58:23.000Z</time>
      </trkpt>
      <trkpt lat="44.05212" lon="6.84214">
        <ele>966</ele>
        <time>2020-06-05T10:58:24.000Z</time>
      </trkpt>
      <trkpt lat="44.05212" lon="6.84216">
        <ele>967</ele>
        <time>2020-06-05T10:58:25.000Z</time>
      </trkpt>
      <trkpt lat="44.05212" lon="6.84217">
        <ele>967</ele>
        <time>2020-06-05T10:58:26.000Z</time>
      </trkpt>
      <trkpt lat="44.05212" lon="6.84219">
        <ele>967</ele>
        <time>2020-06-05T10:58:27.000Z</time>
      </trkpt>
      <trkpt lat="44.05212" lon="6.84221">
        <ele>967</ele>
        <time>2020-06-05T10:58:28.000Z</time>
      </trkpt>
      <trkpt lat="44.05213" lon="6.84222">
        <ele>967</ele>
        <time>2020-06-05T10:58:29.000Z</time>
      </trkpt>
      <trkpt lat="44.05213" lon="6.84224">
        <ele>967</ele>
        <time>2020-06-05T10:58:30.000Z</time>
      </trkpt>
      <trkpt lat="44.05213" lon="6.84225">
        <ele>967</ele>
        <time>2020-06-05T10:58:31.000Z</time>
      </trkpt>
      <trkpt lat="44.05214" lon="6.84227">
        <ele>967</ele>
        <time>2020-06-05T10:58:32.000Z</time>
      </trkpt>
      <trkpt lat="44.05214" lon="6.84228">
        <ele>968</ele>
        <time>2020-06-05T10:58:33.000Z</time>
      </trkpt>
      <trkpt lat="44.05215" lon="6.8423">
        <ele>968</ele>
        <time>2020-06-05T10:58:34.000Z</time>
      </trkpt>
      <trkpt lat="44.05215" lon="6.84231">
        <ele>968</ele>
        <time>2020-06-05T10:58:35.000Z</time>
      </trkpt>
      <trkpt lat="44.05216" lon="6.84233">
        <ele>968</ele>
        <time>2020-06-05T10:58:36.000Z</time>
      </trkpt>
      <trkpt lat="44.05216" lon="6.84234">
        <ele>968</ele>
        <time>2020-06-05T10:58:37.000Z</time>
      </trkpt>
      <trkpt lat="44.05217" lon="6.84236">
        <ele>968</ele>
        <time>2020-06-05T10:58:38.000Z</time>
      </trkpt>
      <trkpt lat="44.05218" lon="6.84237">
        <ele>968</ele>
        <time>2020-06-05T10:58:39.000Z</time>
      </trkpt>
      <trkpt lat="44.05218" lon="6.84238">
        <ele>968</ele>
        <time>2020-06-05T10:58:40.000Z</time>
      </trkpt>
      <trkpt lat="44.05219" lon="6.84239">
        <ele>968</ele>
        <time>2020-06-05T10:58:41.000Z</time>
      </trkpt>
      <trkpt lat="44.0522" lon="6.8424">
        <ele>968</ele>
        <time>2020-06-05T10:58:42.000Z</time>
      </trkpt>
      <trkpt lat="44.05221" lon="6.84241">
        <ele>968</ele>
        <time>2020-06-05T10:58:43.000Z</time>
      </trkpt>
      <trkpt lat="44.05221" lon="6.84242">
        <ele>968</ele>
        <time>2020-06-05T10:58:44.000Z</time>
      </trkpt>
      <trkpt lat="44.05222" lon="6.84243">
        <ele>968</ele>
        <time>2020-06-05T10:58:45.000Z</time>
      </trkpt>
      <trkpt lat="44.05223" lon="6.84244">
        <ele>968</ele>
        <time>2020-06-05T10:58:46.000Z</time>
      </trkpt>
      <trkpt lat="44.05223" lon="6.84244">
        <ele>968</ele>
        <time>2020-06-05T10:58:47.000Z</time>
      </trkpt>
      <trkpt lat="44.05224" lon="6.84245">
        <ele>968</ele>
        <time>2020-06-05T10:58:48.000Z</time>
      </trkpt>
      <trkpt lat="44.05224" lon="6.84246">
        <ele>968</ele>
        <time>2020-06-05T10:58:49.000Z</time>
      </trkpt>
      <trkpt lat="44.05225" lon="6.84246">
        <ele>968</ele>
        <time>2020-06-05T10:58:50.000Z</time>
      </trkpt>
      <trkpt lat="44.05226" lon="6.84247">
        <ele>968</ele>
        <time>2020-06-05T10:58:51.000Z</time>
      </trkpt>
      <trkpt lat="44.05227" lon="6.84247">
        <ele>968</ele>
        <time>2020-06-05T10:58:52.000Z</time>
      </trkpt>
      <trkpt lat="44.05228" lon="6.84247">
        <ele>968</ele>
        <time>2020-06-05T10:58:53.000Z</time>
      </trkpt>
      <trkpt lat="44.05228" lon="6.84248">
        <ele>968</ele>
        <time>2020-06-05T10:58:54.000Z</time>
      </trkpt>
      <trkpt lat="44.05229" lon="6.84248">
        <ele>967</ele>
        <time>2020-06-05T10:58:55.000Z</time>
      </trkpt>
      <trkpt lat="44.05229" lon="6.84248">
        <ele>967</ele>
        <time>2020-06-05T10:58:56.000Z</time>
      </trkpt>
      <trkpt lat="44.05229" lon="6.84248">
        <ele>967</ele>
        <time>2020-06-05T10:58:57.000Z</time>
      </trkpt>
      <trkpt lat="44.05229" lon="6.84248">
        <ele>967</ele>
        <time>2020-06-05T10:58:58.000Z</time>
      </trkpt>
      <trkpt lat="44.0523" lon="6.84248">
        <ele>967</ele>
        <time>2020-06-05T10:58:59.000Z</time>
      </trkpt>
      <trkpt lat="44.0523" lon="6.84248">
        <ele>967</ele>
        <time>2020-06-05T10:59:00.000Z</time>
      </trkpt>
      <trkpt lat="44.0523" lon="6.84248">
        <ele>967</ele>
        <time>2020-06-05T10:59:01.000Z</time>
      </trkpt>
      <trkpt lat="44.0523" lon="6.84248">
        <ele>967</ele>
        <time>2020-06-05T10:59:02.000Z</time>
      </trkpt>
      <trkpt lat="44.0523" lon="6.84248">
        <ele>967</ele>
        <time>2020-06-05T10:59:03.000Z</time>
      </trkpt>
      <trkpt lat="44.05231" lon="6.84248">
        <ele>967</ele>
        <time>2020-06-05T10:59:04.000Z</time>
      </trkpt>
      <trkpt lat="44.05231" lon="6.84249">
        <ele>967</ele>
        <time>2020-06-05T10:59:05.000Z</time>
      </trkpt>
      <trkpt lat="44.05232" lon="6.84249">
        <ele>967</ele>
        <time>2020-06-05T10:59:06.000Z</time>
      </trkpt>
      <trkpt lat="44.05232" lon="6.84249">
        <ele>967</ele>
        <time>2020-06-05T10:59:07.000Z</time>
      </trkpt>
      <trkpt lat="44.05233" lon="6.8425">
        <ele>967</ele>
        <time>2020-06-05T10:59:08.000Z</time>
      </trkpt>
      <trkpt lat="44.05234" lon="6.84251">
        <ele>967</ele>
        <time>2020-06-05T10:59:09.000Z</time>
      </trkpt>
      <trkpt lat="44.05235" lon="6.84251">
        <ele>967</ele>
        <time>2020-06-05T10:59:10.000Z</time>
      </trkpt>
      <trkpt lat="44.05236" lon="6.84252">
        <ele>967</ele>
        <time>2020-06-05T10:59:11.000Z</time>
      </trkpt>
      <trkpt lat="44.05237" lon="6.84252">
        <ele>967</ele>
        <time>2020-06-05T10:59:12.000Z</time>
      </trkpt>
      <trkpt lat="44.05238" lon="6.84253">
        <ele>967</ele>
        <time>2020-06-05T10:59:13.000Z</time>
      </trkpt>
      <trkpt lat="44.05238" lon="6.84253">
        <ele>967</ele>
        <time>2020-06-05T10:59:14.000Z</time>
      </trkpt>
      <trkpt lat="44.0524" lon="6.84254">
        <ele>966</ele>
        <time>2020-06-05T10:59:15.000Z</time>
      </trkpt>
      <trkpt lat="44.05241" lon="6.84255">
        <ele>966</ele>
        <time>2020-06-05T10:59:16.000Z</time>
      </trkpt>
      <trkpt lat="44.05242" lon="6.84255">
        <ele>966</ele>
        <time>2020-06-05T10:59:17.000Z</time>
      </trkpt>
      <trkpt lat="44.05243" lon="6.84256">
        <ele>966</ele>
        <time>2020-06-05T10:59:18.000Z</time>
      </trkpt>
      <trkpt lat="44.05244" lon="6.84256">
        <ele>966</ele>
        <time>2020-06-05T10:59:19.000Z</time>
      </trkpt>
      <trkpt lat="44.05245" lon="6.84256">
        <ele>966</ele>
        <time>2020-06-05T10:59:20.000Z</time>
      </trkpt>
      <trkpt lat="44.05246" lon="6.84256">
        <ele>966</ele>
        <time>2020-06-05T10:59:21.000Z</time>
      </trkpt>
      <trkpt lat="44.05247" lon="6.84257">
        <ele>966</ele>
        <time>2020-06-05T10:59:22.000Z</time>
      </trkpt>
      <trkpt lat="44.05249" lon="6.84258">
        <ele>966</ele>
        <time>2020-06-05T10:59:23.000Z</time>
      </trkpt>
      <trkpt lat="44.0525" lon="6.84258">
        <ele>965</ele>
        <time>2020-06-05T10:59:24.000Z</time>
      </trkpt>
      <trkpt lat="44.05251" lon="6.84258">
        <ele>965</ele>
        <time>2020-06-05T10:59:25.000Z</time>
      </trkpt>
      <trkpt lat="44.05252" lon="6.84259">
        <ele>965</ele>
        <time>2020-06-05T10:59:26.000Z</time>
      </trkpt>
      <trkpt lat="44.05253" lon="6.84259">
        <ele>965</ele>
        <time>2020-06-05T10:59:27.000Z</time>
      </trkpt>
      <trkpt lat="44.05255" lon="6.84259">
        <ele>964</ele>
        <time>2020-06-05T10:59:28.000Z</time>
      </trkpt>
      <trkpt lat="44.05256" lon="6.84259">
        <ele>964</ele>
        <time>2020-06-05T10:59:29.000Z</time>
      </trkpt>
      <trkpt lat="44.05257" lon="6.84259">
        <ele>964</ele>
        <time>2020-06-05T10:59:30.000Z</time>
      </trkpt>
      <trkpt lat="44.05258" lon="6.84258">
        <ele>964</ele>
        <time>2020-06-05T10:59:31.000Z</time>
      </trkpt>
      <trkpt lat="44.05258" lon="6.84257">
        <ele>964</ele>
        <time>2020-06-05T10:59:32.000Z</time>
      </trkpt>
      <trkpt lat="44.05259" lon="6.84256">
        <ele>964</ele>
        <time>2020-06-05T10:59:33.000Z</time>
      </trkpt>
      <trkpt lat="44.0526" lon="6.84255">
        <ele>964</ele>
        <time>2020-06-05T10:59:34.000Z</time>
      </trkpt>
      <trkpt lat="44.05261" lon="6.84255">
        <ele>964</ele>
        <time>2020-06-05T10:59:35.000Z</time>
      </trkpt>
      <trkpt lat="44.05262" lon="6.84254">
        <ele>964</ele>
        <time>2020-06-05T10:59:36.000Z</time>
      </trkpt>
      <trkpt lat="44.05263" lon="6.84253">
        <ele>964</ele>
        <time>2020-06-05T10:59:37.000Z</time>
      </trkpt>
      <trkpt lat="44.05263" lon="6.84253">
        <ele>964</ele>
        <time>2020-06-05T10:59:38.000Z</time>
      </trkpt>
      <trkpt lat="44.05265" lon="6.84252">
        <ele>964</ele>
        <time>2020-06-05T10:59:39.000Z</time>
      </trkpt>
      <trkpt lat="44.05266" lon="6.84251">
        <ele>964</ele>
        <time>2020-06-05T10:59:40.000Z</time>
      </trkpt>
      <trkpt lat="44.05267" lon="6.8425">
        <ele>964</ele>
        <time>2020-06-05T10:59:41.000Z</time>
      </trkpt>
      <trkpt lat="44.05268" lon="6.84249">
        <ele>964</ele>
        <time>2020-06-05T10:59:42.000Z</time>
      </trkpt>
      <trkpt lat="44.05269" lon="6.84249">
        <ele>964</ele>
        <time>2020-06-05T10:59:43.000Z</time>
      </trkpt>
      <trkpt lat="44.0527" lon="6.84248">
        <ele>964</ele>
        <time>2020-06-05T10:59:44.000Z</time>
      </trkpt>
      <trkpt lat="44.05271" lon="6.84248">
        <ele>964</ele>
        <time>2020-06-05T10:59:45.000Z</time>
      </trkpt>
      <trkpt lat="44.05272" lon="6.84247">
        <ele>964</ele>
        <time>2020-06-05T10:59:46.000Z</time>
      </trkpt>
      <trkpt lat="44.05273" lon="6.84246">
        <ele>964</ele>
        <time>2020-06-05T10:59:47.000Z</time>
      </trkpt>
      <trkpt lat="44.05275" lon="6.84246">
        <ele>964</ele>
        <time>2020-06-05T10:59:48.000Z</time>
      </trkpt>
      <trkpt lat="44.05276" lon="6.84246">
        <ele>964</ele>
        <time>2020-06-05T10:59:49.000Z</time>
      </trkpt>
      <trkpt lat="44.05277" lon="6.84246">
        <ele>964</ele>
        <time>2020-06-05T10:59:50.000Z</time>
      </trkpt>
      <trkpt lat="44.05278" lon="6.84247">
        <ele>964</ele>
        <time>2020-06-05T10:59:51.000Z</time>
      </trkpt>
      <trkpt lat="44.05279" lon="6.84247">
        <ele>964</ele>
        <time>2020-06-05T10:59:52.000Z</time>
      </trkpt>
      <trkpt lat="44.0528" lon="6.84248">
        <ele>964</ele>
        <time>2020-06-05T10:59:53.000Z</time>
      </trkpt>
      <trkpt lat="44.05282" lon="6.84248">
        <ele>964</ele>
        <time>2020-06-05T10:59:54.000Z</time>
      </trkpt>
      <trkpt lat="44.05283" lon="6.84248">
        <ele>964</ele>
        <time>2020-06-05T10:59:55.000Z</time>
      </trkpt>
      <trkpt lat="44.05283" lon="6.84248">
        <ele>964</ele>
        <time>2020-06-05T10:59:56.000Z</time>
      </trkpt>
      <trkpt lat="44.05284" lon="6.84248">
        <ele>964</ele>
        <time>2020-06-05T10:59:57.000Z</time>
      </trkpt>
      <trkpt lat="44.05285" lon="6.84248">
        <ele>964</ele>
        <time>2020-06-05T10:59:58.000Z</time>
      </trkpt>
      <trkpt lat="44.05286" lon="6.84247">
        <ele>964</ele>
        <time>2020-06-05T10:59:59.000Z</time>
      </trkpt>
      <trkpt lat="44.05288" lon="6.84247">
        <ele>964</ele>
        <time>2020-06-05T11:00:00.000Z</time>
      </trkpt>
      <trkpt lat="44.05289" lon="6.84247">
        <ele>964</ele>
        <time>2020-06-05T11:00:01.000Z</time>
      </trkpt>
      <trkpt lat="44.05289" lon="6.84247">
        <ele>964</ele>
        <time>2020-06-05T11:00:02.000Z</time>
      </trkpt>
      <trkpt lat="44.0529" lon="6.84247">
        <ele>964</ele>
        <time>2020-06-05T11:00:03.000Z</time>
      </trkpt>
      <trkpt lat="44.05291" lon="6.84246">
        <ele>964</ele>
        <time>2020-06-05T11:00:04.000Z</time>
      </trkpt>
      <trkpt lat="44.05292" lon="6.84246">
        <ele>964</ele>
        <time>2020-06-05T11:00:05.000Z</time>
      </trkpt>
      <trkpt lat="44.05293" lon="6.84245">
        <ele>964</ele>
        <time>2020-06-05T11:00:06.000Z</time>
      </trkpt>
      <trkpt lat="44.05294" lon="6.84245">
        <ele>964</ele>
        <time>2020-06-05T11:00:07.000Z</time>
      </trkpt>
      <trkpt lat="44.05295" lon="6.84244">
        <ele>964</ele>
        <time>2020-06-05T11:00:08.000Z</time>
      </trkpt>
      <trkpt lat="44.05295" lon="6.84244">
        <ele>964</ele>
        <time>2020-06-05T11:00:09.000Z</time>
      </trkpt>
      <trkpt lat="44.05296" lon="6.84243">
        <ele>964</ele>
        <time>2020-06-05T11:00:10.000Z</time>
      </trkpt>
      <trkpt lat="44.05297" lon="6.84242">
        <ele>964</ele>
        <time>2020-06-05T11:00:11.000Z</time>
      </trkpt>
      <trkpt lat="44.05297" lon="6.84241">
        <ele>964</ele>
        <time>2020-06-05T11:00:12.000Z</time>
      </trkpt>
      <trkpt lat="44.05298" lon="6.8424">
        <ele>964</ele>
        <time>2020-06-05T11:00:13.000Z</time>
      </trkpt>
      <trkpt lat="44.05299" lon="6.84239">
        <ele>964</ele>
        <time>2020-06-05T11:00:14.000Z</time>
      </trkpt>
      <trkpt lat="44.053" lon="6.84238">
        <ele>964</ele>
        <time>2020-06-05T11:00:15.000Z</time>
      </trkpt>
      <trkpt lat="44.05302" lon="6.84238">
        <ele>965</ele>
        <time>2020-06-05T11:00:16.000Z</time>
      </trkpt>
      <trkpt lat="44.05303" lon="6.84237">
        <ele>965</ele>
        <time>2020-06-05T11:00:17.000Z</time>
      </trkpt>
      <trkpt lat="44.05304" lon="6.84236">
        <ele>965</ele>
        <time>2020-06-05T11:00:18.000Z</time>
      </trkpt>
      <trkpt lat="44.05305" lon="6.84237">
        <ele>965</ele>
        <time>2020-06-05T11:00:19.000Z</time>
      </trkpt>
      <trkpt lat="44.05306" lon="6.84237">
        <ele>965</ele>
        <time>2020-06-05T11:00:20.000Z</time>
      </trkpt>
      <trkpt lat="44.05307" lon="6.84237">
        <ele>965</ele>
        <time>2020-06-05T11:00:21.000Z</time>
      </trkpt>
      <trkpt lat="44.05308" lon="6.84237">
        <ele>965</ele>
        <time>2020-06-05T11:00:22.000Z</time>
      </trkpt>
      <trkpt lat="44.05308" lon="6.84236">
        <ele>965</ele>
        <time>2020-06-05T11:00:23.000Z</time>
      </trkpt>
      <trkpt lat="44.05309" lon="6.84236">
        <ele>965</ele>
        <time>2020-06-05T11:00:24.000Z</time>
      </trkpt>
      <trkpt lat="44.0531" lon="6.84235">
        <ele>964</ele>
        <time>2020-06-05T11:00:25.000Z</time>
      </trkpt>
      <trkpt lat="44.05311" lon="6.84235">
        <ele>964</ele>
        <time>2020-06-05T11:00:26.000Z</time>
      </trkpt>
      <trkpt lat="44.05312" lon="6.84234">
        <ele>964</ele>
        <time>2020-06-05T11:00:27.000Z</time>
      </trkpt>
      <trkpt lat="44.05313" lon="6.84234">
        <ele>964</ele>
        <time>2020-06-05T11:00:28.000Z</time>
      </trkpt>
      <trkpt lat="44.05313" lon="6.84233">
        <ele>964</ele>
        <time>2020-06-05T11:00:29.000Z</time>
      </trkpt>
      <trkpt lat="44.05314" lon="6.84232">
        <ele>964</ele>
        <time>2020-06-05T11:00:30.000Z</time>
      </trkpt>
      <trkpt lat="44.05314" lon="6.84232">
        <ele>964</ele>
        <time>2020-06-05T11:00:31.000Z</time>
      </trkpt>
      <trkpt lat="44.05315" lon="6.84232">
        <ele>964</ele>
        <time>2020-06-05T11:00:32.000Z</time>
      </trkpt>
      <trkpt lat="44.05315" lon="6.84232">
        <ele>964</ele>
        <time>2020-06-05T11:00:33.000Z</time>
      </trkpt>
      <trkpt lat="44.05315" lon="6.84232">
        <ele>964</ele>
        <time>2020-06-05T11:00:34.000Z</time>
      </trkpt>
      <trkpt lat="44.05315" lon="6.84231">
        <ele>963</ele>
        <time>2020-06-05T11:00:35.000Z</time>
      </trkpt>
      <trkpt lat="44.05316" lon="6.8423">
        <ele>963</ele>
        <time>2020-06-05T11:00:36.000Z</time>
      </trkpt>
      <trkpt lat="44.05317" lon="6.8423">
        <ele>963</ele>
        <time>2020-06-05T11:00:37.000Z</time>
      </trkpt>
      <trkpt lat="44.05317" lon="6.84229">
        <ele>963</ele>
        <time>2020-06-05T11:00:38.000Z</time>
      </trkpt>
      <trkpt lat="44.05318" lon="6.84228">
        <ele>963</ele>
        <time>2020-06-05T11:00:39.000Z</time>
      </trkpt>
      <trkpt lat="44.05319" lon="6.84228">
        <ele>963</ele>
        <time>2020-06-05T11:00:40.000Z</time>
      </trkpt>
      <trkpt lat="44.05319" lon="6.84228">
        <ele>963</ele>
        <time>2020-06-05T11:00:41.000Z</time>
      </trkpt>
      <trkpt lat="44.05319" lon="6.84228">
        <ele>963</ele>
        <time>2020-06-05T11:00:42.000Z</time>
      </trkpt>
      <trkpt lat="44.0532" lon="6.84228">
        <ele>962</ele>
        <time>2020-06-05T11:00:43.000Z</time>
      </trkpt>
      <trkpt lat="44.0532" lon="6.84227">
        <ele>962</ele>
        <time>2020-06-05T11:00:44.000Z</time>
      </trkpt>
      <trkpt lat="44.05321" lon="6.84227">
        <ele>962</ele>
        <time>2020-06-05T11:00:45.000Z</time>
      </trkpt>
      <trkpt lat="44.05322" lon="6.84226">
        <ele>962</ele>
        <time>2020-06-05T11:00:46.000Z</time>
      </trkpt>
      <trkpt lat="44.05322" lon="6.84226">
        <ele>962</ele>
        <time>2020-06-05T11:00:47.000Z</time>
      </trkpt>
      <trkpt lat="44.05323" lon="6.84225">
        <ele>962</ele>
        <time>2020-06-05T11:00:48.000Z</time>
      </trkpt>
      <trkpt lat="44.05324" lon="6.84224">
        <ele>962</ele>
        <time>2020-06-05T11:00:49.000Z</time>
      </trkpt>
      <trkpt lat="44.05325" lon="6.84223">
        <ele>962</ele>
        <time>2020-06-05T11:00:50.000Z</time>
      </trkpt>
      <trkpt lat="44.05326" lon="6.84222">
        <ele>962</ele>
        <time>2020-06-05T11:00:51.000Z</time>
      </trkpt>
      <trkpt lat="44.05327" lon="6.84221">
        <ele>962</ele>
        <time>2020-06-05T11:00:52.000Z</time>
      </trkpt>
      <trkpt lat="44.05328" lon="6.8422">
        <ele>962</ele>
        <time>2020-06-05T11:00:53.000Z</time>
      </trkpt>
      <trkpt lat="44.05329" lon="6.84219">
        <ele>963</ele>
        <time>2020-06-05T11:00:54.000Z</time>
      </trkpt>
      <trkpt lat="44.0533" lon="6.84218">
        <ele>963</ele>
        <time>2020-06-05T11:00:55.000Z</time>
      </trkpt>
      <trkpt lat="44.05332" lon="6.84217">
        <ele>963</ele>
        <time>2020-06-05T11:00:56.000Z</time>
      </trkpt>
      <trkpt lat="44.05333" lon="6.84216">
        <ele>963</ele>
        <time>2020-06-05T11:00:57.000Z</time>
      </trkpt>
      <trkpt lat="44.05333" lon="6.84215">
        <ele>963</ele>
        <time>2020-06-05T11:00:58.000Z</time>
      </trkpt>
      <trkpt lat="44.05334" lon="6.84214">
        <ele>963</ele>
        <time>2020-06-05T11:00:59.000Z</time>
      </trkpt>
      <trkpt lat="44.05335" lon="6.84213">
        <ele>963</ele>
        <time>2020-06-05T11:01:00.000Z</time>
      </trkpt>
      <trkpt lat="44.05336" lon="6.84212">
        <ele>963</ele>
        <time>2020-06-05T11:01:01.000Z</time>
      </trkpt>
      <trkpt lat="44.05337" lon="6.8421">
        <ele>963</ele>
        <time>2020-06-05T11:01:02.000Z</time>
      </trkpt>
      <trkpt lat="44.05338" lon="6.84209">
        <ele>963</ele>
        <time>2020-06-05T11:01:03.000Z</time>
      </trkpt>
      <trkpt lat="44.05339" lon="6.84208">
        <ele>963</ele>
        <time>2020-06-05T11:01:04.000Z</time>
      </trkpt>
      <trkpt lat="44.0534" lon="6.84207">
        <ele>963</ele>
        <time>2020-06-05T11:01:05.000Z</time>
      </trkpt>
      <trkpt lat="44.05341" lon="6.84206">
        <ele>963</ele>
        <time>2020-06-05T11:01:06.000Z</time>
      </trkpt>
      <trkpt lat="44.05342" lon="6.84205">
        <ele>963</ele>
        <time>2020-06-05T11:01:07.000Z</time>
      </trkpt>
      <trkpt lat="44.05344" lon="6.84204">
        <ele>963</ele>
        <time>2020-06-05T11:01:08.000Z</time>
      </trkpt>
      <trkpt lat="44.05345" lon="6.84203">
        <ele>963</ele>
        <time>2020-06-05T11:01:09.000Z</time>
      </trkpt>
      <trkpt lat="44.05346" lon="6.84202">
        <ele>963</ele>
        <time>2020-06-05T11:01:10.000Z</time>
      </trkpt>
      <trkpt lat="44.05347" lon="6.84201">
        <ele>963</ele>
        <time>2020-06-05T11:01:11.000Z</time>
      </trkpt>
      <trkpt lat="44.05348" lon="6.84199">
        <ele>963</ele>
        <time>2020-06-05T11:01:12.000Z</time>
      </trkpt>
      <trkpt lat="44.0535" lon="6.84198">
        <ele>963</ele>
        <time>2020-06-05T11:01:13.000Z</time>
      </trkpt>
      <trkpt lat="44.05351" lon="6.84197">
        <ele>963</ele>
        <time>2020-06-05T11:01:14.000Z</time>
      </trkpt>
      <trkpt lat="44.05352" lon="6.84196">
        <ele>963</ele>
        <time>2020-06-05T11:01:15.000Z</time>
      </trkpt>
      <trkpt lat="44.05354" lon="6.84195">
        <ele>963</ele>
        <time>2020-06-05T11:01:16.000Z</time>
      </trkpt>
      <trkpt lat="44.05355" lon="6.84193">
        <ele>963</ele>
        <time>2020-06-05T11:01:17.000Z</time>
      </trkpt>
      <trkpt lat="44.05356" lon="6.84192">
        <ele>963</ele>
        <time>2020-06-05T11:01:18.000Z</time>
      </trkpt>
      <trkpt lat="44.05357" lon="6.84191">
        <ele>963</ele>
        <time>2020-06-05T11:01:19.000Z</time>
      </trkpt>
      <trkpt lat="44.05358" lon="6.8419">
        <ele>963</ele>
        <time>2020-06-05T11:01:20.000Z</time>
      </trkpt>
      <trkpt lat="44.05359" lon="6.84188">
        <ele>963</ele>
        <time>2020-06-05T11:01:21.000Z</time>
      </trkpt>
      <trkpt lat="44.0536" lon="6.84188">
        <ele>963</ele>
        <time>2020-06-05T11:01:22.000Z</time>
      </trkpt>
      <trkpt lat="44.05361" lon="6.84187">
        <ele>963</ele>
        <time>2020-06-05T11:01:23.000Z</time>
      </trkpt>
      <trkpt lat="44.05362" lon="6.84186">
        <ele>963</ele>
        <time>2020-06-05T11:01:24.000Z</time>
      </trkpt>
      <trkpt lat="44.05363" lon="6.84185">
        <ele>964</ele>
        <time>2020-06-05T11:01:25.000Z</time>
      </trkpt>
      <trkpt lat="44.05364" lon="6.84185">
        <ele>964</ele>
        <time>2020-06-05T11:01:26.000Z</time>
      </trkpt>
      <trkpt lat="44.05365" lon="6.84184">
        <ele>964</ele>
        <time>2020-06-05T11:01:27.000Z</time>
      </trkpt>
      <trkpt lat="44.05366" lon="6.84183">
        <ele>964</ele>
        <time>2020-06-05T11:01:28.000Z</time>
      </trkpt>
      <trkpt lat="44.05366" lon="6.84183">
        <ele>964</ele>
        <time>2020-06-05T11:01:29.000Z</time>
      </trkpt>
      <trkpt lat="44.05367" lon="6.84182">
        <ele>964</ele>
        <time>2020-06-05T11:01:30.000Z</time>
      </trkpt>
      <trkpt lat="44.05368" lon="6.84182">
        <ele>964</ele>
        <time>2020-06-05T11:01:31.000Z</time>
      </trkpt>
      <trkpt lat="44.05368" lon="6.84182">
        <ele>964</ele>
        <time>2020-06-05T11:01:32.000Z</time>
      </trkpt>
      <trkpt lat="44.05369" lon="6.84182">
        <ele>964</ele>
        <time>2020-06-05T11:01:33.000Z</time>
      </trkpt>
      <trkpt lat="44.0537" lon="6.84183">
        <ele>964</ele>
        <time>2020-06-05T11:01:34.000Z</time>
      </trkpt>
      <trkpt lat="44.05371" lon="6.84184">
        <ele>964</ele>
        <time>2020-06-05T11:01:35.000Z</time>
      </trkpt>
      <trkpt lat="44.05372" lon="6.84185">
        <ele>965</ele>
        <time>2020-06-05T11:01:36.000Z</time>
      </trkpt>
      <trkpt lat="44.05373" lon="6.84186">
        <ele>965</ele>
        <time>2020-06-05T11:01:37.000Z</time>
      </trkpt>
      <trkpt lat="44.05374" lon="6.84187">
        <ele>965</ele>
        <time>2020-06-05T11:01:38.000Z</time>
      </trkpt>
      <trkpt lat="44.05374" lon="6.84187">
        <ele>965</ele>
        <time>2020-06-05T11:01:39.000Z</time>
      </trkpt>
      <trkpt lat="44.05375" lon="6.84188">
        <ele>965</ele>
        <time>2020-06-05T11:01:40.000Z</time>
      </trkpt>
      <trkpt lat="44.05376" lon="6.84189">
        <ele>965</ele>
        <time>2020-06-05T11:01:41.000Z</time>
      </trkpt>
      <trkpt lat="44.05378" lon="6.8419">
        <ele>965</ele>
        <time>2020-06-05T11:01:42.000Z</time>
      </trkpt>
      <trkpt lat="44.05378" lon="6.8419">
        <ele>965</ele>
        <time>2020-06-05T11:01:43.000Z</time>
      </trkpt>
      <trkpt lat="44.05379" lon="6.84191">
        <ele>966</ele>
        <time>2020-06-05T11:01:44.000Z</time>
      </trkpt>
      <trkpt lat="44.0538" lon="6.84192">
        <ele>966</ele>
        <time>2020-06-05T11:01:45.000Z</time>
      </trkpt>
      <trkpt lat="44.05382" lon="6.84192">
        <ele>966</ele>
        <time>2020-06-05T11:01:46.000Z</time>
      </trkpt>
      <trkpt lat="44.05383" lon="6.84193">
        <ele>966</ele>
        <time>2020-06-05T11:01:47.000Z</time>
      </trkpt>
      <trkpt lat="44.05384" lon="6.84193">
        <ele>966</ele>
        <time>2020-06-05T11:01:48.000Z</time>
      </trkpt>
      <trkpt lat="44.05385" lon="6.84194">
        <ele>966</ele>
        <time>2020-06-05T11:01:49.000Z</time>
      </trkpt>
      <trkpt lat="44.05386" lon="6.84194">
        <ele>966</ele>
        <time>2020-06-05T11:01:50.000Z</time>
      </trkpt>
      <trkpt lat="44.05387" lon="6.84195">
        <ele>966</ele>
        <time>2020-06-05T11:01:51.000Z</time>
      </trkpt>
      <trkpt lat="44.05388" lon="6.84195">
        <ele>966</ele>
        <time>2020-06-05T11:01:52.000Z</time>
      </trkpt>
      <trkpt lat="44.05389" lon="6.84196">
        <ele>966</ele>
        <time>2020-06-05T11:01:53.000Z</time>
      </trkpt>
      <trkpt lat="44.0539" lon="6.84196">
        <ele>966</ele>
        <time>2020-06-05T11:01:54.000Z</time>
      </trkpt>
      <trkpt lat="44.05391" lon="6.84196">
        <ele>965</ele>
        <time>2020-06-05T11:01:55.000Z</time>
      </trkpt>
      <trkpt lat="44.05391" lon="6.84197">
        <ele>965</ele>
        <time>2020-06-05T11:01:56.000Z</time>
      </trkpt>
      <trkpt lat="44.05392" lon="6.84197">
        <ele>965</ele>
        <time>2020-06-05T11:01:57.000Z</time>
      </trkpt>
      <trkpt lat="44.05393" lon="6.84197">
        <ele>966</ele>
        <time>2020-06-05T11:01:58.000Z</time>
      </trkpt>
      <trkpt lat="44.05393" lon="6.84197">
        <ele>966</ele>
        <time>2020-06-05T11:01:59.000Z</time>
      </trkpt>
      <trkpt lat="44.05393" lon="6.84197">
        <ele>966</ele>
        <time>2020-06-05T11:02:00.000Z</time>
      </trkpt>
      <trkpt lat="44.05394" lon="6.84197">
        <ele>966</ele>
        <time>2020-06-05T11:02:01.000Z</time>
      </trkpt>
      <trkpt lat="44.05394" lon="6.84197">
        <ele>966</ele>
        <time>2020-06-05T11:02:02.000Z</time>
      </trkpt>
      <trkpt lat="44.05394" lon="6.84197">
        <ele>966</ele>
        <time>2020-06-05T11:02:03.000Z</time>
      </trkpt>
      <trkpt lat="44.05394" lon="6.84197">
        <ele>966</ele>
        <time>2020-06-05T11:02:04.000Z</time>
      </trkpt>
      <trkpt lat="44.05395" lon="6.84197">
        <ele>966</ele>
        <time>2020-06-05T11:02:05.000Z</time>
      </trkpt>
      <trkpt lat="44.05395" lon="6.84196">
        <ele>966</ele>
        <time>2020-06-05T11:02:06.000Z</time>
      </trkpt>
      <trkpt lat="44.05395" lon="6.84196">
        <ele>966</ele>
        <time>2020-06-05T11:02:07.000Z</time>
      </trkpt>
      <trkpt lat="44.05395" lon="6.84196">
        <ele>966</ele>
        <time>2020-06-05T11:02:08.000Z</time>
      </trkpt>
      <trkpt lat="44.05396" lon="6.84196">
        <ele>966</ele>
        <time>2020-06-05T11:02:09.000Z</time>
      </trkpt>
      <trkpt lat="44.05396" lon="6.84196">
        <ele>966</ele>
        <time>2020-06-05T11:02:10.000Z</time>
      </trkpt>
      <trkpt lat="44.05396" lon="6.84196">
        <ele>967</ele>
        <time>2020-06-05T11:02:11.000Z</time>
      </trkpt>
      <trkpt lat="44.05397" lon="6.84196">
        <ele>967</ele>
        <time>2020-06-05T11:02:12.000Z</time>
      </trkpt>
      <trkpt lat="44.05397" lon="6.84196">
        <ele>967</ele>
        <time>2020-06-05T11:02:13.000Z</time>
      </trkpt>
      <trkpt lat="44.05397" lon="6.84196">
        <ele>967</ele>
        <time>2020-06-05T11:02:14.000Z</time>
      </trkpt>
      <trkpt lat="44.05397" lon="6.84196">
        <ele>967</ele>
        <time>2020-06-05T11:02:15.000Z</time>
      </trkpt>
      <trkpt lat="44.05397" lon="6.84196">
        <ele>967</ele>
        <time>2020-06-05T11:02:16.000Z</time>
      </trkpt>
      <trkpt lat="44.05398" lon="6.84196">
        <ele>967</ele>
        <time>2020-06-05T11:02:17.000Z</time>
      </trkpt>
      <trkpt lat="44.05398" lon="6.84196">
        <ele>967</ele>
        <time>2020-06-05T11:02:18.000Z</time>
      </trkpt>
      <trkpt lat="44.05398" lon="6.84196">
        <ele>967</ele>
        <time>2020-06-05T11:02:19.000Z</time>
      </trkpt>
      <trkpt lat="44.05398" lon="6.84196">
        <ele>967</ele>
        <time>2020-06-05T11:02:20.000Z</time>
      </trkpt>
      <trkpt lat="44.05398" lon="6.84196">
        <ele>967</ele>
        <time>2020-06-05T11:02:21.000Z</time>
      </trkpt>
      <trkpt lat="44.05398" lon="6.84196">
        <ele>967</ele>
        <time>2020-06-05T11:02:22.000Z</time>
      </trkpt>
      <trkpt lat="44.05398" lon="6.84196">
        <ele>967</ele>
        <time>2020-06-05T11:02:23.000Z</time>
      </trkpt>
      <trkpt lat="44.05398" lon="6.84196">
        <ele>968</ele>
        <time>2020-06-05T11:02:24.000Z</time>
      </trkpt>
      <trkpt lat="44.05398" lon="6.84196">
        <ele>968</ele>
        <time>2020-06-05T11:02:25.000Z</time>
      </trkpt>
      <trkpt lat="44.05398" lon="6.84196">
        <ele>968</ele>
        <time>2020-06-05T11:02:26.000Z</time>
      </trkpt>
      <trkpt lat="44.05398" lon="6.84196">
        <ele>968</ele>
        <time>2020-06-05T11:02:27.000Z</time>
      </trkpt>
      <trkpt lat="44.05399" lon="6.84196">
        <ele>968</ele>
        <time>2020-06-05T11:02:28.000Z</time>
      </trkpt>
      <trkpt lat="44.05399" lon="6.84196">
        <ele>968</ele>
        <time>2020-06-05T11:02:29.000Z</time>
      </trkpt>
      <trkpt lat="44.05399" lon="6.84196">
        <ele>968</ele>
        <time>2020-06-05T11:02:30.000Z</time>
      </trkpt>
      <trkpt lat="44.05399" lon="6.84196">
        <ele>968</ele>
        <time>2020-06-05T11:02:31.000Z</time>
      </trkpt>
      <trkpt lat="44.05399" lon="6.84196">
        <ele>968</ele>
        <time>2020-06-05T11:02:32.000Z</time>
      </trkpt>
      <trkpt lat="44.05399" lon="6.84196">
        <ele>968</ele>
        <time>2020-06-05T11:02:33.000Z</time>
      </trkpt>
      <trkpt lat="44.05399" lon="6.84196">
        <ele>968</ele>
        <time>2020-06-05T11:02:34.000Z</time>
      </trkpt>
      <trkpt lat="44.05399" lon="6.84196">
        <ele>968</ele>
        <time>2020-06-05T11:02:35.000Z</time>
      </trkpt>
      <trkpt lat="44.05399" lon="6.84196">
        <ele>968</ele>
        <time>2020-06-05T11:02:36.000Z</time>
      </trkpt>
      <trkpt lat="44.05399" lon="6.84196">
        <ele>968</ele>
        <time>2020-06-05T11:02:37.000Z</time>
      </trkpt>
      <trkpt lat="44.05399" lon="6.84196">
        <ele>968</ele>
        <time>2020-06-05T11:02:38.000Z</time>
      </trkpt>
      <trkpt lat="44.05399" lon="6.84196">
        <ele>968</ele>
        <time>2020-06-05T11:02:39.000Z</time>
      </trkpt>
      <trkpt lat="44.05399" lon="6.84196">
        <ele>968</ele>
        <time>2020-06-05T11:02:40.000Z</time>
      </trkpt>
      <trkpt lat="44.05399" lon="6.84195">
        <ele>968</ele>
        <time>2020-06-05T11:02:41.000Z</time>
      </trkpt>
      <trkpt lat="44.054" lon="6.84195">
        <ele>968</ele>
        <time>2020-06-05T11:02:42.000Z</time>
      </trkpt>
      <trkpt lat="44.054" lon="6.84195">
        <ele>968</ele>
        <time>2020-06-05T11:02:43.000Z</time>
      </trkpt>
      <trkpt lat="44.05401" lon="6.84195">
        <ele>968</ele>
        <time>2020-06-05T11:02:44.000Z</time>
      </trkpt>
      <trkpt lat="44.05402" lon="6.84195">
        <ele>968</ele>
        <time>2020-06-05T11:02:45.000Z</time>
      </trkpt>
      <trkpt lat="44.05403" lon="6.84196">
        <ele>968</ele>
        <time>2020-06-05T11:02:46.000Z</time>
      </trkpt>
      <trkpt lat="44.05404" lon="6.84196">
        <ele>968</ele>
        <time>2020-06-05T11:02:47.000Z</time>
      </trkpt>
      <trkpt lat="44.05405" lon="6.84197">
        <ele>968</ele>
        <time>2020-06-05T11:02:48.000Z</time>
      </trkpt>
      <trkpt lat="44.05406" lon="6.84198">
        <ele>968</ele>
        <time>2020-06-05T11:02:49.000Z</time>
      </trkpt>
      <trkpt lat="44.05406" lon="6.84198">
        <ele>968</ele>
        <time>2020-06-05T11:02:50.000Z</time>
      </trkpt>
      <trkpt lat="44.05407" lon="6.84199">
        <ele>968</ele>
        <time>2020-06-05T11:02:51.000Z</time>
      </trkpt>
      <trkpt lat="44.05408" lon="6.84199">
        <ele>968</ele>
        <time>2020-06-05T11:02:52.000Z</time>
      </trkpt>
      <trkpt lat="44.05408" lon="6.842">
        <ele>968</ele>
        <time>2020-06-05T11:02:53.000Z</time>
      </trkpt>
      <trkpt lat="44.05409" lon="6.84201">
        <ele>968</ele>
        <time>2020-06-05T11:02:54.000Z</time>
      </trkpt>
      <trkpt lat="44.05409" lon="6.84201">
        <ele>968</ele>
        <time>2020-06-05T11:02:55.000Z</time>
      </trkpt>
      <trkpt lat="44.05409" lon="6.84202">
        <ele>968</ele>
        <time>2020-06-05T11:02:56.000Z</time>
      </trkpt>
      <trkpt lat="44.05409" lon="6.84203">
        <ele>968</ele>
        <time>2020-06-05T11:02:57.000Z</time>
      </trkpt>
      <trkpt lat="44.05409" lon="6.84203">
        <ele>968</ele>
        <time>2020-06-05T11:02:58.000Z</time>
      </trkpt>
      <trkpt lat="44.05409" lon="6.84204">
        <ele>967</ele>
        <time>2020-06-05T11:02:59.000Z</time>
      </trkpt>
      <trkpt lat="44.05409" lon="6.84204">
        <ele>967</ele>
        <time>2020-06-05T11:03:00.000Z</time>
      </trkpt>
      <trkpt lat="44.05409" lon="6.84205">
        <ele>967</ele>
        <time>2020-06-05T11:03:01.000Z</time>
      </trkpt>
      <trkpt lat="44.05409" lon="6.84205">
        <ele>967</ele>
        <time>2020-06-05T11:03:02.000Z</time>
      </trkpt>
      <trkpt lat="44.05409" lon="6.84205">
        <ele>967</ele>
        <time>2020-06-05T11:03:03.000Z</time>
      </trkpt>
      <trkpt lat="44.05409" lon="6.84205">
        <ele>967</ele>
        <time>2020-06-05T11:03:04.000Z</time>
      </trkpt>
      <trkpt lat="44.05409" lon="6.84205">
        <ele>967</ele>
        <time>2020-06-05T11:03:05.000Z</time>
      </trkpt>
      <trkpt lat="44.05409" lon="6.84205">
        <ele>967</ele>
        <time>2020-06-05T11:03:06.000Z</time>
      </trkpt>
      <trkpt lat="44.05409" lon="6.84205">
        <ele>967</ele>
        <time>2020-06-05T11:03:07.000Z</time>
      </trkpt>
      <trkpt lat="44.05409" lon="6.84206">
        <ele>967</ele>
        <time>2020-06-05T11:03:08.000Z</time>
      </trkpt>
      <trkpt lat="44.05409" lon="6.84206">
        <ele>967</ele>
        <time>2020-06-05T11:03:09.000Z</time>
      </trkpt>
      <trkpt lat="44.05409" lon="6.84206">
        <ele>967</ele>
        <time>2020-06-05T11:03:10.000Z</time>
      </trkpt>
      <trkpt lat="44.05409" lon="6.84206">
        <ele>967</ele>
        <time>2020-06-05T11:03:11.000Z</time>
      </trkpt>
      <trkpt lat="44.05409" lon="6.84206">
        <ele>967</ele>
        <time>2020-06-05T11:03:12.000Z</time>
      </trkpt>
      <trkpt lat="44.05409" lon="6.84206">
        <ele>967</ele>
        <time>2020-06-05T11:03:13.000Z</time>
      </trkpt>
      <trkpt lat="44.05409" lon="6.84206">
        <ele>967</ele>
        <time>2020-06-05T11:03:14.000Z</time>
      </trkpt>
      <trkpt lat="44.05409" lon="6.84206">
        <ele>966</ele>
        <time>2020-06-05T11:03:15.000Z</time>
      </trkpt>
      <trkpt lat="44.05409" lon="6.84206">
        <ele>966</ele>
        <time>2020-06-05T11:03:16.000Z</time>
      </trkpt>
      <trkpt lat="44.05409" lon="6.84206">
        <ele>966</ele>
        <time>2020-06-05T11:03:17.000Z</time>
      </trkpt>
      <trkpt lat="44.05409" lon="6.84206">
        <ele>966</ele>
        <time>2020-06-05T11:03:18.000Z</time>
      </trkpt>
      <trkpt lat="44.05409" lon="6.84206">
        <ele>966</ele>
        <time>2020-06-05T11:03:19.000Z</time>
      </trkpt>
      <trkpt lat="44.05409" lon="6.84206">
        <ele>966</ele>
        <time>2020-06-05T11:03:20.000Z</time>
      </trkpt>
      <trkpt lat="44.05409" lon="6.84206">
        <ele>966</ele>
        <time>2020-06-05T11:03:21.000Z</time>
      </trkpt>
      <trkpt lat="44.05409" lon="6.84206">
        <ele>966</ele>
        <time>2020-06-05T11:03:22.000Z</time>
      </trkpt>
      <trkpt lat="44.05409" lon="6.84206">
        <ele>966</ele>
        <time>2020-06-05T11:03:23.000Z</time>
      </trkpt>
      <trkpt lat="44.05409" lon="6.84206">
        <ele>966</ele>
        <time>2020-06-05T11:03:24.000Z</time>
      </trkpt>
      <trkpt lat="44.05409" lon="6.84206">
        <ele>966</ele>
        <time>2020-06-05T11:03:25.000Z</time>
      </trkpt>
      <trkpt lat="44.05409" lon="6.84206">
        <ele>966</ele>
        <time>2020-06-05T11:03:26.000Z</time>
      </trkpt>
      <trkpt lat="44.05409" lon="6.84206">
        <ele>966</ele>
        <time>2020-06-05T11:03:27.000Z</time>
      </trkpt>
      <trkpt lat="44.05409" lon="6.84207">
        <ele>966</ele>
        <time>2020-06-05T11:03:28.000Z</time>
      </trkpt>
      <trkpt lat="44.05409" lon="6.84207">
        <ele>966</ele>
        <time>2020-06-05T11:03:29.000Z</time>
      </trkpt>
      <trkpt lat="44.05409" lon="6.84207">
        <ele>966</ele>
        <time>2020-06-05T11:03:30.000Z</time>
      </trkpt>
      <trkpt lat="44.05409" lon="6.84207">
        <ele>966</ele>
        <time>2020-06-05T11:03:31.000Z</time>
      </trkpt>
      <trkpt lat="44.05409" lon="6.84207">
        <ele>966</ele>
        <time>2020-06-05T11:03:32.000Z</time>
      </trkpt>
      <trkpt lat="44.05409" lon="6.84207">
        <ele>966</ele>
        <time>2020-06-05T11:03:33.000Z</time>
      </trkpt>
      <trkpt lat="44.05409" lon="6.84207">
        <ele>966</ele>
        <time>2020-06-05T11:03:34.000Z</time>
      </trkpt>
      <trkpt lat="44.05409" lon="6.84207">
        <ele>966</ele>
        <time>2020-06-05T11:03:35.000Z</time>
      </trkpt>
      <trkpt lat="44.05409" lon="6.84207">
        <ele>966</ele>
        <time>2020-06-05T11:03:36.000Z</time>
      </trkpt>
      <trkpt lat="44.05409" lon="6.84207">
        <ele>966</ele>
        <time>2020-06-05T11:03:37.000Z</time>
      </trkpt>
      <trkpt lat="44.05409" lon="6.84207">
        <ele>966</ele>
        <time>2020-06-05T11:03:38.000Z</time>
      </trkpt>
      <trkpt lat="44.05409" lon="6.84206">
        <ele>966</ele>
        <time>2020-06-05T11:03:39.000Z</time>
      </trkpt>
      <trkpt lat="44.05409" lon="6.84206">
        <ele>966</ele>
        <time>2020-06-05T11:03:40.000Z</time>
      </trkpt>
      <trkpt lat="44.05409" lon="6.84206">
        <ele>966</ele>
        <time>2020-06-05T11:03:41.000Z</time>
      </trkpt>
      <trkpt lat="44.05409" lon="6.84207">
        <ele>966</ele>
        <time>2020-06-05T11:03:42.000Z</time>
      </trkpt>
      <trkpt lat="44.05409" lon="6.84207">
        <ele>966</ele>
        <time>2020-06-05T11:03:43.000Z</time>
      </trkpt>
      <trkpt lat="44.05409" lon="6.84207">
        <ele>966</ele>
        <time>2020-06-05T11:03:44.000Z</time>
      </trkpt>
      <trkpt lat="44.05409" lon="6.84207">
        <ele>966</ele>
        <time>2020-06-05T11:03:45.000Z</time>
      </trkpt>
      <trkpt lat="44.05409" lon="6.84207">
        <ele>966</ele>
        <time>2020-06-05T11:03:46.000Z</time>
      </trkpt>
      <trkpt lat="44.05409" lon="6.84207">
        <ele>966</ele>
        <time>2020-06-05T11:03:47.000Z</time>
      </trkpt>
      <trkpt lat="44.05409" lon="6.84207">
        <ele>966</ele>
        <time>2020-06-05T11:03:48.000Z</time>
      </trkpt>
      <trkpt lat="44.0541" lon="6.84207">
        <ele>966</ele>
        <time>2020-06-05T11:03:49.000Z</time>
      </trkpt>
      <trkpt lat="44.0541" lon="6.84207">
        <ele>966</ele>
        <time>2020-06-05T11:03:50.000Z</time>
      </trkpt>
      <trkpt lat="44.0541" lon="6.84207">
        <ele>966</ele>
        <time>2020-06-05T11:03:51.000Z</time>
      </trkpt>
      <trkpt lat="44.0541" lon="6.84207">
        <ele>966</ele>
        <time>2020-06-05T11:03:52.000Z</time>
      </trkpt>
      <trkpt lat="44.0541" lon="6.84207">
        <ele>967</ele>
        <time>2020-06-05T11:03:53.000Z</time>
      </trkpt>
      <trkpt lat="44.0541" lon="6.84207">
        <ele>967</ele>
        <time>2020-06-05T11:03:54.000Z</time>
      </trkpt>
      <trkpt lat="44.0541" lon="6.84207">
        <ele>967</ele>
        <time>2020-06-05T11:03:55.000Z</time>
      </trkpt>
      <trkpt lat="44.0541" lon="6.84207">
        <ele>967</ele>
        <time>2020-06-05T11:03:56.000Z</time>
      </trkpt>
      <trkpt lat="44.0541" lon="6.84207">
        <ele>967</ele>
        <time>2020-06-05T11:03:57.000Z</time>
      </trkpt>
      <trkpt lat="44.0541" lon="6.84206">
        <ele>967</ele>
        <time>2020-06-05T11:03:58.000Z</time>
      </trkpt>
      <trkpt lat="44.0541" lon="6.84206">
        <ele>967</ele>
        <time>2020-06-05T11:03:59.000Z</time>
      </trkpt>
      <trkpt lat="44.0541" lon="6.84206">
        <ele>967</ele>
        <time>2020-06-05T11:04:00.000Z</time>
      </trkpt>
      <trkpt lat="44.0541" lon="6.84206">
        <ele>967</ele>
        <time>2020-06-05T11:04:01.000Z</time>
      </trkpt>
      <trkpt lat="44.0541" lon="6.84206">
        <ele>967</ele>
        <time>2020-06-05T11:04:02.000Z</time>
      </trkpt>
      <trkpt lat="44.0541" lon="6.84206">
        <ele>967</ele>
        <time>2020-06-05T11:04:03.000Z</time>
      </trkpt>
      <trkpt lat="44.0541" lon="6.84206">
        <ele>967</ele>
        <time>2020-06-05T11:04:04.000Z</time>
      </trkpt>
      <trkpt lat="44.0541" lon="6.84206">
        <ele>967</ele>
        <time>2020-06-05T11:04:05.000Z</time>
      </trkpt>
      <trkpt lat="44.0541" lon="6.84206">
        <ele>968</ele>
        <time>2020-06-05T11:04:06.000Z</time>
      </trkpt>
      <trkpt lat="44.0541" lon="6.84207">
        <ele>968</ele>
        <time>2020-06-05T11:04:07.000Z</time>
      </trkpt>
      <trkpt lat="44.0541" lon="6.84207">
        <ele>968</ele>
        <time>2020-06-05T11:04:08.000Z</time>
      </trkpt>
      <trkpt lat="44.0541" lon="6.84206">
        <ele>968</ele>
        <time>2020-06-05T11:04:09.000Z</time>
      </trkpt>
      <trkpt lat="44.0541" lon="6.84206">
        <ele>968</ele>
        <time>2020-06-05T11:04:10.000Z</time>
      </trkpt>
      <trkpt lat="44.05411" lon="6.84206">
        <ele>968</ele>
        <time>2020-06-05T11:04:11.000Z</time>
      </trkpt>
      <trkpt lat="44.05411" lon="6.84206">
        <ele>968</ele>
        <time>2020-06-05T11:04:12.000Z</time>
      </trkpt>
      <trkpt lat="44.05411" lon="6.84206">
        <ele>968</ele>
        <time>2020-06-05T11:04:13.000Z</time>
      </trkpt>
      <trkpt lat="44.05412" lon="6.84207">
        <ele>968</ele>
        <time>2020-06-05T11:04:14.000Z</time>
      </trkpt>
      <trkpt lat="44.05412" lon="6.84207">
        <ele>968</ele>
        <time>2020-06-05T11:04:15.000Z</time>
      </trkpt>
      <trkpt lat="44.05412" lon="6.84207">
        <ele>968</ele>
        <time>2020-06-05T11:04:16.000Z</time>
      </trkpt>
      <trkpt lat="44.05412" lon="6.84207">
        <ele>968</ele>
        <time>2020-06-05T11:04:17.000Z</time>
      </trkpt>
      <trkpt lat="44.05412" lon="6.84207">
        <ele>968</ele>
        <time>2020-06-05T11:04:18.000Z</time>
      </trkpt>
      <trkpt lat="44.05412" lon="6.84207">
        <ele>968</ele>
        <time>2020-06-05T11:04:19.000Z</time>
      </trkpt>
      <trkpt lat="44.05412" lon="6.84207">
        <ele>968</ele>
        <time>2020-06-05T11:04:20.000Z</time>
      </trkpt>
      <trkpt lat="44.05412" lon="6.84207">
        <ele>968</ele>
        <time>2020-06-05T11:04:21.000Z</time>
      </trkpt>
      <trkpt lat="44.05412" lon="6.84207">
        <ele>968</ele>
        <time>2020-06-05T11:04:22.000Z</time>
      </trkpt>
      <trkpt lat="44.05412" lon="6.84207">
        <ele>968</ele>
        <time>2020-06-05T11:04:23.000Z</time>
      </trkpt>
      <trkpt lat="44.05413" lon="6.84207">
        <ele>968</ele>
        <time>2020-06-05T11:04:24.000Z</time>
      </trkpt>
      <trkpt lat="44.05413" lon="6.84207">
        <ele>968</ele>
        <time>2020-06-05T11:04:25.000Z</time>
      </trkpt>
      <trkpt lat="44.05413" lon="6.84208">
        <ele>968</ele>
        <time>2020-06-05T11:04:26.000Z</time>
      </trkpt>
      <trkpt lat="44.05413" lon="6.84208">
        <ele>968</ele>
        <time>2020-06-05T11:04:27.000Z</time>
      </trkpt>
      <trkpt lat="44.05413" lon="6.84208">
        <ele>968</ele>
        <time>2020-06-05T11:04:28.000Z</time>
      </trkpt>
      <trkpt lat="44.05413" lon="6.84207">
        <ele>968</ele>
        <time>2020-06-05T11:04:29.000Z</time>
      </trkpt>
      <trkpt lat="44.05413" lon="6.84207">
        <ele>968</ele>
        <time>2020-06-05T11:04:30.000Z</time>
      </trkpt>
      <trkpt lat="44.05414" lon="6.84207">
        <ele>968</ele>
        <time>2020-06-05T11:04:31.000Z</time>
      </trkpt>
      <trkpt lat="44.05414" lon="6.84207">
        <ele>968</ele>
        <time>2020-06-05T11:04:32.000Z</time>
      </trkpt>
      <trkpt lat="44.05414" lon="6.84207">
        <ele>968</ele>
        <time>2020-06-05T11:04:33.000Z</time>
      </trkpt>
      <trkpt lat="44.05414" lon="6.84207">
        <ele>967</ele>
        <time>2020-06-05T11:04:34.000Z</time>
      </trkpt>
      <trkpt lat="44.05414" lon="6.84207">
        <ele>967</ele>
        <time>2020-06-05T11:04:35.000Z</time>
      </trkpt>
      <trkpt lat="44.05414" lon="6.84207">
        <ele>967</ele>
        <time>2020-06-05T11:04:36.000Z</time>
      </trkpt>
      <trkpt lat="44.05414" lon="6.84207">
        <ele>967</ele>
        <time>2020-06-05T11:04:37.000Z</time>
      </trkpt>
      <trkpt lat="44.05414" lon="6.84207">
        <ele>967</ele>
        <time>2020-06-05T11:04:38.000Z</time>
      </trkpt>
      <trkpt lat="44.05414" lon="6.84207">
        <ele>967</ele>
        <time>2020-06-05T11:04:39.000Z</time>
      </trkpt>
      <trkpt lat="44.05414" lon="6.84207">
        <ele>967</ele>
        <time>2020-06-05T11:04:40.000Z</time>
      </trkpt>
      <trkpt lat="44.05414" lon="6.84208">
        <ele>967</ele>
        <time>2020-06-05T11:04:41.000Z</time>
      </trkpt>
      <trkpt lat="44.05414" lon="6.84208">
        <ele>967</ele>
        <time>2020-06-05T11:04:42.000Z</time>
      </trkpt>
      <trkpt lat="44.05414" lon="6.84207">
        <ele>967</ele>
        <time>2020-06-05T11:04:43.000Z</time>
      </trkpt>
      <trkpt lat="44.05414" lon="6.84207">
        <ele>967</ele>
        <time>2020-06-05T11:04:44.000Z</time>
      </trkpt>
      <trkpt lat="44.05414" lon="6.84208">
        <ele>967</ele>
        <time>2020-06-05T11:04:45.000Z</time>
      </trkpt>
      <trkpt lat="44.05415" lon="6.84208">
        <ele>967</ele>
        <time>2020-06-05T11:04:46.000Z</time>
      </trkpt>
      <trkpt lat="44.05415" lon="6.84208">
        <ele>967</ele>
        <time>2020-06-05T11:04:47.000Z</time>
      </trkpt>
      <trkpt lat="44.05415" lon="6.84208">
        <ele>967</ele>
        <time>2020-06-05T11:04:48.000Z</time>
      </trkpt>
      <trkpt lat="44.05415" lon="6.84208">
        <ele>967</ele>
        <time>2020-06-05T11:04:49.000Z</time>
      </trkpt>
      <trkpt lat="44.05415" lon="6.84208">
        <ele>967</ele>
        <time>2020-06-05T11:04:50.000Z</time>
      </trkpt>
      <trkpt lat="44.05415" lon="6.84208">
        <ele>967</ele>
        <time>2020-06-05T11:04:51.000Z</time>
      </trkpt>
      <trkpt lat="44.05415" lon="6.84208">
        <ele>967</ele>
        <time>2020-06-05T11:04:52.000Z</time>
      </trkpt>
      <trkpt lat="44.05415" lon="6.84208">
        <ele>967</ele>
        <time>2020-06-05T11:04:53.000Z</time>
      </trkpt>
      <trkpt lat="44.05415" lon="6.84208">
        <ele>967</ele>
        <time>2020-06-05T11:04:54.000Z</time>
      </trkpt>
      <trkpt lat="44.05416" lon="6.84208">
        <ele>967</ele>
        <time>2020-06-05T11:04:55.000Z</time>
      </trkpt>
      <trkpt lat="44.05416" lon="6.84208">
        <ele>967</ele>
        <time>2020-06-05T11:04:56.000Z</time>
      </trkpt>
      <trkpt lat="44.05416" lon="6.84208">
        <ele>968</ele>
        <time>2020-06-05T11:04:57.000Z</time>
      </trkpt>
      <trkpt lat="44.05416" lon="6.84208">
        <ele>968</ele>
        <time>2020-06-05T11:04:58.000Z</time>
      </trkpt>
      <trkpt lat="44.05416" lon="6.84208">
        <ele>968</ele>
        <time>2020-06-05T11:04:59.000Z</time>
      </trkpt>
      <trkpt lat="44.05416" lon="6.84208">
        <ele>968</ele>
        <time>2020-06-05T11:05:00.000Z</time>
      </trkpt>
      <trkpt lat="44.05416" lon="6.84208">
        <ele>968</ele>
        <time>2020-06-05T11:05:01.000Z</time>
      </trkpt>
      <trkpt lat="44.05416" lon="6.84208">
        <ele>968</ele>
        <time>2020-06-05T11:05:02.000Z</time>
      </trkpt>
      <trkpt lat="44.05416" lon="6.84208">
        <ele>968</ele>
        <time>2020-06-05T11:05:03.000Z</time>
      </trkpt>
      <trkpt lat="44.05416" lon="6.84208">
        <ele>968</ele>
        <time>2020-06-05T11:05:04.000Z</time>
      </trkpt>
      <trkpt lat="44.05416" lon="6.84208">
        <ele>968</ele>
        <time>2020-06-05T11:05:05.000Z</time>
      </trkpt>
      <trkpt lat="44.05416" lon="6.84208">
        <ele>968</ele>
        <time>2020-06-05T11:05:06.000Z</time>
      </trkpt>
      <trkpt lat="44.05416" lon="6.84208">
        <ele>968</ele>
        <time>2020-06-05T11:05:07.000Z</time>
      </trkpt>
      <trkpt lat="44.05416" lon="6.84208">
        <ele>968</ele>
        <time>2020-06-05T11:05:08.000Z</time>
      </trkpt>
      <trkpt lat="44.05416" lon="6.84208">
        <ele>968</ele>
        <time>2020-06-05T11:05:09.000Z</time>
      </trkpt>
      <trkpt lat="44.05416" lon="6.84208">
        <ele>968</ele>
        <time>2020-06-05T11:05:10.000Z</time>
      </trkpt>
      <trkpt lat="44.05417" lon="6.84208">
        <ele>968</ele>
        <time>2020-06-05T11:05:11.000Z</time>
      </trkpt>
      <trkpt lat="44.05417" lon="6.84208">
        <ele>968</ele>
        <time>2020-06-05T11:05:12.000Z</time>
      </trkpt>
      <trkpt lat="44.05417" lon="6.84207">
        <ele>968</ele>
        <time>2020-06-05T11:05:13.000Z</time>
      </trkpt>
      <trkpt lat="44.05418" lon="6.84207">
        <ele>968</ele>
        <time>2020-06-05T11:05:14.000Z</time>
      </trkpt>
      <trkpt lat="44.05418" lon="6.84207">
        <ele>968</ele>
        <time>2020-06-05T11:05:15.000Z</time>
      </trkpt>
      <trkpt lat="44.05419" lon="6.84207">
        <ele>968</ele>
        <time>2020-06-05T11:05:16.000Z</time>
      </trkpt>
      <trkpt lat="44.05419" lon="6.84206">
        <ele>968</ele>
        <time>2020-06-05T11:05:17.000Z</time>
      </trkpt>
      <trkpt lat="44.0542" lon="6.84206">
        <ele>968</ele>
        <time>2020-06-05T11:05:18.000Z</time>
      </trkpt>
      <trkpt lat="44.05421" lon="6.84206">
        <ele>968</ele>
        <time>2020-06-05T11:05:19.000Z</time>
      </trkpt>
      <trkpt lat="44.05422" lon="6.84206">
        <ele>968</ele>
        <time>2020-06-05T11:05:20.000Z</time>
      </trkpt>
      <trkpt lat="44.05423" lon="6.84206">
        <ele>968</ele>
        <time>2020-06-05T11:05:21.000Z</time>
      </trkpt>
      <trkpt lat="44.05424" lon="6.84206">
        <ele>968</ele>
        <time>2020-06-05T11:05:22.000Z</time>
      </trkpt>
      <trkpt lat="44.05425" lon="6.84207">
        <ele>968</ele>
        <time>2020-06-05T11:05:23.000Z</time>
      </trkpt>
      <trkpt lat="44.05426" lon="6.84207">
        <ele>968</ele>
        <time>2020-06-05T11:05:24.000Z</time>
      </trkpt>
      <trkpt lat="44.05427" lon="6.84208">
        <ele>968</ele>
        <time>2020-06-05T11:05:25.000Z</time>
      </trkpt>
      <trkpt lat="44.05428" lon="6.84209">
        <ele>968</ele>
        <time>2020-06-05T11:05:26.000Z</time>
      </trkpt>
      <trkpt lat="44.05429" lon="6.8421">
        <ele>968</ele>
        <time>2020-06-05T11:05:27.000Z</time>
      </trkpt>
      <trkpt lat="44.0543" lon="6.84211">
        <ele>968</ele>
        <time>2020-06-05T11:05:28.000Z</time>
      </trkpt>
      <trkpt lat="44.0543" lon="6.84212">
        <ele>968</ele>
        <time>2020-06-05T11:05:29.000Z</time>
      </trkpt>
      <trkpt lat="44.05431" lon="6.84213">
        <ele>968</ele>
        <time>2020-06-05T11:05:30.000Z</time>
      </trkpt>
      <trkpt lat="44.05431" lon="6.84214">
        <ele>968</ele>
        <time>2020-06-05T11:05:31.000Z</time>
      </trkpt>
      <trkpt lat="44.05432" lon="6.84216">
        <ele>968</ele>
        <time>2020-06-05T11:05:32.000Z</time>
      </trkpt>
      <trkpt lat="44.05432" lon="6.84217">
        <ele>967</ele>
        <time>2020-06-05T11:05:33.000Z</time>
      </trkpt>
      <trkpt lat="44.05433" lon="6.84218">
        <ele>967</ele>
        <time>2020-06-05T11:05:34.000Z</time>
      </trkpt>
      <trkpt lat="44.05433" lon="6.8422">
        <ele>967</ele>
        <time>2020-06-05T11:05:35.000Z</time>
      </trkpt>
      <trkpt lat="44.05434" lon="6.84221">
        <ele>967</ele>
        <time>2020-06-05T11:05:36.000Z</time>
      </trkpt>
      <trkpt lat="44.05434" lon="6.84223">
        <ele>967</ele>
        <time>2020-06-05T11:05:37.000Z</time>
      </trkpt>
      <trkpt lat="44.05435" lon="6.84224">
        <ele>967</ele>
        <time>2020-06-05T11:05:38.000Z</time>
      </trkpt>
      <trkpt lat="44.05436" lon="6.84225">
        <ele>967</ele>
        <time>2020-06-05T11:05:39.000Z</time>
      </trkpt>
      <trkpt lat="44.05436" lon="6.84226">
        <ele>967</ele>
        <time>2020-06-05T11:05:40.000Z</time>
      </trkpt>
      <trkpt lat="44.05437" lon="6.84226">
        <ele>967</ele>
        <time>2020-06-05T11:05:41.000Z</time>
      </trkpt>
      <trkpt lat="44.05438" lon="6.84227">
        <ele>967</ele>
        <time>2020-06-05T11:05:42.000Z</time>
      </trkpt>
      <trkpt lat="44.05438" lon="6.84228">
        <ele>967</ele>
        <time>2020-06-05T11:05:43.000Z</time>
      </trkpt>
      <trkpt lat="44.05439" lon="6.84229">
        <ele>967</ele>
        <time>2020-06-05T11:05:44.000Z</time>
      </trkpt>
      <trkpt lat="44.0544" lon="6.84229">
        <ele>967</ele>
        <time>2020-06-05T11:05:45.000Z</time>
      </trkpt>
      <trkpt lat="44.05441" lon="6.84229">
        <ele>967</ele>
        <time>2020-06-05T11:05:46.000Z</time>
      </trkpt>
      <trkpt lat="44.05442" lon="6.84229">
        <ele>967</ele>
        <time>2020-06-05T11:05:47.000Z</time>
      </trkpt>
      <trkpt lat="44.05443" lon="6.84229">
        <ele>966</ele>
        <time>2020-06-05T11:05:48.000Z</time>
      </trkpt>
      <trkpt lat="44.05444" lon="6.84229">
        <ele>966</ele>
        <time>2020-06-05T11:05:49.000Z</time>
      </trkpt>
      <trkpt lat="44.05444" lon="6.84229">
        <ele>966</ele>
        <time>2020-06-05T11:05:50.000Z</time>
      </trkpt>
      <trkpt lat="44.05445" lon="6.84229">
        <ele>966</ele>
        <time>2020-06-05T11:05:51.000Z</time>
      </trkpt>
      <trkpt lat="44.05446" lon="6.84229">
        <ele>966</ele>
        <time>2020-06-05T11:05:52.000Z</time>
      </trkpt>
      <trkpt lat="44.05446" lon="6.84229">
        <ele>966</ele>
        <time>2020-06-05T11:05:53.000Z</time>
      </trkpt>
      <trkpt lat="44.05447" lon="6.84229">
        <ele>966</ele>
        <time>2020-06-05T11:05:54.000Z</time>
      </trkpt>
      <trkpt lat="44.05448" lon="6.84229">
        <ele>966</ele>
        <time>2020-06-05T11:05:55.000Z</time>
      </trkpt>
      <trkpt lat="44.05448" lon="6.84229">
        <ele>966</ele>
        <time>2020-06-05T11:05:56.000Z</time>
      </trkpt>
      <trkpt lat="44.05449" lon="6.84229">
        <ele>966</ele>
        <time>2020-06-05T11:05:57.000Z</time>
      </trkpt>
      <trkpt lat="44.0545" lon="6.84228">
        <ele>966</ele>
        <time>2020-06-05T11:05:58.000Z</time>
      </trkpt>
      <trkpt lat="44.05451" lon="6.84228">
        <ele>966</ele>
        <time>2020-06-05T11:05:59.000Z</time>
      </trkpt>
      <trkpt lat="44.05451" lon="6.84228">
        <ele>966</ele>
        <time>2020-06-05T11:06:00.000Z</time>
      </trkpt>
      <trkpt lat="44.05452" lon="6.84228">
        <ele>966</ele>
        <time>2020-06-05T11:06:01.000Z</time>
      </trkpt>
      <trkpt lat="44.05452" lon="6.84227">
        <ele>966</ele>
        <time>2020-06-05T11:06:02.000Z</time>
      </trkpt>
      <trkpt lat="44.05453" lon="6.84227">
        <ele>966</ele>
        <time>2020-06-05T11:06:03.000Z</time>
      </trkpt>
      <trkpt lat="44.05454" lon="6.84227">
        <ele>966</ele>
        <time>2020-06-05T11:06:04.000Z</time>
      </trkpt>
      <trkpt lat="44.05455" lon="6.84227">
        <ele>966</ele>
        <time>2020-06-05T11:06:05.000Z</time>
      </trkpt>
      <trkpt lat="44.05456" lon="6.84226">
        <ele>966</ele>
        <time>2020-06-05T11:06:06.000Z</time>
      </trkpt>
      <trkpt lat="44.05456" lon="6.84226">
        <ele>966</ele>
        <time>2020-06-05T11:06:07.000Z</time>
      </trkpt>
      <trkpt lat="44.05457" lon="6.84226">
        <ele>966</ele>
        <time>2020-06-05T11:06:08.000Z</time>
      </trkpt>
      <trkpt lat="44.05458" lon="6.84226">
        <ele>966</ele>
        <time>2020-06-05T11:06:09.000Z</time>
      </trkpt>
      <trkpt lat="44.05458" lon="6.84226">
        <ele>966</ele>
        <time>2020-06-05T11:06:10.000Z</time>
      </trkpt>
      <trkpt lat="44.05458" lon="6.84225">
        <ele>966</ele>
        <time>2020-06-05T11:06:11.000Z</time>
      </trkpt>
      <trkpt lat="44.05459" lon="6.84225">
        <ele>966</ele>
        <time>2020-06-05T11:06:12.000Z</time>
      </trkpt>
      <trkpt lat="44.05459" lon="6.84225">
        <ele>966</ele>
        <time>2020-06-05T11:06:13.000Z</time>
      </trkpt>
      <trkpt lat="44.05458" lon="6.84224">
        <ele>966</ele>
        <time>2020-06-05T11:06:14.000Z</time>
      </trkpt>
      <trkpt lat="44.05458" lon="6.84224">
        <ele>966</ele>
        <time>2020-06-05T11:06:15.000Z</time>
      </trkpt>
      <trkpt lat="44.05458" lon="6.84223">
        <ele>966</ele>
        <time>2020-06-05T11:06:16.000Z</time>
      </trkpt>
      <trkpt lat="44.05457" lon="6.84223">
        <ele>966</ele>
        <time>2020-06-05T11:06:17.000Z</time>
      </trkpt>
      <trkpt lat="44.05457" lon="6.84222">
        <ele>966</ele>
        <time>2020-06-05T11:06:18.000Z</time>
      </trkpt>
      <trkpt lat="44.05457" lon="6.84222">
        <ele>966</ele>
        <time>2020-06-05T11:06:19.000Z</time>
      </trkpt>
      <trkpt lat="44.05456" lon="6.84221">
        <ele>967</ele>
        <time>2020-06-05T11:06:20.000Z</time>
      </trkpt>
      <trkpt lat="44.05456" lon="6.84221">
        <ele>967</ele>
        <time>2020-06-05T11:06:21.000Z</time>
      </trkpt>
      <trkpt lat="44.05456" lon="6.8422">
        <ele>967</ele>
        <time>2020-06-05T11:06:22.000Z</time>
      </trkpt>
      <trkpt lat="44.05455" lon="6.8422">
        <ele>967</ele>
        <time>2020-06-05T11:06:23.000Z</time>
      </trkpt>
      <trkpt lat="44.05455" lon="6.84219">
        <ele>967</ele>
        <time>2020-06-05T11:06:24.000Z</time>
      </trkpt>
      <trkpt lat="44.05455" lon="6.84219">
        <ele>967</ele>
        <time>2020-06-05T11:06:25.000Z</time>
      </trkpt>
      <trkpt lat="44.05455" lon="6.84218">
        <ele>967</ele>
        <time>2020-06-05T11:06:26.000Z</time>
      </trkpt>
      <trkpt lat="44.05454" lon="6.84218">
        <ele>968</ele>
        <time>2020-06-05T11:06:27.000Z</time>
      </trkpt>
      <trkpt lat="44.05454" lon="6.84217">
        <ele>968</ele>
        <time>2020-06-05T11:06:28.000Z</time>
      </trkpt>
      <trkpt lat="44.05454" lon="6.84217">
        <ele>968</ele>
        <time>2020-06-05T11:06:29.000Z</time>
      </trkpt>
      <trkpt lat="44.05454" lon="6.84216">
        <ele>968</ele>
        <time>2020-06-05T11:06:30.000Z</time>
      </trkpt>
      <trkpt lat="44.05453" lon="6.84215">
        <ele>968</ele>
        <time>2020-06-05T11:06:31.000Z</time>
      </trkpt>
      <trkpt lat="44.05453" lon="6.84215">
        <ele>968</ele>
        <time>2020-06-05T11:06:32.000Z</time>
      </trkpt>
      <trkpt lat="44.05452" lon="6.84214">
        <ele>968</ele>
        <time>2020-06-05T11:06:33.000Z</time>
      </trkpt>
      <trkpt lat="44.05452" lon="6.84213">
        <ele>967</ele>
        <time>2020-06-05T11:06:34.000Z</time>
      </trkpt>
      <trkpt lat="44.05451" lon="6.84212">
        <ele>967</ele>
        <time>2020-06-05T11:06:35.000Z</time>
      </trkpt>
      <trkpt lat="44.05451" lon="6.84211">
        <ele>967</ele>
        <time>2020-06-05T11:06:36.000Z</time>
      </trkpt>
      <trkpt lat="44.0545" lon="6.84211">
        <ele>967</ele>
        <time>2020-06-05T11:06:37.000Z</time>
      </trkpt>
      <trkpt lat="44.0545" lon="6.8421">
        <ele>967</ele>
        <time>2020-06-05T11:06:38.000Z</time>
      </trkpt>
      <trkpt lat="44.0545" lon="6.84209">
        <ele>967</ele>
        <time>2020-06-05T11:06:39.000Z</time>
      </trkpt>
      <trkpt lat="44.05449" lon="6.84208">
        <ele>967</ele>
        <time>2020-06-05T11:06:40.000Z</time>
      </trkpt>
      <trkpt lat="44.05449" lon="6.84208">
        <ele>967</ele>
        <time>2020-06-05T11:06:41.000Z</time>
      </trkpt>
      <trkpt lat="44.05449" lon="6.84207">
        <ele>967</ele>
        <time>2020-06-05T11:06:42.000Z</time>
      </trkpt>
      <trkpt lat="44.05448" lon="6.84206">
        <ele>967</ele>
        <time>2020-06-05T11:06:43.000Z</time>
      </trkpt>
      <trkpt lat="44.05449" lon="6.84205">
        <ele>967</ele>
        <time>2020-06-05T11:06:44.000Z</time>
      </trkpt>
      <trkpt lat="44.05449" lon="6.84204">
        <ele>967</ele>
        <time>2020-06-05T11:06:45.000Z</time>
      </trkpt>
      <trkpt lat="44.05449" lon="6.84204">
        <ele>967</ele>
        <time>2020-06-05T11:06:46.000Z</time>
      </trkpt>
      <trkpt lat="44.0545" lon="6.84204">
        <ele>967</ele>
        <time>2020-06-05T11:06:47.000Z</time>
      </trkpt>
      <trkpt lat="44.05451" lon="6.84203">
        <ele>967</ele>
        <time>2020-06-05T11:06:48.000Z</time>
      </trkpt>
      <trkpt lat="44.05452" lon="6.84203">
        <ele>967</ele>
        <time>2020-06-05T11:06:49.000Z</time>
      </trkpt>
      <trkpt lat="44.05452" lon="6.84203">
        <ele>967</ele>
        <time>2020-06-05T11:06:50.000Z</time>
      </trkpt>
      <trkpt lat="44.05453" lon="6.84203">
        <ele>968</ele>
        <time>2020-06-05T11:06:51.000Z</time>
      </trkpt>
      <trkpt lat="44.05453" lon="6.84204">
        <ele>968</ele>
        <time>2020-06-05T11:06:52.000Z</time>
      </trkpt>
      <trkpt lat="44.05454" lon="6.84204">
        <ele>968</ele>
        <time>2020-06-05T11:06:53.000Z</time>
      </trkpt>
      <trkpt lat="44.05454" lon="6.84203">
        <ele>968</ele>
        <time>2020-06-05T11:06:54.000Z</time>
      </trkpt>
      <trkpt lat="44.05455" lon="6.84203">
        <ele>968</ele>
        <time>2020-06-05T11:06:55.000Z</time>
      </trkpt>
      <trkpt lat="44.05456" lon="6.84203">
        <ele>968</ele>
        <time>2020-06-05T11:06:56.000Z</time>
      </trkpt>
      <trkpt lat="44.05457" lon="6.84203">
        <ele>968</ele>
        <time>2020-06-05T11:06:57.000Z</time>
      </trkpt>
      <trkpt lat="44.05458" lon="6.84203">
        <ele>968</ele>
        <time>2020-06-05T11:06:58.000Z</time>
      </trkpt>
      <trkpt lat="44.05458" lon="6.84203">
        <ele>969</ele>
        <time>2020-06-05T11:06:59.000Z</time>
      </trkpt>
      <trkpt lat="44.05459" lon="6.84203">
        <ele>969</ele>
        <time>2020-06-05T11:07:00.000Z</time>
      </trkpt>
      <trkpt lat="44.05459" lon="6.84203">
        <ele>969</ele>
        <time>2020-06-05T11:07:01.000Z</time>
      </trkpt>
      <trkpt lat="44.0546" lon="6.84203">
        <ele>969</ele>
        <time>2020-06-05T11:07:02.000Z</time>
      </trkpt>
      <trkpt lat="44.05461" lon="6.84203">
        <ele>969</ele>
        <time>2020-06-05T11:07:03.000Z</time>
      </trkpt>
      <trkpt lat="44.05462" lon="6.84202">
        <ele>969</ele>
        <time>2020-06-05T11:07:04.000Z</time>
      </trkpt>
      <trkpt lat="44.05462" lon="6.84202">
        <ele>969</ele>
        <time>2020-06-05T11:07:05.000Z</time>
      </trkpt>
      <trkpt lat="44.05463" lon="6.84201">
        <ele>969</ele>
        <time>2020-06-05T11:07:06.000Z</time>
      </trkpt>
      <trkpt lat="44.05463" lon="6.84201">
        <ele>969</ele>
        <time>2020-06-05T11:07:07.000Z</time>
      </trkpt>
      <trkpt lat="44.05464" lon="6.84201">
        <ele>969</ele>
        <time>2020-06-05T11:07:08.000Z</time>
      </trkpt>
      <trkpt lat="44.05465" lon="6.842">
        <ele>969</ele>
        <time>2020-06-05T11:07:09.000Z</time>
      </trkpt>
      <trkpt lat="44.05466" lon="6.842">
        <ele>969</ele>
        <time>2020-06-05T11:07:10.000Z</time>
      </trkpt>
      <trkpt lat="44.05466" lon="6.842">
        <ele>969</ele>
        <time>2020-06-05T11:07:11.000Z</time>
      </trkpt>
      <trkpt lat="44.05467" lon="6.842">
        <ele>969</ele>
        <time>2020-06-05T11:07:12.000Z</time>
      </trkpt>
      <trkpt lat="44.05468" lon="6.842">
        <ele>969</ele>
        <time>2020-06-05T11:07:13.000Z</time>
      </trkpt>
      <trkpt lat="44.05468" lon="6.842">
        <ele>969</ele>
        <time>2020-06-05T11:07:14.000Z</time>
      </trkpt>
      <trkpt lat="44.05469" lon="6.842">
        <ele>970</ele>
        <time>2020-06-05T11:07:15.000Z</time>
      </trkpt>
      <trkpt lat="44.0547" lon="6.84199">
        <ele>970</ele>
        <time>2020-06-05T11:07:16.000Z</time>
      </trkpt>
      <trkpt lat="44.05471" lon="6.84199">
        <ele>970</ele>
        <time>2020-06-05T11:07:17.000Z</time>
      </trkpt>
      <trkpt lat="44.05472" lon="6.84199">
        <ele>970</ele>
        <time>2020-06-05T11:07:18.000Z</time>
      </trkpt>
      <trkpt lat="44.05472" lon="6.84198">
        <ele>970</ele>
        <time>2020-06-05T11:07:19.000Z</time>
      </trkpt>
      <trkpt lat="44.05473" lon="6.84199">
        <ele>971</ele>
        <time>2020-06-05T11:07:20.000Z</time>
      </trkpt>
      <trkpt lat="44.05474" lon="6.84199">
        <ele>971</ele>
        <time>2020-06-05T11:07:21.000Z</time>
      </trkpt>
      <trkpt lat="44.05474" lon="6.84199">
        <ele>971</ele>
        <time>2020-06-05T11:07:22.000Z</time>
      </trkpt>
      <trkpt lat="44.05475" lon="6.84199">
        <ele>972</ele>
        <time>2020-06-05T11:07:23.000Z</time>
      </trkpt>
      <trkpt lat="44.05476" lon="6.84199">
        <ele>972</ele>
        <time>2020-06-05T11:07:24.000Z</time>
      </trkpt>
      <trkpt lat="44.05476" lon="6.84199">
        <ele>972</ele>
        <time>2020-06-05T11:07:25.000Z</time>
      </trkpt>
      <trkpt lat="44.05476" lon="6.84199">
        <ele>972</ele>
        <time>2020-06-05T11:07:26.000Z</time>
      </trkpt>
      <trkpt lat="44.05476" lon="6.84199">
        <ele>973</ele>
        <time>2020-06-05T11:07:27.000Z</time>
      </trkpt>
      <trkpt lat="44.05477" lon="6.84199">
        <ele>973</ele>
        <time>2020-06-05T11:07:28.000Z</time>
      </trkpt>
      <trkpt lat="44.05477" lon="6.84199">
        <ele>973</ele>
        <time>2020-06-05T11:07:29.000Z</time>
      </trkpt>
      <trkpt lat="44.05477" lon="6.84199">
        <ele>973</ele>
        <time>2020-06-05T11:07:30.000Z</time>
      </trkpt>
      <trkpt lat="44.05477" lon="6.84199">
        <ele>973</ele>
        <time>2020-06-05T11:07:31.000Z</time>
      </trkpt>
      <trkpt lat="44.05477" lon="6.84199">
        <ele>973</ele>
        <time>2020-06-05T11:07:32.000Z</time>
      </trkpt>
      <trkpt lat="44.05477" lon="6.84199">
        <ele>973</ele>
        <time>2020-06-05T11:07:33.000Z</time>
      </trkpt>
      <trkpt lat="44.05477" lon="6.84199">
        <ele>973</ele>
        <time>2020-06-05T11:07:34.000Z</time>
      </trkpt>
      <trkpt lat="44.05477" lon="6.84198">
        <ele>974</ele>
        <time>2020-06-05T11:07:35.000Z</time>
      </trkpt>
      <trkpt lat="44.05478" lon="6.84199">
        <ele>974</ele>
        <time>2020-06-05T11:07:36.000Z</time>
      </trkpt>
      <trkpt lat="44.05479" lon="6.84199">
        <ele>974</ele>
        <time>2020-06-05T11:07:37.000Z</time>
      </trkpt>
      <trkpt lat="44.05479" lon="6.84199">
        <ele>974</ele>
        <time>2020-06-05T11:07:38.000Z</time>
      </trkpt>
      <trkpt lat="44.05479" lon="6.84199">
        <ele>974</ele>
        <time>2020-06-05T11:07:39.000Z</time>
      </trkpt>
      <trkpt lat="44.0548" lon="6.84199">
        <ele>974</ele>
        <time>2020-06-05T11:07:40.000Z</time>
      </trkpt>
      <trkpt lat="44.0548" lon="6.84199">
        <ele>974</ele>
        <time>2020-06-05T11:07:41.000Z</time>
      </trkpt>
      <trkpt lat="44.05481" lon="6.842">
        <ele>974</ele>
        <time>2020-06-05T11:07:42.000Z</time>
      </trkpt>
      <trkpt lat="44.05482" lon="6.842">
        <ele>975</ele>
        <time>2020-06-05T11:07:43.000Z</time>
      </trkpt>
      <trkpt lat="44.05482" lon="6.842">
        <ele>975</ele>
        <time>2020-06-05T11:07:44.000Z</time>
      </trkpt>
      <trkpt lat="44.05483" lon="6.84201">
        <ele>975</ele>
        <time>2020-06-05T11:07:45.000Z</time>
      </trkpt>
      <trkpt lat="44.05484" lon="6.84201">
        <ele>975</ele>
        <time>2020-06-05T11:07:46.000Z</time>
      </trkpt>
      <trkpt lat="44.05484" lon="6.84202">
        <ele>975</ele>
        <time>2020-06-05T11:07:47.000Z</time>
      </trkpt>
      <trkpt lat="44.05485" lon="6.84202">
        <ele>975</ele>
        <time>2020-06-05T11:07:48.000Z</time>
      </trkpt>
      <trkpt lat="44.05485" lon="6.84202">
        <ele>975</ele>
        <time>2020-06-05T11:07:49.000Z</time>
      </trkpt>
      <trkpt lat="44.05486" lon="6.84202">
        <ele>975</ele>
        <time>2020-06-05T11:07:50.000Z</time>
      </trkpt>
      <trkpt lat="44.05487" lon="6.84202">
        <ele>975</ele>
        <time>2020-06-05T11:07:51.000Z</time>
      </trkpt>
      <trkpt lat="44.05488" lon="6.84202">
        <ele>975</ele>
        <time>2020-06-05T11:07:52.000Z</time>
      </trkpt>
      <trkpt lat="44.05488" lon="6.84202">
        <ele>975</ele>
        <time>2020-06-05T11:07:53.000Z</time>
      </trkpt>
      <trkpt lat="44.05489" lon="6.84202">
        <ele>976</ele>
        <time>2020-06-05T11:07:54.000Z</time>
      </trkpt>
      <trkpt lat="44.0549" lon="6.84202">
        <ele>976</ele>
        <time>2020-06-05T11:07:55.000Z</time>
      </trkpt>
      <trkpt lat="44.05491" lon="6.84202">
        <ele>976</ele>
        <time>2020-06-05T11:07:56.000Z</time>
      </trkpt>
      <trkpt lat="44.05492" lon="6.84202">
        <ele>976</ele>
        <time>2020-06-05T11:07:57.000Z</time>
      </trkpt>
      <trkpt lat="44.05493" lon="6.84202">
        <ele>976</ele>
        <time>2020-06-05T11:07:58.000Z</time>
      </trkpt>
      <trkpt lat="44.05494" lon="6.84202">
        <ele>976</ele>
        <time>2020-06-05T11:07:59.000Z</time>
      </trkpt>
      <trkpt lat="44.05494" lon="6.84202">
        <ele>976</ele>
        <time>2020-06-05T11:08:00.000Z</time>
      </trkpt>
      <trkpt lat="44.05495" lon="6.84201">
        <ele>976</ele>
        <time>2020-06-05T11:08:01.000Z</time>
      </trkpt>
      <trkpt lat="44.05496" lon="6.84201">
        <ele>976</ele>
        <time>2020-06-05T11:08:02.000Z</time>
      </trkpt>
      <trkpt lat="44.05497" lon="6.84201">
        <ele>976</ele>
        <time>2020-06-05T11:08:03.000Z</time>
      </trkpt>
      <trkpt lat="44.05498" lon="6.84201">
        <ele>976</ele>
        <time>2020-06-05T11:08:04.000Z</time>
      </trkpt>
      <trkpt lat="44.05499" lon="6.84201">
        <ele>976</ele>
        <time>2020-06-05T11:08:05.000Z</time>
      </trkpt>
      <trkpt lat="44.055" lon="6.84201">
        <ele>976</ele>
        <time>2020-06-05T11:08:06.000Z</time>
      </trkpt>
      <trkpt lat="44.05501" lon="6.84201">
        <ele>976</ele>
        <time>2020-06-05T11:08:07.000Z</time>
      </trkpt>
      <trkpt lat="44.05501" lon="6.84201">
        <ele>976</ele>
        <time>2020-06-05T11:08:08.000Z</time>
      </trkpt>
      <trkpt lat="44.05502" lon="6.84201">
        <ele>977</ele>
        <time>2020-06-05T11:08:09.000Z</time>
      </trkpt>
      <trkpt lat="44.05504" lon="6.84201">
        <ele>977</ele>
        <time>2020-06-05T11:08:10.000Z</time>
      </trkpt>
      <trkpt lat="44.05505" lon="6.84201">
        <ele>977</ele>
        <time>2020-06-05T11:08:11.000Z</time>
      </trkpt>
      <trkpt lat="44.05506" lon="6.84201">
        <ele>977</ele>
        <time>2020-06-05T11:08:12.000Z</time>
      </trkpt>
      <trkpt lat="44.05507" lon="6.84201">
        <ele>977</ele>
        <time>2020-06-05T11:08:13.000Z</time>
      </trkpt>
      <trkpt lat="44.05507" lon="6.84201">
        <ele>977</ele>
        <time>2020-06-05T11:08:14.000Z</time>
      </trkpt>
      <trkpt lat="44.05508" lon="6.84201">
        <ele>977</ele>
        <time>2020-06-05T11:08:15.000Z</time>
      </trkpt>
      <trkpt lat="44.05509" lon="6.84201">
        <ele>977</ele>
        <time>2020-06-05T11:08:16.000Z</time>
      </trkpt>
      <trkpt lat="44.05511" lon="6.84201">
        <ele>977</ele>
        <time>2020-06-05T11:08:17.000Z</time>
      </trkpt>
      <trkpt lat="44.05512" lon="6.84201">
        <ele>977</ele>
        <time>2020-06-05T11:08:18.000Z</time>
      </trkpt>
      <trkpt lat="44.05513" lon="6.84202">
        <ele>977</ele>
        <time>2020-06-05T11:08:19.000Z</time>
      </trkpt>
      <trkpt lat="44.05514" lon="6.84202">
        <ele>977</ele>
        <time>2020-06-05T11:08:20.000Z</time>
      </trkpt>
      <trkpt lat="44.05515" lon="6.84202">
        <ele>976</ele>
        <time>2020-06-05T11:08:21.000Z</time>
      </trkpt>
      <trkpt lat="44.05515" lon="6.84202">
        <ele>976</ele>
        <time>2020-06-05T11:08:22.000Z</time>
      </trkpt>
      <trkpt lat="44.05516" lon="6.84203">
        <ele>976</ele>
        <time>2020-06-05T11:08:23.000Z</time>
      </trkpt>
      <trkpt lat="44.05517" lon="6.84203">
        <ele>976</ele>
        <time>2020-06-05T11:08:24.000Z</time>
      </trkpt>
      <trkpt lat="44.05518" lon="6.84203">
        <ele>976</ele>
        <time>2020-06-05T11:08:25.000Z</time>
      </trkpt>
      <trkpt lat="44.05519" lon="6.84203">
        <ele>976</ele>
        <time>2020-06-05T11:08:26.000Z</time>
      </trkpt>
      <trkpt lat="44.0552" lon="6.84203">
        <ele>976</ele>
        <time>2020-06-05T11:08:27.000Z</time>
      </trkpt>
      <trkpt lat="44.05521" lon="6.84203">
        <ele>976</ele>
        <time>2020-06-05T11:08:28.000Z</time>
      </trkpt>
      <trkpt lat="44.05522" lon="6.84203">
        <ele>976</ele>
        <time>2020-06-05T11:08:29.000Z</time>
      </trkpt>
      <trkpt lat="44.05523" lon="6.84203">
        <ele>976</ele>
        <time>2020-06-05T11:08:30.000Z</time>
      </trkpt>
      <trkpt lat="44.05524" lon="6.84203">
        <ele>976</ele>
        <time>2020-06-05T11:08:31.000Z</time>
      </trkpt>
      <trkpt lat="44.05525" lon="6.84202">
        <ele>976</ele>
        <time>2020-06-05T11:08:32.000Z</time>
      </trkpt>
      <trkpt lat="44.05526" lon="6.84202">
        <ele>976</ele>
        <time>2020-06-05T11:08:33.000Z</time>
      </trkpt>
      <trkpt lat="44.05527" lon="6.84202">
        <ele>976</ele>
        <time>2020-06-05T11:08:34.000Z</time>
      </trkpt>
      <trkpt lat="44.05528" lon="6.84202">
        <ele>975</ele>
        <time>2020-06-05T11:08:35.000Z</time>
      </trkpt>
      <trkpt lat="44.05529" lon="6.84202">
        <ele>975</ele>
        <time>2020-06-05T11:08:36.000Z</time>
      </trkpt>
      <trkpt lat="44.05529" lon="6.84202">
        <ele>975</ele>
        <time>2020-06-05T11:08:37.000Z</time>
      </trkpt>
      <trkpt lat="44.0553" lon="6.84202">
        <ele>975</ele>
        <time>2020-06-05T11:08:38.000Z</time>
      </trkpt>
      <trkpt lat="44.05531" lon="6.84202">
        <ele>975</ele>
        <time>2020-06-05T11:08:39.000Z</time>
      </trkpt>
      <trkpt lat="44.05532" lon="6.84202">
        <ele>975</ele>
        <time>2020-06-05T11:08:40.000Z</time>
      </trkpt>
      <trkpt lat="44.05533" lon="6.84203">
        <ele>975</ele>
        <time>2020-06-05T11:08:41.000Z</time>
      </trkpt>
      <trkpt lat="44.05534" lon="6.84203">
        <ele>975</ele>
        <time>2020-06-05T11:08:42.000Z</time>
      </trkpt>
      <trkpt lat="44.05534" lon="6.84203">
        <ele>975</ele>
        <time>2020-06-05T11:08:43.000Z</time>
      </trkpt>
      <trkpt lat="44.05535" lon="6.84203">
        <ele>975</ele>
        <time>2020-06-05T11:08:44.000Z</time>
      </trkpt>
      <trkpt lat="44.05536" lon="6.84203">
        <ele>975</ele>
        <time>2020-06-05T11:08:45.000Z</time>
      </trkpt>
      <trkpt lat="44.05537" lon="6.84202">
        <ele>975</ele>
        <time>2020-06-05T11:08:46.000Z</time>
      </trkpt>
      <trkpt lat="44.05538" lon="6.84203">
        <ele>975</ele>
        <time>2020-06-05T11:08:47.000Z</time>
      </trkpt>
      <trkpt lat="44.05539" lon="6.84203">
        <ele>975</ele>
        <time>2020-06-05T11:08:48.000Z</time>
      </trkpt>
      <trkpt lat="44.0554" lon="6.84203">
        <ele>975</ele>
        <time>2020-06-05T11:08:49.000Z</time>
      </trkpt>
      <trkpt lat="44.05541" lon="6.84203">
        <ele>975</ele>
        <time>2020-06-05T11:08:50.000Z</time>
      </trkpt>
      <trkpt lat="44.05542" lon="6.84203">
        <ele>975</ele>
        <time>2020-06-05T11:08:51.000Z</time>
      </trkpt>
      <trkpt lat="44.05543" lon="6.84203">
        <ele>975</ele>
        <time>2020-06-05T11:08:52.000Z</time>
      </trkpt>
      <trkpt lat="44.05544" lon="6.84203">
        <ele>976</ele>
        <time>2020-06-05T11:08:53.000Z</time>
      </trkpt>
      <trkpt lat="44.05545" lon="6.84203">
        <ele>976</ele>
        <time>2020-06-05T11:08:54.000Z</time>
      </trkpt>
      <trkpt lat="44.05546" lon="6.84203">
        <ele>976</ele>
        <time>2020-06-05T11:08:55.000Z</time>
      </trkpt>
      <trkpt lat="44.05547" lon="6.84203">
        <ele>976</ele>
        <time>2020-06-05T11:08:56.000Z</time>
      </trkpt>
      <trkpt lat="44.05547" lon="6.84203">
        <ele>976</ele>
        <time>2020-06-05T11:08:57.000Z</time>
      </trkpt>
      <trkpt lat="44.05548" lon="6.84203">
        <ele>976</ele>
        <time>2020-06-05T11:08:58.000Z</time>
      </trkpt>
      <trkpt lat="44.05549" lon="6.84203">
        <ele>976</ele>
        <time>2020-06-05T11:08:59.000Z</time>
      </trkpt>
      <trkpt lat="44.0555" lon="6.84203">
        <ele>976</ele>
        <time>2020-06-05T11:09:00.000Z</time>
      </trkpt>
      <trkpt lat="44.05551" lon="6.84203">
        <ele>976</ele>
        <time>2020-06-05T11:09:01.000Z</time>
      </trkpt>
      <trkpt lat="44.05552" lon="6.84204">
        <ele>976</ele>
        <time>2020-06-05T11:09:02.000Z</time>
      </trkpt>
      <trkpt lat="44.05553" lon="6.84204">
        <ele>976</ele>
        <time>2020-06-05T11:09:03.000Z</time>
      </trkpt>
      <trkpt lat="44.05553" lon="6.84205">
        <ele>976</ele>
        <time>2020-06-05T11:09:04.000Z</time>
      </trkpt>
      <trkpt lat="44.05554" lon="6.84205">
        <ele>976</ele>
        <time>2020-06-05T11:09:05.000Z</time>
      </trkpt>
      <trkpt lat="44.05555" lon="6.84206">
        <ele>976</ele>
        <time>2020-06-05T11:09:06.000Z</time>
      </trkpt>
      <trkpt lat="44.05556" lon="6.84207">
        <ele>976</ele>
        <time>2020-06-05T11:09:07.000Z</time>
      </trkpt>
      <trkpt lat="44.05556" lon="6.84207">
        <ele>976</ele>
        <time>2020-06-05T11:09:08.000Z</time>
      </trkpt>
      <trkpt lat="44.05557" lon="6.84208">
        <ele>976</ele>
        <time>2020-06-05T11:09:09.000Z</time>
      </trkpt>
      <trkpt lat="44.05558" lon="6.84209">
        <ele>976</ele>
        <time>2020-06-05T11:09:10.000Z</time>
      </trkpt>
      <trkpt lat="44.05558" lon="6.8421">
        <ele>976</ele>
        <time>2020-06-05T11:09:11.000Z</time>
      </trkpt>
      <trkpt lat="44.05559" lon="6.84211">
        <ele>976</ele>
        <time>2020-06-05T11:09:12.000Z</time>
      </trkpt>
      <trkpt lat="44.0556" lon="6.84212">
        <ele>976</ele>
        <time>2020-06-05T11:09:13.000Z</time>
      </trkpt>
      <trkpt lat="44.05561" lon="6.84213">
        <ele>976</ele>
        <time>2020-06-05T11:09:14.000Z</time>
      </trkpt>
      <trkpt lat="44.05561" lon="6.84214">
        <ele>976</ele>
        <time>2020-06-05T11:09:15.000Z</time>
      </trkpt>
      <trkpt lat="44.05562" lon="6.84215">
        <ele>976</ele>
        <time>2020-06-05T11:09:16.000Z</time>
      </trkpt>
      <trkpt lat="44.05563" lon="6.84216">
        <ele>976</ele>
        <time>2020-06-05T11:09:17.000Z</time>
      </trkpt>
      <trkpt lat="44.05563" lon="6.84217">
        <ele>976</ele>
        <time>2020-06-05T11:09:18.000Z</time>
      </trkpt>
      <trkpt lat="44.05564" lon="6.84218">
        <ele>976</ele>
        <time>2020-06-05T11:09:19.000Z</time>
      </trkpt>
      <trkpt lat="44.05564" lon="6.84218">
        <ele>976</ele>
        <time>2020-06-05T11:09:20.000Z</time>
      </trkpt>
      <trkpt lat="44.05564" lon="6.84218">
        <ele>976</ele>
        <time>2020-06-05T11:09:21.000Z</time>
      </trkpt>
      <trkpt lat="44.05564" lon="6.84218">
        <ele>976</ele>
        <time>2020-06-05T11:09:22.000Z</time>
      </trkpt>
      <trkpt lat="44.05565" lon="6.84218">
        <ele>977</ele>
        <time>2020-06-05T11:09:23.000Z</time>
      </trkpt>
      <trkpt lat="44.05565" lon="6.84218">
        <ele>977</ele>
        <time>2020-06-05T11:09:24.000Z</time>
      </trkpt>
      <trkpt lat="44.05565" lon="6.84218">
        <ele>977</ele>
        <time>2020-06-05T11:09:25.000Z</time>
      </trkpt>
      <trkpt lat="44.05565" lon="6.84218">
        <ele>977</ele>
        <time>2020-06-05T11:09:26.000Z</time>
      </trkpt>
      <trkpt lat="44.05565" lon="6.84217">
        <ele>976</ele>
        <time>2020-06-05T11:09:27.000Z</time>
      </trkpt>
      <trkpt lat="44.05565" lon="6.84217">
        <ele>976</ele>
        <time>2020-06-05T11:09:28.000Z</time>
      </trkpt>
      <trkpt lat="44.05565" lon="6.84217">
        <ele>976</ele>
        <time>2020-06-05T11:09:29.000Z</time>
      </trkpt>
      <trkpt lat="44.05565" lon="6.84216">
        <ele>976</ele>
        <time>2020-06-05T11:09:30.000Z</time>
      </trkpt>
      <trkpt lat="44.05565" lon="6.84216">
        <ele>976</ele>
        <time>2020-06-05T11:09:31.000Z</time>
      </trkpt>
      <trkpt lat="44.05565" lon="6.84216">
        <ele>976</ele>
        <time>2020-06-05T11:09:32.000Z</time>
      </trkpt>
      <trkpt lat="44.05565" lon="6.84216">
        <ele>976</ele>
        <time>2020-06-05T11:09:33.000Z</time>
      </trkpt>
      <trkpt lat="44.05565" lon="6.84216">
        <ele>976</ele>
        <time>2020-06-05T11:09:34.000Z</time>
      </trkpt>
      <trkpt lat="44.05565" lon="6.84216">
        <ele>976</ele>
        <time>2020-06-05T11:09:35.000Z</time>
      </trkpt>
      <trkpt lat="44.05566" lon="6.84216">
        <ele>976</ele>
        <time>2020-06-05T11:09:36.000Z</time>
      </trkpt>
      <trkpt lat="44.05567" lon="6.84216">
        <ele>976</ele>
        <time>2020-06-05T11:09:37.000Z</time>
      </trkpt>
      <trkpt lat="44.05568" lon="6.84217">
        <ele>976</ele>
        <time>2020-06-05T11:09:38.000Z</time>
      </trkpt>
      <trkpt lat="44.05569" lon="6.84217">
        <ele>976</ele>
        <time>2020-06-05T11:09:39.000Z</time>
      </trkpt>
      <trkpt lat="44.0557" lon="6.84217">
        <ele>976</ele>
        <time>2020-06-05T11:09:40.000Z</time>
      </trkpt>
      <trkpt lat="44.05571" lon="6.84217">
        <ele>976</ele>
        <time>2020-06-05T11:09:41.000Z</time>
      </trkpt>
      <trkpt lat="44.05572" lon="6.84217">
        <ele>976</ele>
        <time>2020-06-05T11:09:42.000Z</time>
      </trkpt>
      <trkpt lat="44.05573" lon="6.84217">
        <ele>976</ele>
        <time>2020-06-05T11:09:43.000Z</time>
      </trkpt>
      <trkpt lat="44.05574" lon="6.84216">
        <ele>976</ele>
        <time>2020-06-05T11:09:44.000Z</time>
      </trkpt>
      <trkpt lat="44.05575" lon="6.84216">
        <ele>976</ele>
        <time>2020-06-05T11:09:45.000Z</time>
      </trkpt>
      <trkpt lat="44.05576" lon="6.84216">
        <ele>976</ele>
        <time>2020-06-05T11:09:46.000Z</time>
      </trkpt>
      <trkpt lat="44.05577" lon="6.84215">
        <ele>976</ele>
        <time>2020-06-05T11:09:47.000Z</time>
      </trkpt>
      <trkpt lat="44.05578" lon="6.84215">
        <ele>975</ele>
        <time>2020-06-05T11:09:48.000Z</time>
      </trkpt>
      <trkpt lat="44.05579" lon="6.84215">
        <ele>975</ele>
        <time>2020-06-05T11:09:49.000Z</time>
      </trkpt>
      <trkpt lat="44.0558" lon="6.84214">
        <ele>975</ele>
        <time>2020-06-05T11:09:50.000Z</time>
      </trkpt>
      <trkpt lat="44.05581" lon="6.84214">
        <ele>975</ele>
        <time>2020-06-05T11:09:51.000Z</time>
      </trkpt>
      <trkpt lat="44.05582" lon="6.84214">
        <ele>975</ele>
        <time>2020-06-05T11:09:52.000Z</time>
      </trkpt>
      <trkpt lat="44.05583" lon="6.84213">
        <ele>975</ele>
        <time>2020-06-05T11:09:53.000Z</time>
      </trkpt>
      <trkpt lat="44.05584" lon="6.84213">
        <ele>975</ele>
        <time>2020-06-05T11:09:54.000Z</time>
      </trkpt>
      <trkpt lat="44.05585" lon="6.84212">
        <ele>975</ele>
        <time>2020-06-05T11:09:55.000Z</time>
      </trkpt>
      <trkpt lat="44.05586" lon="6.84212">
        <ele>975</ele>
        <time>2020-06-05T11:09:56.000Z</time>
      </trkpt>
      <trkpt lat="44.05586" lon="6.84211">
        <ele>975</ele>
        <time>2020-06-05T11:09:57.000Z</time>
      </trkpt>
      <trkpt lat="44.05587" lon="6.84211">
        <ele>975</ele>
        <time>2020-06-05T11:09:58.000Z</time>
      </trkpt>
      <trkpt lat="44.05588" lon="6.8421">
        <ele>975</ele>
        <time>2020-06-05T11:09:59.000Z</time>
      </trkpt>
      <trkpt lat="44.05589" lon="6.84209">
        <ele>975</ele>
        <time>2020-06-05T11:10:00.000Z</time>
      </trkpt>
      <trkpt lat="44.05589" lon="6.84209">
        <ele>975</ele>
        <time>2020-06-05T11:10:01.000Z</time>
      </trkpt>
      <trkpt lat="44.0559" lon="6.84209">
        <ele>975</ele>
        <time>2020-06-05T11:10:02.000Z</time>
      </trkpt>
      <trkpt lat="44.05591" lon="6.84208">
        <ele>975</ele>
        <time>2020-06-05T11:10:03.000Z</time>
      </trkpt>
      <trkpt lat="44.05591" lon="6.84208">
        <ele>975</ele>
        <time>2020-06-05T11:10:04.000Z</time>
      </trkpt>
      <trkpt lat="44.05592" lon="6.84207">
        <ele>975</ele>
        <time>2020-06-05T11:10:05.000Z</time>
      </trkpt>
      <trkpt lat="44.05592" lon="6.84206">
        <ele>975</ele>
        <time>2020-06-05T11:10:06.000Z</time>
      </trkpt>
      <trkpt lat="44.05593" lon="6.84206">
        <ele>975</ele>
        <time>2020-06-05T11:10:07.000Z</time>
      </trkpt>
      <trkpt lat="44.05593" lon="6.84205">
        <ele>975</ele>
        <time>2020-06-05T11:10:08.000Z</time>
      </trkpt>
      <trkpt lat="44.05594" lon="6.84204">
        <ele>975</ele>
        <time>2020-06-05T11:10:09.000Z</time>
      </trkpt>
      <trkpt lat="44.05595" lon="6.84203">
        <ele>975</ele>
        <time>2020-06-05T11:10:10.000Z</time>
      </trkpt>
      <trkpt lat="44.05595" lon="6.84202">
        <ele>975</ele>
        <time>2020-06-05T11:10:11.000Z</time>
      </trkpt>
      <trkpt lat="44.05596" lon="6.84201">
        <ele>975</ele>
        <time>2020-06-05T11:10:12.000Z</time>
      </trkpt>
      <trkpt lat="44.05597" lon="6.842">
        <ele>975</ele>
        <time>2020-06-05T11:10:13.000Z</time>
      </trkpt>
      <trkpt lat="44.05597" lon="6.84199">
        <ele>975</ele>
        <time>2020-06-05T11:10:14.000Z</time>
      </trkpt>
      <trkpt lat="44.05598" lon="6.84198">
        <ele>975</ele>
        <time>2020-06-05T11:10:15.000Z</time>
      </trkpt>
      <trkpt lat="44.05598" lon="6.84197">
        <ele>975</ele>
        <time>2020-06-05T11:10:16.000Z</time>
      </trkpt>
      <trkpt lat="44.05599" lon="6.84196">
        <ele>975</ele>
        <time>2020-06-05T11:10:17.000Z</time>
      </trkpt>
      <trkpt lat="44.05599" lon="6.84195">
        <ele>975</ele>
        <time>2020-06-05T11:10:18.000Z</time>
      </trkpt>
      <trkpt lat="44.056" lon="6.84194">
        <ele>975</ele>
        <time>2020-06-05T11:10:19.000Z</time>
      </trkpt>
      <trkpt lat="44.05601" lon="6.84193">
        <ele>975</ele>
        <time>2020-06-05T11:10:20.000Z</time>
      </trkpt>
      <trkpt lat="44.05602" lon="6.84193">
        <ele>975</ele>
        <time>2020-06-05T11:10:21.000Z</time>
      </trkpt>
      <trkpt lat="44.05603" lon="6.84192">
        <ele>975</ele>
        <time>2020-06-05T11:10:22.000Z</time>
      </trkpt>
      <trkpt lat="44.05604" lon="6.84191">
        <ele>975</ele>
        <time>2020-06-05T11:10:23.000Z</time>
      </trkpt>
      <trkpt lat="44.05605" lon="6.84191">
        <ele>975</ele>
        <time>2020-06-05T11:10:24.000Z</time>
      </trkpt>
      <trkpt lat="44.05605" lon="6.8419">
        <ele>975</ele>
        <time>2020-06-05T11:10:25.000Z</time>
      </trkpt>
      <trkpt lat="44.05606" lon="6.8419">
        <ele>975</ele>
        <time>2020-06-05T11:10:26.000Z</time>
      </trkpt>
      <trkpt lat="44.05607" lon="6.84189">
        <ele>975</ele>
        <time>2020-06-05T11:10:27.000Z</time>
      </trkpt>
      <trkpt lat="44.05608" lon="6.84189">
        <ele>975</ele>
        <time>2020-06-05T11:10:28.000Z</time>
      </trkpt>
      <trkpt lat="44.05609" lon="6.84188">
        <ele>975</ele>
        <time>2020-06-05T11:10:29.000Z</time>
      </trkpt>
      <trkpt lat="44.0561" lon="6.84188">
        <ele>975</ele>
        <time>2020-06-05T11:10:30.000Z</time>
      </trkpt>
      <trkpt lat="44.0561" lon="6.84187">
        <ele>975</ele>
        <time>2020-06-05T11:10:31.000Z</time>
      </trkpt>
      <trkpt lat="44.05611" lon="6.84187">
        <ele>975</ele>
        <time>2020-06-05T11:10:32.000Z</time>
      </trkpt>
      <trkpt lat="44.05612" lon="6.84186">
        <ele>975</ele>
        <time>2020-06-05T11:10:33.000Z</time>
      </trkpt>
      <trkpt lat="44.05613" lon="6.84186">
        <ele>975</ele>
        <time>2020-06-05T11:10:34.000Z</time>
      </trkpt>
      <trkpt lat="44.05614" lon="6.84186">
        <ele>975</ele>
        <time>2020-06-05T11:10:35.000Z</time>
      </trkpt>
      <trkpt lat="44.05615" lon="6.84186">
        <ele>975</ele>
        <time>2020-06-05T11:10:36.000Z</time>
      </trkpt>
      <trkpt lat="44.05616" lon="6.84186">
        <ele>975</ele>
        <time>2020-06-05T11:10:37.000Z</time>
      </trkpt>
      <trkpt lat="44.05617" lon="6.84186">
        <ele>975</ele>
        <time>2020-06-05T11:10:38.000Z</time>
      </trkpt>
      <trkpt lat="44.05618" lon="6.84186">
        <ele>975</ele>
        <time>2020-06-05T11:10:39.000Z</time>
      </trkpt>
      <trkpt lat="44.05619" lon="6.84186">
        <ele>975</ele>
        <time>2020-06-05T11:10:40.000Z</time>
      </trkpt>
      <trkpt lat="44.0562" lon="6.84187">
        <ele>974</ele>
        <time>2020-06-05T11:10:41.000Z</time>
      </trkpt>
      <trkpt lat="44.05621" lon="6.84188">
        <ele>974</ele>
        <time>2020-06-05T11:10:42.000Z</time>
      </trkpt>
      <trkpt lat="44.05622" lon="6.84188">
        <ele>974</ele>
        <time>2020-06-05T11:10:43.000Z</time>
      </trkpt>
      <trkpt lat="44.05623" lon="6.84188">
        <ele>974</ele>
        <time>2020-06-05T11:10:44.000Z</time>
      </trkpt>
      <trkpt lat="44.05624" lon="6.84189">
        <ele>974</ele>
        <time>2020-06-05T11:10:45.000Z</time>
      </trkpt>
      <trkpt lat="44.05625" lon="6.8419">
        <ele>974</ele>
        <time>2020-06-05T11:10:46.000Z</time>
      </trkpt>
      <trkpt lat="44.05626" lon="6.8419">
        <ele>975</ele>
        <time>2020-06-05T11:10:47.000Z</time>
      </trkpt>
      <trkpt lat="44.05626" lon="6.84191">
        <ele>975</ele>
        <time>2020-06-05T11:10:48.000Z</time>
      </trkpt>
      <trkpt lat="44.05627" lon="6.84192">
        <ele>975</ele>
        <time>2020-06-05T11:10:49.000Z</time>
      </trkpt>
      <trkpt lat="44.05628" lon="6.84194">
        <ele>975</ele>
        <time>2020-06-05T11:10:50.000Z</time>
      </trkpt>
      <trkpt lat="44.05629" lon="6.84195">
        <ele>975</ele>
        <time>2020-06-05T11:10:51.000Z</time>
      </trkpt>
      <trkpt lat="44.0563" lon="6.84196">
        <ele>975</ele>
        <time>2020-06-05T11:10:52.000Z</time>
      </trkpt>
      <trkpt lat="44.0563" lon="6.84198">
        <ele>975</ele>
        <time>2020-06-05T11:10:53.000Z</time>
      </trkpt>
      <trkpt lat="44.05631" lon="6.84199">
        <ele>975</ele>
        <time>2020-06-05T11:10:54.000Z</time>
      </trkpt>
      <trkpt lat="44.05632" lon="6.842">
        <ele>975</ele>
        <time>2020-06-05T11:10:55.000Z</time>
      </trkpt>
      <trkpt lat="44.05633" lon="6.84201">
        <ele>975</ele>
        <time>2020-06-05T11:10:56.000Z</time>
      </trkpt>
      <trkpt lat="44.05633" lon="6.84203">
        <ele>975</ele>
        <time>2020-06-05T11:10:57.000Z</time>
      </trkpt>
      <trkpt lat="44.05634" lon="6.84204">
        <ele>975</ele>
        <time>2020-06-05T11:10:58.000Z</time>
      </trkpt>
      <trkpt lat="44.05635" lon="6.84205">
        <ele>974</ele>
        <time>2020-06-05T11:10:59.000Z</time>
      </trkpt>
      <trkpt lat="44.05635" lon="6.84207">
        <ele>974</ele>
        <time>2020-06-05T11:11:00.000Z</time>
      </trkpt>
      <trkpt lat="44.05636" lon="6.84208">
        <ele>974</ele>
        <time>2020-06-05T11:11:01.000Z</time>
      </trkpt>
      <trkpt lat="44.05637" lon="6.8421">
        <ele>974</ele>
        <time>2020-06-05T11:11:02.000Z</time>
      </trkpt>
      <trkpt lat="44.05637" lon="6.84211">
        <ele>974</ele>
        <time>2020-06-05T11:11:03.000Z</time>
      </trkpt>
      <trkpt lat="44.05638" lon="6.84212">
        <ele>973</ele>
        <time>2020-06-05T11:11:04.000Z</time>
      </trkpt>
      <trkpt lat="44.05638" lon="6.84214">
        <ele>973</ele>
        <time>2020-06-05T11:11:05.000Z</time>
      </trkpt>
      <trkpt lat="44.05639" lon="6.84215">
        <ele>973</ele>
        <time>2020-06-05T11:11:06.000Z</time>
      </trkpt>
      <trkpt lat="44.05639" lon="6.84216">
        <ele>972</ele>
        <time>2020-06-05T11:11:07.000Z</time>
      </trkpt>
      <trkpt lat="44.0564" lon="6.84217">
        <ele>972</ele>
        <time>2020-06-05T11:11:08.000Z</time>
      </trkpt>
      <trkpt lat="44.05641" lon="6.84218">
        <ele>972</ele>
        <time>2020-06-05T11:11:09.000Z</time>
      </trkpt>
      <trkpt lat="44.05641" lon="6.84219">
        <ele>972</ele>
        <time>2020-06-05T11:11:10.000Z</time>
      </trkpt>
      <trkpt lat="44.05642" lon="6.8422">
        <ele>971</ele>
        <time>2020-06-05T11:11:11.000Z</time>
      </trkpt>
      <trkpt lat="44.05643" lon="6.84221">
        <ele>971</ele>
        <time>2020-06-05T11:11:12.000Z</time>
      </trkpt>
      <trkpt lat="44.05644" lon="6.84223">
        <ele>971</ele>
        <time>2020-06-05T11:11:13.000Z</time>
      </trkpt>
      <trkpt lat="44.05645" lon="6.84224">
        <ele>970</ele>
        <time>2020-06-05T11:11:14.000Z</time>
      </trkpt>
      <trkpt lat="44.05645" lon="6.84225">
        <ele>970</ele>
        <time>2020-06-05T11:11:15.000Z</time>
      </trkpt>
      <trkpt lat="44.05646" lon="6.84226">
        <ele>970</ele>
        <time>2020-06-05T11:11:16.000Z</time>
      </trkpt>
      <trkpt lat="44.05647" lon="6.84227">
        <ele>970</ele>
        <time>2020-06-05T11:11:17.000Z</time>
      </trkpt>
      <trkpt lat="44.05647" lon="6.84228">
        <ele>970</ele>
        <time>2020-06-05T11:11:18.000Z</time>
      </trkpt>
      <trkpt lat="44.05648" lon="6.84229">
        <ele>969</ele>
        <time>2020-06-05T11:11:19.000Z</time>
      </trkpt>
      <trkpt lat="44.05648" lon="6.8423">
        <ele>969</ele>
        <time>2020-06-05T11:11:20.000Z</time>
      </trkpt>
      <trkpt lat="44.05649" lon="6.84231">
        <ele>969</ele>
        <time>2020-06-05T11:11:21.000Z</time>
      </trkpt>
      <trkpt lat="44.0565" lon="6.84231">
        <ele>969</ele>
        <time>2020-06-05T11:11:22.000Z</time>
      </trkpt>
      <trkpt lat="44.05651" lon="6.84232">
        <ele>969</ele>
        <time>2020-06-05T11:11:23.000Z</time>
      </trkpt>
      <trkpt lat="44.05651" lon="6.84233">
        <ele>969</ele>
        <time>2020-06-05T11:11:24.000Z</time>
      </trkpt>
      <trkpt lat="44.05652" lon="6.84234">
        <ele>968</ele>
        <time>2020-06-05T11:11:25.000Z</time>
      </trkpt>
      <trkpt lat="44.05653" lon="6.84235">
        <ele>968</ele>
        <time>2020-06-05T11:11:26.000Z</time>
      </trkpt>
      <trkpt lat="44.05654" lon="6.84236">
        <ele>968</ele>
        <time>2020-06-05T11:11:27.000Z</time>
      </trkpt>
      <trkpt lat="44.05654" lon="6.84237">
        <ele>968</ele>
        <time>2020-06-05T11:11:28.000Z</time>
      </trkpt>
      <trkpt lat="44.05655" lon="6.84238">
        <ele>967</ele>
        <time>2020-06-05T11:11:29.000Z</time>
      </trkpt>
      <trkpt lat="44.05656" lon="6.8424">
        <ele>967</ele>
        <time>2020-06-05T11:11:30.000Z</time>
      </trkpt>
      <trkpt lat="44.05656" lon="6.84241">
        <ele>967</ele>
        <time>2020-06-05T11:11:31.000Z</time>
      </trkpt>
      <trkpt lat="44.05657" lon="6.84242">
        <ele>967</ele>
        <time>2020-06-05T11:11:32.000Z</time>
      </trkpt>
      <trkpt lat="44.05657" lon="6.84244">
        <ele>967</ele>
        <time>2020-06-05T11:11:33.000Z</time>
      </trkpt>
      <trkpt lat="44.05658" lon="6.84245">
        <ele>966</ele>
        <time>2020-06-05T11:11:34.000Z</time>
      </trkpt>
      <trkpt lat="44.05658" lon="6.84246">
        <ele>966</ele>
        <time>2020-06-05T11:11:35.000Z</time>
      </trkpt>
      <trkpt lat="44.05658" lon="6.84248">
        <ele>966</ele>
        <time>2020-06-05T11:11:36.000Z</time>
      </trkpt>
      <trkpt lat="44.05659" lon="6.84249">
        <ele>966</ele>
        <time>2020-06-05T11:11:37.000Z</time>
      </trkpt>
      <trkpt lat="44.05659" lon="6.84251">
        <ele>966</ele>
        <time>2020-06-05T11:11:38.000Z</time>
      </trkpt>
      <trkpt lat="44.05659" lon="6.84252">
        <ele>965</ele>
        <time>2020-06-05T11:11:39.000Z</time>
      </trkpt>
      <trkpt lat="44.0566" lon="6.84254">
        <ele>965</ele>
        <time>2020-06-05T11:11:40.000Z</time>
      </trkpt>
      <trkpt lat="44.0566" lon="6.84255">
        <ele>965</ele>
        <time>2020-06-05T11:11:41.000Z</time>
      </trkpt>
      <trkpt lat="44.0566" lon="6.84257">
        <ele>965</ele>
        <time>2020-06-05T11:11:42.000Z</time>
      </trkpt>
      <trkpt lat="44.05661" lon="6.84258">
        <ele>965</ele>
        <time>2020-06-05T11:11:43.000Z</time>
      </trkpt>
      <trkpt lat="44.05661" lon="6.8426">
        <ele>964</ele>
        <time>2020-06-05T11:11:44.000Z</time>
      </trkpt>
      <trkpt lat="44.05661" lon="6.84261">
        <ele>964</ele>
        <time>2020-06-05T11:11:45.000Z</time>
      </trkpt>
      <trkpt lat="44.05661" lon="6.84262">
        <ele>964</ele>
        <time>2020-06-05T11:11:46.000Z</time>
      </trkpt>
      <trkpt lat="44.05661" lon="6.84264">
        <ele>964</ele>
        <time>2020-06-05T11:11:47.000Z</time>
      </trkpt>
      <trkpt lat="44.05661" lon="6.84265">
        <ele>964</ele>
        <time>2020-06-05T11:11:48.000Z</time>
      </trkpt>
      <trkpt lat="44.05661" lon="6.84266">
        <ele>963</ele>
        <time>2020-06-05T11:11:49.000Z</time>
      </trkpt>
      <trkpt lat="44.05662" lon="6.84267">
        <ele>963</ele>
        <time>2020-06-05T11:11:50.000Z</time>
      </trkpt>
      <trkpt lat="44.05662" lon="6.84268">
        <ele>963</ele>
        <time>2020-06-05T11:11:51.000Z</time>
      </trkpt>
      <trkpt lat="44.05662" lon="6.84269">
        <ele>963</ele>
        <time>2020-06-05T11:11:52.000Z</time>
      </trkpt>
      <trkpt lat="44.05662" lon="6.84271">
        <ele>963</ele>
        <time>2020-06-05T11:11:53.000Z</time>
      </trkpt>
      <trkpt lat="44.05662" lon="6.84272">
        <ele>962</ele>
        <time>2020-06-05T11:11:54.000Z</time>
      </trkpt>
      <trkpt lat="44.05662" lon="6.84273">
        <ele>962</ele>
        <time>2020-06-05T11:11:55.000Z</time>
      </trkpt>
      <trkpt lat="44.05662" lon="6.84275">
        <ele>962</ele>
        <time>2020-06-05T11:11:56.000Z</time>
      </trkpt>
      <trkpt lat="44.05663" lon="6.84276">
        <ele>962</ele>
        <time>2020-06-05T11:11:57.000Z</time>
      </trkpt>
      <trkpt lat="44.05663" lon="6.84278">
        <ele>962</ele>
        <time>2020-06-05T11:11:58.000Z</time>
      </trkpt>
      <trkpt lat="44.05663" lon="6.84279">
        <ele>962</ele>
        <time>2020-06-05T11:11:59.000Z</time>
      </trkpt>
      <trkpt lat="44.05664" lon="6.8428">
        <ele>961</ele>
        <time>2020-06-05T11:12:00.000Z</time>
      </trkpt>
      <trkpt lat="44.05664" lon="6.84282">
        <ele>961</ele>
        <time>2020-06-05T11:12:01.000Z</time>
      </trkpt>
      <trkpt lat="44.05664" lon="6.84283">
        <ele>961</ele>
        <time>2020-06-05T11:12:02.000Z</time>
      </trkpt>
      <trkpt lat="44.05665" lon="6.84284">
        <ele>961</ele>
        <time>2020-06-05T11:12:03.000Z</time>
      </trkpt>
      <trkpt lat="44.05665" lon="6.84286">
        <ele>961</ele>
        <time>2020-06-05T11:12:04.000Z</time>
      </trkpt>
      <trkpt lat="44.05666" lon="6.84287">
        <ele>961</ele>
        <time>2020-06-05T11:12:05.000Z</time>
      </trkpt>
      <trkpt lat="44.05666" lon="6.84288">
        <ele>961</ele>
        <time>2020-06-05T11:12:06.000Z</time>
      </trkpt>
      <trkpt lat="44.05667" lon="6.84289">
        <ele>961</ele>
        <time>2020-06-05T11:12:07.000Z</time>
      </trkpt>
      <trkpt lat="44.05668" lon="6.8429">
        <ele>961</ele>
        <time>2020-06-05T11:12:08.000Z</time>
      </trkpt>
      <trkpt lat="44.05668" lon="6.84292">
        <ele>961</ele>
        <time>2020-06-05T11:12:09.000Z</time>
      </trkpt>
      <trkpt lat="44.05669" lon="6.84292">
        <ele>961</ele>
        <time>2020-06-05T11:12:10.000Z</time>
      </trkpt>
      <trkpt lat="44.0567" lon="6.84293">
        <ele>960</ele>
        <time>2020-06-05T11:12:11.000Z</time>
      </trkpt>
      <trkpt lat="44.0567" lon="6.84293">
        <ele>960</ele>
        <time>2020-06-05T11:12:12.000Z</time>
      </trkpt>
      <trkpt lat="44.05671" lon="6.84294">
        <ele>960</ele>
        <time>2020-06-05T11:12:13.000Z</time>
      </trkpt>
      <trkpt lat="44.05672" lon="6.84294">
        <ele>960</ele>
        <time>2020-06-05T11:12:14.000Z</time>
      </trkpt>
      <trkpt lat="44.05674" lon="6.84295">
        <ele>960</ele>
        <time>2020-06-05T11:12:15.000Z</time>
      </trkpt>
      <trkpt lat="44.05675" lon="6.84295">
        <ele>960</ele>
        <time>2020-06-05T11:12:16.000Z</time>
      </trkpt>
      <trkpt lat="44.05676" lon="6.84295">
        <ele>960</ele>
        <time>2020-06-05T11:12:17.000Z</time>
      </trkpt>
      <trkpt lat="44.05677" lon="6.84296">
        <ele>959</ele>
        <time>2020-06-05T11:12:18.000Z</time>
      </trkpt>
      <trkpt lat="44.05677" lon="6.84296">
        <ele>959</ele>
        <time>2020-06-05T11:12:19.000Z</time>
      </trkpt>
      <trkpt lat="44.05678" lon="6.84296">
        <ele>959</ele>
        <time>2020-06-05T11:12:20.000Z</time>
      </trkpt>
      <trkpt lat="44.0568" lon="6.84296">
        <ele>959</ele>
        <time>2020-06-05T11:12:21.000Z</time>
      </trkpt>
      <trkpt lat="44.05681" lon="6.84297">
        <ele>959</ele>
        <time>2020-06-05T11:12:22.000Z</time>
      </trkpt>
      <trkpt lat="44.05682" lon="6.84297">
        <ele>959</ele>
        <time>2020-06-05T11:12:23.000Z</time>
      </trkpt>
      <trkpt lat="44.05682" lon="6.84297">
        <ele>959</ele>
        <time>2020-06-05T11:12:24.000Z</time>
      </trkpt>
      <trkpt lat="44.05683" lon="6.84297">
        <ele>959</ele>
        <time>2020-06-05T11:12:25.000Z</time>
      </trkpt>
      <trkpt lat="44.05684" lon="6.84298">
        <ele>958</ele>
        <time>2020-06-05T11:12:26.000Z</time>
      </trkpt>
      <trkpt lat="44.05685" lon="6.84298">
        <ele>958</ele>
        <time>2020-06-05T11:12:27.000Z</time>
      </trkpt>
      <trkpt lat="44.05686" lon="6.84299">
        <ele>958</ele>
        <time>2020-06-05T11:12:28.000Z</time>
      </trkpt>
      <trkpt lat="44.05687" lon="6.84299">
        <ele>958</ele>
        <time>2020-06-05T11:12:29.000Z</time>
      </trkpt>
      <trkpt lat="44.05688" lon="6.84299">
        <ele>958</ele>
        <time>2020-06-05T11:12:30.000Z</time>
      </trkpt>
      <trkpt lat="44.05689" lon="6.843">
        <ele>958</ele>
        <time>2020-06-05T11:12:31.000Z</time>
      </trkpt>
      <trkpt lat="44.05689" lon="6.84301">
        <ele>958</ele>
        <time>2020-06-05T11:12:32.000Z</time>
      </trkpt>
      <trkpt lat="44.0569" lon="6.84302">
        <ele>958</ele>
        <time>2020-06-05T11:12:33.000Z</time>
      </trkpt>
      <trkpt lat="44.05691" lon="6.84303">
        <ele>958</ele>
        <time>2020-06-05T11:12:34.000Z</time>
      </trkpt>
      <trkpt lat="44.05692" lon="6.84305">
        <ele>958</ele>
        <time>2020-06-05T11:12:35.000Z</time>
      </trkpt>
      <trkpt lat="44.05692" lon="6.84307">
        <ele>957</ele>
        <time>2020-06-05T11:12:36.000Z</time>
      </trkpt>
      <trkpt lat="44.05693" lon="6.84308">
        <ele>957</ele>
        <time>2020-06-05T11:12:37.000Z</time>
      </trkpt>
      <trkpt lat="44.05694" lon="6.84309">
        <ele>957</ele>
        <time>2020-06-05T11:12:38.000Z</time>
      </trkpt>
      <trkpt lat="44.05694" lon="6.8431">
        <ele>957</ele>
        <time>2020-06-05T11:12:39.000Z</time>
      </trkpt>
      <trkpt lat="44.05695" lon="6.84312">
        <ele>957</ele>
        <time>2020-06-05T11:12:40.000Z</time>
      </trkpt>
      <trkpt lat="44.05695" lon="6.84313">
        <ele>957</ele>
        <time>2020-06-05T11:12:41.000Z</time>
      </trkpt>
      <trkpt lat="44.05696" lon="6.84315">
        <ele>956</ele>
        <time>2020-06-05T11:12:42.000Z</time>
      </trkpt>
      <trkpt lat="44.05696" lon="6.84317">
        <ele>956</ele>
        <time>2020-06-05T11:12:43.000Z</time>
      </trkpt>
      <trkpt lat="44.05696" lon="6.84318">
        <ele>956</ele>
        <time>2020-06-05T11:12:44.000Z</time>
      </trkpt>
      <trkpt lat="44.05696" lon="6.8432">
        <ele>956</ele>
        <time>2020-06-05T11:12:45.000Z</time>
      </trkpt>
      <trkpt lat="44.05696" lon="6.84322">
        <ele>956</ele>
        <time>2020-06-05T11:12:46.000Z</time>
      </trkpt>
      <trkpt lat="44.05697" lon="6.84323">
        <ele>956</ele>
        <time>2020-06-05T11:12:47.000Z</time>
      </trkpt>
      <trkpt lat="44.05697" lon="6.84325">
        <ele>956</ele>
        <time>2020-06-05T11:12:48.000Z</time>
      </trkpt>
      <trkpt lat="44.05697" lon="6.84327">
        <ele>956</ele>
        <time>2020-06-05T11:12:49.000Z</time>
      </trkpt>
      <trkpt lat="44.05697" lon="6.84328">
        <ele>956</ele>
        <time>2020-06-05T11:12:50.000Z</time>
      </trkpt>
      <trkpt lat="44.05697" lon="6.8433">
        <ele>955</ele>
        <time>2020-06-05T11:12:51.000Z</time>
      </trkpt>
      <trkpt lat="44.05697" lon="6.84332">
        <ele>955</ele>
        <time>2020-06-05T11:12:52.000Z</time>
      </trkpt>
      <trkpt lat="44.05697" lon="6.84334">
        <ele>955</ele>
        <time>2020-06-05T11:12:53.000Z</time>
      </trkpt>
      <trkpt lat="44.05697" lon="6.84336">
        <ele>955</ele>
        <time>2020-06-05T11:12:54.000Z</time>
      </trkpt>
      <trkpt lat="44.05697" lon="6.84337">
        <ele>955</ele>
        <time>2020-06-05T11:12:55.000Z</time>
      </trkpt>
      <trkpt lat="44.05696" lon="6.84339">
        <ele>955</ele>
        <time>2020-06-05T11:12:56.000Z</time>
      </trkpt>
      <trkpt lat="44.05696" lon="6.84341">
        <ele>954</ele>
        <time>2020-06-05T11:12:57.000Z</time>
      </trkpt>
      <trkpt lat="44.05696" lon="6.84342">
        <ele>954</ele>
        <time>2020-06-05T11:12:58.000Z</time>
      </trkpt>
      <trkpt lat="44.05696" lon="6.84344">
        <ele>954</ele>
        <time>2020-06-05T11:12:59.000Z</time>
      </trkpt>
      <trkpt lat="44.05695" lon="6.84346">
        <ele>954</ele>
        <time>2020-06-05T11:13:00.000Z</time>
      </trkpt>
      <trkpt lat="44.05695" lon="6.84348">
        <ele>954</ele>
        <time>2020-06-05T11:13:01.000Z</time>
      </trkpt>
      <trkpt lat="44.05695" lon="6.84349">
        <ele>954</ele>
        <time>2020-06-05T11:13:02.000Z</time>
      </trkpt>
      <trkpt lat="44.05695" lon="6.84351">
        <ele>953</ele>
        <time>2020-06-05T11:13:03.000Z</time>
      </trkpt>
      <trkpt lat="44.05694" lon="6.84352">
        <ele>953</ele>
        <time>2020-06-05T11:13:04.000Z</time>
      </trkpt>
      <trkpt lat="44.05694" lon="6.84354">
        <ele>953</ele>
        <time>2020-06-05T11:13:05.000Z</time>
      </trkpt>
      <trkpt lat="44.05693" lon="6.84355">
        <ele>953</ele>
        <time>2020-06-05T11:13:06.000Z</time>
      </trkpt>
      <trkpt lat="44.05693" lon="6.84357">
        <ele>953</ele>
        <time>2020-06-05T11:13:07.000Z</time>
      </trkpt>
      <trkpt lat="44.05693" lon="6.84358">
        <ele>953</ele>
        <time>2020-06-05T11:13:08.000Z</time>
      </trkpt>
      <trkpt lat="44.05693" lon="6.8436">
        <ele>952</ele>
        <time>2020-06-05T11:13:09.000Z</time>
      </trkpt>
      <trkpt lat="44.05692" lon="6.84362">
        <ele>952</ele>
        <time>2020-06-05T11:13:10.000Z</time>
      </trkpt>
      <trkpt lat="44.05692" lon="6.84363">
        <ele>952</ele>
        <time>2020-06-05T11:13:11.000Z</time>
      </trkpt>
      <trkpt lat="44.05692" lon="6.84365">
        <ele>952</ele>
        <time>2020-06-05T11:13:12.000Z</time>
      </trkpt>
      <trkpt lat="44.05692" lon="6.84366">
        <ele>952</ele>
        <time>2020-06-05T11:13:13.000Z</time>
      </trkpt>
      <trkpt lat="44.05691" lon="6.84368">
        <ele>952</ele>
        <time>2020-06-05T11:13:14.000Z</time>
      </trkpt>
      <trkpt lat="44.05691" lon="6.8437">
        <ele>952</ele>
        <time>2020-06-05T11:13:15.000Z</time>
      </trkpt>
      <trkpt lat="44.05691" lon="6.84371">
        <ele>951</ele>
        <time>2020-06-05T11:13:16.000Z</time>
      </trkpt>
      <trkpt lat="44.0569" lon="6.84373">
        <ele>951</ele>
        <time>2020-06-05T11:13:17.000Z</time>
      </trkpt>
      <trkpt lat="44.0569" lon="6.84374">
        <ele>951</ele>
        <time>2020-06-05T11:13:18.000Z</time>
      </trkpt>
      <trkpt lat="44.0569" lon="6.84376">
        <ele>951</ele>
        <time>2020-06-05T11:13:19.000Z</time>
      </trkpt>
      <trkpt lat="44.0569" lon="6.84377">
        <ele>951</ele>
        <time>2020-06-05T11:13:20.000Z</time>
      </trkpt>
      <trkpt lat="44.05689" lon="6.84378">
        <ele>951</ele>
        <time>2020-06-05T11:13:21.000Z</time>
      </trkpt>
      <trkpt lat="44.05689" lon="6.8438">
        <ele>951</ele>
        <time>2020-06-05T11:13:22.000Z</time>
      </trkpt>
      <trkpt lat="44.05689" lon="6.84382">
        <ele>950</ele>
        <time>2020-06-05T11:13:23.000Z</time>
      </trkpt>
      <trkpt lat="44.05689" lon="6.84383">
        <ele>950</ele>
        <time>2020-06-05T11:13:24.000Z</time>
      </trkpt>
      <trkpt lat="44.05689" lon="6.84385">
        <ele>950</ele>
        <time>2020-06-05T11:13:25.000Z</time>
      </trkpt>
      <trkpt lat="44.05688" lon="6.84387">
        <ele>950</ele>
        <time>2020-06-05T11:13:26.000Z</time>
      </trkpt>
      <trkpt lat="44.05688" lon="6.84388">
        <ele>950</ele>
        <time>2020-06-05T11:13:27.000Z</time>
      </trkpt>
      <trkpt lat="44.05688" lon="6.8439">
        <ele>950</ele>
        <time>2020-06-05T11:13:28.000Z</time>
      </trkpt>
      <trkpt lat="44.05689" lon="6.84392">
        <ele>950</ele>
        <time>2020-06-05T11:13:29.000Z</time>
      </trkpt>
      <trkpt lat="44.05689" lon="6.84393">
        <ele>950</ele>
        <time>2020-06-05T11:13:30.000Z</time>
      </trkpt>
      <trkpt lat="44.05689" lon="6.84395">
        <ele>950</ele>
        <time>2020-06-05T11:13:31.000Z</time>
      </trkpt>
      <trkpt lat="44.05689" lon="6.84397">
        <ele>950</ele>
        <time>2020-06-05T11:13:32.000Z</time>
      </trkpt>
      <trkpt lat="44.05689" lon="6.84399">
        <ele>950</ele>
        <time>2020-06-05T11:13:33.000Z</time>
      </trkpt>
      <trkpt lat="44.0569" lon="6.84401">
        <ele>950</ele>
        <time>2020-06-05T11:13:34.000Z</time>
      </trkpt>
      <trkpt lat="44.0569" lon="6.84402">
        <ele>950</ele>
        <time>2020-06-05T11:13:35.000Z</time>
      </trkpt>
      <trkpt lat="44.0569" lon="6.84404">
        <ele>950</ele>
        <time>2020-06-05T11:13:36.000Z</time>
      </trkpt>
      <trkpt lat="44.0569" lon="6.84405">
        <ele>950</ele>
        <time>2020-06-05T11:13:37.000Z</time>
      </trkpt>
      <trkpt lat="44.0569" lon="6.84407">
        <ele>950</ele>
        <time>2020-06-05T11:13:38.000Z</time>
      </trkpt>
      <trkpt lat="44.05691" lon="6.84409">
        <ele>950</ele>
        <time>2020-06-05T11:13:39.000Z</time>
      </trkpt>
      <trkpt lat="44.05691" lon="6.84411">
        <ele>950</ele>
        <time>2020-06-05T11:13:40.000Z</time>
      </trkpt>
      <trkpt lat="44.05691" lon="6.84412">
        <ele>950</ele>
        <time>2020-06-05T11:13:41.000Z</time>
      </trkpt>
      <trkpt lat="44.05692" lon="6.84414">
        <ele>950</ele>
        <time>2020-06-05T11:13:42.000Z</time>
      </trkpt>
      <trkpt lat="44.05692" lon="6.84416">
        <ele>949</ele>
        <time>2020-06-05T11:13:43.000Z</time>
      </trkpt>
      <trkpt lat="44.05692" lon="6.84417">
        <ele>949</ele>
        <time>2020-06-05T11:13:44.000Z</time>
      </trkpt>
      <trkpt lat="44.05692" lon="6.84419">
        <ele>949</ele>
        <time>2020-06-05T11:13:45.000Z</time>
      </trkpt>
      <trkpt lat="44.05693" lon="6.8442">
        <ele>949</ele>
        <time>2020-06-05T11:13:46.000Z</time>
      </trkpt>
      <trkpt lat="44.05693" lon="6.84422">
        <ele>949</ele>
        <time>2020-06-05T11:13:47.000Z</time>
      </trkpt>
      <trkpt lat="44.05693" lon="6.84424">
        <ele>949</ele>
        <time>2020-06-05T11:13:48.000Z</time>
      </trkpt>
      <trkpt lat="44.05693" lon="6.84426">
        <ele>949</ele>
        <time>2020-06-05T11:13:49.000Z</time>
      </trkpt>
      <trkpt lat="44.05694" lon="6.84427">
        <ele>949</ele>
        <time>2020-06-05T11:13:50.000Z</time>
      </trkpt>
      <trkpt lat="44.05694" lon="6.84428">
        <ele>949</ele>
        <time>2020-06-05T11:13:51.000Z</time>
      </trkpt>
      <trkpt lat="44.05694" lon="6.8443">
        <ele>949</ele>
        <time>2020-06-05T11:13:52.000Z</time>
      </trkpt>
      <trkpt lat="44.05695" lon="6.84432">
        <ele>949</ele>
        <time>2020-06-05T11:13:53.000Z</time>
      </trkpt>
      <trkpt lat="44.05695" lon="6.84433">
        <ele>949</ele>
        <time>2020-06-05T11:13:54.000Z</time>
      </trkpt>
      <trkpt lat="44.05695" lon="6.84435">
        <ele>949</ele>
        <time>2020-06-05T11:13:55.000Z</time>
      </trkpt>
      <trkpt lat="44.05696" lon="6.84437">
        <ele>949</ele>
        <time>2020-06-05T11:13:56.000Z</time>
      </trkpt>
      <trkpt lat="44.05696" lon="6.84438">
        <ele>949</ele>
        <time>2020-06-05T11:13:57.000Z</time>
      </trkpt>
      <trkpt lat="44.05697" lon="6.8444">
        <ele>949</ele>
        <time>2020-06-05T11:13:58.000Z</time>
      </trkpt>
      <trkpt lat="44.05697" lon="6.84441">
        <ele>949</ele>
        <time>2020-06-05T11:13:59.000Z</time>
      </trkpt>
      <trkpt lat="44.05698" lon="6.84442">
        <ele>949</ele>
        <time>2020-06-05T11:14:00.000Z</time>
      </trkpt>
      <trkpt lat="44.05698" lon="6.84444">
        <ele>949</ele>
        <time>2020-06-05T11:14:01.000Z</time>
      </trkpt>
      <trkpt lat="44.05698" lon="6.84445">
        <ele>948</ele>
        <time>2020-06-05T11:14:02.000Z</time>
      </trkpt>
      <trkpt lat="44.05698" lon="6.84447">
        <ele>948</ele>
        <time>2020-06-05T11:14:03.000Z</time>
      </trkpt>
      <trkpt lat="44.05699" lon="6.84448">
        <ele>948</ele>
        <time>2020-06-05T11:14:04.000Z</time>
      </trkpt>
      <trkpt lat="44.05699" lon="6.8445">
        <ele>948</ele>
        <time>2020-06-05T11:14:05.000Z</time>
      </trkpt>
      <trkpt lat="44.05699" lon="6.84451">
        <ele>948</ele>
        <time>2020-06-05T11:14:06.000Z</time>
      </trkpt>
      <trkpt lat="44.05699" lon="6.84453">
        <ele>948</ele>
        <time>2020-06-05T11:14:07.000Z</time>
      </trkpt>
      <trkpt lat="44.057" lon="6.84455">
        <ele>948</ele>
        <time>2020-06-05T11:14:08.000Z</time>
      </trkpt>
      <trkpt lat="44.057" lon="6.84457">
        <ele>948</ele>
        <time>2020-06-05T11:14:09.000Z</time>
      </trkpt>
      <trkpt lat="44.057" lon="6.84458">
        <ele>947</ele>
        <time>2020-06-05T11:14:10.000Z</time>
      </trkpt>
      <trkpt lat="44.057" lon="6.8446">
        <ele>947</ele>
        <time>2020-06-05T11:14:11.000Z</time>
      </trkpt>
      <trkpt lat="44.05701" lon="6.84461">
        <ele>947</ele>
        <time>2020-06-05T11:14:12.000Z</time>
      </trkpt>
      <trkpt lat="44.05701" lon="6.84463">
        <ele>947</ele>
        <time>2020-06-05T11:14:13.000Z</time>
      </trkpt>
      <trkpt lat="44.05701" lon="6.84464">
        <ele>947</ele>
        <time>2020-06-05T11:14:14.000Z</time>
      </trkpt>
      <trkpt lat="44.05702" lon="6.84466">
        <ele>947</ele>
        <time>2020-06-05T11:14:15.000Z</time>
      </trkpt>
      <trkpt lat="44.05702" lon="6.84467">
        <ele>947</ele>
        <time>2020-06-05T11:14:16.000Z</time>
      </trkpt>
      <trkpt lat="44.05702" lon="6.84469">
        <ele>947</ele>
        <time>2020-06-05T11:14:17.000Z</time>
      </trkpt>
      <trkpt lat="44.05702" lon="6.84471">
        <ele>947</ele>
        <time>2020-06-05T11:14:18.000Z</time>
      </trkpt>
      <trkpt lat="44.05702" lon="6.84472">
        <ele>947</ele>
        <time>2020-06-05T11:14:19.000Z</time>
      </trkpt>
      <trkpt lat="44.05703" lon="6.84474">
        <ele>947</ele>
        <time>2020-06-05T11:14:20.000Z</time>
      </trkpt>
      <trkpt lat="44.05703" lon="6.84475">
        <ele>947</ele>
        <time>2020-06-05T11:14:21.000Z</time>
      </trkpt>
      <trkpt lat="44.05703" lon="6.84476">
        <ele>947</ele>
        <time>2020-06-05T11:14:22.000Z</time>
      </trkpt>
      <trkpt lat="44.05703" lon="6.84478">
        <ele>947</ele>
        <time>2020-06-05T11:14:23.000Z</time>
      </trkpt>
      <trkpt lat="44.05704" lon="6.8448">
        <ele>946</ele>
        <time>2020-06-05T11:14:24.000Z</time>
      </trkpt>
      <trkpt lat="44.05704" lon="6.84482">
        <ele>946</ele>
        <time>2020-06-05T11:14:25.000Z</time>
      </trkpt>
      <trkpt lat="44.05704" lon="6.84483">
        <ele>946</ele>
        <time>2020-06-05T11:14:26.000Z</time>
      </trkpt>
      <trkpt lat="44.05704" lon="6.84484">
        <ele>946</ele>
        <time>2020-06-05T11:14:27.000Z</time>
      </trkpt>
      <trkpt lat="44.05705" lon="6.84486">
        <ele>946</ele>
        <time>2020-06-05T11:14:28.000Z</time>
      </trkpt>
      <trkpt lat="44.05705" lon="6.84487">
        <ele>946</ele>
        <time>2020-06-05T11:14:29.000Z</time>
      </trkpt>
      <trkpt lat="44.05705" lon="6.84489">
        <ele>946</ele>
        <time>2020-06-05T11:14:30.000Z</time>
      </trkpt>
      <trkpt lat="44.05705" lon="6.84491">
        <ele>946</ele>
        <time>2020-06-05T11:14:31.000Z</time>
      </trkpt>
      <trkpt lat="44.05706" lon="6.84492">
        <ele>946</ele>
        <time>2020-06-05T11:14:32.000Z</time>
      </trkpt>
      <trkpt lat="44.05706" lon="6.84494">
        <ele>945</ele>
        <time>2020-06-05T11:14:33.000Z</time>
      </trkpt>
      <trkpt lat="44.05706" lon="6.84495">
        <ele>945</ele>
        <time>2020-06-05T11:14:34.000Z</time>
      </trkpt>
      <trkpt lat="44.05706" lon="6.84496">
        <ele>945</ele>
        <time>2020-06-05T11:14:35.000Z</time>
      </trkpt>
      <trkpt lat="44.05707" lon="6.84497">
        <ele>945</ele>
        <time>2020-06-05T11:14:36.000Z</time>
      </trkpt>
      <trkpt lat="44.05707" lon="6.84497">
        <ele>945</ele>
        <time>2020-06-05T11:14:37.000Z</time>
      </trkpt>
      <trkpt lat="44.05707" lon="6.84498">
        <ele>945</ele>
        <time>2020-06-05T11:14:38.000Z</time>
      </trkpt>
      <trkpt lat="44.05708" lon="6.84499">
        <ele>945</ele>
        <time>2020-06-05T11:14:39.000Z</time>
      </trkpt>
      <trkpt lat="44.05707" lon="6.84499">
        <ele>945</ele>
        <time>2020-06-05T11:14:40.000Z</time>
      </trkpt>
      <trkpt lat="44.05707" lon="6.84499">
        <ele>945</ele>
        <time>2020-06-05T11:14:41.000Z</time>
      </trkpt>
      <trkpt lat="44.05708" lon="6.84499">
        <ele>945</ele>
        <time>2020-06-05T11:14:42.000Z</time>
      </trkpt>
      <trkpt lat="44.05708" lon="6.84499">
        <ele>945</ele>
        <time>2020-06-05T11:14:43.000Z</time>
      </trkpt>
      <trkpt lat="44.05708" lon="6.84499">
        <ele>945</ele>
        <time>2020-06-05T11:14:44.000Z</time>
      </trkpt>
      <trkpt lat="44.05708" lon="6.84499">
        <ele>945</ele>
        <time>2020-06-05T11:14:45.000Z</time>
      </trkpt>
      <trkpt lat="44.05708" lon="6.84499">
        <ele>945</ele>
        <time>2020-06-05T11:14:46.000Z</time>
      </trkpt>
      <trkpt lat="44.05708" lon="6.84499">
        <ele>945</ele>
        <time>2020-06-05T11:14:47.000Z</time>
      </trkpt>
      <trkpt lat="44.05708" lon="6.84499">
        <ele>945</ele>
        <time>2020-06-05T11:14:48.000Z</time>
      </trkpt>
      <trkpt lat="44.05708" lon="6.84499">
        <ele>945</ele>
        <time>2020-06-05T11:14:49.000Z</time>
      </trkpt>
      <trkpt lat="44.05708" lon="6.84499">
        <ele>945</ele>
        <time>2020-06-05T11:14:50.000Z</time>
      </trkpt>
      <trkpt lat="44.05708" lon="6.84499">
        <ele>945</ele>
        <time>2020-06-05T11:14:51.000Z</time>
      </trkpt>
      <trkpt lat="44.05708" lon="6.84499">
        <ele>945</ele>
        <time>2020-06-05T11:14:52.000Z</time>
      </trkpt>
      <trkpt lat="44.05708" lon="6.84499">
        <ele>945</ele>
        <time>2020-06-05T11:14:53.000Z</time>
      </trkpt>
      <trkpt lat="44.05708" lon="6.845">
        <ele>944</ele>
        <time>2020-06-05T11:14:54.000Z</time>
      </trkpt>
      <trkpt lat="44.05708" lon="6.84501">
        <ele>944</ele>
        <time>2020-06-05T11:14:55.000Z</time>
      </trkpt>
      <trkpt lat="44.05709" lon="6.84502">
        <ele>944</ele>
        <time>2020-06-05T11:14:56.000Z</time>
      </trkpt>
      <trkpt lat="44.05709" lon="6.84503">
        <ele>944</ele>
        <time>2020-06-05T11:14:57.000Z</time>
      </trkpt>
      <trkpt lat="44.05709" lon="6.84504">
        <ele>945</ele>
        <time>2020-06-05T11:14:58.000Z</time>
      </trkpt>
      <trkpt lat="44.0571" lon="6.84505">
        <ele>945</ele>
        <time>2020-06-05T11:14:59.000Z</time>
      </trkpt>
      <trkpt lat="44.0571" lon="6.84506">
        <ele>945</ele>
        <time>2020-06-05T11:15:00.000Z</time>
      </trkpt>
      <trkpt lat="44.0571" lon="6.84507">
        <ele>945</ele>
        <time>2020-06-05T11:15:01.000Z</time>
      </trkpt>
      <trkpt lat="44.05711" lon="6.84509">
        <ele>945</ele>
        <time>2020-06-05T11:15:02.000Z</time>
      </trkpt>
      <trkpt lat="44.05711" lon="6.8451">
        <ele>945</ele>
        <time>2020-06-05T11:15:03.000Z</time>
      </trkpt>
      <trkpt lat="44.05711" lon="6.84511">
        <ele>945</ele>
        <time>2020-06-05T11:15:04.000Z</time>
      </trkpt>
      <trkpt lat="44.05711" lon="6.84512">
        <ele>945</ele>
        <time>2020-06-05T11:15:05.000Z</time>
      </trkpt>
      <trkpt lat="44.05712" lon="6.84513">
        <ele>945</ele>
        <time>2020-06-05T11:15:06.000Z</time>
      </trkpt>
      <trkpt lat="44.05712" lon="6.84513">
        <ele>945</ele>
        <time>2020-06-05T11:15:07.000Z</time>
      </trkpt>
      <trkpt lat="44.05712" lon="6.84515">
        <ele>945</ele>
        <time>2020-06-05T11:15:08.000Z</time>
      </trkpt>
      <trkpt lat="44.05713" lon="6.84515">
        <ele>946</ele>
        <time>2020-06-05T11:15:09.000Z</time>
      </trkpt>
      <trkpt lat="44.05713" lon="6.84516">
        <ele>946</ele>
        <time>2020-06-05T11:15:10.000Z</time>
      </trkpt>
      <trkpt lat="44.05714" lon="6.84517">
        <ele>946</ele>
        <time>2020-06-05T11:15:11.000Z</time>
      </trkpt>
      <trkpt lat="44.05714" lon="6.84518">
        <ele>946</ele>
        <time>2020-06-05T11:15:12.000Z</time>
      </trkpt>
      <trkpt lat="44.05714" lon="6.84519">
        <ele>946</ele>
        <time>2020-06-05T11:15:13.000Z</time>
      </trkpt>
      <trkpt lat="44.05714" lon="6.8452">
        <ele>946</ele>
        <time>2020-06-05T11:15:14.000Z</time>
      </trkpt>
      <trkpt lat="44.05715" lon="6.84522">
        <ele>946</ele>
        <time>2020-06-05T11:15:15.000Z</time>
      </trkpt>
      <trkpt lat="44.05715" lon="6.84523">
        <ele>946</ele>
        <time>2020-06-05T11:15:16.000Z</time>
      </trkpt>
      <trkpt lat="44.05716" lon="6.84524">
        <ele>946</ele>
        <time>2020-06-05T11:15:17.000Z</time>
      </trkpt>
      <trkpt lat="44.05716" lon="6.84525">
        <ele>946</ele>
        <time>2020-06-05T11:15:18.000Z</time>
      </trkpt>
      <trkpt lat="44.05717" lon="6.84526">
        <ele>946</ele>
        <time>2020-06-05T11:15:19.000Z</time>
      </trkpt>
      <trkpt lat="44.05717" lon="6.84527">
        <ele>946</ele>
        <time>2020-06-05T11:15:20.000Z</time>
      </trkpt>
      <trkpt lat="44.05718" lon="6.84528">
        <ele>946</ele>
        <time>2020-06-05T11:15:21.000Z</time>
      </trkpt>
      <trkpt lat="44.05718" lon="6.8453">
        <ele>946</ele>
        <time>2020-06-05T11:15:22.000Z</time>
      </trkpt>
      <trkpt lat="44.05718" lon="6.84531">
        <ele>946</ele>
        <time>2020-06-05T11:15:23.000Z</time>
      </trkpt>
      <trkpt lat="44.05719" lon="6.84532">
        <ele>946</ele>
        <time>2020-06-05T11:15:24.000Z</time>
      </trkpt>
      <trkpt lat="44.05719" lon="6.84533">
        <ele>946</ele>
        <time>2020-06-05T11:15:25.000Z</time>
      </trkpt>
      <trkpt lat="44.0572" lon="6.84535">
        <ele>946</ele>
        <time>2020-06-05T11:15:26.000Z</time>
      </trkpt>
      <trkpt lat="44.0572" lon="6.84536">
        <ele>946</ele>
        <time>2020-06-05T11:15:27.000Z</time>
      </trkpt>
      <trkpt lat="44.0572" lon="6.84537">
        <ele>946</ele>
        <time>2020-06-05T11:15:28.000Z</time>
      </trkpt>
      <trkpt lat="44.05721" lon="6.84539">
        <ele>946</ele>
        <time>2020-06-05T11:15:29.000Z</time>
      </trkpt>
      <trkpt lat="44.05721" lon="6.8454">
        <ele>946</ele>
        <time>2020-06-05T11:15:30.000Z</time>
      </trkpt>
      <trkpt lat="44.05721" lon="6.84541">
        <ele>946</ele>
        <time>2020-06-05T11:15:31.000Z</time>
      </trkpt>
      <trkpt lat="44.05722" lon="6.84543">
        <ele>947</ele>
        <time>2020-06-05T11:15:32.000Z</time>
      </trkpt>
      <trkpt lat="44.05722" lon="6.84544">
        <ele>947</ele>
        <time>2020-06-05T11:15:33.000Z</time>
      </trkpt>
      <trkpt lat="44.05722" lon="6.84545">
        <ele>947</ele>
        <time>2020-06-05T11:15:34.000Z</time>
      </trkpt>
      <trkpt lat="44.05722" lon="6.84545">
        <ele>947</ele>
        <time>2020-06-05T11:15:35.000Z</time>
      </trkpt>
      <trkpt lat="44.05722" lon="6.84546">
        <ele>947</ele>
        <time>2020-06-05T11:15:36.000Z</time>
      </trkpt>
      <trkpt lat="44.05722" lon="6.84546">
        <ele>947</ele>
        <time>2020-06-05T11:15:37.000Z</time>
      </trkpt>
      <trkpt lat="44.05722" lon="6.84546">
        <ele>947</ele>
        <time>2020-06-05T11:15:38.000Z</time>
      </trkpt>
      <trkpt lat="44.05722" lon="6.84546">
        <ele>947</ele>
        <time>2020-06-05T11:15:39.000Z</time>
      </trkpt>
      <trkpt lat="44.05722" lon="6.84546">
        <ele>947</ele>
        <time>2020-06-05T11:15:40.000Z</time>
      </trkpt>
      <trkpt lat="44.05722" lon="6.84546">
        <ele>947</ele>
        <time>2020-06-05T11:15:41.000Z</time>
      </trkpt>
      <trkpt lat="44.05722" lon="6.84546">
        <ele>947</ele>
        <time>2020-06-05T11:15:42.000Z</time>
      </trkpt>
      <trkpt lat="44.05722" lon="6.84547">
        <ele>947</ele>
        <time>2020-06-05T11:15:43.000Z</time>
      </trkpt>
      <trkpt lat="44.05722" lon="6.84547">
        <ele>947</ele>
        <time>2020-06-05T11:15:44.000Z</time>
      </trkpt>
      <trkpt lat="44.05722" lon="6.84547">
        <ele>947</ele>
        <time>2020-06-05T11:15:45.000Z</time>
      </trkpt>
      <trkpt lat="44.05722" lon="6.84547">
        <ele>947</ele>
        <time>2020-06-05T11:15:46.000Z</time>
      </trkpt>
      <trkpt lat="44.05722" lon="6.84547">
        <ele>947</ele>
        <time>2020-06-05T11:15:47.000Z</time>
      </trkpt>
      <trkpt lat="44.05722" lon="6.84547">
        <ele>947</ele>
        <time>2020-06-05T11:15:48.000Z</time>
      </trkpt>
      <trkpt lat="44.05722" lon="6.84547">
        <ele>947</ele>
        <time>2020-06-05T11:15:49.000Z</time>
      </trkpt>
      <trkpt lat="44.05722" lon="6.84547">
        <ele>947</ele>
        <time>2020-06-05T11:15:50.000Z</time>
      </trkpt>
      <trkpt lat="44.05722" lon="6.84547">
        <ele>947</ele>
        <time>2020-06-05T11:15:51.000Z</time>
      </trkpt>
      <trkpt lat="44.05722" lon="6.84547">
        <ele>947</ele>
        <time>2020-06-05T11:15:52.000Z</time>
      </trkpt>
      <trkpt lat="44.05722" lon="6.84547">
        <ele>947</ele>
        <time>2020-06-05T11:15:53.000Z</time>
      </trkpt>
      <trkpt lat="44.05722" lon="6.84547">
        <ele>947</ele>
        <time>2020-06-05T11:15:54.000Z</time>
      </trkpt>
      <trkpt lat="44.05722" lon="6.84547">
        <ele>947</ele>
        <time>2020-06-05T11:15:55.000Z</time>
      </trkpt>
      <trkpt lat="44.05722" lon="6.84547">
        <ele>947</ele>
        <time>2020-06-05T11:15:56.000Z</time>
      </trkpt>
      <trkpt lat="44.05722" lon="6.84547">
        <ele>947</ele>
        <time>2020-06-05T11:15:57.000Z</time>
      </trkpt>
      <trkpt lat="44.05722" lon="6.84547">
        <ele>947</ele>
        <time>2020-06-05T11:15:58.000Z</time>
      </trkpt>
      <trkpt lat="44.05722" lon="6.84547">
        <ele>947</ele>
        <time>2020-06-05T11:15:59.000Z</time>
      </trkpt>
      <trkpt lat="44.05722" lon="6.84547">
        <ele>947</ele>
        <time>2020-06-05T11:16:00.000Z</time>
      </trkpt>
      <trkpt lat="44.05722" lon="6.84547">
        <ele>947</ele>
        <time>2020-06-05T11:16:01.000Z</time>
      </trkpt>
      <trkpt lat="44.05722" lon="6.84547">
        <ele>947</ele>
        <time>2020-06-05T11:16:02.000Z</time>
      </trkpt>
      <trkpt lat="44.05722" lon="6.84547">
        <ele>947</ele>
        <time>2020-06-05T11:16:03.000Z</time>
      </trkpt>
      <trkpt lat="44.05722" lon="6.84547">
        <ele>947</ele>
        <time>2020-06-05T11:16:04.000Z</time>
      </trkpt>
      <trkpt lat="44.05722" lon="6.84547">
        <ele>947</ele>
        <time>2020-06-05T11:16:05.000Z</time>
      </trkpt>
      <trkpt lat="44.05722" lon="6.84547">
        <ele>947</ele>
        <time>2020-06-05T11:16:06.000Z</time>
      </trkpt>
      <trkpt lat="44.05722" lon="6.84547">
        <ele>947</ele>
        <time>2020-06-05T11:16:07.000Z</time>
      </trkpt>
      <trkpt lat="44.05722" lon="6.84547">
        <ele>947</ele>
        <time>2020-06-05T11:16:08.000Z</time>
      </trkpt>
      <trkpt lat="44.05722" lon="6.84547">
        <ele>947</ele>
        <time>2020-06-05T11:16:09.000Z</time>
      </trkpt>
      <trkpt lat="44.05722" lon="6.84547">
        <ele>947</ele>
        <time>2020-06-05T11:16:10.000Z</time>
      </trkpt>
      <trkpt lat="44.05722" lon="6.84547">
        <ele>947</ele>
        <time>2020-06-05T11:16:11.000Z</time>
      </trkpt>
      <trkpt lat="44.05722" lon="6.84547">
        <ele>947</ele>
        <time>2020-06-05T11:16:12.000Z</time>
      </trkpt>
      <trkpt lat="44.05722" lon="6.84547">
        <ele>947</ele>
        <time>2020-06-05T11:16:13.000Z</time>
      </trkpt>
      <trkpt lat="44.05722" lon="6.84547">
        <ele>947</ele>
        <time>2020-06-05T11:16:14.000Z</time>
      </trkpt>
      <trkpt lat="44.05722" lon="6.84547">
        <ele>947</ele>
        <time>2020-06-05T11:16:15.000Z</time>
      </trkpt>
      <trkpt lat="44.05722" lon="6.84547">
        <ele>947</ele>
        <time>2020-06-05T11:16:16.000Z</time>
      </trkpt>
      <trkpt lat="44.05722" lon="6.84547">
        <ele>947</ele>
        <time>2020-06-05T11:16:17.000Z</time>
      </trkpt>
      <trkpt lat="44.05722" lon="6.84547">
        <ele>947</ele>
        <time>2020-06-05T11:16:18.000Z</time>
      </trkpt>
      <trkpt lat="44.05722" lon="6.84547">
        <ele>947</ele>
        <time>2020-06-05T11:16:19.000Z</time>
      </trkpt>
      <trkpt lat="44.05722" lon="6.84547">
        <ele>947</ele>
        <time>2020-06-05T11:16:20.000Z</time>
      </trkpt>
      <trkpt lat="44.05722" lon="6.84548">
        <ele>947</ele>
        <time>2020-06-05T11:16:21.000Z</time>
      </trkpt>
      <trkpt lat="44.05722" lon="6.84548">
        <ele>947</ele>
        <time>2020-06-05T11:16:22.000Z</time>
      </trkpt>
      <trkpt lat="44.05722" lon="6.84548">
        <ele>947</ele>
        <time>2020-06-05T11:16:23.000Z</time>
      </trkpt>
      <trkpt lat="44.05722" lon="6.84548">
        <ele>947</ele>
        <time>2020-06-05T11:16:24.000Z</time>
      </trkpt>
      <trkpt lat="44.05722" lon="6.84548">
        <ele>947</ele>
        <time>2020-06-05T11:16:25.000Z</time>
      </trkpt>
      <trkpt lat="44.05722" lon="6.84548">
        <ele>947</ele>
        <time>2020-06-05T11:16:26.000Z</time>
      </trkpt>
      <trkpt lat="44.05722" lon="6.84548">
        <ele>947</ele>
        <time>2020-06-05T11:16:27.000Z</time>
      </trkpt>
      <trkpt lat="44.05722" lon="6.84548">
        <ele>947</ele>
        <time>2020-06-05T11:16:28.000Z</time>
      </trkpt>
      <trkpt lat="44.05722" lon="6.84548">
        <ele>947</ele>
        <time>2020-06-05T11:16:29.000Z</time>
      </trkpt>
      <trkpt lat="44.05722" lon="6.84548">
        <ele>947</ele>
        <time>2020-06-05T11:16:30.000Z</time>
      </trkpt>
      <trkpt lat="44.05722" lon="6.84548">
        <ele>948</ele>
        <time>2020-06-05T11:16:31.000Z</time>
      </trkpt>
      <trkpt lat="44.05722" lon="6.84548">
        <ele>948</ele>
        <time>2020-06-05T11:16:32.000Z</time>
      </trkpt>
      <trkpt lat="44.05722" lon="6.84548">
        <ele>948</ele>
        <time>2020-06-05T11:16:33.000Z</time>
      </trkpt>
      <trkpt lat="44.05722" lon="6.84548">
        <ele>948</ele>
        <time>2020-06-05T11:16:34.000Z</time>
      </trkpt>
      <trkpt lat="44.05722" lon="6.84548">
        <ele>948</ele>
        <time>2020-06-05T11:16:35.000Z</time>
      </trkpt>
      <trkpt lat="44.05722" lon="6.84548">
        <ele>948</ele>
        <time>2020-06-05T11:16:36.000Z</time>
      </trkpt>
      <trkpt lat="44.05722" lon="6.84548">
        <ele>948</ele>
        <time>2020-06-05T11:16:37.000Z</time>
      </trkpt>
      <trkpt lat="44.05722" lon="6.84548">
        <ele>948</ele>
        <time>2020-06-05T11:16:38.000Z</time>
      </trkpt>
      <trkpt lat="44.05722" lon="6.84548">
        <ele>948</ele>
        <time>2020-06-05T11:16:39.000Z</time>
      </trkpt>
      <trkpt lat="44.05722" lon="6.84548">
        <ele>948</ele>
        <time>2020-06-05T11:16:40.000Z</time>
      </trkpt>
      <trkpt lat="44.05722" lon="6.84548">
        <ele>948</ele>
        <time>2020-06-05T11:16:41.000Z</time>
      </trkpt>
      <trkpt lat="44.05722" lon="6.84548">
        <ele>948</ele>
        <time>2020-06-05T11:16:42.000Z</time>
      </trkpt>
      <trkpt lat="44.05722" lon="6.84548">
        <ele>948</ele>
        <time>2020-06-05T11:16:43.000Z</time>
      </trkpt>
      <trkpt lat="44.05722" lon="6.84548">
        <ele>948</ele>
        <time>2020-06-05T11:16:44.000Z</time>
      </trkpt>
      <trkpt lat="44.05722" lon="6.84548">
        <ele>948</ele>
        <time>2020-06-05T11:16:45.000Z</time>
      </trkpt>
      <trkpt lat="44.05722" lon="6.84548">
        <ele>948</ele>
        <time>2020-06-05T11:16:46.000Z</time>
      </trkpt>
      <trkpt lat="44.05722" lon="6.84548">
        <ele>948</ele>
        <time>2020-06-05T11:16:47.000Z</time>
      </trkpt>
      <trkpt lat="44.05722" lon="6.84548">
        <ele>948</ele>
        <time>2020-06-05T11:16:48.000Z</time>
      </trkpt>
      <trkpt lat="44.05722" lon="6.84548">
        <ele>948</ele>
        <time>2020-06-05T11:16:49.000Z</time>
      </trkpt>
      <trkpt lat="44.05722" lon="6.84548">
        <ele>948</ele>
        <time>2020-06-05T11:16:50.000Z</time>
      </trkpt>
      <trkpt lat="44.05722" lon="6.84548">
        <ele>948</ele>
        <time>2020-06-05T11:16:51.000Z</time>
      </trkpt>
      <trkpt lat="44.05722" lon="6.84548">
        <ele>948</ele>
        <time>2020-06-05T11:16:52.000Z</time>
      </trkpt>
      <trkpt lat="44.05723" lon="6.84548">
        <ele>948</ele>
        <time>2020-06-05T11:16:53.000Z</time>
      </trkpt>
      <trkpt lat="44.05723" lon="6.84548">
        <ele>948</ele>
        <time>2020-06-05T11:16:54.000Z</time>
      </trkpt>
      <trkpt lat="44.05723" lon="6.84548">
        <ele>948</ele>
        <time>2020-06-05T11:16:55.000Z</time>
      </trkpt>
      <trkpt lat="44.05723" lon="6.84548">
        <ele>948</ele>
        <time>2020-06-05T11:16:56.000Z</time>
      </trkpt>
      <trkpt lat="44.05723" lon="6.84548">
        <ele>948</ele>
        <time>2020-06-05T11:16:57.000Z</time>
      </trkpt>
      <trkpt lat="44.05723" lon="6.84548">
        <ele>948</ele>
        <time>2020-06-05T11:16:58.000Z</time>
      </trkpt>
      <trkpt lat="44.05723" lon="6.84548">
        <ele>948</ele>
        <time>2020-06-05T11:16:59.000Z</time>
      </trkpt>
      <trkpt lat="44.05723" lon="6.84548">
        <ele>948</ele>
        <time>2020-06-05T11:17:00.000Z</time>
      </trkpt>
      <trkpt lat="44.05722" lon="6.84548">
        <ele>948</ele>
        <time>2020-06-05T11:17:01.000Z</time>
      </trkpt>
      <trkpt lat="44.05722" lon="6.84547">
        <ele>948</ele>
        <time>2020-06-05T11:17:02.000Z</time>
      </trkpt>
      <trkpt lat="44.05722" lon="6.84547">
        <ele>948</ele>
        <time>2020-06-05T11:17:03.000Z</time>
      </trkpt>
      <trkpt lat="44.05722" lon="6.84547">
        <ele>948</ele>
        <time>2020-06-05T11:17:04.000Z</time>
      </trkpt>
      <trkpt lat="44.05722" lon="6.84547">
        <ele>948</ele>
        <time>2020-06-05T11:17:05.000Z</time>
      </trkpt>
      <trkpt lat="44.05722" lon="6.84547">
        <ele>948</ele>
        <time>2020-06-05T11:17:06.000Z</time>
      </trkpt>
      <trkpt lat="44.05722" lon="6.84547">
        <ele>948</ele>
        <time>2020-06-05T11:17:07.000Z</time>
      </trkpt>
      <trkpt lat="44.05722" lon="6.84547">
        <ele>947</ele>
        <time>2020-06-05T11:17:08.000Z</time>
      </trkpt>
      <trkpt lat="44.05722" lon="6.84547">
        <ele>947</ele>
        <time>2020-06-05T11:17:09.000Z</time>
      </trkpt>
      <trkpt lat="44.05722" lon="6.84547">
        <ele>947</ele>
        <time>2020-06-05T11:17:10.000Z</time>
      </trkpt>
      <trkpt lat="44.05722" lon="6.84547">
        <ele>947</ele>
        <time>2020-06-05T11:17:11.000Z</time>
      </trkpt>
      <trkpt lat="44.05722" lon="6.84547">
        <ele>947</ele>
        <time>2020-06-05T11:17:12.000Z</time>
      </trkpt>
      <trkpt lat="44.05722" lon="6.84547">
        <ele>947</ele>
        <time>2020-06-05T11:17:13.000Z</time>
      </trkpt>
      <trkpt lat="44.05722" lon="6.84547">
        <ele>947</ele>
        <time>2020-06-05T11:17:14.000Z</time>
      </trkpt>
      <trkpt lat="44.05722" lon="6.84547">
        <ele>947</ele>
        <time>2020-06-05T11:17:15.000Z</time>
      </trkpt>
      <trkpt lat="44.05722" lon="6.84547">
        <ele>947</ele>
        <time>2020-06-05T11:17:16.000Z</time>
      </trkpt>
      <trkpt lat="44.05722" lon="6.84547">
        <ele>947</ele>
        <time>2020-06-05T11:17:17.000Z</time>
      </trkpt>
      <trkpt lat="44.05722" lon="6.84548">
        <ele>947</ele>
        <time>2020-06-05T11:17:18.000Z</time>
      </trkpt>
      <trkpt lat="44.05722" lon="6.84548">
        <ele>947</ele>
        <time>2020-06-05T11:17:19.000Z</time>
      </trkpt>
      <trkpt lat="44.05722" lon="6.84548">
        <ele>947</ele>
        <time>2020-06-05T11:17:20.000Z</time>
      </trkpt>
      <trkpt lat="44.05722" lon="6.84548">
        <ele>947</ele>
        <time>2020-06-05T11:17:21.000Z</time>
      </trkpt>
      <trkpt lat="44.05722" lon="6.84548">
        <ele>947</ele>
        <time>2020-06-05T11:17:22.000Z</time>
      </trkpt>
      <trkpt lat="44.05722" lon="6.84548">
        <ele>947</ele>
        <time>2020-06-05T11:17:23.000Z</time>
      </trkpt>
      <trkpt lat="44.05722" lon="6.84548">
        <ele>947</ele>
        <time>2020-06-05T11:17:24.000Z</time>
      </trkpt>
      <trkpt lat="44.05722" lon="6.84548">
        <ele>947</ele>
        <time>2020-06-05T11:17:25.000Z</time>
      </trkpt>
      <trkpt lat="44.05722" lon="6.84548">
        <ele>947</ele>
        <time>2020-06-05T11:17:26.000Z</time>
      </trkpt>
      <trkpt lat="44.05722" lon="6.84548">
        <ele>947</ele>
        <time>2020-06-05T11:17:27.000Z</time>
      </trkpt>
      <trkpt lat="44.05722" lon="6.84548">
        <ele>947</ele>
        <time>2020-06-05T11:17:28.000Z</time>
      </trkpt>
      <trkpt lat="44.05722" lon="6.84547">
        <ele>947</ele>
        <time>2020-06-05T11:17:29.000Z</time>
      </trkpt>
      <trkpt lat="44.05722" lon="6.84547">
        <ele>947</ele>
        <time>2020-06-05T11:17:30.000Z</time>
      </trkpt>
      <trkpt lat="44.05722" lon="6.84547">
        <ele>947</ele>
        <time>2020-06-05T11:17:31.000Z</time>
      </trkpt>
      <trkpt lat="44.05722" lon="6.84547">
        <ele>947</ele>
        <time>2020-06-05T11:17:32.000Z</time>
      </trkpt>
      <trkpt lat="44.05722" lon="6.84547">
        <ele>947</ele>
        <time>2020-06-05T11:17:33.000Z</time>
      </trkpt>
      <trkpt lat="44.05722" lon="6.84547">
        <ele>947</ele>
        <time>2020-06-05T11:17:34.000Z</time>
      </trkpt>
      <trkpt lat="44.05722" lon="6.84547">
        <ele>947</ele>
        <time>2020-06-05T11:17:35.000Z</time>
      </trkpt>
      <trkpt lat="44.05722" lon="6.84547">
        <ele>947</ele>
        <time>2020-06-05T11:17:36.000Z</time>
      </trkpt>
      <trkpt lat="44.05722" lon="6.84546">
        <ele>948</ele>
        <time>2020-06-05T11:17:37.000Z</time>
      </trkpt>
      <trkpt lat="44.05722" lon="6.84546">
        <ele>948</ele>
        <time>2020-06-05T11:17:38.000Z</time>
      </trkpt>
      <trkpt lat="44.05722" lon="6.84546">
        <ele>948</ele>
        <time>2020-06-05T11:17:39.000Z</time>
      </trkpt>
      <trkpt lat="44.05722" lon="6.84546">
        <ele>948</ele>
        <time>2020-06-05T11:17:40.000Z</time>
      </trkpt>
      <trkpt lat="44.05722" lon="6.84546">
        <ele>948</ele>
        <time>2020-06-05T11:17:41.000Z</time>
      </trkpt>
      <trkpt lat="44.05722" lon="6.84546">
        <ele>948</ele>
        <time>2020-06-05T11:17:42.000Z</time>
      </trkpt>
      <trkpt lat="44.05722" lon="6.84546">
        <ele>948</ele>
        <time>2020-06-05T11:17:43.000Z</time>
      </trkpt>
      <trkpt lat="44.05722" lon="6.84546">
        <ele>948</ele>
        <time>2020-06-05T11:17:44.000Z</time>
      </trkpt>
      <trkpt lat="44.05722" lon="6.84546">
        <ele>948</ele>
        <time>2020-06-05T11:17:45.000Z</time>
      </trkpt>
      <trkpt lat="44.05722" lon="6.84547">
        <ele>948</ele>
        <time>2020-06-05T11:17:46.000Z</time>
      </trkpt>
      <trkpt lat="44.05722" lon="6.84548">
        <ele>948</ele>
        <time>2020-06-05T11:17:47.000Z</time>
      </trkpt>
      <trkpt lat="44.05722" lon="6.84549">
        <ele>948</ele>
        <time>2020-06-05T11:17:48.000Z</time>
      </trkpt>
      <trkpt lat="44.05722" lon="6.84549">
        <ele>948</ele>
        <time>2020-06-05T11:17:49.000Z</time>
      </trkpt>
      <trkpt lat="44.05722" lon="6.8455">
        <ele>948</ele>
        <time>2020-06-05T11:17:50.000Z</time>
      </trkpt>
      <trkpt lat="44.05722" lon="6.84551">
        <ele>948</ele>
        <time>2020-06-05T11:17:51.000Z</time>
      </trkpt>
      <trkpt lat="44.05722" lon="6.84551">
        <ele>948</ele>
        <time>2020-06-05T11:17:52.000Z</time>
      </trkpt>
      <trkpt lat="44.05722" lon="6.84551">
        <ele>948</ele>
        <time>2020-06-05T11:17:53.000Z</time>
      </trkpt>
      <trkpt lat="44.05722" lon="6.84551">
        <ele>948</ele>
        <time>2020-06-05T11:17:54.000Z</time>
      </trkpt>
      <trkpt lat="44.05722" lon="6.84552">
        <ele>948</ele>
        <time>2020-06-05T11:17:55.000Z</time>
      </trkpt>
      <trkpt lat="44.05722" lon="6.84552">
        <ele>948</ele>
        <time>2020-06-05T11:17:56.000Z</time>
      </trkpt>
      <trkpt lat="44.05722" lon="6.84552">
        <ele>948</ele>
        <time>2020-06-05T11:17:57.000Z</time>
      </trkpt>
      <trkpt lat="44.05722" lon="6.84552">
        <ele>948</ele>
        <time>2020-06-05T11:17:58.000Z</time>
      </trkpt>
      <trkpt lat="44.05722" lon="6.84552">
        <ele>948</ele>
        <time>2020-06-05T11:17:59.000Z</time>
      </trkpt>
      <trkpt lat="44.05722" lon="6.84552">
        <ele>948</ele>
        <time>2020-06-05T11:18:00.000Z</time>
      </trkpt>
      <trkpt lat="44.05722" lon="6.84552">
        <ele>948</ele>
        <time>2020-06-05T11:18:01.000Z</time>
      </trkpt>
      <trkpt lat="44.05722" lon="6.84552">
        <ele>948</ele>
        <time>2020-06-05T11:18:02.000Z</time>
      </trkpt>
      <trkpt lat="44.05722" lon="6.84552">
        <ele>948</ele>
        <time>2020-06-05T11:18:03.000Z</time>
      </trkpt>
      <trkpt lat="44.05722" lon="6.84552">
        <ele>948</ele>
        <time>2020-06-05T11:18:04.000Z</time>
      </trkpt>
      <trkpt lat="44.05722" lon="6.84552">
        <ele>948</ele>
        <time>2020-06-05T11:18:05.000Z</time>
      </trkpt>
      <trkpt lat="44.05722" lon="6.84551">
        <ele>948</ele>
        <time>2020-06-05T11:18:06.000Z</time>
      </trkpt>
      <trkpt lat="44.05722" lon="6.84551">
        <ele>948</ele>
        <time>2020-06-05T11:18:07.000Z</time>
      </trkpt>
      <trkpt lat="44.05722" lon="6.84551">
        <ele>948</ele>
        <time>2020-06-05T11:18:08.000Z</time>
      </trkpt>
      <trkpt lat="44.05722" lon="6.84551">
        <ele>948</ele>
        <time>2020-06-05T11:18:09.000Z</time>
      </trkpt>
      <trkpt lat="44.05722" lon="6.84551">
        <ele>948</ele>
        <time>2020-06-05T11:18:10.000Z</time>
      </trkpt>
      <trkpt lat="44.05722" lon="6.84551">
        <ele>948</ele>
        <time>2020-06-05T11:18:11.000Z</time>
      </trkpt>
      <trkpt lat="44.05722" lon="6.84551">
        <ele>948</ele>
        <time>2020-06-05T11:18:12.000Z</time>
      </trkpt>
      <trkpt lat="44.05722" lon="6.84551">
        <ele>948</ele>
        <time>2020-06-05T11:18:13.000Z</time>
      </trkpt>
      <trkpt lat="44.05722" lon="6.84551">
        <ele>948</ele>
        <time>2020-06-05T11:18:14.000Z</time>
      </trkpt>
      <trkpt lat="44.05722" lon="6.84551">
        <ele>948</ele>
        <time>2020-06-05T11:18:15.000Z</time>
      </trkpt>
      <trkpt lat="44.05722" lon="6.84551">
        <ele>948</ele>
        <time>2020-06-05T11:18:16.000Z</time>
      </trkpt>
      <trkpt lat="44.05722" lon="6.84551">
        <ele>948</ele>
        <time>2020-06-05T11:18:17.000Z</time>
      </trkpt>
      <trkpt lat="44.05722" lon="6.84551">
        <ele>948</ele>
        <time>2020-06-05T11:18:18.000Z</time>
      </trkpt>
      <trkpt lat="44.05722" lon="6.84551">
        <ele>948</ele>
        <time>2020-06-05T11:18:19.000Z</time>
      </trkpt>
      <trkpt lat="44.05722" lon="6.84551">
        <ele>948</ele>
        <time>2020-06-05T11:18:20.000Z</time>
      </trkpt>
      <trkpt lat="44.05722" lon="6.84551">
        <ele>948</ele>
        <time>2020-06-05T11:18:21.000Z</time>
      </trkpt>
      <trkpt lat="44.05722" lon="6.84551">
        <ele>948</ele>
        <time>2020-06-05T11:18:22.000Z</time>
      </trkpt>
      <trkpt lat="44.05722" lon="6.84551">
        <ele>948</ele>
        <time>2020-06-05T11:18:23.000Z</time>
      </trkpt>
      <trkpt lat="44.05722" lon="6.84551">
        <ele>948</ele>
        <time>2020-06-05T11:18:24.000Z</time>
      </trkpt>
      <trkpt lat="44.05722" lon="6.84551">
        <ele>948</ele>
        <time>2020-06-05T11:18:25.000Z</time>
      </trkpt>
      <trkpt lat="44.05722" lon="6.84552">
        <ele>948</ele>
        <time>2020-06-05T11:18:26.000Z</time>
      </trkpt>
      <trkpt lat="44.05722" lon="6.84552">
        <ele>948</ele>
        <time>2020-06-05T11:18:27.000Z</time>
      </trkpt>
      <trkpt lat="44.05722" lon="6.84553">
        <ele>948</ele>
        <time>2020-06-05T11:18:28.000Z</time>
      </trkpt>
      <trkpt lat="44.05722" lon="6.84553">
        <ele>948</ele>
        <time>2020-06-05T11:18:29.000Z</time>
      </trkpt>
      <trkpt lat="44.05722" lon="6.84553">
        <ele>949</ele>
        <time>2020-06-05T11:18:30.000Z</time>
      </trkpt>
      <trkpt lat="44.05722" lon="6.84553">
        <ele>949</ele>
        <time>2020-06-05T11:18:31.000Z</time>
      </trkpt>
      <trkpt lat="44.05722" lon="6.84553">
        <ele>949</ele>
        <time>2020-06-05T11:18:32.000Z</time>
      </trkpt>
      <trkpt lat="44.05722" lon="6.84553">
        <ele>949</ele>
        <time>2020-06-05T11:18:33.000Z</time>
      </trkpt>
      <trkpt lat="44.05722" lon="6.84553">
        <ele>949</ele>
        <time>2020-06-05T11:18:34.000Z</time>
      </trkpt>
      <trkpt lat="44.05722" lon="6.84553">
        <ele>949</ele>
        <time>2020-06-05T11:18:35.000Z</time>
      </trkpt>
      <trkpt lat="44.05722" lon="6.84553">
        <ele>949</ele>
        <time>2020-06-05T11:18:36.000Z</time>
      </trkpt>
      <trkpt lat="44.05722" lon="6.84553">
        <ele>949</ele>
        <time>2020-06-05T11:18:37.000Z</time>
      </trkpt>
      <trkpt lat="44.05723" lon="6.84553">
        <ele>949</ele>
        <time>2020-06-05T11:18:38.000Z</time>
      </trkpt>
      <trkpt lat="44.05723" lon="6.84554">
        <ele>949</ele>
        <time>2020-06-05T11:18:39.000Z</time>
      </trkpt>
      <trkpt lat="44.05723" lon="6.84555">
        <ele>949</ele>
        <time>2020-06-05T11:18:40.000Z</time>
      </trkpt>
      <trkpt lat="44.05723" lon="6.84556">
        <ele>949</ele>
        <time>2020-06-05T11:18:41.000Z</time>
      </trkpt>
      <trkpt lat="44.05723" lon="6.84557">
        <ele>949</ele>
        <time>2020-06-05T11:18:42.000Z</time>
      </trkpt>
      <trkpt lat="44.05723" lon="6.84559">
        <ele>949</ele>
        <time>2020-06-05T11:18:43.000Z</time>
      </trkpt>
      <trkpt lat="44.05723" lon="6.8456">
        <ele>949</ele>
        <time>2020-06-05T11:18:44.000Z</time>
      </trkpt>
      <trkpt lat="44.05723" lon="6.84562">
        <ele>949</ele>
        <time>2020-06-05T11:18:45.000Z</time>
      </trkpt>
      <trkpt lat="44.05723" lon="6.84563">
        <ele>949</ele>
        <time>2020-06-05T11:18:46.000Z</time>
      </trkpt>
      <trkpt lat="44.05724" lon="6.84564">
        <ele>949</ele>
        <time>2020-06-05T11:18:47.000Z</time>
      </trkpt>
      <trkpt lat="44.05724" lon="6.84566">
        <ele>950</ele>
        <time>2020-06-05T11:18:48.000Z</time>
      </trkpt>
      <trkpt lat="44.05724" lon="6.84567">
        <ele>950</ele>
        <time>2020-06-05T11:18:49.000Z</time>
      </trkpt>
      <trkpt lat="44.05725" lon="6.84568">
        <ele>950</ele>
        <time>2020-06-05T11:18:50.000Z</time>
      </trkpt>
      <trkpt lat="44.05725" lon="6.8457">
        <ele>950</ele>
        <time>2020-06-05T11:18:51.000Z</time>
      </trkpt>
      <trkpt lat="44.05726" lon="6.84571">
        <ele>950</ele>
        <time>2020-06-05T11:18:52.000Z</time>
      </trkpt>
      <trkpt lat="44.05726" lon="6.84572">
        <ele>950</ele>
        <time>2020-06-05T11:18:53.000Z</time>
      </trkpt>
      <trkpt lat="44.05726" lon="6.84573">
        <ele>950</ele>
        <time>2020-06-05T11:18:54.000Z</time>
      </trkpt>
      <trkpt lat="44.05727" lon="6.84575">
        <ele>950</ele>
        <time>2020-06-05T11:18:55.000Z</time>
      </trkpt>
      <trkpt lat="44.05727" lon="6.84576">
        <ele>950</ele>
        <time>2020-06-05T11:18:56.000Z</time>
      </trkpt>
      <trkpt lat="44.05727" lon="6.84578">
        <ele>950</ele>
        <time>2020-06-05T11:18:57.000Z</time>
      </trkpt>
      <trkpt lat="44.05728" lon="6.84579">
        <ele>950</ele>
        <time>2020-06-05T11:18:58.000Z</time>
      </trkpt>
      <trkpt lat="44.05728" lon="6.84581">
        <ele>950</ele>
        <time>2020-06-05T11:18:59.000Z</time>
      </trkpt>
      <trkpt lat="44.05729" lon="6.84583">
        <ele>950</ele>
        <time>2020-06-05T11:19:00.000Z</time>
      </trkpt>
      <trkpt lat="44.05729" lon="6.84584">
        <ele>950</ele>
        <time>2020-06-05T11:19:01.000Z</time>
      </trkpt>
      <trkpt lat="44.05729" lon="6.84585">
        <ele>950</ele>
        <time>2020-06-05T11:19:02.000Z</time>
      </trkpt>
      <trkpt lat="44.0573" lon="6.84587">
        <ele>950</ele>
        <time>2020-06-05T11:19:03.000Z</time>
      </trkpt>
      <trkpt lat="44.0573" lon="6.84588">
        <ele>950</ele>
        <time>2020-06-05T11:19:04.000Z</time>
      </trkpt>
      <trkpt lat="44.0573" lon="6.8459">
        <ele>950</ele>
        <time>2020-06-05T11:19:05.000Z</time>
      </trkpt>
      <trkpt lat="44.0573" lon="6.84591">
        <ele>950</ele>
        <time>2020-06-05T11:19:06.000Z</time>
      </trkpt>
      <trkpt lat="44.05731" lon="6.84593">
        <ele>950</ele>
        <time>2020-06-05T11:19:07.000Z</time>
      </trkpt>
      <trkpt lat="44.05731" lon="6.84594">
        <ele>951</ele>
        <time>2020-06-05T11:19:08.000Z</time>
      </trkpt>
      <trkpt lat="44.05731" lon="6.84596">
        <ele>951</ele>
        <time>2020-06-05T11:19:09.000Z</time>
      </trkpt>
      <trkpt lat="44.05731" lon="6.84597">
        <ele>951</ele>
        <time>2020-06-05T11:19:10.000Z</time>
      </trkpt>
      <trkpt lat="44.05732" lon="6.84599">
        <ele>951</ele>
        <time>2020-06-05T11:19:11.000Z</time>
      </trkpt>
      <trkpt lat="44.05732" lon="6.846">
        <ele>951</ele>
        <time>2020-06-05T11:19:12.000Z</time>
      </trkpt>
      <trkpt lat="44.05733" lon="6.84602">
        <ele>951</ele>
        <time>2020-06-05T11:19:13.000Z</time>
      </trkpt>
      <trkpt lat="44.05733" lon="6.84603">
        <ele>951</ele>
        <time>2020-06-05T11:19:14.000Z</time>
      </trkpt>
      <trkpt lat="44.05733" lon="6.84605">
        <ele>951</ele>
        <time>2020-06-05T11:19:15.000Z</time>
      </trkpt>
      <trkpt lat="44.05734" lon="6.84606">
        <ele>951</ele>
        <time>2020-06-05T11:19:16.000Z</time>
      </trkpt>
      <trkpt lat="44.05734" lon="6.84608">
        <ele>951</ele>
        <time>2020-06-05T11:19:17.000Z</time>
      </trkpt>
      <trkpt lat="44.05734" lon="6.84609">
        <ele>951</ele>
        <time>2020-06-05T11:19:18.000Z</time>
      </trkpt>
      <trkpt lat="44.05735" lon="6.84611">
        <ele>951</ele>
        <time>2020-06-05T11:19:19.000Z</time>
      </trkpt>
      <trkpt lat="44.05735" lon="6.84612">
        <ele>951</ele>
        <time>2020-06-05T11:19:20.000Z</time>
      </trkpt>
      <trkpt lat="44.05735" lon="6.84614">
        <ele>951</ele>
        <time>2020-06-05T11:19:21.000Z</time>
      </trkpt>
      <trkpt lat="44.05736" lon="6.84615">
        <ele>951</ele>
        <time>2020-06-05T11:19:22.000Z</time>
      </trkpt>
      <trkpt lat="44.05736" lon="6.84616">
        <ele>951</ele>
        <time>2020-06-05T11:19:23.000Z</time>
      </trkpt>
      <trkpt lat="44.05736" lon="6.84618">
        <ele>951</ele>
        <time>2020-06-05T11:19:24.000Z</time>
      </trkpt>
      <trkpt lat="44.05736" lon="6.8462">
        <ele>951</ele>
        <time>2020-06-05T11:19:25.000Z</time>
      </trkpt>
      <trkpt lat="44.05737" lon="6.84621">
        <ele>951</ele>
        <time>2020-06-05T11:19:26.000Z</time>
      </trkpt>
      <trkpt lat="44.05737" lon="6.84622">
        <ele>951</ele>
        <time>2020-06-05T11:19:27.000Z</time>
      </trkpt>
      <trkpt lat="44.05737" lon="6.84624">
        <ele>952</ele>
        <time>2020-06-05T11:19:28.000Z</time>
      </trkpt>
      <trkpt lat="44.05737" lon="6.84625">
        <ele>952</ele>
        <time>2020-06-05T11:19:29.000Z</time>
      </trkpt>
      <trkpt lat="44.05737" lon="6.84627">
        <ele>952</ele>
        <time>2020-06-05T11:19:30.000Z</time>
      </trkpt>
      <trkpt lat="44.05737" lon="6.84628">
        <ele>952</ele>
        <time>2020-06-05T11:19:31.000Z</time>
      </trkpt>
      <trkpt lat="44.05737" lon="6.8463">
        <ele>953</ele>
        <time>2020-06-05T11:19:32.000Z</time>
      </trkpt>
      <trkpt lat="44.05738" lon="6.84631">
        <ele>953</ele>
        <time>2020-06-05T11:19:33.000Z</time>
      </trkpt>
      <trkpt lat="44.05738" lon="6.84632">
        <ele>953</ele>
        <time>2020-06-05T11:19:34.000Z</time>
      </trkpt>
      <trkpt lat="44.05738" lon="6.84633">
        <ele>953</ele>
        <time>2020-06-05T11:19:35.000Z</time>
      </trkpt>
      <trkpt lat="44.05738" lon="6.84635">
        <ele>953</ele>
        <time>2020-06-05T11:19:36.000Z</time>
      </trkpt>
      <trkpt lat="44.05738" lon="6.84636">
        <ele>953</ele>
        <time>2020-06-05T11:19:37.000Z</time>
      </trkpt>
      <trkpt lat="44.05738" lon="6.84637">
        <ele>954</ele>
        <time>2020-06-05T11:19:38.000Z</time>
      </trkpt>
      <trkpt lat="44.05738" lon="6.84639">
        <ele>954</ele>
        <time>2020-06-05T11:19:39.000Z</time>
      </trkpt>
      <trkpt lat="44.05738" lon="6.8464">
        <ele>954</ele>
        <time>2020-06-05T11:19:40.000Z</time>
      </trkpt>
      <trkpt lat="44.05739" lon="6.84641">
        <ele>954</ele>
        <time>2020-06-05T11:19:41.000Z</time>
      </trkpt>
      <trkpt lat="44.05739" lon="6.84642">
        <ele>954</ele>
        <time>2020-06-05T11:19:42.000Z</time>
      </trkpt>
      <trkpt lat="44.05739" lon="6.84644">
        <ele>955</ele>
        <time>2020-06-05T11:19:43.000Z</time>
      </trkpt>
      <trkpt lat="44.0574" lon="6.84645">
        <ele>955</ele>
        <time>2020-06-05T11:19:44.000Z</time>
      </trkpt>
      <trkpt lat="44.0574" lon="6.84646">
        <ele>955</ele>
        <time>2020-06-05T11:19:45.000Z</time>
      </trkpt>
      <trkpt lat="44.0574" lon="6.84647">
        <ele>955</ele>
        <time>2020-06-05T11:19:46.000Z</time>
      </trkpt>
      <trkpt lat="44.0574" lon="6.84648">
        <ele>956</ele>
        <time>2020-06-05T11:19:47.000Z</time>
      </trkpt>
      <trkpt lat="44.0574" lon="6.8465">
        <ele>956</ele>
        <time>2020-06-05T11:19:48.000Z</time>
      </trkpt>
      <trkpt lat="44.05741" lon="6.84651">
        <ele>956</ele>
        <time>2020-06-05T11:19:49.000Z</time>
      </trkpt>
      <trkpt lat="44.05741" lon="6.84652">
        <ele>956</ele>
        <time>2020-06-05T11:19:50.000Z</time>
      </trkpt>
      <trkpt lat="44.05741" lon="6.84652">
        <ele>956</ele>
        <time>2020-06-05T11:19:51.000Z</time>
      </trkpt>
      <trkpt lat="44.05742" lon="6.84653">
        <ele>957</ele>
        <time>2020-06-05T11:19:52.000Z</time>
      </trkpt>
      <trkpt lat="44.05742" lon="6.84654">
        <ele>957</ele>
        <time>2020-06-05T11:19:53.000Z</time>
      </trkpt>
      <trkpt lat="44.05742" lon="6.84655">
        <ele>957</ele>
        <time>2020-06-05T11:19:54.000Z</time>
      </trkpt>
      <trkpt lat="44.05742" lon="6.84656">
        <ele>957</ele>
        <time>2020-06-05T11:19:55.000Z</time>
      </trkpt>
      <trkpt lat="44.05742" lon="6.84657">
        <ele>957</ele>
        <time>2020-06-05T11:19:56.000Z</time>
      </trkpt>
      <trkpt lat="44.05743" lon="6.84658">
        <ele>957</ele>
        <time>2020-06-05T11:19:57.000Z</time>
      </trkpt>
      <trkpt lat="44.05743" lon="6.84659">
        <ele>958</ele>
        <time>2020-06-05T11:19:58.000Z</time>
      </trkpt>
      <trkpt lat="44.05743" lon="6.84661">
        <ele>958</ele>
        <time>2020-06-05T11:19:59.000Z</time>
      </trkpt>
      <trkpt lat="44.05743" lon="6.84662">
        <ele>958</ele>
        <time>2020-06-05T11:20:00.000Z</time>
      </trkpt>
      <trkpt lat="44.05743" lon="6.84663">
        <ele>958</ele>
        <time>2020-06-05T11:20:01.000Z</time>
      </trkpt>
      <trkpt lat="44.05743" lon="6.84664">
        <ele>958</ele>
        <time>2020-06-05T11:20:02.000Z</time>
      </trkpt>
      <trkpt lat="44.05743" lon="6.84665">
        <ele>958</ele>
        <time>2020-06-05T11:20:03.000Z</time>
      </trkpt>
      <trkpt lat="44.05744" lon="6.84666">
        <ele>959</ele>
        <time>2020-06-05T11:20:04.000Z</time>
      </trkpt>
      <trkpt lat="44.05744" lon="6.84667">
        <ele>959</ele>
        <time>2020-06-05T11:20:05.000Z</time>
      </trkpt>
      <trkpt lat="44.05744" lon="6.84668">
        <ele>959</ele>
        <time>2020-06-05T11:20:06.000Z</time>
      </trkpt>
      <trkpt lat="44.05744" lon="6.8467">
        <ele>959</ele>
        <time>2020-06-05T11:20:07.000Z</time>
      </trkpt>
      <trkpt lat="44.05744" lon="6.84671">
        <ele>959</ele>
        <time>2020-06-05T11:20:08.000Z</time>
      </trkpt>
      <trkpt lat="44.05744" lon="6.84672">
        <ele>959</ele>
        <time>2020-06-05T11:20:09.000Z</time>
      </trkpt>
      <trkpt lat="44.05745" lon="6.84674">
        <ele>959</ele>
        <time>2020-06-05T11:20:10.000Z</time>
      </trkpt>
      <trkpt lat="44.05745" lon="6.84675">
        <ele>960</ele>
        <time>2020-06-05T11:20:11.000Z</time>
      </trkpt>
      <trkpt lat="44.05745" lon="6.84676">
        <ele>960</ele>
        <time>2020-06-05T11:20:12.000Z</time>
      </trkpt>
      <trkpt lat="44.05745" lon="6.84677">
        <ele>960</ele>
        <time>2020-06-05T11:20:13.000Z</time>
      </trkpt>
      <trkpt lat="44.05745" lon="6.84679">
        <ele>960</ele>
        <time>2020-06-05T11:20:14.000Z</time>
      </trkpt>
      <trkpt lat="44.05745" lon="6.8468">
        <ele>960</ele>
        <time>2020-06-05T11:20:15.000Z</time>
      </trkpt>
      <trkpt lat="44.05745" lon="6.84681">
        <ele>960</ele>
        <time>2020-06-05T11:20:16.000Z</time>
      </trkpt>
      <trkpt lat="44.05745" lon="6.84683">
        <ele>961</ele>
        <time>2020-06-05T11:20:17.000Z</time>
      </trkpt>
      <trkpt lat="44.05745" lon="6.84684">
        <ele>961</ele>
        <time>2020-06-05T11:20:18.000Z</time>
      </trkpt>
      <trkpt lat="44.05745" lon="6.84685">
        <ele>961</ele>
        <time>2020-06-05T11:20:19.000Z</time>
      </trkpt>
      <trkpt lat="44.05745" lon="6.84686">
        <ele>961</ele>
        <time>2020-06-05T11:20:20.000Z</time>
      </trkpt>
      <trkpt lat="44.05745" lon="6.84687">
        <ele>961</ele>
        <time>2020-06-05T11:20:21.000Z</time>
      </trkpt>
      <trkpt lat="44.05745" lon="6.84689">
        <ele>962</ele>
        <time>2020-06-05T11:20:22.000Z</time>
      </trkpt>
      <trkpt lat="44.05745" lon="6.8469">
        <ele>962</ele>
        <time>2020-06-05T11:20:23.000Z</time>
      </trkpt>
      <trkpt lat="44.05745" lon="6.84691">
        <ele>962</ele>
        <time>2020-06-05T11:20:24.000Z</time>
      </trkpt>
      <trkpt lat="44.05745" lon="6.84692">
        <ele>962</ele>
        <time>2020-06-05T11:20:25.000Z</time>
      </trkpt>
      <trkpt lat="44.05746" lon="6.84694">
        <ele>962</ele>
        <time>2020-06-05T11:20:26.000Z</time>
      </trkpt>
      <trkpt lat="44.05746" lon="6.84694">
        <ele>962</ele>
        <time>2020-06-05T11:20:27.000Z</time>
      </trkpt>
      <trkpt lat="44.05745" lon="6.84694">
        <ele>962</ele>
        <time>2020-06-05T11:20:28.000Z</time>
      </trkpt>
      <trkpt lat="44.05745" lon="6.84695">
        <ele>962</ele>
        <time>2020-06-05T11:20:29.000Z</time>
      </trkpt>
      <trkpt lat="44.05745" lon="6.84695">
        <ele>963</ele>
        <time>2020-06-05T11:20:30.000Z</time>
      </trkpt>
      <trkpt lat="44.05745" lon="6.84695">
        <ele>962</ele>
        <time>2020-06-05T11:20:31.000Z</time>
      </trkpt>
      <trkpt lat="44.05745" lon="6.84695">
        <ele>962</ele>
        <time>2020-06-05T11:20:32.000Z</time>
      </trkpt>
      <trkpt lat="44.05745" lon="6.84695">
        <ele>962</ele>
        <time>2020-06-05T11:20:33.000Z</time>
      </trkpt>
      <trkpt lat="44.05745" lon="6.84695">
        <ele>962</ele>
        <time>2020-06-05T11:20:34.000Z</time>
      </trkpt>
      <trkpt lat="44.05745" lon="6.84695">
        <ele>962</ele>
        <time>2020-06-05T11:20:35.000Z</time>
      </trkpt>
      <trkpt lat="44.05745" lon="6.84695">
        <ele>962</ele>
        <time>2020-06-05T11:20:36.000Z</time>
      </trkpt>
      <trkpt lat="44.05745" lon="6.84695">
        <ele>962</ele>
        <time>2020-06-05T11:20:37.000Z</time>
      </trkpt>
      <trkpt lat="44.05745" lon="6.84695">
        <ele>962</ele>
        <time>2020-06-05T11:20:38.000Z</time>
      </trkpt>
      <trkpt lat="44.05745" lon="6.84695">
        <ele>962</ele>
        <time>2020-06-05T11:20:39.000Z</time>
      </trkpt>
      <trkpt lat="44.05746" lon="6.84695">
        <ele>962</ele>
        <time>2020-06-05T11:20:40.000Z</time>
      </trkpt>
      <trkpt lat="44.05746" lon="6.84696">
        <ele>962</ele>
        <time>2020-06-05T11:20:41.000Z</time>
      </trkpt>
      <trkpt lat="44.05746" lon="6.84697">
        <ele>962</ele>
        <time>2020-06-05T11:20:42.000Z</time>
      </trkpt>
      <trkpt lat="44.05746" lon="6.84699">
        <ele>962</ele>
        <time>2020-06-05T11:20:43.000Z</time>
      </trkpt>
      <trkpt lat="44.05746" lon="6.847">
        <ele>963</ele>
        <time>2020-06-05T11:20:44.000Z</time>
      </trkpt>
      <trkpt lat="44.05746" lon="6.84701">
        <ele>963</ele>
        <time>2020-06-05T11:20:45.000Z</time>
      </trkpt>
      <trkpt lat="44.05746" lon="6.84702">
        <ele>963</ele>
        <time>2020-06-05T11:20:46.000Z</time>
      </trkpt>
      <trkpt lat="44.05746" lon="6.84703">
        <ele>963</ele>
        <time>2020-06-05T11:20:47.000Z</time>
      </trkpt>
      <trkpt lat="44.05745" lon="6.84705">
        <ele>963</ele>
        <time>2020-06-05T11:20:48.000Z</time>
      </trkpt>
      <trkpt lat="44.05745" lon="6.84706">
        <ele>963</ele>
        <time>2020-06-05T11:20:49.000Z</time>
      </trkpt>
      <trkpt lat="44.05745" lon="6.84707">
        <ele>963</ele>
        <time>2020-06-05T11:20:50.000Z</time>
      </trkpt>
      <trkpt lat="44.05745" lon="6.84708">
        <ele>963</ele>
        <time>2020-06-05T11:20:51.000Z</time>
      </trkpt>
      <trkpt lat="44.05745" lon="6.84709">
        <ele>964</ele>
        <time>2020-06-05T11:20:52.000Z</time>
      </trkpt>
      <trkpt lat="44.05745" lon="6.8471">
        <ele>964</ele>
        <time>2020-06-05T11:20:53.000Z</time>
      </trkpt>
      <trkpt lat="44.05745" lon="6.84711">
        <ele>964</ele>
        <time>2020-06-05T11:20:54.000Z</time>
      </trkpt>
      <trkpt lat="44.05745" lon="6.84712">
        <ele>964</ele>
        <time>2020-06-05T11:20:55.000Z</time>
      </trkpt>
      <trkpt lat="44.05745" lon="6.84712">
        <ele>964</ele>
        <time>2020-06-05T11:20:56.000Z</time>
      </trkpt>
      <trkpt lat="44.05745" lon="6.84713">
        <ele>964</ele>
        <time>2020-06-05T11:20:57.000Z</time>
      </trkpt>
      <trkpt lat="44.05745" lon="6.84713">
        <ele>965</ele>
        <time>2020-06-05T11:20:58.000Z</time>
      </trkpt>
      <trkpt lat="44.05745" lon="6.84713">
        <ele>965</ele>
        <time>2020-06-05T11:20:59.000Z</time>
      </trkpt>
      <trkpt lat="44.05745" lon="6.84713">
        <ele>964</ele>
        <time>2020-06-05T11:21:00.000Z</time>
      </trkpt>
      <trkpt lat="44.05745" lon="6.84713">
        <ele>964</ele>
        <time>2020-06-05T11:21:01.000Z</time>
      </trkpt>
      <trkpt lat="44.05745" lon="6.84713">
        <ele>964</ele>
        <time>2020-06-05T11:21:02.000Z</time>
      </trkpt>
      <trkpt lat="44.05745" lon="6.84713">
        <ele>964</ele>
        <time>2020-06-05T11:21:03.000Z</time>
      </trkpt>
      <trkpt lat="44.05745" lon="6.84713">
        <ele>964</ele>
        <time>2020-06-05T11:21:04.000Z</time>
      </trkpt>
      <trkpt lat="44.05745" lon="6.84713">
        <ele>964</ele>
        <time>2020-06-05T11:21:05.000Z</time>
      </trkpt>
      <trkpt lat="44.05745" lon="6.84713">
        <ele>964</ele>
        <time>2020-06-05T11:21:06.000Z</time>
      </trkpt>
      <trkpt lat="44.05745" lon="6.84713">
        <ele>964</ele>
        <time>2020-06-05T11:21:07.000Z</time>
      </trkpt>
      <trkpt lat="44.05745" lon="6.84713">
        <ele>964</ele>
        <time>2020-06-05T11:21:08.000Z</time>
      </trkpt>
      <trkpt lat="44.05745" lon="6.84713">
        <ele>964</ele>
        <time>2020-06-05T11:21:09.000Z</time>
      </trkpt>
      <trkpt lat="44.05745" lon="6.84713">
        <ele>964</ele>
        <time>2020-06-05T11:21:10.000Z</time>
      </trkpt>
      <trkpt lat="44.05745" lon="6.84713">
        <ele>964</ele>
        <time>2020-06-05T11:21:11.000Z</time>
      </trkpt>
      <trkpt lat="44.05745" lon="6.84713">
        <ele>964</ele>
        <time>2020-06-05T11:21:12.000Z</time>
      </trkpt>
      <trkpt lat="44.05745" lon="6.84713">
        <ele>964</ele>
        <time>2020-06-05T11:21:13.000Z</time>
      </trkpt>
      <trkpt lat="44.05745" lon="6.84713">
        <ele>964</ele>
        <time>2020-06-05T11:21:14.000Z</time>
      </trkpt>
      <trkpt lat="44.05745" lon="6.84713">
        <ele>964</ele>
        <time>2020-06-05T11:21:15.000Z</time>
      </trkpt>
      <trkpt lat="44.05745" lon="6.84713">
        <ele>964</ele>
        <time>2020-06-05T11:21:16.000Z</time>
      </trkpt>
      <trkpt lat="44.05745" lon="6.84712">
        <ele>964</ele>
        <time>2020-06-05T11:21:17.000Z</time>
      </trkpt>
      <trkpt lat="44.05745" lon="6.84712">
        <ele>964</ele>
        <time>2020-06-05T11:21:18.000Z</time>
      </trkpt>
      <trkpt lat="44.05745" lon="6.84712">
        <ele>964</ele>
        <time>2020-06-05T11:21:19.000Z</time>
      </trkpt>
      <trkpt lat="44.05745" lon="6.84712">
        <ele>964</ele>
        <time>2020-06-05T11:21:20.000Z</time>
      </trkpt>
      <trkpt lat="44.05745" lon="6.84712">
        <ele>964</ele>
        <time>2020-06-05T11:21:21.000Z</time>
      </trkpt>
      <trkpt lat="44.05745" lon="6.84712">
        <ele>964</ele>
        <time>2020-06-05T11:21:22.000Z</time>
      </trkpt>
      <trkpt lat="44.05744" lon="6.84712">
        <ele>964</ele>
        <time>2020-06-05T11:21:23.000Z</time>
      </trkpt>
      <trkpt lat="44.05744" lon="6.84712">
        <ele>964</ele>
        <time>2020-06-05T11:21:24.000Z</time>
      </trkpt>
      <trkpt lat="44.05744" lon="6.84712">
        <ele>964</ele>
        <time>2020-06-05T11:21:25.000Z</time>
      </trkpt>
      <trkpt lat="44.05744" lon="6.84712">
        <ele>964</ele>
        <time>2020-06-05T11:21:26.000Z</time>
      </trkpt>
      <trkpt lat="44.05744" lon="6.84712">
        <ele>964</ele>
        <time>2020-06-05T11:21:27.000Z</time>
      </trkpt>
      <trkpt lat="44.05744" lon="6.84712">
        <ele>964</ele>
        <time>2020-06-05T11:21:28.000Z</time>
      </trkpt>
      <trkpt lat="44.05744" lon="6.84712">
        <ele>964</ele>
        <time>2020-06-05T11:21:29.000Z</time>
      </trkpt>
      <trkpt lat="44.05744" lon="6.84712">
        <ele>964</ele>
        <time>2020-06-05T11:21:30.000Z</time>
      </trkpt>
      <trkpt lat="44.05744" lon="6.84712">
        <ele>964</ele>
        <time>2020-06-05T11:21:31.000Z</time>
      </trkpt>
      <trkpt lat="44.05744" lon="6.84712">
        <ele>964</ele>
        <time>2020-06-05T11:21:32.000Z</time>
      </trkpt>
      <trkpt lat="44.05744" lon="6.84712">
        <ele>964</ele>
        <time>2020-06-05T11:21:33.000Z</time>
      </trkpt>
      <trkpt lat="44.05744" lon="6.84712">
        <ele>964</ele>
        <time>2020-06-05T11:21:34.000Z</time>
      </trkpt>
      <trkpt lat="44.05744" lon="6.84712">
        <ele>964</ele>
        <time>2020-06-05T11:21:35.000Z</time>
      </trkpt>
      <trkpt lat="44.05744" lon="6.84712">
        <ele>964</ele>
        <time>2020-06-05T11:21:36.000Z</time>
      </trkpt>
      <trkpt lat="44.05745" lon="6.84713">
        <ele>964</ele>
        <time>2020-06-05T11:21:37.000Z</time>
      </trkpt>
      <trkpt lat="44.05745" lon="6.84713">
        <ele>964</ele>
        <time>2020-06-05T11:21:38.000Z</time>
      </trkpt>
      <trkpt lat="44.05745" lon="6.84714">
        <ele>964</ele>
        <time>2020-06-05T11:21:39.000Z</time>
      </trkpt>
      <trkpt lat="44.05745" lon="6.84715">
        <ele>964</ele>
        <time>2020-06-05T11:21:40.000Z</time>
      </trkpt>
      <trkpt lat="44.05745" lon="6.84717">
        <ele>964</ele>
        <time>2020-06-05T11:21:41.000Z</time>
      </trkpt>
      <trkpt lat="44.05745" lon="6.84718">
        <ele>964</ele>
        <time>2020-06-05T11:21:42.000Z</time>
      </trkpt>
      <trkpt lat="44.05745" lon="6.84719">
        <ele>965</ele>
        <time>2020-06-05T11:21:43.000Z</time>
      </trkpt>
      <trkpt lat="44.05745" lon="6.84721">
        <ele>965</ele>
        <time>2020-06-05T11:21:44.000Z</time>
      </trkpt>
      <trkpt lat="44.05745" lon="6.84722">
        <ele>965</ele>
        <time>2020-06-05T11:21:45.000Z</time>
      </trkpt>
      <trkpt lat="44.05745" lon="6.84723">
        <ele>965</ele>
        <time>2020-06-05T11:21:46.000Z</time>
      </trkpt>
      <trkpt lat="44.05745" lon="6.84724">
        <ele>965</ele>
        <time>2020-06-05T11:21:47.000Z</time>
      </trkpt>
      <trkpt lat="44.05745" lon="6.84726">
        <ele>965</ele>
        <time>2020-06-05T11:21:48.000Z</time>
      </trkpt>
      <trkpt lat="44.05745" lon="6.84727">
        <ele>965</ele>
        <time>2020-06-05T11:21:49.000Z</time>
      </trkpt>
      <trkpt lat="44.05745" lon="6.84728">
        <ele>965</ele>
        <time>2020-06-05T11:21:50.000Z</time>
      </trkpt>
      <trkpt lat="44.05745" lon="6.8473">
        <ele>965</ele>
        <time>2020-06-05T11:21:51.000Z</time>
      </trkpt>
      <trkpt lat="44.05745" lon="6.84731">
        <ele>966</ele>
        <time>2020-06-05T11:21:52.000Z</time>
      </trkpt>
      <trkpt lat="44.05745" lon="6.84732">
        <ele>966</ele>
        <time>2020-06-05T11:21:53.000Z</time>
      </trkpt>
      <trkpt lat="44.05744" lon="6.84734">
        <ele>966</ele>
        <time>2020-06-05T11:21:54.000Z</time>
      </trkpt>
      <trkpt lat="44.05744" lon="6.84735">
        <ele>966</ele>
        <time>2020-06-05T11:21:55.000Z</time>
      </trkpt>
      <trkpt lat="44.05745" lon="6.84736">
        <ele>966</ele>
        <time>2020-06-05T11:21:56.000Z</time>
      </trkpt>
      <trkpt lat="44.05745" lon="6.84737">
        <ele>966</ele>
        <time>2020-06-05T11:21:57.000Z</time>
      </trkpt>
      <trkpt lat="44.05745" lon="6.84738">
        <ele>966</ele>
        <time>2020-06-05T11:21:58.000Z</time>
      </trkpt>
      <trkpt lat="44.05745" lon="6.84739">
        <ele>966</ele>
        <time>2020-06-05T11:21:59.000Z</time>
      </trkpt>
      <trkpt lat="44.05745" lon="6.8474">
        <ele>966</ele>
        <time>2020-06-05T11:22:00.000Z</time>
      </trkpt>
      <trkpt lat="44.05745" lon="6.84741">
        <ele>967</ele>
        <time>2020-06-05T11:22:01.000Z</time>
      </trkpt>
      <trkpt lat="44.05745" lon="6.84742">
        <ele>967</ele>
        <time>2020-06-05T11:22:02.000Z</time>
      </trkpt>
      <trkpt lat="44.05745" lon="6.84744">
        <ele>967</ele>
        <time>2020-06-05T11:22:03.000Z</time>
      </trkpt>
      <trkpt lat="44.05745" lon="6.84745">
        <ele>967</ele>
        <time>2020-06-05T11:22:04.000Z</time>
      </trkpt>
      <trkpt lat="44.05745" lon="6.84746">
        <ele>967</ele>
        <time>2020-06-05T11:22:05.000Z</time>
      </trkpt>
      <trkpt lat="44.05745" lon="6.84747">
        <ele>967</ele>
        <time>2020-06-05T11:22:06.000Z</time>
      </trkpt>
      <trkpt lat="44.05745" lon="6.84749">
        <ele>967</ele>
        <time>2020-06-05T11:22:07.000Z</time>
      </trkpt>
      <trkpt lat="44.05745" lon="6.8475">
        <ele>967</ele>
        <time>2020-06-05T11:22:08.000Z</time>
      </trkpt>
      <trkpt lat="44.05745" lon="6.84751">
        <ele>967</ele>
        <time>2020-06-05T11:22:09.000Z</time>
      </trkpt>
      <trkpt lat="44.05746" lon="6.84752">
        <ele>967</ele>
        <time>2020-06-05T11:22:10.000Z</time>
      </trkpt>
      <trkpt lat="44.05746" lon="6.84753">
        <ele>967</ele>
        <time>2020-06-05T11:22:11.000Z</time>
      </trkpt>
      <trkpt lat="44.05747" lon="6.84754">
        <ele>967</ele>
        <time>2020-06-05T11:22:12.000Z</time>
      </trkpt>
      <trkpt lat="44.05748" lon="6.84755">
        <ele>967</ele>
        <time>2020-06-05T11:22:13.000Z</time>
      </trkpt>
      <trkpt lat="44.05748" lon="6.84755">
        <ele>967</ele>
        <time>2020-06-05T11:22:14.000Z</time>
      </trkpt>
      <trkpt lat="44.05749" lon="6.84756">
        <ele>968</ele>
        <time>2020-06-05T11:22:15.000Z</time>
      </trkpt>
      <trkpt lat="44.0575" lon="6.84757">
        <ele>968</ele>
        <time>2020-06-05T11:22:16.000Z</time>
      </trkpt>
      <trkpt lat="44.0575" lon="6.84758">
        <ele>968</ele>
        <time>2020-06-05T11:22:17.000Z</time>
      </trkpt>
      <trkpt lat="44.05751" lon="6.84758">
        <ele>968</ele>
        <time>2020-06-05T11:22:18.000Z</time>
      </trkpt>
      <trkpt lat="44.05751" lon="6.84759">
        <ele>968</ele>
        <time>2020-06-05T11:22:19.000Z</time>
      </trkpt>
      <trkpt lat="44.05752" lon="6.84759">
        <ele>968</ele>
        <time>2020-06-05T11:22:20.000Z</time>
      </trkpt>
      <trkpt lat="44.05752" lon="6.84759">
        <ele>968</ele>
        <time>2020-06-05T11:22:21.000Z</time>
      </trkpt>
      <trkpt lat="44.05753" lon="6.84759">
        <ele>968</ele>
        <time>2020-06-05T11:22:22.000Z</time>
      </trkpt>
      <trkpt lat="44.05754" lon="6.84759">
        <ele>968</ele>
        <time>2020-06-05T11:22:23.000Z</time>
      </trkpt>
      <trkpt lat="44.05754" lon="6.84758">
        <ele>968</ele>
        <time>2020-06-05T11:22:24.000Z</time>
      </trkpt>
      <trkpt lat="44.05755" lon="6.84758">
        <ele>969</ele>
        <time>2020-06-05T11:22:25.000Z</time>
      </trkpt>
      <trkpt lat="44.05756" lon="6.84759">
        <ele>969</ele>
        <time>2020-06-05T11:22:26.000Z</time>
      </trkpt>
      <trkpt lat="44.05757" lon="6.84759">
        <ele>969</ele>
        <time>2020-06-05T11:22:27.000Z</time>
      </trkpt>
      <trkpt lat="44.05757" lon="6.84759">
        <ele>969</ele>
        <time>2020-06-05T11:22:28.000Z</time>
      </trkpt>
      <trkpt lat="44.05758" lon="6.84759">
        <ele>969</ele>
        <time>2020-06-05T11:22:29.000Z</time>
      </trkpt>
      <trkpt lat="44.05759" lon="6.84759">
        <ele>969</ele>
        <time>2020-06-05T11:22:30.000Z</time>
      </trkpt>
      <trkpt lat="44.0576" lon="6.84759">
        <ele>969</ele>
        <time>2020-06-05T11:22:31.000Z</time>
      </trkpt>
      <trkpt lat="44.0576" lon="6.84759">
        <ele>969</ele>
        <time>2020-06-05T11:22:32.000Z</time>
      </trkpt>
      <trkpt lat="44.05761" lon="6.84759">
        <ele>969</ele>
        <time>2020-06-05T11:22:33.000Z</time>
      </trkpt>
      <trkpt lat="44.05762" lon="6.84759">
        <ele>970</ele>
        <time>2020-06-05T11:22:34.000Z</time>
      </trkpt>
      <trkpt lat="44.05763" lon="6.8476">
        <ele>970</ele>
        <time>2020-06-05T11:22:35.000Z</time>
      </trkpt>
      <trkpt lat="44.05763" lon="6.8476">
        <ele>970</ele>
        <time>2020-06-05T11:22:36.000Z</time>
      </trkpt>
      <trkpt lat="44.05764" lon="6.84759">
        <ele>970</ele>
        <time>2020-06-05T11:22:37.000Z</time>
      </trkpt>
      <trkpt lat="44.05764" lon="6.8476">
        <ele>970</ele>
        <time>2020-06-05T11:22:38.000Z</time>
      </trkpt>
      <trkpt lat="44.05765" lon="6.8476">
        <ele>970</ele>
        <time>2020-06-05T11:22:39.000Z</time>
      </trkpt>
      <trkpt lat="44.05765" lon="6.8476">
        <ele>970</ele>
        <time>2020-06-05T11:22:40.000Z</time>
      </trkpt>
      <trkpt lat="44.05766" lon="6.8476">
        <ele>970</ele>
        <time>2020-06-05T11:22:41.000Z</time>
      </trkpt>
      <trkpt lat="44.05766" lon="6.8476">
        <ele>971</ele>
        <time>2020-06-05T11:22:42.000Z</time>
      </trkpt>
      <trkpt lat="44.05767" lon="6.8476">
        <ele>971</ele>
        <time>2020-06-05T11:22:43.000Z</time>
      </trkpt>
      <trkpt lat="44.05767" lon="6.8476">
        <ele>971</ele>
        <time>2020-06-05T11:22:44.000Z</time>
      </trkpt>
      <trkpt lat="44.05767" lon="6.8476">
        <ele>971</ele>
        <time>2020-06-05T11:22:45.000Z</time>
      </trkpt>
      <trkpt lat="44.05767" lon="6.8476">
        <ele>971</ele>
        <time>2020-06-05T11:22:46.000Z</time>
      </trkpt>
      <trkpt lat="44.05768" lon="6.8476">
        <ele>971</ele>
        <time>2020-06-05T11:22:47.000Z</time>
      </trkpt>
      <trkpt lat="44.05768" lon="6.8476">
        <ele>971</ele>
        <time>2020-06-05T11:22:48.000Z</time>
      </trkpt>
      <trkpt lat="44.05768" lon="6.8476">
        <ele>972</ele>
        <time>2020-06-05T11:22:49.000Z</time>
      </trkpt>
      <trkpt lat="44.05768" lon="6.8476">
        <ele>972</ele>
        <time>2020-06-05T11:22:50.000Z</time>
      </trkpt>
      <trkpt lat="44.05768" lon="6.8476">
        <ele>972</ele>
        <time>2020-06-05T11:22:51.000Z</time>
      </trkpt>
      <trkpt lat="44.05769" lon="6.8476">
        <ele>972</ele>
        <time>2020-06-05T11:22:52.000Z</time>
      </trkpt>
      <trkpt lat="44.05769" lon="6.8476">
        <ele>972</ele>
        <time>2020-06-05T11:22:53.000Z</time>
      </trkpt>
      <trkpt lat="44.05769" lon="6.8476">
        <ele>972</ele>
        <time>2020-06-05T11:22:54.000Z</time>
      </trkpt>
      <trkpt lat="44.05769" lon="6.8476">
        <ele>972</ele>
        <time>2020-06-05T11:22:55.000Z</time>
      </trkpt>
      <trkpt lat="44.05769" lon="6.8476">
        <ele>972</ele>
        <time>2020-06-05T11:22:56.000Z</time>
      </trkpt>
      <trkpt lat="44.0577" lon="6.8476">
        <ele>972</ele>
        <time>2020-06-05T11:22:57.000Z</time>
      </trkpt>
      <trkpt lat="44.0577" lon="6.8476">
        <ele>972</ele>
        <time>2020-06-05T11:22:58.000Z</time>
      </trkpt>
      <trkpt lat="44.0577" lon="6.8476">
        <ele>973</ele>
        <time>2020-06-05T11:22:59.000Z</time>
      </trkpt>
      <trkpt lat="44.0577" lon="6.8476">
        <ele>973</ele>
        <time>2020-06-05T11:23:00.000Z</time>
      </trkpt>
      <trkpt lat="44.0577" lon="6.8476">
        <ele>973</ele>
        <time>2020-06-05T11:23:01.000Z</time>
      </trkpt>
      <trkpt lat="44.0577" lon="6.8476">
        <ele>973</ele>
        <time>2020-06-05T11:23:02.000Z</time>
      </trkpt>
      <trkpt lat="44.0577" lon="6.8476">
        <ele>973</ele>
        <time>2020-06-05T11:23:03.000Z</time>
      </trkpt>
      <trkpt lat="44.05771" lon="6.8476">
        <ele>973</ele>
        <time>2020-06-05T11:23:04.000Z</time>
      </trkpt>
      <trkpt lat="44.05771" lon="6.8476">
        <ele>973</ele>
        <time>2020-06-05T11:23:05.000Z</time>
      </trkpt>
      <trkpt lat="44.05771" lon="6.8476">
        <ele>973</ele>
        <time>2020-06-05T11:23:06.000Z</time>
      </trkpt>
      <trkpt lat="44.05771" lon="6.8476">
        <ele>973</ele>
        <time>2020-06-05T11:23:07.000Z</time>
      </trkpt>
      <trkpt lat="44.05771" lon="6.8476">
        <ele>973</ele>
        <time>2020-06-05T11:23:08.000Z</time>
      </trkpt>
      <trkpt lat="44.05771" lon="6.8476">
        <ele>973</ele>
        <time>2020-06-05T11:23:09.000Z</time>
      </trkpt>
      <trkpt lat="44.05771" lon="6.8476">
        <ele>973</ele>
        <time>2020-06-05T11:23:10.000Z</time>
      </trkpt>
      <trkpt lat="44.05771" lon="6.8476">
        <ele>973</ele>
        <time>2020-06-05T11:23:11.000Z</time>
      </trkpt>
      <trkpt lat="44.05772" lon="6.84761">
        <ele>973</ele>
        <time>2020-06-05T11:23:12.000Z</time>
      </trkpt>
      <trkpt lat="44.05772" lon="6.84761">
        <ele>974</ele>
        <time>2020-06-05T11:23:13.000Z</time>
      </trkpt>
      <trkpt lat="44.05772" lon="6.84761">
        <ele>974</ele>
        <time>2020-06-05T11:23:14.000Z</time>
      </trkpt>
      <trkpt lat="44.05772" lon="6.84761">
        <ele>974</ele>
        <time>2020-06-05T11:23:15.000Z</time>
      </trkpt>
      <trkpt lat="44.05772" lon="6.84761">
        <ele>974</ele>
        <time>2020-06-05T11:23:16.000Z</time>
      </trkpt>
      <trkpt lat="44.05772" lon="6.84761">
        <ele>974</ele>
        <time>2020-06-05T11:23:17.000Z</time>
      </trkpt>
      <trkpt lat="44.05772" lon="6.84761">
        <ele>974</ele>
        <time>2020-06-05T11:23:18.000Z</time>
      </trkpt>
      <trkpt lat="44.05772" lon="6.84761">
        <ele>974</ele>
        <time>2020-06-05T11:23:19.000Z</time>
      </trkpt>
      <trkpt lat="44.05772" lon="6.84762">
        <ele>974</ele>
        <time>2020-06-05T11:23:20.000Z</time>
      </trkpt>
      <trkpt lat="44.05772" lon="6.84761">
        <ele>974</ele>
        <time>2020-06-05T11:23:21.000Z</time>
      </trkpt>
      <trkpt lat="44.05772" lon="6.84761">
        <ele>974</ele>
        <time>2020-06-05T11:23:22.000Z</time>
      </trkpt>
      <trkpt lat="44.05773" lon="6.84761">
        <ele>974</ele>
        <time>2020-06-05T11:23:23.000Z</time>
      </trkpt>
      <trkpt lat="44.05773" lon="6.84762">
        <ele>974</ele>
        <time>2020-06-05T11:23:24.000Z</time>
      </trkpt>
      <trkpt lat="44.05773" lon="6.84762">
        <ele>974</ele>
        <time>2020-06-05T11:23:25.000Z</time>
      </trkpt>
      <trkpt lat="44.05773" lon="6.84762">
        <ele>974</ele>
        <time>2020-06-05T11:23:26.000Z</time>
      </trkpt>
      <trkpt lat="44.05773" lon="6.84762">
        <ele>974</ele>
        <time>2020-06-05T11:23:27.000Z</time>
      </trkpt>
      <trkpt lat="44.05773" lon="6.84762">
        <ele>974</ele>
        <time>2020-06-05T11:23:28.000Z</time>
      </trkpt>
      <trkpt lat="44.05773" lon="6.84763">
        <ele>975</ele>
        <time>2020-06-05T11:23:29.000Z</time>
      </trkpt>
      <trkpt lat="44.05773" lon="6.84763">
        <ele>975</ele>
        <time>2020-06-05T11:23:30.000Z</time>
      </trkpt>
      <trkpt lat="44.05773" lon="6.84764">
        <ele>975</ele>
        <time>2020-06-05T11:23:31.000Z</time>
      </trkpt>
      <trkpt lat="44.05773" lon="6.84764">
        <ele>975</ele>
        <time>2020-06-05T11:23:32.000Z</time>
      </trkpt>
      <trkpt lat="44.05773" lon="6.84765">
        <ele>975</ele>
        <time>2020-06-05T11:23:33.000Z</time>
      </trkpt>
      <trkpt lat="44.05774" lon="6.84765">
        <ele>975</ele>
        <time>2020-06-05T11:23:34.000Z</time>
      </trkpt>
      <trkpt lat="44.05774" lon="6.84766">
        <ele>975</ele>
        <time>2020-06-05T11:23:35.000Z</time>
      </trkpt>
      <trkpt lat="44.05774" lon="6.84766">
        <ele>975</ele>
        <time>2020-06-05T11:23:36.000Z</time>
      </trkpt>
      <trkpt lat="44.05774" lon="6.84766">
        <ele>975</ele>
        <time>2020-06-05T11:23:37.000Z</time>
      </trkpt>
      <trkpt lat="44.05775" lon="6.84767">
        <ele>975</ele>
        <time>2020-06-05T11:23:38.000Z</time>
      </trkpt>
      <trkpt lat="44.05775" lon="6.84767">
        <ele>975</ele>
        <time>2020-06-05T11:23:39.000Z</time>
      </trkpt>
      <trkpt lat="44.05775" lon="6.84767">
        <ele>975</ele>
        <time>2020-06-05T11:23:40.000Z</time>
      </trkpt>
      <trkpt lat="44.05775" lon="6.84768">
        <ele>975</ele>
        <time>2020-06-05T11:23:41.000Z</time>
      </trkpt>
      <trkpt lat="44.05776" lon="6.84768">
        <ele>975</ele>
        <time>2020-06-05T11:23:42.000Z</time>
      </trkpt>
      <trkpt lat="44.05776" lon="6.84768">
        <ele>975</ele>
        <time>2020-06-05T11:23:43.000Z</time>
      </trkpt>
      <trkpt lat="44.05776" lon="6.84769">
        <ele>975</ele>
        <time>2020-06-05T11:23:44.000Z</time>
      </trkpt>
      <trkpt lat="44.05776" lon="6.8477">
        <ele>975</ele>
        <time>2020-06-05T11:23:45.000Z</time>
      </trkpt>
      <trkpt lat="44.05776" lon="6.8477">
        <ele>975</ele>
        <time>2020-06-05T11:23:46.000Z</time>
      </trkpt>
      <trkpt lat="44.05776" lon="6.84771">
        <ele>975</ele>
        <time>2020-06-05T11:23:47.000Z</time>
      </trkpt>
      <trkpt lat="44.05777" lon="6.84771">
        <ele>975</ele>
        <time>2020-06-05T11:23:48.000Z</time>
      </trkpt>
      <trkpt lat="44.05777" lon="6.84772">
        <ele>975</ele>
        <time>2020-06-05T11:23:49.000Z</time>
      </trkpt>
      <trkpt lat="44.05777" lon="6.84772">
        <ele>975</ele>
        <time>2020-06-05T11:23:50.000Z</time>
      </trkpt>
      <trkpt lat="44.05777" lon="6.84773">
        <ele>975</ele>
        <time>2020-06-05T11:23:51.000Z</time>
      </trkpt>
      <trkpt lat="44.05778" lon="6.84773">
        <ele>975</ele>
        <time>2020-06-05T11:23:52.000Z</time>
      </trkpt>
      <trkpt lat="44.05778" lon="6.84773">
        <ele>975</ele>
        <time>2020-06-05T11:23:53.000Z</time>
      </trkpt>
      <trkpt lat="44.05778" lon="6.84774">
        <ele>975</ele>
        <time>2020-06-05T11:23:54.000Z</time>
      </trkpt>
      <trkpt lat="44.05778" lon="6.84774">
        <ele>975</ele>
        <time>2020-06-05T11:23:55.000Z</time>
      </trkpt>
      <trkpt lat="44.05779" lon="6.84775">
        <ele>975</ele>
        <time>2020-06-05T11:23:56.000Z</time>
      </trkpt>
      <trkpt lat="44.05779" lon="6.84776">
        <ele>975</ele>
        <time>2020-06-05T11:23:57.000Z</time>
      </trkpt>
      <trkpt lat="44.05779" lon="6.84777">
        <ele>975</ele>
        <time>2020-06-05T11:23:58.000Z</time>
      </trkpt>
      <trkpt lat="44.0578" lon="6.84777">
        <ele>974</ele>
        <time>2020-06-05T11:23:59.000Z</time>
      </trkpt>
      <trkpt lat="44.05781" lon="6.84778">
        <ele>974</ele>
        <time>2020-06-05T11:24:00.000Z</time>
      </trkpt>
      <trkpt lat="44.05781" lon="6.84779">
        <ele>974</ele>
        <time>2020-06-05T11:24:01.000Z</time>
      </trkpt>
      <trkpt lat="44.05782" lon="6.8478">
        <ele>974</ele>
        <time>2020-06-05T11:24:02.000Z</time>
      </trkpt>
      <trkpt lat="44.05782" lon="6.84781">
        <ele>974</ele>
        <time>2020-06-05T11:24:03.000Z</time>
      </trkpt>
      <trkpt lat="44.05783" lon="6.84782">
        <ele>974</ele>
        <time>2020-06-05T11:24:04.000Z</time>
      </trkpt>
      <trkpt lat="44.05783" lon="6.84782">
        <ele>974</ele>
        <time>2020-06-05T11:24:05.000Z</time>
      </trkpt>
      <trkpt lat="44.05783" lon="6.84782">
        <ele>974</ele>
        <time>2020-06-05T11:24:06.000Z</time>
      </trkpt>
      <trkpt lat="44.05784" lon="6.84783">
        <ele>973</ele>
        <time>2020-06-05T11:24:07.000Z</time>
      </trkpt>
      <trkpt lat="44.05784" lon="6.84784">
        <ele>973</ele>
        <time>2020-06-05T11:24:08.000Z</time>
      </trkpt>
      <trkpt lat="44.05785" lon="6.84784">
        <ele>973</ele>
        <time>2020-06-05T11:24:09.000Z</time>
      </trkpt>
      <trkpt lat="44.05785" lon="6.84785">
        <ele>973</ele>
        <time>2020-06-05T11:24:10.000Z</time>
      </trkpt>
      <trkpt lat="44.05786" lon="6.84785">
        <ele>973</ele>
        <time>2020-06-05T11:24:11.000Z</time>
      </trkpt>
      <trkpt lat="44.05786" lon="6.84786">
        <ele>973</ele>
        <time>2020-06-05T11:24:12.000Z</time>
      </trkpt>
      <trkpt lat="44.05787" lon="6.84787">
        <ele>973</ele>
        <time>2020-06-05T11:24:13.000Z</time>
      </trkpt>
      <trkpt lat="44.05788" lon="6.84788">
        <ele>973</ele>
        <time>2020-06-05T11:24:14.000Z</time>
      </trkpt>
      <trkpt lat="44.05788" lon="6.84789">
        <ele>973</ele>
        <time>2020-06-05T11:24:15.000Z</time>
      </trkpt>
      <trkpt lat="44.05789" lon="6.84789">
        <ele>973</ele>
        <time>2020-06-05T11:24:16.000Z</time>
      </trkpt>
      <trkpt lat="44.05789" lon="6.8479">
        <ele>974</ele>
        <time>2020-06-05T11:24:17.000Z</time>
      </trkpt>
      <trkpt lat="44.0579" lon="6.8479">
        <ele>974</ele>
        <time>2020-06-05T11:24:18.000Z</time>
      </trkpt>
      <trkpt lat="44.0579" lon="6.84791">
        <ele>974</ele>
        <time>2020-06-05T11:24:19.000Z</time>
      </trkpt>
      <trkpt lat="44.0579" lon="6.84792">
        <ele>974</ele>
        <time>2020-06-05T11:24:20.000Z</time>
      </trkpt>
      <trkpt lat="44.05791" lon="6.84793">
        <ele>974</ele>
        <time>2020-06-05T11:24:21.000Z</time>
      </trkpt>
      <trkpt lat="44.05791" lon="6.84794">
        <ele>974</ele>
        <time>2020-06-05T11:24:22.000Z</time>
      </trkpt>
      <trkpt lat="44.05791" lon="6.84794">
        <ele>974</ele>
        <time>2020-06-05T11:24:23.000Z</time>
      </trkpt>
      <trkpt lat="44.05792" lon="6.84795">
        <ele>973</ele>
        <time>2020-06-05T11:24:24.000Z</time>
      </trkpt>
      <trkpt lat="44.05793" lon="6.84796">
        <ele>973</ele>
        <time>2020-06-05T11:24:25.000Z</time>
      </trkpt>
      <trkpt lat="44.05794" lon="6.84797">
        <ele>973</ele>
        <time>2020-06-05T11:24:26.000Z</time>
      </trkpt>
      <trkpt lat="44.05794" lon="6.84799">
        <ele>973</ele>
        <time>2020-06-05T11:24:27.000Z</time>
      </trkpt>
      <trkpt lat="44.05795" lon="6.848">
        <ele>973</ele>
        <time>2020-06-05T11:24:28.000Z</time>
      </trkpt>
      <trkpt lat="44.05796" lon="6.84801">
        <ele>973</ele>
        <time>2020-06-05T11:24:29.000Z</time>
      </trkpt>
      <trkpt lat="44.05796" lon="6.84802">
        <ele>973</ele>
        <time>2020-06-05T11:24:30.000Z</time>
      </trkpt>
      <trkpt lat="44.05797" lon="6.84803">
        <ele>973</ele>
        <time>2020-06-05T11:24:31.000Z</time>
      </trkpt>
      <trkpt lat="44.05797" lon="6.84804">
        <ele>972</ele>
        <time>2020-06-05T11:24:32.000Z</time>
      </trkpt>
      <trkpt lat="44.05798" lon="6.84805">
        <ele>972</ele>
        <time>2020-06-05T11:24:33.000Z</time>
      </trkpt>
      <trkpt lat="44.05799" lon="6.84806">
        <ele>972</ele>
        <time>2020-06-05T11:24:34.000Z</time>
      </trkpt>
      <trkpt lat="44.05799" lon="6.84806">
        <ele>972</ele>
        <time>2020-06-05T11:24:35.000Z</time>
      </trkpt>
      <trkpt lat="44.058" lon="6.84807">
        <ele>972</ele>
        <time>2020-06-05T11:24:36.000Z</time>
      </trkpt>
      <trkpt lat="44.05801" lon="6.84808">
        <ele>972</ele>
        <time>2020-06-05T11:24:37.000Z</time>
      </trkpt>
      <trkpt lat="44.05801" lon="6.84809">
        <ele>972</ele>
        <time>2020-06-05T11:24:38.000Z</time>
      </trkpt>
      <trkpt lat="44.05801" lon="6.84809">
        <ele>972</ele>
        <time>2020-06-05T11:24:39.000Z</time>
      </trkpt>
      <trkpt lat="44.05802" lon="6.8481">
        <ele>972</ele>
        <time>2020-06-05T11:24:40.000Z</time>
      </trkpt>
      <trkpt lat="44.05802" lon="6.84812">
        <ele>972</ele>
        <time>2020-06-05T11:24:41.000Z</time>
      </trkpt>
      <trkpt lat="44.05802" lon="6.84813">
        <ele>972</ele>
        <time>2020-06-05T11:24:42.000Z</time>
      </trkpt>
      <trkpt lat="44.05803" lon="6.84813">
        <ele>972</ele>
        <time>2020-06-05T11:24:43.000Z</time>
      </trkpt>
      <trkpt lat="44.05803" lon="6.84814">
        <ele>972</ele>
        <time>2020-06-05T11:24:44.000Z</time>
      </trkpt>
      <trkpt lat="44.05804" lon="6.84815">
        <ele>972</ele>
        <time>2020-06-05T11:24:45.000Z</time>
      </trkpt>
      <trkpt lat="44.05804" lon="6.84816">
        <ele>971</ele>
        <time>2020-06-05T11:24:46.000Z</time>
      </trkpt>
      <trkpt lat="44.05805" lon="6.84817">
        <ele>971</ele>
        <time>2020-06-05T11:24:47.000Z</time>
      </trkpt>
      <trkpt lat="44.05805" lon="6.84818">
        <ele>971</ele>
        <time>2020-06-05T11:24:48.000Z</time>
      </trkpt>
      <trkpt lat="44.05806" lon="6.84819">
        <ele>971</ele>
        <time>2020-06-05T11:24:49.000Z</time>
      </trkpt>
      <trkpt lat="44.05806" lon="6.8482">
        <ele>971</ele>
        <time>2020-06-05T11:24:50.000Z</time>
      </trkpt>
      <trkpt lat="44.05807" lon="6.8482">
        <ele>971</ele>
        <time>2020-06-05T11:24:51.000Z</time>
      </trkpt>
      <trkpt lat="44.05807" lon="6.84821">
        <ele>971</ele>
        <time>2020-06-05T11:24:52.000Z</time>
      </trkpt>
      <trkpt lat="44.05808" lon="6.84821">
        <ele>971</ele>
        <time>2020-06-05T11:24:53.000Z</time>
      </trkpt>
      <trkpt lat="44.05809" lon="6.84822">
        <ele>971</ele>
        <time>2020-06-05T11:24:54.000Z</time>
      </trkpt>
      <trkpt lat="44.0581" lon="6.84823">
        <ele>971</ele>
        <time>2020-06-05T11:24:55.000Z</time>
      </trkpt>
      <trkpt lat="44.0581" lon="6.84823">
        <ele>971</ele>
        <time>2020-06-05T11:24:56.000Z</time>
      </trkpt>
      <trkpt lat="44.05811" lon="6.84824">
        <ele>971</ele>
        <time>2020-06-05T11:24:57.000Z</time>
      </trkpt>
      <trkpt lat="44.05812" lon="6.84825">
        <ele>970</ele>
        <time>2020-06-05T11:24:58.000Z</time>
      </trkpt>
      <trkpt lat="44.05812" lon="6.84826">
        <ele>970</ele>
        <time>2020-06-05T11:24:59.000Z</time>
      </trkpt>
      <trkpt lat="44.05813" lon="6.84827">
        <ele>970</ele>
        <time>2020-06-05T11:25:00.000Z</time>
      </trkpt>
      <trkpt lat="44.05813" lon="6.84827">
        <ele>970</ele>
        <time>2020-06-05T11:25:01.000Z</time>
      </trkpt>
      <trkpt lat="44.05813" lon="6.84828">
        <ele>970</ele>
        <time>2020-06-05T11:25:02.000Z</time>
      </trkpt>
      <trkpt lat="44.05814" lon="6.84829">
        <ele>970</ele>
        <time>2020-06-05T11:25:03.000Z</time>
      </trkpt>
      <trkpt lat="44.05814" lon="6.8483">
        <ele>970</ele>
        <time>2020-06-05T11:25:04.000Z</time>
      </trkpt>
      <trkpt lat="44.05815" lon="6.84831">
        <ele>970</ele>
        <time>2020-06-05T11:25:05.000Z</time>
      </trkpt>
      <trkpt lat="44.05816" lon="6.84833">
        <ele>969</ele>
        <time>2020-06-05T11:25:06.000Z</time>
      </trkpt>
      <trkpt lat="44.05816" lon="6.84834">
        <ele>969</ele>
        <time>2020-06-05T11:25:07.000Z</time>
      </trkpt>
      <trkpt lat="44.05817" lon="6.84834">
        <ele>969</ele>
        <time>2020-06-05T11:25:08.000Z</time>
      </trkpt>
      <trkpt lat="44.05817" lon="6.84836">
        <ele>969</ele>
        <time>2020-06-05T11:25:09.000Z</time>
      </trkpt>
      <trkpt lat="44.05818" lon="6.84837">
        <ele>969</ele>
        <time>2020-06-05T11:25:10.000Z</time>
      </trkpt>
      <trkpt lat="44.05818" lon="6.84838">
        <ele>969</ele>
        <time>2020-06-05T11:25:11.000Z</time>
      </trkpt>
      <trkpt lat="44.05819" lon="6.84839">
        <ele>969</ele>
        <time>2020-06-05T11:25:12.000Z</time>
      </trkpt>
      <trkpt lat="44.05819" lon="6.8484">
        <ele>969</ele>
        <time>2020-06-05T11:25:13.000Z</time>
      </trkpt>
      <trkpt lat="44.0582" lon="6.8484">
        <ele>969</ele>
        <time>2020-06-05T11:25:14.000Z</time>
      </trkpt>
      <trkpt lat="44.0582" lon="6.84841">
        <ele>968</ele>
        <time>2020-06-05T11:25:15.000Z</time>
      </trkpt>
      <trkpt lat="44.05821" lon="6.84841">
        <ele>968</ele>
        <time>2020-06-05T11:25:16.000Z</time>
      </trkpt>
      <trkpt lat="44.05821" lon="6.84841">
        <ele>968</ele>
        <time>2020-06-05T11:25:17.000Z</time>
      </trkpt>
      <trkpt lat="44.05821" lon="6.84842">
        <ele>968</ele>
        <time>2020-06-05T11:25:18.000Z</time>
      </trkpt>
      <trkpt lat="44.05821" lon="6.84843">
        <ele>968</ele>
        <time>2020-06-05T11:25:19.000Z</time>
      </trkpt>
      <trkpt lat="44.05822" lon="6.84844">
        <ele>968</ele>
        <time>2020-06-05T11:25:20.000Z</time>
      </trkpt>
      <trkpt lat="44.05822" lon="6.84845">
        <ele>968</ele>
        <time>2020-06-05T11:25:21.000Z</time>
      </trkpt>
      <trkpt lat="44.05822" lon="6.84846">
        <ele>968</ele>
        <time>2020-06-05T11:25:22.000Z</time>
      </trkpt>
      <trkpt lat="44.05822" lon="6.84847">
        <ele>968</ele>
        <time>2020-06-05T11:25:23.000Z</time>
      </trkpt>
      <trkpt lat="44.05823" lon="6.84848">
        <ele>968</ele>
        <time>2020-06-05T11:25:24.000Z</time>
      </trkpt>
      <trkpt lat="44.05823" lon="6.84849">
        <ele>968</ele>
        <time>2020-06-05T11:25:25.000Z</time>
      </trkpt>
      <trkpt lat="44.05823" lon="6.84851">
        <ele>968</ele>
        <time>2020-06-05T11:25:26.000Z</time>
      </trkpt>
      <trkpt lat="44.05823" lon="6.84852">
        <ele>968</ele>
        <time>2020-06-05T11:25:27.000Z</time>
      </trkpt>
      <trkpt lat="44.05823" lon="6.84853">
        <ele>968</ele>
        <time>2020-06-05T11:25:28.000Z</time>
      </trkpt>
      <trkpt lat="44.05823" lon="6.84854">
        <ele>968</ele>
        <time>2020-06-05T11:25:29.000Z</time>
      </trkpt>
      <trkpt lat="44.05823" lon="6.84855">
        <ele>968</ele>
        <time>2020-06-05T11:25:30.000Z</time>
      </trkpt>
      <trkpt lat="44.05824" lon="6.84856">
        <ele>968</ele>
        <time>2020-06-05T11:25:31.000Z</time>
      </trkpt>
      <trkpt lat="44.05824" lon="6.84857">
        <ele>968</ele>
        <time>2020-06-05T11:25:32.000Z</time>
      </trkpt>
      <trkpt lat="44.05824" lon="6.84858">
        <ele>968</ele>
        <time>2020-06-05T11:25:33.000Z</time>
      </trkpt>
      <trkpt lat="44.05824" lon="6.84859">
        <ele>968</ele>
        <time>2020-06-05T11:25:34.000Z</time>
      </trkpt>
      <trkpt lat="44.05824" lon="6.8486">
        <ele>968</ele>
        <time>2020-06-05T11:25:35.000Z</time>
      </trkpt>
      <trkpt lat="44.05824" lon="6.84861">
        <ele>968</ele>
        <time>2020-06-05T11:25:36.000Z</time>
      </trkpt>
      <trkpt lat="44.05825" lon="6.84862">
        <ele>968</ele>
        <time>2020-06-05T11:25:37.000Z</time>
      </trkpt>
      <trkpt lat="44.05825" lon="6.84864">
        <ele>968</ele>
        <time>2020-06-05T11:25:38.000Z</time>
      </trkpt>
      <trkpt lat="44.05825" lon="6.84865">
        <ele>968</ele>
        <time>2020-06-05T11:25:39.000Z</time>
      </trkpt>
      <trkpt lat="44.05825" lon="6.84866">
        <ele>968</ele>
        <time>2020-06-05T11:25:40.000Z</time>
      </trkpt>
      <trkpt lat="44.05825" lon="6.84867">
        <ele>968</ele>
        <time>2020-06-05T11:25:41.000Z</time>
      </trkpt>
      <trkpt lat="44.05825" lon="6.84868">
        <ele>968</ele>
        <time>2020-06-05T11:25:42.000Z</time>
      </trkpt>
      <trkpt lat="44.05825" lon="6.84869">
        <ele>968</ele>
        <time>2020-06-05T11:25:43.000Z</time>
      </trkpt>
      <trkpt lat="44.05825" lon="6.8487">
        <ele>968</ele>
        <time>2020-06-05T11:25:44.000Z</time>
      </trkpt>
      <trkpt lat="44.05825" lon="6.84871">
        <ele>968</ele>
        <time>2020-06-05T11:25:45.000Z</time>
      </trkpt>
      <trkpt lat="44.05825" lon="6.84873">
        <ele>968</ele>
        <time>2020-06-05T11:25:46.000Z</time>
      </trkpt>
      <trkpt lat="44.05825" lon="6.84874">
        <ele>968</ele>
        <time>2020-06-05T11:25:47.000Z</time>
      </trkpt>
      <trkpt lat="44.05825" lon="6.84875">
        <ele>968</ele>
        <time>2020-06-05T11:25:48.000Z</time>
      </trkpt>
      <trkpt lat="44.05826" lon="6.84876">
        <ele>968</ele>
        <time>2020-06-05T11:25:49.000Z</time>
      </trkpt>
      <trkpt lat="44.05826" lon="6.84877">
        <ele>968</ele>
        <time>2020-06-05T11:25:50.000Z</time>
      </trkpt>
      <trkpt lat="44.05825" lon="6.84878">
        <ele>968</ele>
        <time>2020-06-05T11:25:51.000Z</time>
      </trkpt>
      <trkpt lat="44.05825" lon="6.84879">
        <ele>968</ele>
        <time>2020-06-05T11:25:52.000Z</time>
      </trkpt>
      <trkpt lat="44.05825" lon="6.8488">
        <ele>967</ele>
        <time>2020-06-05T11:25:53.000Z</time>
      </trkpt>
      <trkpt lat="44.05825" lon="6.84881">
        <ele>967</ele>
        <time>2020-06-05T11:25:54.000Z</time>
      </trkpt>
      <trkpt lat="44.05825" lon="6.84882">
        <ele>967</ele>
        <time>2020-06-05T11:25:55.000Z</time>
      </trkpt>
      <trkpt lat="44.05825" lon="6.84883">
        <ele>967</ele>
        <time>2020-06-05T11:25:56.000Z</time>
      </trkpt>
      <trkpt lat="44.05825" lon="6.84885">
        <ele>967</ele>
        <time>2020-06-05T11:25:57.000Z</time>
      </trkpt>
      <trkpt lat="44.05825" lon="6.84886">
        <ele>967</ele>
        <time>2020-06-05T11:25:58.000Z</time>
      </trkpt>
      <trkpt lat="44.05825" lon="6.84887">
        <ele>967</ele>
        <time>2020-06-05T11:25:59.000Z</time>
      </trkpt>
      <trkpt lat="44.05825" lon="6.84888">
        <ele>967</ele>
        <time>2020-06-05T11:26:00.000Z</time>
      </trkpt>
      <trkpt lat="44.05825" lon="6.84889">
        <ele>966</ele>
        <time>2020-06-05T11:26:01.000Z</time>
      </trkpt>
      <trkpt lat="44.05825" lon="6.8489">
        <ele>966</ele>
        <time>2020-06-05T11:26:02.000Z</time>
      </trkpt>
      <trkpt lat="44.05826" lon="6.84891">
        <ele>966</ele>
        <time>2020-06-05T11:26:03.000Z</time>
      </trkpt>
      <trkpt lat="44.05826" lon="6.84892">
        <ele>966</ele>
        <time>2020-06-05T11:26:04.000Z</time>
      </trkpt>
      <trkpt lat="44.05826" lon="6.84893">
        <ele>966</ele>
        <time>2020-06-05T11:26:05.000Z</time>
      </trkpt>
      <trkpt lat="44.05826" lon="6.84895">
        <ele>965</ele>
        <time>2020-06-05T11:26:06.000Z</time>
      </trkpt>
      <trkpt lat="44.05826" lon="6.84896">
        <ele>965</ele>
        <time>2020-06-05T11:26:07.000Z</time>
      </trkpt>
      <trkpt lat="44.05827" lon="6.84897">
        <ele>965</ele>
        <time>2020-06-05T11:26:08.000Z</time>
      </trkpt>
      <trkpt lat="44.05827" lon="6.84898">
        <ele>965</ele>
        <time>2020-06-05T11:26:09.000Z</time>
      </trkpt>
      <trkpt lat="44.05827" lon="6.84899">
        <ele>965</ele>
        <time>2020-06-05T11:26:10.000Z</time>
      </trkpt>
      <trkpt lat="44.05827" lon="6.84899">
        <ele>964</ele>
        <time>2020-06-05T11:26:11.000Z</time>
      </trkpt>
      <trkpt lat="44.05827" lon="6.849">
        <ele>964</ele>
        <time>2020-06-05T11:26:12.000Z</time>
      </trkpt>
      <trkpt lat="44.05827" lon="6.84901">
        <ele>964</ele>
        <time>2020-06-05T11:26:13.000Z</time>
      </trkpt>
      <trkpt lat="44.05828" lon="6.84902">
        <ele>964</ele>
        <time>2020-06-05T11:26:14.000Z</time>
      </trkpt>
      <trkpt lat="44.05828" lon="6.84903">
        <ele>963</ele>
        <time>2020-06-05T11:26:15.000Z</time>
      </trkpt>
      <trkpt lat="44.05828" lon="6.84904">
        <ele>963</ele>
        <time>2020-06-05T11:26:16.000Z</time>
      </trkpt>
      <trkpt lat="44.05829" lon="6.84905">
        <ele>963</ele>
        <time>2020-06-05T11:26:17.000Z</time>
      </trkpt>
      <trkpt lat="44.05829" lon="6.84906">
        <ele>963</ele>
        <time>2020-06-05T11:26:18.000Z</time>
      </trkpt>
      <trkpt lat="44.0583" lon="6.84907">
        <ele>963</ele>
        <time>2020-06-05T11:26:19.000Z</time>
      </trkpt>
      <trkpt lat="44.05831" lon="6.84908">
        <ele>962</ele>
        <time>2020-06-05T11:26:20.000Z</time>
      </trkpt>
      <trkpt lat="44.05831" lon="6.84908">
        <ele>962</ele>
        <time>2020-06-05T11:26:21.000Z</time>
      </trkpt>
      <trkpt lat="44.05832" lon="6.84909">
        <ele>962</ele>
        <time>2020-06-05T11:26:22.000Z</time>
      </trkpt>
      <trkpt lat="44.05832" lon="6.84911">
        <ele>961</ele>
        <time>2020-06-05T11:26:23.000Z</time>
      </trkpt>
      <trkpt lat="44.05832" lon="6.84912">
        <ele>961</ele>
        <time>2020-06-05T11:26:24.000Z</time>
      </trkpt>
      <trkpt lat="44.05833" lon="6.84913">
        <ele>961</ele>
        <time>2020-06-05T11:26:25.000Z</time>
      </trkpt>
      <trkpt lat="44.05833" lon="6.84914">
        <ele>961</ele>
        <time>2020-06-05T11:26:26.000Z</time>
      </trkpt>
      <trkpt lat="44.05833" lon="6.84916">
        <ele>961</ele>
        <time>2020-06-05T11:26:27.000Z</time>
      </trkpt>
      <trkpt lat="44.05834" lon="6.84917">
        <ele>960</ele>
        <time>2020-06-05T11:26:28.000Z</time>
      </trkpt>
      <trkpt lat="44.05834" lon="6.84918">
        <ele>960</ele>
        <time>2020-06-05T11:26:29.000Z</time>
      </trkpt>
      <trkpt lat="44.05834" lon="6.84919">
        <ele>960</ele>
        <time>2020-06-05T11:26:30.000Z</time>
      </trkpt>
      <trkpt lat="44.05835" lon="6.8492">
        <ele>960</ele>
        <time>2020-06-05T11:26:31.000Z</time>
      </trkpt>
      <trkpt lat="44.05835" lon="6.84921">
        <ele>960</ele>
        <time>2020-06-05T11:26:32.000Z</time>
      </trkpt>
      <trkpt lat="44.05835" lon="6.84922">
        <ele>959</ele>
        <time>2020-06-05T11:26:33.000Z</time>
      </trkpt>
      <trkpt lat="44.05835" lon="6.84923">
        <ele>959</ele>
        <time>2020-06-05T11:26:34.000Z</time>
      </trkpt>
      <trkpt lat="44.05836" lon="6.84925">
        <ele>959</ele>
        <time>2020-06-05T11:26:35.000Z</time>
      </trkpt>
      <trkpt lat="44.05836" lon="6.84926">
        <ele>959</ele>
        <time>2020-06-05T11:26:36.000Z</time>
      </trkpt>
      <trkpt lat="44.05836" lon="6.84927">
        <ele>959</ele>
        <time>2020-06-05T11:26:37.000Z</time>
      </trkpt>
      <trkpt lat="44.05836" lon="6.84928">
        <ele>959</ele>
        <time>2020-06-05T11:26:38.000Z</time>
      </trkpt>
      <trkpt lat="44.05836" lon="6.84929">
        <ele>959</ele>
        <time>2020-06-05T11:26:39.000Z</time>
      </trkpt>
      <trkpt lat="44.05836" lon="6.84931">
        <ele>959</ele>
        <time>2020-06-05T11:26:40.000Z</time>
      </trkpt>
      <trkpt lat="44.05836" lon="6.84932">
        <ele>959</ele>
        <time>2020-06-05T11:26:41.000Z</time>
      </trkpt>
      <trkpt lat="44.05837" lon="6.84934">
        <ele>958</ele>
        <time>2020-06-05T11:26:42.000Z</time>
      </trkpt>
      <trkpt lat="44.05837" lon="6.84935">
        <ele>958</ele>
        <time>2020-06-05T11:26:43.000Z</time>
      </trkpt>
      <trkpt lat="44.05837" lon="6.84937">
        <ele>958</ele>
        <time>2020-06-05T11:26:44.000Z</time>
      </trkpt>
      <trkpt lat="44.05836" lon="6.84939">
        <ele>958</ele>
        <time>2020-06-05T11:26:45.000Z</time>
      </trkpt>
      <trkpt lat="44.05836" lon="6.8494">
        <ele>958</ele>
        <time>2020-06-05T11:26:46.000Z</time>
      </trkpt>
      <trkpt lat="44.05836" lon="6.84941">
        <ele>958</ele>
        <time>2020-06-05T11:26:47.000Z</time>
      </trkpt>
      <trkpt lat="44.05836" lon="6.84943">
        <ele>958</ele>
        <time>2020-06-05T11:26:48.000Z</time>
      </trkpt>
      <trkpt lat="44.05835" lon="6.84944">
        <ele>958</ele>
        <time>2020-06-05T11:26:49.000Z</time>
      </trkpt>
      <trkpt lat="44.05835" lon="6.84945">
        <ele>958</ele>
        <time>2020-06-05T11:26:50.000Z</time>
      </trkpt>
      <trkpt lat="44.05834" lon="6.84946">
        <ele>958</ele>
        <time>2020-06-05T11:26:51.000Z</time>
      </trkpt>
      <trkpt lat="44.05834" lon="6.84947">
        <ele>958</ele>
        <time>2020-06-05T11:26:52.000Z</time>
      </trkpt>
      <trkpt lat="44.05833" lon="6.84949">
        <ele>958</ele>
        <time>2020-06-05T11:26:53.000Z</time>
      </trkpt>
      <trkpt lat="44.05833" lon="6.8495">
        <ele>958</ele>
        <time>2020-06-05T11:26:54.000Z</time>
      </trkpt>
      <trkpt lat="44.05833" lon="6.84951">
        <ele>958</ele>
        <time>2020-06-05T11:26:55.000Z</time>
      </trkpt>
      <trkpt lat="44.05832" lon="6.84953">
        <ele>958</ele>
        <time>2020-06-05T11:26:56.000Z</time>
      </trkpt>
      <trkpt lat="44.05832" lon="6.84954">
        <ele>958</ele>
        <time>2020-06-05T11:26:57.000Z</time>
      </trkpt>
      <trkpt lat="44.05832" lon="6.84955">
        <ele>957</ele>
        <time>2020-06-05T11:26:58.000Z</time>
      </trkpt>
      <trkpt lat="44.05832" lon="6.84956">
        <ele>957</ele>
        <time>2020-06-05T11:26:59.000Z</time>
      </trkpt>
      <trkpt lat="44.05832" lon="6.84957">
        <ele>957</ele>
        <time>2020-06-05T11:27:00.000Z</time>
      </trkpt>
      <trkpt lat="44.05832" lon="6.84958">
        <ele>957</ele>
        <time>2020-06-05T11:27:01.000Z</time>
      </trkpt>
      <trkpt lat="44.05832" lon="6.84958">
        <ele>957</ele>
        <time>2020-06-05T11:27:02.000Z</time>
      </trkpt>
      <trkpt lat="44.05832" lon="6.84959">
        <ele>957</ele>
        <time>2020-06-05T11:27:03.000Z</time>
      </trkpt>
      <trkpt lat="44.05832" lon="6.8496">
        <ele>957</ele>
        <time>2020-06-05T11:27:04.000Z</time>
      </trkpt>
      <trkpt lat="44.05832" lon="6.84961">
        <ele>957</ele>
        <time>2020-06-05T11:27:05.000Z</time>
      </trkpt>
      <trkpt lat="44.05832" lon="6.84962">
        <ele>956</ele>
        <time>2020-06-05T11:27:06.000Z</time>
      </trkpt>
      <trkpt lat="44.05832" lon="6.84962">
        <ele>956</ele>
        <time>2020-06-05T11:27:07.000Z</time>
      </trkpt>
      <trkpt lat="44.05832" lon="6.84963">
        <ele>956</ele>
        <time>2020-06-05T11:27:08.000Z</time>
      </trkpt>
      <trkpt lat="44.05832" lon="6.84964">
        <ele>956</ele>
        <time>2020-06-05T11:27:09.000Z</time>
      </trkpt>
      <trkpt lat="44.05832" lon="6.84965">
        <ele>956</ele>
        <time>2020-06-05T11:27:10.000Z</time>
      </trkpt>
      <trkpt lat="44.05832" lon="6.84966">
        <ele>956</ele>
        <time>2020-06-05T11:27:11.000Z</time>
      </trkpt>
      <trkpt lat="44.05832" lon="6.84967">
        <ele>956</ele>
        <time>2020-06-05T11:27:12.000Z</time>
      </trkpt>
      <trkpt lat="44.05833" lon="6.84968">
        <ele>955</ele>
        <time>2020-06-05T11:27:13.000Z</time>
      </trkpt>
      <trkpt lat="44.05833" lon="6.8497">
        <ele>955</ele>
        <time>2020-06-05T11:27:14.000Z</time>
      </trkpt>
      <trkpt lat="44.05833" lon="6.84971">
        <ele>955</ele>
        <time>2020-06-05T11:27:15.000Z</time>
      </trkpt>
      <trkpt lat="44.05834" lon="6.84972">
        <ele>955</ele>
        <time>2020-06-05T11:27:16.000Z</time>
      </trkpt>
      <trkpt lat="44.05834" lon="6.84973">
        <ele>955</ele>
        <time>2020-06-05T11:27:17.000Z</time>
      </trkpt>
      <trkpt lat="44.05835" lon="6.84975">
        <ele>954</ele>
        <time>2020-06-05T11:27:18.000Z</time>
      </trkpt>
      <trkpt lat="44.05835" lon="6.84976">
        <ele>954</ele>
        <time>2020-06-05T11:27:19.000Z</time>
      </trkpt>
      <trkpt lat="44.05835" lon="6.84977">
        <ele>954</ele>
        <time>2020-06-05T11:27:20.000Z</time>
      </trkpt>
      <trkpt lat="44.05835" lon="6.84978">
        <ele>954</ele>
        <time>2020-06-05T11:27:21.000Z</time>
      </trkpt>
      <trkpt lat="44.05836" lon="6.8498">
        <ele>954</ele>
        <time>2020-06-05T11:27:22.000Z</time>
      </trkpt>
      <trkpt lat="44.05836" lon="6.84981">
        <ele>953</ele>
        <time>2020-06-05T11:27:23.000Z</time>
      </trkpt>
      <trkpt lat="44.05837" lon="6.84982">
        <ele>953</ele>
        <time>2020-06-05T11:27:24.000Z</time>
      </trkpt>
      <trkpt lat="44.05837" lon="6.84983">
        <ele>953</ele>
        <time>2020-06-05T11:27:25.000Z</time>
      </trkpt>
      <trkpt lat="44.05837" lon="6.84984">
        <ele>953</ele>
        <time>2020-06-05T11:27:26.000Z</time>
      </trkpt>
      <trkpt lat="44.05837" lon="6.84985">
        <ele>953</ele>
        <time>2020-06-05T11:27:27.000Z</time>
      </trkpt>
      <trkpt lat="44.05837" lon="6.84986">
        <ele>952</ele>
        <time>2020-06-05T11:27:28.000Z</time>
      </trkpt>
      <trkpt lat="44.05838" lon="6.84986">
        <ele>952</ele>
        <time>2020-06-05T11:27:29.000Z</time>
      </trkpt>
      <trkpt lat="44.05838" lon="6.84987">
        <ele>952</ele>
        <time>2020-06-05T11:27:30.000Z</time>
      </trkpt>
      <trkpt lat="44.05839" lon="6.84988">
        <ele>952</ele>
        <time>2020-06-05T11:27:31.000Z</time>
      </trkpt>
      <trkpt lat="44.05839" lon="6.84989">
        <ele>952</ele>
        <time>2020-06-05T11:27:32.000Z</time>
      </trkpt>
      <trkpt lat="44.0584" lon="6.84991">
        <ele>952</ele>
        <time>2020-06-05T11:27:33.000Z</time>
      </trkpt>
      <trkpt lat="44.0584" lon="6.84992">
        <ele>952</ele>
        <time>2020-06-05T11:27:34.000Z</time>
      </trkpt>
      <trkpt lat="44.05841" lon="6.84993">
        <ele>951</ele>
        <time>2020-06-05T11:27:35.000Z</time>
      </trkpt>
      <trkpt lat="44.05842" lon="6.84994">
        <ele>951</ele>
        <time>2020-06-05T11:27:36.000Z</time>
      </trkpt>
      <trkpt lat="44.05842" lon="6.84995">
        <ele>951</ele>
        <time>2020-06-05T11:27:37.000Z</time>
      </trkpt>
      <trkpt lat="44.05843" lon="6.84996">
        <ele>951</ele>
        <time>2020-06-05T11:27:38.000Z</time>
      </trkpt>
      <trkpt lat="44.05843" lon="6.84997">
        <ele>951</ele>
        <time>2020-06-05T11:27:39.000Z</time>
      </trkpt>
      <trkpt lat="44.05844" lon="6.84998">
        <ele>951</ele>
        <time>2020-06-05T11:27:40.000Z</time>
      </trkpt>
      <trkpt lat="44.05844" lon="6.84998">
        <ele>951</ele>
        <time>2020-06-05T11:27:41.000Z</time>
      </trkpt>
      <trkpt lat="44.05845" lon="6.84999">
        <ele>951</ele>
        <time>2020-06-05T11:27:42.000Z</time>
      </trkpt>
      <trkpt lat="44.05846" lon="6.84999">
        <ele>951</ele>
        <time>2020-06-05T11:27:43.000Z</time>
      </trkpt>
      <trkpt lat="44.05847" lon="6.85">
        <ele>950</ele>
        <time>2020-06-05T11:27:44.000Z</time>
      </trkpt>
      <trkpt lat="44.05847" lon="6.85">
        <ele>950</ele>
        <time>2020-06-05T11:27:45.000Z</time>
      </trkpt>
      <trkpt lat="44.05848" lon="6.85">
        <ele>950</ele>
        <time>2020-06-05T11:27:46.000Z</time>
      </trkpt>
      <trkpt lat="44.05849" lon="6.85">
        <ele>950</ele>
        <time>2020-06-05T11:27:47.000Z</time>
      </trkpt>
      <trkpt lat="44.0585" lon="6.85">
        <ele>950</ele>
        <time>2020-06-05T11:27:48.000Z</time>
      </trkpt>
      <trkpt lat="44.05851" lon="6.85">
        <ele>950</ele>
        <time>2020-06-05T11:27:49.000Z</time>
      </trkpt>
      <trkpt lat="44.05851" lon="6.85">
        <ele>950</ele>
        <time>2020-06-05T11:27:50.000Z</time>
      </trkpt>
      <trkpt lat="44.05852" lon="6.85001">
        <ele>950</ele>
        <time>2020-06-05T11:27:51.000Z</time>
      </trkpt>
      <trkpt lat="44.05853" lon="6.85001">
        <ele>950</ele>
        <time>2020-06-05T11:27:52.000Z</time>
      </trkpt>
      <trkpt lat="44.05853" lon="6.85001">
        <ele>950</ele>
        <time>2020-06-05T11:27:53.000Z</time>
      </trkpt>
      <trkpt lat="44.05853" lon="6.85002">
        <ele>950</ele>
        <time>2020-06-05T11:27:54.000Z</time>
      </trkpt>
      <trkpt lat="44.05854" lon="6.85002">
        <ele>950</ele>
        <time>2020-06-05T11:27:55.000Z</time>
      </trkpt>
      <trkpt lat="44.05854" lon="6.85003">
        <ele>950</ele>
        <time>2020-06-05T11:27:56.000Z</time>
      </trkpt>
      <trkpt lat="44.05855" lon="6.85004">
        <ele>949</ele>
        <time>2020-06-05T11:27:57.000Z</time>
      </trkpt>
      <trkpt lat="44.05855" lon="6.85004">
        <ele>949</ele>
        <time>2020-06-05T11:27:58.000Z</time>
      </trkpt>
      <trkpt lat="44.05856" lon="6.85005">
        <ele>949</ele>
        <time>2020-06-05T11:27:59.000Z</time>
      </trkpt>
      <trkpt lat="44.05857" lon="6.85005">
        <ele>949</ele>
        <time>2020-06-05T11:28:00.000Z</time>
      </trkpt>
      <trkpt lat="44.05858" lon="6.85006">
        <ele>949</ele>
        <time>2020-06-05T11:28:01.000Z</time>
      </trkpt>
      <trkpt lat="44.05858" lon="6.85006">
        <ele>949</ele>
        <time>2020-06-05T11:28:02.000Z</time>
      </trkpt>
      <trkpt lat="44.05859" lon="6.85007">
        <ele>948</ele>
        <time>2020-06-05T11:28:03.000Z</time>
      </trkpt>
      <trkpt lat="44.0586" lon="6.85008">
        <ele>948</ele>
        <time>2020-06-05T11:28:04.000Z</time>
      </trkpt>
      <trkpt lat="44.0586" lon="6.85009">
        <ele>948</ele>
        <time>2020-06-05T11:28:05.000Z</time>
      </trkpt>
      <trkpt lat="44.05861" lon="6.85009">
        <ele>948</ele>
        <time>2020-06-05T11:28:06.000Z</time>
      </trkpt>
      <trkpt lat="44.05861" lon="6.85009">
        <ele>948</ele>
        <time>2020-06-05T11:28:07.000Z</time>
      </trkpt>
      <trkpt lat="44.05861" lon="6.85009">
        <ele>948</ele>
        <time>2020-06-05T11:28:08.000Z</time>
      </trkpt>
      <trkpt lat="44.05862" lon="6.8501">
        <ele>948</ele>
        <time>2020-06-05T11:28:09.000Z</time>
      </trkpt>
      <trkpt lat="44.05862" lon="6.8501">
        <ele>948</ele>
        <time>2020-06-05T11:28:10.000Z</time>
      </trkpt>
      <trkpt lat="44.05863" lon="6.8501">
        <ele>947</ele>
        <time>2020-06-05T11:28:11.000Z</time>
      </trkpt>
      <trkpt lat="44.05863" lon="6.85011">
        <ele>947</ele>
        <time>2020-06-05T11:28:12.000Z</time>
      </trkpt>
      <trkpt lat="44.05864" lon="6.85011">
        <ele>947</ele>
        <time>2020-06-05T11:28:13.000Z</time>
      </trkpt>
      <trkpt lat="44.05864" lon="6.85012">
        <ele>947</ele>
        <time>2020-06-05T11:28:14.000Z</time>
      </trkpt>
      <trkpt lat="44.05865" lon="6.85012">
        <ele>947</ele>
        <time>2020-06-05T11:28:15.000Z</time>
      </trkpt>
      <trkpt lat="44.05865" lon="6.85012">
        <ele>947</ele>
        <time>2020-06-05T11:28:16.000Z</time>
      </trkpt>
      <trkpt lat="44.05865" lon="6.85012">
        <ele>947</ele>
        <time>2020-06-05T11:28:17.000Z</time>
      </trkpt>
      <trkpt lat="44.05866" lon="6.85012">
        <ele>947</ele>
        <time>2020-06-05T11:28:18.000Z</time>
      </trkpt>
      <trkpt lat="44.05866" lon="6.85012">
        <ele>947</ele>
        <time>2020-06-05T11:28:19.000Z</time>
      </trkpt>
      <trkpt lat="44.05867" lon="6.85012">
        <ele>947</ele>
        <time>2020-06-05T11:28:20.000Z</time>
      </trkpt>
      <trkpt lat="44.05868" lon="6.85012">
        <ele>947</ele>
        <time>2020-06-05T11:28:21.000Z</time>
      </trkpt>
      <trkpt lat="44.05868" lon="6.85012">
        <ele>947</ele>
        <time>2020-06-05T11:28:22.000Z</time>
      </trkpt>
      <trkpt lat="44.05869" lon="6.85013">
        <ele>947</ele>
        <time>2020-06-05T11:28:23.000Z</time>
      </trkpt>
      <trkpt lat="44.05869" lon="6.85013">
        <ele>947</ele>
        <time>2020-06-05T11:28:24.000Z</time>
      </trkpt>
      <trkpt lat="44.05869" lon="6.85013">
        <ele>947</ele>
        <time>2020-06-05T11:28:25.000Z</time>
      </trkpt>
      <trkpt lat="44.05869" lon="6.85013">
        <ele>947</ele>
        <time>2020-06-05T11:28:26.000Z</time>
      </trkpt>
      <trkpt lat="44.0587" lon="6.85013">
        <ele>946</ele>
        <time>2020-06-05T11:28:27.000Z</time>
      </trkpt>
      <trkpt lat="44.0587" lon="6.85014">
        <ele>946</ele>
        <time>2020-06-05T11:28:28.000Z</time>
      </trkpt>
      <trkpt lat="44.0587" lon="6.85014">
        <ele>946</ele>
        <time>2020-06-05T11:28:29.000Z</time>
      </trkpt>
      <trkpt lat="44.0587" lon="6.85014">
        <ele>946</ele>
        <time>2020-06-05T11:28:30.000Z</time>
      </trkpt>
      <trkpt lat="44.0587" lon="6.85014">
        <ele>946</ele>
        <time>2020-06-05T11:28:31.000Z</time>
      </trkpt>
      <trkpt lat="44.05871" lon="6.85014">
        <ele>946</ele>
        <time>2020-06-05T11:28:32.000Z</time>
      </trkpt>
      <trkpt lat="44.05871" lon="6.85014">
        <ele>946</ele>
        <time>2020-06-05T11:28:33.000Z</time>
      </trkpt>
      <trkpt lat="44.05871" lon="6.85015">
        <ele>946</ele>
        <time>2020-06-05T11:28:34.000Z</time>
      </trkpt>
      <trkpt lat="44.05871" lon="6.85015">
        <ele>946</ele>
        <time>2020-06-05T11:28:35.000Z</time>
      </trkpt>
      <trkpt lat="44.05871" lon="6.85015">
        <ele>946</ele>
        <time>2020-06-05T11:28:36.000Z</time>
      </trkpt>
      <trkpt lat="44.05871" lon="6.85015">
        <ele>945</ele>
        <time>2020-06-05T11:28:37.000Z</time>
      </trkpt>
      <trkpt lat="44.05872" lon="6.85015">
        <ele>945</ele>
        <time>2020-06-05T11:28:38.000Z</time>
      </trkpt>
      <trkpt lat="44.05872" lon="6.85015">
        <ele>945</ele>
        <time>2020-06-05T11:28:39.000Z</time>
      </trkpt>
      <trkpt lat="44.05872" lon="6.85015">
        <ele>945</ele>
        <time>2020-06-05T11:28:40.000Z</time>
      </trkpt>
      <trkpt lat="44.05872" lon="6.85015">
        <ele>945</ele>
        <time>2020-06-05T11:28:41.000Z</time>
      </trkpt>
      <trkpt lat="44.05872" lon="6.85015">
        <ele>945</ele>
        <time>2020-06-05T11:28:42.000Z</time>
      </trkpt>
      <trkpt lat="44.05872" lon="6.85015">
        <ele>945</ele>
        <time>2020-06-05T11:28:43.000Z</time>
      </trkpt>
      <trkpt lat="44.05872" lon="6.85015">
        <ele>945</ele>
        <time>2020-06-05T11:28:44.000Z</time>
      </trkpt>
      <trkpt lat="44.05872" lon="6.85015">
        <ele>945</ele>
        <time>2020-06-05T11:28:45.000Z</time>
      </trkpt>
      <trkpt lat="44.05872" lon="6.85015">
        <ele>945</ele>
        <time>2020-06-05T11:28:46.000Z</time>
      </trkpt>
      <trkpt lat="44.05872" lon="6.85015">
        <ele>945</ele>
        <time>2020-06-05T11:28:47.000Z</time>
      </trkpt>
      <trkpt lat="44.05872" lon="6.85015">
        <ele>945</ele>
        <time>2020-06-05T11:28:48.000Z</time>
      </trkpt>
      <trkpt lat="44.05872" lon="6.85016">
        <ele>945</ele>
        <time>2020-06-05T11:28:49.000Z</time>
      </trkpt>
      <trkpt lat="44.05873" lon="6.85016">
        <ele>945</ele>
        <time>2020-06-05T11:28:50.000Z</time>
      </trkpt>
      <trkpt lat="44.05873" lon="6.85016">
        <ele>945</ele>
        <time>2020-06-05T11:28:51.000Z</time>
      </trkpt>
      <trkpt lat="44.05873" lon="6.85016">
        <ele>945</ele>
        <time>2020-06-05T11:28:52.000Z</time>
      </trkpt>
      <trkpt lat="44.05873" lon="6.85016">
        <ele>945</ele>
        <time>2020-06-05T11:28:53.000Z</time>
      </trkpt>
      <trkpt lat="44.05873" lon="6.85016">
        <ele>945</ele>
        <time>2020-06-05T11:28:54.000Z</time>
      </trkpt>
      <trkpt lat="44.05873" lon="6.85016">
        <ele>945</ele>
        <time>2020-06-05T11:28:55.000Z</time>
      </trkpt>
      <trkpt lat="44.05873" lon="6.85016">
        <ele>945</ele>
        <time>2020-06-05T11:28:56.000Z</time>
      </trkpt>
      <trkpt lat="44.05873" lon="6.85016">
        <ele>945</ele>
        <time>2020-06-05T11:28:57.000Z</time>
      </trkpt>
      <trkpt lat="44.05873" lon="6.85016">
        <ele>945</ele>
        <time>2020-06-05T11:28:58.000Z</time>
      </trkpt>
      <trkpt lat="44.05873" lon="6.85016">
        <ele>945</ele>
        <time>2020-06-05T11:28:59.000Z</time>
      </trkpt>
      <trkpt lat="44.05873" lon="6.85016">
        <ele>945</ele>
        <time>2020-06-05T11:29:00.000Z</time>
      </trkpt>
      <trkpt lat="44.05873" lon="6.85016">
        <ele>945</ele>
        <time>2020-06-05T11:29:01.000Z</time>
      </trkpt>
      <trkpt lat="44.05873" lon="6.85016">
        <ele>945</ele>
        <time>2020-06-05T11:29:02.000Z</time>
      </trkpt>
      <trkpt lat="44.05873" lon="6.85016">
        <ele>945</ele>
        <time>2020-06-05T11:29:03.000Z</time>
      </trkpt>
      <trkpt lat="44.05873" lon="6.85016">
        <ele>945</ele>
        <time>2020-06-05T11:29:04.000Z</time>
      </trkpt>
      <trkpt lat="44.05873" lon="6.85016">
        <ele>945</ele>
        <time>2020-06-05T11:29:05.000Z</time>
      </trkpt>
      <trkpt lat="44.05873" lon="6.85016">
        <ele>945</ele>
        <time>2020-06-05T11:29:06.000Z</time>
      </trkpt>
      <trkpt lat="44.05874" lon="6.85016">
        <ele>945</ele>
        <time>2020-06-05T11:29:07.000Z</time>
      </trkpt>
      <trkpt lat="44.05874" lon="6.85016">
        <ele>945</ele>
        <time>2020-06-05T11:29:08.000Z</time>
      </trkpt>
      <trkpt lat="44.05874" lon="6.85016">
        <ele>945</ele>
        <time>2020-06-05T11:29:09.000Z</time>
      </trkpt>
      <trkpt lat="44.05873" lon="6.85016">
        <ele>945</ele>
        <time>2020-06-05T11:29:10.000Z</time>
      </trkpt>
      <trkpt lat="44.05873" lon="6.85016">
        <ele>945</ele>
        <time>2020-06-05T11:29:11.000Z</time>
      </trkpt>
      <trkpt lat="44.05872" lon="6.85015">
        <ele>945</ele>
        <time>2020-06-05T11:29:12.000Z</time>
      </trkpt>
      <trkpt lat="44.05872" lon="6.85014">
        <ele>945</ele>
        <time>2020-06-05T11:29:13.000Z</time>
      </trkpt>
      <trkpt lat="44.05872" lon="6.85014">
        <ele>945</ele>
        <time>2020-06-05T11:29:14.000Z</time>
      </trkpt>
      <trkpt lat="44.05872" lon="6.85014">
        <ele>945</ele>
        <time>2020-06-05T11:29:15.000Z</time>
      </trkpt>
      <trkpt lat="44.05872" lon="6.85014">
        <ele>945</ele>
        <time>2020-06-05T11:29:16.000Z</time>
      </trkpt>
      <trkpt lat="44.05872" lon="6.85014">
        <ele>945</ele>
        <time>2020-06-05T11:29:17.000Z</time>
      </trkpt>
      <trkpt lat="44.05872" lon="6.85014">
        <ele>945</ele>
        <time>2020-06-05T11:29:18.000Z</time>
      </trkpt>
      <trkpt lat="44.05872" lon="6.85014">
        <ele>945</ele>
        <time>2020-06-05T11:29:19.000Z</time>
      </trkpt>
      <trkpt lat="44.05873" lon="6.85014">
        <ele>945</ele>
        <time>2020-06-05T11:29:20.000Z</time>
      </trkpt>
      <trkpt lat="44.05873" lon="6.85014">
        <ele>945</ele>
        <time>2020-06-05T11:29:21.000Z</time>
      </trkpt>
      <trkpt lat="44.05873" lon="6.85014">
        <ele>945</ele>
        <time>2020-06-05T11:29:22.000Z</time>
      </trkpt>
      <trkpt lat="44.05873" lon="6.85014">
        <ele>945</ele>
        <time>2020-06-05T11:29:23.000Z</time>
      </trkpt>
      <trkpt lat="44.05873" lon="6.85014">
        <ele>945</ele>
        <time>2020-06-05T11:29:24.000Z</time>
      </trkpt>
      <trkpt lat="44.05873" lon="6.85014">
        <ele>945</ele>
        <time>2020-06-05T11:29:25.000Z</time>
      </trkpt>
      <trkpt lat="44.05873" lon="6.85014">
        <ele>945</ele>
        <time>2020-06-05T11:29:26.000Z</time>
      </trkpt>
      <trkpt lat="44.05873" lon="6.85014">
        <ele>945</ele>
        <time>2020-06-05T11:29:27.000Z</time>
      </trkpt>
      <trkpt lat="44.05873" lon="6.85014">
        <ele>944</ele>
        <time>2020-06-05T11:29:28.000Z</time>
      </trkpt>
      <trkpt lat="44.05873" lon="6.85014">
        <ele>944</ele>
        <time>2020-06-05T11:29:29.000Z</time>
      </trkpt>
      <trkpt lat="44.05873" lon="6.85014">
        <ele>945</ele>
        <time>2020-06-05T11:29:30.000Z</time>
      </trkpt>
      <trkpt lat="44.05873" lon="6.85014">
        <ele>945</ele>
        <time>2020-06-05T11:29:31.000Z</time>
      </trkpt>
      <trkpt lat="44.05873" lon="6.85014">
        <ele>945</ele>
        <time>2020-06-05T11:29:32.000Z</time>
      </trkpt>
      <trkpt lat="44.05873" lon="6.85014">
        <ele>945</ele>
        <time>2020-06-05T11:29:33.000Z</time>
      </trkpt>
      <trkpt lat="44.05873" lon="6.85014">
        <ele>944</ele>
        <time>2020-06-05T11:29:34.000Z</time>
      </trkpt>
      <trkpt lat="44.05873" lon="6.85014">
        <ele>945</ele>
        <time>2020-06-05T11:29:35.000Z</time>
      </trkpt>
      <trkpt lat="44.05873" lon="6.85014">
        <ele>945</ele>
        <time>2020-06-05T11:29:36.000Z</time>
      </trkpt>
      <trkpt lat="44.05873" lon="6.85014">
        <ele>945</ele>
        <time>2020-06-05T11:29:37.000Z</time>
      </trkpt>
      <trkpt lat="44.05873" lon="6.85014">
        <ele>945</ele>
        <time>2020-06-05T11:29:38.000Z</time>
      </trkpt>
      <trkpt lat="44.05873" lon="6.85014">
        <ele>945</ele>
        <time>2020-06-05T11:29:39.000Z</time>
      </trkpt>
      <trkpt lat="44.05873" lon="6.85014">
        <ele>945</ele>
        <time>2020-06-05T11:29:40.000Z</time>
      </trkpt>
      <trkpt lat="44.05873" lon="6.85014">
        <ele>945</ele>
        <time>2020-06-05T11:29:41.000Z</time>
      </trkpt>
      <trkpt lat="44.05873" lon="6.85014">
        <ele>945</ele>
        <time>2020-06-05T11:29:42.000Z</time>
      </trkpt>
      <trkpt lat="44.05873" lon="6.85014">
        <ele>945</ele>
        <time>2020-06-05T11:29:43.000Z</time>
      </trkpt>
      <trkpt lat="44.05873" lon="6.85014">
        <ele>945</ele>
        <time>2020-06-05T11:29:44.000Z</time>
      </trkpt>
      <trkpt lat="44.05874" lon="6.85014">
        <ele>945</ele>
        <time>2020-06-05T11:29:45.000Z</time>
      </trkpt>
      <trkpt lat="44.05874" lon="6.85014">
        <ele>944</ele>
        <time>2020-06-05T11:29:46.000Z</time>
      </trkpt>
      <trkpt lat="44.05874" lon="6.85013">
        <ele>944</ele>
        <time>2020-06-05T11:29:47.000Z</time>
      </trkpt>
      <trkpt lat="44.05874" lon="6.85013">
        <ele>944</ele>
        <time>2020-06-05T11:29:48.000Z</time>
      </trkpt>
      <trkpt lat="44.05874" lon="6.85013">
        <ele>944</ele>
        <time>2020-06-05T11:29:49.000Z</time>
      </trkpt>
      <trkpt lat="44.05874" lon="6.85013">
        <ele>944</ele>
        <time>2020-06-05T11:29:50.000Z</time>
      </trkpt>
      <trkpt lat="44.05874" lon="6.85013">
        <ele>944</ele>
        <time>2020-06-05T11:29:51.000Z</time>
      </trkpt>
      <trkpt lat="44.05875" lon="6.85013">
        <ele>944</ele>
        <time>2020-06-05T11:29:52.000Z</time>
      </trkpt>
      <trkpt lat="44.05875" lon="6.85013">
        <ele>944</ele>
        <time>2020-06-05T11:29:53.000Z</time>
      </trkpt>
      <trkpt lat="44.05875" lon="6.85013">
        <ele>944</ele>
        <time>2020-06-05T11:29:54.000Z</time>
      </trkpt>
      <trkpt lat="44.05876" lon="6.85013">
        <ele>944</ele>
        <time>2020-06-05T11:29:55.000Z</time>
      </trkpt>
      <trkpt lat="44.05876" lon="6.85012">
        <ele>944</ele>
        <time>2020-06-05T11:29:56.000Z</time>
      </trkpt>
      <trkpt lat="44.05876" lon="6.85012">
        <ele>944</ele>
        <time>2020-06-05T11:29:57.000Z</time>
      </trkpt>
      <trkpt lat="44.05877" lon="6.85012">
        <ele>944</ele>
        <time>2020-06-05T11:29:58.000Z</time>
      </trkpt>
      <trkpt lat="44.05878" lon="6.85011">
        <ele>944</ele>
        <time>2020-06-05T11:29:59.000Z</time>
      </trkpt>
      <trkpt lat="44.05878" lon="6.85011">
        <ele>944</ele>
        <time>2020-06-05T11:30:00.000Z</time>
      </trkpt>
      <trkpt lat="44.05878" lon="6.85012">
        <ele>944</ele>
        <time>2020-06-05T11:30:01.000Z</time>
      </trkpt>
      <trkpt lat="44.05879" lon="6.85012">
        <ele>943</ele>
        <time>2020-06-05T11:30:02.000Z</time>
      </trkpt>
      <trkpt lat="44.0588" lon="6.85012">
        <ele>943</ele>
        <time>2020-06-05T11:30:03.000Z</time>
      </trkpt>
      <trkpt lat="44.05881" lon="6.85012">
        <ele>943</ele>
        <time>2020-06-05T11:30:04.000Z</time>
      </trkpt>
      <trkpt lat="44.05882" lon="6.85012">
        <ele>943</ele>
        <time>2020-06-05T11:30:05.000Z</time>
      </trkpt>
      <trkpt lat="44.05883" lon="6.85012">
        <ele>943</ele>
        <time>2020-06-05T11:30:06.000Z</time>
      </trkpt>
      <trkpt lat="44.05883" lon="6.85012">
        <ele>943</ele>
        <time>2020-06-05T11:30:07.000Z</time>
      </trkpt>
      <trkpt lat="44.05884" lon="6.85012">
        <ele>943</ele>
        <time>2020-06-05T11:30:08.000Z</time>
      </trkpt>
      <trkpt lat="44.05885" lon="6.85013">
        <ele>943</ele>
        <time>2020-06-05T11:30:09.000Z</time>
      </trkpt>
      <trkpt lat="44.05886" lon="6.85013">
        <ele>943</ele>
        <time>2020-06-05T11:30:10.000Z</time>
      </trkpt>
      <trkpt lat="44.05887" lon="6.85014">
        <ele>943</ele>
        <time>2020-06-05T11:30:11.000Z</time>
      </trkpt>
      <trkpt lat="44.05888" lon="6.85014">
        <ele>943</ele>
        <time>2020-06-05T11:30:12.000Z</time>
      </trkpt>
      <trkpt lat="44.05889" lon="6.85015">
        <ele>943</ele>
        <time>2020-06-05T11:30:13.000Z</time>
      </trkpt>
      <trkpt lat="44.0589" lon="6.85015">
        <ele>943</ele>
        <time>2020-06-05T11:30:14.000Z</time>
      </trkpt>
      <trkpt lat="44.0589" lon="6.85015">
        <ele>943</ele>
        <time>2020-06-05T11:30:15.000Z</time>
      </trkpt>
      <trkpt lat="44.05891" lon="6.85015">
        <ele>943</ele>
        <time>2020-06-05T11:30:16.000Z</time>
      </trkpt>
      <trkpt lat="44.05892" lon="6.85016">
        <ele>943</ele>
        <time>2020-06-05T11:30:17.000Z</time>
      </trkpt>
      <trkpt lat="44.05893" lon="6.85016">
        <ele>943</ele>
        <time>2020-06-05T11:30:18.000Z</time>
      </trkpt>
      <trkpt lat="44.05894" lon="6.85016">
        <ele>943</ele>
        <time>2020-06-05T11:30:19.000Z</time>
      </trkpt>
      <trkpt lat="44.05895" lon="6.85016">
        <ele>942</ele>
        <time>2020-06-05T11:30:20.000Z</time>
      </trkpt>
      <trkpt lat="44.05895" lon="6.85016">
        <ele>942</ele>
        <time>2020-06-05T11:30:21.000Z</time>
      </trkpt>
      <trkpt lat="44.05896" lon="6.85017">
        <ele>942</ele>
        <time>2020-06-05T11:30:22.000Z</time>
      </trkpt>
      <trkpt lat="44.05897" lon="6.85017">
        <ele>942</ele>
        <time>2020-06-05T11:30:23.000Z</time>
      </trkpt>
      <trkpt lat="44.05898" lon="6.85017">
        <ele>942</ele>
        <time>2020-06-05T11:30:24.000Z</time>
      </trkpt>
      <trkpt lat="44.05899" lon="6.85017">
        <ele>942</ele>
        <time>2020-06-05T11:30:25.000Z</time>
      </trkpt>
      <trkpt lat="44.059" lon="6.85018">
        <ele>941</ele>
        <time>2020-06-05T11:30:26.000Z</time>
      </trkpt>
      <trkpt lat="44.05901" lon="6.85018">
        <ele>941</ele>
        <time>2020-06-05T11:30:27.000Z</time>
      </trkpt>
      <trkpt lat="44.05902" lon="6.85018">
        <ele>941</ele>
        <time>2020-06-05T11:30:28.000Z</time>
      </trkpt>
      <trkpt lat="44.05902" lon="6.85018">
        <ele>941</ele>
        <time>2020-06-05T11:30:29.000Z</time>
      </trkpt>
      <trkpt lat="44.05903" lon="6.85019">
        <ele>941</ele>
        <time>2020-06-05T11:30:30.000Z</time>
      </trkpt>
      <trkpt lat="44.05904" lon="6.85019">
        <ele>941</ele>
        <time>2020-06-05T11:30:31.000Z</time>
      </trkpt>
      <trkpt lat="44.05904" lon="6.85019">
        <ele>941</ele>
        <time>2020-06-05T11:30:32.000Z</time>
      </trkpt>
      <trkpt lat="44.05905" lon="6.85019">
        <ele>941</ele>
        <time>2020-06-05T11:30:33.000Z</time>
      </trkpt>
      <trkpt lat="44.05905" lon="6.85019">
        <ele>941</ele>
        <time>2020-06-05T11:30:34.000Z</time>
      </trkpt>
      <trkpt lat="44.05906" lon="6.85019">
        <ele>941</ele>
        <time>2020-06-05T11:30:35.000Z</time>
      </trkpt>
      <trkpt lat="44.05907" lon="6.85019">
        <ele>941</ele>
        <time>2020-06-05T11:30:36.000Z</time>
      </trkpt>
      <trkpt lat="44.05908" lon="6.85019">
        <ele>941</ele>
        <time>2020-06-05T11:30:37.000Z</time>
      </trkpt>
      <trkpt lat="44.05909" lon="6.8502">
        <ele>941</ele>
        <time>2020-06-05T11:30:38.000Z</time>
      </trkpt>
      <trkpt lat="44.0591" lon="6.8502">
        <ele>941</ele>
        <time>2020-06-05T11:30:39.000Z</time>
      </trkpt>
      <trkpt lat="44.05911" lon="6.8502">
        <ele>941</ele>
        <time>2020-06-05T11:30:40.000Z</time>
      </trkpt>
      <trkpt lat="44.05912" lon="6.8502">
        <ele>941</ele>
        <time>2020-06-05T11:30:41.000Z</time>
      </trkpt>
      <trkpt lat="44.05913" lon="6.85021">
        <ele>941</ele>
        <time>2020-06-05T11:30:42.000Z</time>
      </trkpt>
      <trkpt lat="44.05914" lon="6.85021">
        <ele>941</ele>
        <time>2020-06-05T11:30:43.000Z</time>
      </trkpt>
      <trkpt lat="44.05915" lon="6.85021">
        <ele>941</ele>
        <time>2020-06-05T11:30:44.000Z</time>
      </trkpt>
      <trkpt lat="44.05915" lon="6.85021">
        <ele>941</ele>
        <time>2020-06-05T11:30:45.000Z</time>
      </trkpt>
      <trkpt lat="44.05916" lon="6.85021">
        <ele>941</ele>
        <time>2020-06-05T11:30:46.000Z</time>
      </trkpt>
      <trkpt lat="44.05916" lon="6.85021">
        <ele>941</ele>
        <time>2020-06-05T11:30:47.000Z</time>
      </trkpt>
      <trkpt lat="44.05917" lon="6.8502">
        <ele>941</ele>
        <time>2020-06-05T11:30:48.000Z</time>
      </trkpt>
      <trkpt lat="44.05918" lon="6.8502">
        <ele>941</ele>
        <time>2020-06-05T11:30:49.000Z</time>
      </trkpt>
      <trkpt lat="44.05918" lon="6.8502">
        <ele>941</ele>
        <time>2020-06-05T11:30:50.000Z</time>
      </trkpt>
      <trkpt lat="44.05919" lon="6.8502">
        <ele>941</ele>
        <time>2020-06-05T11:30:51.000Z</time>
      </trkpt>
      <trkpt lat="44.0592" lon="6.85021">
        <ele>941</ele>
        <time>2020-06-05T11:30:52.000Z</time>
      </trkpt>
      <trkpt lat="44.0592" lon="6.85021">
        <ele>941</ele>
        <time>2020-06-05T11:30:53.000Z</time>
      </trkpt>
      <trkpt lat="44.0592" lon="6.85022">
        <ele>940</ele>
        <time>2020-06-05T11:30:54.000Z</time>
      </trkpt>
      <trkpt lat="44.0592" lon="6.85023">
        <ele>940</ele>
        <time>2020-06-05T11:30:55.000Z</time>
      </trkpt>
      <trkpt lat="44.0592" lon="6.85023">
        <ele>940</ele>
        <time>2020-06-05T11:30:56.000Z</time>
      </trkpt>
      <trkpt lat="44.0592" lon="6.85024">
        <ele>940</ele>
        <time>2020-06-05T11:30:57.000Z</time>
      </trkpt>
      <trkpt lat="44.0592" lon="6.85024">
        <ele>940</ele>
        <time>2020-06-05T11:30:58.000Z</time>
      </trkpt>
      <trkpt lat="44.05921" lon="6.85025">
        <ele>940</ele>
        <time>2020-06-05T11:30:59.000Z</time>
      </trkpt>
      <trkpt lat="44.05921" lon="6.85025">
        <ele>939</ele>
        <time>2020-06-05T11:31:00.000Z</time>
      </trkpt>
      <trkpt lat="44.05921" lon="6.85026">
        <ele>939</ele>
        <time>2020-06-05T11:31:01.000Z</time>
      </trkpt>
      <trkpt lat="44.05922" lon="6.85026">
        <ele>939</ele>
        <time>2020-06-05T11:31:02.000Z</time>
      </trkpt>
      <trkpt lat="44.05922" lon="6.85026">
        <ele>939</ele>
        <time>2020-06-05T11:31:03.000Z</time>
      </trkpt>
      <trkpt lat="44.05923" lon="6.85026">
        <ele>939</ele>
        <time>2020-06-05T11:31:04.000Z</time>
      </trkpt>
      <trkpt lat="44.05923" lon="6.85027">
        <ele>939</ele>
        <time>2020-06-05T11:31:05.000Z</time>
      </trkpt>
      <trkpt lat="44.05924" lon="6.85026">
        <ele>939</ele>
        <time>2020-06-05T11:31:06.000Z</time>
      </trkpt>
      <trkpt lat="44.05925" lon="6.85026">
        <ele>938</ele>
        <time>2020-06-05T11:31:07.000Z</time>
      </trkpt>
      <trkpt lat="44.05926" lon="6.85026">
        <ele>938</ele>
        <time>2020-06-05T11:31:08.000Z</time>
      </trkpt>
      <trkpt lat="44.05927" lon="6.85025">
        <ele>938</ele>
        <time>2020-06-05T11:31:09.000Z</time>
      </trkpt>
      <trkpt lat="44.05927" lon="6.85025">
        <ele>938</ele>
        <time>2020-06-05T11:31:10.000Z</time>
      </trkpt>
      <trkpt lat="44.05928" lon="6.85024">
        <ele>938</ele>
        <time>2020-06-05T11:31:11.000Z</time>
      </trkpt>
      <trkpt lat="44.05928" lon="6.85024">
        <ele>938</ele>
        <time>2020-06-05T11:31:12.000Z</time>
      </trkpt>
      <trkpt lat="44.05929" lon="6.85023">
        <ele>938</ele>
        <time>2020-06-05T11:31:13.000Z</time>
      </trkpt>
      <trkpt lat="44.05929" lon="6.85022">
        <ele>937</ele>
        <time>2020-06-05T11:31:14.000Z</time>
      </trkpt>
      <trkpt lat="44.0593" lon="6.85022">
        <ele>937</ele>
        <time>2020-06-05T11:31:15.000Z</time>
      </trkpt>
      <trkpt lat="44.0593" lon="6.85021">
        <ele>937</ele>
        <time>2020-06-05T11:31:16.000Z</time>
      </trkpt>
      <trkpt lat="44.05931" lon="6.85021">
        <ele>937</ele>
        <time>2020-06-05T11:31:17.000Z</time>
      </trkpt>
      <trkpt lat="44.05931" lon="6.85021">
        <ele>937</ele>
        <time>2020-06-05T11:31:18.000Z</time>
      </trkpt>
      <trkpt lat="44.05932" lon="6.85021">
        <ele>937</ele>
        <time>2020-06-05T11:31:19.000Z</time>
      </trkpt>
      <trkpt lat="44.05932" lon="6.85021">
        <ele>936</ele>
        <time>2020-06-05T11:31:20.000Z</time>
      </trkpt>
      <trkpt lat="44.05933" lon="6.85021">
        <ele>936</ele>
        <time>2020-06-05T11:31:21.000Z</time>
      </trkpt>
      <trkpt lat="44.05934" lon="6.85021">
        <ele>936</ele>
        <time>2020-06-05T11:31:22.000Z</time>
      </trkpt>
      <trkpt lat="44.05935" lon="6.85021">
        <ele>936</ele>
        <time>2020-06-05T11:31:23.000Z</time>
      </trkpt>
      <trkpt lat="44.05936" lon="6.85021">
        <ele>936</ele>
        <time>2020-06-05T11:31:24.000Z</time>
      </trkpt>
      <trkpt lat="44.05937" lon="6.85021">
        <ele>936</ele>
        <time>2020-06-05T11:31:25.000Z</time>
      </trkpt>
      <trkpt lat="44.05937" lon="6.85021">
        <ele>935</ele>
        <time>2020-06-05T11:31:26.000Z</time>
      </trkpt>
      <trkpt lat="44.05938" lon="6.85021">
        <ele>935</ele>
        <time>2020-06-05T11:31:27.000Z</time>
      </trkpt>
      <trkpt lat="44.05939" lon="6.8502">
        <ele>935</ele>
        <time>2020-06-05T11:31:28.000Z</time>
      </trkpt>
      <trkpt lat="44.0594" lon="6.8502">
        <ele>935</ele>
        <time>2020-06-05T11:31:29.000Z</time>
      </trkpt>
      <trkpt lat="44.0594" lon="6.85019">
        <ele>935</ele>
        <time>2020-06-05T11:31:30.000Z</time>
      </trkpt>
      <trkpt lat="44.05941" lon="6.85018">
        <ele>935</ele>
        <time>2020-06-05T11:31:31.000Z</time>
      </trkpt>
      <trkpt lat="44.05941" lon="6.85017">
        <ele>934</ele>
        <time>2020-06-05T11:31:32.000Z</time>
      </trkpt>
      <trkpt lat="44.05942" lon="6.85017">
        <ele>934</ele>
        <time>2020-06-05T11:31:33.000Z</time>
      </trkpt>
      <trkpt lat="44.05943" lon="6.85016">
        <ele>934</ele>
        <time>2020-06-05T11:31:34.000Z</time>
      </trkpt>
      <trkpt lat="44.05944" lon="6.85017">
        <ele>934</ele>
        <time>2020-06-05T11:31:35.000Z</time>
      </trkpt>
      <trkpt lat="44.05944" lon="6.85017">
        <ele>933</ele>
        <time>2020-06-05T11:31:36.000Z</time>
      </trkpt>
      <trkpt lat="44.05945" lon="6.85018">
        <ele>933</ele>
        <time>2020-06-05T11:31:37.000Z</time>
      </trkpt>
      <trkpt lat="44.05946" lon="6.85019">
        <ele>933</ele>
        <time>2020-06-05T11:31:38.000Z</time>
      </trkpt>
      <trkpt lat="44.05947" lon="6.8502">
        <ele>933</ele>
        <time>2020-06-05T11:31:39.000Z</time>
      </trkpt>
      <trkpt lat="44.05947" lon="6.85022">
        <ele>932</ele>
        <time>2020-06-05T11:31:40.000Z</time>
      </trkpt>
      <trkpt lat="44.05948" lon="6.85023">
        <ele>932</ele>
        <time>2020-06-05T11:31:41.000Z</time>
      </trkpt>
      <trkpt lat="44.05948" lon="6.85024">
        <ele>932</ele>
        <time>2020-06-05T11:31:42.000Z</time>
      </trkpt>
      <trkpt lat="44.05949" lon="6.85025">
        <ele>932</ele>
        <time>2020-06-05T11:31:43.000Z</time>
      </trkpt>
      <trkpt lat="44.05949" lon="6.85026">
        <ele>932</ele>
        <time>2020-06-05T11:31:44.000Z</time>
      </trkpt>
      <trkpt lat="44.05949" lon="6.85027">
        <ele>932</ele>
        <time>2020-06-05T11:31:45.000Z</time>
      </trkpt>
      <trkpt lat="44.05949" lon="6.85028">
        <ele>931</ele>
        <time>2020-06-05T11:31:46.000Z</time>
      </trkpt>
      <trkpt lat="44.05949" lon="6.85029">
        <ele>931</ele>
        <time>2020-06-05T11:31:47.000Z</time>
      </trkpt>
      <trkpt lat="44.05949" lon="6.85031">
        <ele>931</ele>
        <time>2020-06-05T11:31:48.000Z</time>
      </trkpt>
      <trkpt lat="44.05949" lon="6.85031">
        <ele>931</ele>
        <time>2020-06-05T11:31:49.000Z</time>
      </trkpt>
      <trkpt lat="44.05948" lon="6.85032">
        <ele>931</ele>
        <time>2020-06-05T11:31:50.000Z</time>
      </trkpt>
      <trkpt lat="44.05948" lon="6.85033">
        <ele>931</ele>
        <time>2020-06-05T11:31:51.000Z</time>
      </trkpt>
      <trkpt lat="44.05947" lon="6.85034">
        <ele>931</ele>
        <time>2020-06-05T11:31:52.000Z</time>
      </trkpt>
      <trkpt lat="44.05946" lon="6.85035">
        <ele>930</ele>
        <time>2020-06-05T11:31:53.000Z</time>
      </trkpt>
      <trkpt lat="44.05946" lon="6.85036">
        <ele>930</ele>
        <time>2020-06-05T11:31:54.000Z</time>
      </trkpt>
      <trkpt lat="44.05945" lon="6.85037">
        <ele>930</ele>
        <time>2020-06-05T11:31:55.000Z</time>
      </trkpt>
      <trkpt lat="44.05945" lon="6.85038">
        <ele>930</ele>
        <time>2020-06-05T11:31:56.000Z</time>
      </trkpt>
      <trkpt lat="44.05945" lon="6.85039">
        <ele>930</ele>
        <time>2020-06-05T11:31:57.000Z</time>
      </trkpt>
      <trkpt lat="44.05945" lon="6.8504">
        <ele>930</ele>
        <time>2020-06-05T11:31:58.000Z</time>
      </trkpt>
      <trkpt lat="44.05945" lon="6.85041">
        <ele>929</ele>
        <time>2020-06-05T11:31:59.000Z</time>
      </trkpt>
      <trkpt lat="44.05946" lon="6.85041">
        <ele>929</ele>
        <time>2020-06-05T11:32:00.000Z</time>
      </trkpt>
      <trkpt lat="44.05946" lon="6.85042">
        <ele>929</ele>
        <time>2020-06-05T11:32:01.000Z</time>
      </trkpt>
      <trkpt lat="44.05947" lon="6.85042">
        <ele>929</ele>
        <time>2020-06-05T11:32:02.000Z</time>
      </trkpt>
      <trkpt lat="44.05947" lon="6.85042">
        <ele>929</ele>
        <time>2020-06-05T11:32:03.000Z</time>
      </trkpt>
      <trkpt lat="44.05948" lon="6.85042">
        <ele>929</ele>
        <time>2020-06-05T11:32:04.000Z</time>
      </trkpt>
      <trkpt lat="44.05948" lon="6.85042">
        <ele>929</ele>
        <time>2020-06-05T11:32:05.000Z</time>
      </trkpt>
      <trkpt lat="44.05948" lon="6.85042">
        <ele>928</ele>
        <time>2020-06-05T11:32:06.000Z</time>
      </trkpt>
      <trkpt lat="44.05949" lon="6.85042">
        <ele>928</ele>
        <time>2020-06-05T11:32:07.000Z</time>
      </trkpt>
      <trkpt lat="44.05949" lon="6.85041">
        <ele>928</ele>
        <time>2020-06-05T11:32:08.000Z</time>
      </trkpt>
      <trkpt lat="44.0595" lon="6.85041">
        <ele>928</ele>
        <time>2020-06-05T11:32:09.000Z</time>
      </trkpt>
      <trkpt lat="44.0595" lon="6.85041">
        <ele>928</ele>
        <time>2020-06-05T11:32:10.000Z</time>
      </trkpt>
      <trkpt lat="44.05951" lon="6.8504">
        <ele>928</ele>
        <time>2020-06-05T11:32:11.000Z</time>
      </trkpt>
      <trkpt lat="44.05951" lon="6.8504">
        <ele>928</ele>
        <time>2020-06-05T11:32:12.000Z</time>
      </trkpt>
      <trkpt lat="44.05952" lon="6.85039">
        <ele>927</ele>
        <time>2020-06-05T11:32:13.000Z</time>
      </trkpt>
      <trkpt lat="44.05953" lon="6.85039">
        <ele>927</ele>
        <time>2020-06-05T11:32:14.000Z</time>
      </trkpt>
      <trkpt lat="44.05953" lon="6.85038">
        <ele>927</ele>
        <time>2020-06-05T11:32:15.000Z</time>
      </trkpt>
      <trkpt lat="44.05954" lon="6.85038">
        <ele>927</ele>
        <time>2020-06-05T11:32:16.000Z</time>
      </trkpt>
      <trkpt lat="44.05954" lon="6.85037">
        <ele>926</ele>
        <time>2020-06-05T11:32:17.000Z</time>
      </trkpt>
      <trkpt lat="44.05955" lon="6.85036">
        <ele>926</ele>
        <time>2020-06-05T11:32:18.000Z</time>
      </trkpt>
      <trkpt lat="44.05956" lon="6.85036">
        <ele>926</ele>
        <time>2020-06-05T11:32:19.000Z</time>
      </trkpt>
      <trkpt lat="44.05957" lon="6.85035">
        <ele>926</ele>
        <time>2020-06-05T11:32:20.000Z</time>
      </trkpt>
      <trkpt lat="44.05957" lon="6.85035">
        <ele>925</ele>
        <time>2020-06-05T11:32:21.000Z</time>
      </trkpt>
      <trkpt lat="44.05958" lon="6.85034">
        <ele>925</ele>
        <time>2020-06-05T11:32:22.000Z</time>
      </trkpt>
      <trkpt lat="44.05958" lon="6.85033">
        <ele>925</ele>
        <time>2020-06-05T11:32:23.000Z</time>
      </trkpt>
      <trkpt lat="44.05959" lon="6.85032">
        <ele>925</ele>
        <time>2020-06-05T11:32:24.000Z</time>
      </trkpt>
      <trkpt lat="44.05959" lon="6.85031">
        <ele>925</ele>
        <time>2020-06-05T11:32:25.000Z</time>
      </trkpt>
      <trkpt lat="44.0596" lon="6.85031">
        <ele>924</ele>
        <time>2020-06-05T11:32:26.000Z</time>
      </trkpt>
      <trkpt lat="44.0596" lon="6.8503">
        <ele>924</ele>
        <time>2020-06-05T11:32:27.000Z</time>
      </trkpt>
      <trkpt lat="44.05961" lon="6.85029">
        <ele>924</ele>
        <time>2020-06-05T11:32:28.000Z</time>
      </trkpt>
      <trkpt lat="44.05961" lon="6.85028">
        <ele>924</ele>
        <time>2020-06-05T11:32:29.000Z</time>
      </trkpt>
      <trkpt lat="44.05962" lon="6.85028">
        <ele>924</ele>
        <time>2020-06-05T11:32:30.000Z</time>
      </trkpt>
      <trkpt lat="44.05963" lon="6.85027">
        <ele>924</ele>
        <time>2020-06-05T11:32:31.000Z</time>
      </trkpt>
      <trkpt lat="44.05963" lon="6.85026">
        <ele>923</ele>
        <time>2020-06-05T11:32:32.000Z</time>
      </trkpt>
      <trkpt lat="44.05964" lon="6.85025">
        <ele>923</ele>
        <time>2020-06-05T11:32:33.000Z</time>
      </trkpt>
      <trkpt lat="44.05964" lon="6.85024">
        <ele>923</ele>
        <time>2020-06-05T11:32:34.000Z</time>
      </trkpt>
      <trkpt lat="44.05965" lon="6.85023">
        <ele>923</ele>
        <time>2020-06-05T11:32:35.000Z</time>
      </trkpt>
      <trkpt lat="44.05965" lon="6.85022">
        <ele>923</ele>
        <time>2020-06-05T11:32:36.000Z</time>
      </trkpt>
      <trkpt lat="44.05965" lon="6.8502">
        <ele>922</ele>
        <time>2020-06-05T11:32:37.000Z</time>
      </trkpt>
      <trkpt lat="44.05965" lon="6.85019">
        <ele>922</ele>
        <time>2020-06-05T11:32:38.000Z</time>
      </trkpt>
      <trkpt lat="44.05966" lon="6.85018">
        <ele>922</ele>
        <time>2020-06-05T11:32:39.000Z</time>
      </trkpt>
      <trkpt lat="44.05966" lon="6.85018">
        <ele>922</ele>
        <time>2020-06-05T11:32:40.000Z</time>
      </trkpt>
      <trkpt lat="44.05966" lon="6.85017">
        <ele>922</ele>
        <time>2020-06-05T11:32:41.000Z</time>
      </trkpt>
      <trkpt lat="44.05967" lon="6.85016">
        <ele>922</ele>
        <time>2020-06-05T11:32:42.000Z</time>
      </trkpt>
      <trkpt lat="44.05967" lon="6.85015">
        <ele>922</ele>
        <time>2020-06-05T11:32:43.000Z</time>
      </trkpt>
      <trkpt lat="44.05967" lon="6.85014">
        <ele>922</ele>
        <time>2020-06-05T11:32:44.000Z</time>
      </trkpt>
      <trkpt lat="44.05968" lon="6.85014">
        <ele>921</ele>
        <time>2020-06-05T11:32:45.000Z</time>
      </trkpt>
      <trkpt lat="44.05968" lon="6.85013">
        <ele>921</ele>
        <time>2020-06-05T11:32:46.000Z</time>
      </trkpt>
      <trkpt lat="44.05968" lon="6.85012">
        <ele>921</ele>
        <time>2020-06-05T11:32:47.000Z</time>
      </trkpt>
      <trkpt lat="44.05968" lon="6.85011">
        <ele>921</ele>
        <time>2020-06-05T11:32:48.000Z</time>
      </trkpt>
      <trkpt lat="44.05969" lon="6.8501">
        <ele>921</ele>
        <time>2020-06-05T11:32:49.000Z</time>
      </trkpt>
      <trkpt lat="44.05969" lon="6.85009">
        <ele>921</ele>
        <time>2020-06-05T11:32:50.000Z</time>
      </trkpt>
      <trkpt lat="44.05969" lon="6.85008">
        <ele>921</ele>
        <time>2020-06-05T11:32:51.000Z</time>
      </trkpt>
      <trkpt lat="44.0597" lon="6.85007">
        <ele>921</ele>
        <time>2020-06-05T11:32:52.000Z</time>
      </trkpt>
      <trkpt lat="44.0597" lon="6.85006">
        <ele>921</ele>
        <time>2020-06-05T11:32:53.000Z</time>
      </trkpt>
      <trkpt lat="44.05971" lon="6.85005">
        <ele>920</ele>
        <time>2020-06-05T11:32:54.000Z</time>
      </trkpt>
      <trkpt lat="44.05972" lon="6.85004">
        <ele>920</ele>
        <time>2020-06-05T11:32:55.000Z</time>
      </trkpt>
      <trkpt lat="44.05972" lon="6.85003">
        <ele>920</ele>
        <time>2020-06-05T11:32:56.000Z</time>
      </trkpt>
      <trkpt lat="44.05973" lon="6.85002">
        <ele>920</ele>
        <time>2020-06-05T11:32:57.000Z</time>
      </trkpt>
      <trkpt lat="44.05974" lon="6.85001">
        <ele>920</ele>
        <time>2020-06-05T11:32:58.000Z</time>
      </trkpt>
      <trkpt lat="44.05974" lon="6.85">
        <ele>920</ele>
        <time>2020-06-05T11:32:59.000Z</time>
      </trkpt>
      <trkpt lat="44.05975" lon="6.85">
        <ele>920</ele>
        <time>2020-06-05T11:33:00.000Z</time>
      </trkpt>
      <trkpt lat="44.05976" lon="6.84999">
        <ele>920</ele>
        <time>2020-06-05T11:33:01.000Z</time>
      </trkpt>
      <trkpt lat="44.05977" lon="6.84998">
        <ele>920</ele>
        <time>2020-06-05T11:33:02.000Z</time>
      </trkpt>
      <trkpt lat="44.05977" lon="6.84997">
        <ele>920</ele>
        <time>2020-06-05T11:33:03.000Z</time>
      </trkpt>
      <trkpt lat="44.05978" lon="6.84996">
        <ele>920</ele>
        <time>2020-06-05T11:33:04.000Z</time>
      </trkpt>
      <trkpt lat="44.05978" lon="6.84995">
        <ele>920</ele>
        <time>2020-06-05T11:33:05.000Z</time>
      </trkpt>
      <trkpt lat="44.05979" lon="6.84994">
        <ele>919</ele>
        <time>2020-06-05T11:33:06.000Z</time>
      </trkpt>
      <trkpt lat="44.0598" lon="6.84993">
        <ele>919</ele>
        <time>2020-06-05T11:33:07.000Z</time>
      </trkpt>
      <trkpt lat="44.05981" lon="6.84992">
        <ele>919</ele>
        <time>2020-06-05T11:33:08.000Z</time>
      </trkpt>
      <trkpt lat="44.05983" lon="6.84991">
        <ele>919</ele>
        <time>2020-06-05T11:33:09.000Z</time>
      </trkpt>
      <trkpt lat="44.05983" lon="6.8499">
        <ele>919</ele>
        <time>2020-06-05T11:33:10.000Z</time>
      </trkpt>
      <trkpt lat="44.05984" lon="6.84989">
        <ele>919</ele>
        <time>2020-06-05T11:33:11.000Z</time>
      </trkpt>
      <trkpt lat="44.05985" lon="6.84988">
        <ele>919</ele>
        <time>2020-06-05T11:33:12.000Z</time>
      </trkpt>
      <trkpt lat="44.05986" lon="6.84987">
        <ele>919</ele>
        <time>2020-06-05T11:33:13.000Z</time>
      </trkpt>
      <trkpt lat="44.05986" lon="6.84986">
        <ele>919</ele>
        <time>2020-06-05T11:33:14.000Z</time>
      </trkpt>
      <trkpt lat="44.05987" lon="6.84985">
        <ele>919</ele>
        <time>2020-06-05T11:33:15.000Z</time>
      </trkpt>
      <trkpt lat="44.05987" lon="6.84984">
        <ele>919</ele>
        <time>2020-06-05T11:33:16.000Z</time>
      </trkpt>
      <trkpt lat="44.05988" lon="6.84983">
        <ele>919</ele>
        <time>2020-06-05T11:33:17.000Z</time>
      </trkpt>
      <trkpt lat="44.05989" lon="6.84981">
        <ele>919</ele>
        <time>2020-06-05T11:33:18.000Z</time>
      </trkpt>
      <trkpt lat="44.05989" lon="6.8498">
        <ele>919</ele>
        <time>2020-06-05T11:33:19.000Z</time>
      </trkpt>
      <trkpt lat="44.0599" lon="6.84979">
        <ele>919</ele>
        <time>2020-06-05T11:33:20.000Z</time>
      </trkpt>
      <trkpt lat="44.0599" lon="6.84977">
        <ele>918</ele>
        <time>2020-06-05T11:33:21.000Z</time>
      </trkpt>
      <trkpt lat="44.05991" lon="6.84977">
        <ele>918</ele>
        <time>2020-06-05T11:33:22.000Z</time>
      </trkpt>
      <trkpt lat="44.05991" lon="6.84975">
        <ele>918</ele>
        <time>2020-06-05T11:33:23.000Z</time>
      </trkpt>
      <trkpt lat="44.05991" lon="6.84974">
        <ele>918</ele>
        <time>2020-06-05T11:33:24.000Z</time>
      </trkpt>
      <trkpt lat="44.05992" lon="6.84973">
        <ele>918</ele>
        <time>2020-06-05T11:33:25.000Z</time>
      </trkpt>
      <trkpt lat="44.05992" lon="6.84972">
        <ele>918</ele>
        <time>2020-06-05T11:33:26.000Z</time>
      </trkpt>
      <trkpt lat="44.05992" lon="6.8497">
        <ele>918</ele>
        <time>2020-06-05T11:33:27.000Z</time>
      </trkpt>
      <trkpt lat="44.05992" lon="6.84969">
        <ele>918</ele>
        <time>2020-06-05T11:33:28.000Z</time>
      </trkpt>
      <trkpt lat="44.05992" lon="6.84967">
        <ele>917</ele>
        <time>2020-06-05T11:33:29.000Z</time>
      </trkpt>
      <trkpt lat="44.05992" lon="6.84966">
        <ele>917</ele>
        <time>2020-06-05T11:33:30.000Z</time>
      </trkpt>
      <trkpt lat="44.05993" lon="6.84964">
        <ele>917</ele>
        <time>2020-06-05T11:33:31.000Z</time>
      </trkpt>
      <trkpt lat="44.05993" lon="6.84963">
        <ele>917</ele>
        <time>2020-06-05T11:33:32.000Z</time>
      </trkpt>
      <trkpt lat="44.05993" lon="6.84962">
        <ele>917</ele>
        <time>2020-06-05T11:33:33.000Z</time>
      </trkpt>
      <trkpt lat="44.05993" lon="6.84961">
        <ele>916</ele>
        <time>2020-06-05T11:33:34.000Z</time>
      </trkpt>
      <trkpt lat="44.05993" lon="6.8496">
        <ele>916</ele>
        <time>2020-06-05T11:33:35.000Z</time>
      </trkpt>
      <trkpt lat="44.05994" lon="6.84959">
        <ele>916</ele>
        <time>2020-06-05T11:33:36.000Z</time>
      </trkpt>
      <trkpt lat="44.05994" lon="6.84959">
        <ele>916</ele>
        <time>2020-06-05T11:33:37.000Z</time>
      </trkpt>
      <trkpt lat="44.05994" lon="6.8496">
        <ele>916</ele>
        <time>2020-06-05T11:33:38.000Z</time>
      </trkpt>
      <trkpt lat="44.05994" lon="6.84961">
        <ele>915</ele>
        <time>2020-06-05T11:33:39.000Z</time>
      </trkpt>
      <trkpt lat="44.05994" lon="6.84962">
        <ele>915</ele>
        <time>2020-06-05T11:33:40.000Z</time>
      </trkpt>
      <trkpt lat="44.05994" lon="6.84964">
        <ele>915</ele>
        <time>2020-06-05T11:33:41.000Z</time>
      </trkpt>
      <trkpt lat="44.05995" lon="6.84965">
        <ele>914</ele>
        <time>2020-06-05T11:33:42.000Z</time>
      </trkpt>
      <trkpt lat="44.05995" lon="6.84967">
        <ele>914</ele>
        <time>2020-06-05T11:33:43.000Z</time>
      </trkpt>
      <trkpt lat="44.05995" lon="6.84968">
        <ele>914</ele>
        <time>2020-06-05T11:33:44.000Z</time>
      </trkpt>
      <trkpt lat="44.05996" lon="6.84969">
        <ele>913</ele>
        <time>2020-06-05T11:33:45.000Z</time>
      </trkpt>
      <trkpt lat="44.05996" lon="6.8497">
        <ele>913</ele>
        <time>2020-06-05T11:33:46.000Z</time>
      </trkpt>
      <trkpt lat="44.05996" lon="6.84971">
        <ele>913</ele>
        <time>2020-06-05T11:33:47.000Z</time>
      </trkpt>
      <trkpt lat="44.05997" lon="6.84972">
        <ele>912</ele>
        <time>2020-06-05T11:33:48.000Z</time>
      </trkpt>
      <trkpt lat="44.05997" lon="6.84973">
        <ele>912</ele>
        <time>2020-06-05T11:33:49.000Z</time>
      </trkpt>
      <trkpt lat="44.05998" lon="6.84974">
        <ele>912</ele>
        <time>2020-06-05T11:33:50.000Z</time>
      </trkpt>
      <trkpt lat="44.05998" lon="6.84975">
        <ele>912</ele>
        <time>2020-06-05T11:33:51.000Z</time>
      </trkpt>
      <trkpt lat="44.05999" lon="6.84977">
        <ele>911</ele>
        <time>2020-06-05T11:33:52.000Z</time>
      </trkpt>
      <trkpt lat="44.05999" lon="6.84978">
        <ele>911</ele>
        <time>2020-06-05T11:33:53.000Z</time>
      </trkpt>
      <trkpt lat="44.06" lon="6.84979">
        <ele>911</ele>
        <time>2020-06-05T11:33:54.000Z</time>
      </trkpt>
      <trkpt lat="44.06" lon="6.8498">
        <ele>911</ele>
        <time>2020-06-05T11:33:55.000Z</time>
      </trkpt>
      <trkpt lat="44.06001" lon="6.84981">
        <ele>911</ele>
        <time>2020-06-05T11:33:56.000Z</time>
      </trkpt>
      <trkpt lat="44.06001" lon="6.84982">
        <ele>911</ele>
        <time>2020-06-05T11:33:57.000Z</time>
      </trkpt>
      <trkpt lat="44.06002" lon="6.84984">
        <ele>910</ele>
        <time>2020-06-05T11:33:58.000Z</time>
      </trkpt>
      <trkpt lat="44.06003" lon="6.84985">
        <ele>910</ele>
        <time>2020-06-05T11:33:59.000Z</time>
      </trkpt>
      <trkpt lat="44.06003" lon="6.84986">
        <ele>910</ele>
        <time>2020-06-05T11:34:00.000Z</time>
      </trkpt>
      <trkpt lat="44.06004" lon="6.84987">
        <ele>910</ele>
        <time>2020-06-05T11:34:01.000Z</time>
      </trkpt>
      <trkpt lat="44.06005" lon="6.84988">
        <ele>909</ele>
        <time>2020-06-05T11:34:02.000Z</time>
      </trkpt>
      <trkpt lat="44.06006" lon="6.84987">
        <ele>909</ele>
        <time>2020-06-05T11:34:03.000Z</time>
      </trkpt>
      <trkpt lat="44.06007" lon="6.84987">
        <ele>909</ele>
        <time>2020-06-05T11:34:04.000Z</time>
      </trkpt>
      <trkpt lat="44.06007" lon="6.84987">
        <ele>909</ele>
        <time>2020-06-05T11:34:05.000Z</time>
      </trkpt>
      <trkpt lat="44.06008" lon="6.84986">
        <ele>909</ele>
        <time>2020-06-05T11:34:06.000Z</time>
      </trkpt>
      <trkpt lat="44.06008" lon="6.84985">
        <ele>909</ele>
        <time>2020-06-05T11:34:07.000Z</time>
      </trkpt>
      <trkpt lat="44.06008" lon="6.84983">
        <ele>909</ele>
        <time>2020-06-05T11:34:08.000Z</time>
      </trkpt>
      <trkpt lat="44.06009" lon="6.84982">
        <ele>909</ele>
        <time>2020-06-05T11:34:09.000Z</time>
      </trkpt>
      <trkpt lat="44.06009" lon="6.84981">
        <ele>909</ele>
        <time>2020-06-05T11:34:10.000Z</time>
      </trkpt>
      <trkpt lat="44.06009" lon="6.8498">
        <ele>909</ele>
        <time>2020-06-05T11:34:11.000Z</time>
      </trkpt>
      <trkpt lat="44.06009" lon="6.84979">
        <ele>908</ele>
        <time>2020-06-05T11:34:12.000Z</time>
      </trkpt>
      <trkpt lat="44.06009" lon="6.84978">
        <ele>908</ele>
        <time>2020-06-05T11:34:13.000Z</time>
      </trkpt>
      <trkpt lat="44.06009" lon="6.84978">
        <ele>908</ele>
        <time>2020-06-05T11:34:14.000Z</time>
      </trkpt>
      <trkpt lat="44.06009" lon="6.84977">
        <ele>908</ele>
        <time>2020-06-05T11:34:15.000Z</time>
      </trkpt>
      <trkpt lat="44.06009" lon="6.84976">
        <ele>908</ele>
        <time>2020-06-05T11:34:16.000Z</time>
      </trkpt>
      <trkpt lat="44.06009" lon="6.84975">
        <ele>907</ele>
        <time>2020-06-05T11:34:17.000Z</time>
      </trkpt>
      <trkpt lat="44.0601" lon="6.84974">
        <ele>907</ele>
        <time>2020-06-05T11:34:18.000Z</time>
      </trkpt>
      <trkpt lat="44.06011" lon="6.84973">
        <ele>907</ele>
        <time>2020-06-05T11:34:19.000Z</time>
      </trkpt>
      <trkpt lat="44.06011" lon="6.84972">
        <ele>907</ele>
        <time>2020-06-05T11:34:20.000Z</time>
      </trkpt>
      <trkpt lat="44.06012" lon="6.84971">
        <ele>907</ele>
        <time>2020-06-05T11:34:21.000Z</time>
      </trkpt>
      <trkpt lat="44.06012" lon="6.8497">
        <ele>907</ele>
        <time>2020-06-05T11:34:22.000Z</time>
      </trkpt>
      <trkpt lat="44.06012" lon="6.84968">
        <ele>907</ele>
        <time>2020-06-05T11:34:23.000Z</time>
      </trkpt>
      <trkpt lat="44.06012" lon="6.84967">
        <ele>907</ele>
        <time>2020-06-05T11:34:24.000Z</time>
      </trkpt>
      <trkpt lat="44.06012" lon="6.84966">
        <ele>906</ele>
        <time>2020-06-05T11:34:25.000Z</time>
      </trkpt>
      <trkpt lat="44.06012" lon="6.84965">
        <ele>906</ele>
        <time>2020-06-05T11:34:26.000Z</time>
      </trkpt>
      <trkpt lat="44.06012" lon="6.84964">
        <ele>906</ele>
        <time>2020-06-05T11:34:27.000Z</time>
      </trkpt>
      <trkpt lat="44.06013" lon="6.84963">
        <ele>906</ele>
        <time>2020-06-05T11:34:28.000Z</time>
      </trkpt>
      <trkpt lat="44.06013" lon="6.84962">
        <ele>906</ele>
        <time>2020-06-05T11:34:29.000Z</time>
      </trkpt>
      <trkpt lat="44.06013" lon="6.84961">
        <ele>905</ele>
        <time>2020-06-05T11:34:30.000Z</time>
      </trkpt>
      <trkpt lat="44.06013" lon="6.8496">
        <ele>905</ele>
        <time>2020-06-05T11:34:31.000Z</time>
      </trkpt>
      <trkpt lat="44.06014" lon="6.84959">
        <ele>905</ele>
        <time>2020-06-05T11:34:32.000Z</time>
      </trkpt>
      <trkpt lat="44.06014" lon="6.84959">
        <ele>905</ele>
        <time>2020-06-05T11:34:33.000Z</time>
      </trkpt>
      <trkpt lat="44.06015" lon="6.8496">
        <ele>905</ele>
        <time>2020-06-05T11:34:34.000Z</time>
      </trkpt>
      <trkpt lat="44.06015" lon="6.84961">
        <ele>904</ele>
        <time>2020-06-05T11:34:35.000Z</time>
      </trkpt>
      <trkpt lat="44.06016" lon="6.84962">
        <ele>904</ele>
        <time>2020-06-05T11:34:36.000Z</time>
      </trkpt>
      <trkpt lat="44.06016" lon="6.84963">
        <ele>904</ele>
        <time>2020-06-05T11:34:37.000Z</time>
      </trkpt>
      <trkpt lat="44.06017" lon="6.84964">
        <ele>904</ele>
        <time>2020-06-05T11:34:38.000Z</time>
      </trkpt>
      <trkpt lat="44.06017" lon="6.84965">
        <ele>903</ele>
        <time>2020-06-05T11:34:39.000Z</time>
      </trkpt>
      <trkpt lat="44.06017" lon="6.84967">
        <ele>903</ele>
        <time>2020-06-05T11:34:40.000Z</time>
      </trkpt>
      <trkpt lat="44.06017" lon="6.84968">
        <ele>903</ele>
        <time>2020-06-05T11:34:41.000Z</time>
      </trkpt>
      <trkpt lat="44.06017" lon="6.84969">
        <ele>903</ele>
        <time>2020-06-05T11:34:42.000Z</time>
      </trkpt>
      <trkpt lat="44.06017" lon="6.8497">
        <ele>903</ele>
        <time>2020-06-05T11:34:43.000Z</time>
      </trkpt>
      <trkpt lat="44.06018" lon="6.84971">
        <ele>902</ele>
        <time>2020-06-05T11:34:44.000Z</time>
      </trkpt>
      <trkpt lat="44.06018" lon="6.84972">
        <ele>902</ele>
        <time>2020-06-05T11:34:45.000Z</time>
      </trkpt>
      <trkpt lat="44.06019" lon="6.84972">
        <ele>902</ele>
        <time>2020-06-05T11:34:46.000Z</time>
      </trkpt>
      <trkpt lat="44.0602" lon="6.84973">
        <ele>902</ele>
        <time>2020-06-05T11:34:47.000Z</time>
      </trkpt>
      <trkpt lat="44.06021" lon="6.84974">
        <ele>902</ele>
        <time>2020-06-05T11:34:48.000Z</time>
      </trkpt>
      <trkpt lat="44.06021" lon="6.84975">
        <ele>902</ele>
        <time>2020-06-05T11:34:49.000Z</time>
      </trkpt>
      <trkpt lat="44.06021" lon="6.84976">
        <ele>901</ele>
        <time>2020-06-05T11:34:50.000Z</time>
      </trkpt>
      <trkpt lat="44.06022" lon="6.84977">
        <ele>901</ele>
        <time>2020-06-05T11:34:51.000Z</time>
      </trkpt>
      <trkpt lat="44.06022" lon="6.84978">
        <ele>901</ele>
        <time>2020-06-05T11:34:52.000Z</time>
      </trkpt>
      <trkpt lat="44.06022" lon="6.84979">
        <ele>901</ele>
        <time>2020-06-05T11:34:53.000Z</time>
      </trkpt>
      <trkpt lat="44.06023" lon="6.8498">
        <ele>901</ele>
        <time>2020-06-05T11:34:54.000Z</time>
      </trkpt>
      <trkpt lat="44.06023" lon="6.84981">
        <ele>901</ele>
        <time>2020-06-05T11:34:55.000Z</time>
      </trkpt>
      <trkpt lat="44.06024" lon="6.84982">
        <ele>901</ele>
        <time>2020-06-05T11:34:56.000Z</time>
      </trkpt>
      <trkpt lat="44.06024" lon="6.84983">
        <ele>900</ele>
        <time>2020-06-05T11:34:57.000Z</time>
      </trkpt>
      <trkpt lat="44.06025" lon="6.84985">
        <ele>900</ele>
        <time>2020-06-05T11:34:58.000Z</time>
      </trkpt>
      <trkpt lat="44.06026" lon="6.84986">
        <ele>900</ele>
        <time>2020-06-05T11:34:59.000Z</time>
      </trkpt>
      <trkpt lat="44.06026" lon="6.84987">
        <ele>900</ele>
        <time>2020-06-05T11:35:00.000Z</time>
      </trkpt>
      <trkpt lat="44.06026" lon="6.84988">
        <ele>900</ele>
        <time>2020-06-05T11:35:01.000Z</time>
      </trkpt>
      <trkpt lat="44.06026" lon="6.84989">
        <ele>900</ele>
        <time>2020-06-05T11:35:02.000Z</time>
      </trkpt>
      <trkpt lat="44.06026" lon="6.8499">
        <ele>900</ele>
        <time>2020-06-05T11:35:03.000Z</time>
      </trkpt>
      <trkpt lat="44.06027" lon="6.84991">
        <ele>899</ele>
        <time>2020-06-05T11:35:04.000Z</time>
      </trkpt>
      <trkpt lat="44.06027" lon="6.84992">
        <ele>899</ele>
        <time>2020-06-05T11:35:05.000Z</time>
      </trkpt>
      <trkpt lat="44.06028" lon="6.84994">
        <ele>899</ele>
        <time>2020-06-05T11:35:06.000Z</time>
      </trkpt>
      <trkpt lat="44.06028" lon="6.84995">
        <ele>899</ele>
        <time>2020-06-05T11:35:07.000Z</time>
      </trkpt>
      <trkpt lat="44.06028" lon="6.84996">
        <ele>899</ele>
        <time>2020-06-05T11:35:08.000Z</time>
      </trkpt>
      <trkpt lat="44.06029" lon="6.84997">
        <ele>898</ele>
        <time>2020-06-05T11:35:09.000Z</time>
      </trkpt>
      <trkpt lat="44.0603" lon="6.84998">
        <ele>898</ele>
        <time>2020-06-05T11:35:10.000Z</time>
      </trkpt>
      <trkpt lat="44.0603" lon="6.84999">
        <ele>898</ele>
        <time>2020-06-05T11:35:11.000Z</time>
      </trkpt>
      <trkpt lat="44.06031" lon="6.85">
        <ele>898</ele>
        <time>2020-06-05T11:35:12.000Z</time>
      </trkpt>
      <trkpt lat="44.06031" lon="6.85001">
        <ele>897</ele>
        <time>2020-06-05T11:35:13.000Z</time>
      </trkpt>
      <trkpt lat="44.06032" lon="6.85001">
        <ele>897</ele>
        <time>2020-06-05T11:35:14.000Z</time>
      </trkpt>
      <trkpt lat="44.06033" lon="6.85001">
        <ele>897</ele>
        <time>2020-06-05T11:35:15.000Z</time>
      </trkpt>
      <trkpt lat="44.06033" lon="6.85001">
        <ele>897</ele>
        <time>2020-06-05T11:35:16.000Z</time>
      </trkpt>
      <trkpt lat="44.06034" lon="6.85001">
        <ele>897</ele>
        <time>2020-06-05T11:35:17.000Z</time>
      </trkpt>
      <trkpt lat="44.06035" lon="6.85001">
        <ele>896</ele>
        <time>2020-06-05T11:35:18.000Z</time>
      </trkpt>
      <trkpt lat="44.06035" lon="6.85">
        <ele>896</ele>
        <time>2020-06-05T11:35:19.000Z</time>
      </trkpt>
      <trkpt lat="44.06036" lon="6.85">
        <ele>896</ele>
        <time>2020-06-05T11:35:20.000Z</time>
      </trkpt>
      <trkpt lat="44.06037" lon="6.84999">
        <ele>896</ele>
        <time>2020-06-05T11:35:21.000Z</time>
      </trkpt>
      <trkpt lat="44.06038" lon="6.84999">
        <ele>896</ele>
        <time>2020-06-05T11:35:22.000Z</time>
      </trkpt>
      <trkpt lat="44.06039" lon="6.85">
        <ele>896</ele>
        <time>2020-06-05T11:35:23.000Z</time>
      </trkpt>
      <trkpt lat="44.0604" lon="6.85001">
        <ele>896</ele>
        <time>2020-06-05T11:35:24.000Z</time>
      </trkpt>
      <trkpt lat="44.0604" lon="6.85002">
        <ele>895</ele>
        <time>2020-06-05T11:35:25.000Z</time>
      </trkpt>
      <trkpt lat="44.06041" lon="6.85003">
        <ele>895</ele>
        <time>2020-06-05T11:35:26.000Z</time>
      </trkpt>
      <trkpt lat="44.06041" lon="6.85004">
        <ele>895</ele>
        <time>2020-06-05T11:35:27.000Z</time>
      </trkpt>
      <trkpt lat="44.06041" lon="6.85005">
        <ele>895</ele>
        <time>2020-06-05T11:35:28.000Z</time>
      </trkpt>
      <trkpt lat="44.06041" lon="6.85005">
        <ele>895</ele>
        <time>2020-06-05T11:35:29.000Z</time>
      </trkpt>
      <trkpt lat="44.06041" lon="6.85005">
        <ele>895</ele>
        <time>2020-06-05T11:35:30.000Z</time>
      </trkpt>
      <trkpt lat="44.06041" lon="6.85006">
        <ele>895</ele>
        <time>2020-06-05T11:35:31.000Z</time>
      </trkpt>
      <trkpt lat="44.06041" lon="6.85006">
        <ele>895</ele>
        <time>2020-06-05T11:35:32.000Z</time>
      </trkpt>
      <trkpt lat="44.06041" lon="6.85007">
        <ele>895</ele>
        <time>2020-06-05T11:35:33.000Z</time>
      </trkpt>
      <trkpt lat="44.06041" lon="6.85008">
        <ele>894</ele>
        <time>2020-06-05T11:35:34.000Z</time>
      </trkpt>
      <trkpt lat="44.06041" lon="6.85009">
        <ele>894</ele>
        <time>2020-06-05T11:35:35.000Z</time>
      </trkpt>
      <trkpt lat="44.06041" lon="6.8501">
        <ele>894</ele>
        <time>2020-06-05T11:35:36.000Z</time>
      </trkpt>
      <trkpt lat="44.06041" lon="6.85011">
        <ele>894</ele>
        <time>2020-06-05T11:35:37.000Z</time>
      </trkpt>
      <trkpt lat="44.0604" lon="6.85012">
        <ele>894</ele>
        <time>2020-06-05T11:35:38.000Z</time>
      </trkpt>
      <trkpt lat="44.0604" lon="6.85012">
        <ele>894</ele>
        <time>2020-06-05T11:35:39.000Z</time>
      </trkpt>
      <trkpt lat="44.0604" lon="6.85012">
        <ele>894</ele>
        <time>2020-06-05T11:35:40.000Z</time>
      </trkpt>
      <trkpt lat="44.0604" lon="6.85012">
        <ele>894</ele>
        <time>2020-06-05T11:35:41.000Z</time>
      </trkpt>
      <trkpt lat="44.0604" lon="6.85012">
        <ele>894</ele>
        <time>2020-06-05T11:35:42.000Z</time>
      </trkpt>
      <trkpt lat="44.06039" lon="6.85013">
        <ele>894</ele>
        <time>2020-06-05T11:35:43.000Z</time>
      </trkpt>
      <trkpt lat="44.06039" lon="6.85013">
        <ele>894</ele>
        <time>2020-06-05T11:35:44.000Z</time>
      </trkpt>
      <trkpt lat="44.06039" lon="6.85013">
        <ele>894</ele>
        <time>2020-06-05T11:35:45.000Z</time>
      </trkpt>
      <trkpt lat="44.06039" lon="6.85013">
        <ele>894</ele>
        <time>2020-06-05T11:35:46.000Z</time>
      </trkpt>
      <trkpt lat="44.06039" lon="6.85013">
        <ele>894</ele>
        <time>2020-06-05T11:35:47.000Z</time>
      </trkpt>
      <trkpt lat="44.06039" lon="6.85014">
        <ele>894</ele>
        <time>2020-06-05T11:35:48.000Z</time>
      </trkpt>
      <trkpt lat="44.06039" lon="6.85015">
        <ele>894</ele>
        <time>2020-06-05T11:35:49.000Z</time>
      </trkpt>
      <trkpt lat="44.06039" lon="6.85015">
        <ele>894</ele>
        <time>2020-06-05T11:35:50.000Z</time>
      </trkpt>
      <trkpt lat="44.06039" lon="6.85016">
        <ele>894</ele>
        <time>2020-06-05T11:35:51.000Z</time>
      </trkpt>
      <trkpt lat="44.06039" lon="6.85017">
        <ele>894</ele>
        <time>2020-06-05T11:35:52.000Z</time>
      </trkpt>
      <trkpt lat="44.06039" lon="6.85018">
        <ele>894</ele>
        <time>2020-06-05T11:35:53.000Z</time>
      </trkpt>
      <trkpt lat="44.06039" lon="6.85019">
        <ele>894</ele>
        <time>2020-06-05T11:35:54.000Z</time>
      </trkpt>
      <trkpt lat="44.0604" lon="6.8502">
        <ele>894</ele>
        <time>2020-06-05T11:35:55.000Z</time>
      </trkpt>
      <trkpt lat="44.06039" lon="6.85021">
        <ele>894</ele>
        <time>2020-06-05T11:35:56.000Z</time>
      </trkpt>
      <trkpt lat="44.06039" lon="6.85022">
        <ele>893</ele>
        <time>2020-06-05T11:35:57.000Z</time>
      </trkpt>
      <trkpt lat="44.06039" lon="6.85023">
        <ele>893</ele>
        <time>2020-06-05T11:35:58.000Z</time>
      </trkpt>
      <trkpt lat="44.06039" lon="6.85024">
        <ele>893</ele>
        <time>2020-06-05T11:35:59.000Z</time>
      </trkpt>
      <trkpt lat="44.06039" lon="6.85025">
        <ele>893</ele>
        <time>2020-06-05T11:36:00.000Z</time>
      </trkpt>
      <trkpt lat="44.06039" lon="6.85026">
        <ele>893</ele>
        <time>2020-06-05T11:36:01.000Z</time>
      </trkpt>
      <trkpt lat="44.06038" lon="6.85027">
        <ele>893</ele>
        <time>2020-06-05T11:36:02.000Z</time>
      </trkpt>
      <trkpt lat="44.06038" lon="6.85028">
        <ele>892</ele>
        <time>2020-06-05T11:36:03.000Z</time>
      </trkpt>
      <trkpt lat="44.06038" lon="6.85028">
        <ele>892</ele>
        <time>2020-06-05T11:36:04.000Z</time>
      </trkpt>
      <trkpt lat="44.06037" lon="6.85029">
        <ele>892</ele>
        <time>2020-06-05T11:36:05.000Z</time>
      </trkpt>
      <trkpt lat="44.06037" lon="6.85029">
        <ele>892</ele>
        <time>2020-06-05T11:36:06.000Z</time>
      </trkpt>
      <trkpt lat="44.06037" lon="6.85029">
        <ele>892</ele>
        <time>2020-06-05T11:36:07.000Z</time>
      </trkpt>
      <trkpt lat="44.06037" lon="6.85029">
        <ele>892</ele>
        <time>2020-06-05T11:36:08.000Z</time>
      </trkpt>
      <trkpt lat="44.06037" lon="6.85029">
        <ele>892</ele>
        <time>2020-06-05T11:36:09.000Z</time>
      </trkpt>
      <trkpt lat="44.06038" lon="6.85028">
        <ele>892</ele>
        <time>2020-06-05T11:36:10.000Z</time>
      </trkpt>
      <trkpt lat="44.06038" lon="6.85028">
        <ele>892</ele>
        <time>2020-06-05T11:36:11.000Z</time>
      </trkpt>
      <trkpt lat="44.06039" lon="6.85028">
        <ele>892</ele>
        <time>2020-06-05T11:36:12.000Z</time>
      </trkpt>
      <trkpt lat="44.06039" lon="6.85028">
        <ele>892</ele>
        <time>2020-06-05T11:36:13.000Z</time>
      </trkpt>
      <trkpt lat="44.0604" lon="6.85028">
        <ele>892</ele>
        <time>2020-06-05T11:36:14.000Z</time>
      </trkpt>
      <trkpt lat="44.0604" lon="6.85028">
        <ele>891</ele>
        <time>2020-06-05T11:36:15.000Z</time>
      </trkpt>
      <trkpt lat="44.06041" lon="6.85028">
        <ele>891</ele>
        <time>2020-06-05T11:36:16.000Z</time>
      </trkpt>
      <trkpt lat="44.06042" lon="6.85028">
        <ele>891</ele>
        <time>2020-06-05T11:36:17.000Z</time>
      </trkpt>
      <trkpt lat="44.06043" lon="6.85027">
        <ele>891</ele>
        <time>2020-06-05T11:36:18.000Z</time>
      </trkpt>
      <trkpt lat="44.06043" lon="6.85027">
        <ele>891</ele>
        <time>2020-06-05T11:36:19.000Z</time>
      </trkpt>
      <trkpt lat="44.06044" lon="6.85026">
        <ele>891</ele>
        <time>2020-06-05T11:36:20.000Z</time>
      </trkpt>
      <trkpt lat="44.06045" lon="6.85025">
        <ele>891</ele>
        <time>2020-06-05T11:36:21.000Z</time>
      </trkpt>
      <trkpt lat="44.06046" lon="6.85025">
        <ele>891</ele>
        <time>2020-06-05T11:36:22.000Z</time>
      </trkpt>
      <trkpt lat="44.06047" lon="6.85024">
        <ele>891</ele>
        <time>2020-06-05T11:36:23.000Z</time>
      </trkpt>
      <trkpt lat="44.06048" lon="6.85023">
        <ele>891</ele>
        <time>2020-06-05T11:36:24.000Z</time>
      </trkpt>
      <trkpt lat="44.06049" lon="6.85023">
        <ele>891</ele>
        <time>2020-06-05T11:36:25.000Z</time>
      </trkpt>
      <trkpt lat="44.06049" lon="6.85023">
        <ele>891</ele>
        <time>2020-06-05T11:36:26.000Z</time>
      </trkpt>
      <trkpt lat="44.0605" lon="6.85022">
        <ele>891</ele>
        <time>2020-06-05T11:36:27.000Z</time>
      </trkpt>
      <trkpt lat="44.06051" lon="6.85021">
        <ele>891</ele>
        <time>2020-06-05T11:36:28.000Z</time>
      </trkpt>
      <trkpt lat="44.06051" lon="6.85021">
        <ele>891</ele>
        <time>2020-06-05T11:36:29.000Z</time>
      </trkpt>
      <trkpt lat="44.06052" lon="6.8502">
        <ele>891</ele>
        <time>2020-06-05T11:36:30.000Z</time>
      </trkpt>
      <trkpt lat="44.06053" lon="6.85019">
        <ele>890</ele>
        <time>2020-06-05T11:36:31.000Z</time>
      </trkpt>
      <trkpt lat="44.06054" lon="6.85018">
        <ele>890</ele>
        <time>2020-06-05T11:36:32.000Z</time>
      </trkpt>
      <trkpt lat="44.06054" lon="6.85017">
        <ele>890</ele>
        <time>2020-06-05T11:36:33.000Z</time>
      </trkpt>
      <trkpt lat="44.06055" lon="6.85017">
        <ele>890</ele>
        <time>2020-06-05T11:36:34.000Z</time>
      </trkpt>
      <trkpt lat="44.06055" lon="6.85016">
        <ele>890</ele>
        <time>2020-06-05T11:36:35.000Z</time>
      </trkpt>
      <trkpt lat="44.06056" lon="6.85015">
        <ele>890</ele>
        <time>2020-06-05T11:36:36.000Z</time>
      </trkpt>
      <trkpt lat="44.06056" lon="6.85014">
        <ele>890</ele>
        <time>2020-06-05T11:36:37.000Z</time>
      </trkpt>
      <trkpt lat="44.06057" lon="6.85014">
        <ele>890</ele>
        <time>2020-06-05T11:36:38.000Z</time>
      </trkpt>
      <trkpt lat="44.06057" lon="6.85015">
        <ele>890</ele>
        <time>2020-06-05T11:36:39.000Z</time>
      </trkpt>
      <trkpt lat="44.06057" lon="6.85016">
        <ele>890</ele>
        <time>2020-06-05T11:36:40.000Z</time>
      </trkpt>
      <trkpt lat="44.06057" lon="6.85017">
        <ele>890</ele>
        <time>2020-06-05T11:36:41.000Z</time>
      </trkpt>
      <trkpt lat="44.06057" lon="6.85018">
        <ele>889</ele>
        <time>2020-06-05T11:36:42.000Z</time>
      </trkpt>
      <trkpt lat="44.06057" lon="6.85018">
        <ele>889</ele>
        <time>2020-06-05T11:36:43.000Z</time>
      </trkpt>
      <trkpt lat="44.06057" lon="6.85018">
        <ele>889</ele>
        <time>2020-06-05T11:36:44.000Z</time>
      </trkpt>
      <trkpt lat="44.06057" lon="6.85019">
        <ele>889</ele>
        <time>2020-06-05T11:36:45.000Z</time>
      </trkpt>
      <trkpt lat="44.06057" lon="6.85019">
        <ele>889</ele>
        <time>2020-06-05T11:36:46.000Z</time>
      </trkpt>
      <trkpt lat="44.06057" lon="6.8502">
        <ele>889</ele>
        <time>2020-06-05T11:36:47.000Z</time>
      </trkpt>
      <trkpt lat="44.06057" lon="6.8502">
        <ele>888</ele>
        <time>2020-06-05T11:36:48.000Z</time>
      </trkpt>
      <trkpt lat="44.06057" lon="6.8502">
        <ele>888</ele>
        <time>2020-06-05T11:36:49.000Z</time>
      </trkpt>
      <trkpt lat="44.06057" lon="6.85021">
        <ele>888</ele>
        <time>2020-06-05T11:36:50.000Z</time>
      </trkpt>
      <trkpt lat="44.06057" lon="6.85021">
        <ele>888</ele>
        <time>2020-06-05T11:36:51.000Z</time>
      </trkpt>
      <trkpt lat="44.06057" lon="6.85021">
        <ele>887</ele>
        <time>2020-06-05T11:36:52.000Z</time>
      </trkpt>
      <trkpt lat="44.06057" lon="6.85022">
        <ele>887</ele>
        <time>2020-06-05T11:36:53.000Z</time>
      </trkpt>
      <trkpt lat="44.06057" lon="6.85023">
        <ele>887</ele>
        <time>2020-06-05T11:36:54.000Z</time>
      </trkpt>
      <trkpt lat="44.06057" lon="6.85023">
        <ele>887</ele>
        <time>2020-06-05T11:36:55.000Z</time>
      </trkpt>
      <trkpt lat="44.06057" lon="6.85024">
        <ele>887</ele>
        <time>2020-06-05T11:36:56.000Z</time>
      </trkpt>
      <trkpt lat="44.06058" lon="6.85025">
        <ele>886</ele>
        <time>2020-06-05T11:36:57.000Z</time>
      </trkpt>
      <trkpt lat="44.06058" lon="6.85026">
        <ele>886</ele>
        <time>2020-06-05T11:36:58.000Z</time>
      </trkpt>
      <trkpt lat="44.06058" lon="6.85026">
        <ele>886</ele>
        <time>2020-06-05T11:36:59.000Z</time>
      </trkpt>
      <trkpt lat="44.06059" lon="6.85027">
        <ele>886</ele>
        <time>2020-06-05T11:37:00.000Z</time>
      </trkpt>
      <trkpt lat="44.06059" lon="6.85027">
        <ele>885</ele>
        <time>2020-06-05T11:37:01.000Z</time>
      </trkpt>
      <trkpt lat="44.0606" lon="6.85026">
        <ele>885</ele>
        <time>2020-06-05T11:37:02.000Z</time>
      </trkpt>
      <trkpt lat="44.06061" lon="6.85026">
        <ele>885</ele>
        <time>2020-06-05T11:37:03.000Z</time>
      </trkpt>
      <trkpt lat="44.06062" lon="6.85025">
        <ele>885</ele>
        <time>2020-06-05T11:37:04.000Z</time>
      </trkpt>
      <trkpt lat="44.06063" lon="6.85025">
        <ele>885</ele>
        <time>2020-06-05T11:37:05.000Z</time>
      </trkpt>
      <trkpt lat="44.06063" lon="6.85024">
        <ele>884</ele>
        <time>2020-06-05T11:37:06.000Z</time>
      </trkpt>
      <trkpt lat="44.06064" lon="6.85024">
        <ele>884</ele>
        <time>2020-06-05T11:37:07.000Z</time>
      </trkpt>
      <trkpt lat="44.06065" lon="6.85023">
        <ele>884</ele>
        <time>2020-06-05T11:37:08.000Z</time>
      </trkpt>
      <trkpt lat="44.06066" lon="6.85022">
        <ele>884</ele>
        <time>2020-06-05T11:37:09.000Z</time>
      </trkpt>
      <trkpt lat="44.06067" lon="6.85022">
        <ele>884</ele>
        <time>2020-06-05T11:37:10.000Z</time>
      </trkpt>
      <trkpt lat="44.06067" lon="6.85021">
        <ele>884</ele>
        <time>2020-06-05T11:37:11.000Z</time>
      </trkpt>
      <trkpt lat="44.06068" lon="6.8502">
        <ele>884</ele>
        <time>2020-06-05T11:37:12.000Z</time>
      </trkpt>
      <trkpt lat="44.06068" lon="6.8502">
        <ele>884</ele>
        <time>2020-06-05T11:37:13.000Z</time>
      </trkpt>
      <trkpt lat="44.06068" lon="6.85019">
        <ele>883</ele>
        <time>2020-06-05T11:37:14.000Z</time>
      </trkpt>
      <trkpt lat="44.06068" lon="6.85018">
        <ele>883</ele>
        <time>2020-06-05T11:37:15.000Z</time>
      </trkpt>
      <trkpt lat="44.06069" lon="6.85017">
        <ele>883</ele>
        <time>2020-06-05T11:37:16.000Z</time>
      </trkpt>
      <trkpt lat="44.06069" lon="6.85016">
        <ele>883</ele>
        <time>2020-06-05T11:37:17.000Z</time>
      </trkpt>
      <trkpt lat="44.06069" lon="6.85015">
        <ele>883</ele>
        <time>2020-06-05T11:37:18.000Z</time>
      </trkpt>
      <trkpt lat="44.06069" lon="6.85014">
        <ele>882</ele>
        <time>2020-06-05T11:37:19.000Z</time>
      </trkpt>
      <trkpt lat="44.06068" lon="6.85013">
        <ele>882</ele>
        <time>2020-06-05T11:37:20.000Z</time>
      </trkpt>
      <trkpt lat="44.06068" lon="6.85012">
        <ele>882</ele>
        <time>2020-06-05T11:37:21.000Z</time>
      </trkpt>
      <trkpt lat="44.06068" lon="6.85011">
        <ele>882</ele>
        <time>2020-06-05T11:37:22.000Z</time>
      </trkpt>
      <trkpt lat="44.06068" lon="6.8501">
        <ele>881</ele>
        <time>2020-06-05T11:37:23.000Z</time>
      </trkpt>
      <trkpt lat="44.06068" lon="6.85009">
        <ele>881</ele>
        <time>2020-06-05T11:37:24.000Z</time>
      </trkpt>
      <trkpt lat="44.06068" lon="6.85008">
        <ele>881</ele>
        <time>2020-06-05T11:37:25.000Z</time>
      </trkpt>
      <trkpt lat="44.06068" lon="6.85007">
        <ele>881</ele>
        <time>2020-06-05T11:37:26.000Z</time>
      </trkpt>
      <trkpt lat="44.06068" lon="6.85006">
        <ele>881</ele>
        <time>2020-06-05T11:37:27.000Z</time>
      </trkpt>
      <trkpt lat="44.06068" lon="6.85005">
        <ele>880</ele>
        <time>2020-06-05T11:37:28.000Z</time>
      </trkpt>
      <trkpt lat="44.06067" lon="6.85004">
        <ele>880</ele>
        <time>2020-06-05T11:37:29.000Z</time>
      </trkpt>
      <trkpt lat="44.06068" lon="6.85003">
        <ele>880</ele>
        <time>2020-06-05T11:37:30.000Z</time>
      </trkpt>
      <trkpt lat="44.06068" lon="6.85002">
        <ele>880</ele>
        <time>2020-06-05T11:37:31.000Z</time>
      </trkpt>
      <trkpt lat="44.06067" lon="6.85001">
        <ele>880</ele>
        <time>2020-06-05T11:37:32.000Z</time>
      </trkpt>
      <trkpt lat="44.06067" lon="6.84999">
        <ele>880</ele>
        <time>2020-06-05T11:37:33.000Z</time>
      </trkpt>
      <trkpt lat="44.06067" lon="6.84997">
        <ele>879</ele>
        <time>2020-06-05T11:37:34.000Z</time>
      </trkpt>
      <trkpt lat="44.06067" lon="6.84996">
        <ele>879</ele>
        <time>2020-06-05T11:37:35.000Z</time>
      </trkpt>
      <trkpt lat="44.06067" lon="6.84995">
        <ele>879</ele>
        <time>2020-06-05T11:37:36.000Z</time>
      </trkpt>
      <trkpt lat="44.06067" lon="6.84994">
        <ele>879</ele>
        <time>2020-06-05T11:37:37.000Z</time>
      </trkpt>
      <trkpt lat="44.06067" lon="6.84993">
        <ele>879</ele>
        <time>2020-06-05T11:37:38.000Z</time>
      </trkpt>
      <trkpt lat="44.06067" lon="6.84991">
        <ele>879</ele>
        <time>2020-06-05T11:37:39.000Z</time>
      </trkpt>
      <trkpt lat="44.06067" lon="6.8499">
        <ele>878</ele>
        <time>2020-06-05T11:37:40.000Z</time>
      </trkpt>
      <trkpt lat="44.06067" lon="6.84989">
        <ele>878</ele>
        <time>2020-06-05T11:37:41.000Z</time>
      </trkpt>
      <trkpt lat="44.06067" lon="6.84987">
        <ele>878</ele>
        <time>2020-06-05T11:37:42.000Z</time>
      </trkpt>
      <trkpt lat="44.06068" lon="6.84985">
        <ele>878</ele>
        <time>2020-06-05T11:37:43.000Z</time>
      </trkpt>
      <trkpt lat="44.06068" lon="6.84984">
        <ele>878</ele>
        <time>2020-06-05T11:37:44.000Z</time>
      </trkpt>
      <trkpt lat="44.06068" lon="6.84982">
        <ele>877</ele>
        <time>2020-06-05T11:37:45.000Z</time>
      </trkpt>
      <trkpt lat="44.06068" lon="6.84981">
        <ele>877</ele>
        <time>2020-06-05T11:37:46.000Z</time>
      </trkpt>
      <trkpt lat="44.06069" lon="6.8498">
        <ele>877</ele>
        <time>2020-06-05T11:37:47.000Z</time>
      </trkpt>
      <trkpt lat="44.06069" lon="6.84978">
        <ele>877</ele>
        <time>2020-06-05T11:37:48.000Z</time>
      </trkpt>
      <trkpt lat="44.06069" lon="6.84977">
        <ele>877</ele>
        <time>2020-06-05T11:37:49.000Z</time>
      </trkpt>
      <trkpt lat="44.0607" lon="6.84976">
        <ele>876</ele>
        <time>2020-06-05T11:37:50.000Z</time>
      </trkpt>
      <trkpt lat="44.0607" lon="6.84975">
        <ele>876</ele>
        <time>2020-06-05T11:37:51.000Z</time>
      </trkpt>
      <trkpt lat="44.06071" lon="6.84974">
        <ele>876</ele>
        <time>2020-06-05T11:37:52.000Z</time>
      </trkpt>
      <trkpt lat="44.06071" lon="6.84973">
        <ele>876</ele>
        <time>2020-06-05T11:37:53.000Z</time>
      </trkpt>
      <trkpt lat="44.06071" lon="6.84971">
        <ele>875</ele>
        <time>2020-06-05T11:37:54.000Z</time>
      </trkpt>
      <trkpt lat="44.06072" lon="6.8497">
        <ele>875</ele>
        <time>2020-06-05T11:37:55.000Z</time>
      </trkpt>
      <trkpt lat="44.06073" lon="6.84968">
        <ele>875</ele>
        <time>2020-06-05T11:37:56.000Z</time>
      </trkpt>
      <trkpt lat="44.06073" lon="6.84967">
        <ele>875</ele>
        <time>2020-06-05T11:37:57.000Z</time>
      </trkpt>
      <trkpt lat="44.06074" lon="6.84966">
        <ele>874</ele>
        <time>2020-06-05T11:37:58.000Z</time>
      </trkpt>
      <trkpt lat="44.06075" lon="6.84964">
        <ele>874</ele>
        <time>2020-06-05T11:37:59.000Z</time>
      </trkpt>
      <trkpt lat="44.06075" lon="6.84963">
        <ele>874</ele>
        <time>2020-06-05T11:38:00.000Z</time>
      </trkpt>
      <trkpt lat="44.06076" lon="6.84961">
        <ele>873</ele>
        <time>2020-06-05T11:38:01.000Z</time>
      </trkpt>
      <trkpt lat="44.06076" lon="6.8496">
        <ele>873</ele>
        <time>2020-06-05T11:38:02.000Z</time>
      </trkpt>
      <trkpt lat="44.06075" lon="6.84958">
        <ele>873</ele>
        <time>2020-06-05T11:38:03.000Z</time>
      </trkpt>
      <trkpt lat="44.06075" lon="6.84957">
        <ele>873</ele>
        <time>2020-06-05T11:38:04.000Z</time>
      </trkpt>
      <trkpt lat="44.06074" lon="6.84956">
        <ele>872</ele>
        <time>2020-06-05T11:38:05.000Z</time>
      </trkpt>
      <trkpt lat="44.06074" lon="6.84955">
        <ele>872</ele>
        <time>2020-06-05T11:38:06.000Z</time>
      </trkpt>
      <trkpt lat="44.06073" lon="6.84954">
        <ele>872</ele>
        <time>2020-06-05T11:38:07.000Z</time>
      </trkpt>
      <trkpt lat="44.06073" lon="6.84953">
        <ele>872</ele>
        <time>2020-06-05T11:38:08.000Z</time>
      </trkpt>
      <trkpt lat="44.06072" lon="6.84952">
        <ele>871</ele>
        <time>2020-06-05T11:38:09.000Z</time>
      </trkpt>
      <trkpt lat="44.06072" lon="6.84951">
        <ele>871</ele>
        <time>2020-06-05T11:38:10.000Z</time>
      </trkpt>
      <trkpt lat="44.06072" lon="6.8495">
        <ele>871</ele>
        <time>2020-06-05T11:38:11.000Z</time>
      </trkpt>
      <trkpt lat="44.06072" lon="6.84949">
        <ele>870</ele>
        <time>2020-06-05T11:38:12.000Z</time>
      </trkpt>
      <trkpt lat="44.06071" lon="6.84948">
        <ele>870</ele>
        <time>2020-06-05T11:38:13.000Z</time>
      </trkpt>
      <trkpt lat="44.06071" lon="6.84946">
        <ele>870</ele>
        <time>2020-06-05T11:38:14.000Z</time>
      </trkpt>
      <trkpt lat="44.0607" lon="6.84945">
        <ele>869</ele>
        <time>2020-06-05T11:38:15.000Z</time>
      </trkpt>
      <trkpt lat="44.06069" lon="6.84944">
        <ele>869</ele>
        <time>2020-06-05T11:38:16.000Z</time>
      </trkpt>
      <trkpt lat="44.06069" lon="6.84943">
        <ele>869</ele>
        <time>2020-06-05T11:38:17.000Z</time>
      </trkpt>
      <trkpt lat="44.06068" lon="6.84941">
        <ele>868</ele>
        <time>2020-06-05T11:38:18.000Z</time>
      </trkpt>
      <trkpt lat="44.06068" lon="6.84939">
        <ele>868</ele>
        <time>2020-06-05T11:38:19.000Z</time>
      </trkpt>
      <trkpt lat="44.06067" lon="6.84938">
        <ele>868</ele>
        <time>2020-06-05T11:38:20.000Z</time>
      </trkpt>
      <trkpt lat="44.06067" lon="6.84937">
        <ele>868</ele>
        <time>2020-06-05T11:38:21.000Z</time>
      </trkpt>
      <trkpt lat="44.06067" lon="6.84936">
        <ele>867</ele>
        <time>2020-06-05T11:38:22.000Z</time>
      </trkpt>
      <trkpt lat="44.06067" lon="6.84934">
        <ele>867</ele>
        <time>2020-06-05T11:38:23.000Z</time>
      </trkpt>
      <trkpt lat="44.06067" lon="6.84933">
        <ele>867</ele>
        <time>2020-06-05T11:38:24.000Z</time>
      </trkpt>
      <trkpt lat="44.06066" lon="6.84932">
        <ele>866</ele>
        <time>2020-06-05T11:38:25.000Z</time>
      </trkpt>
      <trkpt lat="44.06066" lon="6.8493">
        <ele>866</ele>
        <time>2020-06-05T11:38:26.000Z</time>
      </trkpt>
      <trkpt lat="44.06066" lon="6.84929">
        <ele>866</ele>
        <time>2020-06-05T11:38:27.000Z</time>
      </trkpt>
      <trkpt lat="44.06066" lon="6.84928">
        <ele>865</ele>
        <time>2020-06-05T11:38:28.000Z</time>
      </trkpt>
      <trkpt lat="44.06066" lon="6.84927">
        <ele>865</ele>
        <time>2020-06-05T11:38:29.000Z</time>
      </trkpt>
      <trkpt lat="44.06067" lon="6.84926">
        <ele>865</ele>
        <time>2020-06-05T11:38:30.000Z</time>
      </trkpt>
      <trkpt lat="44.06067" lon="6.84925">
        <ele>865</ele>
        <time>2020-06-05T11:38:31.000Z</time>
      </trkpt>
      <trkpt lat="44.06068" lon="6.84923">
        <ele>864</ele>
        <time>2020-06-05T11:38:32.000Z</time>
      </trkpt>
      <trkpt lat="44.06069" lon="6.84923">
        <ele>864</ele>
        <time>2020-06-05T11:38:33.000Z</time>
      </trkpt>
      <trkpt lat="44.0607" lon="6.84923">
        <ele>864</ele>
        <time>2020-06-05T11:38:34.000Z</time>
      </trkpt>
      <trkpt lat="44.0607" lon="6.84923">
        <ele>864</ele>
        <time>2020-06-05T11:38:35.000Z</time>
      </trkpt>
      <trkpt lat="44.0607" lon="6.84924">
        <ele>864</ele>
        <time>2020-06-05T11:38:36.000Z</time>
      </trkpt>
      <trkpt lat="44.06071" lon="6.84925">
        <ele>864</ele>
        <time>2020-06-05T11:38:37.000Z</time>
      </trkpt>
      <trkpt lat="44.06071" lon="6.84925">
        <ele>864</ele>
        <time>2020-06-05T11:38:38.000Z</time>
      </trkpt>
      <trkpt lat="44.06071" lon="6.84926">
        <ele>864</ele>
        <time>2020-06-05T11:38:39.000Z</time>
      </trkpt>
      <trkpt lat="44.06071" lon="6.84927">
        <ele>864</ele>
        <time>2020-06-05T11:38:40.000Z</time>
      </trkpt>
      <trkpt lat="44.06071" lon="6.84928">
        <ele>864</ele>
        <time>2020-06-05T11:38:41.000Z</time>
      </trkpt>
      <trkpt lat="44.06071" lon="6.84929">
        <ele>864</ele>
        <time>2020-06-05T11:38:42.000Z</time>
      </trkpt>
      <trkpt lat="44.06071" lon="6.84929">
        <ele>864</ele>
        <time>2020-06-05T11:38:43.000Z</time>
      </trkpt>
      <trkpt lat="44.06071" lon="6.8493">
        <ele>864</ele>
        <time>2020-06-05T11:38:44.000Z</time>
      </trkpt>
      <trkpt lat="44.06072" lon="6.8493">
        <ele>864</ele>
        <time>2020-06-05T11:38:45.000Z</time>
      </trkpt>
      <trkpt lat="44.06072" lon="6.84931">
        <ele>863</ele>
        <time>2020-06-05T11:38:46.000Z</time>
      </trkpt>
      <trkpt lat="44.06073" lon="6.84932">
        <ele>863</ele>
        <time>2020-06-05T11:38:47.000Z</time>
      </trkpt>
      <trkpt lat="44.06073" lon="6.84933">
        <ele>863</ele>
        <time>2020-06-05T11:38:48.000Z</time>
      </trkpt>
      <trkpt lat="44.06074" lon="6.84934">
        <ele>863</ele>
        <time>2020-06-05T11:38:49.000Z</time>
      </trkpt>
      <trkpt lat="44.06075" lon="6.84936">
        <ele>863</ele>
        <time>2020-06-05T11:38:50.000Z</time>
      </trkpt>
      <trkpt lat="44.06075" lon="6.84937">
        <ele>862</ele>
        <time>2020-06-05T11:38:51.000Z</time>
      </trkpt>
      <trkpt lat="44.06076" lon="6.84938">
        <ele>862</ele>
        <time>2020-06-05T11:38:52.000Z</time>
      </trkpt>
      <trkpt lat="44.06077" lon="6.84939">
        <ele>861</ele>
        <time>2020-06-05T11:38:53.000Z</time>
      </trkpt>
      <trkpt lat="44.06077" lon="6.84939">
        <ele>861</ele>
        <time>2020-06-05T11:38:54.000Z</time>
      </trkpt>
      <trkpt lat="44.06078" lon="6.8494">
        <ele>861</ele>
        <time>2020-06-05T11:38:55.000Z</time>
      </trkpt>
      <trkpt lat="44.06079" lon="6.84941">
        <ele>861</ele>
        <time>2020-06-05T11:38:56.000Z</time>
      </trkpt>
      <trkpt lat="44.06079" lon="6.84942">
        <ele>860</ele>
        <time>2020-06-05T11:38:57.000Z</time>
      </trkpt>
      <trkpt lat="44.0608" lon="6.84943">
        <ele>860</ele>
        <time>2020-06-05T11:38:58.000Z</time>
      </trkpt>
      <trkpt lat="44.06081" lon="6.84943">
        <ele>860</ele>
        <time>2020-06-05T11:38:59.000Z</time>
      </trkpt>
      <trkpt lat="44.06082" lon="6.84944">
        <ele>860</ele>
        <time>2020-06-05T11:39:00.000Z</time>
      </trkpt>
      <trkpt lat="44.06082" lon="6.84946">
        <ele>860</ele>
        <time>2020-06-05T11:39:01.000Z</time>
      </trkpt>
      <trkpt lat="44.06083" lon="6.84947">
        <ele>859</ele>
        <time>2020-06-05T11:39:02.000Z</time>
      </trkpt>
      <trkpt lat="44.06083" lon="6.84948">
        <ele>859</ele>
        <time>2020-06-05T11:39:03.000Z</time>
      </trkpt>
      <trkpt lat="44.06084" lon="6.84949">
        <ele>859</ele>
        <time>2020-06-05T11:39:04.000Z</time>
      </trkpt>
      <trkpt lat="44.06084" lon="6.8495">
        <ele>859</ele>
        <time>2020-06-05T11:39:05.000Z</time>
      </trkpt>
      <trkpt lat="44.06085" lon="6.84951">
        <ele>859</ele>
        <time>2020-06-05T11:39:06.000Z</time>
      </trkpt>
      <trkpt lat="44.06086" lon="6.84952">
        <ele>859</ele>
        <time>2020-06-05T11:39:07.000Z</time>
      </trkpt>
      <trkpt lat="44.06086" lon="6.84953">
        <ele>859</ele>
        <time>2020-06-05T11:39:08.000Z</time>
      </trkpt>
      <trkpt lat="44.06086" lon="6.84953">
        <ele>858</ele>
        <time>2020-06-05T11:39:09.000Z</time>
      </trkpt>
      <trkpt lat="44.06087" lon="6.84954">
        <ele>858</ele>
        <time>2020-06-05T11:39:10.000Z</time>
      </trkpt>
      <trkpt lat="44.06088" lon="6.84955">
        <ele>858</ele>
        <time>2020-06-05T11:39:11.000Z</time>
      </trkpt>
      <trkpt lat="44.06088" lon="6.84956">
        <ele>858</ele>
        <time>2020-06-05T11:39:12.000Z</time>
      </trkpt>
      <trkpt lat="44.06088" lon="6.84956">
        <ele>858</ele>
        <time>2020-06-05T11:39:13.000Z</time>
      </trkpt>
      <trkpt lat="44.06089" lon="6.84957">
        <ele>858</ele>
        <time>2020-06-05T11:39:14.000Z</time>
      </trkpt>
      <trkpt lat="44.06089" lon="6.84957">
        <ele>858</ele>
        <time>2020-06-05T11:39:15.000Z</time>
      </trkpt>
      <trkpt lat="44.0609" lon="6.84957">
        <ele>857</ele>
        <time>2020-06-05T11:39:16.000Z</time>
      </trkpt>
      <trkpt lat="44.0609" lon="6.84957">
        <ele>857</ele>
        <time>2020-06-05T11:39:17.000Z</time>
      </trkpt>
      <trkpt lat="44.0609" lon="6.84956">
        <ele>857</ele>
        <time>2020-06-05T11:39:18.000Z</time>
      </trkpt>
      <trkpt lat="44.0609" lon="6.84955">
        <ele>857</ele>
        <time>2020-06-05T11:39:19.000Z</time>
      </trkpt>
      <trkpt lat="44.0609" lon="6.84954">
        <ele>857</ele>
        <time>2020-06-05T11:39:20.000Z</time>
      </trkpt>
      <trkpt lat="44.0609" lon="6.84953">
        <ele>857</ele>
        <time>2020-06-05T11:39:21.000Z</time>
      </trkpt>
      <trkpt lat="44.0609" lon="6.84952">
        <ele>857</ele>
        <time>2020-06-05T11:39:22.000Z</time>
      </trkpt>
      <trkpt lat="44.06091" lon="6.84951">
        <ele>857</ele>
        <time>2020-06-05T11:39:23.000Z</time>
      </trkpt>
      <trkpt lat="44.06091" lon="6.8495">
        <ele>857</ele>
        <time>2020-06-05T11:39:24.000Z</time>
      </trkpt>
      <trkpt lat="44.06092" lon="6.8495">
        <ele>857</ele>
        <time>2020-06-05T11:39:25.000Z</time>
      </trkpt>
      <trkpt lat="44.06092" lon="6.84949">
        <ele>857</ele>
        <time>2020-06-05T11:39:26.000Z</time>
      </trkpt>
      <trkpt lat="44.06092" lon="6.84949">
        <ele>857</ele>
        <time>2020-06-05T11:39:27.000Z</time>
      </trkpt>
      <trkpt lat="44.06093" lon="6.84949">
        <ele>857</ele>
        <time>2020-06-05T11:39:28.000Z</time>
      </trkpt>
      <trkpt lat="44.06093" lon="6.84949">
        <ele>857</ele>
        <time>2020-06-05T11:39:29.000Z</time>
      </trkpt>
      <trkpt lat="44.06093" lon="6.8495">
        <ele>857</ele>
        <time>2020-06-05T11:39:30.000Z</time>
      </trkpt>
      <trkpt lat="44.06093" lon="6.8495">
        <ele>857</ele>
        <time>2020-06-05T11:39:31.000Z</time>
      </trkpt>
      <trkpt lat="44.06094" lon="6.84951">
        <ele>857</ele>
        <time>2020-06-05T11:39:32.000Z</time>
      </trkpt>
      <trkpt lat="44.06095" lon="6.84952">
        <ele>857</ele>
        <time>2020-06-05T11:39:33.000Z</time>
      </trkpt>
      <trkpt lat="44.06095" lon="6.84953">
        <ele>857</ele>
        <time>2020-06-05T11:39:34.000Z</time>
      </trkpt>
      <trkpt lat="44.06095" lon="6.84953">
        <ele>857</ele>
        <time>2020-06-05T11:39:35.000Z</time>
      </trkpt>
      <trkpt lat="44.06095" lon="6.84954">
        <ele>857</ele>
        <time>2020-06-05T11:39:36.000Z</time>
      </trkpt>
      <trkpt lat="44.06096" lon="6.84955">
        <ele>857</ele>
        <time>2020-06-05T11:39:37.000Z</time>
      </trkpt>
      <trkpt lat="44.06096" lon="6.84956">
        <ele>857</ele>
        <time>2020-06-05T11:39:38.000Z</time>
      </trkpt>
      <trkpt lat="44.06097" lon="6.84957">
        <ele>857</ele>
        <time>2020-06-05T11:39:39.000Z</time>
      </trkpt>
      <trkpt lat="44.06097" lon="6.84958">
        <ele>856</ele>
        <time>2020-06-05T11:39:40.000Z</time>
      </trkpt>
      <trkpt lat="44.06098" lon="6.84959">
        <ele>856</ele>
        <time>2020-06-05T11:39:41.000Z</time>
      </trkpt>
      <trkpt lat="44.06098" lon="6.84959">
        <ele>856</ele>
        <time>2020-06-05T11:39:42.000Z</time>
      </trkpt>
      <trkpt lat="44.06098" lon="6.8496">
        <ele>856</ele>
        <time>2020-06-05T11:39:43.000Z</time>
      </trkpt>
      <trkpt lat="44.06098" lon="6.84961">
        <ele>856</ele>
        <time>2020-06-05T11:39:44.000Z</time>
      </trkpt>
      <trkpt lat="44.06098" lon="6.84962">
        <ele>856</ele>
        <time>2020-06-05T11:39:45.000Z</time>
      </trkpt>
      <trkpt lat="44.06098" lon="6.84962">
        <ele>856</ele>
        <time>2020-06-05T11:39:46.000Z</time>
      </trkpt>
      <trkpt lat="44.06099" lon="6.84962">
        <ele>856</ele>
        <time>2020-06-05T11:39:47.000Z</time>
      </trkpt>
      <trkpt lat="44.061" lon="6.84962">
        <ele>855</ele>
        <time>2020-06-05T11:39:48.000Z</time>
      </trkpt>
      <trkpt lat="44.061" lon="6.84961">
        <ele>855</ele>
        <time>2020-06-05T11:39:49.000Z</time>
      </trkpt>
      <trkpt lat="44.06101" lon="6.84961">
        <ele>855</ele>
        <time>2020-06-05T11:39:50.000Z</time>
      </trkpt>
      <trkpt lat="44.06102" lon="6.84961">
        <ele>855</ele>
        <time>2020-06-05T11:39:51.000Z</time>
      </trkpt>
      <trkpt lat="44.06103" lon="6.84962">
        <ele>855</ele>
        <time>2020-06-05T11:39:52.000Z</time>
      </trkpt>
      <trkpt lat="44.06104" lon="6.84963">
        <ele>855</ele>
        <time>2020-06-05T11:39:53.000Z</time>
      </trkpt>
      <trkpt lat="44.06104" lon="6.84964">
        <ele>855</ele>
        <time>2020-06-05T11:39:54.000Z</time>
      </trkpt>
      <trkpt lat="44.06105" lon="6.84965">
        <ele>855</ele>
        <time>2020-06-05T11:39:55.000Z</time>
      </trkpt>
      <trkpt lat="44.06106" lon="6.84966">
        <ele>855</ele>
        <time>2020-06-05T11:39:56.000Z</time>
      </trkpt>
      <trkpt lat="44.06106" lon="6.84966">
        <ele>855</ele>
        <time>2020-06-05T11:39:57.000Z</time>
      </trkpt>
      <trkpt lat="44.06107" lon="6.84967">
        <ele>855</ele>
        <time>2020-06-05T11:39:58.000Z</time>
      </trkpt>
      <trkpt lat="44.06108" lon="6.84968">
        <ele>855</ele>
        <time>2020-06-05T11:39:59.000Z</time>
      </trkpt>
      <trkpt lat="44.06108" lon="6.84968">
        <ele>855</ele>
        <time>2020-06-05T11:40:00.000Z</time>
      </trkpt>
      <trkpt lat="44.06109" lon="6.84968">
        <ele>855</ele>
        <time>2020-06-05T11:40:01.000Z</time>
      </trkpt>
      <trkpt lat="44.0611" lon="6.84967">
        <ele>855</ele>
        <time>2020-06-05T11:40:02.000Z</time>
      </trkpt>
      <trkpt lat="44.06111" lon="6.84967">
        <ele>855</ele>
        <time>2020-06-05T11:40:03.000Z</time>
      </trkpt>
      <trkpt lat="44.06111" lon="6.84966">
        <ele>855</ele>
        <time>2020-06-05T11:40:04.000Z</time>
      </trkpt>
      <trkpt lat="44.06111" lon="6.84965">
        <ele>855</ele>
        <time>2020-06-05T11:40:05.000Z</time>
      </trkpt>
      <trkpt lat="44.06112" lon="6.84965">
        <ele>854</ele>
        <time>2020-06-05T11:40:06.000Z</time>
      </trkpt>
      <trkpt lat="44.06112" lon="6.84964">
        <ele>854</ele>
        <time>2020-06-05T11:40:07.000Z</time>
      </trkpt>
      <trkpt lat="44.06113" lon="6.84964">
        <ele>854</ele>
        <time>2020-06-05T11:40:08.000Z</time>
      </trkpt>
      <trkpt lat="44.06113" lon="6.84963">
        <ele>854</ele>
        <time>2020-06-05T11:40:09.000Z</time>
      </trkpt>
      <trkpt lat="44.06114" lon="6.84963">
        <ele>854</ele>
        <time>2020-06-05T11:40:10.000Z</time>
      </trkpt>
      <trkpt lat="44.06115" lon="6.84963">
        <ele>854</ele>
        <time>2020-06-05T11:40:11.000Z</time>
      </trkpt>
      <trkpt lat="44.06115" lon="6.84962">
        <ele>854</ele>
        <time>2020-06-05T11:40:12.000Z</time>
      </trkpt>
      <trkpt lat="44.06116" lon="6.84962">
        <ele>854</ele>
        <time>2020-06-05T11:40:13.000Z</time>
      </trkpt>
      <trkpt lat="44.06116" lon="6.84961">
        <ele>854</ele>
        <time>2020-06-05T11:40:14.000Z</time>
      </trkpt>
      <trkpt lat="44.06116" lon="6.84961">
        <ele>854</ele>
        <time>2020-06-05T11:40:15.000Z</time>
      </trkpt>
      <trkpt lat="44.06116" lon="6.8496">
        <ele>854</ele>
        <time>2020-06-05T11:40:16.000Z</time>
      </trkpt>
      <trkpt lat="44.06116" lon="6.84959">
        <ele>854</ele>
        <time>2020-06-05T11:40:17.000Z</time>
      </trkpt>
      <trkpt lat="44.06116" lon="6.84958">
        <ele>854</ele>
        <time>2020-06-05T11:40:18.000Z</time>
      </trkpt>
      <trkpt lat="44.06117" lon="6.84957">
        <ele>853</ele>
        <time>2020-06-05T11:40:19.000Z</time>
      </trkpt>
      <trkpt lat="44.06117" lon="6.84956">
        <ele>853</ele>
        <time>2020-06-05T11:40:20.000Z</time>
      </trkpt>
      <trkpt lat="44.06118" lon="6.84956">
        <ele>853</ele>
        <time>2020-06-05T11:40:21.000Z</time>
      </trkpt>
      <trkpt lat="44.06118" lon="6.84955">
        <ele>853</ele>
        <time>2020-06-05T11:40:22.000Z</time>
      </trkpt>
      <trkpt lat="44.06118" lon="6.84954">
        <ele>853</ele>
        <time>2020-06-05T11:40:23.000Z</time>
      </trkpt>
      <trkpt lat="44.06118" lon="6.84954">
        <ele>853</ele>
        <time>2020-06-05T11:40:24.000Z</time>
      </trkpt>
      <trkpt lat="44.06118" lon="6.84953">
        <ele>852</ele>
        <time>2020-06-05T11:40:25.000Z</time>
      </trkpt>
      <trkpt lat="44.06118" lon="6.84952">
        <ele>852</ele>
        <time>2020-06-05T11:40:26.000Z</time>
      </trkpt>
      <trkpt lat="44.06118" lon="6.8495">
        <ele>852</ele>
        <time>2020-06-05T11:40:27.000Z</time>
      </trkpt>
      <trkpt lat="44.06118" lon="6.84949">
        <ele>852</ele>
        <time>2020-06-05T11:40:28.000Z</time>
      </trkpt>
      <trkpt lat="44.06117" lon="6.84948">
        <ele>852</ele>
        <time>2020-06-05T11:40:29.000Z</time>
      </trkpt>
      <trkpt lat="44.06117" lon="6.84947">
        <ele>852</ele>
        <time>2020-06-05T11:40:30.000Z</time>
      </trkpt>
      <trkpt lat="44.06117" lon="6.84946">
        <ele>851</ele>
        <time>2020-06-05T11:40:31.000Z</time>
      </trkpt>
      <trkpt lat="44.06117" lon="6.84945">
        <ele>851</ele>
        <time>2020-06-05T11:40:32.000Z</time>
      </trkpt>
      <trkpt lat="44.06117" lon="6.84945">
        <ele>851</ele>
        <time>2020-06-05T11:40:33.000Z</time>
      </trkpt>
      <trkpt lat="44.06117" lon="6.84944">
        <ele>851</ele>
        <time>2020-06-05T11:40:34.000Z</time>
      </trkpt>
      <trkpt lat="44.06117" lon="6.84943">
        <ele>850</ele>
        <time>2020-06-05T11:40:35.000Z</time>
      </trkpt>
      <trkpt lat="44.06117" lon="6.84942">
        <ele>850</ele>
        <time>2020-06-05T11:40:36.000Z</time>
      </trkpt>
      <trkpt lat="44.06117" lon="6.84942">
        <ele>850</ele>
        <time>2020-06-05T11:40:37.000Z</time>
      </trkpt>
      <trkpt lat="44.06118" lon="6.84941">
        <ele>850</ele>
        <time>2020-06-05T11:40:38.000Z</time>
      </trkpt>
      <trkpt lat="44.06118" lon="6.84941">
        <ele>849</ele>
        <time>2020-06-05T11:40:39.000Z</time>
      </trkpt>
      <trkpt lat="44.06118" lon="6.8494">
        <ele>849</ele>
        <time>2020-06-05T11:40:40.000Z</time>
      </trkpt>
      <trkpt lat="44.06118" lon="6.8494">
        <ele>849</ele>
        <time>2020-06-05T11:40:41.000Z</time>
      </trkpt>
      <trkpt lat="44.06118" lon="6.84939">
        <ele>849</ele>
        <time>2020-06-05T11:40:42.000Z</time>
      </trkpt>
      <trkpt lat="44.06118" lon="6.84938">
        <ele>849</ele>
        <time>2020-06-05T11:40:43.000Z</time>
      </trkpt>
      <trkpt lat="44.06118" lon="6.84937">
        <ele>849</ele>
        <time>2020-06-05T11:40:44.000Z</time>
      </trkpt>
      <trkpt lat="44.06119" lon="6.84936">
        <ele>848</ele>
        <time>2020-06-05T11:40:45.000Z</time>
      </trkpt>
      <trkpt lat="44.06119" lon="6.84936">
        <ele>848</ele>
        <time>2020-06-05T11:40:46.000Z</time>
      </trkpt>
      <trkpt lat="44.06119" lon="6.84935">
        <ele>848</ele>
        <time>2020-06-05T11:40:47.000Z</time>
      </trkpt>
      <trkpt lat="44.06119" lon="6.84934">
        <ele>848</ele>
        <time>2020-06-05T11:40:48.000Z</time>
      </trkpt>
      <trkpt lat="44.06119" lon="6.84933">
        <ele>848</ele>
        <time>2020-06-05T11:40:49.000Z</time>
      </trkpt>
      <trkpt lat="44.06119" lon="6.84932">
        <ele>848</ele>
        <time>2020-06-05T11:40:50.000Z</time>
      </trkpt>
      <trkpt lat="44.06119" lon="6.84931">
        <ele>848</ele>
        <time>2020-06-05T11:40:51.000Z</time>
      </trkpt>
      <trkpt lat="44.0612" lon="6.84931">
        <ele>848</ele>
        <time>2020-06-05T11:40:52.000Z</time>
      </trkpt>
      <trkpt lat="44.0612" lon="6.8493">
        <ele>848</ele>
        <time>2020-06-05T11:40:53.000Z</time>
      </trkpt>
      <trkpt lat="44.0612" lon="6.8493">
        <ele>848</ele>
        <time>2020-06-05T11:40:54.000Z</time>
      </trkpt>
      <trkpt lat="44.0612" lon="6.84929">
        <ele>847</ele>
        <time>2020-06-05T11:40:55.000Z</time>
      </trkpt>
      <trkpt lat="44.0612" lon="6.84928">
        <ele>847</ele>
        <time>2020-06-05T11:40:56.000Z</time>
      </trkpt>
      <trkpt lat="44.0612" lon="6.84927">
        <ele>847</ele>
        <time>2020-06-05T11:40:57.000Z</time>
      </trkpt>
      <trkpt lat="44.0612" lon="6.84926">
        <ele>847</ele>
        <time>2020-06-05T11:40:58.000Z</time>
      </trkpt>
      <trkpt lat="44.0612" lon="6.84926">
        <ele>847</ele>
        <time>2020-06-05T11:40:59.000Z</time>
      </trkpt>
      <trkpt lat="44.0612" lon="6.84925">
        <ele>847</ele>
        <time>2020-06-05T11:41:00.000Z</time>
      </trkpt>
      <trkpt lat="44.06121" lon="6.84925">
        <ele>847</ele>
        <time>2020-06-05T11:41:01.000Z</time>
      </trkpt>
      <trkpt lat="44.06121" lon="6.84924">
        <ele>847</ele>
        <time>2020-06-05T11:41:02.000Z</time>
      </trkpt>
      <trkpt lat="44.0612" lon="6.84924">
        <ele>847</ele>
        <time>2020-06-05T11:41:03.000Z</time>
      </trkpt>
      <trkpt lat="44.0612" lon="6.84923">
        <ele>847</ele>
        <time>2020-06-05T11:41:04.000Z</time>
      </trkpt>
      <trkpt lat="44.06121" lon="6.84922">
        <ele>847</ele>
        <time>2020-06-05T11:41:05.000Z</time>
      </trkpt>
      <trkpt lat="44.06121" lon="6.84922">
        <ele>847</ele>
        <time>2020-06-05T11:41:06.000Z</time>
      </trkpt>
      <trkpt lat="44.06121" lon="6.84921">
        <ele>847</ele>
        <time>2020-06-05T11:41:07.000Z</time>
      </trkpt>
      <trkpt lat="44.06121" lon="6.84921">
        <ele>847</ele>
        <time>2020-06-05T11:41:08.000Z</time>
      </trkpt>
      <trkpt lat="44.06122" lon="6.8492">
        <ele>847</ele>
        <time>2020-06-05T11:41:09.000Z</time>
      </trkpt>
      <trkpt lat="44.06122" lon="6.8492">
        <ele>847</ele>
        <time>2020-06-05T11:41:10.000Z</time>
      </trkpt>
      <trkpt lat="44.06122" lon="6.84919">
        <ele>847</ele>
        <time>2020-06-05T11:41:11.000Z</time>
      </trkpt>
      <trkpt lat="44.06122" lon="6.84919">
        <ele>847</ele>
        <time>2020-06-05T11:41:12.000Z</time>
      </trkpt>
      <trkpt lat="44.06123" lon="6.84919">
        <ele>847</ele>
        <time>2020-06-05T11:41:13.000Z</time>
      </trkpt>
      <trkpt lat="44.06123" lon="6.84919">
        <ele>848</ele>
        <time>2020-06-05T11:41:14.000Z</time>
      </trkpt>
      <trkpt lat="44.06123" lon="6.84919">
        <ele>848</ele>
        <time>2020-06-05T11:41:15.000Z</time>
      </trkpt>
      <trkpt lat="44.06124" lon="6.84918">
        <ele>848</ele>
        <time>2020-06-05T11:41:16.000Z</time>
      </trkpt>
      <trkpt lat="44.06124" lon="6.84917">
        <ele>848</ele>
        <time>2020-06-05T11:41:17.000Z</time>
      </trkpt>
      <trkpt lat="44.06125" lon="6.84917">
        <ele>848</ele>
        <time>2020-06-05T11:41:18.000Z</time>
      </trkpt>
      <trkpt lat="44.06125" lon="6.84916">
        <ele>848</ele>
        <time>2020-06-05T11:41:19.000Z</time>
      </trkpt>
      <trkpt lat="44.06126" lon="6.84915">
        <ele>848</ele>
        <time>2020-06-05T11:41:20.000Z</time>
      </trkpt>
      <trkpt lat="44.06127" lon="6.84915">
        <ele>848</ele>
        <time>2020-06-05T11:41:21.000Z</time>
      </trkpt>
      <trkpt lat="44.06128" lon="6.84914">
        <ele>848</ele>
        <time>2020-06-05T11:41:22.000Z</time>
      </trkpt>
      <trkpt lat="44.06129" lon="6.84913">
        <ele>848</ele>
        <time>2020-06-05T11:41:23.000Z</time>
      </trkpt>
      <trkpt lat="44.0613" lon="6.84912">
        <ele>848</ele>
        <time>2020-06-05T11:41:24.000Z</time>
      </trkpt>
      <trkpt lat="44.0613" lon="6.84911">
        <ele>848</ele>
        <time>2020-06-05T11:41:25.000Z</time>
      </trkpt>
      <trkpt lat="44.06131" lon="6.8491">
        <ele>848</ele>
        <time>2020-06-05T11:41:26.000Z</time>
      </trkpt>
      <trkpt lat="44.06131" lon="6.84909">
        <ele>848</ele>
        <time>2020-06-05T11:41:27.000Z</time>
      </trkpt>
      <trkpt lat="44.06132" lon="6.84908">
        <ele>848</ele>
        <time>2020-06-05T11:41:28.000Z</time>
      </trkpt>
      <trkpt lat="44.06132" lon="6.84907">
        <ele>848</ele>
        <time>2020-06-05T11:41:29.000Z</time>
      </trkpt>
      <trkpt lat="44.06133" lon="6.84906">
        <ele>848</ele>
        <time>2020-06-05T11:41:30.000Z</time>
      </trkpt>
      <trkpt lat="44.06133" lon="6.84906">
        <ele>848</ele>
        <time>2020-06-05T11:41:31.000Z</time>
      </trkpt>
      <trkpt lat="44.06134" lon="6.84905">
        <ele>848</ele>
        <time>2020-06-05T11:41:32.000Z</time>
      </trkpt>
      <trkpt lat="44.06135" lon="6.84905">
        <ele>847</ele>
        <time>2020-06-05T11:41:33.000Z</time>
      </trkpt>
      <trkpt lat="44.06135" lon="6.84904">
        <ele>847</ele>
        <time>2020-06-05T11:41:34.000Z</time>
      </trkpt>
      <trkpt lat="44.06136" lon="6.84903">
        <ele>847</ele>
        <time>2020-06-05T11:41:35.000Z</time>
      </trkpt>
      <trkpt lat="44.06136" lon="6.84903">
        <ele>847</ele>
        <time>2020-06-05T11:41:36.000Z</time>
      </trkpt>
      <trkpt lat="44.06137" lon="6.84902">
        <ele>847</ele>
        <time>2020-06-05T11:41:37.000Z</time>
      </trkpt>
      <trkpt lat="44.06138" lon="6.84901">
        <ele>847</ele>
        <time>2020-06-05T11:41:38.000Z</time>
      </trkpt>
      <trkpt lat="44.06138" lon="6.849">
        <ele>846</ele>
        <time>2020-06-05T11:41:39.000Z</time>
      </trkpt>
      <trkpt lat="44.06139" lon="6.84899">
        <ele>846</ele>
        <time>2020-06-05T11:41:40.000Z</time>
      </trkpt>
      <trkpt lat="44.0614" lon="6.84898">
        <ele>846</ele>
        <time>2020-06-05T11:41:41.000Z</time>
      </trkpt>
      <trkpt lat="44.06141" lon="6.84898">
        <ele>846</ele>
        <time>2020-06-05T11:41:42.000Z</time>
      </trkpt>
      <trkpt lat="44.06142" lon="6.84897">
        <ele>846</ele>
        <time>2020-06-05T11:41:43.000Z</time>
      </trkpt>
      <trkpt lat="44.06143" lon="6.84897">
        <ele>846</ele>
        <time>2020-06-05T11:41:44.000Z</time>
      </trkpt>
      <trkpt lat="44.06144" lon="6.84896">
        <ele>845</ele>
        <time>2020-06-05T11:41:45.000Z</time>
      </trkpt>
      <trkpt lat="44.06144" lon="6.84896">
        <ele>845</ele>
        <time>2020-06-05T11:41:46.000Z</time>
      </trkpt>
      <trkpt lat="44.06145" lon="6.84895">
        <ele>845</ele>
        <time>2020-06-05T11:41:47.000Z</time>
      </trkpt>
      <trkpt lat="44.06146" lon="6.84895">
        <ele>845</ele>
        <time>2020-06-05T11:41:48.000Z</time>
      </trkpt>
      <trkpt lat="44.06146" lon="6.84894">
        <ele>845</ele>
        <time>2020-06-05T11:41:49.000Z</time>
      </trkpt>
      <trkpt lat="44.06146" lon="6.84894">
        <ele>844</ele>
        <time>2020-06-05T11:41:50.000Z</time>
      </trkpt>
      <trkpt lat="44.06147" lon="6.84893">
        <ele>844</ele>
        <time>2020-06-05T11:41:51.000Z</time>
      </trkpt>
      <trkpt lat="44.06147" lon="6.84893">
        <ele>844</ele>
        <time>2020-06-05T11:41:52.000Z</time>
      </trkpt>
      <trkpt lat="44.06147" lon="6.84892">
        <ele>843</ele>
        <time>2020-06-05T11:41:53.000Z</time>
      </trkpt>
      <trkpt lat="44.06148" lon="6.84892">
        <ele>843</ele>
        <time>2020-06-05T11:41:54.000Z</time>
      </trkpt>
      <trkpt lat="44.06148" lon="6.84891">
        <ele>843</ele>
        <time>2020-06-05T11:41:55.000Z</time>
      </trkpt>
      <trkpt lat="44.06148" lon="6.84891">
        <ele>843</ele>
        <time>2020-06-05T11:41:56.000Z</time>
      </trkpt>
      <trkpt lat="44.06149" lon="6.8489">
        <ele>842</ele>
        <time>2020-06-05T11:41:57.000Z</time>
      </trkpt>
      <trkpt lat="44.06149" lon="6.84889">
        <ele>842</ele>
        <time>2020-06-05T11:41:58.000Z</time>
      </trkpt>
      <trkpt lat="44.0615" lon="6.84889">
        <ele>842</ele>
        <time>2020-06-05T11:41:59.000Z</time>
      </trkpt>
      <trkpt lat="44.0615" lon="6.84888">
        <ele>842</ele>
        <time>2020-06-05T11:42:00.000Z</time>
      </trkpt>
      <trkpt lat="44.06151" lon="6.84888">
        <ele>841</ele>
        <time>2020-06-05T11:42:01.000Z</time>
      </trkpt>
      <trkpt lat="44.06151" lon="6.84887">
        <ele>841</ele>
        <time>2020-06-05T11:42:02.000Z</time>
      </trkpt>
      <trkpt lat="44.06151" lon="6.84887">
        <ele>841</ele>
        <time>2020-06-05T11:42:03.000Z</time>
      </trkpt>
      <trkpt lat="44.06152" lon="6.84886">
        <ele>841</ele>
        <time>2020-06-05T11:42:04.000Z</time>
      </trkpt>
      <trkpt lat="44.06152" lon="6.84885">
        <ele>840</ele>
        <time>2020-06-05T11:42:05.000Z</time>
      </trkpt>
      <trkpt lat="44.06153" lon="6.84884">
        <ele>840</ele>
        <time>2020-06-05T11:42:06.000Z</time>
      </trkpt>
      <trkpt lat="44.06153" lon="6.84884">
        <ele>839</ele>
        <time>2020-06-05T11:42:07.000Z</time>
      </trkpt>
      <trkpt lat="44.06153" lon="6.84883">
        <ele>839</ele>
        <time>2020-06-05T11:42:08.000Z</time>
      </trkpt>
      <trkpt lat="44.06153" lon="6.84882">
        <ele>839</ele>
        <time>2020-06-05T11:42:09.000Z</time>
      </trkpt>
      <trkpt lat="44.06153" lon="6.84882">
        <ele>838</ele>
        <time>2020-06-05T11:42:10.000Z</time>
      </trkpt>
      <trkpt lat="44.06153" lon="6.84881">
        <ele>838</ele>
        <time>2020-06-05T11:42:11.000Z</time>
      </trkpt>
      <trkpt lat="44.06154" lon="6.84881">
        <ele>838</ele>
        <time>2020-06-05T11:42:12.000Z</time>
      </trkpt>
      <trkpt lat="44.06154" lon="6.8488">
        <ele>837</ele>
        <time>2020-06-05T11:42:13.000Z</time>
      </trkpt>
      <trkpt lat="44.06155" lon="6.84879">
        <ele>837</ele>
        <time>2020-06-05T11:42:14.000Z</time>
      </trkpt>
      <trkpt lat="44.06155" lon="6.84879">
        <ele>837</ele>
        <time>2020-06-05T11:42:15.000Z</time>
      </trkpt>
      <trkpt lat="44.06156" lon="6.84878">
        <ele>836</ele>
        <time>2020-06-05T11:42:16.000Z</time>
      </trkpt>
      <trkpt lat="44.06156" lon="6.84877">
        <ele>836</ele>
        <time>2020-06-05T11:42:17.000Z</time>
      </trkpt>
      <trkpt lat="44.06157" lon="6.84876">
        <ele>835</ele>
        <time>2020-06-05T11:42:18.000Z</time>
      </trkpt>
      <trkpt lat="44.06157" lon="6.84875">
        <ele>835</ele>
        <time>2020-06-05T11:42:19.000Z</time>
      </trkpt>
      <trkpt lat="44.06157" lon="6.84874">
        <ele>835</ele>
        <time>2020-06-05T11:42:20.000Z</time>
      </trkpt>
      <trkpt lat="44.06157" lon="6.84873">
        <ele>834</ele>
        <time>2020-06-05T11:42:21.000Z</time>
      </trkpt>
      <trkpt lat="44.06157" lon="6.84872">
        <ele>834</ele>
        <time>2020-06-05T11:42:22.000Z</time>
      </trkpt>
      <trkpt lat="44.06157" lon="6.84871">
        <ele>834</ele>
        <time>2020-06-05T11:42:23.000Z</time>
      </trkpt>
      <trkpt lat="44.06158" lon="6.84871">
        <ele>833</ele>
        <time>2020-06-05T11:42:24.000Z</time>
      </trkpt>
      <trkpt lat="44.06158" lon="6.8487">
        <ele>833</ele>
        <time>2020-06-05T11:42:25.000Z</time>
      </trkpt>
      <trkpt lat="44.06158" lon="6.84869">
        <ele>833</ele>
        <time>2020-06-05T11:42:26.000Z</time>
      </trkpt>
      <trkpt lat="44.06158" lon="6.84868">
        <ele>832</ele>
        <time>2020-06-05T11:42:27.000Z</time>
      </trkpt>
      <trkpt lat="44.06159" lon="6.84867">
        <ele>832</ele>
        <time>2020-06-05T11:42:28.000Z</time>
      </trkpt>
      <trkpt lat="44.06159" lon="6.84866">
        <ele>832</ele>
        <time>2020-06-05T11:42:29.000Z</time>
      </trkpt>
      <trkpt lat="44.0616" lon="6.84866">
        <ele>832</ele>
        <time>2020-06-05T11:42:30.000Z</time>
      </trkpt>
      <trkpt lat="44.0616" lon="6.84865">
        <ele>832</ele>
        <time>2020-06-05T11:42:31.000Z</time>
      </trkpt>
      <trkpt lat="44.06161" lon="6.84864">
        <ele>831</ele>
        <time>2020-06-05T11:42:32.000Z</time>
      </trkpt>
      <trkpt lat="44.06161" lon="6.84864">
        <ele>831</ele>
        <time>2020-06-05T11:42:33.000Z</time>
      </trkpt>
      <trkpt lat="44.06162" lon="6.84863">
        <ele>831</ele>
        <time>2020-06-05T11:42:34.000Z</time>
      </trkpt>
      <trkpt lat="44.06162" lon="6.84862">
        <ele>831</ele>
        <time>2020-06-05T11:42:35.000Z</time>
      </trkpt>
      <trkpt lat="44.06163" lon="6.84861">
        <ele>831</ele>
        <time>2020-06-05T11:42:36.000Z</time>
      </trkpt>
      <trkpt lat="44.06163" lon="6.8486">
        <ele>831</ele>
        <time>2020-06-05T11:42:37.000Z</time>
      </trkpt>
      <trkpt lat="44.06164" lon="6.84859">
        <ele>830</ele>
        <time>2020-06-05T11:42:38.000Z</time>
      </trkpt>
      <trkpt lat="44.06164" lon="6.84858">
        <ele>830</ele>
        <time>2020-06-05T11:42:39.000Z</time>
      </trkpt>
      <trkpt lat="44.06165" lon="6.84857">
        <ele>830</ele>
        <time>2020-06-05T11:42:40.000Z</time>
      </trkpt>
      <trkpt lat="44.06165" lon="6.84856">
        <ele>830</ele>
        <time>2020-06-05T11:42:41.000Z</time>
      </trkpt>
      <trkpt lat="44.06166" lon="6.84855">
        <ele>830</ele>
        <time>2020-06-05T11:42:42.000Z</time>
      </trkpt>
      <trkpt lat="44.06167" lon="6.84854">
        <ele>829</ele>
        <time>2020-06-05T11:42:43.000Z</time>
      </trkpt>
      <trkpt lat="44.06167" lon="6.84853">
        <ele>829</ele>
        <time>2020-06-05T11:42:44.000Z</time>
      </trkpt>
      <trkpt lat="44.06168" lon="6.84852">
        <ele>829</ele>
        <time>2020-06-05T11:42:45.000Z</time>
      </trkpt>
      <trkpt lat="44.06168" lon="6.84851">
        <ele>829</ele>
        <time>2020-06-05T11:42:46.000Z</time>
      </trkpt>
      <trkpt lat="44.06169" lon="6.8485">
        <ele>829</ele>
        <time>2020-06-05T11:42:47.000Z</time>
      </trkpt>
      <trkpt lat="44.06169" lon="6.84849">
        <ele>829</ele>
        <time>2020-06-05T11:42:48.000Z</time>
      </trkpt>
      <trkpt lat="44.0617" lon="6.84848">
        <ele>828</ele>
        <time>2020-06-05T11:42:49.000Z</time>
      </trkpt>
      <trkpt lat="44.0617" lon="6.84847">
        <ele>828</ele>
        <time>2020-06-05T11:42:50.000Z</time>
      </trkpt>
      <trkpt lat="44.0617" lon="6.84846">
        <ele>828</ele>
        <time>2020-06-05T11:42:51.000Z</time>
      </trkpt>
      <trkpt lat="44.06171" lon="6.84845">
        <ele>828</ele>
        <time>2020-06-05T11:42:52.000Z</time>
      </trkpt>
      <trkpt lat="44.06171" lon="6.84844">
        <ele>828</ele>
        <time>2020-06-05T11:42:53.000Z</time>
      </trkpt>
      <trkpt lat="44.06172" lon="6.84843">
        <ele>828</ele>
        <time>2020-06-05T11:42:54.000Z</time>
      </trkpt>
      <trkpt lat="44.06173" lon="6.84842">
        <ele>828</ele>
        <time>2020-06-05T11:42:55.000Z</time>
      </trkpt>
      <trkpt lat="44.06173" lon="6.8484">
        <ele>828</ele>
        <time>2020-06-05T11:42:56.000Z</time>
      </trkpt>
      <trkpt lat="44.06174" lon="6.84839">
        <ele>828</ele>
        <time>2020-06-05T11:42:57.000Z</time>
      </trkpt>
      <trkpt lat="44.06175" lon="6.84838">
        <ele>828</ele>
        <time>2020-06-05T11:42:58.000Z</time>
      </trkpt>
      <trkpt lat="44.06175" lon="6.84838">
        <ele>827</ele>
        <time>2020-06-05T11:42:59.000Z</time>
      </trkpt>
      <trkpt lat="44.06176" lon="6.84837">
        <ele>827</ele>
        <time>2020-06-05T11:43:00.000Z</time>
      </trkpt>
      <trkpt lat="44.06176" lon="6.84836">
        <ele>827</ele>
        <time>2020-06-05T11:43:01.000Z</time>
      </trkpt>
      <trkpt lat="44.06177" lon="6.84835">
        <ele>827</ele>
        <time>2020-06-05T11:43:02.000Z</time>
      </trkpt>
      <trkpt lat="44.06178" lon="6.84835">
        <ele>827</ele>
        <time>2020-06-05T11:43:03.000Z</time>
      </trkpt>
      <trkpt lat="44.06179" lon="6.84834">
        <ele>827</ele>
        <time>2020-06-05T11:43:04.000Z</time>
      </trkpt>
      <trkpt lat="44.0618" lon="6.84833">
        <ele>827</ele>
        <time>2020-06-05T11:43:05.000Z</time>
      </trkpt>
      <trkpt lat="44.06181" lon="6.84832">
        <ele>826</ele>
        <time>2020-06-05T11:43:06.000Z</time>
      </trkpt>
      <trkpt lat="44.06182" lon="6.84832">
        <ele>826</ele>
        <time>2020-06-05T11:43:07.000Z</time>
      </trkpt>
      <trkpt lat="44.06183" lon="6.84831">
        <ele>826</ele>
        <time>2020-06-05T11:43:08.000Z</time>
      </trkpt>
      <trkpt lat="44.06184" lon="6.8483">
        <ele>826</ele>
        <time>2020-06-05T11:43:09.000Z</time>
      </trkpt>
      <trkpt lat="44.06185" lon="6.84829">
        <ele>826</ele>
        <time>2020-06-05T11:43:10.000Z</time>
      </trkpt>
      <trkpt lat="44.06186" lon="6.84828">
        <ele>825</ele>
        <time>2020-06-05T11:43:11.000Z</time>
      </trkpt>
      <trkpt lat="44.06186" lon="6.84827">
        <ele>825</ele>
        <time>2020-06-05T11:43:12.000Z</time>
      </trkpt>
      <trkpt lat="44.06187" lon="6.84826">
        <ele>825</ele>
        <time>2020-06-05T11:43:13.000Z</time>
      </trkpt>
      <trkpt lat="44.06187" lon="6.84825">
        <ele>825</ele>
        <time>2020-06-05T11:43:14.000Z</time>
      </trkpt>
      <trkpt lat="44.06188" lon="6.84824">
        <ele>824</ele>
        <time>2020-06-05T11:43:15.000Z</time>
      </trkpt>
      <trkpt lat="44.06188" lon="6.84823">
        <ele>824</ele>
        <time>2020-06-05T11:43:16.000Z</time>
      </trkpt>
      <trkpt lat="44.06188" lon="6.84822">
        <ele>824</ele>
        <time>2020-06-05T11:43:17.000Z</time>
      </trkpt>
      <trkpt lat="44.06188" lon="6.8482">
        <ele>824</ele>
        <time>2020-06-05T11:43:18.000Z</time>
      </trkpt>
      <trkpt lat="44.06188" lon="6.84819">
        <ele>823</ele>
        <time>2020-06-05T11:43:19.000Z</time>
      </trkpt>
      <trkpt lat="44.06189" lon="6.84818">
        <ele>823</ele>
        <time>2020-06-05T11:43:20.000Z</time>
      </trkpt>
      <trkpt lat="44.06189" lon="6.84817">
        <ele>823</ele>
        <time>2020-06-05T11:43:21.000Z</time>
      </trkpt>
      <trkpt lat="44.0619" lon="6.84817">
        <ele>823</ele>
        <time>2020-06-05T11:43:22.000Z</time>
      </trkpt>
      <trkpt lat="44.0619" lon="6.84816">
        <ele>822</ele>
        <time>2020-06-05T11:43:23.000Z</time>
      </trkpt>
      <trkpt lat="44.06191" lon="6.84815">
        <ele>822</ele>
        <time>2020-06-05T11:43:24.000Z</time>
      </trkpt>
      <trkpt lat="44.06191" lon="6.84815">
        <ele>822</ele>
        <time>2020-06-05T11:43:25.000Z</time>
      </trkpt>
      <trkpt lat="44.06192" lon="6.84814">
        <ele>822</ele>
        <time>2020-06-05T11:43:26.000Z</time>
      </trkpt>
      <trkpt lat="44.06192" lon="6.84813">
        <ele>821</ele>
        <time>2020-06-05T11:43:27.000Z</time>
      </trkpt>
      <trkpt lat="44.06192" lon="6.84812">
        <ele>821</ele>
        <time>2020-06-05T11:43:28.000Z</time>
      </trkpt>
      <trkpt lat="44.06192" lon="6.84812">
        <ele>821</ele>
        <time>2020-06-05T11:43:29.000Z</time>
      </trkpt>
      <trkpt lat="44.06192" lon="6.8481">
        <ele>820</ele>
        <time>2020-06-05T11:43:30.000Z</time>
      </trkpt>
      <trkpt lat="44.06192" lon="6.84809">
        <ele>820</ele>
        <time>2020-06-05T11:43:31.000Z</time>
      </trkpt>
      <trkpt lat="44.06192" lon="6.84808">
        <ele>820</ele>
        <time>2020-06-05T11:43:32.000Z</time>
      </trkpt>
      <trkpt lat="44.06192" lon="6.84807">
        <ele>820</ele>
        <time>2020-06-05T11:43:33.000Z</time>
      </trkpt>
      <trkpt lat="44.06193" lon="6.84806">
        <ele>819</ele>
        <time>2020-06-05T11:43:34.000Z</time>
      </trkpt>
      <trkpt lat="44.06193" lon="6.84805">
        <ele>819</ele>
        <time>2020-06-05T11:43:35.000Z</time>
      </trkpt>
      <trkpt lat="44.06193" lon="6.84804">
        <ele>819</ele>
        <time>2020-06-05T11:43:36.000Z</time>
      </trkpt>
      <trkpt lat="44.06194" lon="6.84802">
        <ele>819</ele>
        <time>2020-06-05T11:43:37.000Z</time>
      </trkpt>
      <trkpt lat="44.06194" lon="6.84801">
        <ele>819</ele>
        <time>2020-06-05T11:43:38.000Z</time>
      </trkpt>
      <trkpt lat="44.06195" lon="6.848">
        <ele>818</ele>
        <time>2020-06-05T11:43:39.000Z</time>
      </trkpt>
      <trkpt lat="44.06195" lon="6.84799">
        <ele>818</ele>
        <time>2020-06-05T11:43:40.000Z</time>
      </trkpt>
      <trkpt lat="44.06196" lon="6.84798">
        <ele>818</ele>
        <time>2020-06-05T11:43:41.000Z</time>
      </trkpt>
      <trkpt lat="44.06196" lon="6.84797">
        <ele>818</ele>
        <time>2020-06-05T11:43:42.000Z</time>
      </trkpt>
      <trkpt lat="44.06197" lon="6.84795">
        <ele>817</ele>
        <time>2020-06-05T11:43:43.000Z</time>
      </trkpt>
      <trkpt lat="44.06197" lon="6.84794">
        <ele>817</ele>
        <time>2020-06-05T11:43:44.000Z</time>
      </trkpt>
      <trkpt lat="44.06197" lon="6.84793">
        <ele>817</ele>
        <time>2020-06-05T11:43:45.000Z</time>
      </trkpt>
      <trkpt lat="44.06197" lon="6.84791">
        <ele>816</ele>
        <time>2020-06-05T11:43:46.000Z</time>
      </trkpt>
      <trkpt lat="44.06197" lon="6.8479">
        <ele>816</ele>
        <time>2020-06-05T11:43:47.000Z</time>
      </trkpt>
      <trkpt lat="44.06197" lon="6.84789">
        <ele>816</ele>
        <time>2020-06-05T11:43:48.000Z</time>
      </trkpt>
      <trkpt lat="44.06198" lon="6.84787">
        <ele>815</ele>
        <time>2020-06-05T11:43:49.000Z</time>
      </trkpt>
      <trkpt lat="44.06197" lon="6.84786">
        <ele>815</ele>
        <time>2020-06-05T11:43:50.000Z</time>
      </trkpt>
      <trkpt lat="44.06197" lon="6.84785">
        <ele>815</ele>
        <time>2020-06-05T11:43:51.000Z</time>
      </trkpt>
      <trkpt lat="44.06197" lon="6.84784">
        <ele>815</ele>
        <time>2020-06-05T11:43:52.000Z</time>
      </trkpt>
      <trkpt lat="44.06198" lon="6.84783">
        <ele>815</ele>
        <time>2020-06-05T11:43:53.000Z</time>
      </trkpt>
      <trkpt lat="44.06198" lon="6.84782">
        <ele>814</ele>
        <time>2020-06-05T11:43:54.000Z</time>
      </trkpt>
      <trkpt lat="44.06198" lon="6.84782">
        <ele>814</ele>
        <time>2020-06-05T11:43:55.000Z</time>
      </trkpt>
      <trkpt lat="44.06198" lon="6.84781">
        <ele>814</ele>
        <time>2020-06-05T11:43:56.000Z</time>
      </trkpt>
      <trkpt lat="44.06198" lon="6.84781">
        <ele>814</ele>
        <time>2020-06-05T11:43:57.000Z</time>
      </trkpt>
      <trkpt lat="44.06199" lon="6.84781">
        <ele>814</ele>
        <time>2020-06-05T11:43:58.000Z</time>
      </trkpt>
      <trkpt lat="44.06198" lon="6.8478">
        <ele>814</ele>
        <time>2020-06-05T11:43:59.000Z</time>
      </trkpt>
      <trkpt lat="44.06198" lon="6.84779">
        <ele>813</ele>
        <time>2020-06-05T11:44:00.000Z</time>
      </trkpt>
      <trkpt lat="44.06198" lon="6.84778">
        <ele>813</ele>
        <time>2020-06-05T11:44:01.000Z</time>
      </trkpt>
      <trkpt lat="44.06198" lon="6.84777">
        <ele>813</ele>
        <time>2020-06-05T11:44:02.000Z</time>
      </trkpt>
      <trkpt lat="44.06198" lon="6.84775">
        <ele>813</ele>
        <time>2020-06-05T11:44:03.000Z</time>
      </trkpt>
      <trkpt lat="44.06199" lon="6.84774">
        <ele>813</ele>
        <time>2020-06-05T11:44:04.000Z</time>
      </trkpt>
      <trkpt lat="44.06199" lon="6.84773">
        <ele>812</ele>
        <time>2020-06-05T11:44:05.000Z</time>
      </trkpt>
      <trkpt lat="44.06199" lon="6.84771">
        <ele>812</ele>
        <time>2020-06-05T11:44:06.000Z</time>
      </trkpt>
      <trkpt lat="44.06199" lon="6.8477">
        <ele>812</ele>
        <time>2020-06-05T11:44:07.000Z</time>
      </trkpt>
      <trkpt lat="44.062" lon="6.84768">
        <ele>812</ele>
        <time>2020-06-05T11:44:08.000Z</time>
      </trkpt>
      <trkpt lat="44.062" lon="6.84767">
        <ele>812</ele>
        <time>2020-06-05T11:44:09.000Z</time>
      </trkpt>
      <trkpt lat="44.062" lon="6.84766">
        <ele>812</ele>
        <time>2020-06-05T11:44:10.000Z</time>
      </trkpt>
      <trkpt lat="44.06201" lon="6.84765">
        <ele>812</ele>
        <time>2020-06-05T11:44:11.000Z</time>
      </trkpt>
      <trkpt lat="44.06201" lon="6.84764">
        <ele>812</ele>
        <time>2020-06-05T11:44:12.000Z</time>
      </trkpt>
      <trkpt lat="44.06201" lon="6.84763">
        <ele>812</ele>
        <time>2020-06-05T11:44:13.000Z</time>
      </trkpt>
      <trkpt lat="44.06202" lon="6.84762">
        <ele>812</ele>
        <time>2020-06-05T11:44:14.000Z</time>
      </trkpt>
      <trkpt lat="44.06202" lon="6.8476">
        <ele>812</ele>
        <time>2020-06-05T11:44:15.000Z</time>
      </trkpt>
      <trkpt lat="44.06203" lon="6.8476">
        <ele>811</ele>
        <time>2020-06-05T11:44:16.000Z</time>
      </trkpt>
      <trkpt lat="44.06204" lon="6.84759">
        <ele>811</ele>
        <time>2020-06-05T11:44:17.000Z</time>
      </trkpt>
      <trkpt lat="44.06204" lon="6.84758">
        <ele>811</ele>
        <time>2020-06-05T11:44:18.000Z</time>
      </trkpt>
      <trkpt lat="44.06205" lon="6.84758">
        <ele>811</ele>
        <time>2020-06-05T11:44:19.000Z</time>
      </trkpt>
      <trkpt lat="44.06205" lon="6.84758">
        <ele>811</ele>
        <time>2020-06-05T11:44:20.000Z</time>
      </trkpt>
      <trkpt lat="44.06206" lon="6.84759">
        <ele>810</ele>
        <time>2020-06-05T11:44:21.000Z</time>
      </trkpt>
      <trkpt lat="44.06206" lon="6.84759">
        <ele>810</ele>
        <time>2020-06-05T11:44:22.000Z</time>
      </trkpt>
      <trkpt lat="44.06206" lon="6.8476">
        <ele>810</ele>
        <time>2020-06-05T11:44:23.000Z</time>
      </trkpt>
      <trkpt lat="44.06207" lon="6.84761">
        <ele>809</ele>
        <time>2020-06-05T11:44:24.000Z</time>
      </trkpt>
      <trkpt lat="44.06207" lon="6.84761">
        <ele>809</ele>
        <time>2020-06-05T11:44:25.000Z</time>
      </trkpt>
      <trkpt lat="44.06206" lon="6.84762">
        <ele>809</ele>
        <time>2020-06-05T11:44:26.000Z</time>
      </trkpt>
      <trkpt lat="44.06206" lon="6.84763">
        <ele>809</ele>
        <time>2020-06-05T11:44:27.000Z</time>
      </trkpt>
      <trkpt lat="44.06206" lon="6.84763">
        <ele>808</ele>
        <time>2020-06-05T11:44:28.000Z</time>
      </trkpt>
      <trkpt lat="44.06206" lon="6.84765">
        <ele>808</ele>
        <time>2020-06-05T11:44:29.000Z</time>
      </trkpt>
      <trkpt lat="44.06206" lon="6.84766">
        <ele>808</ele>
        <time>2020-06-05T11:44:30.000Z</time>
      </trkpt>
      <trkpt lat="44.06206" lon="6.84767">
        <ele>808</ele>
        <time>2020-06-05T11:44:31.000Z</time>
      </trkpt>
      <trkpt lat="44.06206" lon="6.84768">
        <ele>807</ele>
        <time>2020-06-05T11:44:32.000Z</time>
      </trkpt>
      <trkpt lat="44.06206" lon="6.84769">
        <ele>807</ele>
        <time>2020-06-05T11:44:33.000Z</time>
      </trkpt>
      <trkpt lat="44.06206" lon="6.8477">
        <ele>807</ele>
        <time>2020-06-05T11:44:34.000Z</time>
      </trkpt>
      <trkpt lat="44.06206" lon="6.84772">
        <ele>807</ele>
        <time>2020-06-05T11:44:35.000Z</time>
      </trkpt>
      <trkpt lat="44.06206" lon="6.84773">
        <ele>806</ele>
        <time>2020-06-05T11:44:36.000Z</time>
      </trkpt>
      <trkpt lat="44.06206" lon="6.84774">
        <ele>806</ele>
        <time>2020-06-05T11:44:37.000Z</time>
      </trkpt>
      <trkpt lat="44.06207" lon="6.84775">
        <ele>806</ele>
        <time>2020-06-05T11:44:38.000Z</time>
      </trkpt>
      <trkpt lat="44.06207" lon="6.84776">
        <ele>805</ele>
        <time>2020-06-05T11:44:39.000Z</time>
      </trkpt>
      <trkpt lat="44.06207" lon="6.84778">
        <ele>805</ele>
        <time>2020-06-05T11:44:40.000Z</time>
      </trkpt>
      <trkpt lat="44.06207" lon="6.84779">
        <ele>805</ele>
        <time>2020-06-05T11:44:41.000Z</time>
      </trkpt>
      <trkpt lat="44.06207" lon="6.8478">
        <ele>805</ele>
        <time>2020-06-05T11:44:42.000Z</time>
      </trkpt>
      <trkpt lat="44.06207" lon="6.84781">
        <ele>804</ele>
        <time>2020-06-05T11:44:43.000Z</time>
      </trkpt>
      <trkpt lat="44.06207" lon="6.84782">
        <ele>804</ele>
        <time>2020-06-05T11:44:44.000Z</time>
      </trkpt>
      <trkpt lat="44.06207" lon="6.84784">
        <ele>804</ele>
        <time>2020-06-05T11:44:45.000Z</time>
      </trkpt>
      <trkpt lat="44.06207" lon="6.84785">
        <ele>803</ele>
        <time>2020-06-05T11:44:46.000Z</time>
      </trkpt>
      <trkpt lat="44.06208" lon="6.84786">
        <ele>803</ele>
        <time>2020-06-05T11:44:47.000Z</time>
      </trkpt>
      <trkpt lat="44.06208" lon="6.84787">
        <ele>802</ele>
        <time>2020-06-05T11:44:48.000Z</time>
      </trkpt>
      <trkpt lat="44.06208" lon="6.84788">
        <ele>802</ele>
        <time>2020-06-05T11:44:49.000Z</time>
      </trkpt>
      <trkpt lat="44.06209" lon="6.84789">
        <ele>802</ele>
        <time>2020-06-05T11:44:50.000Z</time>
      </trkpt>
      <trkpt lat="44.06209" lon="6.84791">
        <ele>802</ele>
        <time>2020-06-05T11:44:51.000Z</time>
      </trkpt>
      <trkpt lat="44.0621" lon="6.84792">
        <ele>801</ele>
        <time>2020-06-05T11:44:52.000Z</time>
      </trkpt>
      <trkpt lat="44.0621" lon="6.84793">
        <ele>801</ele>
        <time>2020-06-05T11:44:53.000Z</time>
      </trkpt>
      <trkpt lat="44.0621" lon="6.84794">
        <ele>801</ele>
        <time>2020-06-05T11:44:54.000Z</time>
      </trkpt>
      <trkpt lat="44.0621" lon="6.84795">
        <ele>801</ele>
        <time>2020-06-05T11:44:55.000Z</time>
      </trkpt>
      <trkpt lat="44.0621" lon="6.84797">
        <ele>801</ele>
        <time>2020-06-05T11:44:56.000Z</time>
      </trkpt>
      <trkpt lat="44.0621" lon="6.84798">
        <ele>800</ele>
        <time>2020-06-05T11:44:57.000Z</time>
      </trkpt>
      <trkpt lat="44.0621" lon="6.84799">
        <ele>800</ele>
        <time>2020-06-05T11:44:58.000Z</time>
      </trkpt>
      <trkpt lat="44.0621" lon="6.848">
        <ele>800</ele>
        <time>2020-06-05T11:44:59.000Z</time>
      </trkpt>
      <trkpt lat="44.0621" lon="6.84801">
        <ele>800</ele>
        <time>2020-06-05T11:45:00.000Z</time>
      </trkpt>
      <trkpt lat="44.0621" lon="6.84803">
        <ele>800</ele>
        <time>2020-06-05T11:45:01.000Z</time>
      </trkpt>
      <trkpt lat="44.0621" lon="6.84803">
        <ele>800</ele>
        <time>2020-06-05T11:45:02.000Z</time>
      </trkpt>
      <trkpt lat="44.0621" lon="6.84804">
        <ele>800</ele>
        <time>2020-06-05T11:45:03.000Z</time>
      </trkpt>
      <trkpt lat="44.0621" lon="6.84806">
        <ele>800</ele>
        <time>2020-06-05T11:45:04.000Z</time>
      </trkpt>
      <trkpt lat="44.0621" lon="6.84806">
        <ele>800</ele>
        <time>2020-06-05T11:45:05.000Z</time>
      </trkpt>
      <trkpt lat="44.0621" lon="6.84807">
        <ele>799</ele>
        <time>2020-06-05T11:45:06.000Z</time>
      </trkpt>
      <trkpt lat="44.06211" lon="6.84808">
        <ele>799</ele>
        <time>2020-06-05T11:45:07.000Z</time>
      </trkpt>
      <trkpt lat="44.06211" lon="6.84809">
        <ele>799</ele>
        <time>2020-06-05T11:45:08.000Z</time>
      </trkpt>
      <trkpt lat="44.06211" lon="6.8481">
        <ele>799</ele>
        <time>2020-06-05T11:45:09.000Z</time>
      </trkpt>
      <trkpt lat="44.06212" lon="6.84811">
        <ele>799</ele>
        <time>2020-06-05T11:45:10.000Z</time>
      </trkpt>
      <trkpt lat="44.06212" lon="6.84811">
        <ele>799</ele>
        <time>2020-06-05T11:45:11.000Z</time>
      </trkpt>
      <trkpt lat="44.06211" lon="6.84811">
        <ele>799</ele>
        <time>2020-06-05T11:45:12.000Z</time>
      </trkpt>
      <trkpt lat="44.06211" lon="6.84811">
        <ele>799</ele>
        <time>2020-06-05T11:45:13.000Z</time>
      </trkpt>
      <trkpt lat="44.06211" lon="6.84812">
        <ele>799</ele>
        <time>2020-06-05T11:45:14.000Z</time>
      </trkpt>
      <trkpt lat="44.06211" lon="6.84812">
        <ele>799</ele>
        <time>2020-06-05T11:45:15.000Z</time>
      </trkpt>
      <trkpt lat="44.06211" lon="6.84812">
        <ele>799</ele>
        <time>2020-06-05T11:45:16.000Z</time>
      </trkpt>
      <trkpt lat="44.0621" lon="6.84812">
        <ele>799</ele>
        <time>2020-06-05T11:45:17.000Z</time>
      </trkpt>
      <trkpt lat="44.0621" lon="6.84812">
        <ele>798</ele>
        <time>2020-06-05T11:45:18.000Z</time>
      </trkpt>
      <trkpt lat="44.0621" lon="6.84812">
        <ele>798</ele>
        <time>2020-06-05T11:45:19.000Z</time>
      </trkpt>
      <trkpt lat="44.0621" lon="6.84812">
        <ele>798</ele>
        <time>2020-06-05T11:45:20.000Z</time>
      </trkpt>
      <trkpt lat="44.0621" lon="6.84812">
        <ele>798</ele>
        <time>2020-06-05T11:45:21.000Z</time>
      </trkpt>
      <trkpt lat="44.0621" lon="6.84812">
        <ele>798</ele>
        <time>2020-06-05T11:45:22.000Z</time>
      </trkpt>
      <trkpt lat="44.0621" lon="6.84812">
        <ele>798</ele>
        <time>2020-06-05T11:45:23.000Z</time>
      </trkpt>
      <trkpt lat="44.0621" lon="6.84812">
        <ele>798</ele>
        <time>2020-06-05T11:45:24.000Z</time>
      </trkpt>
      <trkpt lat="44.0621" lon="6.84812">
        <ele>798</ele>
        <time>2020-06-05T11:45:25.000Z</time>
      </trkpt>
      <trkpt lat="44.06211" lon="6.84812">
        <ele>798</ele>
        <time>2020-06-05T11:45:26.000Z</time>
      </trkpt>
      <trkpt lat="44.06211" lon="6.84813">
        <ele>798</ele>
        <time>2020-06-05T11:45:27.000Z</time>
      </trkpt>
      <trkpt lat="44.06212" lon="6.84814">
        <ele>798</ele>
        <time>2020-06-05T11:45:28.000Z</time>
      </trkpt>
      <trkpt lat="44.06212" lon="6.84815">
        <ele>798</ele>
        <time>2020-06-05T11:45:29.000Z</time>
      </trkpt>
      <trkpt lat="44.06212" lon="6.84815">
        <ele>798</ele>
        <time>2020-06-05T11:45:30.000Z</time>
      </trkpt>
      <trkpt lat="44.06212" lon="6.84817">
        <ele>798</ele>
        <time>2020-06-05T11:45:31.000Z</time>
      </trkpt>
      <trkpt lat="44.06212" lon="6.84818">
        <ele>798</ele>
        <time>2020-06-05T11:45:32.000Z</time>
      </trkpt>
      <trkpt lat="44.06212" lon="6.8482">
        <ele>798</ele>
        <time>2020-06-05T11:45:33.000Z</time>
      </trkpt>
      <trkpt lat="44.06211" lon="6.84821">
        <ele>797</ele>
        <time>2020-06-05T11:45:34.000Z</time>
      </trkpt>
      <trkpt lat="44.06211" lon="6.84823">
        <ele>797</ele>
        <time>2020-06-05T11:45:35.000Z</time>
      </trkpt>
      <trkpt lat="44.06211" lon="6.84824">
        <ele>797</ele>
        <time>2020-06-05T11:45:36.000Z</time>
      </trkpt>
      <trkpt lat="44.06211" lon="6.84825">
        <ele>797</ele>
        <time>2020-06-05T11:45:37.000Z</time>
      </trkpt>
      <trkpt lat="44.06211" lon="6.84826">
        <ele>797</ele>
        <time>2020-06-05T11:45:38.000Z</time>
      </trkpt>
      <trkpt lat="44.06211" lon="6.84827">
        <ele>797</ele>
        <time>2020-06-05T11:45:39.000Z</time>
      </trkpt>
      <trkpt lat="44.06211" lon="6.84828">
        <ele>797</ele>
        <time>2020-06-05T11:45:40.000Z</time>
      </trkpt>
      <trkpt lat="44.06211" lon="6.84829">
        <ele>797</ele>
        <time>2020-06-05T11:45:41.000Z</time>
      </trkpt>
      <trkpt lat="44.06211" lon="6.84831">
        <ele>796</ele>
        <time>2020-06-05T11:45:42.000Z</time>
      </trkpt>
      <trkpt lat="44.06211" lon="6.84832">
        <ele>796</ele>
        <time>2020-06-05T11:45:43.000Z</time>
      </trkpt>
      <trkpt lat="44.06211" lon="6.84833">
        <ele>796</ele>
        <time>2020-06-05T11:45:44.000Z</time>
      </trkpt>
      <trkpt lat="44.06211" lon="6.84834">
        <ele>796</ele>
        <time>2020-06-05T11:45:45.000Z</time>
      </trkpt>
      <trkpt lat="44.06211" lon="6.84836">
        <ele>796</ele>
        <time>2020-06-05T11:45:46.000Z</time>
      </trkpt>
      <trkpt lat="44.06211" lon="6.84837">
        <ele>795</ele>
        <time>2020-06-05T11:45:47.000Z</time>
      </trkpt>
      <trkpt lat="44.06211" lon="6.84838">
        <ele>795</ele>
        <time>2020-06-05T11:45:48.000Z</time>
      </trkpt>
      <trkpt lat="44.0621" lon="6.84839">
        <ele>795</ele>
        <time>2020-06-05T11:45:49.000Z</time>
      </trkpt>
      <trkpt lat="44.0621" lon="6.84841">
        <ele>794</ele>
        <time>2020-06-05T11:45:50.000Z</time>
      </trkpt>
      <trkpt lat="44.0621" lon="6.84842">
        <ele>794</ele>
        <time>2020-06-05T11:45:51.000Z</time>
      </trkpt>
      <trkpt lat="44.0621" lon="6.84844">
        <ele>794</ele>
        <time>2020-06-05T11:45:52.000Z</time>
      </trkpt>
      <trkpt lat="44.0621" lon="6.84845">
        <ele>793</ele>
        <time>2020-06-05T11:45:53.000Z</time>
      </trkpt>
      <trkpt lat="44.0621" lon="6.84846">
        <ele>793</ele>
        <time>2020-06-05T11:45:54.000Z</time>
      </trkpt>
      <trkpt lat="44.0621" lon="6.84847">
        <ele>793</ele>
        <time>2020-06-05T11:45:55.000Z</time>
      </trkpt>
      <trkpt lat="44.0621" lon="6.84848">
        <ele>792</ele>
        <time>2020-06-05T11:45:56.000Z</time>
      </trkpt>
      <trkpt lat="44.06211" lon="6.84849">
        <ele>792</ele>
        <time>2020-06-05T11:45:57.000Z</time>
      </trkpt>
      <trkpt lat="44.0621" lon="6.84851">
        <ele>791</ele>
        <time>2020-06-05T11:45:58.000Z</time>
      </trkpt>
      <trkpt lat="44.0621" lon="6.84852">
        <ele>791</ele>
        <time>2020-06-05T11:45:59.000Z</time>
      </trkpt>
      <trkpt lat="44.0621" lon="6.84853">
        <ele>791</ele>
        <time>2020-06-05T11:46:00.000Z</time>
      </trkpt>
      <trkpt lat="44.0621" lon="6.84855">
        <ele>790</ele>
        <time>2020-06-05T11:46:01.000Z</time>
      </trkpt>
      <trkpt lat="44.06211" lon="6.84856">
        <ele>790</ele>
        <time>2020-06-05T11:46:02.000Z</time>
      </trkpt>
      <trkpt lat="44.06211" lon="6.84857">
        <ele>789</ele>
        <time>2020-06-05T11:46:03.000Z</time>
      </trkpt>
      <trkpt lat="44.06211" lon="6.84859">
        <ele>789</ele>
        <time>2020-06-05T11:46:04.000Z</time>
      </trkpt>
      <trkpt lat="44.06211" lon="6.8486">
        <ele>789</ele>
        <time>2020-06-05T11:46:05.000Z</time>
      </trkpt>
      <trkpt lat="44.06211" lon="6.84861">
        <ele>788</ele>
        <time>2020-06-05T11:46:06.000Z</time>
      </trkpt>
      <trkpt lat="44.06211" lon="6.84862">
        <ele>788</ele>
        <time>2020-06-05T11:46:07.000Z</time>
      </trkpt>
      <trkpt lat="44.06211" lon="6.84863">
        <ele>788</ele>
        <time>2020-06-05T11:46:08.000Z</time>
      </trkpt>
      <trkpt lat="44.06211" lon="6.84864">
        <ele>787</ele>
        <time>2020-06-05T11:46:09.000Z</time>
      </trkpt>
      <trkpt lat="44.06211" lon="6.84865">
        <ele>787</ele>
        <time>2020-06-05T11:46:10.000Z</time>
      </trkpt>
      <trkpt lat="44.06212" lon="6.84867">
        <ele>787</ele>
        <time>2020-06-05T11:46:11.000Z</time>
      </trkpt>
      <trkpt lat="44.06211" lon="6.84868">
        <ele>786</ele>
        <time>2020-06-05T11:46:12.000Z</time>
      </trkpt>
      <trkpt lat="44.06211" lon="6.8487">
        <ele>786</ele>
        <time>2020-06-05T11:46:13.000Z</time>
      </trkpt>
      <trkpt lat="44.06211" lon="6.84871">
        <ele>786</ele>
        <time>2020-06-05T11:46:14.000Z</time>
      </trkpt>
      <trkpt lat="44.06211" lon="6.84872">
        <ele>785</ele>
        <time>2020-06-05T11:46:15.000Z</time>
      </trkpt>
      <trkpt lat="44.06211" lon="6.84874">
        <ele>785</ele>
        <time>2020-06-05T11:46:16.000Z</time>
      </trkpt>
      <trkpt lat="44.06211" lon="6.84875">
        <ele>785</ele>
        <time>2020-06-05T11:46:17.000Z</time>
      </trkpt>
      <trkpt lat="44.06211" lon="6.84876">
        <ele>784</ele>
        <time>2020-06-05T11:46:18.000Z</time>
      </trkpt>
      <trkpt lat="44.06211" lon="6.84877">
        <ele>784</ele>
        <time>2020-06-05T11:46:19.000Z</time>
      </trkpt>
      <trkpt lat="44.06212" lon="6.84879">
        <ele>784</ele>
        <time>2020-06-05T11:46:20.000Z</time>
      </trkpt>
      <trkpt lat="44.06212" lon="6.8488">
        <ele>784</ele>
        <time>2020-06-05T11:46:21.000Z</time>
      </trkpt>
      <trkpt lat="44.06212" lon="6.84881">
        <ele>783</ele>
        <time>2020-06-05T11:46:22.000Z</time>
      </trkpt>
      <trkpt lat="44.06212" lon="6.84883">
        <ele>783</ele>
        <time>2020-06-05T11:46:23.000Z</time>
      </trkpt>
      <trkpt lat="44.06212" lon="6.84884">
        <ele>783</ele>
        <time>2020-06-05T11:46:24.000Z</time>
      </trkpt>
      <trkpt lat="44.06212" lon="6.84886">
        <ele>782</ele>
        <time>2020-06-05T11:46:25.000Z</time>
      </trkpt>
      <trkpt lat="44.06212" lon="6.84888">
        <ele>782</ele>
        <time>2020-06-05T11:46:26.000Z</time>
      </trkpt>
      <trkpt lat="44.06213" lon="6.84888">
        <ele>782</ele>
        <time>2020-06-05T11:46:27.000Z</time>
      </trkpt>
      <trkpt lat="44.06213" lon="6.84889">
        <ele>782</ele>
        <time>2020-06-05T11:46:28.000Z</time>
      </trkpt>
      <trkpt lat="44.06214" lon="6.8489">
        <ele>782</ele>
        <time>2020-06-05T11:46:29.000Z</time>
      </trkpt>
      <trkpt lat="44.06214" lon="6.8489">
        <ele>782</ele>
        <time>2020-06-05T11:46:30.000Z</time>
      </trkpt>
      <trkpt lat="44.06215" lon="6.84891">
        <ele>782</ele>
        <time>2020-06-05T11:46:31.000Z</time>
      </trkpt>
      <trkpt lat="44.06215" lon="6.84892">
        <ele>781</ele>
        <time>2020-06-05T11:46:32.000Z</time>
      </trkpt>
      <trkpt lat="44.06215" lon="6.84893">
        <ele>781</ele>
        <time>2020-06-05T11:46:33.000Z</time>
      </trkpt>
      <trkpt lat="44.06216" lon="6.84894">
        <ele>781</ele>
        <time>2020-06-05T11:46:34.000Z</time>
      </trkpt>
      <trkpt lat="44.06216" lon="6.84895">
        <ele>781</ele>
        <time>2020-06-05T11:46:35.000Z</time>
      </trkpt>
      <trkpt lat="44.06216" lon="6.84896">
        <ele>781</ele>
        <time>2020-06-05T11:46:36.000Z</time>
      </trkpt>
      <trkpt lat="44.06217" lon="6.84897">
        <ele>781</ele>
        <time>2020-06-05T11:46:37.000Z</time>
      </trkpt>
      <trkpt lat="44.06218" lon="6.84898">
        <ele>781</ele>
        <time>2020-06-05T11:46:38.000Z</time>
      </trkpt>
      <trkpt lat="44.06219" lon="6.84899">
        <ele>781</ele>
        <time>2020-06-05T11:46:39.000Z</time>
      </trkpt>
      <trkpt lat="44.06219" lon="6.849">
        <ele>780</ele>
        <time>2020-06-05T11:46:40.000Z</time>
      </trkpt>
      <trkpt lat="44.06219" lon="6.84901">
        <ele>780</ele>
        <time>2020-06-05T11:46:41.000Z</time>
      </trkpt>
      <trkpt lat="44.0622" lon="6.84903">
        <ele>780</ele>
        <time>2020-06-05T11:46:42.000Z</time>
      </trkpt>
      <trkpt lat="44.0622" lon="6.84904">
        <ele>780</ele>
        <time>2020-06-05T11:46:43.000Z</time>
      </trkpt>
      <trkpt lat="44.0622" lon="6.84905">
        <ele>780</ele>
        <time>2020-06-05T11:46:44.000Z</time>
      </trkpt>
      <trkpt lat="44.06221" lon="6.84906">
        <ele>780</ele>
        <time>2020-06-05T11:46:45.000Z</time>
      </trkpt>
      <trkpt lat="44.06221" lon="6.84908">
        <ele>780</ele>
        <time>2020-06-05T11:46:46.000Z</time>
      </trkpt>
      <trkpt lat="44.06221" lon="6.84909">
        <ele>780</ele>
        <time>2020-06-05T11:46:47.000Z</time>
      </trkpt>
      <trkpt lat="44.06221" lon="6.84911">
        <ele>780</ele>
        <time>2020-06-05T11:46:48.000Z</time>
      </trkpt>
      <trkpt lat="44.06221" lon="6.84912">
        <ele>780</ele>
        <time>2020-06-05T11:46:49.000Z</time>
      </trkpt>
      <trkpt lat="44.06221" lon="6.84914">
        <ele>780</ele>
        <time>2020-06-05T11:46:50.000Z</time>
      </trkpt>
      <trkpt lat="44.06221" lon="6.84915">
        <ele>780</ele>
        <time>2020-06-05T11:46:51.000Z</time>
      </trkpt>
      <trkpt lat="44.06221" lon="6.84916">
        <ele>780</ele>
        <time>2020-06-05T11:46:52.000Z</time>
      </trkpt>
      <trkpt lat="44.06221" lon="6.84917">
        <ele>780</ele>
        <time>2020-06-05T11:46:53.000Z</time>
      </trkpt>
      <trkpt lat="44.06221" lon="6.84918">
        <ele>780</ele>
        <time>2020-06-05T11:46:54.000Z</time>
      </trkpt>
      <trkpt lat="44.06221" lon="6.84919">
        <ele>780</ele>
        <time>2020-06-05T11:46:55.000Z</time>
      </trkpt>
      <trkpt lat="44.06221" lon="6.84921">
        <ele>780</ele>
        <time>2020-06-05T11:46:56.000Z</time>
      </trkpt>
      <trkpt lat="44.06222" lon="6.84922">
        <ele>780</ele>
        <time>2020-06-05T11:46:57.000Z</time>
      </trkpt>
      <trkpt lat="44.06222" lon="6.84924">
        <ele>779</ele>
        <time>2020-06-05T11:46:58.000Z</time>
      </trkpt>
      <trkpt lat="44.06222" lon="6.84925">
        <ele>779</ele>
        <time>2020-06-05T11:46:59.000Z</time>
      </trkpt>
      <trkpt lat="44.06222" lon="6.84927">
        <ele>779</ele>
        <time>2020-06-05T11:47:00.000Z</time>
      </trkpt>
      <trkpt lat="44.06222" lon="6.84928">
        <ele>779</ele>
        <time>2020-06-05T11:47:01.000Z</time>
      </trkpt>
      <trkpt lat="44.06223" lon="6.84929">
        <ele>779</ele>
        <time>2020-06-05T11:47:02.000Z</time>
      </trkpt>
      <trkpt lat="44.06223" lon="6.8493">
        <ele>779</ele>
        <time>2020-06-05T11:47:03.000Z</time>
      </trkpt>
      <trkpt lat="44.06223" lon="6.84932">
        <ele>779</ele>
        <time>2020-06-05T11:47:04.000Z</time>
      </trkpt>
      <trkpt lat="44.06223" lon="6.84933">
        <ele>778</ele>
        <time>2020-06-05T11:47:05.000Z</time>
      </trkpt>
      <trkpt lat="44.06223" lon="6.84935">
        <ele>778</ele>
        <time>2020-06-05T11:47:06.000Z</time>
      </trkpt>
      <trkpt lat="44.06223" lon="6.84936">
        <ele>778</ele>
        <time>2020-06-05T11:47:07.000Z</time>
      </trkpt>
      <trkpt lat="44.06224" lon="6.84937">
        <ele>778</ele>
        <time>2020-06-05T11:47:08.000Z</time>
      </trkpt>
      <trkpt lat="44.06224" lon="6.84939">
        <ele>778</ele>
        <time>2020-06-05T11:47:09.000Z</time>
      </trkpt>
      <trkpt lat="44.06224" lon="6.8494">
        <ele>778</ele>
        <time>2020-06-05T11:47:10.000Z</time>
      </trkpt>
      <trkpt lat="44.06224" lon="6.84941">
        <ele>778</ele>
        <time>2020-06-05T11:47:11.000Z</time>
      </trkpt>
      <trkpt lat="44.06225" lon="6.84942">
        <ele>778</ele>
        <time>2020-06-05T11:47:12.000Z</time>
      </trkpt>
      <trkpt lat="44.06225" lon="6.84944">
        <ele>777</ele>
        <time>2020-06-05T11:47:13.000Z</time>
      </trkpt>
      <trkpt lat="44.06226" lon="6.84945">
        <ele>777</ele>
        <time>2020-06-05T11:47:14.000Z</time>
      </trkpt>
      <trkpt lat="44.06226" lon="6.84946">
        <ele>777</ele>
        <time>2020-06-05T11:47:15.000Z</time>
      </trkpt>
      <trkpt lat="44.06226" lon="6.84948">
        <ele>777</ele>
        <time>2020-06-05T11:47:16.000Z</time>
      </trkpt>
      <trkpt lat="44.06227" lon="6.84949">
        <ele>777</ele>
        <time>2020-06-05T11:47:17.000Z</time>
      </trkpt>
      <trkpt lat="44.06227" lon="6.8495">
        <ele>777</ele>
        <time>2020-06-05T11:47:18.000Z</time>
      </trkpt>
      <trkpt lat="44.06227" lon="6.84952">
        <ele>778</ele>
        <time>2020-06-05T11:47:19.000Z</time>
      </trkpt>
      <trkpt lat="44.06228" lon="6.84953">
        <ele>778</ele>
        <time>2020-06-05T11:47:20.000Z</time>
      </trkpt>
      <trkpt lat="44.06228" lon="6.84955">
        <ele>778</ele>
        <time>2020-06-05T11:47:21.000Z</time>
      </trkpt>
      <trkpt lat="44.06229" lon="6.84956">
        <ele>778</ele>
        <time>2020-06-05T11:47:22.000Z</time>
      </trkpt>
      <trkpt lat="44.06229" lon="6.84958">
        <ele>778</ele>
        <time>2020-06-05T11:47:23.000Z</time>
      </trkpt>
      <trkpt lat="44.0623" lon="6.84959">
        <ele>778</ele>
        <time>2020-06-05T11:47:24.000Z</time>
      </trkpt>
      <trkpt lat="44.0623" lon="6.84961">
        <ele>778</ele>
        <time>2020-06-05T11:47:25.000Z</time>
      </trkpt>
      <trkpt lat="44.0623" lon="6.84963">
        <ele>778</ele>
        <time>2020-06-05T11:47:26.000Z</time>
      </trkpt>
      <trkpt lat="44.0623" lon="6.84964">
        <ele>778</ele>
        <time>2020-06-05T11:47:27.000Z</time>
      </trkpt>
      <trkpt lat="44.0623" lon="6.84966">
        <ele>778</ele>
        <time>2020-06-05T11:47:28.000Z</time>
      </trkpt>
      <trkpt lat="44.0623" lon="6.84967">
        <ele>778</ele>
        <time>2020-06-05T11:47:29.000Z</time>
      </trkpt>
      <trkpt lat="44.0623" lon="6.84969">
        <ele>778</ele>
        <time>2020-06-05T11:47:30.000Z</time>
      </trkpt>
      <trkpt lat="44.0623" lon="6.8497">
        <ele>778</ele>
        <time>2020-06-05T11:47:31.000Z</time>
      </trkpt>
      <trkpt lat="44.0623" lon="6.84971">
        <ele>778</ele>
        <time>2020-06-05T11:47:32.000Z</time>
      </trkpt>
      <trkpt lat="44.0623" lon="6.84973">
        <ele>779</ele>
        <time>2020-06-05T11:47:33.000Z</time>
      </trkpt>
      <trkpt lat="44.0623" lon="6.84975">
        <ele>778</ele>
        <time>2020-06-05T11:47:34.000Z</time>
      </trkpt>
      <trkpt lat="44.0623" lon="6.84976">
        <ele>778</ele>
        <time>2020-06-05T11:47:35.000Z</time>
      </trkpt>
      <trkpt lat="44.06229" lon="6.84978">
        <ele>778</ele>
        <time>2020-06-05T11:47:36.000Z</time>
      </trkpt>
      <trkpt lat="44.06229" lon="6.84979">
        <ele>779</ele>
        <time>2020-06-05T11:47:37.000Z</time>
      </trkpt>
      <trkpt lat="44.06229" lon="6.84981">
        <ele>779</ele>
        <time>2020-06-05T11:47:38.000Z</time>
      </trkpt>
      <trkpt lat="44.06228" lon="6.84982">
        <ele>779</ele>
        <time>2020-06-05T11:47:39.000Z</time>
      </trkpt>
      <trkpt lat="44.06228" lon="6.84984">
        <ele>779</ele>
        <time>2020-06-05T11:47:40.000Z</time>
      </trkpt>
      <trkpt lat="44.06228" lon="6.84986">
        <ele>779</ele>
        <time>2020-06-05T11:47:41.000Z</time>
      </trkpt>
      <trkpt lat="44.06228" lon="6.84987">
        <ele>779</ele>
        <time>2020-06-05T11:47:42.000Z</time>
      </trkpt>
      <trkpt lat="44.06227" lon="6.84988">
        <ele>779</ele>
        <time>2020-06-05T11:47:43.000Z</time>
      </trkpt>
      <trkpt lat="44.06227" lon="6.8499">
        <ele>780</ele>
        <time>2020-06-05T11:47:44.000Z</time>
      </trkpt>
      <trkpt lat="44.06226" lon="6.84991">
        <ele>780</ele>
        <time>2020-06-05T11:47:45.000Z</time>
      </trkpt>
      <trkpt lat="44.06226" lon="6.84993">
        <ele>780</ele>
        <time>2020-06-05T11:47:46.000Z</time>
      </trkpt>
      <trkpt lat="44.06226" lon="6.84994">
        <ele>780</ele>
        <time>2020-06-05T11:47:47.000Z</time>
      </trkpt>
      <trkpt lat="44.06225" lon="6.84996">
        <ele>780</ele>
        <time>2020-06-05T11:47:48.000Z</time>
      </trkpt>
      <trkpt lat="44.06225" lon="6.84997">
        <ele>780</ele>
        <time>2020-06-05T11:47:49.000Z</time>
      </trkpt>
      <trkpt lat="44.06225" lon="6.84999">
        <ele>780</ele>
        <time>2020-06-05T11:47:50.000Z</time>
      </trkpt>
      <trkpt lat="44.06224" lon="6.85">
        <ele>780</ele>
        <time>2020-06-05T11:47:51.000Z</time>
      </trkpt>
      <trkpt lat="44.06224" lon="6.85001">
        <ele>780</ele>
        <time>2020-06-05T11:47:52.000Z</time>
      </trkpt>
      <trkpt lat="44.06224" lon="6.85003">
        <ele>780</ele>
        <time>2020-06-05T11:47:53.000Z</time>
      </trkpt>
      <trkpt lat="44.06224" lon="6.85004">
        <ele>781</ele>
        <time>2020-06-05T11:47:54.000Z</time>
      </trkpt>
      <trkpt lat="44.06223" lon="6.85006">
        <ele>781</ele>
        <time>2020-06-05T11:47:55.000Z</time>
      </trkpt>
      <trkpt lat="44.06223" lon="6.85007">
        <ele>781</ele>
        <time>2020-06-05T11:47:56.000Z</time>
      </trkpt>
      <trkpt lat="44.06222" lon="6.85009">
        <ele>781</ele>
        <time>2020-06-05T11:47:57.000Z</time>
      </trkpt>
      <trkpt lat="44.06222" lon="6.8501">
        <ele>781</ele>
        <time>2020-06-05T11:47:58.000Z</time>
      </trkpt>
      <trkpt lat="44.06221" lon="6.85011">
        <ele>781</ele>
        <time>2020-06-05T11:47:59.000Z</time>
      </trkpt>
      <trkpt lat="44.06221" lon="6.85012">
        <ele>781</ele>
        <time>2020-06-05T11:48:00.000Z</time>
      </trkpt>
      <trkpt lat="44.0622" lon="6.85014">
        <ele>781</ele>
        <time>2020-06-05T11:48:01.000Z</time>
      </trkpt>
      <trkpt lat="44.0622" lon="6.85015">
        <ele>781</ele>
        <time>2020-06-05T11:48:02.000Z</time>
      </trkpt>
      <trkpt lat="44.0622" lon="6.85016">
        <ele>781</ele>
        <time>2020-06-05T11:48:03.000Z</time>
      </trkpt>
      <trkpt lat="44.06219" lon="6.85018">
        <ele>781</ele>
        <time>2020-06-05T11:48:04.000Z</time>
      </trkpt>
      <trkpt lat="44.06219" lon="6.85019">
        <ele>781</ele>
        <time>2020-06-05T11:48:05.000Z</time>
      </trkpt>
      <trkpt lat="44.06218" lon="6.8502">
        <ele>781</ele>
        <time>2020-06-05T11:48:06.000Z</time>
      </trkpt>
      <trkpt lat="44.06218" lon="6.85022">
        <ele>781</ele>
        <time>2020-06-05T11:48:07.000Z</time>
      </trkpt>
      <trkpt lat="44.06218" lon="6.85023">
        <ele>781</ele>
        <time>2020-06-05T11:48:08.000Z</time>
      </trkpt>
      <trkpt lat="44.06217" lon="6.85025">
        <ele>781</ele>
        <time>2020-06-05T11:48:09.000Z</time>
      </trkpt>
      <trkpt lat="44.06217" lon="6.85026">
        <ele>781</ele>
        <time>2020-06-05T11:48:10.000Z</time>
      </trkpt>
      <trkpt lat="44.06217" lon="6.85028">
        <ele>781</ele>
        <time>2020-06-05T11:48:11.000Z</time>
      </trkpt>
      <trkpt lat="44.06217" lon="6.85029">
        <ele>781</ele>
        <time>2020-06-05T11:48:12.000Z</time>
      </trkpt>
      <trkpt lat="44.06216" lon="6.85031">
        <ele>781</ele>
        <time>2020-06-05T11:48:13.000Z</time>
      </trkpt>
      <trkpt lat="44.06216" lon="6.85033">
        <ele>781</ele>
        <time>2020-06-05T11:48:14.000Z</time>
      </trkpt>
      <trkpt lat="44.06216" lon="6.85034">
        <ele>781</ele>
        <time>2020-06-05T11:48:15.000Z</time>
      </trkpt>
      <trkpt lat="44.06216" lon="6.85036">
        <ele>781</ele>
        <time>2020-06-05T11:48:16.000Z</time>
      </trkpt>
      <trkpt lat="44.06215" lon="6.85037">
        <ele>781</ele>
        <time>2020-06-05T11:48:17.000Z</time>
      </trkpt>
      <trkpt lat="44.06215" lon="6.85039">
        <ele>781</ele>
        <time>2020-06-05T11:48:18.000Z</time>
      </trkpt>
      <trkpt lat="44.06216" lon="6.8504">
        <ele>781</ele>
        <time>2020-06-05T11:48:19.000Z</time>
      </trkpt>
      <trkpt lat="44.06215" lon="6.85042">
        <ele>781</ele>
        <time>2020-06-05T11:48:20.000Z</time>
      </trkpt>
      <trkpt lat="44.06215" lon="6.85043">
        <ele>781</ele>
        <time>2020-06-05T11:48:21.000Z</time>
      </trkpt>
      <trkpt lat="44.06215" lon="6.85044">
        <ele>781</ele>
        <time>2020-06-05T11:48:22.000Z</time>
      </trkpt>
      <trkpt lat="44.06215" lon="6.85046">
        <ele>781</ele>
        <time>2020-06-05T11:48:23.000Z</time>
      </trkpt>
      <trkpt lat="44.06215" lon="6.85048">
        <ele>781</ele>
        <time>2020-06-05T11:48:24.000Z</time>
      </trkpt>
      <trkpt lat="44.06215" lon="6.85049">
        <ele>781</ele>
        <time>2020-06-05T11:48:25.000Z</time>
      </trkpt>
      <trkpt lat="44.06214" lon="6.85051">
        <ele>781</ele>
        <time>2020-06-05T11:48:26.000Z</time>
      </trkpt>
      <trkpt lat="44.06214" lon="6.85052">
        <ele>781</ele>
        <time>2020-06-05T11:48:27.000Z</time>
      </trkpt>
      <trkpt lat="44.06213" lon="6.85053">
        <ele>782</ele>
        <time>2020-06-05T11:48:28.000Z</time>
      </trkpt>
      <trkpt lat="44.06213" lon="6.85055">
        <ele>782</ele>
        <time>2020-06-05T11:48:29.000Z</time>
      </trkpt>
      <trkpt lat="44.06213" lon="6.85056">
        <ele>782</ele>
        <time>2020-06-05T11:48:30.000Z</time>
      </trkpt>
      <trkpt lat="44.06213" lon="6.85058">
        <ele>782</ele>
        <time>2020-06-05T11:48:31.000Z</time>
      </trkpt>
      <trkpt lat="44.06212" lon="6.85059">
        <ele>782</ele>
        <time>2020-06-05T11:48:32.000Z</time>
      </trkpt>
      <trkpt lat="44.06212" lon="6.85061">
        <ele>782</ele>
        <time>2020-06-05T11:48:33.000Z</time>
      </trkpt>
      <trkpt lat="44.06212" lon="6.85062">
        <ele>782</ele>
        <time>2020-06-05T11:48:34.000Z</time>
      </trkpt>
      <trkpt lat="44.06212" lon="6.85063">
        <ele>782</ele>
        <time>2020-06-05T11:48:35.000Z</time>
      </trkpt>
      <trkpt lat="44.06212" lon="6.85065">
        <ele>783</ele>
        <time>2020-06-05T11:48:36.000Z</time>
      </trkpt>
      <trkpt lat="44.06211" lon="6.85067">
        <ele>783</ele>
        <time>2020-06-05T11:48:37.000Z</time>
      </trkpt>
      <trkpt lat="44.06211" lon="6.85068">
        <ele>783</ele>
        <time>2020-06-05T11:48:38.000Z</time>
      </trkpt>
      <trkpt lat="44.06211" lon="6.8507">
        <ele>783</ele>
        <time>2020-06-05T11:48:39.000Z</time>
      </trkpt>
      <trkpt lat="44.06211" lon="6.85071">
        <ele>783</ele>
        <time>2020-06-05T11:48:40.000Z</time>
      </trkpt>
      <trkpt lat="44.0621" lon="6.85073">
        <ele>784</ele>
        <time>2020-06-05T11:48:41.000Z</time>
      </trkpt>
      <trkpt lat="44.0621" lon="6.85074">
        <ele>784</ele>
        <time>2020-06-05T11:48:42.000Z</time>
      </trkpt>
      <trkpt lat="44.0621" lon="6.85075">
        <ele>784</ele>
        <time>2020-06-05T11:48:43.000Z</time>
      </trkpt>
      <trkpt lat="44.0621" lon="6.85077">
        <ele>784</ele>
        <time>2020-06-05T11:48:44.000Z</time>
      </trkpt>
      <trkpt lat="44.06209" lon="6.85078">
        <ele>784</ele>
        <time>2020-06-05T11:48:45.000Z</time>
      </trkpt>
      <trkpt lat="44.06209" lon="6.8508">
        <ele>784</ele>
        <time>2020-06-05T11:48:46.000Z</time>
      </trkpt>
      <trkpt lat="44.06209" lon="6.85082">
        <ele>784</ele>
        <time>2020-06-05T11:48:47.000Z</time>
      </trkpt>
      <trkpt lat="44.06209" lon="6.85083">
        <ele>784</ele>
        <time>2020-06-05T11:48:48.000Z</time>
      </trkpt>
      <trkpt lat="44.06208" lon="6.85085">
        <ele>784</ele>
        <time>2020-06-05T11:48:49.000Z</time>
      </trkpt>
      <trkpt lat="44.06208" lon="6.85086">
        <ele>784</ele>
        <time>2020-06-05T11:48:50.000Z</time>
      </trkpt>
      <trkpt lat="44.06208" lon="6.85088">
        <ele>784</ele>
        <time>2020-06-05T11:48:51.000Z</time>
      </trkpt>
      <trkpt lat="44.06208" lon="6.85089">
        <ele>784</ele>
        <time>2020-06-05T11:48:52.000Z</time>
      </trkpt>
      <trkpt lat="44.06208" lon="6.85091">
        <ele>784</ele>
        <time>2020-06-05T11:48:53.000Z</time>
      </trkpt>
      <trkpt lat="44.06208" lon="6.85092">
        <ele>784</ele>
        <time>2020-06-05T11:48:54.000Z</time>
      </trkpt>
      <trkpt lat="44.06208" lon="6.85094">
        <ele>784</ele>
        <time>2020-06-05T11:48:55.000Z</time>
      </trkpt>
      <trkpt lat="44.06208" lon="6.85096">
        <ele>784</ele>
        <time>2020-06-05T11:48:56.000Z</time>
      </trkpt>
      <trkpt lat="44.06207" lon="6.85097">
        <ele>784</ele>
        <time>2020-06-05T11:48:57.000Z</time>
      </trkpt>
      <trkpt lat="44.06207" lon="6.85099">
        <ele>784</ele>
        <time>2020-06-05T11:48:58.000Z</time>
      </trkpt>
      <trkpt lat="44.06207" lon="6.851">
        <ele>784</ele>
        <time>2020-06-05T11:48:59.000Z</time>
      </trkpt>
      <trkpt lat="44.06207" lon="6.85102">
        <ele>783</ele>
        <time>2020-06-05T11:49:00.000Z</time>
      </trkpt>
      <trkpt lat="44.06207" lon="6.85104">
        <ele>783</ele>
        <time>2020-06-05T11:49:01.000Z</time>
      </trkpt>
      <trkpt lat="44.06207" lon="6.85105">
        <ele>783</ele>
        <time>2020-06-05T11:49:02.000Z</time>
      </trkpt>
      <trkpt lat="44.06207" lon="6.85107">
        <ele>783</ele>
        <time>2020-06-05T11:49:03.000Z</time>
      </trkpt>
      <trkpt lat="44.06207" lon="6.85108">
        <ele>783</ele>
        <time>2020-06-05T11:49:04.000Z</time>
      </trkpt>
      <trkpt lat="44.06207" lon="6.8511">
        <ele>783</ele>
        <time>2020-06-05T11:49:05.000Z</time>
      </trkpt>
      <trkpt lat="44.06206" lon="6.85112">
        <ele>783</ele>
        <time>2020-06-05T11:49:06.000Z</time>
      </trkpt>
      <trkpt lat="44.06206" lon="6.85113">
        <ele>783</ele>
        <time>2020-06-05T11:49:07.000Z</time>
      </trkpt>
      <trkpt lat="44.06206" lon="6.85115">
        <ele>783</ele>
        <time>2020-06-05T11:49:08.000Z</time>
      </trkpt>
      <trkpt lat="44.06206" lon="6.85116">
        <ele>783</ele>
        <time>2020-06-05T11:49:09.000Z</time>
      </trkpt>
      <trkpt lat="44.06205" lon="6.85118">
        <ele>783</ele>
        <time>2020-06-05T11:49:10.000Z</time>
      </trkpt>
      <trkpt lat="44.06205" lon="6.85119">
        <ele>783</ele>
        <time>2020-06-05T11:49:11.000Z</time>
      </trkpt>
      <trkpt lat="44.06205" lon="6.85121">
        <ele>783</ele>
        <time>2020-06-05T11:49:12.000Z</time>
      </trkpt>
      <trkpt lat="44.06205" lon="6.85122">
        <ele>783</ele>
        <time>2020-06-05T11:49:13.000Z</time>
      </trkpt>
      <trkpt lat="44.06204" lon="6.85124">
        <ele>783</ele>
        <time>2020-06-05T11:49:14.000Z</time>
      </trkpt>
      <trkpt lat="44.06204" lon="6.85125">
        <ele>782</ele>
        <time>2020-06-05T11:49:15.000Z</time>
      </trkpt>
      <trkpt lat="44.06204" lon="6.85127">
        <ele>782</ele>
        <time>2020-06-05T11:49:16.000Z</time>
      </trkpt>
      <trkpt lat="44.06203" lon="6.85129">
        <ele>782</ele>
        <time>2020-06-05T11:49:17.000Z</time>
      </trkpt>
      <trkpt lat="44.06203" lon="6.8513">
        <ele>782</ele>
        <time>2020-06-05T11:49:18.000Z</time>
      </trkpt>
      <trkpt lat="44.06203" lon="6.85132">
        <ele>782</ele>
        <time>2020-06-05T11:49:19.000Z</time>
      </trkpt>
      <trkpt lat="44.06202" lon="6.85134">
        <ele>782</ele>
        <time>2020-06-05T11:49:20.000Z</time>
      </trkpt>
      <trkpt lat="44.06202" lon="6.85135">
        <ele>782</ele>
        <time>2020-06-05T11:49:21.000Z</time>
      </trkpt>
      <trkpt lat="44.06202" lon="6.85137">
        <ele>781</ele>
        <time>2020-06-05T11:49:22.000Z</time>
      </trkpt>
      <trkpt lat="44.06202" lon="6.85139">
        <ele>781</ele>
        <time>2020-06-05T11:49:23.000Z</time>
      </trkpt>
      <trkpt lat="44.06202" lon="6.8514">
        <ele>781</ele>
        <time>2020-06-05T11:49:24.000Z</time>
      </trkpt>
      <trkpt lat="44.06202" lon="6.85142">
        <ele>781</ele>
        <time>2020-06-05T11:49:25.000Z</time>
      </trkpt>
      <trkpt lat="44.06202" lon="6.85143">
        <ele>781</ele>
        <time>2020-06-05T11:49:26.000Z</time>
      </trkpt>
      <trkpt lat="44.06202" lon="6.85145">
        <ele>781</ele>
        <time>2020-06-05T11:49:27.000Z</time>
      </trkpt>
      <trkpt lat="44.06201" lon="6.85146">
        <ele>781</ele>
        <time>2020-06-05T11:49:28.000Z</time>
      </trkpt>
      <trkpt lat="44.06201" lon="6.85148">
        <ele>781</ele>
        <time>2020-06-05T11:49:29.000Z</time>
      </trkpt>
      <trkpt lat="44.06201" lon="6.85149">
        <ele>782</ele>
        <time>2020-06-05T11:49:30.000Z</time>
      </trkpt>
      <trkpt lat="44.06201" lon="6.85151">
        <ele>782</ele>
        <time>2020-06-05T11:49:31.000Z</time>
      </trkpt>
      <trkpt lat="44.06201" lon="6.85152">
        <ele>782</ele>
        <time>2020-06-05T11:49:32.000Z</time>
      </trkpt>
      <trkpt lat="44.06201" lon="6.85154">
        <ele>782</ele>
        <time>2020-06-05T11:49:33.000Z</time>
      </trkpt>
      <trkpt lat="44.06201" lon="6.85155">
        <ele>782</ele>
        <time>2020-06-05T11:49:34.000Z</time>
      </trkpt>
      <trkpt lat="44.06201" lon="6.85157">
        <ele>782</ele>
        <time>2020-06-05T11:49:35.000Z</time>
      </trkpt>
      <trkpt lat="44.06201" lon="6.85158">
        <ele>782</ele>
        <time>2020-06-05T11:49:36.000Z</time>
      </trkpt>
      <trkpt lat="44.06201" lon="6.85159">
        <ele>782</ele>
        <time>2020-06-05T11:49:37.000Z</time>
      </trkpt>
      <trkpt lat="44.06201" lon="6.85161">
        <ele>782</ele>
        <time>2020-06-05T11:49:38.000Z</time>
      </trkpt>
      <trkpt lat="44.06201" lon="6.85162">
        <ele>782</ele>
        <time>2020-06-05T11:49:39.000Z</time>
      </trkpt>
      <trkpt lat="44.06201" lon="6.85164">
        <ele>783</ele>
        <time>2020-06-05T11:49:40.000Z</time>
      </trkpt>
      <trkpt lat="44.06201" lon="6.85165">
        <ele>783</ele>
        <time>2020-06-05T11:49:41.000Z</time>
      </trkpt>
      <trkpt lat="44.06201" lon="6.85167">
        <ele>783</ele>
        <time>2020-06-05T11:49:42.000Z</time>
      </trkpt>
      <trkpt lat="44.06201" lon="6.85168">
        <ele>783</ele>
        <time>2020-06-05T11:49:43.000Z</time>
      </trkpt>
      <trkpt lat="44.062" lon="6.8517">
        <ele>783</ele>
        <time>2020-06-05T11:49:44.000Z</time>
      </trkpt>
      <trkpt lat="44.062" lon="6.85171">
        <ele>783</ele>
        <time>2020-06-05T11:49:45.000Z</time>
      </trkpt>
      <trkpt lat="44.06201" lon="6.85173">
        <ele>783</ele>
        <time>2020-06-05T11:49:46.000Z</time>
      </trkpt>
      <trkpt lat="44.06201" lon="6.85174">
        <ele>783</ele>
        <time>2020-06-05T11:49:47.000Z</time>
      </trkpt>
      <trkpt lat="44.06202" lon="6.85176">
        <ele>783</ele>
        <time>2020-06-05T11:49:48.000Z</time>
      </trkpt>
      <trkpt lat="44.06202" lon="6.85177">
        <ele>783</ele>
        <time>2020-06-05T11:49:49.000Z</time>
      </trkpt>
      <trkpt lat="44.06202" lon="6.85179">
        <ele>783</ele>
        <time>2020-06-05T11:49:50.000Z</time>
      </trkpt>
      <trkpt lat="44.06202" lon="6.8518">
        <ele>783</ele>
        <time>2020-06-05T11:49:51.000Z</time>
      </trkpt>
      <trkpt lat="44.06202" lon="6.85182">
        <ele>783</ele>
        <time>2020-06-05T11:49:52.000Z</time>
      </trkpt>
      <trkpt lat="44.06203" lon="6.85183">
        <ele>783</ele>
        <time>2020-06-05T11:49:53.000Z</time>
      </trkpt>
      <trkpt lat="44.06203" lon="6.85185">
        <ele>783</ele>
        <time>2020-06-05T11:49:54.000Z</time>
      </trkpt>
      <trkpt lat="44.06203" lon="6.85186">
        <ele>784</ele>
        <time>2020-06-05T11:49:55.000Z</time>
      </trkpt>
      <trkpt lat="44.06203" lon="6.85188">
        <ele>784</ele>
        <time>2020-06-05T11:49:56.000Z</time>
      </trkpt>
      <trkpt lat="44.06203" lon="6.8519">
        <ele>784</ele>
        <time>2020-06-05T11:49:57.000Z</time>
      </trkpt>
      <trkpt lat="44.06203" lon="6.85191">
        <ele>784</ele>
        <time>2020-06-05T11:49:58.000Z</time>
      </trkpt>
      <trkpt lat="44.06203" lon="6.85192">
        <ele>784</ele>
        <time>2020-06-05T11:49:59.000Z</time>
      </trkpt>
      <trkpt lat="44.06203" lon="6.85194">
        <ele>784</ele>
        <time>2020-06-05T11:50:00.000Z</time>
      </trkpt>
      <trkpt lat="44.06203" lon="6.85195">
        <ele>784</ele>
        <time>2020-06-05T11:50:01.000Z</time>
      </trkpt>
      <trkpt lat="44.06203" lon="6.85197">
        <ele>784</ele>
        <time>2020-06-05T11:50:02.000Z</time>
      </trkpt>
      <trkpt lat="44.06203" lon="6.85198">
        <ele>784</ele>
        <time>2020-06-05T11:50:03.000Z</time>
      </trkpt>
      <trkpt lat="44.06203" lon="6.852">
        <ele>784</ele>
        <time>2020-06-05T11:50:04.000Z</time>
      </trkpt>
      <trkpt lat="44.06203" lon="6.85202">
        <ele>784</ele>
        <time>2020-06-05T11:50:05.000Z</time>
      </trkpt>
      <trkpt lat="44.06203" lon="6.85203">
        <ele>784</ele>
        <time>2020-06-05T11:50:06.000Z</time>
      </trkpt>
      <trkpt lat="44.06203" lon="6.85205">
        <ele>784</ele>
        <time>2020-06-05T11:50:07.000Z</time>
      </trkpt>
      <trkpt lat="44.06203" lon="6.85207">
        <ele>784</ele>
        <time>2020-06-05T11:50:08.000Z</time>
      </trkpt>
      <trkpt lat="44.06203" lon="6.85209">
        <ele>784</ele>
        <time>2020-06-05T11:50:09.000Z</time>
      </trkpt>
      <trkpt lat="44.06202" lon="6.85211">
        <ele>784</ele>
        <time>2020-06-05T11:50:10.000Z</time>
      </trkpt>
      <trkpt lat="44.06202" lon="6.85213">
        <ele>784</ele>
        <time>2020-06-05T11:50:11.000Z</time>
      </trkpt>
      <trkpt lat="44.06202" lon="6.85215">
        <ele>784</ele>
        <time>2020-06-05T11:50:12.000Z</time>
      </trkpt>
      <trkpt lat="44.06203" lon="6.85217">
        <ele>784</ele>
        <time>2020-06-05T11:50:13.000Z</time>
      </trkpt>
      <trkpt lat="44.06203" lon="6.85219">
        <ele>784</ele>
        <time>2020-06-05T11:50:14.000Z</time>
      </trkpt>
      <trkpt lat="44.06203" lon="6.8522">
        <ele>784</ele>
        <time>2020-06-05T11:50:15.000Z</time>
      </trkpt>
      <trkpt lat="44.06203" lon="6.85222">
        <ele>784</ele>
        <time>2020-06-05T11:50:16.000Z</time>
      </trkpt>
      <trkpt lat="44.06203" lon="6.85224">
        <ele>784</ele>
        <time>2020-06-05T11:50:17.000Z</time>
      </trkpt>
      <trkpt lat="44.06204" lon="6.85226">
        <ele>784</ele>
        <time>2020-06-05T11:50:18.000Z</time>
      </trkpt>
      <trkpt lat="44.06204" lon="6.85227">
        <ele>784</ele>
        <time>2020-06-05T11:50:19.000Z</time>
      </trkpt>
      <trkpt lat="44.06204" lon="6.85229">
        <ele>784</ele>
        <time>2020-06-05T11:50:20.000Z</time>
      </trkpt>
      <trkpt lat="44.06205" lon="6.85231">
        <ele>784</ele>
        <time>2020-06-05T11:50:21.000Z</time>
      </trkpt>
      <trkpt lat="44.06205" lon="6.85232">
        <ele>784</ele>
        <time>2020-06-05T11:50:22.000Z</time>
      </trkpt>
      <trkpt lat="44.06205" lon="6.85234">
        <ele>784</ele>
        <time>2020-06-05T11:50:23.000Z</time>
      </trkpt>
      <trkpt lat="44.06205" lon="6.85236">
        <ele>784</ele>
        <time>2020-06-05T11:50:24.000Z</time>
      </trkpt>
      <trkpt lat="44.06206" lon="6.85237">
        <ele>785</ele>
        <time>2020-06-05T11:50:25.000Z</time>
      </trkpt>
      <trkpt lat="44.06206" lon="6.85239">
        <ele>785</ele>
        <time>2020-06-05T11:50:26.000Z</time>
      </trkpt>
      <trkpt lat="44.06206" lon="6.85241">
        <ele>785</ele>
        <time>2020-06-05T11:50:27.000Z</time>
      </trkpt>
      <trkpt lat="44.06206" lon="6.85242">
        <ele>785</ele>
        <time>2020-06-05T11:50:28.000Z</time>
      </trkpt>
      <trkpt lat="44.06207" lon="6.85243">
        <ele>785</ele>
        <time>2020-06-05T11:50:29.000Z</time>
      </trkpt>
      <trkpt lat="44.06207" lon="6.85245">
        <ele>785</ele>
        <time>2020-06-05T11:50:30.000Z</time>
      </trkpt>
      <trkpt lat="44.06208" lon="6.85246">
        <ele>785</ele>
        <time>2020-06-05T11:50:31.000Z</time>
      </trkpt>
      <trkpt lat="44.06209" lon="6.85248">
        <ele>785</ele>
        <time>2020-06-05T11:50:32.000Z</time>
      </trkpt>
      <trkpt lat="44.06209" lon="6.8525">
        <ele>785</ele>
        <time>2020-06-05T11:50:33.000Z</time>
      </trkpt>
      <trkpt lat="44.0621" lon="6.85251">
        <ele>785</ele>
        <time>2020-06-05T11:50:34.000Z</time>
      </trkpt>
      <trkpt lat="44.0621" lon="6.85253">
        <ele>785</ele>
        <time>2020-06-05T11:50:35.000Z</time>
      </trkpt>
      <trkpt lat="44.06211" lon="6.85254">
        <ele>785</ele>
        <time>2020-06-05T11:50:36.000Z</time>
      </trkpt>
      <trkpt lat="44.06211" lon="6.85256">
        <ele>785</ele>
        <time>2020-06-05T11:50:37.000Z</time>
      </trkpt>
      <trkpt lat="44.06211" lon="6.85257">
        <ele>785</ele>
        <time>2020-06-05T11:50:38.000Z</time>
      </trkpt>
      <trkpt lat="44.06211" lon="6.85259">
        <ele>785</ele>
        <time>2020-06-05T11:50:39.000Z</time>
      </trkpt>
      <trkpt lat="44.06212" lon="6.8526">
        <ele>785</ele>
        <time>2020-06-05T11:50:40.000Z</time>
      </trkpt>
      <trkpt lat="44.06212" lon="6.85262">
        <ele>785</ele>
        <time>2020-06-05T11:50:41.000Z</time>
      </trkpt>
      <trkpt lat="44.06212" lon="6.85264">
        <ele>785</ele>
        <time>2020-06-05T11:50:42.000Z</time>
      </trkpt>
      <trkpt lat="44.06213" lon="6.85265">
        <ele>785</ele>
        <time>2020-06-05T11:50:43.000Z</time>
      </trkpt>
      <trkpt lat="44.06213" lon="6.85267">
        <ele>785</ele>
        <time>2020-06-05T11:50:44.000Z</time>
      </trkpt>
      <trkpt lat="44.06213" lon="6.85268">
        <ele>785</ele>
        <time>2020-06-05T11:50:45.000Z</time>
      </trkpt>
      <trkpt lat="44.06213" lon="6.8527">
        <ele>785</ele>
        <time>2020-06-05T11:50:46.000Z</time>
      </trkpt>
      <trkpt lat="44.06214" lon="6.85271">
        <ele>785</ele>
        <time>2020-06-05T11:50:47.000Z</time>
      </trkpt>
      <trkpt lat="44.06214" lon="6.85273">
        <ele>785</ele>
        <time>2020-06-05T11:50:48.000Z</time>
      </trkpt>
      <trkpt lat="44.06214" lon="6.85274">
        <ele>784</ele>
        <time>2020-06-05T11:50:49.000Z</time>
      </trkpt>
      <trkpt lat="44.06214" lon="6.85275">
        <ele>784</ele>
        <time>2020-06-05T11:50:50.000Z</time>
      </trkpt>
      <trkpt lat="44.06214" lon="6.85277">
        <ele>784</ele>
        <time>2020-06-05T11:50:51.000Z</time>
      </trkpt>
      <trkpt lat="44.06215" lon="6.85279">
        <ele>784</ele>
        <time>2020-06-05T11:50:52.000Z</time>
      </trkpt>
      <trkpt lat="44.06215" lon="6.8528">
        <ele>784</ele>
        <time>2020-06-05T11:50:53.000Z</time>
      </trkpt>
      <trkpt lat="44.06215" lon="6.85282">
        <ele>784</ele>
        <time>2020-06-05T11:50:54.000Z</time>
      </trkpt>
      <trkpt lat="44.06215" lon="6.85283">
        <ele>784</ele>
        <time>2020-06-05T11:50:55.000Z</time>
      </trkpt>
      <trkpt lat="44.06216" lon="6.85285">
        <ele>784</ele>
        <time>2020-06-05T11:50:56.000Z</time>
      </trkpt>
      <trkpt lat="44.06216" lon="6.85286">
        <ele>784</ele>
        <time>2020-06-05T11:50:57.000Z</time>
      </trkpt>
      <trkpt lat="44.06217" lon="6.85288">
        <ele>784</ele>
        <time>2020-06-05T11:50:58.000Z</time>
      </trkpt>
      <trkpt lat="44.06217" lon="6.85289">
        <ele>784</ele>
        <time>2020-06-05T11:50:59.000Z</time>
      </trkpt>
      <trkpt lat="44.06218" lon="6.85291">
        <ele>784</ele>
        <time>2020-06-05T11:51:00.000Z</time>
      </trkpt>
      <trkpt lat="44.06218" lon="6.85292">
        <ele>784</ele>
        <time>2020-06-05T11:51:01.000Z</time>
      </trkpt>
      <trkpt lat="44.06218" lon="6.85294">
        <ele>784</ele>
        <time>2020-06-05T11:51:02.000Z</time>
      </trkpt>
      <trkpt lat="44.06219" lon="6.85295">
        <ele>784</ele>
        <time>2020-06-05T11:51:03.000Z</time>
      </trkpt>
      <trkpt lat="44.06219" lon="6.85297">
        <ele>784</ele>
        <time>2020-06-05T11:51:04.000Z</time>
      </trkpt>
      <trkpt lat="44.06219" lon="6.85298">
        <ele>784</ele>
        <time>2020-06-05T11:51:05.000Z</time>
      </trkpt>
      <trkpt lat="44.06219" lon="6.85299">
        <ele>784</ele>
        <time>2020-06-05T11:51:06.000Z</time>
      </trkpt>
      <trkpt lat="44.06219" lon="6.85301">
        <ele>784</ele>
        <time>2020-06-05T11:51:07.000Z</time>
      </trkpt>
      <trkpt lat="44.0622" lon="6.85303">
        <ele>784</ele>
        <time>2020-06-05T11:51:08.000Z</time>
      </trkpt>
      <trkpt lat="44.0622" lon="6.85304">
        <ele>784</ele>
        <time>2020-06-05T11:51:09.000Z</time>
      </trkpt>
      <trkpt lat="44.0622" lon="6.85306">
        <ele>785</ele>
        <time>2020-06-05T11:51:10.000Z</time>
      </trkpt>
      <trkpt lat="44.0622" lon="6.85307">
        <ele>785</ele>
        <time>2020-06-05T11:51:11.000Z</time>
      </trkpt>
      <trkpt lat="44.0622" lon="6.85309">
        <ele>785</ele>
        <time>2020-06-05T11:51:12.000Z</time>
      </trkpt>
      <trkpt lat="44.06221" lon="6.85311">
        <ele>785</ele>
        <time>2020-06-05T11:51:13.000Z</time>
      </trkpt>
      <trkpt lat="44.06221" lon="6.85312">
        <ele>785</ele>
        <time>2020-06-05T11:51:14.000Z</time>
      </trkpt>
      <trkpt lat="44.06221" lon="6.85314">
        <ele>785</ele>
        <time>2020-06-05T11:51:15.000Z</time>
      </trkpt>
      <trkpt lat="44.06221" lon="6.85316">
        <ele>785</ele>
        <time>2020-06-05T11:51:16.000Z</time>
      </trkpt>
      <trkpt lat="44.06221" lon="6.85317">
        <ele>785</ele>
        <time>2020-06-05T11:51:17.000Z</time>
      </trkpt>
      <trkpt lat="44.06221" lon="6.85319">
        <ele>785</ele>
        <time>2020-06-05T11:51:18.000Z</time>
      </trkpt>
      <trkpt lat="44.06221" lon="6.85321">
        <ele>785</ele>
        <time>2020-06-05T11:51:19.000Z</time>
      </trkpt>
      <trkpt lat="44.0622" lon="6.85322">
        <ele>785</ele>
        <time>2020-06-05T11:51:20.000Z</time>
      </trkpt>
      <trkpt lat="44.0622" lon="6.85324">
        <ele>785</ele>
        <time>2020-06-05T11:51:21.000Z</time>
      </trkpt>
      <trkpt lat="44.0622" lon="6.85326">
        <ele>785</ele>
        <time>2020-06-05T11:51:22.000Z</time>
      </trkpt>
      <trkpt lat="44.0622" lon="6.85327">
        <ele>785</ele>
        <time>2020-06-05T11:51:23.000Z</time>
      </trkpt>
      <trkpt lat="44.06219" lon="6.85329">
        <ele>785</ele>
        <time>2020-06-05T11:51:24.000Z</time>
      </trkpt>
      <trkpt lat="44.06219" lon="6.8533">
        <ele>785</ele>
        <time>2020-06-05T11:51:25.000Z</time>
      </trkpt>
      <trkpt lat="44.06219" lon="6.85332">
        <ele>785</ele>
        <time>2020-06-05T11:51:26.000Z</time>
      </trkpt>
      <trkpt lat="44.06218" lon="6.85333">
        <ele>785</ele>
        <time>2020-06-05T11:51:27.000Z</time>
      </trkpt>
      <trkpt lat="44.06218" lon="6.85335">
        <ele>785</ele>
        <time>2020-06-05T11:51:28.000Z</time>
      </trkpt>
      <trkpt lat="44.06217" lon="6.85336">
        <ele>786</ele>
        <time>2020-06-05T11:51:29.000Z</time>
      </trkpt>
      <trkpt lat="44.06217" lon="6.85338">
        <ele>786</ele>
        <time>2020-06-05T11:51:30.000Z</time>
      </trkpt>
      <trkpt lat="44.06216" lon="6.85339">
        <ele>786</ele>
        <time>2020-06-05T11:51:31.000Z</time>
      </trkpt>
      <trkpt lat="44.06215" lon="6.85341">
        <ele>786</ele>
        <time>2020-06-05T11:51:32.000Z</time>
      </trkpt>
      <trkpt lat="44.06215" lon="6.85342">
        <ele>786</ele>
        <time>2020-06-05T11:51:33.000Z</time>
      </trkpt>
      <trkpt lat="44.06214" lon="6.85344">
        <ele>786</ele>
        <time>2020-06-05T11:51:34.000Z</time>
      </trkpt>
      <trkpt lat="44.06213" lon="6.85345">
        <ele>786</ele>
        <time>2020-06-05T11:51:35.000Z</time>
      </trkpt>
      <trkpt lat="44.06213" lon="6.85346">
        <ele>786</ele>
        <time>2020-06-05T11:51:36.000Z</time>
      </trkpt>
      <trkpt lat="44.06212" lon="6.85347">
        <ele>786</ele>
        <time>2020-06-05T11:51:37.000Z</time>
      </trkpt>
      <trkpt lat="44.06211" lon="6.85348">
        <ele>786</ele>
        <time>2020-06-05T11:51:38.000Z</time>
      </trkpt>
      <trkpt lat="44.06211" lon="6.85348">
        <ele>786</ele>
        <time>2020-06-05T11:51:39.000Z</time>
      </trkpt>
      <trkpt lat="44.06211" lon="6.85348">
        <ele>787</ele>
        <time>2020-06-05T11:51:40.000Z</time>
      </trkpt>
      <trkpt lat="44.06211" lon="6.85349">
        <ele>787</ele>
        <time>2020-06-05T11:51:41.000Z</time>
      </trkpt>
      <trkpt lat="44.06211" lon="6.85349">
        <ele>787</ele>
        <time>2020-06-05T11:51:42.000Z</time>
      </trkpt>
      <trkpt lat="44.06211" lon="6.85349">
        <ele>787</ele>
        <time>2020-06-05T11:51:43.000Z</time>
      </trkpt>
      <trkpt lat="44.06211" lon="6.85349">
        <ele>787</ele>
        <time>2020-06-05T11:51:44.000Z</time>
      </trkpt>
      <trkpt lat="44.06211" lon="6.85349">
        <ele>787</ele>
        <time>2020-06-05T11:51:45.000Z</time>
      </trkpt>
      <trkpt lat="44.06211" lon="6.85349">
        <ele>787</ele>
        <time>2020-06-05T11:51:46.000Z</time>
      </trkpt>
      <trkpt lat="44.06211" lon="6.85349">
        <ele>787</ele>
        <time>2020-06-05T11:51:47.000Z</time>
      </trkpt>
      <trkpt lat="44.06211" lon="6.85348">
        <ele>787</ele>
        <time>2020-06-05T11:51:48.000Z</time>
      </trkpt>
      <trkpt lat="44.06211" lon="6.85348">
        <ele>787</ele>
        <time>2020-06-05T11:51:49.000Z</time>
      </trkpt>
      <trkpt lat="44.06211" lon="6.85348">
        <ele>787</ele>
        <time>2020-06-05T11:51:50.000Z</time>
      </trkpt>
      <trkpt lat="44.06211" lon="6.85348">
        <ele>787</ele>
        <time>2020-06-05T11:51:51.000Z</time>
      </trkpt>
      <trkpt lat="44.0621" lon="6.85348">
        <ele>787</ele>
        <time>2020-06-05T11:51:52.000Z</time>
      </trkpt>
      <trkpt lat="44.0621" lon="6.85348">
        <ele>787</ele>
        <time>2020-06-05T11:51:53.000Z</time>
      </trkpt>
      <trkpt lat="44.0621" lon="6.85348">
        <ele>787</ele>
        <time>2020-06-05T11:51:54.000Z</time>
      </trkpt>
      <trkpt lat="44.0621" lon="6.85348">
        <ele>787</ele>
        <time>2020-06-05T11:51:55.000Z</time>
      </trkpt>
      <trkpt lat="44.0621" lon="6.85348">
        <ele>787</ele>
        <time>2020-06-05T11:51:56.000Z</time>
      </trkpt>
      <trkpt lat="44.0621" lon="6.85348">
        <ele>787</ele>
        <time>2020-06-05T11:51:57.000Z</time>
      </trkpt>
      <trkpt lat="44.0621" lon="6.85348">
        <ele>787</ele>
        <time>2020-06-05T11:51:58.000Z</time>
      </trkpt>
      <trkpt lat="44.0621" lon="6.85348">
        <ele>787</ele>
        <time>2020-06-05T11:51:59.000Z</time>
      </trkpt>
      <trkpt lat="44.0621" lon="6.85348">
        <ele>787</ele>
        <time>2020-06-05T11:52:00.000Z</time>
      </trkpt>
      <trkpt lat="44.0621" lon="6.85348">
        <ele>787</ele>
        <time>2020-06-05T11:52:01.000Z</time>
      </trkpt>
      <trkpt lat="44.0621" lon="6.85348">
        <ele>787</ele>
        <time>2020-06-05T11:52:02.000Z</time>
      </trkpt>
      <trkpt lat="44.0621" lon="6.85348">
        <ele>787</ele>
        <time>2020-06-05T11:52:03.000Z</time>
      </trkpt>
      <trkpt lat="44.0621" lon="6.85348">
        <ele>787</ele>
        <time>2020-06-05T11:52:04.000Z</time>
      </trkpt>
      <trkpt lat="44.0621" lon="6.85348">
        <ele>787</ele>
        <time>2020-06-05T11:52:05.000Z</time>
      </trkpt>
      <trkpt lat="44.0621" lon="6.85348">
        <ele>787</ele>
        <time>2020-06-05T11:52:06.000Z</time>
      </trkpt>
      <trkpt lat="44.0621" lon="6.85348">
        <ele>787</ele>
        <time>2020-06-05T11:52:07.000Z</time>
      </trkpt>
      <trkpt lat="44.0621" lon="6.85348">
        <ele>787</ele>
        <time>2020-06-05T11:52:08.000Z</time>
      </trkpt>
      <trkpt lat="44.0621" lon="6.85348">
        <ele>787</ele>
        <time>2020-06-05T11:52:09.000Z</time>
      </trkpt>
      <trkpt lat="44.0621" lon="6.85348">
        <ele>787</ele>
        <time>2020-06-05T11:52:10.000Z</time>
      </trkpt>
      <trkpt lat="44.0621" lon="6.85348">
        <ele>787</ele>
        <time>2020-06-05T11:52:11.000Z</time>
      </trkpt>
      <trkpt lat="44.0621" lon="6.85348">
        <ele>787</ele>
        <time>2020-06-05T11:52:12.000Z</time>
      </trkpt>
      <trkpt lat="44.0621" lon="6.85348">
        <ele>787</ele>
        <time>2020-06-05T11:52:13.000Z</time>
      </trkpt>
      <trkpt lat="44.0621" lon="6.85348">
        <ele>787</ele>
        <time>2020-06-05T11:52:14.000Z</time>
      </trkpt>
      <trkpt lat="44.0621" lon="6.85348">
        <ele>787</ele>
        <time>2020-06-05T11:52:15.000Z</time>
      </trkpt>
      <trkpt lat="44.0621" lon="6.85348">
        <ele>787</ele>
        <time>2020-06-05T11:52:16.000Z</time>
      </trkpt>
      <trkpt lat="44.0621" lon="6.85348">
        <ele>787</ele>
        <time>2020-06-05T11:52:17.000Z</time>
      </trkpt>
      <trkpt lat="44.0621" lon="6.85348">
        <ele>787</ele>
        <time>2020-06-05T11:52:18.000Z</time>
      </trkpt>
      <trkpt lat="44.0621" lon="6.85348">
        <ele>787</ele>
        <time>2020-06-05T11:52:19.000Z</time>
      </trkpt>
      <trkpt lat="44.0621" lon="6.85348">
        <ele>787</ele>
        <time>2020-06-05T11:52:20.000Z</time>
      </trkpt>
      <trkpt lat="44.0621" lon="6.85348">
        <ele>787</ele>
        <time>2020-06-05T11:52:21.000Z</time>
      </trkpt>
      <trkpt lat="44.0621" lon="6.85348">
        <ele>787</ele>
        <time>2020-06-05T11:52:22.000Z</time>
      </trkpt>
      <trkpt lat="44.0621" lon="6.85348">
        <ele>787</ele>
        <time>2020-06-05T11:52:23.000Z</time>
      </trkpt>
      <trkpt lat="44.0621" lon="6.85348">
        <ele>787</ele>
        <time>2020-06-05T11:52:24.000Z</time>
      </trkpt>
      <trkpt lat="44.0621" lon="6.85348">
        <ele>787</ele>
        <time>2020-06-05T11:52:25.000Z</time>
      </trkpt>
      <trkpt lat="44.0621" lon="6.85348">
        <ele>787</ele>
        <time>2020-06-05T11:52:26.000Z</time>
      </trkpt>
      <trkpt lat="44.0621" lon="6.85348">
        <ele>787</ele>
        <time>2020-06-05T11:52:27.000Z</time>
      </trkpt>
      <trkpt lat="44.0621" lon="6.85348">
        <ele>787</ele>
        <time>2020-06-05T11:52:28.000Z</time>
      </trkpt>
      <trkpt lat="44.0621" lon="6.85348">
        <ele>787</ele>
        <time>2020-06-05T11:52:29.000Z</time>
      </trkpt>
      <trkpt lat="44.0621" lon="6.85348">
        <ele>787</ele>
        <time>2020-06-05T11:52:30.000Z</time>
      </trkpt>
      <trkpt lat="44.0621" lon="6.85348">
        <ele>787</ele>
        <time>2020-06-05T11:52:31.000Z</time>
      </trkpt>
      <trkpt lat="44.0621" lon="6.85347">
        <ele>787</ele>
        <time>2020-06-05T11:52:32.000Z</time>
      </trkpt>
      <trkpt lat="44.06209" lon="6.85347">
        <ele>787</ele>
        <time>2020-06-05T11:52:33.000Z</time>
      </trkpt>
      <trkpt lat="44.06209" lon="6.85347">
        <ele>787</ele>
        <time>2020-06-05T11:52:34.000Z</time>
      </trkpt>
      <trkpt lat="44.06209" lon="6.85347">
        <ele>787</ele>
        <time>2020-06-05T11:52:35.000Z</time>
      </trkpt>
      <trkpt lat="44.06209" lon="6.85347">
        <ele>787</ele>
        <time>2020-06-05T11:52:36.000Z</time>
      </trkpt>
      <trkpt lat="44.06208" lon="6.85348">
        <ele>787</ele>
        <time>2020-06-05T11:52:37.000Z</time>
      </trkpt>
      <trkpt lat="44.06208" lon="6.85348">
        <ele>787</ele>
        <time>2020-06-05T11:52:38.000Z</time>
      </trkpt>
      <trkpt lat="44.06208" lon="6.85348">
        <ele>787</ele>
        <time>2020-06-05T11:52:39.000Z</time>
      </trkpt>
      <trkpt lat="44.06208" lon="6.85348">
        <ele>787</ele>
        <time>2020-06-05T11:52:40.000Z</time>
      </trkpt>
      <trkpt lat="44.06208" lon="6.85347">
        <ele>787</ele>
        <time>2020-06-05T11:52:41.000Z</time>
      </trkpt>
      <trkpt lat="44.06208" lon="6.85347">
        <ele>787</ele>
        <time>2020-06-05T11:52:42.000Z</time>
      </trkpt>
      <trkpt lat="44.06208" lon="6.85348">
        <ele>787</ele>
        <time>2020-06-05T11:52:43.000Z</time>
      </trkpt>
      <trkpt lat="44.06208" lon="6.85347">
        <ele>787</ele>
        <time>2020-06-05T11:52:44.000Z</time>
      </trkpt>
      <trkpt lat="44.06208" lon="6.85347">
        <ele>787</ele>
        <time>2020-06-05T11:52:45.000Z</time>
      </trkpt>
      <trkpt lat="44.06207" lon="6.85347">
        <ele>788</ele>
        <time>2020-06-05T11:52:46.000Z</time>
      </trkpt>
      <trkpt lat="44.06207" lon="6.85348">
        <ele>788</ele>
        <time>2020-06-05T11:52:47.000Z</time>
      </trkpt>
      <trkpt lat="44.06207" lon="6.85348">
        <ele>788</ele>
        <time>2020-06-05T11:52:48.000Z</time>
      </trkpt>
      <trkpt lat="44.06206" lon="6.85349">
        <ele>788</ele>
        <time>2020-06-05T11:52:49.000Z</time>
      </trkpt>
      <trkpt lat="44.06206" lon="6.8535">
        <ele>788</ele>
        <time>2020-06-05T11:52:50.000Z</time>
      </trkpt>
      <trkpt lat="44.06206" lon="6.85351">
        <ele>788</ele>
        <time>2020-06-05T11:52:51.000Z</time>
      </trkpt>
      <trkpt lat="44.06205" lon="6.85351">
        <ele>788</ele>
        <time>2020-06-05T11:52:52.000Z</time>
      </trkpt>
      <trkpt lat="44.06205" lon="6.85352">
        <ele>788</ele>
        <time>2020-06-05T11:52:53.000Z</time>
      </trkpt>
      <trkpt lat="44.06204" lon="6.85353">
        <ele>788</ele>
        <time>2020-06-05T11:52:54.000Z</time>
      </trkpt>
      <trkpt lat="44.06204" lon="6.85353">
        <ele>788</ele>
        <time>2020-06-05T11:52:55.000Z</time>
      </trkpt>
      <trkpt lat="44.06203" lon="6.85354">
        <ele>788</ele>
        <time>2020-06-05T11:52:56.000Z</time>
      </trkpt>
      <trkpt lat="44.06202" lon="6.85354">
        <ele>788</ele>
        <time>2020-06-05T11:52:57.000Z</time>
      </trkpt>
      <trkpt lat="44.06202" lon="6.85354">
        <ele>788</ele>
        <time>2020-06-05T11:52:58.000Z</time>
      </trkpt>
      <trkpt lat="44.06201" lon="6.85355">
        <ele>788</ele>
        <time>2020-06-05T11:52:59.000Z</time>
      </trkpt>
      <trkpt lat="44.06201" lon="6.85355">
        <ele>788</ele>
        <time>2020-06-05T11:53:00.000Z</time>
      </trkpt>
      <trkpt lat="44.06201" lon="6.85356">
        <ele>788</ele>
        <time>2020-06-05T11:53:01.000Z</time>
      </trkpt>
      <trkpt lat="44.06201" lon="6.85357">
        <ele>788</ele>
        <time>2020-06-05T11:53:02.000Z</time>
      </trkpt>
      <trkpt lat="44.06201" lon="6.85358">
        <ele>788</ele>
        <time>2020-06-05T11:53:03.000Z</time>
      </trkpt>
      <trkpt lat="44.062" lon="6.85359">
        <ele>788</ele>
        <time>2020-06-05T11:53:04.000Z</time>
      </trkpt>
      <trkpt lat="44.062" lon="6.85359">
        <ele>788</ele>
        <time>2020-06-05T11:53:05.000Z</time>
      </trkpt>
      <trkpt lat="44.06201" lon="6.85359">
        <ele>788</ele>
        <time>2020-06-05T11:53:06.000Z</time>
      </trkpt>
      <trkpt lat="44.06201" lon="6.85359">
        <ele>788</ele>
        <time>2020-06-05T11:53:07.000Z</time>
      </trkpt>
      <trkpt lat="44.062" lon="6.85359">
        <ele>789</ele>
        <time>2020-06-05T11:53:08.000Z</time>
      </trkpt>
      <trkpt lat="44.062" lon="6.8536">
        <ele>789</ele>
        <time>2020-06-05T11:53:09.000Z</time>
      </trkpt>
      <trkpt lat="44.062" lon="6.85361">
        <ele>789</ele>
        <time>2020-06-05T11:53:10.000Z</time>
      </trkpt>
      <trkpt lat="44.06199" lon="6.85361">
        <ele>789</ele>
        <time>2020-06-05T11:53:11.000Z</time>
      </trkpt>
      <trkpt lat="44.06198" lon="6.85362">
        <ele>789</ele>
        <time>2020-06-05T11:53:12.000Z</time>
      </trkpt>
      <trkpt lat="44.06197" lon="6.85362">
        <ele>789</ele>
        <time>2020-06-05T11:53:13.000Z</time>
      </trkpt>
      <trkpt lat="44.06196" lon="6.85363">
        <ele>789</ele>
        <time>2020-06-05T11:53:14.000Z</time>
      </trkpt>
      <trkpt lat="44.06195" lon="6.85364">
        <ele>789</ele>
        <time>2020-06-05T11:53:15.000Z</time>
      </trkpt>
      <trkpt lat="44.06194" lon="6.85365">
        <ele>789</ele>
        <time>2020-06-05T11:53:16.000Z</time>
      </trkpt>
      <trkpt lat="44.06194" lon="6.85365">
        <ele>789</ele>
        <time>2020-06-05T11:53:17.000Z</time>
      </trkpt>
      <trkpt lat="44.06193" lon="6.85366">
        <ele>789</ele>
        <time>2020-06-05T11:53:18.000Z</time>
      </trkpt>
      <trkpt lat="44.06192" lon="6.85367">
        <ele>790</ele>
        <time>2020-06-05T11:53:19.000Z</time>
      </trkpt>
      <trkpt lat="44.06191" lon="6.85368">
        <ele>790</ele>
        <time>2020-06-05T11:53:20.000Z</time>
      </trkpt>
      <trkpt lat="44.0619" lon="6.85368">
        <ele>790</ele>
        <time>2020-06-05T11:53:21.000Z</time>
      </trkpt>
      <trkpt lat="44.06189" lon="6.85368">
        <ele>790</ele>
        <time>2020-06-05T11:53:22.000Z</time>
      </trkpt>
      <trkpt lat="44.06188" lon="6.85368">
        <ele>790</ele>
        <time>2020-06-05T11:53:23.000Z</time>
      </trkpt>
      <trkpt lat="44.06188" lon="6.85369">
        <ele>790</ele>
        <time>2020-06-05T11:53:24.000Z</time>
      </trkpt>
      <trkpt lat="44.06187" lon="6.85369">
        <ele>790</ele>
        <time>2020-06-05T11:53:25.000Z</time>
      </trkpt>
      <trkpt lat="44.06186" lon="6.8537">
        <ele>790</ele>
        <time>2020-06-05T11:53:26.000Z</time>
      </trkpt>
      <trkpt lat="44.06185" lon="6.8537">
        <ele>790</ele>
        <time>2020-06-05T11:53:27.000Z</time>
      </trkpt>
      <trkpt lat="44.06184" lon="6.85371">
        <ele>790</ele>
        <time>2020-06-05T11:53:28.000Z</time>
      </trkpt>
      <trkpt lat="44.06183" lon="6.85371">
        <ele>790</ele>
        <time>2020-06-05T11:53:29.000Z</time>
      </trkpt>
      <trkpt lat="44.06181" lon="6.85372">
        <ele>790</ele>
        <time>2020-06-05T11:53:30.000Z</time>
      </trkpt>
      <trkpt lat="44.0618" lon="6.85372">
        <ele>791</ele>
        <time>2020-06-05T11:53:31.000Z</time>
      </trkpt>
      <trkpt lat="44.06179" lon="6.85373">
        <ele>791</ele>
        <time>2020-06-05T11:53:32.000Z</time>
      </trkpt>
      <trkpt lat="44.06178" lon="6.85373">
        <ele>791</ele>
        <time>2020-06-05T11:53:33.000Z</time>
      </trkpt>
      <trkpt lat="44.06177" lon="6.85374">
        <ele>791</ele>
        <time>2020-06-05T11:53:34.000Z</time>
      </trkpt>
      <trkpt lat="44.06176" lon="6.85375">
        <ele>791</ele>
        <time>2020-06-05T11:53:35.000Z</time>
      </trkpt>
      <trkpt lat="44.06175" lon="6.85375">
        <ele>791</ele>
        <time>2020-06-05T11:53:36.000Z</time>
      </trkpt>
      <trkpt lat="44.06173" lon="6.85376">
        <ele>791</ele>
        <time>2020-06-05T11:53:37.000Z</time>
      </trkpt>
      <trkpt lat="44.06172" lon="6.85377">
        <ele>792</ele>
        <time>2020-06-05T11:53:38.000Z</time>
      </trkpt>
      <trkpt lat="44.06171" lon="6.85378">
        <ele>792</ele>
        <time>2020-06-05T11:53:39.000Z</time>
      </trkpt>
      <trkpt lat="44.0617" lon="6.85379">
        <ele>792</ele>
        <time>2020-06-05T11:53:40.000Z</time>
      </trkpt>
      <trkpt lat="44.06169" lon="6.8538">
        <ele>792</ele>
        <time>2020-06-05T11:53:41.000Z</time>
      </trkpt>
      <trkpt lat="44.06168" lon="6.8538">
        <ele>792</ele>
        <time>2020-06-05T11:53:42.000Z</time>
      </trkpt>
      <trkpt lat="44.06167" lon="6.85381">
        <ele>792</ele>
        <time>2020-06-05T11:53:43.000Z</time>
      </trkpt>
      <trkpt lat="44.06166" lon="6.85382">
        <ele>792</ele>
        <time>2020-06-05T11:53:44.000Z</time>
      </trkpt>
      <trkpt lat="44.06165" lon="6.85383">
        <ele>792</ele>
        <time>2020-06-05T11:53:45.000Z</time>
      </trkpt>
      <trkpt lat="44.06164" lon="6.85384">
        <ele>793</ele>
        <time>2020-06-05T11:53:46.000Z</time>
      </trkpt>
      <trkpt lat="44.06163" lon="6.85385">
        <ele>793</ele>
        <time>2020-06-05T11:53:47.000Z</time>
      </trkpt>
      <trkpt lat="44.06162" lon="6.85386">
        <ele>793</ele>
        <time>2020-06-05T11:53:48.000Z</time>
      </trkpt>
      <trkpt lat="44.0616" lon="6.85386">
        <ele>793</ele>
        <time>2020-06-05T11:53:49.000Z</time>
      </trkpt>
      <trkpt lat="44.06159" lon="6.85387">
        <ele>793</ele>
        <time>2020-06-05T11:53:50.000Z</time>
      </trkpt>
      <trkpt lat="44.06159" lon="6.85388">
        <ele>793</ele>
        <time>2020-06-05T11:53:51.000Z</time>
      </trkpt>
      <trkpt lat="44.06158" lon="6.85389">
        <ele>793</ele>
        <time>2020-06-05T11:53:52.000Z</time>
      </trkpt>
      <trkpt lat="44.06157" lon="6.8539">
        <ele>793</ele>
        <time>2020-06-05T11:53:53.000Z</time>
      </trkpt>
      <trkpt lat="44.06156" lon="6.85391">
        <ele>793</ele>
        <time>2020-06-05T11:53:54.000Z</time>
      </trkpt>
      <trkpt lat="44.06155" lon="6.85391">
        <ele>793</ele>
        <time>2020-06-05T11:53:55.000Z</time>
      </trkpt>
      <trkpt lat="44.06155" lon="6.85392">
        <ele>793</ele>
        <time>2020-06-05T11:53:56.000Z</time>
      </trkpt>
      <trkpt lat="44.06154" lon="6.85393">
        <ele>793</ele>
        <time>2020-06-05T11:53:57.000Z</time>
      </trkpt>
      <trkpt lat="44.06154" lon="6.85394">
        <ele>793</ele>
        <time>2020-06-05T11:53:58.000Z</time>
      </trkpt>
      <trkpt lat="44.06153" lon="6.85395">
        <ele>793</ele>
        <time>2020-06-05T11:53:59.000Z</time>
      </trkpt>
      <trkpt lat="44.06153" lon="6.85395">
        <ele>793</ele>
        <time>2020-06-05T11:54:00.000Z</time>
      </trkpt>
      <trkpt lat="44.06153" lon="6.85396">
        <ele>793</ele>
        <time>2020-06-05T11:54:01.000Z</time>
      </trkpt>
      <trkpt lat="44.06153" lon="6.85397">
        <ele>793</ele>
        <time>2020-06-05T11:54:02.000Z</time>
      </trkpt>
      <trkpt lat="44.06153" lon="6.85398">
        <ele>794</ele>
        <time>2020-06-05T11:54:03.000Z</time>
      </trkpt>
      <trkpt lat="44.06153" lon="6.85398">
        <ele>794</ele>
        <time>2020-06-05T11:54:04.000Z</time>
      </trkpt>
      <trkpt lat="44.06152" lon="6.85399">
        <ele>794</ele>
        <time>2020-06-05T11:54:05.000Z</time>
      </trkpt>
      <trkpt lat="44.06151" lon="6.85399">
        <ele>794</ele>
        <time>2020-06-05T11:54:06.000Z</time>
      </trkpt>
      <trkpt lat="44.0615" lon="6.85399">
        <ele>794</ele>
        <time>2020-06-05T11:54:07.000Z</time>
      </trkpt>
      <trkpt lat="44.06149" lon="6.854">
        <ele>794</ele>
        <time>2020-06-05T11:54:08.000Z</time>
      </trkpt>
      <trkpt lat="44.06148" lon="6.854">
        <ele>794</ele>
        <time>2020-06-05T11:54:09.000Z</time>
      </trkpt>
      <trkpt lat="44.06147" lon="6.85401">
        <ele>794</ele>
        <time>2020-06-05T11:54:10.000Z</time>
      </trkpt>
      <trkpt lat="44.06146" lon="6.85401">
        <ele>794</ele>
        <time>2020-06-05T11:54:11.000Z</time>
      </trkpt>
      <trkpt lat="44.06146" lon="6.85401">
        <ele>794</ele>
        <time>2020-06-05T11:54:13.000Z</time>
      </trkpt>
      <trkpt lat="44.06146" lon="6.85401">
        <ele>794</ele>
        <time>2020-06-05T11:54:14.000Z</time>
      </trkpt>
      <trkpt lat="44.06146" lon="6.85401">
        <ele>794</ele>
        <time>2020-06-05T11:54:16.000Z</time>
      </trkpt>
      <trkpt lat="44.06146" lon="6.85401">
        <ele>794</ele>
        <time>2020-06-05T11:54:17.000Z</time>
      </trkpt>
      <trkpt lat="44.06146" lon="6.85401">
        <ele>792</ele>
        <time>2020-06-05T11:54:25.000Z</time>
      </trkpt>
      <trkpt lat="44.06066" lon="6.85451">
        <ele>792</ele>
        <time>2020-06-05T11:54:26.000Z</time>
      </trkpt>
      <trkpt lat="44.06067" lon="6.8545">
        <ele>793</ele>
        <time>2020-06-05T11:54:27.000Z</time>
      </trkpt>
      <trkpt lat="44.06067" lon="6.8545">
        <ele>793</ele>
        <time>2020-06-05T11:54:28.000Z</time>
      </trkpt>
      <trkpt lat="44.06067" lon="6.85449">
        <ele>795</ele>
        <time>2020-06-05T11:54:29.000Z</time>
      </trkpt>
      <trkpt lat="44.06067" lon="6.85449">
        <ele>796</ele>
        <time>2020-06-05T11:54:30.000Z</time>
      </trkpt>
      <trkpt lat="44.06066" lon="6.85449">
        <ele>797</ele>
        <time>2020-06-05T11:54:31.000Z</time>
      </trkpt>
      <trkpt lat="44.06066" lon="6.85449">
        <ele>799</ele>
        <time>2020-06-05T11:54:32.000Z</time>
      </trkpt>
      <trkpt lat="44.06066" lon="6.85448">
        <ele>800</ele>
        <time>2020-06-05T11:54:33.000Z</time>
      </trkpt>
      <trkpt lat="44.06066" lon="6.85448">
        <ele>800</ele>
        <time>2020-06-05T11:54:34.000Z</time>
      </trkpt>
      <trkpt lat="44.06067" lon="6.85448">
        <ele>801</ele>
        <time>2020-06-05T11:54:35.000Z</time>
      </trkpt>
      <trkpt lat="44.06068" lon="6.85447">
        <ele>801</ele>
        <time>2020-06-05T11:54:36.000Z</time>
      </trkpt>
      <trkpt lat="44.06069" lon="6.85446">
        <ele>800</ele>
        <time>2020-06-05T11:54:37.000Z</time>
      </trkpt>
      <trkpt lat="44.0607" lon="6.85446">
        <ele>800</ele>
        <time>2020-06-05T11:54:38.000Z</time>
      </trkpt>
      <trkpt lat="44.06071" lon="6.85446">
        <ele>800</ele>
        <time>2020-06-05T11:54:39.000Z</time>
      </trkpt>
      <trkpt lat="44.06072" lon="6.85446">
        <ele>800</ele>
        <time>2020-06-05T11:54:40.000Z</time>
      </trkpt>
      <trkpt lat="44.06073" lon="6.85445">
        <ele>800</ele>
        <time>2020-06-05T11:54:41.000Z</time>
      </trkpt>
      <trkpt lat="44.06074" lon="6.85445">
        <ele>799</ele>
        <time>2020-06-05T11:54:42.000Z</time>
      </trkpt>
      <trkpt lat="44.06076" lon="6.85445">
        <ele>799</ele>
        <time>2020-06-05T11:54:43.000Z</time>
      </trkpt>
      <trkpt lat="44.06076" lon="6.85445">
        <ele>799</ele>
        <time>2020-06-05T11:54:44.000Z</time>
      </trkpt>
      <trkpt lat="44.06077" lon="6.85444">
        <ele>799</ele>
        <time>2020-06-05T11:54:45.000Z</time>
      </trkpt>
      <trkpt lat="44.06078" lon="6.85444">
        <ele>799</ele>
        <time>2020-06-05T11:54:46.000Z</time>
      </trkpt>
      <trkpt lat="44.06078" lon="6.85444">
        <ele>799</ele>
        <time>2020-06-05T11:54:47.000Z</time>
      </trkpt>
      <trkpt lat="44.06079" lon="6.85444">
        <ele>799</ele>
        <time>2020-06-05T11:54:48.000Z</time>
      </trkpt>
      <trkpt lat="44.0608" lon="6.85444">
        <ele>799</ele>
        <time>2020-06-05T11:54:49.000Z</time>
      </trkpt>
      <trkpt lat="44.0608" lon="6.85444">
        <ele>799</ele>
        <time>2020-06-05T11:54:50.000Z</time>
      </trkpt>
      <trkpt lat="44.06081" lon="6.85445">
        <ele>799</ele>
        <time>2020-06-05T11:54:51.000Z</time>
      </trkpt>
      <trkpt lat="44.06081" lon="6.85445">
        <ele>799</ele>
        <time>2020-06-05T11:54:52.000Z</time>
      </trkpt>
      <trkpt lat="44.06081" lon="6.85445">
        <ele>799</ele>
        <time>2020-06-05T11:54:53.000Z</time>
      </trkpt>
      <trkpt lat="44.0608" lon="6.85445">
        <ele>799</ele>
        <time>2020-06-05T11:54:54.000Z</time>
      </trkpt>
      <trkpt lat="44.0608" lon="6.85445">
        <ele>799</ele>
        <time>2020-06-05T11:54:55.000Z</time>
      </trkpt>
      <trkpt lat="44.06079" lon="6.85445">
        <ele>799</ele>
        <time>2020-06-05T11:54:56.000Z</time>
      </trkpt>
      <trkpt lat="44.06078" lon="6.85445">
        <ele>799</ele>
        <time>2020-06-05T11:54:57.000Z</time>
      </trkpt>
      <trkpt lat="44.06078" lon="6.85445">
        <ele>800</ele>
        <time>2020-06-05T11:54:58.000Z</time>
      </trkpt>
      <trkpt lat="44.06077" lon="6.85444">
        <ele>800</ele>
        <time>2020-06-05T11:54:59.000Z</time>
      </trkpt>
      <trkpt lat="44.06077" lon="6.85443">
        <ele>800</ele>
        <time>2020-06-05T11:55:00.000Z</time>
      </trkpt>
      <trkpt lat="44.06076" lon="6.85442">
        <ele>800</ele>
        <time>2020-06-05T11:55:01.000Z</time>
      </trkpt>
      <trkpt lat="44.06076" lon="6.85441">
        <ele>800</ele>
        <time>2020-06-05T11:55:02.000Z</time>
      </trkpt>
      <trkpt lat="44.06075" lon="6.85441">
        <ele>800</ele>
        <time>2020-06-05T11:55:03.000Z</time>
      </trkpt>
      <trkpt lat="44.06075" lon="6.85442">
        <ele>800</ele>
        <time>2020-06-05T11:55:04.000Z</time>
      </trkpt>
      <trkpt lat="44.06075" lon="6.85442">
        <ele>800</ele>
        <time>2020-06-05T11:55:05.000Z</time>
      </trkpt>
      <trkpt lat="44.06075" lon="6.85442">
        <ele>800</ele>
        <time>2020-06-05T11:55:06.000Z</time>
      </trkpt>
      <trkpt lat="44.06075" lon="6.85442">
        <ele>800</ele>
        <time>2020-06-05T11:55:07.000Z</time>
      </trkpt>
      <trkpt lat="44.06075" lon="6.85442">
        <ele>800</ele>
        <time>2020-06-05T11:55:08.000Z</time>
      </trkpt>
      <trkpt lat="44.06075" lon="6.85442">
        <ele>800</ele>
        <time>2020-06-05T11:55:09.000Z</time>
      </trkpt>
      <trkpt lat="44.06075" lon="6.85442">
        <ele>800</ele>
        <time>2020-06-05T11:55:10.000Z</time>
      </trkpt>
      <trkpt lat="44.06075" lon="6.85442">
        <ele>800</ele>
        <time>2020-06-05T11:55:11.000Z</time>
      </trkpt>
      <trkpt lat="44.06075" lon="6.85442">
        <ele>800</ele>
        <time>2020-06-05T11:55:12.000Z</time>
      </trkpt>
      <trkpt lat="44.06075" lon="6.85442">
        <ele>800</ele>
        <time>2020-06-05T11:55:13.000Z</time>
      </trkpt>
      <trkpt lat="44.06076" lon="6.85442">
        <ele>800</ele>
        <time>2020-06-05T11:55:14.000Z</time>
      </trkpt>
      <trkpt lat="44.06076" lon="6.85442">
        <ele>800</ele>
        <time>2020-06-05T11:55:15.000Z</time>
      </trkpt>
      <trkpt lat="44.06076" lon="6.85442">
        <ele>800</ele>
        <time>2020-06-05T11:55:16.000Z</time>
      </trkpt>
      <trkpt lat="44.06076" lon="6.85442">
        <ele>800</ele>
        <time>2020-06-05T11:55:17.000Z</time>
      </trkpt>
      <trkpt lat="44.06076" lon="6.85443">
        <ele>800</ele>
        <time>2020-06-05T11:55:18.000Z</time>
      </trkpt>
      <trkpt lat="44.06076" lon="6.85443">
        <ele>800</ele>
        <time>2020-06-05T11:55:19.000Z</time>
      </trkpt>
      <trkpt lat="44.06076" lon="6.85443">
        <ele>800</ele>
        <time>2020-06-05T11:55:20.000Z</time>
      </trkpt>
      <trkpt lat="44.06077" lon="6.85443">
        <ele>800</ele>
        <time>2020-06-05T11:55:21.000Z</time>
      </trkpt>
      <trkpt lat="44.06077" lon="6.85443">
        <ele>800</ele>
        <time>2020-06-05T11:55:22.000Z</time>
      </trkpt>
      <trkpt lat="44.06078" lon="6.85443">
        <ele>800</ele>
        <time>2020-06-05T11:55:23.000Z</time>
      </trkpt>
      <trkpt lat="44.06078" lon="6.85444">
        <ele>800</ele>
        <time>2020-06-05T11:55:24.000Z</time>
      </trkpt>
      <trkpt lat="44.06079" lon="6.85444">
        <ele>800</ele>
        <time>2020-06-05T11:55:25.000Z</time>
      </trkpt>
      <trkpt lat="44.0608" lon="6.85445">
        <ele>799</ele>
        <time>2020-06-05T11:55:26.000Z</time>
      </trkpt>
      <trkpt lat="44.06081" lon="6.85445">
        <ele>799</ele>
        <time>2020-06-05T11:55:27.000Z</time>
      </trkpt>
      <trkpt lat="44.06082" lon="6.85445">
        <ele>799</ele>
        <time>2020-06-05T11:55:28.000Z</time>
      </trkpt>
      <trkpt lat="44.06083" lon="6.85445">
        <ele>799</ele>
        <time>2020-06-05T11:55:29.000Z</time>
      </trkpt>
      <trkpt lat="44.06083" lon="6.85445">
        <ele>798</ele>
        <time>2020-06-05T11:55:30.000Z</time>
      </trkpt>
      <trkpt lat="44.06084" lon="6.85445">
        <ele>798</ele>
        <time>2020-06-05T11:55:31.000Z</time>
      </trkpt>
      <trkpt lat="44.06085" lon="6.85445">
        <ele>798</ele>
        <time>2020-06-05T11:55:32.000Z</time>
      </trkpt>
      <trkpt lat="44.06085" lon="6.85444">
        <ele>798</ele>
        <time>2020-06-05T11:55:33.000Z</time>
      </trkpt>
      <trkpt lat="44.06086" lon="6.85444">
        <ele>797</ele>
        <time>2020-06-05T11:55:34.000Z</time>
      </trkpt>
      <trkpt lat="44.06086" lon="6.85444">
        <ele>797</ele>
        <time>2020-06-05T11:55:35.000Z</time>
      </trkpt>
      <trkpt lat="44.06086" lon="6.85444">
        <ele>797</ele>
        <time>2020-06-05T11:55:36.000Z</time>
      </trkpt>
      <trkpt lat="44.06086" lon="6.85444">
        <ele>797</ele>
        <time>2020-06-05T11:55:37.000Z</time>
      </trkpt>
      <trkpt lat="44.06086" lon="6.85444">
        <ele>797</ele>
        <time>2020-06-05T11:55:38.000Z</time>
      </trkpt>
      <trkpt lat="44.06086" lon="6.85444">
        <ele>797</ele>
        <time>2020-06-05T11:55:39.000Z</time>
      </trkpt>
      <trkpt lat="44.06086" lon="6.85444">
        <ele>797</ele>
        <time>2020-06-05T11:55:40.000Z</time>
      </trkpt>
      <trkpt lat="44.06086" lon="6.85444">
        <ele>797</ele>
        <time>2020-06-05T11:55:41.000Z</time>
      </trkpt>
      <trkpt lat="44.06086" lon="6.85444">
        <ele>797</ele>
        <time>2020-06-05T11:55:42.000Z</time>
      </trkpt>
      <trkpt lat="44.06087" lon="6.85443">
        <ele>797</ele>
        <time>2020-06-05T11:55:43.000Z</time>
      </trkpt>
      <trkpt lat="44.06087" lon="6.85444">
        <ele>797</ele>
        <time>2020-06-05T11:55:44.000Z</time>
      </trkpt>
      <trkpt lat="44.06087" lon="6.85444">
        <ele>797</ele>
        <time>2020-06-05T11:55:45.000Z</time>
      </trkpt>
      <trkpt lat="44.06087" lon="6.85444">
        <ele>797</ele>
        <time>2020-06-05T11:55:46.000Z</time>
      </trkpt>
      <trkpt lat="44.06088" lon="6.85445">
        <ele>797</ele>
        <time>2020-06-05T11:55:47.000Z</time>
      </trkpt>
      <trkpt lat="44.06088" lon="6.85446">
        <ele>797</ele>
        <time>2020-06-05T11:55:48.000Z</time>
      </trkpt>
      <trkpt lat="44.06089" lon="6.85447">
        <ele>797</ele>
        <time>2020-06-05T11:55:49.000Z</time>
      </trkpt>
      <trkpt lat="44.06089" lon="6.85448">
        <ele>797</ele>
        <time>2020-06-05T11:55:50.000Z</time>
      </trkpt>
      <trkpt lat="44.0609" lon="6.85449">
        <ele>797</ele>
        <time>2020-06-05T11:55:51.000Z</time>
      </trkpt>
      <trkpt lat="44.06091" lon="6.85451">
        <ele>797</ele>
        <time>2020-06-05T11:55:52.000Z</time>
      </trkpt>
      <trkpt lat="44.06091" lon="6.85452">
        <ele>796</ele>
        <time>2020-06-05T11:55:53.000Z</time>
      </trkpt>
      <trkpt lat="44.06092" lon="6.85453">
        <ele>796</ele>
        <time>2020-06-05T11:55:54.000Z</time>
      </trkpt>
      <trkpt lat="44.06093" lon="6.85455">
        <ele>796</ele>
        <time>2020-06-05T11:55:55.000Z</time>
      </trkpt>
      <trkpt lat="44.06094" lon="6.85456">
        <ele>796</ele>
        <time>2020-06-05T11:55:56.000Z</time>
      </trkpt>
      <trkpt lat="44.06094" lon="6.85458">
        <ele>796</ele>
        <time>2020-06-05T11:55:57.000Z</time>
      </trkpt>
      <trkpt lat="44.06094" lon="6.85459">
        <ele>796</ele>
        <time>2020-06-05T11:55:58.000Z</time>
      </trkpt>
      <trkpt lat="44.06095" lon="6.8546">
        <ele>796</ele>
        <time>2020-06-05T11:55:59.000Z</time>
      </trkpt>
      <trkpt lat="44.06095" lon="6.85461">
        <ele>796</ele>
        <time>2020-06-05T11:56:00.000Z</time>
      </trkpt>
      <trkpt lat="44.06096" lon="6.85462">
        <ele>796</ele>
        <time>2020-06-05T11:56:01.000Z</time>
      </trkpt>
      <trkpt lat="44.06096" lon="6.85463">
        <ele>796</ele>
        <time>2020-06-05T11:56:02.000Z</time>
      </trkpt>
      <trkpt lat="44.06095" lon="6.85465">
        <ele>796</ele>
        <time>2020-06-05T11:56:03.000Z</time>
      </trkpt>
      <trkpt lat="44.06095" lon="6.85467">
        <ele>796</ele>
        <time>2020-06-05T11:56:04.000Z</time>
      </trkpt>
      <trkpt lat="44.06095" lon="6.85468">
        <ele>797</ele>
        <time>2020-06-05T11:56:05.000Z</time>
      </trkpt>
      <trkpt lat="44.06095" lon="6.8547">
        <ele>797</ele>
        <time>2020-06-05T11:56:06.000Z</time>
      </trkpt>
      <trkpt lat="44.06095" lon="6.85472">
        <ele>797</ele>
        <time>2020-06-05T11:56:07.000Z</time>
      </trkpt>
      <trkpt lat="44.06095" lon="6.85473">
        <ele>797</ele>
        <time>2020-06-05T11:56:08.000Z</time>
      </trkpt>
      <trkpt lat="44.06095" lon="6.85474">
        <ele>797</ele>
        <time>2020-06-05T11:56:09.000Z</time>
      </trkpt>
      <trkpt lat="44.06095" lon="6.85475">
        <ele>797</ele>
        <time>2020-06-05T11:56:10.000Z</time>
      </trkpt>
      <trkpt lat="44.06094" lon="6.85475">
        <ele>797</ele>
        <time>2020-06-05T11:56:11.000Z</time>
      </trkpt>
      <trkpt lat="44.06094" lon="6.85475">
        <ele>797</ele>
        <time>2020-06-05T11:56:12.000Z</time>
      </trkpt>
      <trkpt lat="44.06094" lon="6.85475">
        <ele>797</ele>
        <time>2020-06-05T11:56:13.000Z</time>
      </trkpt>
      <trkpt lat="44.06094" lon="6.85476">
        <ele>797</ele>
        <time>2020-06-05T11:56:14.000Z</time>
      </trkpt>
      <trkpt lat="44.06093" lon="6.85477">
        <ele>797</ele>
        <time>2020-06-05T11:56:15.000Z</time>
      </trkpt>
      <trkpt lat="44.06093" lon="6.85479">
        <ele>797</ele>
        <time>2020-06-05T11:56:16.000Z</time>
      </trkpt>
      <trkpt lat="44.06093" lon="6.8548">
        <ele>797</ele>
        <time>2020-06-05T11:56:17.000Z</time>
      </trkpt>
      <trkpt lat="44.06092" lon="6.85482">
        <ele>797</ele>
        <time>2020-06-05T11:56:18.000Z</time>
      </trkpt>
      <trkpt lat="44.06092" lon="6.85483">
        <ele>797</ele>
        <time>2020-06-05T11:56:19.000Z</time>
      </trkpt>
      <trkpt lat="44.06092" lon="6.85485">
        <ele>797</ele>
        <time>2020-06-05T11:56:20.000Z</time>
      </trkpt>
      <trkpt lat="44.06092" lon="6.85486">
        <ele>797</ele>
        <time>2020-06-05T11:56:21.000Z</time>
      </trkpt>
      <trkpt lat="44.06092" lon="6.85488">
        <ele>796</ele>
        <time>2020-06-05T11:56:22.000Z</time>
      </trkpt>
      <trkpt lat="44.06091" lon="6.85489">
        <ele>796</ele>
        <time>2020-06-05T11:56:23.000Z</time>
      </trkpt>
      <trkpt lat="44.06091" lon="6.85491">
        <ele>796</ele>
        <time>2020-06-05T11:56:24.000Z</time>
      </trkpt>
      <trkpt lat="44.06091" lon="6.85492">
        <ele>796</ele>
        <time>2020-06-05T11:56:25.000Z</time>
      </trkpt>
      <trkpt lat="44.06091" lon="6.85493">
        <ele>796</ele>
        <time>2020-06-05T11:56:26.000Z</time>
      </trkpt>
      <trkpt lat="44.0609" lon="6.85494">
        <ele>796</ele>
        <time>2020-06-05T11:56:27.000Z</time>
      </trkpt>
      <trkpt lat="44.0609" lon="6.85494">
        <ele>796</ele>
        <time>2020-06-05T11:56:28.000Z</time>
      </trkpt>
      <trkpt lat="44.0609" lon="6.85494">
        <ele>796</ele>
        <time>2020-06-05T11:56:29.000Z</time>
      </trkpt>
      <trkpt lat="44.0609" lon="6.85494">
        <ele>796</ele>
        <time>2020-06-05T11:56:30.000Z</time>
      </trkpt>
      <trkpt lat="44.0609" lon="6.85494">
        <ele>796</ele>
        <time>2020-06-05T11:56:31.000Z</time>
      </trkpt>
      <trkpt lat="44.0609" lon="6.85494">
        <ele>796</ele>
        <time>2020-06-05T11:56:32.000Z</time>
      </trkpt>
      <trkpt lat="44.06091" lon="6.85494">
        <ele>796</ele>
        <time>2020-06-05T11:56:33.000Z</time>
      </trkpt>
      <trkpt lat="44.06091" lon="6.85495">
        <ele>796</ele>
        <time>2020-06-05T11:56:34.000Z</time>
      </trkpt>
      <trkpt lat="44.06091" lon="6.85496">
        <ele>796</ele>
        <time>2020-06-05T11:56:35.000Z</time>
      </trkpt>
      <trkpt lat="44.06091" lon="6.85498">
        <ele>796</ele>
        <time>2020-06-05T11:56:36.000Z</time>
      </trkpt>
      <trkpt lat="44.06091" lon="6.855">
        <ele>796</ele>
        <time>2020-06-05T11:56:37.000Z</time>
      </trkpt>
      <trkpt lat="44.06091" lon="6.85502">
        <ele>797</ele>
        <time>2020-06-05T11:56:38.000Z</time>
      </trkpt>
      <trkpt lat="44.06091" lon="6.85503">
        <ele>797</ele>
        <time>2020-06-05T11:56:39.000Z</time>
      </trkpt>
      <trkpt lat="44.06091" lon="6.85504">
        <ele>797</ele>
        <time>2020-06-05T11:56:40.000Z</time>
      </trkpt>
      <trkpt lat="44.0609" lon="6.85506">
        <ele>797</ele>
        <time>2020-06-05T11:56:41.000Z</time>
      </trkpt>
      <trkpt lat="44.0609" lon="6.85507">
        <ele>797</ele>
        <time>2020-06-05T11:56:42.000Z</time>
      </trkpt>
      <trkpt lat="44.06089" lon="6.85509">
        <ele>797</ele>
        <time>2020-06-05T11:56:43.000Z</time>
      </trkpt>
      <trkpt lat="44.06089" lon="6.8551">
        <ele>797</ele>
        <time>2020-06-05T11:56:44.000Z</time>
      </trkpt>
      <trkpt lat="44.06089" lon="6.85511">
        <ele>797</ele>
        <time>2020-06-05T11:56:45.000Z</time>
      </trkpt>
      <trkpt lat="44.06088" lon="6.85512">
        <ele>797</ele>
        <time>2020-06-05T11:56:46.000Z</time>
      </trkpt>
      <trkpt lat="44.06088" lon="6.85514">
        <ele>798</ele>
        <time>2020-06-05T11:56:47.000Z</time>
      </trkpt>
      <trkpt lat="44.06088" lon="6.85514">
        <ele>798</ele>
        <time>2020-06-05T11:56:48.000Z</time>
      </trkpt>
      <trkpt lat="44.06087" lon="6.85514">
        <ele>797</ele>
        <time>2020-06-05T11:56:49.000Z</time>
      </trkpt>
      <trkpt lat="44.06087" lon="6.85515">
        <ele>797</ele>
        <time>2020-06-05T11:56:50.000Z</time>
      </trkpt>
      <trkpt lat="44.06087" lon="6.85515">
        <ele>797</ele>
        <time>2020-06-05T11:56:51.000Z</time>
      </trkpt>
      <trkpt lat="44.06087" lon="6.85515">
        <ele>797</ele>
        <time>2020-06-05T11:56:52.000Z</time>
      </trkpt>
      <trkpt lat="44.06087" lon="6.85515">
        <ele>797</ele>
        <time>2020-06-05T11:56:53.000Z</time>
      </trkpt>
      <trkpt lat="44.06087" lon="6.85515">
        <ele>797</ele>
        <time>2020-06-05T11:56:54.000Z</time>
      </trkpt>
      <trkpt lat="44.06086" lon="6.85515">
        <ele>797</ele>
        <time>2020-06-05T11:56:55.000Z</time>
      </trkpt>
      <trkpt lat="44.06086" lon="6.85515">
        <ele>797</ele>
        <time>2020-06-05T11:56:56.000Z</time>
      </trkpt>
      <trkpt lat="44.06086" lon="6.85515">
        <ele>797</ele>
        <time>2020-06-05T11:56:57.000Z</time>
      </trkpt>
      <trkpt lat="44.06086" lon="6.85515">
        <ele>796</ele>
        <time>2020-06-05T11:56:58.000Z</time>
      </trkpt>
      <trkpt lat="44.06086" lon="6.85515">
        <ele>796</ele>
        <time>2020-06-05T11:56:59.000Z</time>
      </trkpt>
      <trkpt lat="44.06086" lon="6.85515">
        <ele>796</ele>
        <time>2020-06-05T11:57:00.000Z</time>
      </trkpt>
      <trkpt lat="44.06086" lon="6.85515">
        <ele>796</ele>
        <time>2020-06-05T11:57:01.000Z</time>
      </trkpt>
      <trkpt lat="44.06086" lon="6.85515">
        <ele>796</ele>
        <time>2020-06-05T11:57:02.000Z</time>
      </trkpt>
      <trkpt lat="44.06085" lon="6.85515">
        <ele>796</ele>
        <time>2020-06-05T11:57:03.000Z</time>
      </trkpt>
      <trkpt lat="44.06085" lon="6.85515">
        <ele>796</ele>
        <time>2020-06-05T11:57:04.000Z</time>
      </trkpt>
      <trkpt lat="44.06085" lon="6.85515">
        <ele>796</ele>
        <time>2020-06-05T11:57:05.000Z</time>
      </trkpt>
      <trkpt lat="44.06085" lon="6.85515">
        <ele>796</ele>
        <time>2020-06-05T11:57:06.000Z</time>
      </trkpt>
      <trkpt lat="44.06086" lon="6.85515">
        <ele>796</ele>
        <time>2020-06-05T11:57:07.000Z</time>
      </trkpt>
      <trkpt lat="44.06086" lon="6.85516">
        <ele>796</ele>
        <time>2020-06-05T11:57:08.000Z</time>
      </trkpt>
      <trkpt lat="44.06086" lon="6.85518">
        <ele>795</ele>
        <time>2020-06-05T11:57:09.000Z</time>
      </trkpt>
      <trkpt lat="44.06086" lon="6.85519">
        <ele>795</ele>
        <time>2020-06-05T11:57:10.000Z</time>
      </trkpt>
      <trkpt lat="44.06086" lon="6.85521">
        <ele>795</ele>
        <time>2020-06-05T11:57:11.000Z</time>
      </trkpt>
      <trkpt lat="44.06086" lon="6.85523">
        <ele>795</ele>
        <time>2020-06-05T11:57:12.000Z</time>
      </trkpt>
      <trkpt lat="44.06085" lon="6.85524">
        <ele>795</ele>
        <time>2020-06-05T11:57:13.000Z</time>
      </trkpt>
      <trkpt lat="44.06085" lon="6.85525">
        <ele>795</ele>
        <time>2020-06-05T11:57:14.000Z</time>
      </trkpt>
      <trkpt lat="44.06085" lon="6.85526">
        <ele>795</ele>
        <time>2020-06-05T11:57:15.000Z</time>
      </trkpt>
      <trkpt lat="44.06085" lon="6.85528">
        <ele>795</ele>
        <time>2020-06-05T11:57:16.000Z</time>
      </trkpt>
      <trkpt lat="44.06086" lon="6.85529">
        <ele>795</ele>
        <time>2020-06-05T11:57:17.000Z</time>
      </trkpt>
      <trkpt lat="44.06086" lon="6.85531">
        <ele>795</ele>
        <time>2020-06-05T11:57:18.000Z</time>
      </trkpt>
      <trkpt lat="44.06086" lon="6.85532">
        <ele>795</ele>
        <time>2020-06-05T11:57:19.000Z</time>
      </trkpt>
      <trkpt lat="44.06086" lon="6.85534">
        <ele>796</ele>
        <time>2020-06-05T11:57:20.000Z</time>
      </trkpt>
      <trkpt lat="44.06086" lon="6.85535">
        <ele>796</ele>
        <time>2020-06-05T11:57:21.000Z</time>
      </trkpt>
      <trkpt lat="44.06086" lon="6.85536">
        <ele>796</ele>
        <time>2020-06-05T11:57:22.000Z</time>
      </trkpt>
      <trkpt lat="44.06086" lon="6.85538">
        <ele>796</ele>
        <time>2020-06-05T11:57:23.000Z</time>
      </trkpt>
      <trkpt lat="44.06086" lon="6.85539">
        <ele>796</ele>
        <time>2020-06-05T11:57:24.000Z</time>
      </trkpt>
      <trkpt lat="44.06086" lon="6.85541">
        <ele>796</ele>
        <time>2020-06-05T11:57:25.000Z</time>
      </trkpt>
      <trkpt lat="44.06086" lon="6.85542">
        <ele>796</ele>
        <time>2020-06-05T11:57:26.000Z</time>
      </trkpt>
      <trkpt lat="44.06086" lon="6.85544">
        <ele>796</ele>
        <time>2020-06-05T11:57:27.000Z</time>
      </trkpt>
      <trkpt lat="44.06086" lon="6.85546">
        <ele>796</ele>
        <time>2020-06-05T11:57:28.000Z</time>
      </trkpt>
      <trkpt lat="44.06086" lon="6.85547">
        <ele>796</ele>
        <time>2020-06-05T11:57:29.000Z</time>
      </trkpt>
      <trkpt lat="44.06086" lon="6.85549">
        <ele>796</ele>
        <time>2020-06-05T11:57:30.000Z</time>
      </trkpt>
      <trkpt lat="44.06085" lon="6.8555">
        <ele>796</ele>
        <time>2020-06-05T11:57:31.000Z</time>
      </trkpt>
      <trkpt lat="44.06085" lon="6.85552">
        <ele>796</ele>
        <time>2020-06-05T11:57:32.000Z</time>
      </trkpt>
      <trkpt lat="44.06085" lon="6.85554">
        <ele>796</ele>
        <time>2020-06-05T11:57:33.000Z</time>
      </trkpt>
      <trkpt lat="44.06085" lon="6.85555">
        <ele>796</ele>
        <time>2020-06-05T11:57:34.000Z</time>
      </trkpt>
      <trkpt lat="44.06085" lon="6.85556">
        <ele>796</ele>
        <time>2020-06-05T11:57:35.000Z</time>
      </trkpt>
      <trkpt lat="44.06084" lon="6.85557">
        <ele>797</ele>
        <time>2020-06-05T11:57:36.000Z</time>
      </trkpt>
      <trkpt lat="44.06085" lon="6.85559">
        <ele>797</ele>
        <time>2020-06-05T11:57:37.000Z</time>
      </trkpt>
      <trkpt lat="44.06085" lon="6.8556">
        <ele>797</ele>
        <time>2020-06-05T11:57:38.000Z</time>
      </trkpt>
      <trkpt lat="44.06084" lon="6.85561">
        <ele>797</ele>
        <time>2020-06-05T11:57:39.000Z</time>
      </trkpt>
      <trkpt lat="44.06084" lon="6.85561">
        <ele>797</ele>
        <time>2020-06-05T11:57:40.000Z</time>
      </trkpt>
      <trkpt lat="44.06084" lon="6.85561">
        <ele>797</ele>
        <time>2020-06-05T11:57:41.000Z</time>
      </trkpt>
      <trkpt lat="44.06084" lon="6.85561">
        <ele>797</ele>
        <time>2020-06-05T11:57:42.000Z</time>
      </trkpt>
      <trkpt lat="44.06084" lon="6.85561">
        <ele>797</ele>
        <time>2020-06-05T11:57:43.000Z</time>
      </trkpt>
      <trkpt lat="44.06084" lon="6.85561">
        <ele>797</ele>
        <time>2020-06-05T11:57:44.000Z</time>
      </trkpt>
      <trkpt lat="44.06084" lon="6.85561">
        <ele>797</ele>
        <time>2020-06-05T11:57:45.000Z</time>
      </trkpt>
      <trkpt lat="44.06084" lon="6.85561">
        <ele>797</ele>
        <time>2020-06-05T11:57:46.000Z</time>
      </trkpt>
      <trkpt lat="44.06084" lon="6.85561">
        <ele>797</ele>
        <time>2020-06-05T11:57:47.000Z</time>
      </trkpt>
      <trkpt lat="44.06084" lon="6.85561">
        <ele>797</ele>
        <time>2020-06-05T11:57:48.000Z</time>
      </trkpt>
      <trkpt lat="44.06084" lon="6.85561">
        <ele>797</ele>
        <time>2020-06-05T11:57:49.000Z</time>
      </trkpt>
      <trkpt lat="44.06084" lon="6.85561">
        <ele>797</ele>
        <time>2020-06-05T11:57:50.000Z</time>
      </trkpt>
      <trkpt lat="44.06084" lon="6.85561">
        <ele>797</ele>
        <time>2020-06-05T11:57:51.000Z</time>
      </trkpt>
      <trkpt lat="44.06084" lon="6.85561">
        <ele>797</ele>
        <time>2020-06-05T11:57:52.000Z</time>
      </trkpt>
      <trkpt lat="44.06084" lon="6.85561">
        <ele>797</ele>
        <time>2020-06-05T11:57:53.000Z</time>
      </trkpt>
      <trkpt lat="44.06084" lon="6.85561">
        <ele>797</ele>
        <time>2020-06-05T11:57:54.000Z</time>
      </trkpt>
      <trkpt lat="44.06084" lon="6.85561">
        <ele>797</ele>
        <time>2020-06-05T11:57:55.000Z</time>
      </trkpt>
      <trkpt lat="44.06084" lon="6.85561">
        <ele>797</ele>
        <time>2020-06-05T11:57:56.000Z</time>
      </trkpt>
      <trkpt lat="44.06084" lon="6.85561">
        <ele>797</ele>
        <time>2020-06-05T11:57:57.000Z</time>
      </trkpt>
      <trkpt lat="44.06084" lon="6.85561">
        <ele>797</ele>
        <time>2020-06-05T11:57:58.000Z</time>
      </trkpt>
      <trkpt lat="44.06084" lon="6.85561">
        <ele>797</ele>
        <time>2020-06-05T11:57:59.000Z</time>
      </trkpt>
      <trkpt lat="44.06084" lon="6.85561">
        <ele>797</ele>
        <time>2020-06-05T11:58:00.000Z</time>
      </trkpt>
      <trkpt lat="44.06084" lon="6.85561">
        <ele>797</ele>
        <time>2020-06-05T11:58:01.000Z</time>
      </trkpt>
      <trkpt lat="44.06084" lon="6.8556">
        <ele>797</ele>
        <time>2020-06-05T11:58:02.000Z</time>
      </trkpt>
      <trkpt lat="44.06084" lon="6.85561">
        <ele>797</ele>
        <time>2020-06-05T11:58:03.000Z</time>
      </trkpt>
      <trkpt lat="44.06084" lon="6.85561">
        <ele>797</ele>
        <time>2020-06-05T11:58:04.000Z</time>
      </trkpt>
      <trkpt lat="44.06084" lon="6.85561">
        <ele>797</ele>
        <time>2020-06-05T11:58:05.000Z</time>
      </trkpt>
      <trkpt lat="44.06084" lon="6.85561">
        <ele>797</ele>
        <time>2020-06-05T11:58:06.000Z</time>
      </trkpt>
      <trkpt lat="44.06084" lon="6.85561">
        <ele>797</ele>
        <time>2020-06-05T11:58:07.000Z</time>
      </trkpt>
      <trkpt lat="44.06084" lon="6.85561">
        <ele>797</ele>
        <time>2020-06-05T11:58:08.000Z</time>
      </trkpt>
      <trkpt lat="44.06084" lon="6.85561">
        <ele>797</ele>
        <time>2020-06-05T11:58:09.000Z</time>
      </trkpt>
      <trkpt lat="44.06084" lon="6.85561">
        <ele>797</ele>
        <time>2020-06-05T11:58:10.000Z</time>
      </trkpt>
      <trkpt lat="44.06084" lon="6.85561">
        <ele>797</ele>
        <time>2020-06-05T11:58:11.000Z</time>
      </trkpt>
      <trkpt lat="44.06084" lon="6.85561">
        <ele>797</ele>
        <time>2020-06-05T11:58:12.000Z</time>
      </trkpt>
      <trkpt lat="44.06084" lon="6.8556">
        <ele>797</ele>
        <time>2020-06-05T11:58:13.000Z</time>
      </trkpt>
      <trkpt lat="44.06084" lon="6.8556">
        <ele>796</ele>
        <time>2020-06-05T11:58:14.000Z</time>
      </trkpt>
      <trkpt lat="44.06084" lon="6.8556">
        <ele>796</ele>
        <time>2020-06-05T11:58:15.000Z</time>
      </trkpt>
      <trkpt lat="44.06084" lon="6.8556">
        <ele>796</ele>
        <time>2020-06-05T11:58:16.000Z</time>
      </trkpt>
      <trkpt lat="44.06084" lon="6.8556">
        <ele>796</ele>
        <time>2020-06-05T11:58:17.000Z</time>
      </trkpt>
      <trkpt lat="44.06084" lon="6.8556">
        <ele>796</ele>
        <time>2020-06-05T11:58:18.000Z</time>
      </trkpt>
      <trkpt lat="44.06084" lon="6.8556">
        <ele>796</ele>
        <time>2020-06-05T11:58:19.000Z</time>
      </trkpt>
      <trkpt lat="44.06084" lon="6.8556">
        <ele>796</ele>
        <time>2020-06-05T11:58:20.000Z</time>
      </trkpt>
      <trkpt lat="44.06084" lon="6.8556">
        <ele>796</ele>
        <time>2020-06-05T11:58:21.000Z</time>
      </trkpt>
      <trkpt lat="44.06084" lon="6.8556">
        <ele>796</ele>
        <time>2020-06-05T11:58:22.000Z</time>
      </trkpt>
      <trkpt lat="44.06084" lon="6.8556">
        <ele>796</ele>
        <time>2020-06-05T11:58:23.000Z</time>
      </trkpt>
      <trkpt lat="44.06084" lon="6.85559">
        <ele>796</ele>
        <time>2020-06-05T11:58:24.000Z</time>
      </trkpt>
      <trkpt lat="44.06084" lon="6.85559">
        <ele>796</ele>
        <time>2020-06-05T11:58:25.000Z</time>
      </trkpt>
      <trkpt lat="44.06084" lon="6.8556">
        <ele>796</ele>
        <time>2020-06-05T11:58:26.000Z</time>
      </trkpt>
      <trkpt lat="44.06084" lon="6.85559">
        <ele>796</ele>
        <time>2020-06-05T11:58:27.000Z</time>
      </trkpt>
      <trkpt lat="44.06084" lon="6.85559">
        <ele>795</ele>
        <time>2020-06-05T11:58:28.000Z</time>
      </trkpt>
      <trkpt lat="44.06085" lon="6.8556">
        <ele>795</ele>
        <time>2020-06-05T11:58:29.000Z</time>
      </trkpt>
      <trkpt lat="44.06085" lon="6.8556">
        <ele>795</ele>
        <time>2020-06-05T11:58:30.000Z</time>
      </trkpt>
      <trkpt lat="44.06085" lon="6.8556">
        <ele>795</ele>
        <time>2020-06-05T11:58:31.000Z</time>
      </trkpt>
      <trkpt lat="44.06085" lon="6.8556">
        <ele>795</ele>
        <time>2020-06-05T11:58:32.000Z</time>
      </trkpt>
      <trkpt lat="44.06084" lon="6.8556">
        <ele>795</ele>
        <time>2020-06-05T11:58:33.000Z</time>
      </trkpt>
      <trkpt lat="44.06084" lon="6.8556">
        <ele>795</ele>
        <time>2020-06-05T11:58:34.000Z</time>
      </trkpt>
      <trkpt lat="44.06084" lon="6.8556">
        <ele>795</ele>
        <time>2020-06-05T11:58:35.000Z</time>
      </trkpt>
      <trkpt lat="44.06084" lon="6.8556">
        <ele>795</ele>
        <time>2020-06-05T11:58:36.000Z</time>
      </trkpt>
      <trkpt lat="44.06084" lon="6.8556">
        <ele>795</ele>
        <time>2020-06-05T11:58:37.000Z</time>
      </trkpt>
      <trkpt lat="44.06084" lon="6.8556">
        <ele>795</ele>
        <time>2020-06-05T11:58:38.000Z</time>
      </trkpt>
      <trkpt lat="44.06084" lon="6.8556">
        <ele>795</ele>
        <time>2020-06-05T11:58:39.000Z</time>
      </trkpt>
      <trkpt lat="44.06084" lon="6.8556">
        <ele>795</ele>
        <time>2020-06-05T11:58:40.000Z</time>
      </trkpt>
      <trkpt lat="44.06084" lon="6.8556">
        <ele>795</ele>
        <time>2020-06-05T11:58:41.000Z</time>
      </trkpt>
      <trkpt lat="44.06084" lon="6.8556">
        <ele>795</ele>
        <time>2020-06-05T11:58:42.000Z</time>
      </trkpt>
      <trkpt lat="44.06084" lon="6.85561">
        <ele>794</ele>
        <time>2020-06-05T11:58:43.000Z</time>
      </trkpt>
      <trkpt lat="44.06084" lon="6.8556">
        <ele>794</ele>
        <time>2020-06-05T11:58:44.000Z</time>
      </trkpt>
      <trkpt lat="44.06084" lon="6.85561">
        <ele>794</ele>
        <time>2020-06-05T11:58:45.000Z</time>
      </trkpt>
      <trkpt lat="44.06084" lon="6.8556">
        <ele>794</ele>
        <time>2020-06-05T11:58:46.000Z</time>
      </trkpt>
      <trkpt lat="44.06084" lon="6.8556">
        <ele>794</ele>
        <time>2020-06-05T11:58:47.000Z</time>
      </trkpt>
      <trkpt lat="44.06084" lon="6.85559">
        <ele>794</ele>
        <time>2020-06-05T11:58:48.000Z</time>
      </trkpt>
      <trkpt lat="44.06084" lon="6.85559">
        <ele>794</ele>
        <time>2020-06-05T11:58:49.000Z</time>
      </trkpt>
      <trkpt lat="44.06084" lon="6.85559">
        <ele>794</ele>
        <time>2020-06-05T11:58:50.000Z</time>
      </trkpt>
      <trkpt lat="44.06084" lon="6.85559">
        <ele>794</ele>
        <time>2020-06-05T11:58:51.000Z</time>
      </trkpt>
      <trkpt lat="44.06084" lon="6.85559">
        <ele>794</ele>
        <time>2020-06-05T11:58:52.000Z</time>
      </trkpt>
      <trkpt lat="44.06084" lon="6.85559">
        <ele>794</ele>
        <time>2020-06-05T11:58:53.000Z</time>
      </trkpt>
      <trkpt lat="44.06084" lon="6.85559">
        <ele>794</ele>
        <time>2020-06-05T11:58:54.000Z</time>
      </trkpt>
      <trkpt lat="44.06084" lon="6.85559">
        <ele>794</ele>
        <time>2020-06-05T11:58:55.000Z</time>
      </trkpt>
      <trkpt lat="44.06084" lon="6.85559">
        <ele>794</ele>
        <time>2020-06-05T11:58:56.000Z</time>
      </trkpt>
      <trkpt lat="44.06085" lon="6.85559">
        <ele>794</ele>
        <time>2020-06-05T11:58:57.000Z</time>
      </trkpt>
      <trkpt lat="44.06085" lon="6.85559">
        <ele>794</ele>
        <time>2020-06-05T11:58:58.000Z</time>
      </trkpt>
      <trkpt lat="44.06085" lon="6.85559">
        <ele>794</ele>
        <time>2020-06-05T11:58:59.000Z</time>
      </trkpt>
      <trkpt lat="44.06085" lon="6.85559">
        <ele>794</ele>
        <time>2020-06-05T11:59:00.000Z</time>
      </trkpt>
      <trkpt lat="44.06085" lon="6.85559">
        <ele>794</ele>
        <time>2020-06-05T11:59:01.000Z</time>
      </trkpt>
      <trkpt lat="44.06085" lon="6.85559">
        <ele>794</ele>
        <time>2020-06-05T11:59:02.000Z</time>
      </trkpt>
      <trkpt lat="44.06085" lon="6.85559">
        <ele>794</ele>
        <time>2020-06-05T11:59:03.000Z</time>
      </trkpt>
      <trkpt lat="44.06085" lon="6.8556">
        <ele>794</ele>
        <time>2020-06-05T11:59:04.000Z</time>
      </trkpt>
      <trkpt lat="44.06085" lon="6.8556">
        <ele>794</ele>
        <time>2020-06-05T11:59:05.000Z</time>
      </trkpt>
      <trkpt lat="44.06085" lon="6.85559">
        <ele>794</ele>
        <time>2020-06-05T11:59:06.000Z</time>
      </trkpt>
      <trkpt lat="44.06085" lon="6.85559">
        <ele>794</ele>
        <time>2020-06-05T11:59:07.000Z</time>
      </trkpt>
      <trkpt lat="44.06085" lon="6.85559">
        <ele>794</ele>
        <time>2020-06-05T11:59:08.000Z</time>
      </trkpt>
      <trkpt lat="44.06085" lon="6.85559">
        <ele>794</ele>
        <time>2020-06-05T11:59:09.000Z</time>
      </trkpt>
      <trkpt lat="44.06085" lon="6.85559">
        <ele>794</ele>
        <time>2020-06-05T11:59:10.000Z</time>
      </trkpt>
      <trkpt lat="44.06085" lon="6.85559">
        <ele>794</ele>
        <time>2020-06-05T11:59:11.000Z</time>
      </trkpt>
      <trkpt lat="44.06086" lon="6.85559">
        <ele>794</ele>
        <time>2020-06-05T11:59:12.000Z</time>
      </trkpt>
      <trkpt lat="44.06086" lon="6.85559">
        <ele>794</ele>
        <time>2020-06-05T11:59:13.000Z</time>
      </trkpt>
      <trkpt lat="44.06086" lon="6.85559">
        <ele>794</ele>
        <time>2020-06-05T11:59:14.000Z</time>
      </trkpt>
      <trkpt lat="44.06086" lon="6.85559">
        <ele>794</ele>
        <time>2020-06-05T11:59:15.000Z</time>
      </trkpt>
      <trkpt lat="44.06086" lon="6.85559">
        <ele>794</ele>
        <time>2020-06-05T11:59:16.000Z</time>
      </trkpt>
      <trkpt lat="44.06086" lon="6.85559">
        <ele>794</ele>
        <time>2020-06-05T11:59:17.000Z</time>
      </trkpt>
      <trkpt lat="44.06086" lon="6.85559">
        <ele>794</ele>
        <time>2020-06-05T11:59:18.000Z</time>
      </trkpt>
      <trkpt lat="44.06086" lon="6.85559">
        <ele>794</ele>
        <time>2020-06-05T11:59:19.000Z</time>
      </trkpt>
      <trkpt lat="44.06086" lon="6.85559">
        <ele>794</ele>
        <time>2020-06-05T11:59:20.000Z</time>
      </trkpt>
      <trkpt lat="44.06086" lon="6.85559">
        <ele>794</ele>
        <time>2020-06-05T11:59:21.000Z</time>
      </trkpt>
      <trkpt lat="44.06086" lon="6.85559">
        <ele>794</ele>
        <time>2020-06-05T11:59:22.000Z</time>
      </trkpt>
      <trkpt lat="44.06086" lon="6.85559">
        <ele>794</ele>
        <time>2020-06-05T11:59:23.000Z</time>
      </trkpt>
      <trkpt lat="44.06086" lon="6.85559">
        <ele>794</ele>
        <time>2020-06-05T11:59:24.000Z</time>
      </trkpt>
      <trkpt lat="44.06086" lon="6.85559">
        <ele>794</ele>
        <time>2020-06-05T11:59:25.000Z</time>
      </trkpt>
      <trkpt lat="44.06086" lon="6.85559">
        <ele>794</ele>
        <time>2020-06-05T11:59:26.000Z</time>
      </trkpt>
      <trkpt lat="44.06086" lon="6.85559">
        <ele>794</ele>
        <time>2020-06-05T11:59:27.000Z</time>
      </trkpt>
      <trkpt lat="44.06086" lon="6.85559">
        <ele>794</ele>
        <time>2020-06-05T11:59:28.000Z</time>
      </trkpt>
      <trkpt lat="44.06086" lon="6.85559">
        <ele>794</ele>
        <time>2020-06-05T11:59:29.000Z</time>
      </trkpt>
      <trkpt lat="44.06086" lon="6.85559">
        <ele>794</ele>
        <time>2020-06-05T11:59:30.000Z</time>
      </trkpt>
      <trkpt lat="44.06086" lon="6.85559">
        <ele>794</ele>
        <time>2020-06-05T11:59:31.000Z</time>
      </trkpt>
      <trkpt lat="44.06086" lon="6.85559">
        <ele>794</ele>
        <time>2020-06-05T11:59:32.000Z</time>
      </trkpt>
      <trkpt lat="44.06086" lon="6.85559">
        <ele>794</ele>
        <time>2020-06-05T11:59:33.000Z</time>
      </trkpt>
      <trkpt lat="44.06085" lon="6.85559">
        <ele>794</ele>
        <time>2020-06-05T11:59:34.000Z</time>
      </trkpt>
      <trkpt lat="44.06085" lon="6.85559">
        <ele>794</ele>
        <time>2020-06-05T11:59:35.000Z</time>
      </trkpt>
      <trkpt lat="44.06085" lon="6.85559">
        <ele>794</ele>
        <time>2020-06-05T11:59:36.000Z</time>
      </trkpt>
      <trkpt lat="44.06085" lon="6.85559">
        <ele>794</ele>
        <time>2020-06-05T11:59:37.000Z</time>
      </trkpt>
      <trkpt lat="44.06085" lon="6.85559">
        <ele>794</ele>
        <time>2020-06-05T11:59:38.000Z</time>
      </trkpt>
      <trkpt lat="44.06085" lon="6.85559">
        <ele>794</ele>
        <time>2020-06-05T11:59:39.000Z</time>
      </trkpt>
      <trkpt lat="44.06085" lon="6.85559">
        <ele>794</ele>
        <time>2020-06-05T11:59:40.000Z</time>
      </trkpt>
      <trkpt lat="44.06085" lon="6.85559">
        <ele>794</ele>
        <time>2020-06-05T11:59:41.000Z</time>
      </trkpt>
      <trkpt lat="44.06085" lon="6.85558">
        <ele>794</ele>
        <time>2020-06-05T11:59:42.000Z</time>
      </trkpt>
      <trkpt lat="44.06085" lon="6.85558">
        <ele>794</ele>
        <time>2020-06-05T11:59:43.000Z</time>
      </trkpt>
      <trkpt lat="44.06085" lon="6.85558">
        <ele>794</ele>
        <time>2020-06-05T11:59:44.000Z</time>
      </trkpt>
      <trkpt lat="44.06085" lon="6.85558">
        <ele>794</ele>
        <time>2020-06-05T11:59:45.000Z</time>
      </trkpt>
      <trkpt lat="44.06085" lon="6.85558">
        <ele>794</ele>
        <time>2020-06-05T11:59:46.000Z</time>
      </trkpt>
      <trkpt lat="44.06085" lon="6.85558">
        <ele>794</ele>
        <time>2020-06-05T11:59:47.000Z</time>
      </trkpt>
      <trkpt lat="44.06085" lon="6.85558">
        <ele>794</ele>
        <time>2020-06-05T11:59:48.000Z</time>
      </trkpt>
      <trkpt lat="44.06085" lon="6.85558">
        <ele>794</ele>
        <time>2020-06-05T11:59:49.000Z</time>
      </trkpt>
      <trkpt lat="44.06085" lon="6.85558">
        <ele>794</ele>
        <time>2020-06-05T11:59:50.000Z</time>
      </trkpt>
      <trkpt lat="44.06085" lon="6.85558">
        <ele>794</ele>
        <time>2020-06-05T11:59:51.000Z</time>
      </trkpt>
      <trkpt lat="44.06085" lon="6.85558">
        <ele>794</ele>
        <time>2020-06-05T11:59:52.000Z</time>
      </trkpt>
      <trkpt lat="44.06086" lon="6.85558">
        <ele>794</ele>
        <time>2020-06-05T11:59:53.000Z</time>
      </trkpt>
      <trkpt lat="44.06086" lon="6.85558">
        <ele>794</ele>
        <time>2020-06-05T11:59:54.000Z</time>
      </trkpt>
      <trkpt lat="44.06086" lon="6.85558">
        <ele>794</ele>
        <time>2020-06-05T11:59:55.000Z</time>
      </trkpt>
      <trkpt lat="44.06086" lon="6.85558">
        <ele>794</ele>
        <time>2020-06-05T11:59:56.000Z</time>
      </trkpt>
      <trkpt lat="44.06086" lon="6.85558">
        <ele>794</ele>
        <time>2020-06-05T11:59:57.000Z</time>
      </trkpt>
      <trkpt lat="44.06086" lon="6.85558">
        <ele>794</ele>
        <time>2020-06-05T11:59:58.000Z</time>
      </trkpt>
      <trkpt lat="44.06086" lon="6.85558">
        <ele>794</ele>
        <time>2020-06-05T11:59:59.000Z</time>
      </trkpt>
      <trkpt lat="44.06086" lon="6.85558">
        <ele>794</ele>
        <time>2020-06-05T12:00:00.000Z</time>
      </trkpt>
      <trkpt lat="44.06086" lon="6.85558">
        <ele>794</ele>
        <time>2020-06-05T12:00:01.000Z</time>
      </trkpt>
      <trkpt lat="44.06086" lon="6.85558">
        <ele>794</ele>
        <time>2020-06-05T12:00:02.000Z</time>
      </trkpt>
      <trkpt lat="44.06086" lon="6.85558">
        <ele>794</ele>
        <time>2020-06-05T12:00:03.000Z</time>
      </trkpt>
      <trkpt lat="44.06086" lon="6.85558">
        <ele>794</ele>
        <time>2020-06-05T12:00:04.000Z</time>
      </trkpt>
      <trkpt lat="44.06085" lon="6.85558">
        <ele>794</ele>
        <time>2020-06-05T12:00:05.000Z</time>
      </trkpt>
      <trkpt lat="44.06085" lon="6.85558">
        <ele>794</ele>
        <time>2020-06-05T12:00:06.000Z</time>
      </trkpt>
      <trkpt lat="44.06085" lon="6.85558">
        <ele>794</ele>
        <time>2020-06-05T12:00:07.000Z</time>
      </trkpt>
      <trkpt lat="44.06085" lon="6.85558">
        <ele>794</ele>
        <time>2020-06-05T12:00:08.000Z</time>
      </trkpt>
      <trkpt lat="44.06085" lon="6.85558">
        <ele>794</ele>
        <time>2020-06-05T12:00:09.000Z</time>
      </trkpt>
      <trkpt lat="44.06085" lon="6.85558">
        <ele>794</ele>
        <time>2020-06-05T12:00:10.000Z</time>
      </trkpt>
      <trkpt lat="44.06085" lon="6.85558">
        <ele>794</ele>
        <time>2020-06-05T12:00:11.000Z</time>
      </trkpt>
      <trkpt lat="44.06085" lon="6.85558">
        <ele>794</ele>
        <time>2020-06-05T12:00:12.000Z</time>
      </trkpt>
      <trkpt lat="44.06085" lon="6.85558">
        <ele>794</ele>
        <time>2020-06-05T12:00:13.000Z</time>
      </trkpt>
      <trkpt lat="44.06085" lon="6.85558">
        <ele>794</ele>
        <time>2020-06-05T12:00:14.000Z</time>
      </trkpt>
      <trkpt lat="44.06085" lon="6.85558">
        <ele>794</ele>
        <time>2020-06-05T12:00:15.000Z</time>
      </trkpt>
      <trkpt lat="44.06085" lon="6.85558">
        <ele>794</ele>
        <time>2020-06-05T12:00:16.000Z</time>
      </trkpt>
      <trkpt lat="44.06085" lon="6.85558">
        <ele>794</ele>
        <time>2020-06-05T12:00:17.000Z</time>
      </trkpt>
      <trkpt lat="44.06085" lon="6.85558">
        <ele>794</ele>
        <time>2020-06-05T12:00:18.000Z</time>
      </trkpt>
      <trkpt lat="44.06085" lon="6.85558">
        <ele>794</ele>
        <time>2020-06-05T12:00:19.000Z</time>
      </trkpt>
      <trkpt lat="44.06085" lon="6.85558">
        <ele>794</ele>
        <time>2020-06-05T12:00:20.000Z</time>
      </trkpt>
      <trkpt lat="44.06085" lon="6.85558">
        <ele>794</ele>
        <time>2020-06-05T12:00:21.000Z</time>
      </trkpt>
      <trkpt lat="44.06085" lon="6.85558">
        <ele>794</ele>
        <time>2020-06-05T12:00:22.000Z</time>
      </trkpt>
      <trkpt lat="44.06085" lon="6.85558">
        <ele>794</ele>
        <time>2020-06-05T12:00:23.000Z</time>
      </trkpt>
      <trkpt lat="44.06085" lon="6.85558">
        <ele>794</ele>
        <time>2020-06-05T12:00:24.000Z</time>
      </trkpt>
      <trkpt lat="44.06085" lon="6.85558">
        <ele>794</ele>
        <time>2020-06-05T12:00:25.000Z</time>
      </trkpt>
      <trkpt lat="44.06085" lon="6.85558">
        <ele>794</ele>
        <time>2020-06-05T12:00:26.000Z</time>
      </trkpt>
      <trkpt lat="44.06085" lon="6.85558">
        <ele>794</ele>
        <time>2020-06-05T12:00:27.000Z</time>
      </trkpt>
      <trkpt lat="44.06085" lon="6.85558">
        <ele>794</ele>
        <time>2020-06-05T12:00:28.000Z</time>
      </trkpt>
      <trkpt lat="44.06085" lon="6.85558">
        <ele>794</ele>
        <time>2020-06-05T12:00:29.000Z</time>
      </trkpt>
      <trkpt lat="44.06085" lon="6.85558">
        <ele>794</ele>
        <time>2020-06-05T12:00:30.000Z</time>
      </trkpt>
      <trkpt lat="44.06085" lon="6.85558">
        <ele>794</ele>
        <time>2020-06-05T12:00:31.000Z</time>
      </trkpt>
      <trkpt lat="44.06085" lon="6.85558">
        <ele>794</ele>
        <time>2020-06-05T12:00:32.000Z</time>
      </trkpt>
      <trkpt lat="44.06085" lon="6.85558">
        <ele>794</ele>
        <time>2020-06-05T12:00:33.000Z</time>
      </trkpt>
      <trkpt lat="44.06085" lon="6.85558">
        <ele>794</ele>
        <time>2020-06-05T12:00:34.000Z</time>
      </trkpt>
      <trkpt lat="44.06085" lon="6.85558">
        <ele>794</ele>
        <time>2020-06-05T12:00:35.000Z</time>
      </trkpt>
      <trkpt lat="44.06085" lon="6.85559">
        <ele>794</ele>
        <time>2020-06-05T12:00:36.000Z</time>
      </trkpt>
      <trkpt lat="44.06085" lon="6.85559">
        <ele>794</ele>
        <time>2020-06-05T12:00:37.000Z</time>
      </trkpt>
      <trkpt lat="44.06085" lon="6.85559">
        <ele>794</ele>
        <time>2020-06-05T12:00:38.000Z</time>
      </trkpt>
      <trkpt lat="44.06085" lon="6.85559">
        <ele>794</ele>
        <time>2020-06-05T12:00:39.000Z</time>
      </trkpt>
      <trkpt lat="44.06085" lon="6.85559">
        <ele>794</ele>
        <time>2020-06-05T12:00:40.000Z</time>
      </trkpt>
      <trkpt lat="44.06085" lon="6.8556">
        <ele>794</ele>
        <time>2020-06-05T12:00:41.000Z</time>
      </trkpt>
      <trkpt lat="44.06085" lon="6.8556">
        <ele>794</ele>
        <time>2020-06-05T12:00:42.000Z</time>
      </trkpt>
      <trkpt lat="44.06085" lon="6.85559">
        <ele>794</ele>
        <time>2020-06-05T12:00:43.000Z</time>
      </trkpt>
      <trkpt lat="44.06085" lon="6.85559">
        <ele>793</ele>
        <time>2020-06-05T12:00:44.000Z</time>
      </trkpt>
      <trkpt lat="44.06085" lon="6.85559">
        <ele>793</ele>
        <time>2020-06-05T12:00:45.000Z</time>
      </trkpt>
      <trkpt lat="44.06085" lon="6.85559">
        <ele>793</ele>
        <time>2020-06-05T12:00:46.000Z</time>
      </trkpt>
      <trkpt lat="44.06085" lon="6.85559">
        <ele>793</ele>
        <time>2020-06-05T12:00:47.000Z</time>
      </trkpt>
      <trkpt lat="44.06085" lon="6.85559">
        <ele>793</ele>
        <time>2020-06-05T12:00:48.000Z</time>
      </trkpt>
      <trkpt lat="44.06085" lon="6.85559">
        <ele>793</ele>
        <time>2020-06-05T12:00:49.000Z</time>
      </trkpt>
      <trkpt lat="44.06086" lon="6.85559">
        <ele>794</ele>
        <time>2020-06-05T12:00:50.000Z</time>
      </trkpt>
      <trkpt lat="44.06086" lon="6.85559">
        <ele>794</ele>
        <time>2020-06-05T12:00:51.000Z</time>
      </trkpt>
      <trkpt lat="44.06086" lon="6.85559">
        <ele>794</ele>
        <time>2020-06-05T12:00:52.000Z</time>
      </trkpt>
      <trkpt lat="44.06086" lon="6.85559">
        <ele>794</ele>
        <time>2020-06-05T12:00:53.000Z</time>
      </trkpt>
      <trkpt lat="44.06086" lon="6.8556">
        <ele>794</ele>
        <time>2020-06-05T12:00:54.000Z</time>
      </trkpt>
      <trkpt lat="44.06086" lon="6.8556">
        <ele>794</ele>
        <time>2020-06-05T12:00:55.000Z</time>
      </trkpt>
      <trkpt lat="44.06086" lon="6.8556">
        <ele>794</ele>
        <time>2020-06-05T12:00:56.000Z</time>
      </trkpt>
      <trkpt lat="44.06085" lon="6.8556">
        <ele>793</ele>
        <time>2020-06-05T12:00:57.000Z</time>
      </trkpt>
      <trkpt lat="44.06085" lon="6.8556">
        <ele>793</ele>
        <time>2020-06-05T12:00:58.000Z</time>
      </trkpt>
      <trkpt lat="44.06085" lon="6.8556">
        <ele>793</ele>
        <time>2020-06-05T12:00:59.000Z</time>
      </trkpt>
      <trkpt lat="44.06085" lon="6.8556">
        <ele>793</ele>
        <time>2020-06-05T12:01:00.000Z</time>
      </trkpt>
      <trkpt lat="44.06085" lon="6.8556">
        <ele>793</ele>
        <time>2020-06-05T12:01:01.000Z</time>
      </trkpt>
      <trkpt lat="44.06085" lon="6.8556">
        <ele>793</ele>
        <time>2020-06-05T12:01:02.000Z</time>
      </trkpt>
      <trkpt lat="44.06085" lon="6.8556">
        <ele>793</ele>
        <time>2020-06-05T12:01:03.000Z</time>
      </trkpt>
      <trkpt lat="44.06085" lon="6.8556">
        <ele>793</ele>
        <time>2020-06-05T12:01:04.000Z</time>
      </trkpt>
      <trkpt lat="44.06085" lon="6.8556">
        <ele>793</ele>
        <time>2020-06-05T12:01:05.000Z</time>
      </trkpt>
      <trkpt lat="44.06085" lon="6.8556">
        <ele>793</ele>
        <time>2020-06-05T12:01:06.000Z</time>
      </trkpt>
      <trkpt lat="44.06085" lon="6.8556">
        <ele>793</ele>
        <time>2020-06-05T12:01:07.000Z</time>
      </trkpt>
      <trkpt lat="44.06085" lon="6.8556">
        <ele>793</ele>
        <time>2020-06-05T12:01:08.000Z</time>
      </trkpt>
      <trkpt lat="44.06085" lon="6.8556">
        <ele>793</ele>
        <time>2020-06-05T12:01:09.000Z</time>
      </trkpt>
      <trkpt lat="44.06084" lon="6.8556">
        <ele>793</ele>
        <time>2020-06-05T12:01:10.000Z</time>
      </trkpt>
      <trkpt lat="44.06084" lon="6.8556">
        <ele>793</ele>
        <time>2020-06-05T12:01:11.000Z</time>
      </trkpt>
      <trkpt lat="44.06084" lon="6.8556">
        <ele>793</ele>
        <time>2020-06-05T12:01:12.000Z</time>
      </trkpt>
      <trkpt lat="44.06084" lon="6.8556">
        <ele>793</ele>
        <time>2020-06-05T12:01:13.000Z</time>
      </trkpt>
      <trkpt lat="44.06084" lon="6.8556">
        <ele>792</ele>
        <time>2020-06-05T12:01:14.000Z</time>
      </trkpt>
      <trkpt lat="44.06084" lon="6.8556">
        <ele>792</ele>
        <time>2020-06-05T12:01:15.000Z</time>
      </trkpt>
      <trkpt lat="44.06084" lon="6.8556">
        <ele>792</ele>
        <time>2020-06-05T12:01:16.000Z</time>
      </trkpt>
      <trkpt lat="44.06084" lon="6.85561">
        <ele>792</ele>
        <time>2020-06-05T12:01:17.000Z</time>
      </trkpt>
      <trkpt lat="44.06084" lon="6.85561">
        <ele>792</ele>
        <time>2020-06-05T12:01:18.000Z</time>
      </trkpt>
      <trkpt lat="44.06083" lon="6.85561">
        <ele>792</ele>
        <time>2020-06-05T12:01:19.000Z</time>
      </trkpt>
      <trkpt lat="44.06083" lon="6.85561">
        <ele>792</ele>
        <time>2020-06-05T12:01:20.000Z</time>
      </trkpt>
      <trkpt lat="44.06083" lon="6.85561">
        <ele>792</ele>
        <time>2020-06-05T12:01:21.000Z</time>
      </trkpt>
      <trkpt lat="44.06083" lon="6.85561">
        <ele>792</ele>
        <time>2020-06-05T12:01:22.000Z</time>
      </trkpt>
      <trkpt lat="44.06083" lon="6.85561">
        <ele>792</ele>
        <time>2020-06-05T12:01:23.000Z</time>
      </trkpt>
      <trkpt lat="44.06083" lon="6.85561">
        <ele>792</ele>
        <time>2020-06-05T12:01:24.000Z</time>
      </trkpt>
      <trkpt lat="44.06083" lon="6.85561">
        <ele>792</ele>
        <time>2020-06-05T12:01:25.000Z</time>
      </trkpt>
      <trkpt lat="44.06083" lon="6.85561">
        <ele>792</ele>
        <time>2020-06-05T12:01:26.000Z</time>
      </trkpt>
      <trkpt lat="44.06083" lon="6.85561">
        <ele>792</ele>
        <time>2020-06-05T12:01:27.000Z</time>
      </trkpt>
      <trkpt lat="44.06083" lon="6.85561">
        <ele>792</ele>
        <time>2020-06-05T12:01:28.000Z</time>
      </trkpt>
      <trkpt lat="44.06083" lon="6.85561">
        <ele>791</ele>
        <time>2020-06-05T12:01:29.000Z</time>
      </trkpt>
      <trkpt lat="44.06083" lon="6.85562">
        <ele>791</ele>
        <time>2020-06-05T12:01:30.000Z</time>
      </trkpt>
      <trkpt lat="44.06083" lon="6.85562">
        <ele>791</ele>
        <time>2020-06-05T12:01:31.000Z</time>
      </trkpt>
      <trkpt lat="44.06083" lon="6.85562">
        <ele>791</ele>
        <time>2020-06-05T12:01:32.000Z</time>
      </trkpt>
      <trkpt lat="44.06083" lon="6.85562">
        <ele>791</ele>
        <time>2020-06-05T12:01:33.000Z</time>
      </trkpt>
      <trkpt lat="44.06083" lon="6.85562">
        <ele>791</ele>
        <time>2020-06-05T12:01:34.000Z</time>
      </trkpt>
      <trkpt lat="44.06083" lon="6.85562">
        <ele>791</ele>
        <time>2020-06-05T12:01:35.000Z</time>
      </trkpt>
      <trkpt lat="44.06082" lon="6.85562">
        <ele>791</ele>
        <time>2020-06-05T12:01:36.000Z</time>
      </trkpt>
      <trkpt lat="44.06082" lon="6.85562">
        <ele>791</ele>
        <time>2020-06-05T12:01:37.000Z</time>
      </trkpt>
      <trkpt lat="44.06082" lon="6.85562">
        <ele>791</ele>
        <time>2020-06-05T12:01:38.000Z</time>
      </trkpt>
      <trkpt lat="44.06082" lon="6.85562">
        <ele>791</ele>
        <time>2020-06-05T12:01:39.000Z</time>
      </trkpt>
      <trkpt lat="44.06082" lon="6.85562">
        <ele>791</ele>
        <time>2020-06-05T12:01:40.000Z</time>
      </trkpt>
      <trkpt lat="44.06082" lon="6.85562">
        <ele>791</ele>
        <time>2020-06-05T12:01:41.000Z</time>
      </trkpt>
      <trkpt lat="44.06082" lon="6.85563">
        <ele>791</ele>
        <time>2020-06-05T12:01:42.000Z</time>
      </trkpt>
      <trkpt lat="44.06083" lon="6.85564">
        <ele>791</ele>
        <time>2020-06-05T12:01:43.000Z</time>
      </trkpt>
      <trkpt lat="44.06083" lon="6.85565">
        <ele>791</ele>
        <time>2020-06-05T12:01:44.000Z</time>
      </trkpt>
      <trkpt lat="44.06083" lon="6.85566">
        <ele>791</ele>
        <time>2020-06-05T12:01:45.000Z</time>
      </trkpt>
      <trkpt lat="44.06083" lon="6.85567">
        <ele>791</ele>
        <time>2020-06-05T12:01:46.000Z</time>
      </trkpt>
      <trkpt lat="44.06082" lon="6.85568">
        <ele>791</ele>
        <time>2020-06-05T12:01:47.000Z</time>
      </trkpt>
      <trkpt lat="44.06082" lon="6.8557">
        <ele>791</ele>
        <time>2020-06-05T12:01:48.000Z</time>
      </trkpt>
      <trkpt lat="44.06082" lon="6.85571">
        <ele>791</ele>
        <time>2020-06-05T12:01:49.000Z</time>
      </trkpt>
      <trkpt lat="44.06083" lon="6.85573">
        <ele>791</ele>
        <time>2020-06-05T12:01:50.000Z</time>
      </trkpt>
      <trkpt lat="44.06083" lon="6.85574">
        <ele>791</ele>
        <time>2020-06-05T12:01:51.000Z</time>
      </trkpt>
      <trkpt lat="44.06083" lon="6.85575">
        <ele>791</ele>
        <time>2020-06-05T12:01:52.000Z</time>
      </trkpt>
      <trkpt lat="44.06083" lon="6.85577">
        <ele>791</ele>
        <time>2020-06-05T12:01:53.000Z</time>
      </trkpt>
      <trkpt lat="44.06084" lon="6.85578">
        <ele>791</ele>
        <time>2020-06-05T12:01:54.000Z</time>
      </trkpt>
      <trkpt lat="44.06084" lon="6.8558">
        <ele>791</ele>
        <time>2020-06-05T12:01:55.000Z</time>
      </trkpt>
      <trkpt lat="44.06084" lon="6.85581">
        <ele>791</ele>
        <time>2020-06-05T12:01:56.000Z</time>
      </trkpt>
      <trkpt lat="44.06084" lon="6.85582">
        <ele>792</ele>
        <time>2020-06-05T12:01:57.000Z</time>
      </trkpt>
      <trkpt lat="44.06084" lon="6.85583">
        <ele>792</ele>
        <time>2020-06-05T12:01:58.000Z</time>
      </trkpt>
      <trkpt lat="44.06084" lon="6.85585">
        <ele>792</ele>
        <time>2020-06-05T12:01:59.000Z</time>
      </trkpt>
      <trkpt lat="44.06085" lon="6.85585">
        <ele>792</ele>
        <time>2020-06-05T12:02:00.000Z</time>
      </trkpt>
      <trkpt lat="44.06085" lon="6.85586">
        <ele>792</ele>
        <time>2020-06-05T12:02:01.000Z</time>
      </trkpt>
      <trkpt lat="44.06086" lon="6.85587">
        <ele>792</ele>
        <time>2020-06-05T12:02:02.000Z</time>
      </trkpt>
      <trkpt lat="44.06087" lon="6.85588">
        <ele>792</ele>
        <time>2020-06-05T12:02:03.000Z</time>
      </trkpt>
      <trkpt lat="44.06087" lon="6.85589">
        <ele>792</ele>
        <time>2020-06-05T12:02:04.000Z</time>
      </trkpt>
      <trkpt lat="44.06088" lon="6.8559">
        <ele>792</ele>
        <time>2020-06-05T12:02:05.000Z</time>
      </trkpt>
      <trkpt lat="44.06089" lon="6.85591">
        <ele>792</ele>
        <time>2020-06-05T12:02:06.000Z</time>
      </trkpt>
      <trkpt lat="44.06089" lon="6.85592">
        <ele>792</ele>
        <time>2020-06-05T12:02:07.000Z</time>
      </trkpt>
      <trkpt lat="44.0609" lon="6.85592">
        <ele>792</ele>
        <time>2020-06-05T12:02:08.000Z</time>
      </trkpt>
      <trkpt lat="44.0609" lon="6.85592">
        <ele>792</ele>
        <time>2020-06-05T12:02:14.000Z</time>
      </trkpt>
      <trkpt lat="44.0609" lon="6.85592">
        <ele>792</ele>
        <time>2020-06-05T12:02:15.000Z</time>
      </trkpt>
      <trkpt lat="44.06092" lon="6.85598">
        <ele>792</ele>
        <time>2020-06-05T12:02:16.000Z</time>
      </trkpt>
      <trkpt lat="44.06092" lon="6.85598">
        <ele>792</ele>
        <time>2020-06-05T12:02:17.000Z</time>
      </trkpt>
      <trkpt lat="44.06091" lon="6.85599">
        <ele>792</ele>
        <time>2020-06-05T12:02:18.000Z</time>
      </trkpt>
      <trkpt lat="44.06091" lon="6.85599">
        <ele>792</ele>
        <time>2020-06-05T12:02:19.000Z</time>
      </trkpt>
      <trkpt lat="44.06092" lon="6.856">
        <ele>792</ele>
        <time>2020-06-05T12:02:20.000Z</time>
      </trkpt>
      <trkpt lat="44.06092" lon="6.85601">
        <ele>792</ele>
        <time>2020-06-05T12:02:21.000Z</time>
      </trkpt>
      <trkpt lat="44.06093" lon="6.85603">
        <ele>792</ele>
        <time>2020-06-05T12:02:22.000Z</time>
      </trkpt>
      <trkpt lat="44.06094" lon="6.85605">
        <ele>791</ele>
        <time>2020-06-05T12:02:23.000Z</time>
      </trkpt>
      <trkpt lat="44.06094" lon="6.85607">
        <ele>791</ele>
        <time>2020-06-05T12:02:24.000Z</time>
      </trkpt>
      <trkpt lat="44.06095" lon="6.85609">
        <ele>790</ele>
        <time>2020-06-05T12:02:25.000Z</time>
      </trkpt>
      <trkpt lat="44.06096" lon="6.85611">
        <ele>790</ele>
        <time>2020-06-05T12:02:26.000Z</time>
      </trkpt>
      <trkpt lat="44.06096" lon="6.85613">
        <ele>789</ele>
        <time>2020-06-05T12:02:27.000Z</time>
      </trkpt>
      <trkpt lat="44.06097" lon="6.85615">
        <ele>789</ele>
        <time>2020-06-05T12:02:28.000Z</time>
      </trkpt>
      <trkpt lat="44.06097" lon="6.85617">
        <ele>788</ele>
        <time>2020-06-05T12:02:29.000Z</time>
      </trkpt>
      <trkpt lat="44.06098" lon="6.85618">
        <ele>788</ele>
        <time>2020-06-05T12:02:30.000Z</time>
      </trkpt>
      <trkpt lat="44.06099" lon="6.8562">
        <ele>788</ele>
        <time>2020-06-05T12:02:31.000Z</time>
      </trkpt>
      <trkpt lat="44.06099" lon="6.85621">
        <ele>787</ele>
        <time>2020-06-05T12:02:32.000Z</time>
      </trkpt>
      <trkpt lat="44.06099" lon="6.85623">
        <ele>787</ele>
        <time>2020-06-05T12:02:33.000Z</time>
      </trkpt>
      <trkpt lat="44.061" lon="6.85624">
        <ele>786</ele>
        <time>2020-06-05T12:02:34.000Z</time>
      </trkpt>
      <trkpt lat="44.061" lon="6.85626">
        <ele>785</ele>
        <time>2020-06-05T12:02:35.000Z</time>
      </trkpt>
      <trkpt lat="44.06101" lon="6.85627">
        <ele>785</ele>
        <time>2020-06-05T12:02:36.000Z</time>
      </trkpt>
      <trkpt lat="44.06102" lon="6.85629">
        <ele>784</ele>
        <time>2020-06-05T12:02:37.000Z</time>
      </trkpt>
      <trkpt lat="44.06102" lon="6.8563">
        <ele>784</ele>
        <time>2020-06-05T12:02:38.000Z</time>
      </trkpt>
      <trkpt lat="44.06103" lon="6.85631">
        <ele>784</ele>
        <time>2020-06-05T12:02:39.000Z</time>
      </trkpt>
      <trkpt lat="44.0611" lon="6.85627">
        <ele>784</ele>
        <time>2020-06-05T12:02:40.000Z</time>
      </trkpt>
      <trkpt lat="44.06112" lon="6.85629">
        <ele>784</ele>
        <time>2020-06-05T12:02:41.000Z</time>
      </trkpt>
      <trkpt lat="44.06114" lon="6.8563">
        <ele>783</ele>
        <time>2020-06-05T12:02:42.000Z</time>
      </trkpt>
      <trkpt lat="44.06117" lon="6.85631">
        <ele>783</ele>
        <time>2020-06-05T12:02:43.000Z</time>
      </trkpt>
      <trkpt lat="44.06119" lon="6.85632">
        <ele>783</ele>
        <time>2020-06-05T12:02:44.000Z</time>
      </trkpt>
      <trkpt lat="44.06121" lon="6.85633">
        <ele>783</ele>
        <time>2020-06-05T12:02:45.000Z</time>
      </trkpt>
      <trkpt lat="44.06123" lon="6.85634">
        <ele>782</ele>
        <time>2020-06-05T12:02:46.000Z</time>
      </trkpt>
      <trkpt lat="44.06124" lon="6.85635">
        <ele>782</ele>
        <time>2020-06-05T12:02:47.000Z</time>
      </trkpt>
      <trkpt lat="44.06125" lon="6.85636">
        <ele>782</ele>
        <time>2020-06-05T12:02:48.000Z</time>
      </trkpt>
      <trkpt lat="44.06126" lon="6.85637">
        <ele>781</ele>
        <time>2020-06-05T12:02:49.000Z</time>
      </trkpt>
      <trkpt lat="44.06126" lon="6.85638">
        <ele>781</ele>
        <time>2020-06-05T12:02:50.000Z</time>
      </trkpt>
      <trkpt lat="44.06127" lon="6.85639">
        <ele>780</ele>
        <time>2020-06-05T12:02:51.000Z</time>
      </trkpt>
      <trkpt lat="44.06127" lon="6.85639">
        <ele>780</ele>
        <time>2020-06-05T12:02:52.000Z</time>
      </trkpt>
      <trkpt lat="44.06128" lon="6.8564">
        <ele>779</ele>
        <time>2020-06-05T12:02:53.000Z</time>
      </trkpt>
      <trkpt lat="44.06128" lon="6.85641">
        <ele>779</ele>
        <time>2020-06-05T12:02:54.000Z</time>
      </trkpt>
      <trkpt lat="44.06129" lon="6.85642">
        <ele>778</ele>
        <time>2020-06-05T12:02:55.000Z</time>
      </trkpt>
      <trkpt lat="44.06129" lon="6.85643">
        <ele>778</ele>
        <time>2020-06-05T12:02:56.000Z</time>
      </trkpt>
      <trkpt lat="44.06129" lon="6.85644">
        <ele>778</ele>
        <time>2020-06-05T12:02:57.000Z</time>
      </trkpt>
      <trkpt lat="44.06129" lon="6.85644">
        <ele>777</ele>
        <time>2020-06-05T12:02:58.000Z</time>
      </trkpt>
      <trkpt lat="44.0613" lon="6.85645">
        <ele>777</ele>
        <time>2020-06-05T12:02:59.000Z</time>
      </trkpt>
      <trkpt lat="44.0613" lon="6.85645">
        <ele>777</ele>
        <time>2020-06-05T12:03:00.000Z</time>
      </trkpt>
      <trkpt lat="44.0613" lon="6.85645">
        <ele>777</ele>
        <time>2020-06-05T12:03:01.000Z</time>
      </trkpt>
      <trkpt lat="44.06131" lon="6.85645">
        <ele>776</ele>
        <time>2020-06-05T12:03:02.000Z</time>
      </trkpt>
      <trkpt lat="44.06131" lon="6.85645">
        <ele>776</ele>
        <time>2020-06-05T12:03:03.000Z</time>
      </trkpt>
      <trkpt lat="44.06132" lon="6.85645">
        <ele>776</ele>
        <time>2020-06-05T12:03:04.000Z</time>
      </trkpt>
      <trkpt lat="44.06133" lon="6.85645">
        <ele>776</ele>
        <time>2020-06-05T12:03:05.000Z</time>
      </trkpt>
      <trkpt lat="44.06135" lon="6.85646">
        <ele>776</ele>
        <time>2020-06-05T12:03:06.000Z</time>
      </trkpt>
      <trkpt lat="44.06136" lon="6.85646">
        <ele>776</ele>
        <time>2020-06-05T12:03:07.000Z</time>
      </trkpt>
      <trkpt lat="44.06137" lon="6.85646">
        <ele>776</ele>
        <time>2020-06-05T12:03:08.000Z</time>
      </trkpt>
      <trkpt lat="44.06139" lon="6.85647">
        <ele>776</ele>
        <time>2020-06-05T12:03:09.000Z</time>
      </trkpt>
      <trkpt lat="44.06141" lon="6.85647">
        <ele>777</ele>
        <time>2020-06-05T12:03:10.000Z</time>
      </trkpt>
      <trkpt lat="44.06142" lon="6.85647">
        <ele>777</ele>
        <time>2020-06-05T12:03:11.000Z</time>
      </trkpt>
      <trkpt lat="44.06143" lon="6.85647">
        <ele>777</ele>
        <time>2020-06-05T12:03:12.000Z</time>
      </trkpt>
      <trkpt lat="44.06145" lon="6.85647">
        <ele>777</ele>
        <time>2020-06-05T12:03:13.000Z</time>
      </trkpt>
      <trkpt lat="44.06146" lon="6.85648">
        <ele>777</ele>
        <time>2020-06-05T12:03:14.000Z</time>
      </trkpt>
      <trkpt lat="44.06147" lon="6.85648">
        <ele>778</ele>
        <time>2020-06-05T12:03:15.000Z</time>
      </trkpt>
      <trkpt lat="44.06148" lon="6.85648">
        <ele>778</ele>
        <time>2020-06-05T12:03:16.000Z</time>
      </trkpt>
      <trkpt lat="44.06149" lon="6.85648">
        <ele>778</ele>
        <time>2020-06-05T12:03:17.000Z</time>
      </trkpt>
      <trkpt lat="44.0615" lon="6.85648">
        <ele>778</ele>
        <time>2020-06-05T12:03:18.000Z</time>
      </trkpt>
      <trkpt lat="44.06151" lon="6.85648">
        <ele>778</ele>
        <time>2020-06-05T12:03:19.000Z</time>
      </trkpt>
      <trkpt lat="44.06152" lon="6.85648">
        <ele>779</ele>
        <time>2020-06-05T12:03:20.000Z</time>
      </trkpt>
      <trkpt lat="44.06154" lon="6.85649">
        <ele>779</ele>
        <time>2020-06-05T12:03:21.000Z</time>
      </trkpt>
      <trkpt lat="44.06155" lon="6.85649">
        <ele>779</ele>
        <time>2020-06-05T12:03:22.000Z</time>
      </trkpt>
      <trkpt lat="44.06155" lon="6.85649">
        <ele>779</ele>
        <time>2020-06-05T12:03:23.000Z</time>
      </trkpt>
      <trkpt lat="44.06157" lon="6.85649">
        <ele>780</ele>
        <time>2020-06-05T12:03:24.000Z</time>
      </trkpt>
      <trkpt lat="44.06158" lon="6.85649">
        <ele>780</ele>
        <time>2020-06-05T12:03:25.000Z</time>
      </trkpt>
      <trkpt lat="44.06159" lon="6.8565">
        <ele>780</ele>
        <time>2020-06-05T12:03:26.000Z</time>
      </trkpt>
      <trkpt lat="44.0616" lon="6.8565">
        <ele>780</ele>
        <time>2020-06-05T12:03:27.000Z</time>
      </trkpt>
      <trkpt lat="44.06161" lon="6.8565">
        <ele>780</ele>
        <time>2020-06-05T12:03:28.000Z</time>
      </trkpt>
      <trkpt lat="44.06162" lon="6.8565">
        <ele>780</ele>
        <time>2020-06-05T12:03:29.000Z</time>
      </trkpt>
      <trkpt lat="44.06163" lon="6.8565">
        <ele>780</ele>
        <time>2020-06-05T12:03:30.000Z</time>
      </trkpt>
      <trkpt lat="44.06165" lon="6.85649">
        <ele>780</ele>
        <time>2020-06-05T12:03:31.000Z</time>
      </trkpt>
      <trkpt lat="44.06166" lon="6.85649">
        <ele>780</ele>
        <time>2020-06-05T12:03:32.000Z</time>
      </trkpt>
      <trkpt lat="44.06167" lon="6.8565">
        <ele>781</ele>
        <time>2020-06-05T12:03:33.000Z</time>
      </trkpt>
      <trkpt lat="44.06168" lon="6.85649">
        <ele>781</ele>
        <time>2020-06-05T12:03:34.000Z</time>
      </trkpt>
      <trkpt lat="44.06169" lon="6.85649">
        <ele>781</ele>
        <time>2020-06-05T12:03:35.000Z</time>
      </trkpt>
      <trkpt lat="44.0617" lon="6.85649">
        <ele>781</ele>
        <time>2020-06-05T12:03:36.000Z</time>
      </trkpt>
      <trkpt lat="44.06171" lon="6.85649">
        <ele>781</ele>
        <time>2020-06-05T12:03:37.000Z</time>
      </trkpt>
      <trkpt lat="44.06172" lon="6.85649">
        <ele>781</ele>
        <time>2020-06-05T12:03:38.000Z</time>
      </trkpt>
      <trkpt lat="44.06173" lon="6.85649">
        <ele>782</ele>
        <time>2020-06-05T12:03:39.000Z</time>
      </trkpt>
      <trkpt lat="44.06174" lon="6.85648">
        <ele>782</ele>
        <time>2020-06-05T12:03:40.000Z</time>
      </trkpt>
      <trkpt lat="44.06176" lon="6.85648">
        <ele>782</ele>
        <time>2020-06-05T12:03:41.000Z</time>
      </trkpt>
      <trkpt lat="44.06177" lon="6.85648">
        <ele>782</ele>
        <time>2020-06-05T12:03:42.000Z</time>
      </trkpt>
      <trkpt lat="44.06178" lon="6.85648">
        <ele>782</ele>
        <time>2020-06-05T12:03:43.000Z</time>
      </trkpt>
      <trkpt lat="44.0618" lon="6.85648">
        <ele>782</ele>
        <time>2020-06-05T12:03:44.000Z</time>
      </trkpt>
      <trkpt lat="44.06181" lon="6.85647">
        <ele>782</ele>
        <time>2020-06-05T12:03:45.000Z</time>
      </trkpt>
      <trkpt lat="44.06182" lon="6.85647">
        <ele>783</ele>
        <time>2020-06-05T12:03:46.000Z</time>
      </trkpt>
      <trkpt lat="44.06183" lon="6.85647">
        <ele>783</ele>
        <time>2020-06-05T12:03:47.000Z</time>
      </trkpt>
      <trkpt lat="44.06184" lon="6.85647">
        <ele>783</ele>
        <time>2020-06-05T12:03:48.000Z</time>
      </trkpt>
      <trkpt lat="44.06185" lon="6.85646">
        <ele>783</ele>
        <time>2020-06-05T12:03:49.000Z</time>
      </trkpt>
      <trkpt lat="44.06187" lon="6.85646">
        <ele>783</ele>
        <time>2020-06-05T12:03:50.000Z</time>
      </trkpt>
      <trkpt lat="44.06188" lon="6.85645">
        <ele>783</ele>
        <time>2020-06-05T12:03:51.000Z</time>
      </trkpt>
      <trkpt lat="44.06189" lon="6.85645">
        <ele>783</ele>
        <time>2020-06-05T12:03:52.000Z</time>
      </trkpt>
      <trkpt lat="44.0619" lon="6.85644">
        <ele>783</ele>
        <time>2020-06-05T12:03:53.000Z</time>
      </trkpt>
      <trkpt lat="44.06191" lon="6.85644">
        <ele>783</ele>
        <time>2020-06-05T12:03:54.000Z</time>
      </trkpt>
      <trkpt lat="44.06192" lon="6.85643">
        <ele>783</ele>
        <time>2020-06-05T12:03:55.000Z</time>
      </trkpt>
      <trkpt lat="44.06193" lon="6.85643">
        <ele>783</ele>
        <time>2020-06-05T12:03:56.000Z</time>
      </trkpt>
      <trkpt lat="44.06194" lon="6.85643">
        <ele>783</ele>
        <time>2020-06-05T12:03:57.000Z</time>
      </trkpt>
      <trkpt lat="44.06195" lon="6.85642">
        <ele>783</ele>
        <time>2020-06-05T12:03:58.000Z</time>
      </trkpt>
      <trkpt lat="44.06196" lon="6.85641">
        <ele>783</ele>
        <time>2020-06-05T12:03:59.000Z</time>
      </trkpt>
      <trkpt lat="44.06197" lon="6.85641">
        <ele>783</ele>
        <time>2020-06-05T12:04:00.000Z</time>
      </trkpt>
      <trkpt lat="44.06198" lon="6.8564">
        <ele>783</ele>
        <time>2020-06-05T12:04:01.000Z</time>
      </trkpt>
      <trkpt lat="44.06199" lon="6.8564">
        <ele>784</ele>
        <time>2020-06-05T12:04:02.000Z</time>
      </trkpt>
      <trkpt lat="44.062" lon="6.85639">
        <ele>784</ele>
        <time>2020-06-05T12:04:03.000Z</time>
      </trkpt>
      <trkpt lat="44.06202" lon="6.85638">
        <ele>784</ele>
        <time>2020-06-05T12:04:04.000Z</time>
      </trkpt>
      <trkpt lat="44.06203" lon="6.85637">
        <ele>784</ele>
        <time>2020-06-05T12:04:05.000Z</time>
      </trkpt>
      <trkpt lat="44.06203" lon="6.85636">
        <ele>784</ele>
        <time>2020-06-05T12:04:06.000Z</time>
      </trkpt>
      <trkpt lat="44.06204" lon="6.85636">
        <ele>784</ele>
        <time>2020-06-05T12:04:07.000Z</time>
      </trkpt>
      <trkpt lat="44.06205" lon="6.85636">
        <ele>784</ele>
        <time>2020-06-05T12:04:08.000Z</time>
      </trkpt>
      <trkpt lat="44.06206" lon="6.85635">
        <ele>783</ele>
        <time>2020-06-05T12:04:09.000Z</time>
      </trkpt>
      <trkpt lat="44.06208" lon="6.85634">
        <ele>783</ele>
        <time>2020-06-05T12:04:10.000Z</time>
      </trkpt>
      <trkpt lat="44.06209" lon="6.85634">
        <ele>783</ele>
        <time>2020-06-05T12:04:11.000Z</time>
      </trkpt>
      <trkpt lat="44.0621" lon="6.85633">
        <ele>783</ele>
        <time>2020-06-05T12:04:12.000Z</time>
      </trkpt>
      <trkpt lat="44.06211" lon="6.85632">
        <ele>783</ele>
        <time>2020-06-05T12:04:13.000Z</time>
      </trkpt>
      <trkpt lat="44.06212" lon="6.85632">
        <ele>783</ele>
        <time>2020-06-05T12:04:14.000Z</time>
      </trkpt>
      <trkpt lat="44.06213" lon="6.85631">
        <ele>783</ele>
        <time>2020-06-05T12:04:15.000Z</time>
      </trkpt>
      <trkpt lat="44.06214" lon="6.8563">
        <ele>783</ele>
        <time>2020-06-05T12:04:16.000Z</time>
      </trkpt>
      <trkpt lat="44.06215" lon="6.85629">
        <ele>783</ele>
        <time>2020-06-05T12:04:17.000Z</time>
      </trkpt>
      <trkpt lat="44.06216" lon="6.85629">
        <ele>783</ele>
        <time>2020-06-05T12:04:18.000Z</time>
      </trkpt>
      <trkpt lat="44.06217" lon="6.85628">
        <ele>783</ele>
        <time>2020-06-05T12:04:19.000Z</time>
      </trkpt>
      <trkpt lat="44.06218" lon="6.85627">
        <ele>783</ele>
        <time>2020-06-05T12:04:20.000Z</time>
      </trkpt>
      <trkpt lat="44.06219" lon="6.85627">
        <ele>783</ele>
        <time>2020-06-05T12:04:21.000Z</time>
      </trkpt>
      <trkpt lat="44.0622" lon="6.85626">
        <ele>783</ele>
        <time>2020-06-05T12:04:22.000Z</time>
      </trkpt>
      <trkpt lat="44.06221" lon="6.85625">
        <ele>783</ele>
        <time>2020-06-05T12:04:23.000Z</time>
      </trkpt>
      <trkpt lat="44.06222" lon="6.85625">
        <ele>783</ele>
        <time>2020-06-05T12:04:24.000Z</time>
      </trkpt>
      <trkpt lat="44.06222" lon="6.85625">
        <ele>783</ele>
        <time>2020-06-05T12:04:25.000Z</time>
      </trkpt>
      <trkpt lat="44.06223" lon="6.85625">
        <ele>783</ele>
        <time>2020-06-05T12:04:26.000Z</time>
      </trkpt>
      <trkpt lat="44.06223" lon="6.85625">
        <ele>783</ele>
        <time>2020-06-05T12:04:27.000Z</time>
      </trkpt>
      <trkpt lat="44.06223" lon="6.85625">
        <ele>783</ele>
        <time>2020-06-05T12:04:28.000Z</time>
      </trkpt>
      <trkpt lat="44.06223" lon="6.85625">
        <ele>783</ele>
        <time>2020-06-05T12:04:29.000Z</time>
      </trkpt>
      <trkpt lat="44.06223" lon="6.85625">
        <ele>783</ele>
        <time>2020-06-05T12:04:30.000Z</time>
      </trkpt>
      <trkpt lat="44.06223" lon="6.85625">
        <ele>783</ele>
        <time>2020-06-05T12:04:31.000Z</time>
      </trkpt>
      <trkpt lat="44.06223" lon="6.85624">
        <ele>783</ele>
        <time>2020-06-05T12:04:32.000Z</time>
      </trkpt>
      <trkpt lat="44.06223" lon="6.85624">
        <ele>783</ele>
        <time>2020-06-05T12:04:33.000Z</time>
      </trkpt>
      <trkpt lat="44.06224" lon="6.85624">
        <ele>783</ele>
        <time>2020-06-05T12:04:34.000Z</time>
      </trkpt>
      <trkpt lat="44.06225" lon="6.85623">
        <ele>783</ele>
        <time>2020-06-05T12:04:35.000Z</time>
      </trkpt>
      <trkpt lat="44.06226" lon="6.85622">
        <ele>783</ele>
        <time>2020-06-05T12:04:36.000Z</time>
      </trkpt>
      <trkpt lat="44.06227" lon="6.85622">
        <ele>783</ele>
        <time>2020-06-05T12:04:37.000Z</time>
      </trkpt>
      <trkpt lat="44.06228" lon="6.85621">
        <ele>783</ele>
        <time>2020-06-05T12:04:38.000Z</time>
      </trkpt>
      <trkpt lat="44.06228" lon="6.8562">
        <ele>783</ele>
        <time>2020-06-05T12:04:39.000Z</time>
      </trkpt>
      <trkpt lat="44.06229" lon="6.85619">
        <ele>783</ele>
        <time>2020-06-05T12:04:40.000Z</time>
      </trkpt>
      <trkpt lat="44.0623" lon="6.85619">
        <ele>783</ele>
        <time>2020-06-05T12:04:41.000Z</time>
      </trkpt>
      <trkpt lat="44.06231" lon="6.85618">
        <ele>783</ele>
        <time>2020-06-05T12:04:42.000Z</time>
      </trkpt>
      <trkpt lat="44.06232" lon="6.85618">
        <ele>783</ele>
        <time>2020-06-05T12:04:43.000Z</time>
      </trkpt>
      <trkpt lat="44.06233" lon="6.85617">
        <ele>783</ele>
        <time>2020-06-05T12:04:44.000Z</time>
      </trkpt>
      <trkpt lat="44.06234" lon="6.85617">
        <ele>783</ele>
        <time>2020-06-05T12:04:45.000Z</time>
      </trkpt>
      <trkpt lat="44.06235" lon="6.85616">
        <ele>783</ele>
        <time>2020-06-05T12:04:46.000Z</time>
      </trkpt>
      <trkpt lat="44.06236" lon="6.85615">
        <ele>783</ele>
        <time>2020-06-05T12:04:47.000Z</time>
      </trkpt>
      <trkpt lat="44.06237" lon="6.85615">
        <ele>783</ele>
        <time>2020-06-05T12:04:48.000Z</time>
      </trkpt>
      <trkpt lat="44.06238" lon="6.85614">
        <ele>783</ele>
        <time>2020-06-05T12:04:49.000Z</time>
      </trkpt>
      <trkpt lat="44.06239" lon="6.85614">
        <ele>783</ele>
        <time>2020-06-05T12:04:50.000Z</time>
      </trkpt>
      <trkpt lat="44.06239" lon="6.85614">
        <ele>783</ele>
        <time>2020-06-05T12:04:51.000Z</time>
      </trkpt>
      <trkpt lat="44.06239" lon="6.85614">
        <ele>783</ele>
        <time>2020-06-05T12:04:52.000Z</time>
      </trkpt>
      <trkpt lat="44.06239" lon="6.85614">
        <ele>783</ele>
        <time>2020-06-05T12:04:53.000Z</time>
      </trkpt>
      <trkpt lat="44.06239" lon="6.85613">
        <ele>783</ele>
        <time>2020-06-05T12:04:54.000Z</time>
      </trkpt>
      <trkpt lat="44.0624" lon="6.85613">
        <ele>783</ele>
        <time>2020-06-05T12:04:55.000Z</time>
      </trkpt>
      <trkpt lat="44.06241" lon="6.85613">
        <ele>783</ele>
        <time>2020-06-05T12:04:56.000Z</time>
      </trkpt>
      <trkpt lat="44.06242" lon="6.85612">
        <ele>783</ele>
        <time>2020-06-05T12:04:57.000Z</time>
      </trkpt>
      <trkpt lat="44.06243" lon="6.85612">
        <ele>783</ele>
        <time>2020-06-05T12:04:58.000Z</time>
      </trkpt>
      <trkpt lat="44.06244" lon="6.85612">
        <ele>783</ele>
        <time>2020-06-05T12:04:59.000Z</time>
      </trkpt>
      <trkpt lat="44.06244" lon="6.85612">
        <ele>783</ele>
        <time>2020-06-05T12:05:00.000Z</time>
      </trkpt>
      <trkpt lat="44.06245" lon="6.85612">
        <ele>783</ele>
        <time>2020-06-05T12:05:01.000Z</time>
      </trkpt>
      <trkpt lat="44.06246" lon="6.85612">
        <ele>783</ele>
        <time>2020-06-05T12:05:02.000Z</time>
      </trkpt>
      <trkpt lat="44.06246" lon="6.85611">
        <ele>783</ele>
        <time>2020-06-05T12:05:03.000Z</time>
      </trkpt>
      <trkpt lat="44.06247" lon="6.85612">
        <ele>783</ele>
        <time>2020-06-05T12:05:04.000Z</time>
      </trkpt>
      <trkpt lat="44.06248" lon="6.85612">
        <ele>783</ele>
        <time>2020-06-05T12:05:05.000Z</time>
      </trkpt>
      <trkpt lat="44.06249" lon="6.85612">
        <ele>783</ele>
        <time>2020-06-05T12:05:06.000Z</time>
      </trkpt>
      <trkpt lat="44.0625" lon="6.85612">
        <ele>783</ele>
        <time>2020-06-05T12:05:07.000Z</time>
      </trkpt>
      <trkpt lat="44.0625" lon="6.85612">
        <ele>783</ele>
        <time>2020-06-05T12:05:08.000Z</time>
      </trkpt>
      <trkpt lat="44.06251" lon="6.85612">
        <ele>783</ele>
        <time>2020-06-05T12:05:09.000Z</time>
      </trkpt>
      <trkpt lat="44.06251" lon="6.85613">
        <ele>783</ele>
        <time>2020-06-05T12:05:10.000Z</time>
      </trkpt>
      <trkpt lat="44.06252" lon="6.85613">
        <ele>783</ele>
        <time>2020-06-05T12:05:11.000Z</time>
      </trkpt>
      <trkpt lat="44.06253" lon="6.85612">
        <ele>783</ele>
        <time>2020-06-05T12:05:12.000Z</time>
      </trkpt>
      <trkpt lat="44.06254" lon="6.85612">
        <ele>783</ele>
        <time>2020-06-05T12:05:13.000Z</time>
      </trkpt>
      <trkpt lat="44.06255" lon="6.85612">
        <ele>783</ele>
        <time>2020-06-05T12:05:14.000Z</time>
      </trkpt>
      <trkpt lat="44.06256" lon="6.85612">
        <ele>783</ele>
        <time>2020-06-05T12:05:15.000Z</time>
      </trkpt>
      <trkpt lat="44.06257" lon="6.85612">
        <ele>783</ele>
        <time>2020-06-05T12:05:16.000Z</time>
      </trkpt>
      <trkpt lat="44.06258" lon="6.85611">
        <ele>783</ele>
        <time>2020-06-05T12:05:17.000Z</time>
      </trkpt>
      <trkpt lat="44.06259" lon="6.85611">
        <ele>783</ele>
        <time>2020-06-05T12:05:18.000Z</time>
      </trkpt>
      <trkpt lat="44.0626" lon="6.85611">
        <ele>783</ele>
        <time>2020-06-05T12:05:19.000Z</time>
      </trkpt>
      <trkpt lat="44.06261" lon="6.85611">
        <ele>783</ele>
        <time>2020-06-05T12:05:20.000Z</time>
      </trkpt>
      <trkpt lat="44.06262" lon="6.85611">
        <ele>783</ele>
        <time>2020-06-05T12:05:21.000Z</time>
      </trkpt>
      <trkpt lat="44.06262" lon="6.85611">
        <ele>783</ele>
        <time>2020-06-05T12:05:22.000Z</time>
      </trkpt>
      <trkpt lat="44.06263" lon="6.85612">
        <ele>783</ele>
        <time>2020-06-05T12:05:23.000Z</time>
      </trkpt>
      <trkpt lat="44.06264" lon="6.85612">
        <ele>783</ele>
        <time>2020-06-05T12:05:24.000Z</time>
      </trkpt>
      <trkpt lat="44.06264" lon="6.85612">
        <ele>783</ele>
        <time>2020-06-05T12:05:25.000Z</time>
      </trkpt>
      <trkpt lat="44.06264" lon="6.85612">
        <ele>783</ele>
        <time>2020-06-05T12:05:26.000Z</time>
      </trkpt>
      <trkpt lat="44.06264" lon="6.85612">
        <ele>783</ele>
        <time>2020-06-05T12:05:27.000Z</time>
      </trkpt>
      <trkpt lat="44.06264" lon="6.85612">
        <ele>783</ele>
        <time>2020-06-05T12:05:28.000Z</time>
      </trkpt>
      <trkpt lat="44.06264" lon="6.85612">
        <ele>783</ele>
        <time>2020-06-05T12:05:29.000Z</time>
      </trkpt>
      <trkpt lat="44.06264" lon="6.85612">
        <ele>783</ele>
        <time>2020-06-05T12:05:30.000Z</time>
      </trkpt>
      <trkpt lat="44.06264" lon="6.85612">
        <ele>782</ele>
        <time>2020-06-05T12:05:31.000Z</time>
      </trkpt>
      <trkpt lat="44.06264" lon="6.85612">
        <ele>782</ele>
        <time>2020-06-05T12:05:32.000Z</time>
      </trkpt>
      <trkpt lat="44.06264" lon="6.85612">
        <ele>782</ele>
        <time>2020-06-05T12:05:33.000Z</time>
      </trkpt>
      <trkpt lat="44.06264" lon="6.85612">
        <ele>782</ele>
        <time>2020-06-05T12:05:34.000Z</time>
      </trkpt>
      <trkpt lat="44.06264" lon="6.85612">
        <ele>782</ele>
        <time>2020-06-05T12:05:35.000Z</time>
      </trkpt>
      <trkpt lat="44.06264" lon="6.85612">
        <ele>782</ele>
        <time>2020-06-05T12:05:36.000Z</time>
      </trkpt>
      <trkpt lat="44.06264" lon="6.85612">
        <ele>782</ele>
        <time>2020-06-05T12:05:37.000Z</time>
      </trkpt>
      <trkpt lat="44.06264" lon="6.85612">
        <ele>782</ele>
        <time>2020-06-05T12:05:38.000Z</time>
      </trkpt>
      <trkpt lat="44.06265" lon="6.85612">
        <ele>782</ele>
        <time>2020-06-05T12:05:39.000Z</time>
      </trkpt>
      <trkpt lat="44.06265" lon="6.85612">
        <ele>782</ele>
        <time>2020-06-05T12:05:40.000Z</time>
      </trkpt>
      <trkpt lat="44.06266" lon="6.85612">
        <ele>782</ele>
        <time>2020-06-05T12:05:41.000Z</time>
      </trkpt>
      <trkpt lat="44.06267" lon="6.85613">
        <ele>782</ele>
        <time>2020-06-05T12:05:42.000Z</time>
      </trkpt>
      <trkpt lat="44.06267" lon="6.85613">
        <ele>782</ele>
        <time>2020-06-05T12:05:43.000Z</time>
      </trkpt>
      <trkpt lat="44.06268" lon="6.85613">
        <ele>781</ele>
        <time>2020-06-05T12:05:44.000Z</time>
      </trkpt>
      <trkpt lat="44.06269" lon="6.85614">
        <ele>781</ele>
        <time>2020-06-05T12:05:45.000Z</time>
      </trkpt>
      <trkpt lat="44.0627" lon="6.85614">
        <ele>781</ele>
        <time>2020-06-05T12:05:46.000Z</time>
      </trkpt>
      <trkpt lat="44.06271" lon="6.85614">
        <ele>781</ele>
        <time>2020-06-05T12:05:47.000Z</time>
      </trkpt>
      <trkpt lat="44.06272" lon="6.85614">
        <ele>781</ele>
        <time>2020-06-05T12:05:48.000Z</time>
      </trkpt>
      <trkpt lat="44.06273" lon="6.85615">
        <ele>781</ele>
        <time>2020-06-05T12:05:49.000Z</time>
      </trkpt>
      <trkpt lat="44.06274" lon="6.85615">
        <ele>781</ele>
        <time>2020-06-05T12:05:50.000Z</time>
      </trkpt>
      <trkpt lat="44.06274" lon="6.85616">
        <ele>781</ele>
        <time>2020-06-05T12:05:51.000Z</time>
      </trkpt>
      <trkpt lat="44.06275" lon="6.85616">
        <ele>781</ele>
        <time>2020-06-05T12:05:52.000Z</time>
      </trkpt>
      <trkpt lat="44.06276" lon="6.85617">
        <ele>781</ele>
        <time>2020-06-05T12:05:53.000Z</time>
      </trkpt>
      <trkpt lat="44.06277" lon="6.85618">
        <ele>781</ele>
        <time>2020-06-05T12:05:54.000Z</time>
      </trkpt>
      <trkpt lat="44.06278" lon="6.85618">
        <ele>781</ele>
        <time>2020-06-05T12:05:55.000Z</time>
      </trkpt>
      <trkpt lat="44.06279" lon="6.85619">
        <ele>781</ele>
        <time>2020-06-05T12:05:56.000Z</time>
      </trkpt>
      <trkpt lat="44.06279" lon="6.8562">
        <ele>781</ele>
        <time>2020-06-05T12:05:57.000Z</time>
      </trkpt>
      <trkpt lat="44.0628" lon="6.85621">
        <ele>781</ele>
        <time>2020-06-05T12:05:58.000Z</time>
      </trkpt>
      <trkpt lat="44.06281" lon="6.85622">
        <ele>781</ele>
        <time>2020-06-05T12:05:59.000Z</time>
      </trkpt>
      <trkpt lat="44.06282" lon="6.85623">
        <ele>781</ele>
        <time>2020-06-05T12:06:00.000Z</time>
      </trkpt>
      <trkpt lat="44.06282" lon="6.85623">
        <ele>781</ele>
        <time>2020-06-05T12:06:01.000Z</time>
      </trkpt>
      <trkpt lat="44.06282" lon="6.85623">
        <ele>781</ele>
        <time>2020-06-05T12:06:02.000Z</time>
      </trkpt>
      <trkpt lat="44.06282" lon="6.85623">
        <ele>781</ele>
        <time>2020-06-05T12:06:03.000Z</time>
      </trkpt>
      <trkpt lat="44.06282" lon="6.85623">
        <ele>781</ele>
        <time>2020-06-05T12:06:04.000Z</time>
      </trkpt>
      <trkpt lat="44.06282" lon="6.85623">
        <ele>781</ele>
        <time>2020-06-05T12:06:05.000Z</time>
      </trkpt>
      <trkpt lat="44.06282" lon="6.85623">
        <ele>781</ele>
        <time>2020-06-05T12:06:06.000Z</time>
      </trkpt>
      <trkpt lat="44.06283" lon="6.85623">
        <ele>781</ele>
        <time>2020-06-05T12:06:07.000Z</time>
      </trkpt>
      <trkpt lat="44.06283" lon="6.85623">
        <ele>781</ele>
        <time>2020-06-05T12:06:08.000Z</time>
      </trkpt>
      <trkpt lat="44.06283" lon="6.85623">
        <ele>781</ele>
        <time>2020-06-05T12:06:09.000Z</time>
      </trkpt>
      <trkpt lat="44.06283" lon="6.85623">
        <ele>781</ele>
        <time>2020-06-05T12:06:10.000Z</time>
      </trkpt>
      <trkpt lat="44.06284" lon="6.85624">
        <ele>781</ele>
        <time>2020-06-05T12:06:11.000Z</time>
      </trkpt>
      <trkpt lat="44.06285" lon="6.85624">
        <ele>781</ele>
        <time>2020-06-05T12:06:12.000Z</time>
      </trkpt>
      <trkpt lat="44.06286" lon="6.85625">
        <ele>781</ele>
        <time>2020-06-05T12:06:13.000Z</time>
      </trkpt>
      <trkpt lat="44.06286" lon="6.85626">
        <ele>781</ele>
        <time>2020-06-05T12:06:14.000Z</time>
      </trkpt>
      <trkpt lat="44.06287" lon="6.85627">
        <ele>781</ele>
        <time>2020-06-05T12:06:15.000Z</time>
      </trkpt>
      <trkpt lat="44.06287" lon="6.85628">
        <ele>781</ele>
        <time>2020-06-05T12:06:16.000Z</time>
      </trkpt>
      <trkpt lat="44.06288" lon="6.85629">
        <ele>781</ele>
        <time>2020-06-05T12:06:17.000Z</time>
      </trkpt>
      <trkpt lat="44.06288" lon="6.8563">
        <ele>781</ele>
        <time>2020-06-05T12:06:18.000Z</time>
      </trkpt>
      <trkpt lat="44.06289" lon="6.85631">
        <ele>781</ele>
        <time>2020-06-05T12:06:19.000Z</time>
      </trkpt>
      <trkpt lat="44.0629" lon="6.85633">
        <ele>781</ele>
        <time>2020-06-05T12:06:20.000Z</time>
      </trkpt>
      <trkpt lat="44.06291" lon="6.85634">
        <ele>780</ele>
        <time>2020-06-05T12:06:21.000Z</time>
      </trkpt>
      <trkpt lat="44.06292" lon="6.85635">
        <ele>780</ele>
        <time>2020-06-05T12:06:22.000Z</time>
      </trkpt>
      <trkpt lat="44.06292" lon="6.85636">
        <ele>780</ele>
        <time>2020-06-05T12:06:23.000Z</time>
      </trkpt>
      <trkpt lat="44.06293" lon="6.85637">
        <ele>780</ele>
        <time>2020-06-05T12:06:24.000Z</time>
      </trkpt>
      <trkpt lat="44.06294" lon="6.85639">
        <ele>780</ele>
        <time>2020-06-05T12:06:25.000Z</time>
      </trkpt>
      <trkpt lat="44.06295" lon="6.8564">
        <ele>780</ele>
        <time>2020-06-05T12:06:26.000Z</time>
      </trkpt>
      <trkpt lat="44.06296" lon="6.85641">
        <ele>781</ele>
        <time>2020-06-05T12:06:27.000Z</time>
      </trkpt>
      <trkpt lat="44.06297" lon="6.85642">
        <ele>781</ele>
        <time>2020-06-05T12:06:28.000Z</time>
      </trkpt>
      <trkpt lat="44.06297" lon="6.85643">
        <ele>781</ele>
        <time>2020-06-05T12:06:29.000Z</time>
      </trkpt>
      <trkpt lat="44.06298" lon="6.85645">
        <ele>781</ele>
        <time>2020-06-05T12:06:30.000Z</time>
      </trkpt>
      <trkpt lat="44.06299" lon="6.85646">
        <ele>781</ele>
        <time>2020-06-05T12:06:31.000Z</time>
      </trkpt>
      <trkpt lat="44.06299" lon="6.85647">
        <ele>781</ele>
        <time>2020-06-05T12:06:32.000Z</time>
      </trkpt>
      <trkpt lat="44.06299" lon="6.85647">
        <ele>781</ele>
        <time>2020-06-05T12:06:33.000Z</time>
      </trkpt>
      <trkpt lat="44.06299" lon="6.85647">
        <ele>781</ele>
        <time>2020-06-05T12:06:34.000Z</time>
      </trkpt>
      <trkpt lat="44.063" lon="6.85647">
        <ele>781</ele>
        <time>2020-06-05T12:06:35.000Z</time>
      </trkpt>
      <trkpt lat="44.063" lon="6.85648">
        <ele>781</ele>
        <time>2020-06-05T12:06:36.000Z</time>
      </trkpt>
      <trkpt lat="44.06301" lon="6.85648">
        <ele>781</ele>
        <time>2020-06-05T12:06:37.000Z</time>
      </trkpt>
      <trkpt lat="44.06302" lon="6.85649">
        <ele>782</ele>
        <time>2020-06-05T12:06:38.000Z</time>
      </trkpt>
      <trkpt lat="44.06302" lon="6.8565">
        <ele>782</ele>
        <time>2020-06-05T12:06:39.000Z</time>
      </trkpt>
      <trkpt lat="44.06302" lon="6.8565">
        <ele>782</ele>
        <time>2020-06-05T12:06:40.000Z</time>
      </trkpt>
      <trkpt lat="44.06303" lon="6.8565">
        <ele>782</ele>
        <time>2020-06-05T12:06:41.000Z</time>
      </trkpt>
      <trkpt lat="44.06303" lon="6.8565">
        <ele>782</ele>
        <time>2020-06-05T12:06:42.000Z</time>
      </trkpt>
      <trkpt lat="44.06303" lon="6.8565">
        <ele>782</ele>
        <time>2020-06-05T12:06:43.000Z</time>
      </trkpt>
      <trkpt lat="44.06303" lon="6.8565">
        <ele>782</ele>
        <time>2020-06-05T12:06:44.000Z</time>
      </trkpt>
      <trkpt lat="44.06304" lon="6.8565">
        <ele>782</ele>
        <time>2020-06-05T12:06:45.000Z</time>
      </trkpt>
      <trkpt lat="44.06304" lon="6.8565">
        <ele>782</ele>
        <time>2020-06-05T12:06:46.000Z</time>
      </trkpt>
      <trkpt lat="44.06304" lon="6.8565">
        <ele>782</ele>
        <time>2020-06-05T12:06:47.000Z</time>
      </trkpt>
      <trkpt lat="44.06304" lon="6.8565">
        <ele>782</ele>
        <time>2020-06-05T12:06:48.000Z</time>
      </trkpt>
      <trkpt lat="44.06304" lon="6.8565">
        <ele>782</ele>
        <time>2020-06-05T12:06:49.000Z</time>
      </trkpt>
      <trkpt lat="44.06304" lon="6.8565">
        <ele>782</ele>
        <time>2020-06-05T12:06:50.000Z</time>
      </trkpt>
      <trkpt lat="44.06304" lon="6.8565">
        <ele>783</ele>
        <time>2020-06-05T12:06:51.000Z</time>
      </trkpt>
      <trkpt lat="44.06304" lon="6.8565">
        <ele>783</ele>
        <time>2020-06-05T12:06:52.000Z</time>
      </trkpt>
      <trkpt lat="44.06304" lon="6.8565">
        <ele>783</ele>
        <time>2020-06-05T12:06:53.000Z</time>
      </trkpt>
      <trkpt lat="44.06304" lon="6.8565">
        <ele>783</ele>
        <time>2020-06-05T12:06:54.000Z</time>
      </trkpt>
      <trkpt lat="44.06305" lon="6.85649">
        <ele>783</ele>
        <time>2020-06-05T12:06:55.000Z</time>
      </trkpt>
      <trkpt lat="44.06305" lon="6.85649">
        <ele>783</ele>
        <time>2020-06-05T12:06:56.000Z</time>
      </trkpt>
      <trkpt lat="44.06305" lon="6.85649">
        <ele>783</ele>
        <time>2020-06-05T12:06:57.000Z</time>
      </trkpt>
      <trkpt lat="44.06305" lon="6.85649">
        <ele>783</ele>
        <time>2020-06-05T12:06:58.000Z</time>
      </trkpt>
      <trkpt lat="44.06305" lon="6.85649">
        <ele>783</ele>
        <time>2020-06-05T12:06:59.000Z</time>
      </trkpt>
      <trkpt lat="44.06305" lon="6.85649">
        <ele>783</ele>
        <time>2020-06-05T12:07:00.000Z</time>
      </trkpt>
      <trkpt lat="44.06305" lon="6.85649">
        <ele>783</ele>
        <time>2020-06-05T12:07:01.000Z</time>
      </trkpt>
      <trkpt lat="44.06305" lon="6.85649">
        <ele>783</ele>
        <time>2020-06-05T12:07:02.000Z</time>
      </trkpt>
      <trkpt lat="44.06305" lon="6.85649">
        <ele>783</ele>
        <time>2020-06-05T12:07:03.000Z</time>
      </trkpt>
      <trkpt lat="44.06305" lon="6.85649">
        <ele>783</ele>
        <time>2020-06-05T12:07:04.000Z</time>
      </trkpt>
      <trkpt lat="44.06305" lon="6.85649">
        <ele>783</ele>
        <time>2020-06-05T12:07:05.000Z</time>
      </trkpt>
      <trkpt lat="44.06305" lon="6.85649">
        <ele>783</ele>
        <time>2020-06-05T12:07:06.000Z</time>
      </trkpt>
      <trkpt lat="44.06305" lon="6.85649">
        <ele>783</ele>
        <time>2020-06-05T12:07:07.000Z</time>
      </trkpt>
      <trkpt lat="44.06305" lon="6.85649">
        <ele>783</ele>
        <time>2020-06-05T12:07:08.000Z</time>
      </trkpt>
      <trkpt lat="44.06305" lon="6.85649">
        <ele>783</ele>
        <time>2020-06-05T12:07:09.000Z</time>
      </trkpt>
      <trkpt lat="44.06305" lon="6.85649">
        <ele>783</ele>
        <time>2020-06-05T12:07:10.000Z</time>
      </trkpt>
      <trkpt lat="44.06305" lon="6.85649">
        <ele>783</ele>
        <time>2020-06-05T12:07:11.000Z</time>
      </trkpt>
      <trkpt lat="44.06305" lon="6.85649">
        <ele>783</ele>
        <time>2020-06-05T12:07:12.000Z</time>
      </trkpt>
      <trkpt lat="44.06305" lon="6.85649">
        <ele>783</ele>
        <time>2020-06-05T12:07:13.000Z</time>
      </trkpt>
      <trkpt lat="44.06305" lon="6.85649">
        <ele>783</ele>
        <time>2020-06-05T12:07:14.000Z</time>
      </trkpt>
      <trkpt lat="44.06305" lon="6.85649">
        <ele>783</ele>
        <time>2020-06-05T12:07:15.000Z</time>
      </trkpt>
      <trkpt lat="44.06305" lon="6.85649">
        <ele>782</ele>
        <time>2020-06-05T12:07:16.000Z</time>
      </trkpt>
      <trkpt lat="44.06305" lon="6.85649">
        <ele>782</ele>
        <time>2020-06-05T12:07:17.000Z</time>
      </trkpt>
      <trkpt lat="44.06305" lon="6.85649">
        <ele>782</ele>
        <time>2020-06-05T12:07:18.000Z</time>
      </trkpt>
      <trkpt lat="44.06305" lon="6.85649">
        <ele>782</ele>
        <time>2020-06-05T12:07:19.000Z</time>
      </trkpt>
      <trkpt lat="44.06305" lon="6.85649">
        <ele>782</ele>
        <time>2020-06-05T12:07:20.000Z</time>
      </trkpt>
      <trkpt lat="44.06305" lon="6.85649">
        <ele>782</ele>
        <time>2020-06-05T12:07:21.000Z</time>
      </trkpt>
      <trkpt lat="44.06305" lon="6.85649">
        <ele>782</ele>
        <time>2020-06-05T12:07:22.000Z</time>
      </trkpt>
      <trkpt lat="44.06305" lon="6.85649">
        <ele>782</ele>
        <time>2020-06-05T12:07:23.000Z</time>
      </trkpt>
      <trkpt lat="44.06305" lon="6.85649">
        <ele>782</ele>
        <time>2020-06-05T12:07:24.000Z</time>
      </trkpt>
      <trkpt lat="44.06305" lon="6.8565">
        <ele>782</ele>
        <time>2020-06-05T12:07:25.000Z</time>
      </trkpt>
      <trkpt lat="44.06306" lon="6.85651">
        <ele>782</ele>
        <time>2020-06-05T12:07:26.000Z</time>
      </trkpt>
      <trkpt lat="44.06306" lon="6.85652">
        <ele>782</ele>
        <time>2020-06-05T12:07:27.000Z</time>
      </trkpt>
      <trkpt lat="44.06306" lon="6.85653">
        <ele>782</ele>
        <time>2020-06-05T12:07:28.000Z</time>
      </trkpt>
      <trkpt lat="44.06307" lon="6.85654">
        <ele>782</ele>
        <time>2020-06-05T12:07:29.000Z</time>
      </trkpt>
      <trkpt lat="44.06308" lon="6.85656">
        <ele>782</ele>
        <time>2020-06-05T12:07:30.000Z</time>
      </trkpt>
      <trkpt lat="44.06309" lon="6.85657">
        <ele>782</ele>
        <time>2020-06-05T12:07:31.000Z</time>
      </trkpt>
      <trkpt lat="44.06309" lon="6.85658">
        <ele>782</ele>
        <time>2020-06-05T12:07:32.000Z</time>
      </trkpt>
      <trkpt lat="44.0631" lon="6.85659">
        <ele>782</ele>
        <time>2020-06-05T12:07:33.000Z</time>
      </trkpt>
      <trkpt lat="44.06311" lon="6.8566">
        <ele>782</ele>
        <time>2020-06-05T12:07:34.000Z</time>
      </trkpt>
      <trkpt lat="44.06312" lon="6.85661">
        <ele>782</ele>
        <time>2020-06-05T12:07:35.000Z</time>
      </trkpt>
      <trkpt lat="44.06312" lon="6.85662">
        <ele>782</ele>
        <time>2020-06-05T12:07:36.000Z</time>
      </trkpt>
      <trkpt lat="44.06313" lon="6.85662">
        <ele>782</ele>
        <time>2020-06-05T12:07:37.000Z</time>
      </trkpt>
      <trkpt lat="44.06314" lon="6.85663">
        <ele>782</ele>
        <time>2020-06-05T12:07:38.000Z</time>
      </trkpt>
      <trkpt lat="44.06315" lon="6.85664">
        <ele>782</ele>
        <time>2020-06-05T12:07:39.000Z</time>
      </trkpt>
      <trkpt lat="44.06316" lon="6.85665">
        <ele>782</ele>
        <time>2020-06-05T12:07:40.000Z</time>
      </trkpt>
      <trkpt lat="44.06317" lon="6.85666">
        <ele>782</ele>
        <time>2020-06-05T12:07:41.000Z</time>
      </trkpt>
      <trkpt lat="44.06318" lon="6.85666">
        <ele>782</ele>
        <time>2020-06-05T12:07:42.000Z</time>
      </trkpt>
      <trkpt lat="44.06318" lon="6.85667">
        <ele>782</ele>
        <time>2020-06-05T12:07:43.000Z</time>
      </trkpt>
      <trkpt lat="44.06319" lon="6.85667">
        <ele>782</ele>
        <time>2020-06-05T12:07:44.000Z</time>
      </trkpt>
      <trkpt lat="44.0632" lon="6.85667">
        <ele>782</ele>
        <time>2020-06-05T12:07:45.000Z</time>
      </trkpt>
      <trkpt lat="44.06321" lon="6.85668">
        <ele>782</ele>
        <time>2020-06-05T12:07:46.000Z</time>
      </trkpt>
      <trkpt lat="44.06323" lon="6.85668">
        <ele>782</ele>
        <time>2020-06-05T12:07:47.000Z</time>
      </trkpt>
      <trkpt lat="44.06324" lon="6.85668">
        <ele>782</ele>
        <time>2020-06-05T12:07:48.000Z</time>
      </trkpt>
      <trkpt lat="44.06325" lon="6.85668">
        <ele>782</ele>
        <time>2020-06-05T12:07:49.000Z</time>
      </trkpt>
      <trkpt lat="44.06326" lon="6.85668">
        <ele>782</ele>
        <time>2020-06-05T12:07:50.000Z</time>
      </trkpt>
      <trkpt lat="44.06327" lon="6.85668">
        <ele>782</ele>
        <time>2020-06-05T12:07:51.000Z</time>
      </trkpt>
      <trkpt lat="44.06328" lon="6.85668">
        <ele>782</ele>
        <time>2020-06-05T12:07:52.000Z</time>
      </trkpt>
      <trkpt lat="44.06329" lon="6.85668">
        <ele>782</ele>
        <time>2020-06-05T12:07:53.000Z</time>
      </trkpt>
      <trkpt lat="44.0633" lon="6.85668">
        <ele>782</ele>
        <time>2020-06-05T12:07:54.000Z</time>
      </trkpt>
      <trkpt lat="44.06331" lon="6.85668">
        <ele>782</ele>
        <time>2020-06-05T12:07:55.000Z</time>
      </trkpt>
      <trkpt lat="44.06332" lon="6.85668">
        <ele>782</ele>
        <time>2020-06-05T12:07:56.000Z</time>
      </trkpt>
      <trkpt lat="44.06333" lon="6.85668">
        <ele>782</ele>
        <time>2020-06-05T12:07:57.000Z</time>
      </trkpt>
      <trkpt lat="44.06335" lon="6.85669">
        <ele>782</ele>
        <time>2020-06-05T12:07:58.000Z</time>
      </trkpt>
      <trkpt lat="44.06336" lon="6.85669">
        <ele>782</ele>
        <time>2020-06-05T12:07:59.000Z</time>
      </trkpt>
      <trkpt lat="44.06337" lon="6.85669">
        <ele>782</ele>
        <time>2020-06-05T12:08:00.000Z</time>
      </trkpt>
      <trkpt lat="44.06338" lon="6.85669">
        <ele>782</ele>
        <time>2020-06-05T12:08:01.000Z</time>
      </trkpt>
      <trkpt lat="44.0634" lon="6.85669">
        <ele>782</ele>
        <time>2020-06-05T12:08:02.000Z</time>
      </trkpt>
      <trkpt lat="44.06341" lon="6.85669">
        <ele>782</ele>
        <time>2020-06-05T12:08:03.000Z</time>
      </trkpt>
      <trkpt lat="44.06342" lon="6.85668">
        <ele>782</ele>
        <time>2020-06-05T12:08:04.000Z</time>
      </trkpt>
      <trkpt lat="44.06343" lon="6.85668">
        <ele>782</ele>
        <time>2020-06-05T12:08:05.000Z</time>
      </trkpt>
      <trkpt lat="44.06344" lon="6.85668">
        <ele>781</ele>
        <time>2020-06-05T12:08:06.000Z</time>
      </trkpt>
      <trkpt lat="44.06344" lon="6.85668">
        <ele>781</ele>
        <time>2020-06-05T12:08:07.000Z</time>
      </trkpt>
      <trkpt lat="44.06344" lon="6.85668">
        <ele>781</ele>
        <time>2020-06-05T12:08:08.000Z</time>
      </trkpt>
      <trkpt lat="44.06345" lon="6.85668">
        <ele>781</ele>
        <time>2020-06-05T12:08:09.000Z</time>
      </trkpt>
      <trkpt lat="44.06347" lon="6.85668">
        <ele>781</ele>
        <time>2020-06-05T12:08:10.000Z</time>
      </trkpt>
      <trkpt lat="44.06348" lon="6.85668">
        <ele>781</ele>
        <time>2020-06-05T12:08:11.000Z</time>
      </trkpt>
      <trkpt lat="44.06349" lon="6.85668">
        <ele>781</ele>
        <time>2020-06-05T12:08:12.000Z</time>
      </trkpt>
      <trkpt lat="44.0635" lon="6.85668">
        <ele>781</ele>
        <time>2020-06-05T12:08:13.000Z</time>
      </trkpt>
      <trkpt lat="44.06351" lon="6.85668">
        <ele>781</ele>
        <time>2020-06-05T12:08:14.000Z</time>
      </trkpt>
      <trkpt lat="44.06352" lon="6.85668">
        <ele>781</ele>
        <time>2020-06-05T12:08:15.000Z</time>
      </trkpt>
      <trkpt lat="44.06354" lon="6.85667">
        <ele>781</ele>
        <time>2020-06-05T12:08:16.000Z</time>
      </trkpt>
      <trkpt lat="44.06355" lon="6.85667">
        <ele>781</ele>
        <time>2020-06-05T12:08:17.000Z</time>
      </trkpt>
      <trkpt lat="44.06356" lon="6.85667">
        <ele>781</ele>
        <time>2020-06-05T12:08:18.000Z</time>
      </trkpt>
      <trkpt lat="44.06357" lon="6.85667">
        <ele>781</ele>
        <time>2020-06-05T12:08:19.000Z</time>
      </trkpt>
      <trkpt lat="44.06358" lon="6.85667">
        <ele>781</ele>
        <time>2020-06-05T12:08:20.000Z</time>
      </trkpt>
      <trkpt lat="44.06359" lon="6.85667">
        <ele>781</ele>
        <time>2020-06-05T12:08:21.000Z</time>
      </trkpt>
      <trkpt lat="44.06361" lon="6.85667">
        <ele>781</ele>
        <time>2020-06-05T12:08:22.000Z</time>
      </trkpt>
      <trkpt lat="44.06362" lon="6.85667">
        <ele>781</ele>
        <time>2020-06-05T12:08:23.000Z</time>
      </trkpt>
      <trkpt lat="44.06362" lon="6.85667">
        <ele>780</ele>
        <time>2020-06-05T12:08:24.000Z</time>
      </trkpt>
      <trkpt lat="44.06364" lon="6.85667">
        <ele>780</ele>
        <time>2020-06-05T12:08:25.000Z</time>
      </trkpt>
      <trkpt lat="44.06365" lon="6.85667">
        <ele>780</ele>
        <time>2020-06-05T12:08:26.000Z</time>
      </trkpt>
      <trkpt lat="44.06366" lon="6.85667">
        <ele>780</ele>
        <time>2020-06-05T12:08:27.000Z</time>
      </trkpt>
      <trkpt lat="44.06367" lon="6.85667">
        <ele>780</ele>
        <time>2020-06-05T12:08:28.000Z</time>
      </trkpt>
      <trkpt lat="44.06368" lon="6.85667">
        <ele>780</ele>
        <time>2020-06-05T12:08:29.000Z</time>
      </trkpt>
      <trkpt lat="44.06368" lon="6.85667">
        <ele>780</ele>
        <time>2020-06-05T12:08:30.000Z</time>
      </trkpt>
      <trkpt lat="44.06369" lon="6.85667">
        <ele>780</ele>
        <time>2020-06-05T12:08:31.000Z</time>
      </trkpt>
      <trkpt lat="44.06369" lon="6.85667">
        <ele>780</ele>
        <time>2020-06-05T12:08:32.000Z</time>
      </trkpt>
      <trkpt lat="44.06369" lon="6.85667">
        <ele>780</ele>
        <time>2020-06-05T12:08:33.000Z</time>
      </trkpt>
      <trkpt lat="44.06369" lon="6.85667">
        <ele>780</ele>
        <time>2020-06-05T12:08:34.000Z</time>
      </trkpt>
      <trkpt lat="44.0637" lon="6.85667">
        <ele>780</ele>
        <time>2020-06-05T12:08:35.000Z</time>
      </trkpt>
      <trkpt lat="44.06371" lon="6.85666">
        <ele>780</ele>
        <time>2020-06-05T12:08:36.000Z</time>
      </trkpt>
      <trkpt lat="44.06372" lon="6.85666">
        <ele>780</ele>
        <time>2020-06-05T12:08:37.000Z</time>
      </trkpt>
      <trkpt lat="44.06373" lon="6.85667">
        <ele>780</ele>
        <time>2020-06-05T12:08:38.000Z</time>
      </trkpt>
      <trkpt lat="44.06374" lon="6.85667">
        <ele>780</ele>
        <time>2020-06-05T12:08:39.000Z</time>
      </trkpt>
      <trkpt lat="44.06375" lon="6.85666">
        <ele>780</ele>
        <time>2020-06-05T12:08:40.000Z</time>
      </trkpt>
      <trkpt lat="44.06376" lon="6.85666">
        <ele>780</ele>
        <time>2020-06-05T12:08:41.000Z</time>
      </trkpt>
      <trkpt lat="44.06377" lon="6.85666">
        <ele>780</ele>
        <time>2020-06-05T12:08:42.000Z</time>
      </trkpt>
      <trkpt lat="44.06378" lon="6.85667">
        <ele>780</ele>
        <time>2020-06-05T12:08:43.000Z</time>
      </trkpt>
      <trkpt lat="44.06379" lon="6.85667">
        <ele>780</ele>
        <time>2020-06-05T12:08:44.000Z</time>
      </trkpt>
      <trkpt lat="44.0638" lon="6.85667">
        <ele>780</ele>
        <time>2020-06-05T12:08:45.000Z</time>
      </trkpt>
      <trkpt lat="44.06381" lon="6.85668">
        <ele>780</ele>
        <time>2020-06-05T12:08:46.000Z</time>
      </trkpt>
      <trkpt lat="44.06382" lon="6.85668">
        <ele>780</ele>
        <time>2020-06-05T12:08:47.000Z</time>
      </trkpt>
      <trkpt lat="44.06383" lon="6.85668">
        <ele>780</ele>
        <time>2020-06-05T12:08:48.000Z</time>
      </trkpt>
      <trkpt lat="44.06384" lon="6.85669">
        <ele>779</ele>
        <time>2020-06-05T12:08:49.000Z</time>
      </trkpt>
      <trkpt lat="44.06386" lon="6.85669">
        <ele>779</ele>
        <time>2020-06-05T12:08:50.000Z</time>
      </trkpt>
      <trkpt lat="44.06387" lon="6.85669">
        <ele>779</ele>
        <time>2020-06-05T12:08:51.000Z</time>
      </trkpt>
      <trkpt lat="44.06388" lon="6.85669">
        <ele>779</ele>
        <time>2020-06-05T12:08:52.000Z</time>
      </trkpt>
      <trkpt lat="44.06389" lon="6.8567">
        <ele>779</ele>
        <time>2020-06-05T12:08:53.000Z</time>
      </trkpt>
      <trkpt lat="44.0639" lon="6.8567">
        <ele>779</ele>
        <time>2020-06-05T12:08:54.000Z</time>
      </trkpt>
      <trkpt lat="44.06391" lon="6.8567">
        <ele>778</ele>
        <time>2020-06-05T12:08:55.000Z</time>
      </trkpt>
      <trkpt lat="44.06392" lon="6.8567">
        <ele>778</ele>
        <time>2020-06-05T12:08:56.000Z</time>
      </trkpt>
      <trkpt lat="44.06393" lon="6.8567">
        <ele>778</ele>
        <time>2020-06-05T12:08:57.000Z</time>
      </trkpt>
      <trkpt lat="44.06394" lon="6.85671">
        <ele>778</ele>
        <time>2020-06-05T12:08:58.000Z</time>
      </trkpt>
      <trkpt lat="44.06396" lon="6.85671">
        <ele>778</ele>
        <time>2020-06-05T12:08:59.000Z</time>
      </trkpt>
      <trkpt lat="44.06397" lon="6.85671">
        <ele>778</ele>
        <time>2020-06-05T12:09:00.000Z</time>
      </trkpt>
      <trkpt lat="44.06398" lon="6.85672">
        <ele>778</ele>
        <time>2020-06-05T12:09:01.000Z</time>
      </trkpt>
      <trkpt lat="44.06399" lon="6.85672">
        <ele>778</ele>
        <time>2020-06-05T12:09:02.000Z</time>
      </trkpt>
      <trkpt lat="44.064" lon="6.85672">
        <ele>778</ele>
        <time>2020-06-05T12:09:03.000Z</time>
      </trkpt>
      <trkpt lat="44.06401" lon="6.85672">
        <ele>778</ele>
        <time>2020-06-05T12:09:04.000Z</time>
      </trkpt>
      <trkpt lat="44.06402" lon="6.85673">
        <ele>778</ele>
        <time>2020-06-05T12:09:05.000Z</time>
      </trkpt>
      <trkpt lat="44.06404" lon="6.85673">
        <ele>778</ele>
        <time>2020-06-05T12:09:06.000Z</time>
      </trkpt>
      <trkpt lat="44.06405" lon="6.85674">
        <ele>778</ele>
        <time>2020-06-05T12:09:07.000Z</time>
      </trkpt>
      <trkpt lat="44.06406" lon="6.85674">
        <ele>778</ele>
        <time>2020-06-05T12:09:08.000Z</time>
      </trkpt>
      <trkpt lat="44.06407" lon="6.85675">
        <ele>778</ele>
        <time>2020-06-05T12:09:09.000Z</time>
      </trkpt>
      <trkpt lat="44.06408" lon="6.85675">
        <ele>778</ele>
        <time>2020-06-05T12:09:10.000Z</time>
      </trkpt>
      <trkpt lat="44.06409" lon="6.85676">
        <ele>778</ele>
        <time>2020-06-05T12:09:11.000Z</time>
      </trkpt>
      <trkpt lat="44.0641" lon="6.85676">
        <ele>778</ele>
        <time>2020-06-05T12:09:12.000Z</time>
      </trkpt>
      <trkpt lat="44.06411" lon="6.85677">
        <ele>778</ele>
        <time>2020-06-05T12:09:13.000Z</time>
      </trkpt>
      <trkpt lat="44.06412" lon="6.85677">
        <ele>778</ele>
        <time>2020-06-05T12:09:14.000Z</time>
      </trkpt>
      <trkpt lat="44.06414" lon="6.85678">
        <ele>778</ele>
        <time>2020-06-05T12:09:15.000Z</time>
      </trkpt>
      <trkpt lat="44.06415" lon="6.85679">
        <ele>778</ele>
        <time>2020-06-05T12:09:16.000Z</time>
      </trkpt>
      <trkpt lat="44.06416" lon="6.85679">
        <ele>778</ele>
        <time>2020-06-05T12:09:17.000Z</time>
      </trkpt>
      <trkpt lat="44.06417" lon="6.85679">
        <ele>778</ele>
        <time>2020-06-05T12:09:18.000Z</time>
      </trkpt>
      <trkpt lat="44.06418" lon="6.8568">
        <ele>778</ele>
        <time>2020-06-05T12:09:19.000Z</time>
      </trkpt>
      <trkpt lat="44.06419" lon="6.8568">
        <ele>778</ele>
        <time>2020-06-05T12:09:20.000Z</time>
      </trkpt>
      <trkpt lat="44.0642" lon="6.85681">
        <ele>777</ele>
        <time>2020-06-05T12:09:21.000Z</time>
      </trkpt>
      <trkpt lat="44.06421" lon="6.85682">
        <ele>777</ele>
        <time>2020-06-05T12:09:22.000Z</time>
      </trkpt>
      <trkpt lat="44.06422" lon="6.85683">
        <ele>777</ele>
        <time>2020-06-05T12:09:23.000Z</time>
      </trkpt>
      <trkpt lat="44.06423" lon="6.85684">
        <ele>777</ele>
        <time>2020-06-05T12:09:24.000Z</time>
      </trkpt>
      <trkpt lat="44.06424" lon="6.85685">
        <ele>777</ele>
        <time>2020-06-05T12:09:25.000Z</time>
      </trkpt>
      <trkpt lat="44.06425" lon="6.85686">
        <ele>777</ele>
        <time>2020-06-05T12:09:26.000Z</time>
      </trkpt>
      <trkpt lat="44.06426" lon="6.85687">
        <ele>777</ele>
        <time>2020-06-05T12:09:27.000Z</time>
      </trkpt>
      <trkpt lat="44.06427" lon="6.85687">
        <ele>777</ele>
        <time>2020-06-05T12:09:28.000Z</time>
      </trkpt>
      <trkpt lat="44.06427" lon="6.85688">
        <ele>777</ele>
        <time>2020-06-05T12:09:29.000Z</time>
      </trkpt>
      <trkpt lat="44.06428" lon="6.85689">
        <ele>777</ele>
        <time>2020-06-05T12:09:30.000Z</time>
      </trkpt>
      <trkpt lat="44.06429" lon="6.8569">
        <ele>777</ele>
        <time>2020-06-05T12:09:31.000Z</time>
      </trkpt>
      <trkpt lat="44.0643" lon="6.85691">
        <ele>777</ele>
        <time>2020-06-05T12:09:32.000Z</time>
      </trkpt>
      <trkpt lat="44.06431" lon="6.85692">
        <ele>776</ele>
        <time>2020-06-05T12:09:33.000Z</time>
      </trkpt>
      <trkpt lat="44.06431" lon="6.85692">
        <ele>776</ele>
        <time>2020-06-05T12:09:34.000Z</time>
      </trkpt>
      <trkpt lat="44.06432" lon="6.85693">
        <ele>776</ele>
        <time>2020-06-05T12:09:35.000Z</time>
      </trkpt>
      <trkpt lat="44.06433" lon="6.85693">
        <ele>776</ele>
        <time>2020-06-05T12:09:36.000Z</time>
      </trkpt>
      <trkpt lat="44.06434" lon="6.85694">
        <ele>776</ele>
        <time>2020-06-05T12:09:37.000Z</time>
      </trkpt>
      <trkpt lat="44.06435" lon="6.85695">
        <ele>776</ele>
        <time>2020-06-05T12:09:38.000Z</time>
      </trkpt>
      <trkpt lat="44.06436" lon="6.85695">
        <ele>776</ele>
        <time>2020-06-05T12:09:39.000Z</time>
      </trkpt>
      <trkpt lat="44.06437" lon="6.85696">
        <ele>776</ele>
        <time>2020-06-05T12:09:40.000Z</time>
      </trkpt>
      <trkpt lat="44.06438" lon="6.85696">
        <ele>776</ele>
        <time>2020-06-05T12:09:41.000Z</time>
      </trkpt>
      <trkpt lat="44.06439" lon="6.85697">
        <ele>776</ele>
        <time>2020-06-05T12:09:42.000Z</time>
      </trkpt>
      <trkpt lat="44.06441" lon="6.85698">
        <ele>776</ele>
        <time>2020-06-05T12:09:43.000Z</time>
      </trkpt>
      <trkpt lat="44.06442" lon="6.85698">
        <ele>776</ele>
        <time>2020-06-05T12:09:44.000Z</time>
      </trkpt>
      <trkpt lat="44.06443" lon="6.85699">
        <ele>776</ele>
        <time>2020-06-05T12:09:45.000Z</time>
      </trkpt>
      <trkpt lat="44.06444" lon="6.857">
        <ele>776</ele>
        <time>2020-06-05T12:09:46.000Z</time>
      </trkpt>
      <trkpt lat="44.06445" lon="6.85701">
        <ele>776</ele>
        <time>2020-06-05T12:09:47.000Z</time>
      </trkpt>
      <trkpt lat="44.06446" lon="6.85702">
        <ele>776</ele>
        <time>2020-06-05T12:09:48.000Z</time>
      </trkpt>
      <trkpt lat="44.06447" lon="6.85702">
        <ele>776</ele>
        <time>2020-06-05T12:09:49.000Z</time>
      </trkpt>
      <trkpt lat="44.06448" lon="6.85704">
        <ele>776</ele>
        <time>2020-06-05T12:09:50.000Z</time>
      </trkpt>
      <trkpt lat="44.06449" lon="6.85705">
        <ele>776</ele>
        <time>2020-06-05T12:09:51.000Z</time>
      </trkpt>
      <trkpt lat="44.0645" lon="6.85706">
        <ele>776</ele>
        <time>2020-06-05T12:09:52.000Z</time>
      </trkpt>
      <trkpt lat="44.06451" lon="6.85707">
        <ele>776</ele>
        <time>2020-06-05T12:09:53.000Z</time>
      </trkpt>
      <trkpt lat="44.06452" lon="6.85707">
        <ele>776</ele>
        <time>2020-06-05T12:09:54.000Z</time>
      </trkpt>
      <trkpt lat="44.06453" lon="6.85708">
        <ele>776</ele>
        <time>2020-06-05T12:09:55.000Z</time>
      </trkpt>
      <trkpt lat="44.06454" lon="6.85709">
        <ele>776</ele>
        <time>2020-06-05T12:09:56.000Z</time>
      </trkpt>
      <trkpt lat="44.06455" lon="6.8571">
        <ele>776</ele>
        <time>2020-06-05T12:09:57.000Z</time>
      </trkpt>
      <trkpt lat="44.06456" lon="6.85711">
        <ele>776</ele>
        <time>2020-06-05T12:09:58.000Z</time>
      </trkpt>
      <trkpt lat="44.06457" lon="6.85711">
        <ele>776</ele>
        <time>2020-06-05T12:09:59.000Z</time>
      </trkpt>
      <trkpt lat="44.06457" lon="6.85712">
        <ele>775</ele>
        <time>2020-06-05T12:10:00.000Z</time>
      </trkpt>
      <trkpt lat="44.06458" lon="6.85712">
        <ele>775</ele>
        <time>2020-06-05T12:10:01.000Z</time>
      </trkpt>
      <trkpt lat="44.06459" lon="6.85713">
        <ele>775</ele>
        <time>2020-06-05T12:10:02.000Z</time>
      </trkpt>
      <trkpt lat="44.0646" lon="6.85713">
        <ele>775</ele>
        <time>2020-06-05T12:10:03.000Z</time>
      </trkpt>
      <trkpt lat="44.06461" lon="6.85714">
        <ele>775</ele>
        <time>2020-06-05T12:10:04.000Z</time>
      </trkpt>
      <trkpt lat="44.06462" lon="6.85714">
        <ele>775</ele>
        <time>2020-06-05T12:10:05.000Z</time>
      </trkpt>
      <trkpt lat="44.06463" lon="6.85715">
        <ele>775</ele>
        <time>2020-06-05T12:10:06.000Z</time>
      </trkpt>
      <trkpt lat="44.06464" lon="6.85715">
        <ele>775</ele>
        <time>2020-06-05T12:10:07.000Z</time>
      </trkpt>
      <trkpt lat="44.06465" lon="6.85716">
        <ele>775</ele>
        <time>2020-06-05T12:10:08.000Z</time>
      </trkpt>
      <trkpt lat="44.06466" lon="6.85717">
        <ele>775</ele>
        <time>2020-06-05T12:10:09.000Z</time>
      </trkpt>
      <trkpt lat="44.06467" lon="6.85718">
        <ele>775</ele>
        <time>2020-06-05T12:10:10.000Z</time>
      </trkpt>
      <trkpt lat="44.06467" lon="6.85719">
        <ele>775</ele>
        <time>2020-06-05T12:10:11.000Z</time>
      </trkpt>
      <trkpt lat="44.06468" lon="6.85719">
        <ele>775</ele>
        <time>2020-06-05T12:10:12.000Z</time>
      </trkpt>
      <trkpt lat="44.06469" lon="6.8572">
        <ele>775</ele>
        <time>2020-06-05T12:10:13.000Z</time>
      </trkpt>
      <trkpt lat="44.0647" lon="6.8572">
        <ele>775</ele>
        <time>2020-06-05T12:10:14.000Z</time>
      </trkpt>
      <trkpt lat="44.06471" lon="6.85721">
        <ele>775</ele>
        <time>2020-06-05T12:10:15.000Z</time>
      </trkpt>
      <trkpt lat="44.06471" lon="6.85722">
        <ele>774</ele>
        <time>2020-06-05T12:10:16.000Z</time>
      </trkpt>
      <trkpt lat="44.06472" lon="6.85722">
        <ele>774</ele>
        <time>2020-06-05T12:10:17.000Z</time>
      </trkpt>
      <trkpt lat="44.06473" lon="6.85723">
        <ele>774</ele>
        <time>2020-06-05T12:10:18.000Z</time>
      </trkpt>
      <trkpt lat="44.06474" lon="6.85723">
        <ele>774</ele>
        <time>2020-06-05T12:10:19.000Z</time>
      </trkpt>
      <trkpt lat="44.06475" lon="6.85724">
        <ele>774</ele>
        <time>2020-06-05T12:10:20.000Z</time>
      </trkpt>
      <trkpt lat="44.06475" lon="6.85725">
        <ele>774</ele>
        <time>2020-06-05T12:10:21.000Z</time>
      </trkpt>
      <trkpt lat="44.06476" lon="6.85725">
        <ele>774</ele>
        <time>2020-06-05T12:10:22.000Z</time>
      </trkpt>
      <trkpt lat="44.06477" lon="6.85726">
        <ele>774</ele>
        <time>2020-06-05T12:10:23.000Z</time>
      </trkpt>
      <trkpt lat="44.06477" lon="6.85727">
        <ele>774</ele>
        <time>2020-06-05T12:10:24.000Z</time>
      </trkpt>
      <trkpt lat="44.06478" lon="6.85727">
        <ele>774</ele>
        <time>2020-06-05T12:10:25.000Z</time>
      </trkpt>
      <trkpt lat="44.06479" lon="6.85728">
        <ele>774</ele>
        <time>2020-06-05T12:10:26.000Z</time>
      </trkpt>
      <trkpt lat="44.0648" lon="6.85728">
        <ele>774</ele>
        <time>2020-06-05T12:10:27.000Z</time>
      </trkpt>
      <trkpt lat="44.06481" lon="6.85729">
        <ele>774</ele>
        <time>2020-06-05T12:10:28.000Z</time>
      </trkpt>
      <trkpt lat="44.06482" lon="6.8573">
        <ele>774</ele>
        <time>2020-06-05T12:10:29.000Z</time>
      </trkpt>
      <trkpt lat="44.06483" lon="6.85731">
        <ele>774</ele>
        <time>2020-06-05T12:10:30.000Z</time>
      </trkpt>
      <trkpt lat="44.06485" lon="6.85732">
        <ele>774</ele>
        <time>2020-06-05T12:10:31.000Z</time>
      </trkpt>
      <trkpt lat="44.06486" lon="6.85733">
        <ele>774</ele>
        <time>2020-06-05T12:10:32.000Z</time>
      </trkpt>
      <trkpt lat="44.06487" lon="6.85734">
        <ele>774</ele>
        <time>2020-06-05T12:10:33.000Z</time>
      </trkpt>
      <trkpt lat="44.06488" lon="6.85734">
        <ele>774</ele>
        <time>2020-06-05T12:10:34.000Z</time>
      </trkpt>
      <trkpt lat="44.06489" lon="6.85735">
        <ele>774</ele>
        <time>2020-06-05T12:10:35.000Z</time>
      </trkpt>
      <trkpt lat="44.0649" lon="6.85736">
        <ele>775</ele>
        <time>2020-06-05T12:10:36.000Z</time>
      </trkpt>
      <trkpt lat="44.06491" lon="6.85737">
        <ele>775</ele>
        <time>2020-06-05T12:10:37.000Z</time>
      </trkpt>
      <trkpt lat="44.06492" lon="6.85738">
        <ele>775</ele>
        <time>2020-06-05T12:10:38.000Z</time>
      </trkpt>
      <trkpt lat="44.06493" lon="6.85738">
        <ele>775</ele>
        <time>2020-06-05T12:10:39.000Z</time>
      </trkpt>
      <trkpt lat="44.06494" lon="6.85739">
        <ele>775</ele>
        <time>2020-06-05T12:10:40.000Z</time>
      </trkpt>
      <trkpt lat="44.06495" lon="6.85739">
        <ele>775</ele>
        <time>2020-06-05T12:10:41.000Z</time>
      </trkpt>
      <trkpt lat="44.06496" lon="6.8574">
        <ele>775</ele>
        <time>2020-06-05T12:10:42.000Z</time>
      </trkpt>
      <trkpt lat="44.06497" lon="6.85741">
        <ele>775</ele>
        <time>2020-06-05T12:10:43.000Z</time>
      </trkpt>
      <trkpt lat="44.06498" lon="6.85741">
        <ele>775</ele>
        <time>2020-06-05T12:10:44.000Z</time>
      </trkpt>
      <trkpt lat="44.06499" lon="6.85742">
        <ele>775</ele>
        <time>2020-06-05T12:10:45.000Z</time>
      </trkpt>
      <trkpt lat="44.06499" lon="6.85743">
        <ele>775</ele>
        <time>2020-06-05T12:10:46.000Z</time>
      </trkpt>
      <trkpt lat="44.065" lon="6.85743">
        <ele>775</ele>
        <time>2020-06-05T12:10:47.000Z</time>
      </trkpt>
      <trkpt lat="44.06502" lon="6.85744">
        <ele>775</ele>
        <time>2020-06-05T12:10:48.000Z</time>
      </trkpt>
      <trkpt lat="44.06502" lon="6.85745">
        <ele>775</ele>
        <time>2020-06-05T12:10:49.000Z</time>
      </trkpt>
      <trkpt lat="44.06503" lon="6.85746">
        <ele>775</ele>
        <time>2020-06-05T12:10:50.000Z</time>
      </trkpt>
      <trkpt lat="44.06504" lon="6.85747">
        <ele>775</ele>
        <time>2020-06-05T12:10:51.000Z</time>
      </trkpt>
      <trkpt lat="44.06505" lon="6.85747">
        <ele>775</ele>
        <time>2020-06-05T12:10:52.000Z</time>
      </trkpt>
      <trkpt lat="44.06505" lon="6.85748">
        <ele>775</ele>
        <time>2020-06-05T12:10:53.000Z</time>
      </trkpt>
      <trkpt lat="44.06506" lon="6.85748">
        <ele>775</ele>
        <time>2020-06-05T12:10:54.000Z</time>
      </trkpt>
      <trkpt lat="44.06507" lon="6.85749">
        <ele>775</ele>
        <time>2020-06-05T12:10:55.000Z</time>
      </trkpt>
      <trkpt lat="44.06508" lon="6.85749">
        <ele>775</ele>
        <time>2020-06-05T12:10:56.000Z</time>
      </trkpt>
      <trkpt lat="44.06509" lon="6.8575">
        <ele>775</ele>
        <time>2020-06-05T12:10:57.000Z</time>
      </trkpt>
      <trkpt lat="44.06509" lon="6.8575">
        <ele>775</ele>
        <time>2020-06-05T12:10:58.000Z</time>
      </trkpt>
      <trkpt lat="44.0651" lon="6.8575">
        <ele>775</ele>
        <time>2020-06-05T12:10:59.000Z</time>
      </trkpt>
      <trkpt lat="44.0651" lon="6.8575">
        <ele>775</ele>
        <time>2020-06-05T12:11:00.000Z</time>
      </trkpt>
      <trkpt lat="44.0651" lon="6.85751">
        <ele>775</ele>
        <time>2020-06-05T12:11:01.000Z</time>
      </trkpt>
      <trkpt lat="44.06511" lon="6.85751">
        <ele>775</ele>
        <time>2020-06-05T12:11:02.000Z</time>
      </trkpt>
      <trkpt lat="44.06512" lon="6.85752">
        <ele>775</ele>
        <time>2020-06-05T12:11:03.000Z</time>
      </trkpt>
      <trkpt lat="44.06512" lon="6.85752">
        <ele>775</ele>
        <time>2020-06-05T12:11:04.000Z</time>
      </trkpt>
      <trkpt lat="44.06513" lon="6.85753">
        <ele>775</ele>
        <time>2020-06-05T12:11:05.000Z</time>
      </trkpt>
      <trkpt lat="44.06514" lon="6.85754">
        <ele>775</ele>
        <time>2020-06-05T12:11:06.000Z</time>
      </trkpt>
      <trkpt lat="44.06515" lon="6.85755">
        <ele>775</ele>
        <time>2020-06-05T12:11:07.000Z</time>
      </trkpt>
      <trkpt lat="44.06517" lon="6.85756">
        <ele>775</ele>
        <time>2020-06-05T12:11:08.000Z</time>
      </trkpt>
      <trkpt lat="44.06518" lon="6.85756">
        <ele>775</ele>
        <time>2020-06-05T12:11:09.000Z</time>
      </trkpt>
      <trkpt lat="44.06519" lon="6.85757">
        <ele>775</ele>
        <time>2020-06-05T12:11:10.000Z</time>
      </trkpt>
      <trkpt lat="44.0652" lon="6.85758">
        <ele>775</ele>
        <time>2020-06-05T12:11:11.000Z</time>
      </trkpt>
      <trkpt lat="44.06522" lon="6.85759">
        <ele>775</ele>
        <time>2020-06-05T12:11:12.000Z</time>
      </trkpt>
      <trkpt lat="44.06523" lon="6.8576">
        <ele>775</ele>
        <time>2020-06-05T12:11:13.000Z</time>
      </trkpt>
      <trkpt lat="44.06525" lon="6.85761">
        <ele>775</ele>
        <time>2020-06-05T12:11:14.000Z</time>
      </trkpt>
      <trkpt lat="44.06526" lon="6.85761">
        <ele>774</ele>
        <time>2020-06-05T12:11:15.000Z</time>
      </trkpt>
      <trkpt lat="44.06527" lon="6.85762">
        <ele>774</ele>
        <time>2020-06-05T12:11:16.000Z</time>
      </trkpt>
      <trkpt lat="44.06529" lon="6.85763">
        <ele>774</ele>
        <time>2020-06-05T12:11:17.000Z</time>
      </trkpt>
      <trkpt lat="44.0653" lon="6.85764">
        <ele>774</ele>
        <time>2020-06-05T12:11:18.000Z</time>
      </trkpt>
      <trkpt lat="44.06532" lon="6.85765">
        <ele>774</ele>
        <time>2020-06-05T12:11:19.000Z</time>
      </trkpt>
      <trkpt lat="44.06533" lon="6.85765">
        <ele>774</ele>
        <time>2020-06-05T12:11:20.000Z</time>
      </trkpt>
      <trkpt lat="44.06534" lon="6.85766">
        <ele>774</ele>
        <time>2020-06-05T12:11:21.000Z</time>
      </trkpt>
      <trkpt lat="44.06536" lon="6.85767">
        <ele>774</ele>
        <time>2020-06-05T12:11:22.000Z</time>
      </trkpt>
      <trkpt lat="44.06537" lon="6.85769">
        <ele>774</ele>
        <time>2020-06-05T12:11:23.000Z</time>
      </trkpt>
      <trkpt lat="44.06539" lon="6.8577">
        <ele>774</ele>
        <time>2020-06-05T12:11:24.000Z</time>
      </trkpt>
      <trkpt lat="44.0654" lon="6.85771">
        <ele>774</ele>
        <time>2020-06-05T12:11:25.000Z</time>
      </trkpt>
      <trkpt lat="44.06541" lon="6.85772">
        <ele>774</ele>
        <time>2020-06-05T12:11:26.000Z</time>
      </trkpt>
      <trkpt lat="44.06542" lon="6.85773">
        <ele>774</ele>
        <time>2020-06-05T12:11:27.000Z</time>
      </trkpt>
      <trkpt lat="44.06544" lon="6.85774">
        <ele>774</ele>
        <time>2020-06-05T12:11:28.000Z</time>
      </trkpt>
      <trkpt lat="44.06545" lon="6.85775">
        <ele>774</ele>
        <time>2020-06-05T12:11:29.000Z</time>
      </trkpt>
      <trkpt lat="44.06546" lon="6.85776">
        <ele>774</ele>
        <time>2020-06-05T12:11:30.000Z</time>
      </trkpt>
      <trkpt lat="44.06547" lon="6.85777">
        <ele>774</ele>
        <time>2020-06-05T12:11:31.000Z</time>
      </trkpt>
      <trkpt lat="44.06549" lon="6.85778">
        <ele>774</ele>
        <time>2020-06-05T12:11:32.000Z</time>
      </trkpt>
      <trkpt lat="44.0655" lon="6.85779">
        <ele>774</ele>
        <time>2020-06-05T12:11:33.000Z</time>
      </trkpt>
      <trkpt lat="44.06551" lon="6.8578">
        <ele>774</ele>
        <time>2020-06-05T12:11:34.000Z</time>
      </trkpt>
      <trkpt lat="44.06552" lon="6.85781">
        <ele>774</ele>
        <time>2020-06-05T12:11:35.000Z</time>
      </trkpt>
      <trkpt lat="44.06553" lon="6.85782">
        <ele>774</ele>
        <time>2020-06-05T12:11:36.000Z</time>
      </trkpt>
      <trkpt lat="44.06554" lon="6.85783">
        <ele>774</ele>
        <time>2020-06-05T12:11:37.000Z</time>
      </trkpt>
      <trkpt lat="44.06555" lon="6.85784">
        <ele>774</ele>
        <time>2020-06-05T12:11:38.000Z</time>
      </trkpt>
      <trkpt lat="44.06556" lon="6.85785">
        <ele>774</ele>
        <time>2020-06-05T12:11:39.000Z</time>
      </trkpt>
      <trkpt lat="44.06557" lon="6.85786">
        <ele>774</ele>
        <time>2020-06-05T12:11:40.000Z</time>
      </trkpt>
      <trkpt lat="44.06558" lon="6.85787">
        <ele>774</ele>
        <time>2020-06-05T12:11:41.000Z</time>
      </trkpt>
      <trkpt lat="44.06559" lon="6.85788">
        <ele>774</ele>
        <time>2020-06-05T12:11:42.000Z</time>
      </trkpt>
      <trkpt lat="44.06561" lon="6.85789">
        <ele>774</ele>
        <time>2020-06-05T12:11:43.000Z</time>
      </trkpt>
      <trkpt lat="44.06562" lon="6.8579">
        <ele>774</ele>
        <time>2020-06-05T12:11:44.000Z</time>
      </trkpt>
      <trkpt lat="44.06564" lon="6.85791">
        <ele>774</ele>
        <time>2020-06-05T12:11:45.000Z</time>
      </trkpt>
      <trkpt lat="44.06565" lon="6.85792">
        <ele>774</ele>
        <time>2020-06-05T12:11:46.000Z</time>
      </trkpt>
      <trkpt lat="44.06566" lon="6.85793">
        <ele>773</ele>
        <time>2020-06-05T12:11:47.000Z</time>
      </trkpt>
      <trkpt lat="44.06567" lon="6.85794">
        <ele>773</ele>
        <time>2020-06-05T12:11:48.000Z</time>
      </trkpt>
      <trkpt lat="44.06568" lon="6.85795">
        <ele>773</ele>
        <time>2020-06-05T12:11:49.000Z</time>
      </trkpt>
      <trkpt lat="44.06569" lon="6.85795">
        <ele>773</ele>
        <time>2020-06-05T12:11:50.000Z</time>
      </trkpt>
      <trkpt lat="44.0657" lon="6.85796">
        <ele>773</ele>
        <time>2020-06-05T12:11:51.000Z</time>
      </trkpt>
      <trkpt lat="44.06571" lon="6.85797">
        <ele>773</ele>
        <time>2020-06-05T12:11:52.000Z</time>
      </trkpt>
      <trkpt lat="44.06572" lon="6.85798">
        <ele>773</ele>
        <time>2020-06-05T12:11:53.000Z</time>
      </trkpt>
      <trkpt lat="44.06573" lon="6.85799">
        <ele>773</ele>
        <time>2020-06-05T12:11:54.000Z</time>
      </trkpt>
      <trkpt lat="44.06574" lon="6.858">
        <ele>773</ele>
        <time>2020-06-05T12:11:55.000Z</time>
      </trkpt>
      <trkpt lat="44.06575" lon="6.858">
        <ele>773</ele>
        <time>2020-06-05T12:11:56.000Z</time>
      </trkpt>
      <trkpt lat="44.06576" lon="6.85801">
        <ele>773</ele>
        <time>2020-06-05T12:11:57.000Z</time>
      </trkpt>
      <trkpt lat="44.06576" lon="6.85802">
        <ele>773</ele>
        <time>2020-06-05T12:11:58.000Z</time>
      </trkpt>
      <trkpt lat="44.06577" lon="6.85803">
        <ele>773</ele>
        <time>2020-06-05T12:11:59.000Z</time>
      </trkpt>
      <trkpt lat="44.06579" lon="6.85804">
        <ele>773</ele>
        <time>2020-06-05T12:12:00.000Z</time>
      </trkpt>
      <trkpt lat="44.06579" lon="6.85805">
        <ele>773</ele>
        <time>2020-06-05T12:12:01.000Z</time>
      </trkpt>
      <trkpt lat="44.0658" lon="6.85806">
        <ele>773</ele>
        <time>2020-06-05T12:12:02.000Z</time>
      </trkpt>
      <trkpt lat="44.06581" lon="6.85807">
        <ele>773</ele>
        <time>2020-06-05T12:12:03.000Z</time>
      </trkpt>
      <trkpt lat="44.06583" lon="6.85808">
        <ele>773</ele>
        <time>2020-06-05T12:12:04.000Z</time>
      </trkpt>
      <trkpt lat="44.06584" lon="6.85809">
        <ele>773</ele>
        <time>2020-06-05T12:12:05.000Z</time>
      </trkpt>
      <trkpt lat="44.06584" lon="6.8581">
        <ele>773</ele>
        <time>2020-06-05T12:12:06.000Z</time>
      </trkpt>
      <trkpt lat="44.06585" lon="6.85811">
        <ele>773</ele>
        <time>2020-06-05T12:12:07.000Z</time>
      </trkpt>
      <trkpt lat="44.06587" lon="6.85812">
        <ele>773</ele>
        <time>2020-06-05T12:12:08.000Z</time>
      </trkpt>
      <trkpt lat="44.06588" lon="6.85814">
        <ele>772</ele>
        <time>2020-06-05T12:12:09.000Z</time>
      </trkpt>
      <trkpt lat="44.06589" lon="6.85815">
        <ele>772</ele>
        <time>2020-06-05T12:12:10.000Z</time>
      </trkpt>
      <trkpt lat="44.06589" lon="6.85816">
        <ele>772</ele>
        <time>2020-06-05T12:12:11.000Z</time>
      </trkpt>
      <trkpt lat="44.06591" lon="6.85817">
        <ele>772</ele>
        <time>2020-06-05T12:12:12.000Z</time>
      </trkpt>
      <trkpt lat="44.06592" lon="6.85818">
        <ele>772</ele>
        <time>2020-06-05T12:12:13.000Z</time>
      </trkpt>
      <trkpt lat="44.06593" lon="6.85819">
        <ele>772</ele>
        <time>2020-06-05T12:12:14.000Z</time>
      </trkpt>
      <trkpt lat="44.06594" lon="6.8582">
        <ele>772</ele>
        <time>2020-06-05T12:12:15.000Z</time>
      </trkpt>
      <trkpt lat="44.06595" lon="6.85821">
        <ele>772</ele>
        <time>2020-06-05T12:12:16.000Z</time>
      </trkpt>
      <trkpt lat="44.06597" lon="6.85822">
        <ele>772</ele>
        <time>2020-06-05T12:12:17.000Z</time>
      </trkpt>
      <trkpt lat="44.06598" lon="6.85823">
        <ele>772</ele>
        <time>2020-06-05T12:12:18.000Z</time>
      </trkpt>
      <trkpt lat="44.06599" lon="6.85824">
        <ele>772</ele>
        <time>2020-06-05T12:12:19.000Z</time>
      </trkpt>
      <trkpt lat="44.066" lon="6.85825">
        <ele>772</ele>
        <time>2020-06-05T12:12:20.000Z</time>
      </trkpt>
      <trkpt lat="44.06601" lon="6.85826">
        <ele>772</ele>
        <time>2020-06-05T12:12:21.000Z</time>
      </trkpt>
      <trkpt lat="44.06602" lon="6.85828">
        <ele>772</ele>
        <time>2020-06-05T12:12:22.000Z</time>
      </trkpt>
      <trkpt lat="44.06603" lon="6.85829">
        <ele>772</ele>
        <time>2020-06-05T12:12:23.000Z</time>
      </trkpt>
      <trkpt lat="44.06604" lon="6.8583">
        <ele>772</ele>
        <time>2020-06-05T12:12:24.000Z</time>
      </trkpt>
      <trkpt lat="44.06605" lon="6.85831">
        <ele>772</ele>
        <time>2020-06-05T12:12:25.000Z</time>
      </trkpt>
      <trkpt lat="44.06606" lon="6.85832">
        <ele>772</ele>
        <time>2020-06-05T12:12:26.000Z</time>
      </trkpt>
      <trkpt lat="44.06608" lon="6.85833">
        <ele>772</ele>
        <time>2020-06-05T12:12:27.000Z</time>
      </trkpt>
      <trkpt lat="44.06609" lon="6.85834">
        <ele>772</ele>
        <time>2020-06-05T12:12:28.000Z</time>
      </trkpt>
      <trkpt lat="44.0661" lon="6.85835">
        <ele>772</ele>
        <time>2020-06-05T12:12:29.000Z</time>
      </trkpt>
      <trkpt lat="44.06611" lon="6.85836">
        <ele>772</ele>
        <time>2020-06-05T12:12:30.000Z</time>
      </trkpt>
      <trkpt lat="44.06612" lon="6.85837">
        <ele>772</ele>
        <time>2020-06-05T12:12:31.000Z</time>
      </trkpt>
      <trkpt lat="44.06613" lon="6.85838">
        <ele>772</ele>
        <time>2020-06-05T12:12:32.000Z</time>
      </trkpt>
      <trkpt lat="44.06614" lon="6.85839">
        <ele>772</ele>
        <time>2020-06-05T12:12:33.000Z</time>
      </trkpt>
      <trkpt lat="44.06615" lon="6.8584">
        <ele>772</ele>
        <time>2020-06-05T12:12:34.000Z</time>
      </trkpt>
      <trkpt lat="44.06616" lon="6.85841">
        <ele>772</ele>
        <time>2020-06-05T12:12:35.000Z</time>
      </trkpt>
      <trkpt lat="44.06617" lon="6.85842">
        <ele>772</ele>
        <time>2020-06-05T12:12:36.000Z</time>
      </trkpt>
      <trkpt lat="44.06618" lon="6.85843">
        <ele>772</ele>
        <time>2020-06-05T12:12:37.000Z</time>
      </trkpt>
      <trkpt lat="44.06619" lon="6.85844">
        <ele>772</ele>
        <time>2020-06-05T12:12:38.000Z</time>
      </trkpt>
      <trkpt lat="44.0662" lon="6.85845">
        <ele>771</ele>
        <time>2020-06-05T12:12:39.000Z</time>
      </trkpt>
      <trkpt lat="44.06621" lon="6.85846">
        <ele>771</ele>
        <time>2020-06-05T12:12:40.000Z</time>
      </trkpt>
      <trkpt lat="44.06622" lon="6.85847">
        <ele>771</ele>
        <time>2020-06-05T12:12:41.000Z</time>
      </trkpt>
      <trkpt lat="44.06623" lon="6.85847">
        <ele>771</ele>
        <time>2020-06-05T12:12:42.000Z</time>
      </trkpt>
      <trkpt lat="44.06623" lon="6.85847">
        <ele>771</ele>
        <time>2020-06-05T12:12:43.000Z</time>
      </trkpt>
      <trkpt lat="44.06624" lon="6.85848">
        <ele>771</ele>
        <time>2020-06-05T12:12:44.000Z</time>
      </trkpt>
      <trkpt lat="44.06625" lon="6.85848">
        <ele>771</ele>
        <time>2020-06-05T12:12:45.000Z</time>
      </trkpt>
      <trkpt lat="44.06626" lon="6.85849">
        <ele>771</ele>
        <time>2020-06-05T12:12:46.000Z</time>
      </trkpt>
      <trkpt lat="44.06627" lon="6.8585">
        <ele>771</ele>
        <time>2020-06-05T12:12:47.000Z</time>
      </trkpt>
      <trkpt lat="44.06628" lon="6.85851">
        <ele>771</ele>
        <time>2020-06-05T12:12:48.000Z</time>
      </trkpt>
      <trkpt lat="44.06629" lon="6.85852">
        <ele>771</ele>
        <time>2020-06-05T12:12:49.000Z</time>
      </trkpt>
      <trkpt lat="44.0663" lon="6.85853">
        <ele>771</ele>
        <time>2020-06-05T12:12:50.000Z</time>
      </trkpt>
      <trkpt lat="44.06631" lon="6.85853">
        <ele>771</ele>
        <time>2020-06-05T12:12:51.000Z</time>
      </trkpt>
      <trkpt lat="44.06633" lon="6.85854">
        <ele>771</ele>
        <time>2020-06-05T12:12:52.000Z</time>
      </trkpt>
      <trkpt lat="44.06634" lon="6.85854">
        <ele>771</ele>
        <time>2020-06-05T12:12:53.000Z</time>
      </trkpt>
      <trkpt lat="44.06635" lon="6.85855">
        <ele>771</ele>
        <time>2020-06-05T12:12:54.000Z</time>
      </trkpt>
      <trkpt lat="44.06637" lon="6.85855">
        <ele>771</ele>
        <time>2020-06-05T12:12:55.000Z</time>
      </trkpt>
      <trkpt lat="44.06638" lon="6.85856">
        <ele>771</ele>
        <time>2020-06-05T12:12:56.000Z</time>
      </trkpt>
      <trkpt lat="44.06639" lon="6.85856">
        <ele>771</ele>
        <time>2020-06-05T12:12:57.000Z</time>
      </trkpt>
      <trkpt lat="44.06641" lon="6.85855">
        <ele>771</ele>
        <time>2020-06-05T12:12:58.000Z</time>
      </trkpt>
      <trkpt lat="44.06642" lon="6.85855">
        <ele>770</ele>
        <time>2020-06-05T12:12:59.000Z</time>
      </trkpt>
      <trkpt lat="44.06643" lon="6.85855">
        <ele>770</ele>
        <time>2020-06-05T12:13:00.000Z</time>
      </trkpt>
      <trkpt lat="44.06644" lon="6.85855">
        <ele>771</ele>
        <time>2020-06-05T12:13:01.000Z</time>
      </trkpt>
      <trkpt lat="44.06646" lon="6.85856">
        <ele>771</ele>
        <time>2020-06-05T12:13:02.000Z</time>
      </trkpt>
      <trkpt lat="44.06647" lon="6.85856">
        <ele>771</ele>
        <time>2020-06-05T12:13:03.000Z</time>
      </trkpt>
      <trkpt lat="44.06648" lon="6.85857">
        <ele>771</ele>
        <time>2020-06-05T12:13:04.000Z</time>
      </trkpt>
      <trkpt lat="44.06648" lon="6.85857">
        <ele>771</ele>
        <time>2020-06-05T12:13:05.000Z</time>
      </trkpt>
      <trkpt lat="44.06649" lon="6.85856">
        <ele>771</ele>
        <time>2020-06-05T12:13:06.000Z</time>
      </trkpt>
      <trkpt lat="44.0665" lon="6.85856">
        <ele>771</ele>
        <time>2020-06-05T12:13:07.000Z</time>
      </trkpt>
      <trkpt lat="44.0665" lon="6.85856">
        <ele>771</ele>
        <time>2020-06-05T12:13:08.000Z</time>
      </trkpt>
      <trkpt lat="44.06651" lon="6.85856">
        <ele>771</ele>
        <time>2020-06-05T12:13:09.000Z</time>
      </trkpt>
      <trkpt lat="44.06652" lon="6.85856">
        <ele>771</ele>
        <time>2020-06-05T12:13:10.000Z</time>
      </trkpt>
      <trkpt lat="44.06653" lon="6.85856">
        <ele>771</ele>
        <time>2020-06-05T12:13:11.000Z</time>
      </trkpt>
      <trkpt lat="44.06654" lon="6.85856">
        <ele>771</ele>
        <time>2020-06-05T12:13:12.000Z</time>
      </trkpt>
      <trkpt lat="44.06656" lon="6.85856">
        <ele>771</ele>
        <time>2020-06-05T12:13:13.000Z</time>
      </trkpt>
      <trkpt lat="44.06657" lon="6.85856">
        <ele>771</ele>
        <time>2020-06-05T12:13:14.000Z</time>
      </trkpt>
      <trkpt lat="44.06658" lon="6.85856">
        <ele>771</ele>
        <time>2020-06-05T12:13:15.000Z</time>
      </trkpt>
      <trkpt lat="44.06659" lon="6.85856">
        <ele>771</ele>
        <time>2020-06-05T12:13:16.000Z</time>
      </trkpt>
      <trkpt lat="44.0666" lon="6.85856">
        <ele>771</ele>
        <time>2020-06-05T12:13:17.000Z</time>
      </trkpt>
      <trkpt lat="44.06661" lon="6.85856">
        <ele>771</ele>
        <time>2020-06-05T12:13:18.000Z</time>
      </trkpt>
      <trkpt lat="44.06663" lon="6.85856">
        <ele>770</ele>
        <time>2020-06-05T12:13:19.000Z</time>
      </trkpt>
      <trkpt lat="44.06664" lon="6.85856">
        <ele>770</ele>
        <time>2020-06-05T12:13:20.000Z</time>
      </trkpt>
      <trkpt lat="44.06665" lon="6.85856">
        <ele>770</ele>
        <time>2020-06-05T12:13:21.000Z</time>
      </trkpt>
      <trkpt lat="44.06666" lon="6.85856">
        <ele>770</ele>
        <time>2020-06-05T12:13:22.000Z</time>
      </trkpt>
      <trkpt lat="44.06667" lon="6.85856">
        <ele>770</ele>
        <time>2020-06-05T12:13:23.000Z</time>
      </trkpt>
      <trkpt lat="44.06668" lon="6.85856">
        <ele>770</ele>
        <time>2020-06-05T12:13:24.000Z</time>
      </trkpt>
      <trkpt lat="44.0667" lon="6.85856">
        <ele>770</ele>
        <time>2020-06-05T12:13:25.000Z</time>
      </trkpt>
      <trkpt lat="44.06671" lon="6.85856">
        <ele>770</ele>
        <time>2020-06-05T12:13:26.000Z</time>
      </trkpt>
      <trkpt lat="44.06672" lon="6.85856">
        <ele>770</ele>
        <time>2020-06-05T12:13:27.000Z</time>
      </trkpt>
      <trkpt lat="44.06673" lon="6.85856">
        <ele>770</ele>
        <time>2020-06-05T12:13:28.000Z</time>
      </trkpt>
      <trkpt lat="44.06674" lon="6.85856">
        <ele>770</ele>
        <time>2020-06-05T12:13:29.000Z</time>
      </trkpt>
      <trkpt lat="44.06675" lon="6.85855">
        <ele>770</ele>
        <time>2020-06-05T12:13:30.000Z</time>
      </trkpt>
      <trkpt lat="44.06676" lon="6.85855">
        <ele>770</ele>
        <time>2020-06-05T12:13:31.000Z</time>
      </trkpt>
      <trkpt lat="44.06678" lon="6.85855">
        <ele>770</ele>
        <time>2020-06-05T12:13:32.000Z</time>
      </trkpt>
      <trkpt lat="44.06679" lon="6.85855">
        <ele>770</ele>
        <time>2020-06-05T12:13:33.000Z</time>
      </trkpt>
      <trkpt lat="44.0668" lon="6.85855">
        <ele>770</ele>
        <time>2020-06-05T12:13:34.000Z</time>
      </trkpt>
      <trkpt lat="44.06681" lon="6.85855">
        <ele>770</ele>
        <time>2020-06-05T12:13:35.000Z</time>
      </trkpt>
      <trkpt lat="44.06682" lon="6.85855">
        <ele>770</ele>
        <time>2020-06-05T12:13:36.000Z</time>
      </trkpt>
      <trkpt lat="44.06684" lon="6.85855">
        <ele>770</ele>
        <time>2020-06-05T12:13:37.000Z</time>
      </trkpt>
      <trkpt lat="44.06685" lon="6.85855">
        <ele>770</ele>
        <time>2020-06-05T12:13:38.000Z</time>
      </trkpt>
      <trkpt lat="44.06686" lon="6.85855">
        <ele>770</ele>
        <time>2020-06-05T12:13:39.000Z</time>
      </trkpt>
      <trkpt lat="44.06687" lon="6.85855">
        <ele>770</ele>
        <time>2020-06-05T12:13:40.000Z</time>
      </trkpt>
      <trkpt lat="44.06689" lon="6.85856">
        <ele>770</ele>
        <time>2020-06-05T12:13:41.000Z</time>
      </trkpt>
      <trkpt lat="44.0669" lon="6.85857">
        <ele>770</ele>
        <time>2020-06-05T12:13:42.000Z</time>
      </trkpt>
      <trkpt lat="44.0669" lon="6.85857">
        <ele>770</ele>
        <time>2020-06-05T12:13:43.000Z</time>
      </trkpt>
      <trkpt lat="44.0669" lon="6.85858">
        <ele>770</ele>
        <time>2020-06-05T12:13:44.000Z</time>
      </trkpt>
      <trkpt lat="44.0669" lon="6.85858">
        <ele>770</ele>
        <time>2020-06-05T12:13:45.000Z</time>
      </trkpt>
      <trkpt lat="44.0669" lon="6.85858">
        <ele>770</ele>
        <time>2020-06-05T12:13:46.000Z</time>
      </trkpt>
      <trkpt lat="44.0669" lon="6.85858">
        <ele>770</ele>
        <time>2020-06-05T12:13:47.000Z</time>
      </trkpt>
      <trkpt lat="44.0669" lon="6.85858">
        <ele>770</ele>
        <time>2020-06-05T12:13:48.000Z</time>
      </trkpt>
      <trkpt lat="44.0669" lon="6.85858">
        <ele>770</ele>
        <time>2020-06-05T12:13:49.000Z</time>
      </trkpt>
      <trkpt lat="44.0669" lon="6.85858">
        <ele>770</ele>
        <time>2020-06-05T12:13:50.000Z</time>
      </trkpt>
      <trkpt lat="44.0669" lon="6.85858">
        <ele>770</ele>
        <time>2020-06-05T12:13:51.000Z</time>
      </trkpt>
      <trkpt lat="44.0669" lon="6.85858">
        <ele>770</ele>
        <time>2020-06-05T12:13:52.000Z</time>
      </trkpt>
      <trkpt lat="44.0669" lon="6.85858">
        <ele>770</ele>
        <time>2020-06-05T12:13:53.000Z</time>
      </trkpt>
      <trkpt lat="44.0669" lon="6.85857">
        <ele>770</ele>
        <time>2020-06-05T12:13:54.000Z</time>
      </trkpt>
      <trkpt lat="44.0669" lon="6.85857">
        <ele>770</ele>
        <time>2020-06-05T12:13:55.000Z</time>
      </trkpt>
      <trkpt lat="44.0669" lon="6.85857">
        <ele>770</ele>
        <time>2020-06-05T12:13:56.000Z</time>
      </trkpt>
      <trkpt lat="44.0669" lon="6.85857">
        <ele>770</ele>
        <time>2020-06-05T12:13:57.000Z</time>
      </trkpt>
      <trkpt lat="44.0669" lon="6.85857">
        <ele>770</ele>
        <time>2020-06-05T12:13:58.000Z</time>
      </trkpt>
      <trkpt lat="44.0669" lon="6.85857">
        <ele>770</ele>
        <time>2020-06-05T12:13:59.000Z</time>
      </trkpt>
      <trkpt lat="44.0669" lon="6.85857">
        <ele>770</ele>
        <time>2020-06-05T12:14:00.000Z</time>
      </trkpt>
      <trkpt lat="44.06691" lon="6.85857">
        <ele>770</ele>
        <time>2020-06-05T12:14:01.000Z</time>
      </trkpt>
      <trkpt lat="44.06691" lon="6.85857">
        <ele>770</ele>
        <time>2020-06-05T12:14:02.000Z</time>
      </trkpt>
      <trkpt lat="44.06691" lon="6.85857">
        <ele>770</ele>
        <time>2020-06-05T12:14:03.000Z</time>
      </trkpt>
      <trkpt lat="44.06691" lon="6.85857">
        <ele>770</ele>
        <time>2020-06-05T12:14:04.000Z</time>
      </trkpt>
      <trkpt lat="44.06692" lon="6.85857">
        <ele>770</ele>
        <time>2020-06-05T12:14:05.000Z</time>
      </trkpt>
      <trkpt lat="44.06693" lon="6.85857">
        <ele>770</ele>
        <time>2020-06-05T12:14:06.000Z</time>
      </trkpt>
      <trkpt lat="44.06694" lon="6.85856">
        <ele>769</ele>
        <time>2020-06-05T12:14:07.000Z</time>
      </trkpt>
      <trkpt lat="44.06695" lon="6.85856">
        <ele>769</ele>
        <time>2020-06-05T12:14:08.000Z</time>
      </trkpt>
      <trkpt lat="44.06696" lon="6.85856">
        <ele>769</ele>
        <time>2020-06-05T12:14:09.000Z</time>
      </trkpt>
      <trkpt lat="44.06697" lon="6.85856">
        <ele>769</ele>
        <time>2020-06-05T12:14:10.000Z</time>
      </trkpt>
      <trkpt lat="44.06698" lon="6.85857">
        <ele>769</ele>
        <time>2020-06-05T12:14:11.000Z</time>
      </trkpt>
      <trkpt lat="44.06699" lon="6.85857">
        <ele>769</ele>
        <time>2020-06-05T12:14:12.000Z</time>
      </trkpt>
      <trkpt lat="44.06699" lon="6.85857">
        <ele>769</ele>
        <time>2020-06-05T12:14:13.000Z</time>
      </trkpt>
      <trkpt lat="44.067" lon="6.85857">
        <ele>768</ele>
        <time>2020-06-05T12:14:14.000Z</time>
      </trkpt>
      <trkpt lat="44.06701" lon="6.85857">
        <ele>768</ele>
        <time>2020-06-05T12:14:15.000Z</time>
      </trkpt>
      <trkpt lat="44.06702" lon="6.85857">
        <ele>768</ele>
        <time>2020-06-05T12:14:16.000Z</time>
      </trkpt>
      <trkpt lat="44.06703" lon="6.85857">
        <ele>768</ele>
        <time>2020-06-05T12:14:17.000Z</time>
      </trkpt>
      <trkpt lat="44.06703" lon="6.85857">
        <ele>768</ele>
        <time>2020-06-05T12:14:18.000Z</time>
      </trkpt>
      <trkpt lat="44.06705" lon="6.85857">
        <ele>768</ele>
        <time>2020-06-05T12:14:19.000Z</time>
      </trkpt>
      <trkpt lat="44.06706" lon="6.85857">
        <ele>768</ele>
        <time>2020-06-05T12:14:20.000Z</time>
      </trkpt>
      <trkpt lat="44.06707" lon="6.85857">
        <ele>768</ele>
        <time>2020-06-05T12:14:21.000Z</time>
      </trkpt>
      <trkpt lat="44.06708" lon="6.85857">
        <ele>768</ele>
        <time>2020-06-05T12:14:22.000Z</time>
      </trkpt>
      <trkpt lat="44.06709" lon="6.85858">
        <ele>768</ele>
        <time>2020-06-05T12:14:23.000Z</time>
      </trkpt>
      <trkpt lat="44.0671" lon="6.85858">
        <ele>768</ele>
        <time>2020-06-05T12:14:24.000Z</time>
      </trkpt>
      <trkpt lat="44.06712" lon="6.85858">
        <ele>768</ele>
        <time>2020-06-05T12:14:25.000Z</time>
      </trkpt>
      <trkpt lat="44.06713" lon="6.85858">
        <ele>768</ele>
        <time>2020-06-05T12:14:26.000Z</time>
      </trkpt>
      <trkpt lat="44.06714" lon="6.85858">
        <ele>768</ele>
        <time>2020-06-05T12:14:27.000Z</time>
      </trkpt>
      <trkpt lat="44.06714" lon="6.85858">
        <ele>767</ele>
        <time>2020-06-05T12:14:28.000Z</time>
      </trkpt>
      <trkpt lat="44.06715" lon="6.85858">
        <ele>767</ele>
        <time>2020-06-05T12:14:29.000Z</time>
      </trkpt>
      <trkpt lat="44.06717" lon="6.85858">
        <ele>767</ele>
        <time>2020-06-05T12:14:30.000Z</time>
      </trkpt>
      <trkpt lat="44.06718" lon="6.85858">
        <ele>767</ele>
        <time>2020-06-05T12:14:31.000Z</time>
      </trkpt>
      <trkpt lat="44.06719" lon="6.85858">
        <ele>767</ele>
        <time>2020-06-05T12:14:32.000Z</time>
      </trkpt>
      <trkpt lat="44.0672" lon="6.85858">
        <ele>767</ele>
        <time>2020-06-05T12:14:33.000Z</time>
      </trkpt>
      <trkpt lat="44.06721" lon="6.85858">
        <ele>768</ele>
        <time>2020-06-05T12:14:34.000Z</time>
      </trkpt>
      <trkpt lat="44.06722" lon="6.85858">
        <ele>768</ele>
        <time>2020-06-05T12:14:35.000Z</time>
      </trkpt>
      <trkpt lat="44.06723" lon="6.85858">
        <ele>768</ele>
        <time>2020-06-05T12:14:36.000Z</time>
      </trkpt>
      <trkpt lat="44.06725" lon="6.85858">
        <ele>768</ele>
        <time>2020-06-05T12:14:37.000Z</time>
      </trkpt>
      <trkpt lat="44.06726" lon="6.85858">
        <ele>768</ele>
        <time>2020-06-05T12:14:38.000Z</time>
      </trkpt>
      <trkpt lat="44.06727" lon="6.85858">
        <ele>768</ele>
        <time>2020-06-05T12:14:39.000Z</time>
      </trkpt>
      <trkpt lat="44.06728" lon="6.85858">
        <ele>768</ele>
        <time>2020-06-05T12:14:40.000Z</time>
      </trkpt>
      <trkpt lat="44.06729" lon="6.85858">
        <ele>767</ele>
        <time>2020-06-05T12:14:41.000Z</time>
      </trkpt>
      <trkpt lat="44.06731" lon="6.85858">
        <ele>767</ele>
        <time>2020-06-05T12:14:42.000Z</time>
      </trkpt>
      <trkpt lat="44.06732" lon="6.85859">
        <ele>767</ele>
        <time>2020-06-05T12:14:43.000Z</time>
      </trkpt>
      <trkpt lat="44.06733" lon="6.85859">
        <ele>767</ele>
        <time>2020-06-05T12:14:44.000Z</time>
      </trkpt>
      <trkpt lat="44.06734" lon="6.85859">
        <ele>767</ele>
        <time>2020-06-05T12:14:45.000Z</time>
      </trkpt>
      <trkpt lat="44.06736" lon="6.85859">
        <ele>767</ele>
        <time>2020-06-05T12:14:46.000Z</time>
      </trkpt>
      <trkpt lat="44.06737" lon="6.8586">
        <ele>767</ele>
        <time>2020-06-05T12:14:47.000Z</time>
      </trkpt>
      <trkpt lat="44.06738" lon="6.8586">
        <ele>767</ele>
        <time>2020-06-05T12:14:48.000Z</time>
      </trkpt>
      <trkpt lat="44.06739" lon="6.8586">
        <ele>767</ele>
        <time>2020-06-05T12:14:49.000Z</time>
      </trkpt>
      <trkpt lat="44.0674" lon="6.8586">
        <ele>767</ele>
        <time>2020-06-05T12:14:50.000Z</time>
      </trkpt>
      <trkpt lat="44.06742" lon="6.8586">
        <ele>767</ele>
        <time>2020-06-05T12:14:51.000Z</time>
      </trkpt>
      <trkpt lat="44.06743" lon="6.8586">
        <ele>767</ele>
        <time>2020-06-05T12:14:52.000Z</time>
      </trkpt>
      <trkpt lat="44.06744" lon="6.8586">
        <ele>767</ele>
        <time>2020-06-05T12:14:53.000Z</time>
      </trkpt>
      <trkpt lat="44.06745" lon="6.8586">
        <ele>767</ele>
        <time>2020-06-05T12:14:54.000Z</time>
      </trkpt>
      <trkpt lat="44.06747" lon="6.8586">
        <ele>767</ele>
        <time>2020-06-05T12:14:55.000Z</time>
      </trkpt>
      <trkpt lat="44.06748" lon="6.8586">
        <ele>767</ele>
        <time>2020-06-05T12:14:56.000Z</time>
      </trkpt>
      <trkpt lat="44.06749" lon="6.8586">
        <ele>767</ele>
        <time>2020-06-05T12:14:57.000Z</time>
      </trkpt>
      <trkpt lat="44.0675" lon="6.8586">
        <ele>767</ele>
        <time>2020-06-05T12:14:58.000Z</time>
      </trkpt>
      <trkpt lat="44.06752" lon="6.8586">
        <ele>767</ele>
        <time>2020-06-05T12:14:59.000Z</time>
      </trkpt>
      <trkpt lat="44.06753" lon="6.8586">
        <ele>766</ele>
        <time>2020-06-05T12:15:00.000Z</time>
      </trkpt>
      <trkpt lat="44.06754" lon="6.8586">
        <ele>766</ele>
        <time>2020-06-05T12:15:01.000Z</time>
      </trkpt>
      <trkpt lat="44.06756" lon="6.8586">
        <ele>766</ele>
        <time>2020-06-05T12:15:02.000Z</time>
      </trkpt>
      <trkpt lat="44.06757" lon="6.8586">
        <ele>766</ele>
        <time>2020-06-05T12:15:03.000Z</time>
      </trkpt>
      <trkpt lat="44.06758" lon="6.8586">
        <ele>766</ele>
        <time>2020-06-05T12:15:04.000Z</time>
      </trkpt>
      <trkpt lat="44.06759" lon="6.8586">
        <ele>766</ele>
        <time>2020-06-05T12:15:05.000Z</time>
      </trkpt>
      <trkpt lat="44.0676" lon="6.8586">
        <ele>766</ele>
        <time>2020-06-05T12:15:06.000Z</time>
      </trkpt>
      <trkpt lat="44.06762" lon="6.8586">
        <ele>766</ele>
        <time>2020-06-05T12:15:07.000Z</time>
      </trkpt>
      <trkpt lat="44.06763" lon="6.8586">
        <ele>766</ele>
        <time>2020-06-05T12:15:08.000Z</time>
      </trkpt>
      <trkpt lat="44.06764" lon="6.8586">
        <ele>766</ele>
        <time>2020-06-05T12:15:09.000Z</time>
      </trkpt>
      <trkpt lat="44.06765" lon="6.8586">
        <ele>766</ele>
        <time>2020-06-05T12:15:10.000Z</time>
      </trkpt>
      <trkpt lat="44.06767" lon="6.8586">
        <ele>766</ele>
        <time>2020-06-05T12:15:11.000Z</time>
      </trkpt>
      <trkpt lat="44.06768" lon="6.8586">
        <ele>766</ele>
        <time>2020-06-05T12:15:12.000Z</time>
      </trkpt>
      <trkpt lat="44.06769" lon="6.8586">
        <ele>766</ele>
        <time>2020-06-05T12:15:13.000Z</time>
      </trkpt>
      <trkpt lat="44.0677" lon="6.85859">
        <ele>766</ele>
        <time>2020-06-05T12:15:14.000Z</time>
      </trkpt>
      <trkpt lat="44.06771" lon="6.85859">
        <ele>766</ele>
        <time>2020-06-05T12:15:15.000Z</time>
      </trkpt>
      <trkpt lat="44.06772" lon="6.85859">
        <ele>766</ele>
        <time>2020-06-05T12:15:16.000Z</time>
      </trkpt>
      <trkpt lat="44.06773" lon="6.85859">
        <ele>766</ele>
        <time>2020-06-05T12:15:17.000Z</time>
      </trkpt>
      <trkpt lat="44.06774" lon="6.85859">
        <ele>766</ele>
        <time>2020-06-05T12:15:18.000Z</time>
      </trkpt>
      <trkpt lat="44.06775" lon="6.85859">
        <ele>766</ele>
        <time>2020-06-05T12:15:19.000Z</time>
      </trkpt>
      <trkpt lat="44.06777" lon="6.85859">
        <ele>766</ele>
        <time>2020-06-05T12:15:20.000Z</time>
      </trkpt>
      <trkpt lat="44.06778" lon="6.8586">
        <ele>766</ele>
        <time>2020-06-05T12:15:21.000Z</time>
      </trkpt>
      <trkpt lat="44.06779" lon="6.8586">
        <ele>766</ele>
        <time>2020-06-05T12:15:22.000Z</time>
      </trkpt>
      <trkpt lat="44.0678" lon="6.8586">
        <ele>766</ele>
        <time>2020-06-05T12:15:23.000Z</time>
      </trkpt>
      <trkpt lat="44.06781" lon="6.8586">
        <ele>766</ele>
        <time>2020-06-05T12:15:24.000Z</time>
      </trkpt>
      <trkpt lat="44.06782" lon="6.8586">
        <ele>766</ele>
        <time>2020-06-05T12:15:25.000Z</time>
      </trkpt>
      <trkpt lat="44.06784" lon="6.8586">
        <ele>766</ele>
        <time>2020-06-05T12:15:26.000Z</time>
      </trkpt>
      <trkpt lat="44.06785" lon="6.8586">
        <ele>766</ele>
        <time>2020-06-05T12:15:27.000Z</time>
      </trkpt>
      <trkpt lat="44.06786" lon="6.8586">
        <ele>766</ele>
        <time>2020-06-05T12:15:28.000Z</time>
      </trkpt>
      <trkpt lat="44.06787" lon="6.8586">
        <ele>766</ele>
        <time>2020-06-05T12:15:29.000Z</time>
      </trkpt>
      <trkpt lat="44.06788" lon="6.8586">
        <ele>766</ele>
        <time>2020-06-05T12:15:30.000Z</time>
      </trkpt>
      <trkpt lat="44.0679" lon="6.85859">
        <ele>766</ele>
        <time>2020-06-05T12:15:31.000Z</time>
      </trkpt>
      <trkpt lat="44.06791" lon="6.85859">
        <ele>766</ele>
        <time>2020-06-05T12:15:32.000Z</time>
      </trkpt>
      <trkpt lat="44.06792" lon="6.85859">
        <ele>766</ele>
        <time>2020-06-05T12:15:33.000Z</time>
      </trkpt>
      <trkpt lat="44.06793" lon="6.85858">
        <ele>766</ele>
        <time>2020-06-05T12:15:34.000Z</time>
      </trkpt>
      <trkpt lat="44.06794" lon="6.85858">
        <ele>766</ele>
        <time>2020-06-05T12:15:35.000Z</time>
      </trkpt>
      <trkpt lat="44.06795" lon="6.85858">
        <ele>766</ele>
        <time>2020-06-05T12:15:36.000Z</time>
      </trkpt>
      <trkpt lat="44.06797" lon="6.85858">
        <ele>766</ele>
        <time>2020-06-05T12:15:37.000Z</time>
      </trkpt>
      <trkpt lat="44.06798" lon="6.85858">
        <ele>766</ele>
        <time>2020-06-05T12:15:38.000Z</time>
      </trkpt>
      <trkpt lat="44.06799" lon="6.85858">
        <ele>766</ele>
        <time>2020-06-05T12:15:39.000Z</time>
      </trkpt>
      <trkpt lat="44.06801" lon="6.85857">
        <ele>766</ele>
        <time>2020-06-05T12:15:40.000Z</time>
      </trkpt>
      <trkpt lat="44.06802" lon="6.85857">
        <ele>766</ele>
        <time>2020-06-05T12:15:41.000Z</time>
      </trkpt>
      <trkpt lat="44.06803" lon="6.85857">
        <ele>766</ele>
        <time>2020-06-05T12:15:42.000Z</time>
      </trkpt>
      <trkpt lat="44.06804" lon="6.85857">
        <ele>766</ele>
        <time>2020-06-05T12:15:43.000Z</time>
      </trkpt>
      <trkpt lat="44.06806" lon="6.85857">
        <ele>766</ele>
        <time>2020-06-05T12:15:44.000Z</time>
      </trkpt>
      <trkpt lat="44.06807" lon="6.85857">
        <ele>766</ele>
        <time>2020-06-05T12:15:45.000Z</time>
      </trkpt>
      <trkpt lat="44.06808" lon="6.85856">
        <ele>767</ele>
        <time>2020-06-05T12:15:46.000Z</time>
      </trkpt>
      <trkpt lat="44.0681" lon="6.85856">
        <ele>767</ele>
        <time>2020-06-05T12:15:47.000Z</time>
      </trkpt>
      <trkpt lat="44.06811" lon="6.85856">
        <ele>767</ele>
        <time>2020-06-05T12:15:48.000Z</time>
      </trkpt>
      <trkpt lat="44.06812" lon="6.85856">
        <ele>767</ele>
        <time>2020-06-05T12:15:49.000Z</time>
      </trkpt>
      <trkpt lat="44.06813" lon="6.85855">
        <ele>767</ele>
        <time>2020-06-05T12:15:50.000Z</time>
      </trkpt>
      <trkpt lat="44.06815" lon="6.85855">
        <ele>767</ele>
        <time>2020-06-05T12:15:51.000Z</time>
      </trkpt>
      <trkpt lat="44.06816" lon="6.85855">
        <ele>767</ele>
        <time>2020-06-05T12:15:52.000Z</time>
      </trkpt>
      <trkpt lat="44.06818" lon="6.85854">
        <ele>767</ele>
        <time>2020-06-05T12:15:53.000Z</time>
      </trkpt>
      <trkpt lat="44.06819" lon="6.85854">
        <ele>767</ele>
        <time>2020-06-05T12:15:54.000Z</time>
      </trkpt>
      <trkpt lat="44.0682" lon="6.85854">
        <ele>767</ele>
        <time>2020-06-05T12:15:55.000Z</time>
      </trkpt>
      <trkpt lat="44.06821" lon="6.85854">
        <ele>767</ele>
        <time>2020-06-05T12:15:56.000Z</time>
      </trkpt>
      <trkpt lat="44.06822" lon="6.85853">
        <ele>767</ele>
        <time>2020-06-05T12:15:57.000Z</time>
      </trkpt>
      <trkpt lat="44.06824" lon="6.85853">
        <ele>767</ele>
        <time>2020-06-05T12:15:58.000Z</time>
      </trkpt>
      <trkpt lat="44.06825" lon="6.85853">
        <ele>767</ele>
        <time>2020-06-05T12:15:59.000Z</time>
      </trkpt>
      <trkpt lat="44.06826" lon="6.85852">
        <ele>767</ele>
        <time>2020-06-05T12:16:00.000Z</time>
      </trkpt>
      <trkpt lat="44.06827" lon="6.85852">
        <ele>767</ele>
        <time>2020-06-05T12:16:01.000Z</time>
      </trkpt>
      <trkpt lat="44.06828" lon="6.85851">
        <ele>767</ele>
        <time>2020-06-05T12:16:02.000Z</time>
      </trkpt>
      <trkpt lat="44.06829" lon="6.85851">
        <ele>767</ele>
        <time>2020-06-05T12:16:03.000Z</time>
      </trkpt>
      <trkpt lat="44.06831" lon="6.8585">
        <ele>767</ele>
        <time>2020-06-05T12:16:04.000Z</time>
      </trkpt>
      <trkpt lat="44.06832" lon="6.8585">
        <ele>767</ele>
        <time>2020-06-05T12:16:05.000Z</time>
      </trkpt>
      <trkpt lat="44.06833" lon="6.8585">
        <ele>767</ele>
        <time>2020-06-05T12:16:06.000Z</time>
      </trkpt>
      <trkpt lat="44.06834" lon="6.85849">
        <ele>767</ele>
        <time>2020-06-05T12:16:07.000Z</time>
      </trkpt>
      <trkpt lat="44.06835" lon="6.85849">
        <ele>767</ele>
        <time>2020-06-05T12:16:08.000Z</time>
      </trkpt>
      <trkpt lat="44.06837" lon="6.85849">
        <ele>767</ele>
        <time>2020-06-05T12:16:09.000Z</time>
      </trkpt>
      <trkpt lat="44.06838" lon="6.85849">
        <ele>767</ele>
        <time>2020-06-05T12:16:10.000Z</time>
      </trkpt>
      <trkpt lat="44.06839" lon="6.85849">
        <ele>767</ele>
        <time>2020-06-05T12:16:11.000Z</time>
      </trkpt>
      <trkpt lat="44.0684" lon="6.85848">
        <ele>767</ele>
        <time>2020-06-05T12:16:12.000Z</time>
      </trkpt>
      <trkpt lat="44.06842" lon="6.85848">
        <ele>767</ele>
        <time>2020-06-05T12:16:13.000Z</time>
      </trkpt>
      <trkpt lat="44.06843" lon="6.85848">
        <ele>767</ele>
        <time>2020-06-05T12:16:14.000Z</time>
      </trkpt>
      <trkpt lat="44.06844" lon="6.85848">
        <ele>767</ele>
        <time>2020-06-05T12:16:15.000Z</time>
      </trkpt>
      <trkpt lat="44.06845" lon="6.85847">
        <ele>767</ele>
        <time>2020-06-05T12:16:16.000Z</time>
      </trkpt>
      <trkpt lat="44.06847" lon="6.85847">
        <ele>767</ele>
        <time>2020-06-05T12:16:17.000Z</time>
      </trkpt>
      <trkpt lat="44.06848" lon="6.85847">
        <ele>767</ele>
        <time>2020-06-05T12:16:18.000Z</time>
      </trkpt>
      <trkpt lat="44.06849" lon="6.85846">
        <ele>767</ele>
        <time>2020-06-05T12:16:19.000Z</time>
      </trkpt>
      <trkpt lat="44.0685" lon="6.85845">
        <ele>767</ele>
        <time>2020-06-05T12:16:20.000Z</time>
      </trkpt>
      <trkpt lat="44.06852" lon="6.85845">
        <ele>767</ele>
        <time>2020-06-05T12:16:21.000Z</time>
      </trkpt>
      <trkpt lat="44.06853" lon="6.85844">
        <ele>767</ele>
        <time>2020-06-05T12:16:22.000Z</time>
      </trkpt>
      <trkpt lat="44.06854" lon="6.85844">
        <ele>767</ele>
        <time>2020-06-05T12:16:23.000Z</time>
      </trkpt>
      <trkpt lat="44.06855" lon="6.85844">
        <ele>767</ele>
        <time>2020-06-05T12:16:24.000Z</time>
      </trkpt>
      <trkpt lat="44.06857" lon="6.85844">
        <ele>767</ele>
        <time>2020-06-05T12:16:25.000Z</time>
      </trkpt>
      <trkpt lat="44.06858" lon="6.85844">
        <ele>766</ele>
        <time>2020-06-05T12:16:26.000Z</time>
      </trkpt>
      <trkpt lat="44.06859" lon="6.85843">
        <ele>766</ele>
        <time>2020-06-05T12:16:27.000Z</time>
      </trkpt>
      <trkpt lat="44.06861" lon="6.85843">
        <ele>766</ele>
        <time>2020-06-05T12:16:28.000Z</time>
      </trkpt>
      <trkpt lat="44.06862" lon="6.85843">
        <ele>767</ele>
        <time>2020-06-05T12:16:29.000Z</time>
      </trkpt>
      <trkpt lat="44.06863" lon="6.85842">
        <ele>767</ele>
        <time>2020-06-05T12:16:30.000Z</time>
      </trkpt>
      <trkpt lat="44.06864" lon="6.85842">
        <ele>766</ele>
        <time>2020-06-05T12:16:31.000Z</time>
      </trkpt>
      <trkpt lat="44.06865" lon="6.85842">
        <ele>766</ele>
        <time>2020-06-05T12:16:32.000Z</time>
      </trkpt>
      <trkpt lat="44.06867" lon="6.85842">
        <ele>766</ele>
        <time>2020-06-05T12:16:33.000Z</time>
      </trkpt>
      <trkpt lat="44.06868" lon="6.85842">
        <ele>766</ele>
        <time>2020-06-05T12:16:34.000Z</time>
      </trkpt>
      <trkpt lat="44.06869" lon="6.85841">
        <ele>766</ele>
        <time>2020-06-05T12:16:35.000Z</time>
      </trkpt>
      <trkpt lat="44.0687" lon="6.85841">
        <ele>766</ele>
        <time>2020-06-05T12:16:36.000Z</time>
      </trkpt>
      <trkpt lat="44.06872" lon="6.85841">
        <ele>767</ele>
        <time>2020-06-05T12:16:37.000Z</time>
      </trkpt>
      <trkpt lat="44.06873" lon="6.8584">
        <ele>767</ele>
        <time>2020-06-05T12:16:38.000Z</time>
      </trkpt>
      <trkpt lat="44.06874" lon="6.8584">
        <ele>767</ele>
        <time>2020-06-05T12:16:39.000Z</time>
      </trkpt>
      <trkpt lat="44.06875" lon="6.85839">
        <ele>767</ele>
        <time>2020-06-05T12:16:40.000Z</time>
      </trkpt>
      <trkpt lat="44.06876" lon="6.85839">
        <ele>767</ele>
        <time>2020-06-05T12:16:41.000Z</time>
      </trkpt>
      <trkpt lat="44.06878" lon="6.85839">
        <ele>767</ele>
        <time>2020-06-05T12:16:42.000Z</time>
      </trkpt>
      <trkpt lat="44.06878" lon="6.85838">
        <ele>767</ele>
        <time>2020-06-05T12:16:43.000Z</time>
      </trkpt>
      <trkpt lat="44.06879" lon="6.85838">
        <ele>767</ele>
        <time>2020-06-05T12:16:44.000Z</time>
      </trkpt>
      <trkpt lat="44.0688" lon="6.85838">
        <ele>767</ele>
        <time>2020-06-05T12:16:45.000Z</time>
      </trkpt>
      <trkpt lat="44.06881" lon="6.85837">
        <ele>767</ele>
        <time>2020-06-05T12:16:46.000Z</time>
      </trkpt>
      <trkpt lat="44.06883" lon="6.85837">
        <ele>767</ele>
        <time>2020-06-05T12:16:47.000Z</time>
      </trkpt>
      <trkpt lat="44.06884" lon="6.85837">
        <ele>768</ele>
        <time>2020-06-05T12:16:48.000Z</time>
      </trkpt>
      <trkpt lat="44.06885" lon="6.85836">
        <ele>768</ele>
        <time>2020-06-05T12:16:49.000Z</time>
      </trkpt>
      <trkpt lat="44.06886" lon="6.85836">
        <ele>768</ele>
        <time>2020-06-05T12:16:50.000Z</time>
      </trkpt>
      <trkpt lat="44.06887" lon="6.85836">
        <ele>768</ele>
        <time>2020-06-05T12:16:51.000Z</time>
      </trkpt>
      <trkpt lat="44.06889" lon="6.85835">
        <ele>768</ele>
        <time>2020-06-05T12:16:52.000Z</time>
      </trkpt>
      <trkpt lat="44.0689" lon="6.85835">
        <ele>768</ele>
        <time>2020-06-05T12:16:53.000Z</time>
      </trkpt>
      <trkpt lat="44.06891" lon="6.85835">
        <ele>768</ele>
        <time>2020-06-05T12:16:54.000Z</time>
      </trkpt>
      <trkpt lat="44.06893" lon="6.85835">
        <ele>768</ele>
        <time>2020-06-05T12:16:55.000Z</time>
      </trkpt>
      <trkpt lat="44.06894" lon="6.85834">
        <ele>768</ele>
        <time>2020-06-05T12:16:56.000Z</time>
      </trkpt>
      <trkpt lat="44.06895" lon="6.85834">
        <ele>768</ele>
        <time>2020-06-05T12:16:57.000Z</time>
      </trkpt>
      <trkpt lat="44.06896" lon="6.85834">
        <ele>768</ele>
        <time>2020-06-05T12:16:58.000Z</time>
      </trkpt>
      <trkpt lat="44.06897" lon="6.85834">
        <ele>768</ele>
        <time>2020-06-05T12:16:59.000Z</time>
      </trkpt>
      <trkpt lat="44.06898" lon="6.85834">
        <ele>768</ele>
        <time>2020-06-05T12:17:00.000Z</time>
      </trkpt>
      <trkpt lat="44.06898" lon="6.85834">
        <ele>768</ele>
        <time>2020-06-05T12:17:01.000Z</time>
      </trkpt>
      <trkpt lat="44.06898" lon="6.85834">
        <ele>769</ele>
        <time>2020-06-05T12:17:02.000Z</time>
      </trkpt>
      <trkpt lat="44.06898" lon="6.85834">
        <ele>769</ele>
        <time>2020-06-05T12:17:03.000Z</time>
      </trkpt>
      <trkpt lat="44.06898" lon="6.85835">
        <ele>769</ele>
        <time>2020-06-05T12:17:04.000Z</time>
      </trkpt>
      <trkpt lat="44.06898" lon="6.85835">
        <ele>769</ele>
        <time>2020-06-05T12:17:05.000Z</time>
      </trkpt>
      <trkpt lat="44.06898" lon="6.85835">
        <ele>769</ele>
        <time>2020-06-05T12:17:06.000Z</time>
      </trkpt>
      <trkpt lat="44.06898" lon="6.85834">
        <ele>769</ele>
        <time>2020-06-05T12:17:07.000Z</time>
      </trkpt>
      <trkpt lat="44.06899" lon="6.85834">
        <ele>769</ele>
        <time>2020-06-05T12:17:08.000Z</time>
      </trkpt>
      <trkpt lat="44.06899" lon="6.85833">
        <ele>769</ele>
        <time>2020-06-05T12:17:09.000Z</time>
      </trkpt>
      <trkpt lat="44.069" lon="6.85832">
        <ele>769</ele>
        <time>2020-06-05T12:17:10.000Z</time>
      </trkpt>
      <trkpt lat="44.06901" lon="6.85831">
        <ele>769</ele>
        <time>2020-06-05T12:17:11.000Z</time>
      </trkpt>
      <trkpt lat="44.06902" lon="6.8583">
        <ele>770</ele>
        <time>2020-06-05T12:17:12.000Z</time>
      </trkpt>
      <trkpt lat="44.06903" lon="6.85829">
        <ele>770</ele>
        <time>2020-06-05T12:17:13.000Z</time>
      </trkpt>
      <trkpt lat="44.06904" lon="6.85827">
        <ele>770</ele>
        <time>2020-06-05T12:17:14.000Z</time>
      </trkpt>
      <trkpt lat="44.06905" lon="6.85826">
        <ele>770</ele>
        <time>2020-06-05T12:17:15.000Z</time>
      </trkpt>
      <trkpt lat="44.06905" lon="6.85824">
        <ele>770</ele>
        <time>2020-06-05T12:17:16.000Z</time>
      </trkpt>
      <trkpt lat="44.06906" lon="6.85823">
        <ele>770</ele>
        <time>2020-06-05T12:17:17.000Z</time>
      </trkpt>
      <trkpt lat="44.06907" lon="6.85822">
        <ele>770</ele>
        <time>2020-06-05T12:17:18.000Z</time>
      </trkpt>
      <trkpt lat="44.06908" lon="6.85822">
        <ele>770</ele>
        <time>2020-06-05T12:17:19.000Z</time>
      </trkpt>
      <trkpt lat="44.06908" lon="6.85822">
        <ele>770</ele>
        <time>2020-06-05T12:17:20.000Z</time>
      </trkpt>
      <trkpt lat="44.0691" lon="6.85822">
        <ele>770</ele>
        <time>2020-06-05T12:17:21.000Z</time>
      </trkpt>
      <trkpt lat="44.06911" lon="6.85822">
        <ele>769</ele>
        <time>2020-06-05T12:17:22.000Z</time>
      </trkpt>
      <trkpt lat="44.06913" lon="6.85822">
        <ele>769</ele>
        <time>2020-06-05T12:17:23.000Z</time>
      </trkpt>
      <trkpt lat="44.06915" lon="6.85823">
        <ele>769</ele>
        <time>2020-06-05T12:17:24.000Z</time>
      </trkpt>
      <trkpt lat="44.06917" lon="6.85823">
        <ele>769</ele>
        <time>2020-06-05T12:17:25.000Z</time>
      </trkpt>
      <trkpt lat="44.06919" lon="6.85822">
        <ele>769</ele>
        <time>2020-06-05T12:17:26.000Z</time>
      </trkpt>
      <trkpt lat="44.0692" lon="6.85822">
        <ele>769</ele>
        <time>2020-06-05T12:17:27.000Z</time>
      </trkpt>
      <trkpt lat="44.06922" lon="6.85821">
        <ele>769</ele>
        <time>2020-06-05T12:17:28.000Z</time>
      </trkpt>
      <trkpt lat="44.06923" lon="6.85821">
        <ele>769</ele>
        <time>2020-06-05T12:17:29.000Z</time>
      </trkpt>
      <trkpt lat="44.06924" lon="6.85821">
        <ele>769</ele>
        <time>2020-06-05T12:17:30.000Z</time>
      </trkpt>
      <trkpt lat="44.06925" lon="6.85821">
        <ele>769</ele>
        <time>2020-06-05T12:17:31.000Z</time>
      </trkpt>
      <trkpt lat="44.06926" lon="6.85821">
        <ele>769</ele>
        <time>2020-06-05T12:17:32.000Z</time>
      </trkpt>
      <trkpt lat="44.06927" lon="6.85821">
        <ele>769</ele>
        <time>2020-06-05T12:17:33.000Z</time>
      </trkpt>
      <trkpt lat="44.06927" lon="6.85821">
        <ele>769</ele>
        <time>2020-06-05T12:17:34.000Z</time>
      </trkpt>
      <trkpt lat="44.06928" lon="6.85821">
        <ele>769</ele>
        <time>2020-06-05T12:17:35.000Z</time>
      </trkpt>
      <trkpt lat="44.06928" lon="6.85821">
        <ele>769</ele>
        <time>2020-06-05T12:17:36.000Z</time>
      </trkpt>
      <trkpt lat="44.06928" lon="6.85821">
        <ele>769</ele>
        <time>2020-06-05T12:17:37.000Z</time>
      </trkpt>
      <trkpt lat="44.06929" lon="6.85821">
        <ele>769</ele>
        <time>2020-06-05T12:17:38.000Z</time>
      </trkpt>
      <trkpt lat="44.06929" lon="6.85821">
        <ele>768</ele>
        <time>2020-06-05T12:17:39.000Z</time>
      </trkpt>
      <trkpt lat="44.06929" lon="6.85821">
        <ele>768</ele>
        <time>2020-06-05T12:17:40.000Z</time>
      </trkpt>
      <trkpt lat="44.0693" lon="6.85821">
        <ele>768</ele>
        <time>2020-06-05T12:17:41.000Z</time>
      </trkpt>
      <trkpt lat="44.0693" lon="6.85821">
        <ele>768</ele>
        <time>2020-06-05T12:17:42.000Z</time>
      </trkpt>
      <trkpt lat="44.0693" lon="6.85821">
        <ele>768</ele>
        <time>2020-06-05T12:17:43.000Z</time>
      </trkpt>
      <trkpt lat="44.06931" lon="6.85821">
        <ele>768</ele>
        <time>2020-06-05T12:17:44.000Z</time>
      </trkpt>
      <trkpt lat="44.06931" lon="6.85821">
        <ele>768</ele>
        <time>2020-06-05T12:17:45.000Z</time>
      </trkpt>
      <trkpt lat="44.06931" lon="6.8582">
        <ele>768</ele>
        <time>2020-06-05T12:17:46.000Z</time>
      </trkpt>
      <trkpt lat="44.06932" lon="6.8582">
        <ele>768</ele>
        <time>2020-06-05T12:17:47.000Z</time>
      </trkpt>
      <trkpt lat="44.06932" lon="6.8582">
        <ele>768</ele>
        <time>2020-06-05T12:17:48.000Z</time>
      </trkpt>
      <trkpt lat="44.06932" lon="6.8582">
        <ele>768</ele>
        <time>2020-06-05T12:17:49.000Z</time>
      </trkpt>
      <trkpt lat="44.06932" lon="6.85819">
        <ele>768</ele>
        <time>2020-06-05T12:17:50.000Z</time>
      </trkpt>
      <trkpt lat="44.06933" lon="6.85819">
        <ele>768</ele>
        <time>2020-06-05T12:17:51.000Z</time>
      </trkpt>
      <trkpt lat="44.06933" lon="6.85819">
        <ele>768</ele>
        <time>2020-06-05T12:17:52.000Z</time>
      </trkpt>
      <trkpt lat="44.06933" lon="6.85819">
        <ele>768</ele>
        <time>2020-06-05T12:17:53.000Z</time>
      </trkpt>
      <trkpt lat="44.06933" lon="6.85819">
        <ele>768</ele>
        <time>2020-06-05T12:17:54.000Z</time>
      </trkpt>
      <trkpt lat="44.06933" lon="6.85819">
        <ele>768</ele>
        <time>2020-06-05T12:17:55.000Z</time>
      </trkpt>
      <trkpt lat="44.06934" lon="6.85819">
        <ele>768</ele>
        <time>2020-06-05T12:17:56.000Z</time>
      </trkpt>
      <trkpt lat="44.06934" lon="6.85818">
        <ele>768</ele>
        <time>2020-06-05T12:17:57.000Z</time>
      </trkpt>
      <trkpt lat="44.06934" lon="6.85818">
        <ele>768</ele>
        <time>2020-06-05T12:17:58.000Z</time>
      </trkpt>
      <trkpt lat="44.06935" lon="6.85818">
        <ele>768</ele>
        <time>2020-06-05T12:17:59.000Z</time>
      </trkpt>
      <trkpt lat="44.06935" lon="6.85817">
        <ele>768</ele>
        <time>2020-06-05T12:18:00.000Z</time>
      </trkpt>
      <trkpt lat="44.06935" lon="6.85817">
        <ele>768</ele>
        <time>2020-06-05T12:18:01.000Z</time>
      </trkpt>
      <trkpt lat="44.06935" lon="6.85817">
        <ele>768</ele>
        <time>2020-06-05T12:18:02.000Z</time>
      </trkpt>
      <trkpt lat="44.06936" lon="6.85817">
        <ele>768</ele>
        <time>2020-06-05T12:18:03.000Z</time>
      </trkpt>
      <trkpt lat="44.06936" lon="6.85817">
        <ele>769</ele>
        <time>2020-06-05T12:18:04.000Z</time>
      </trkpt>
      <trkpt lat="44.06936" lon="6.85817">
        <ele>769</ele>
        <time>2020-06-05T12:18:05.000Z</time>
      </trkpt>
      <trkpt lat="44.06936" lon="6.85817">
        <ele>769</ele>
        <time>2020-06-05T12:18:06.000Z</time>
      </trkpt>
      <trkpt lat="44.06936" lon="6.85817">
        <ele>769</ele>
        <time>2020-06-05T12:18:07.000Z</time>
      </trkpt>
      <trkpt lat="44.06936" lon="6.85817">
        <ele>769</ele>
        <time>2020-06-05T12:18:08.000Z</time>
      </trkpt>
      <trkpt lat="44.06936" lon="6.85817">
        <ele>769</ele>
        <time>2020-06-05T12:18:09.000Z</time>
      </trkpt>
      <trkpt lat="44.06936" lon="6.85817">
        <ele>769</ele>
        <time>2020-06-05T12:18:10.000Z</time>
      </trkpt>
      <trkpt lat="44.06936" lon="6.85817">
        <ele>769</ele>
        <time>2020-06-05T12:18:11.000Z</time>
      </trkpt>
      <trkpt lat="44.06936" lon="6.85816">
        <ele>769</ele>
        <time>2020-06-05T12:18:12.000Z</time>
      </trkpt>
      <trkpt lat="44.06936" lon="6.85816">
        <ele>769</ele>
        <time>2020-06-05T12:18:13.000Z</time>
      </trkpt>
      <trkpt lat="44.06936" lon="6.85816">
        <ele>769</ele>
        <time>2020-06-05T12:18:14.000Z</time>
      </trkpt>
      <trkpt lat="44.06936" lon="6.85816">
        <ele>769</ele>
        <time>2020-06-05T12:18:15.000Z</time>
      </trkpt>
      <trkpt lat="44.06936" lon="6.85816">
        <ele>769</ele>
        <time>2020-06-05T12:18:16.000Z</time>
      </trkpt>
      <trkpt lat="44.06936" lon="6.85816">
        <ele>769</ele>
        <time>2020-06-05T12:18:17.000Z</time>
      </trkpt>
      <trkpt lat="44.06936" lon="6.85816">
        <ele>769</ele>
        <time>2020-06-05T12:18:18.000Z</time>
      </trkpt>
      <trkpt lat="44.06936" lon="6.85816">
        <ele>769</ele>
        <time>2020-06-05T12:18:19.000Z</time>
      </trkpt>
      <trkpt lat="44.06936" lon="6.85816">
        <ele>769</ele>
        <time>2020-06-05T12:18:20.000Z</time>
      </trkpt>
      <trkpt lat="44.06936" lon="6.85816">
        <ele>769</ele>
        <time>2020-06-05T12:18:21.000Z</time>
      </trkpt>
      <trkpt lat="44.06936" lon="6.85816">
        <ele>769</ele>
        <time>2020-06-05T12:18:22.000Z</time>
      </trkpt>
      <trkpt lat="44.06936" lon="6.85816">
        <ele>769</ele>
        <time>2020-06-05T12:18:23.000Z</time>
      </trkpt>
      <trkpt lat="44.06936" lon="6.85816">
        <ele>769</ele>
        <time>2020-06-05T12:18:24.000Z</time>
      </trkpt>
      <trkpt lat="44.06936" lon="6.85816">
        <ele>769</ele>
        <time>2020-06-05T12:18:25.000Z</time>
      </trkpt>
      <trkpt lat="44.06936" lon="6.85816">
        <ele>769</ele>
        <time>2020-06-05T12:18:26.000Z</time>
      </trkpt>
      <trkpt lat="44.06936" lon="6.85816">
        <ele>769</ele>
        <time>2020-06-05T12:18:27.000Z</time>
      </trkpt>
      <trkpt lat="44.06937" lon="6.85816">
        <ele>769</ele>
        <time>2020-06-05T12:18:28.000Z</time>
      </trkpt>
      <trkpt lat="44.06938" lon="6.85816">
        <ele>769</ele>
        <time>2020-06-05T12:18:29.000Z</time>
      </trkpt>
      <trkpt lat="44.06938" lon="6.85816">
        <ele>769</ele>
        <time>2020-06-05T12:18:30.000Z</time>
      </trkpt>
      <trkpt lat="44.06939" lon="6.85816">
        <ele>769</ele>
        <time>2020-06-05T12:18:31.000Z</time>
      </trkpt>
      <trkpt lat="44.0694" lon="6.85817">
        <ele>769</ele>
        <time>2020-06-05T12:18:32.000Z</time>
      </trkpt>
      <trkpt lat="44.0694" lon="6.85817">
        <ele>769</ele>
        <time>2020-06-05T12:18:33.000Z</time>
      </trkpt>
      <trkpt lat="44.0694" lon="6.85818">
        <ele>769</ele>
        <time>2020-06-05T12:18:34.000Z</time>
      </trkpt>
      <trkpt lat="44.06941" lon="6.85818">
        <ele>769</ele>
        <time>2020-06-05T12:18:35.000Z</time>
      </trkpt>
      <trkpt lat="44.06941" lon="6.85818">
        <ele>769</ele>
        <time>2020-06-05T12:18:36.000Z</time>
      </trkpt>
      <trkpt lat="44.06941" lon="6.85818">
        <ele>769</ele>
        <time>2020-06-05T12:18:37.000Z</time>
      </trkpt>
      <trkpt lat="44.06941" lon="6.85818">
        <ele>769</ele>
        <time>2020-06-05T12:18:38.000Z</time>
      </trkpt>
      <trkpt lat="44.06942" lon="6.85818">
        <ele>769</ele>
        <time>2020-06-05T12:18:39.000Z</time>
      </trkpt>
      <trkpt lat="44.06943" lon="6.85818">
        <ele>769</ele>
        <time>2020-06-05T12:18:40.000Z</time>
      </trkpt>
      <trkpt lat="44.06944" lon="6.85818">
        <ele>769</ele>
        <time>2020-06-05T12:18:41.000Z</time>
      </trkpt>
      <trkpt lat="44.06945" lon="6.85818">
        <ele>769</ele>
        <time>2020-06-05T12:18:42.000Z</time>
      </trkpt>
      <trkpt lat="44.06946" lon="6.85818">
        <ele>769</ele>
        <time>2020-06-05T12:18:43.000Z</time>
      </trkpt>
      <trkpt lat="44.06947" lon="6.85818">
        <ele>769</ele>
        <time>2020-06-05T12:18:44.000Z</time>
      </trkpt>
      <trkpt lat="44.06948" lon="6.85818">
        <ele>769</ele>
        <time>2020-06-05T12:18:45.000Z</time>
      </trkpt>
      <trkpt lat="44.06949" lon="6.85818">
        <ele>769</ele>
        <time>2020-06-05T12:18:46.000Z</time>
      </trkpt>
      <trkpt lat="44.0695" lon="6.85818">
        <ele>769</ele>
        <time>2020-06-05T12:18:47.000Z</time>
      </trkpt>
      <trkpt lat="44.06951" lon="6.85817">
        <ele>769</ele>
        <time>2020-06-05T12:18:48.000Z</time>
      </trkpt>
      <trkpt lat="44.06952" lon="6.85817">
        <ele>770</ele>
        <time>2020-06-05T12:18:49.000Z</time>
      </trkpt>
      <trkpt lat="44.06953" lon="6.85817">
        <ele>770</ele>
        <time>2020-06-05T12:18:50.000Z</time>
      </trkpt>
      <trkpt lat="44.06954" lon="6.85817">
        <ele>770</ele>
        <time>2020-06-05T12:18:51.000Z</time>
      </trkpt>
      <trkpt lat="44.06955" lon="6.85817">
        <ele>770</ele>
        <time>2020-06-05T12:18:52.000Z</time>
      </trkpt>
      <trkpt lat="44.06956" lon="6.85817">
        <ele>770</ele>
        <time>2020-06-05T12:18:53.000Z</time>
      </trkpt>
      <trkpt lat="44.06957" lon="6.85817">
        <ele>770</ele>
        <time>2020-06-05T12:18:54.000Z</time>
      </trkpt>
      <trkpt lat="44.06957" lon="6.85817">
        <ele>770</ele>
        <time>2020-06-05T12:18:55.000Z</time>
      </trkpt>
      <trkpt lat="44.06958" lon="6.85817">
        <ele>770</ele>
        <time>2020-06-05T12:18:56.000Z</time>
      </trkpt>
      <trkpt lat="44.06959" lon="6.85817">
        <ele>770</ele>
        <time>2020-06-05T12:18:57.000Z</time>
      </trkpt>
      <trkpt lat="44.06961" lon="6.85817">
        <ele>770</ele>
        <time>2020-06-05T12:18:58.000Z</time>
      </trkpt>
      <trkpt lat="44.06962" lon="6.85817">
        <ele>770</ele>
        <time>2020-06-05T12:18:59.000Z</time>
      </trkpt>
      <trkpt lat="44.06963" lon="6.85816">
        <ele>770</ele>
        <time>2020-06-05T12:19:00.000Z</time>
      </trkpt>
      <trkpt lat="44.06964" lon="6.85816">
        <ele>770</ele>
        <time>2020-06-05T12:19:01.000Z</time>
      </trkpt>
      <trkpt lat="44.06965" lon="6.85816">
        <ele>770</ele>
        <time>2020-06-05T12:19:02.000Z</time>
      </trkpt>
      <trkpt lat="44.06967" lon="6.85816">
        <ele>770</ele>
        <time>2020-06-05T12:19:03.000Z</time>
      </trkpt>
      <trkpt lat="44.06968" lon="6.85815">
        <ele>770</ele>
        <time>2020-06-05T12:19:04.000Z</time>
      </trkpt>
      <trkpt lat="44.06969" lon="6.85815">
        <ele>770</ele>
        <time>2020-06-05T12:19:05.000Z</time>
      </trkpt>
      <trkpt lat="44.0697" lon="6.85815">
        <ele>770</ele>
        <time>2020-06-05T12:19:06.000Z</time>
      </trkpt>
      <trkpt lat="44.0697" lon="6.85815">
        <ele>770</ele>
        <time>2020-06-05T12:19:07.000Z</time>
      </trkpt>
      <trkpt lat="44.06972" lon="6.85815">
        <ele>770</ele>
        <time>2020-06-05T12:19:08.000Z</time>
      </trkpt>
      <trkpt lat="44.06973" lon="6.85815">
        <ele>770</ele>
        <time>2020-06-05T12:19:09.000Z</time>
      </trkpt>
      <trkpt lat="44.06974" lon="6.85815">
        <ele>770</ele>
        <time>2020-06-05T12:19:10.000Z</time>
      </trkpt>
      <trkpt lat="44.06975" lon="6.85815">
        <ele>770</ele>
        <time>2020-06-05T12:19:11.000Z</time>
      </trkpt>
      <trkpt lat="44.06976" lon="6.85815">
        <ele>770</ele>
        <time>2020-06-05T12:19:12.000Z</time>
      </trkpt>
      <trkpt lat="44.06978" lon="6.85815">
        <ele>770</ele>
        <time>2020-06-05T12:19:13.000Z</time>
      </trkpt>
      <trkpt lat="44.06979" lon="6.85814">
        <ele>770</ele>
        <time>2020-06-05T12:19:14.000Z</time>
      </trkpt>
      <trkpt lat="44.0698" lon="6.85814">
        <ele>770</ele>
        <time>2020-06-05T12:19:15.000Z</time>
      </trkpt>
      <trkpt lat="44.06981" lon="6.85813">
        <ele>770</ele>
        <time>2020-06-05T12:19:16.000Z</time>
      </trkpt>
      <trkpt lat="44.06982" lon="6.85813">
        <ele>770</ele>
        <time>2020-06-05T12:19:17.000Z</time>
      </trkpt>
      <trkpt lat="44.06983" lon="6.85813">
        <ele>770</ele>
        <time>2020-06-05T12:19:18.000Z</time>
      </trkpt>
      <trkpt lat="44.06985" lon="6.85813">
        <ele>770</ele>
        <time>2020-06-05T12:19:19.000Z</time>
      </trkpt>
      <trkpt lat="44.06986" lon="6.85813">
        <ele>770</ele>
        <time>2020-06-05T12:19:20.000Z</time>
      </trkpt>
      <trkpt lat="44.06987" lon="6.85812">
        <ele>770</ele>
        <time>2020-06-05T12:19:21.000Z</time>
      </trkpt>
      <trkpt lat="44.06988" lon="6.85812">
        <ele>770</ele>
        <time>2020-06-05T12:19:22.000Z</time>
      </trkpt>
      <trkpt lat="44.06989" lon="6.85812">
        <ele>770</ele>
        <time>2020-06-05T12:19:23.000Z</time>
      </trkpt>
      <trkpt lat="44.0699" lon="6.85812">
        <ele>770</ele>
        <time>2020-06-05T12:19:24.000Z</time>
      </trkpt>
      <trkpt lat="44.06992" lon="6.85811">
        <ele>770</ele>
        <time>2020-06-05T12:19:25.000Z</time>
      </trkpt>
      <trkpt lat="44.06993" lon="6.85811">
        <ele>770</ele>
        <time>2020-06-05T12:19:26.000Z</time>
      </trkpt>
      <trkpt lat="44.06994" lon="6.85811">
        <ele>770</ele>
        <time>2020-06-05T12:19:27.000Z</time>
      </trkpt>
      <trkpt lat="44.06996" lon="6.8581">
        <ele>770</ele>
        <time>2020-06-05T12:19:28.000Z</time>
      </trkpt>
      <trkpt lat="44.06997" lon="6.8581">
        <ele>770</ele>
        <time>2020-06-05T12:19:29.000Z</time>
      </trkpt>
      <trkpt lat="44.06998" lon="6.8581">
        <ele>770</ele>
        <time>2020-06-05T12:19:30.000Z</time>
      </trkpt>
      <trkpt lat="44.06999" lon="6.85809">
        <ele>770</ele>
        <time>2020-06-05T12:19:31.000Z</time>
      </trkpt>
      <trkpt lat="44.07001" lon="6.85809">
        <ele>770</ele>
        <time>2020-06-05T12:19:32.000Z</time>
      </trkpt>
      <trkpt lat="44.07002" lon="6.85808">
        <ele>770</ele>
        <time>2020-06-05T12:19:33.000Z</time>
      </trkpt>
      <trkpt lat="44.07003" lon="6.85808">
        <ele>770</ele>
        <time>2020-06-05T12:19:34.000Z</time>
      </trkpt>
      <trkpt lat="44.07004" lon="6.85807">
        <ele>770</ele>
        <time>2020-06-05T12:19:35.000Z</time>
      </trkpt>
      <trkpt lat="44.07005" lon="6.85807">
        <ele>770</ele>
        <time>2020-06-05T12:19:36.000Z</time>
      </trkpt>
      <trkpt lat="44.07006" lon="6.85806">
        <ele>769</ele>
        <time>2020-06-05T12:19:37.000Z</time>
      </trkpt>
      <trkpt lat="44.07008" lon="6.85805">
        <ele>769</ele>
        <time>2020-06-05T12:19:38.000Z</time>
      </trkpt>
      <trkpt lat="44.07009" lon="6.85805">
        <ele>769</ele>
        <time>2020-06-05T12:19:39.000Z</time>
      </trkpt>
      <trkpt lat="44.0701" lon="6.85804">
        <ele>769</ele>
        <time>2020-06-05T12:19:40.000Z</time>
      </trkpt>
      <trkpt lat="44.07011" lon="6.85803">
        <ele>769</ele>
        <time>2020-06-05T12:19:41.000Z</time>
      </trkpt>
      <trkpt lat="44.07012" lon="6.85802">
        <ele>769</ele>
        <time>2020-06-05T12:19:42.000Z</time>
      </trkpt>
      <trkpt lat="44.07013" lon="6.85802">
        <ele>769</ele>
        <time>2020-06-05T12:19:43.000Z</time>
      </trkpt>
      <trkpt lat="44.07014" lon="6.85801">
        <ele>769</ele>
        <time>2020-06-05T12:19:44.000Z</time>
      </trkpt>
      <trkpt lat="44.07015" lon="6.858">
        <ele>769</ele>
        <time>2020-06-05T12:19:45.000Z</time>
      </trkpt>
      <trkpt lat="44.07016" lon="6.858">
        <ele>769</ele>
        <time>2020-06-05T12:19:46.000Z</time>
      </trkpt>
      <trkpt lat="44.07017" lon="6.85799">
        <ele>769</ele>
        <time>2020-06-05T12:19:47.000Z</time>
      </trkpt>
      <trkpt lat="44.07018" lon="6.85798">
        <ele>769</ele>
        <time>2020-06-05T12:19:48.000Z</time>
      </trkpt>
      <trkpt lat="44.0702" lon="6.85797">
        <ele>769</ele>
        <time>2020-06-05T12:19:49.000Z</time>
      </trkpt>
      <trkpt lat="44.07021" lon="6.85797">
        <ele>769</ele>
        <time>2020-06-05T12:19:50.000Z</time>
      </trkpt>
      <trkpt lat="44.07022" lon="6.85796">
        <ele>769</ele>
        <time>2020-06-05T12:19:51.000Z</time>
      </trkpt>
      <trkpt lat="44.07023" lon="6.85795">
        <ele>769</ele>
        <time>2020-06-05T12:19:52.000Z</time>
      </trkpt>
      <trkpt lat="44.07024" lon="6.85794">
        <ele>769</ele>
        <time>2020-06-05T12:19:53.000Z</time>
      </trkpt>
      <trkpt lat="44.07025" lon="6.85793">
        <ele>769</ele>
        <time>2020-06-05T12:19:54.000Z</time>
      </trkpt>
      <trkpt lat="44.07026" lon="6.85792">
        <ele>769</ele>
        <time>2020-06-05T12:19:55.000Z</time>
      </trkpt>
      <trkpt lat="44.07027" lon="6.85791">
        <ele>769</ele>
        <time>2020-06-05T12:19:56.000Z</time>
      </trkpt>
      <trkpt lat="44.07028" lon="6.85791">
        <ele>769</ele>
        <time>2020-06-05T12:19:57.000Z</time>
      </trkpt>
      <trkpt lat="44.07029" lon="6.8579">
        <ele>769</ele>
        <time>2020-06-05T12:19:58.000Z</time>
      </trkpt>
      <trkpt lat="44.0703" lon="6.85788">
        <ele>769</ele>
        <time>2020-06-05T12:19:59.000Z</time>
      </trkpt>
      <trkpt lat="44.07031" lon="6.85787">
        <ele>769</ele>
        <time>2020-06-05T12:20:00.000Z</time>
      </trkpt>
      <trkpt lat="44.07032" lon="6.85786">
        <ele>769</ele>
        <time>2020-06-05T12:20:01.000Z</time>
      </trkpt>
      <trkpt lat="44.07033" lon="6.85785">
        <ele>769</ele>
        <time>2020-06-05T12:20:02.000Z</time>
      </trkpt>
      <trkpt lat="44.07034" lon="6.85784">
        <ele>769</ele>
        <time>2020-06-05T12:20:03.000Z</time>
      </trkpt>
      <trkpt lat="44.07035" lon="6.85783">
        <ele>769</ele>
        <time>2020-06-05T12:20:04.000Z</time>
      </trkpt>
      <trkpt lat="44.07036" lon="6.85782">
        <ele>769</ele>
        <time>2020-06-05T12:20:05.000Z</time>
      </trkpt>
      <trkpt lat="44.07037" lon="6.85781">
        <ele>769</ele>
        <time>2020-06-05T12:20:06.000Z</time>
      </trkpt>
      <trkpt lat="44.07038" lon="6.8578">
        <ele>769</ele>
        <time>2020-06-05T12:20:07.000Z</time>
      </trkpt>
      <trkpt lat="44.07039" lon="6.85779">
        <ele>769</ele>
        <time>2020-06-05T12:20:08.000Z</time>
      </trkpt>
      <trkpt lat="44.0704" lon="6.85778">
        <ele>769</ele>
        <time>2020-06-05T12:20:09.000Z</time>
      </trkpt>
      <trkpt lat="44.07041" lon="6.85777">
        <ele>769</ele>
        <time>2020-06-05T12:20:10.000Z</time>
      </trkpt>
      <trkpt lat="44.07042" lon="6.85776">
        <ele>769</ele>
        <time>2020-06-05T12:20:11.000Z</time>
      </trkpt>
      <trkpt lat="44.07043" lon="6.85775">
        <ele>769</ele>
        <time>2020-06-05T12:20:12.000Z</time>
      </trkpt>
      <trkpt lat="44.07044" lon="6.85774">
        <ele>769</ele>
        <time>2020-06-05T12:20:13.000Z</time>
      </trkpt>
      <trkpt lat="44.07045" lon="6.85773">
        <ele>769</ele>
        <time>2020-06-05T12:20:14.000Z</time>
      </trkpt>
      <trkpt lat="44.07046" lon="6.85772">
        <ele>769</ele>
        <time>2020-06-05T12:20:15.000Z</time>
      </trkpt>
      <trkpt lat="44.07047" lon="6.85771">
        <ele>769</ele>
        <time>2020-06-05T12:20:16.000Z</time>
      </trkpt>
      <trkpt lat="44.07048" lon="6.8577">
        <ele>769</ele>
        <time>2020-06-05T12:20:17.000Z</time>
      </trkpt>
      <trkpt lat="44.07049" lon="6.85769">
        <ele>769</ele>
        <time>2020-06-05T12:20:18.000Z</time>
      </trkpt>
      <trkpt lat="44.07049" lon="6.85768">
        <ele>769</ele>
        <time>2020-06-05T12:20:19.000Z</time>
      </trkpt>
      <trkpt lat="44.0705" lon="6.85767">
        <ele>769</ele>
        <time>2020-06-05T12:20:20.000Z</time>
      </trkpt>
      <trkpt lat="44.07052" lon="6.85766">
        <ele>769</ele>
        <time>2020-06-05T12:20:21.000Z</time>
      </trkpt>
      <trkpt lat="44.07053" lon="6.85765">
        <ele>769</ele>
        <time>2020-06-05T12:20:22.000Z</time>
      </trkpt>
      <trkpt lat="44.07054" lon="6.85764">
        <ele>769</ele>
        <time>2020-06-05T12:20:23.000Z</time>
      </trkpt>
      <trkpt lat="44.07055" lon="6.85763">
        <ele>769</ele>
        <time>2020-06-05T12:20:24.000Z</time>
      </trkpt>
      <trkpt lat="44.07056" lon="6.85763">
        <ele>769</ele>
        <time>2020-06-05T12:20:25.000Z</time>
      </trkpt>
      <trkpt lat="44.07057" lon="6.85762">
        <ele>769</ele>
        <time>2020-06-05T12:20:26.000Z</time>
      </trkpt>
      <trkpt lat="44.07058" lon="6.85761">
        <ele>769</ele>
        <time>2020-06-05T12:20:27.000Z</time>
      </trkpt>
      <trkpt lat="44.07059" lon="6.8576">
        <ele>769</ele>
        <time>2020-06-05T12:20:28.000Z</time>
      </trkpt>
      <trkpt lat="44.0706" lon="6.85759">
        <ele>769</ele>
        <time>2020-06-05T12:20:29.000Z</time>
      </trkpt>
      <trkpt lat="44.07062" lon="6.85758">
        <ele>769</ele>
        <time>2020-06-05T12:20:30.000Z</time>
      </trkpt>
      <trkpt lat="44.07063" lon="6.85757">
        <ele>769</ele>
        <time>2020-06-05T12:20:31.000Z</time>
      </trkpt>
      <trkpt lat="44.07064" lon="6.85757">
        <ele>769</ele>
        <time>2020-06-05T12:20:32.000Z</time>
      </trkpt>
      <trkpt lat="44.07065" lon="6.85756">
        <ele>769</ele>
        <time>2020-06-05T12:20:33.000Z</time>
      </trkpt>
      <trkpt lat="44.07066" lon="6.85755">
        <ele>769</ele>
        <time>2020-06-05T12:20:34.000Z</time>
      </trkpt>
      <trkpt lat="44.07067" lon="6.85754">
        <ele>769</ele>
        <time>2020-06-05T12:20:35.000Z</time>
      </trkpt>
      <trkpt lat="44.07068" lon="6.85754">
        <ele>769</ele>
        <time>2020-06-05T12:20:36.000Z</time>
      </trkpt>
      <trkpt lat="44.0707" lon="6.85753">
        <ele>769</ele>
        <time>2020-06-05T12:20:37.000Z</time>
      </trkpt>
      <trkpt lat="44.0707" lon="6.85753">
        <ele>769</ele>
        <time>2020-06-05T12:20:38.000Z</time>
      </trkpt>
      <trkpt lat="44.07072" lon="6.85752">
        <ele>769</ele>
        <time>2020-06-05T12:20:39.000Z</time>
      </trkpt>
      <trkpt lat="44.07073" lon="6.85752">
        <ele>769</ele>
        <time>2020-06-05T12:20:40.000Z</time>
      </trkpt>
      <trkpt lat="44.07074" lon="6.85752">
        <ele>769</ele>
        <time>2020-06-05T12:20:41.000Z</time>
      </trkpt>
      <trkpt lat="44.07075" lon="6.85751">
        <ele>769</ele>
        <time>2020-06-05T12:20:42.000Z</time>
      </trkpt>
      <trkpt lat="44.07076" lon="6.85751">
        <ele>769</ele>
        <time>2020-06-05T12:20:43.000Z</time>
      </trkpt>
      <trkpt lat="44.07077" lon="6.85751">
        <ele>769</ele>
        <time>2020-06-05T12:20:44.000Z</time>
      </trkpt>
      <trkpt lat="44.07078" lon="6.85751">
        <ele>769</ele>
        <time>2020-06-05T12:20:45.000Z</time>
      </trkpt>
      <trkpt lat="44.0708" lon="6.85751">
        <ele>769</ele>
        <time>2020-06-05T12:20:46.000Z</time>
      </trkpt>
      <trkpt lat="44.07081" lon="6.85752">
        <ele>769</ele>
        <time>2020-06-05T12:20:47.000Z</time>
      </trkpt>
      <trkpt lat="44.07082" lon="6.85752">
        <ele>769</ele>
        <time>2020-06-05T12:20:48.000Z</time>
      </trkpt>
      <trkpt lat="44.07083" lon="6.85753">
        <ele>768</ele>
        <time>2020-06-05T12:20:49.000Z</time>
      </trkpt>
      <trkpt lat="44.07084" lon="6.85753">
        <ele>768</ele>
        <time>2020-06-05T12:20:50.000Z</time>
      </trkpt>
      <trkpt lat="44.07085" lon="6.85754">
        <ele>768</ele>
        <time>2020-06-05T12:20:51.000Z</time>
      </trkpt>
      <trkpt lat="44.07086" lon="6.85754">
        <ele>768</ele>
        <time>2020-06-05T12:20:52.000Z</time>
      </trkpt>
      <trkpt lat="44.07088" lon="6.85755">
        <ele>768</ele>
        <time>2020-06-05T12:20:53.000Z</time>
      </trkpt>
      <trkpt lat="44.07089" lon="6.85756">
        <ele>768</ele>
        <time>2020-06-05T12:20:54.000Z</time>
      </trkpt>
      <trkpt lat="44.0709" lon="6.85757">
        <ele>768</ele>
        <time>2020-06-05T12:20:55.000Z</time>
      </trkpt>
      <trkpt lat="44.07091" lon="6.85758">
        <ele>768</ele>
        <time>2020-06-05T12:20:56.000Z</time>
      </trkpt>
      <trkpt lat="44.07092" lon="6.85759">
        <ele>768</ele>
        <time>2020-06-05T12:20:57.000Z</time>
      </trkpt>
      <trkpt lat="44.07094" lon="6.8576">
        <ele>768</ele>
        <time>2020-06-05T12:20:58.000Z</time>
      </trkpt>
      <trkpt lat="44.07095" lon="6.8576">
        <ele>768</ele>
        <time>2020-06-05T12:20:59.000Z</time>
      </trkpt>
      <trkpt lat="44.07096" lon="6.85761">
        <ele>768</ele>
        <time>2020-06-05T12:21:00.000Z</time>
      </trkpt>
      <trkpt lat="44.07097" lon="6.85762">
        <ele>768</ele>
        <time>2020-06-05T12:21:01.000Z</time>
      </trkpt>
      <trkpt lat="44.07098" lon="6.85763">
        <ele>768</ele>
        <time>2020-06-05T12:21:02.000Z</time>
      </trkpt>
      <trkpt lat="44.07099" lon="6.85764">
        <ele>768</ele>
        <time>2020-06-05T12:21:03.000Z</time>
      </trkpt>
      <trkpt lat="44.071" lon="6.85765">
        <ele>768</ele>
        <time>2020-06-05T12:21:04.000Z</time>
      </trkpt>
      <trkpt lat="44.07101" lon="6.85765">
        <ele>768</ele>
        <time>2020-06-05T12:21:05.000Z</time>
      </trkpt>
      <trkpt lat="44.07103" lon="6.85766">
        <ele>768</ele>
        <time>2020-06-05T12:21:06.000Z</time>
      </trkpt>
      <trkpt lat="44.07104" lon="6.85767">
        <ele>768</ele>
        <time>2020-06-05T12:21:07.000Z</time>
      </trkpt>
      <trkpt lat="44.07105" lon="6.85768">
        <ele>768</ele>
        <time>2020-06-05T12:21:08.000Z</time>
      </trkpt>
      <trkpt lat="44.07106" lon="6.85768">
        <ele>768</ele>
        <time>2020-06-05T12:21:09.000Z</time>
      </trkpt>
      <trkpt lat="44.07107" lon="6.85769">
        <ele>768</ele>
        <time>2020-06-05T12:21:10.000Z</time>
      </trkpt>
      <trkpt lat="44.07108" lon="6.8577">
        <ele>768</ele>
        <time>2020-06-05T12:21:11.000Z</time>
      </trkpt>
      <trkpt lat="44.07109" lon="6.85771">
        <ele>768</ele>
        <time>2020-06-05T12:21:12.000Z</time>
      </trkpt>
      <trkpt lat="44.0711" lon="6.85772">
        <ele>768</ele>
        <time>2020-06-05T12:21:13.000Z</time>
      </trkpt>
      <trkpt lat="44.07111" lon="6.85773">
        <ele>768</ele>
        <time>2020-06-05T12:21:14.000Z</time>
      </trkpt>
      <trkpt lat="44.07112" lon="6.85774">
        <ele>768</ele>
        <time>2020-06-05T12:21:15.000Z</time>
      </trkpt>
      <trkpt lat="44.07114" lon="6.85775">
        <ele>768</ele>
        <time>2020-06-05T12:21:16.000Z</time>
      </trkpt>
      <trkpt lat="44.07115" lon="6.85776">
        <ele>768</ele>
        <time>2020-06-05T12:21:17.000Z</time>
      </trkpt>
      <trkpt lat="44.07116" lon="6.85776">
        <ele>768</ele>
        <time>2020-06-05T12:21:18.000Z</time>
      </trkpt>
      <trkpt lat="44.07117" lon="6.85777">
        <ele>768</ele>
        <time>2020-06-05T12:21:19.000Z</time>
      </trkpt>
      <trkpt lat="44.07118" lon="6.85778">
        <ele>768</ele>
        <time>2020-06-05T12:21:20.000Z</time>
      </trkpt>
      <trkpt lat="44.07119" lon="6.85778">
        <ele>768</ele>
        <time>2020-06-05T12:21:21.000Z</time>
      </trkpt>
      <trkpt lat="44.07121" lon="6.85779">
        <ele>768</ele>
        <time>2020-06-05T12:21:22.000Z</time>
      </trkpt>
      <trkpt lat="44.07122" lon="6.8578">
        <ele>768</ele>
        <time>2020-06-05T12:21:23.000Z</time>
      </trkpt>
      <trkpt lat="44.07123" lon="6.8578">
        <ele>768</ele>
        <time>2020-06-05T12:21:24.000Z</time>
      </trkpt>
      <trkpt lat="44.07125" lon="6.8578">
        <ele>768</ele>
        <time>2020-06-05T12:21:25.000Z</time>
      </trkpt>
      <trkpt lat="44.07126" lon="6.85781">
        <ele>768</ele>
        <time>2020-06-05T12:21:26.000Z</time>
      </trkpt>
      <trkpt lat="44.07127" lon="6.85782">
        <ele>767</ele>
        <time>2020-06-05T12:21:27.000Z</time>
      </trkpt>
      <trkpt lat="44.07128" lon="6.85782">
        <ele>767</ele>
        <time>2020-06-05T12:21:28.000Z</time>
      </trkpt>
      <trkpt lat="44.07129" lon="6.85783">
        <ele>767</ele>
        <time>2020-06-05T12:21:29.000Z</time>
      </trkpt>
      <trkpt lat="44.07131" lon="6.85783">
        <ele>767</ele>
        <time>2020-06-05T12:21:30.000Z</time>
      </trkpt>
      <trkpt lat="44.07132" lon="6.85784">
        <ele>767</ele>
        <time>2020-06-05T12:21:31.000Z</time>
      </trkpt>
      <trkpt lat="44.07133" lon="6.85784">
        <ele>767</ele>
        <time>2020-06-05T12:21:32.000Z</time>
      </trkpt>
      <trkpt lat="44.07134" lon="6.85785">
        <ele>767</ele>
        <time>2020-06-05T12:21:33.000Z</time>
      </trkpt>
      <trkpt lat="44.07135" lon="6.85785">
        <ele>767</ele>
        <time>2020-06-05T12:21:34.000Z</time>
      </trkpt>
      <trkpt lat="44.07136" lon="6.85786">
        <ele>767</ele>
        <time>2020-06-05T12:21:35.000Z</time>
      </trkpt>
      <trkpt lat="44.07138" lon="6.85786">
        <ele>767</ele>
        <time>2020-06-05T12:21:36.000Z</time>
      </trkpt>
      <trkpt lat="44.07139" lon="6.85786">
        <ele>767</ele>
        <time>2020-06-05T12:21:37.000Z</time>
      </trkpt>
      <trkpt lat="44.0714" lon="6.85787">
        <ele>767</ele>
        <time>2020-06-05T12:21:38.000Z</time>
      </trkpt>
      <trkpt lat="44.07141" lon="6.85787">
        <ele>767</ele>
        <time>2020-06-05T12:21:39.000Z</time>
      </trkpt>
      <trkpt lat="44.07142" lon="6.85787">
        <ele>767</ele>
        <time>2020-06-05T12:21:40.000Z</time>
      </trkpt>
      <trkpt lat="44.07143" lon="6.85787">
        <ele>767</ele>
        <time>2020-06-05T12:21:41.000Z</time>
      </trkpt>
      <trkpt lat="44.07145" lon="6.85787">
        <ele>767</ele>
        <time>2020-06-05T12:21:42.000Z</time>
      </trkpt>
      <trkpt lat="44.07146" lon="6.85787">
        <ele>767</ele>
        <time>2020-06-05T12:21:43.000Z</time>
      </trkpt>
      <trkpt lat="44.07147" lon="6.85787">
        <ele>767</ele>
        <time>2020-06-05T12:21:44.000Z</time>
      </trkpt>
      <trkpt lat="44.07149" lon="6.85787">
        <ele>767</ele>
        <time>2020-06-05T12:21:45.000Z</time>
      </trkpt>
      <trkpt lat="44.0715" lon="6.85787">
        <ele>767</ele>
        <time>2020-06-05T12:21:46.000Z</time>
      </trkpt>
      <trkpt lat="44.07151" lon="6.85786">
        <ele>767</ele>
        <time>2020-06-05T12:21:47.000Z</time>
      </trkpt>
      <trkpt lat="44.07152" lon="6.85786">
        <ele>767</ele>
        <time>2020-06-05T12:21:48.000Z</time>
      </trkpt>
      <trkpt lat="44.07153" lon="6.85786">
        <ele>767</ele>
        <time>2020-06-05T12:21:49.000Z</time>
      </trkpt>
      <trkpt lat="44.07154" lon="6.85786">
        <ele>767</ele>
        <time>2020-06-05T12:21:50.000Z</time>
      </trkpt>
      <trkpt lat="44.07154" lon="6.85786">
        <ele>768</ele>
        <time>2020-06-05T12:21:51.000Z</time>
      </trkpt>
      <trkpt lat="44.07154" lon="6.85786">
        <ele>768</ele>
        <time>2020-06-05T12:21:52.000Z</time>
      </trkpt>
      <trkpt lat="44.07154" lon="6.85787">
        <ele>768</ele>
        <time>2020-06-05T12:21:53.000Z</time>
      </trkpt>
      <trkpt lat="44.07154" lon="6.85786">
        <ele>768</ele>
        <time>2020-06-05T12:21:54.000Z</time>
      </trkpt>
      <trkpt lat="44.07155" lon="6.85787">
        <ele>768</ele>
        <time>2020-06-05T12:21:55.000Z</time>
      </trkpt>
      <trkpt lat="44.07155" lon="6.85787">
        <ele>768</ele>
        <time>2020-06-05T12:21:56.000Z</time>
      </trkpt>
      <trkpt lat="44.07155" lon="6.85787">
        <ele>768</ele>
        <time>2020-06-05T12:21:57.000Z</time>
      </trkpt>
      <trkpt lat="44.07155" lon="6.85786">
        <ele>768</ele>
        <time>2020-06-05T12:21:58.000Z</time>
      </trkpt>
      <trkpt lat="44.07155" lon="6.85785">
        <ele>768</ele>
        <time>2020-06-05T12:21:59.000Z</time>
      </trkpt>
      <trkpt lat="44.07155" lon="6.85784">
        <ele>768</ele>
        <time>2020-06-05T12:22:00.000Z</time>
      </trkpt>
      <trkpt lat="44.07155" lon="6.85783">
        <ele>768</ele>
        <time>2020-06-05T12:22:01.000Z</time>
      </trkpt>
      <trkpt lat="44.07155" lon="6.85782">
        <ele>768</ele>
        <time>2020-06-05T12:22:02.000Z</time>
      </trkpt>
      <trkpt lat="44.07155" lon="6.85782">
        <ele>768</ele>
        <time>2020-06-05T12:22:17.000Z</time>
      </trkpt>
      <trkpt lat="44.07155" lon="6.85782">
        <ele>768</ele>
        <time>2020-06-05T12:22:18.000Z</time>
      </trkpt>
      <trkpt lat="44.07154" lon="6.8577">
        <ele>769</ele>
        <time>2020-06-05T12:22:19.000Z</time>
      </trkpt>
      <trkpt lat="44.07155" lon="6.8577">
        <ele>769</ele>
        <time>2020-06-05T12:22:20.000Z</time>
      </trkpt>
      <trkpt lat="44.07157" lon="6.8577">
        <ele>769</ele>
        <time>2020-06-05T12:22:21.000Z</time>
      </trkpt>
      <trkpt lat="44.07159" lon="6.8577">
        <ele>770</ele>
        <time>2020-06-05T12:22:22.000Z</time>
      </trkpt>
      <trkpt lat="44.07162" lon="6.85769">
        <ele>770</ele>
        <time>2020-06-05T12:22:23.000Z</time>
      </trkpt>
      <trkpt lat="44.07164" lon="6.85769">
        <ele>770</ele>
        <time>2020-06-05T12:22:24.000Z</time>
      </trkpt>
      <trkpt lat="44.07166" lon="6.85769">
        <ele>770</ele>
        <time>2020-06-05T12:22:25.000Z</time>
      </trkpt>
      <trkpt lat="44.07168" lon="6.85769">
        <ele>771</ele>
        <time>2020-06-05T12:22:26.000Z</time>
      </trkpt>
      <trkpt lat="44.0717" lon="6.85769">
        <ele>771</ele>
        <time>2020-06-05T12:22:27.000Z</time>
      </trkpt>
      <trkpt lat="44.07171" lon="6.85768">
        <ele>772</ele>
        <time>2020-06-05T12:22:28.000Z</time>
      </trkpt>
      <trkpt lat="44.07173" lon="6.85768">
        <ele>772</ele>
        <time>2020-06-05T12:22:29.000Z</time>
      </trkpt>
      <trkpt lat="44.07174" lon="6.85768">
        <ele>772</ele>
        <time>2020-06-05T12:22:30.000Z</time>
      </trkpt>
      <trkpt lat="44.07176" lon="6.85768">
        <ele>772</ele>
        <time>2020-06-05T12:22:31.000Z</time>
      </trkpt>
      <trkpt lat="44.07177" lon="6.85767">
        <ele>772</ele>
        <time>2020-06-05T12:22:32.000Z</time>
      </trkpt>
      <trkpt lat="44.07178" lon="6.85767">
        <ele>772</ele>
        <time>2020-06-05T12:22:33.000Z</time>
      </trkpt>
      <trkpt lat="44.07179" lon="6.85766">
        <ele>773</ele>
        <time>2020-06-05T12:22:34.000Z</time>
      </trkpt>
      <trkpt lat="44.0718" lon="6.85766">
        <ele>773</ele>
        <time>2020-06-05T12:22:35.000Z</time>
      </trkpt>
      <trkpt lat="44.07182" lon="6.85766">
        <ele>773</ele>
        <time>2020-06-05T12:22:36.000Z</time>
      </trkpt>
      <trkpt lat="44.07183" lon="6.85766">
        <ele>773</ele>
        <time>2020-06-05T12:22:37.000Z</time>
      </trkpt>
      <trkpt lat="44.07183" lon="6.85766">
        <ele>773</ele>
        <time>2020-06-05T12:22:38.000Z</time>
      </trkpt>
      <trkpt lat="44.07184" lon="6.85766">
        <ele>774</ele>
        <time>2020-06-05T12:22:39.000Z</time>
      </trkpt>
      <trkpt lat="44.07185" lon="6.85766">
        <ele>774</ele>
        <time>2020-06-05T12:22:40.000Z</time>
      </trkpt>
      <trkpt lat="44.07186" lon="6.85766">
        <ele>774</ele>
        <time>2020-06-05T12:22:41.000Z</time>
      </trkpt>
      <trkpt lat="44.07186" lon="6.85767">
        <ele>774</ele>
        <time>2020-06-05T12:22:42.000Z</time>
      </trkpt>
      <trkpt lat="44.07187" lon="6.85767">
        <ele>775</ele>
        <time>2020-06-05T12:22:43.000Z</time>
      </trkpt>
      <trkpt lat="44.07188" lon="6.85767">
        <ele>775</ele>
        <time>2020-06-05T12:22:44.000Z</time>
      </trkpt>
      <trkpt lat="44.07189" lon="6.85767">
        <ele>775</ele>
        <time>2020-06-05T12:22:45.000Z</time>
      </trkpt>
      <trkpt lat="44.0719" lon="6.85767">
        <ele>775</ele>
        <time>2020-06-05T12:22:46.000Z</time>
      </trkpt>
      <trkpt lat="44.07192" lon="6.85767">
        <ele>775</ele>
        <time>2020-06-05T12:22:47.000Z</time>
      </trkpt>
      <trkpt lat="44.07193" lon="6.85767">
        <ele>775</ele>
        <time>2020-06-05T12:22:48.000Z</time>
      </trkpt>
      <trkpt lat="44.07194" lon="6.85767">
        <ele>775</ele>
        <time>2020-06-05T12:22:49.000Z</time>
      </trkpt>
      <trkpt lat="44.07196" lon="6.85768">
        <ele>775</ele>
        <time>2020-06-05T12:22:50.000Z</time>
      </trkpt>
      <trkpt lat="44.07197" lon="6.85768">
        <ele>776</ele>
        <time>2020-06-05T12:22:51.000Z</time>
      </trkpt>
      <trkpt lat="44.07199" lon="6.85768">
        <ele>776</ele>
        <time>2020-06-05T12:22:52.000Z</time>
      </trkpt>
      <trkpt lat="44.072" lon="6.85768">
        <ele>776</ele>
        <time>2020-06-05T12:22:53.000Z</time>
      </trkpt>
      <trkpt lat="44.07201" lon="6.85768">
        <ele>776</ele>
        <time>2020-06-05T12:22:54.000Z</time>
      </trkpt>
      <trkpt lat="44.07202" lon="6.85769">
        <ele>776</ele>
        <time>2020-06-05T12:22:55.000Z</time>
      </trkpt>
      <trkpt lat="44.07204" lon="6.85769">
        <ele>776</ele>
        <time>2020-06-05T12:22:56.000Z</time>
      </trkpt>
      <trkpt lat="44.07205" lon="6.85769">
        <ele>776</ele>
        <time>2020-06-05T12:22:57.000Z</time>
      </trkpt>
      <trkpt lat="44.07206" lon="6.85769">
        <ele>776</ele>
        <time>2020-06-05T12:22:58.000Z</time>
      </trkpt>
      <trkpt lat="44.07207" lon="6.85769">
        <ele>776</ele>
        <time>2020-06-05T12:22:59.000Z</time>
      </trkpt>
      <trkpt lat="44.07208" lon="6.85769">
        <ele>776</ele>
        <time>2020-06-05T12:23:00.000Z</time>
      </trkpt>
      <trkpt lat="44.0721" lon="6.8577">
        <ele>776</ele>
        <time>2020-06-05T12:23:01.000Z</time>
      </trkpt>
      <trkpt lat="44.07211" lon="6.8577">
        <ele>776</ele>
        <time>2020-06-05T12:23:02.000Z</time>
      </trkpt>
      <trkpt lat="44.07212" lon="6.8577">
        <ele>776</ele>
        <time>2020-06-05T12:23:03.000Z</time>
      </trkpt>
      <trkpt lat="44.07213" lon="6.85771">
        <ele>776</ele>
        <time>2020-06-05T12:23:04.000Z</time>
      </trkpt>
      <trkpt lat="44.07214" lon="6.85771">
        <ele>776</ele>
        <time>2020-06-05T12:23:05.000Z</time>
      </trkpt>
      <trkpt lat="44.07214" lon="6.85771">
        <ele>776</ele>
        <time>2020-06-05T12:23:06.000Z</time>
      </trkpt>
      <trkpt lat="44.07215" lon="6.8577">
        <ele>776</ele>
        <time>2020-06-05T12:23:07.000Z</time>
      </trkpt>
      <trkpt lat="44.07216" lon="6.85771">
        <ele>776</ele>
        <time>2020-06-05T12:23:08.000Z</time>
      </trkpt>
      <trkpt lat="44.07217" lon="6.85771">
        <ele>776</ele>
        <time>2020-06-05T12:23:09.000Z</time>
      </trkpt>
      <trkpt lat="44.07218" lon="6.85771">
        <ele>776</ele>
        <time>2020-06-05T12:23:10.000Z</time>
      </trkpt>
      <trkpt lat="44.07219" lon="6.85771">
        <ele>776</ele>
        <time>2020-06-05T12:23:11.000Z</time>
      </trkpt>
      <trkpt lat="44.0722" lon="6.85772">
        <ele>776</ele>
        <time>2020-06-05T12:23:12.000Z</time>
      </trkpt>
      <trkpt lat="44.07221" lon="6.85772">
        <ele>776</ele>
        <time>2020-06-05T12:23:13.000Z</time>
      </trkpt>
      <trkpt lat="44.07223" lon="6.85772">
        <ele>776</ele>
        <time>2020-06-05T12:23:14.000Z</time>
      </trkpt>
      <trkpt lat="44.07224" lon="6.85772">
        <ele>776</ele>
        <time>2020-06-05T12:23:15.000Z</time>
      </trkpt>
      <trkpt lat="44.07225" lon="6.85772">
        <ele>776</ele>
        <time>2020-06-05T12:23:16.000Z</time>
      </trkpt>
      <trkpt lat="44.07226" lon="6.85773">
        <ele>776</ele>
        <time>2020-06-05T12:23:17.000Z</time>
      </trkpt>
      <trkpt lat="44.07227" lon="6.85773">
        <ele>776</ele>
        <time>2020-06-05T12:23:18.000Z</time>
      </trkpt>
      <trkpt lat="44.07228" lon="6.85773">
        <ele>776</ele>
        <time>2020-06-05T12:23:19.000Z</time>
      </trkpt>
      <trkpt lat="44.07229" lon="6.85773">
        <ele>776</ele>
        <time>2020-06-05T12:23:20.000Z</time>
      </trkpt>
      <trkpt lat="44.0723" lon="6.85774">
        <ele>776</ele>
        <time>2020-06-05T12:23:21.000Z</time>
      </trkpt>
      <trkpt lat="44.07232" lon="6.85774">
        <ele>776</ele>
        <time>2020-06-05T12:23:22.000Z</time>
      </trkpt>
      <trkpt lat="44.07233" lon="6.85774">
        <ele>776</ele>
        <time>2020-06-05T12:23:23.000Z</time>
      </trkpt>
      <trkpt lat="44.07234" lon="6.85774">
        <ele>776</ele>
        <time>2020-06-05T12:23:24.000Z</time>
      </trkpt>
      <trkpt lat="44.07235" lon="6.85774">
        <ele>776</ele>
        <time>2020-06-05T12:23:25.000Z</time>
      </trkpt>
      <trkpt lat="44.07236" lon="6.85774">
        <ele>776</ele>
        <time>2020-06-05T12:23:26.000Z</time>
      </trkpt>
      <trkpt lat="44.07237" lon="6.85774">
        <ele>776</ele>
        <time>2020-06-05T12:23:27.000Z</time>
      </trkpt>
      <trkpt lat="44.07238" lon="6.85775">
        <ele>776</ele>
        <time>2020-06-05T12:23:28.000Z</time>
      </trkpt>
      <trkpt lat="44.0724" lon="6.85775">
        <ele>776</ele>
        <time>2020-06-05T12:23:29.000Z</time>
      </trkpt>
      <trkpt lat="44.07241" lon="6.85775">
        <ele>776</ele>
        <time>2020-06-05T12:23:30.000Z</time>
      </trkpt>
      <trkpt lat="44.07242" lon="6.85775">
        <ele>777</ele>
        <time>2020-06-05T12:23:31.000Z</time>
      </trkpt>
      <trkpt lat="44.07243" lon="6.85775">
        <ele>777</ele>
        <time>2020-06-05T12:23:32.000Z</time>
      </trkpt>
      <trkpt lat="44.07244" lon="6.85775">
        <ele>777</ele>
        <time>2020-06-05T12:23:33.000Z</time>
      </trkpt>
      <trkpt lat="44.07245" lon="6.85775">
        <ele>777</ele>
        <time>2020-06-05T12:23:34.000Z</time>
      </trkpt>
      <trkpt lat="44.07246" lon="6.85775">
        <ele>777</ele>
        <time>2020-06-05T12:23:35.000Z</time>
      </trkpt>
      <trkpt lat="44.07247" lon="6.85775">
        <ele>777</ele>
        <time>2020-06-05T12:23:36.000Z</time>
      </trkpt>
      <trkpt lat="44.07247" lon="6.85775">
        <ele>777</ele>
        <time>2020-06-05T12:23:37.000Z</time>
      </trkpt>
      <trkpt lat="44.07248" lon="6.85774">
        <ele>777</ele>
        <time>2020-06-05T12:23:38.000Z</time>
      </trkpt>
      <trkpt lat="44.07249" lon="6.85774">
        <ele>777</ele>
        <time>2020-06-05T12:23:39.000Z</time>
      </trkpt>
      <trkpt lat="44.0725" lon="6.85774">
        <ele>777</ele>
        <time>2020-06-05T12:23:40.000Z</time>
      </trkpt>
      <trkpt lat="44.07251" lon="6.85774">
        <ele>777</ele>
        <time>2020-06-05T12:23:41.000Z</time>
      </trkpt>
      <trkpt lat="44.07252" lon="6.85774">
        <ele>777</ele>
        <time>2020-06-05T12:23:42.000Z</time>
      </trkpt>
      <trkpt lat="44.07253" lon="6.85775">
        <ele>777</ele>
        <time>2020-06-05T12:23:43.000Z</time>
      </trkpt>
      <trkpt lat="44.07255" lon="6.85775">
        <ele>777</ele>
        <time>2020-06-05T12:23:44.000Z</time>
      </trkpt>
      <trkpt lat="44.07256" lon="6.85775">
        <ele>778</ele>
        <time>2020-06-05T12:23:45.000Z</time>
      </trkpt>
      <trkpt lat="44.07257" lon="6.85775">
        <ele>778</ele>
        <time>2020-06-05T12:23:46.000Z</time>
      </trkpt>
      <trkpt lat="44.07259" lon="6.85775">
        <ele>778</ele>
        <time>2020-06-05T12:23:47.000Z</time>
      </trkpt>
      <trkpt lat="44.0726" lon="6.85775">
        <ele>778</ele>
        <time>2020-06-05T12:23:48.000Z</time>
      </trkpt>
      <trkpt lat="44.07261" lon="6.85775">
        <ele>778</ele>
        <time>2020-06-05T12:23:49.000Z</time>
      </trkpt>
      <trkpt lat="44.07263" lon="6.85775">
        <ele>778</ele>
        <time>2020-06-05T12:23:50.000Z</time>
      </trkpt>
      <trkpt lat="44.07264" lon="6.85775">
        <ele>778</ele>
        <time>2020-06-05T12:23:51.000Z</time>
      </trkpt>
      <trkpt lat="44.07265" lon="6.85775">
        <ele>778</ele>
        <time>2020-06-05T12:23:52.000Z</time>
      </trkpt>
      <trkpt lat="44.07266" lon="6.85775">
        <ele>778</ele>
        <time>2020-06-05T12:23:53.000Z</time>
      </trkpt>
      <trkpt lat="44.07268" lon="6.85775">
        <ele>778</ele>
        <time>2020-06-05T12:23:54.000Z</time>
      </trkpt>
      <trkpt lat="44.07269" lon="6.85775">
        <ele>778</ele>
        <time>2020-06-05T12:23:55.000Z</time>
      </trkpt>
      <trkpt lat="44.07271" lon="6.85775">
        <ele>778</ele>
        <time>2020-06-05T12:23:56.000Z</time>
      </trkpt>
      <trkpt lat="44.07272" lon="6.85776">
        <ele>778</ele>
        <time>2020-06-05T12:23:57.000Z</time>
      </trkpt>
      <trkpt lat="44.07273" lon="6.85776">
        <ele>777</ele>
        <time>2020-06-05T12:23:58.000Z</time>
      </trkpt>
      <trkpt lat="44.07275" lon="6.85776">
        <ele>777</ele>
        <time>2020-06-05T12:23:59.000Z</time>
      </trkpt>
      <trkpt lat="44.07276" lon="6.85777">
        <ele>777</ele>
        <time>2020-06-05T12:24:00.000Z</time>
      </trkpt>
      <trkpt lat="44.07278" lon="6.85777">
        <ele>777</ele>
        <time>2020-06-05T12:24:01.000Z</time>
      </trkpt>
      <trkpt lat="44.07279" lon="6.85777">
        <ele>777</ele>
        <time>2020-06-05T12:24:02.000Z</time>
      </trkpt>
      <trkpt lat="44.07281" lon="6.85777">
        <ele>777</ele>
        <time>2020-06-05T12:24:03.000Z</time>
      </trkpt>
      <trkpt lat="44.07282" lon="6.85777">
        <ele>777</ele>
        <time>2020-06-05T12:24:04.000Z</time>
      </trkpt>
      <trkpt lat="44.07283" lon="6.85778">
        <ele>777</ele>
        <time>2020-06-05T12:24:05.000Z</time>
      </trkpt>
      <trkpt lat="44.07285" lon="6.85778">
        <ele>776</ele>
        <time>2020-06-05T12:24:06.000Z</time>
      </trkpt>
      <trkpt lat="44.07286" lon="6.85779">
        <ele>776</ele>
        <time>2020-06-05T12:24:07.000Z</time>
      </trkpt>
      <trkpt lat="44.07287" lon="6.85779">
        <ele>776</ele>
        <time>2020-06-05T12:24:08.000Z</time>
      </trkpt>
      <trkpt lat="44.07289" lon="6.85779">
        <ele>775</ele>
        <time>2020-06-05T12:24:09.000Z</time>
      </trkpt>
      <trkpt lat="44.0729" lon="6.8578">
        <ele>775</ele>
        <time>2020-06-05T12:24:10.000Z</time>
      </trkpt>
      <trkpt lat="44.07292" lon="6.8578">
        <ele>775</ele>
        <time>2020-06-05T12:24:11.000Z</time>
      </trkpt>
      <trkpt lat="44.07293" lon="6.8578">
        <ele>775</ele>
        <time>2020-06-05T12:24:12.000Z</time>
      </trkpt>
      <trkpt lat="44.07295" lon="6.8578">
        <ele>775</ele>
        <time>2020-06-05T12:24:13.000Z</time>
      </trkpt>
      <trkpt lat="44.07296" lon="6.8578">
        <ele>775</ele>
        <time>2020-06-05T12:24:14.000Z</time>
      </trkpt>
      <trkpt lat="44.07297" lon="6.8578">
        <ele>775</ele>
        <time>2020-06-05T12:24:15.000Z</time>
      </trkpt>
      <trkpt lat="44.07299" lon="6.85781">
        <ele>775</ele>
        <time>2020-06-05T12:24:16.000Z</time>
      </trkpt>
      <trkpt lat="44.073" lon="6.85781">
        <ele>775</ele>
        <time>2020-06-05T12:24:17.000Z</time>
      </trkpt>
      <trkpt lat="44.07301" lon="6.85781">
        <ele>775</ele>
        <time>2020-06-05T12:24:18.000Z</time>
      </trkpt>
      <trkpt lat="44.07302" lon="6.85781">
        <ele>775</ele>
        <time>2020-06-05T12:24:19.000Z</time>
      </trkpt>
      <trkpt lat="44.07304" lon="6.85781">
        <ele>775</ele>
        <time>2020-06-05T12:24:20.000Z</time>
      </trkpt>
      <trkpt lat="44.07305" lon="6.85781">
        <ele>775</ele>
        <time>2020-06-05T12:24:21.000Z</time>
      </trkpt>
      <trkpt lat="44.07306" lon="6.85781">
        <ele>775</ele>
        <time>2020-06-05T12:24:22.000Z</time>
      </trkpt>
      <trkpt lat="44.07308" lon="6.85781">
        <ele>775</ele>
        <time>2020-06-05T12:24:23.000Z</time>
      </trkpt>
      <trkpt lat="44.07308" lon="6.85781">
        <ele>775</ele>
        <time>2020-06-05T12:24:24.000Z</time>
      </trkpt>
      <trkpt lat="44.07308" lon="6.8578">
        <ele>775</ele>
        <time>2020-06-05T12:24:25.000Z</time>
      </trkpt>
      <trkpt lat="44.07309" lon="6.85781">
        <ele>775</ele>
        <time>2020-06-05T12:24:26.000Z</time>
      </trkpt>
      <trkpt lat="44.0731" lon="6.85781">
        <ele>775</ele>
        <time>2020-06-05T12:24:27.000Z</time>
      </trkpt>
      <trkpt lat="44.07311" lon="6.85781">
        <ele>775</ele>
        <time>2020-06-05T12:24:28.000Z</time>
      </trkpt>
      <trkpt lat="44.07312" lon="6.85781">
        <ele>775</ele>
        <time>2020-06-05T12:24:29.000Z</time>
      </trkpt>
      <trkpt lat="44.07314" lon="6.8578">
        <ele>775</ele>
        <time>2020-06-05T12:24:30.000Z</time>
      </trkpt>
      <trkpt lat="44.07315" lon="6.8578">
        <ele>775</ele>
        <time>2020-06-05T12:24:31.000Z</time>
      </trkpt>
      <trkpt lat="44.07316" lon="6.8578">
        <ele>775</ele>
        <time>2020-06-05T12:24:32.000Z</time>
      </trkpt>
      <trkpt lat="44.07317" lon="6.85781">
        <ele>775</ele>
        <time>2020-06-05T12:24:33.000Z</time>
      </trkpt>
      <trkpt lat="44.07319" lon="6.8578">
        <ele>775</ele>
        <time>2020-06-05T12:24:34.000Z</time>
      </trkpt>
      <trkpt lat="44.0732" lon="6.8578">
        <ele>775</ele>
        <time>2020-06-05T12:24:35.000Z</time>
      </trkpt>
      <trkpt lat="44.07321" lon="6.8578">
        <ele>775</ele>
        <time>2020-06-05T12:24:36.000Z</time>
      </trkpt>
      <trkpt lat="44.07322" lon="6.8578">
        <ele>775</ele>
        <time>2020-06-05T12:24:37.000Z</time>
      </trkpt>
      <trkpt lat="44.07323" lon="6.8578">
        <ele>775</ele>
        <time>2020-06-05T12:24:38.000Z</time>
      </trkpt>
      <trkpt lat="44.07325" lon="6.8578">
        <ele>775</ele>
        <time>2020-06-05T12:24:39.000Z</time>
      </trkpt>
      <trkpt lat="44.07326" lon="6.85781">
        <ele>775</ele>
        <time>2020-06-05T12:24:40.000Z</time>
      </trkpt>
      <trkpt lat="44.07327" lon="6.85781">
        <ele>775</ele>
        <time>2020-06-05T12:24:41.000Z</time>
      </trkpt>
      <trkpt lat="44.07328" lon="6.85781">
        <ele>775</ele>
        <time>2020-06-05T12:24:42.000Z</time>
      </trkpt>
      <trkpt lat="44.07329" lon="6.85781">
        <ele>775</ele>
        <time>2020-06-05T12:24:43.000Z</time>
      </trkpt>
      <trkpt lat="44.0733" lon="6.85781">
        <ele>775</ele>
        <time>2020-06-05T12:24:44.000Z</time>
      </trkpt>
      <trkpt lat="44.07331" lon="6.85781">
        <ele>775</ele>
        <time>2020-06-05T12:24:45.000Z</time>
      </trkpt>
      <trkpt lat="44.07332" lon="6.85781">
        <ele>775</ele>
        <time>2020-06-05T12:24:46.000Z</time>
      </trkpt>
      <trkpt lat="44.07333" lon="6.85781">
        <ele>775</ele>
        <time>2020-06-05T12:24:47.000Z</time>
      </trkpt>
      <trkpt lat="44.07335" lon="6.85781">
        <ele>775</ele>
        <time>2020-06-05T12:24:48.000Z</time>
      </trkpt>
      <trkpt lat="44.07336" lon="6.85782">
        <ele>775</ele>
        <time>2020-06-05T12:24:49.000Z</time>
      </trkpt>
      <trkpt lat="44.07337" lon="6.85783">
        <ele>775</ele>
        <time>2020-06-05T12:24:50.000Z</time>
      </trkpt>
      <trkpt lat="44.07338" lon="6.85783">
        <ele>775</ele>
        <time>2020-06-05T12:24:51.000Z</time>
      </trkpt>
      <trkpt lat="44.07338" lon="6.85783">
        <ele>775</ele>
        <time>2020-06-05T12:24:52.000Z</time>
      </trkpt>
      <trkpt lat="44.07339" lon="6.85784">
        <ele>775</ele>
        <time>2020-06-05T12:24:53.000Z</time>
      </trkpt>
      <trkpt lat="44.0734" lon="6.85784">
        <ele>775</ele>
        <time>2020-06-05T12:24:54.000Z</time>
      </trkpt>
      <trkpt lat="44.07342" lon="6.85785">
        <ele>775</ele>
        <time>2020-06-05T12:24:55.000Z</time>
      </trkpt>
      <trkpt lat="44.07343" lon="6.85786">
        <ele>774</ele>
        <time>2020-06-05T12:24:56.000Z</time>
      </trkpt>
      <trkpt lat="44.07344" lon="6.85786">
        <ele>774</ele>
        <time>2020-06-05T12:24:57.000Z</time>
      </trkpt>
      <trkpt lat="44.07345" lon="6.85787">
        <ele>774</ele>
        <time>2020-06-05T12:24:58.000Z</time>
      </trkpt>
      <trkpt lat="44.07345" lon="6.85788">
        <ele>774</ele>
        <time>2020-06-05T12:24:59.000Z</time>
      </trkpt>
      <trkpt lat="44.07346" lon="6.85789">
        <ele>774</ele>
        <time>2020-06-05T12:25:00.000Z</time>
      </trkpt>
      <trkpt lat="44.07347" lon="6.85789">
        <ele>774</ele>
        <time>2020-06-05T12:25:01.000Z</time>
      </trkpt>
      <trkpt lat="44.07348" lon="6.8579">
        <ele>774</ele>
        <time>2020-06-05T12:25:02.000Z</time>
      </trkpt>
      <trkpt lat="44.07349" lon="6.85791">
        <ele>774</ele>
        <time>2020-06-05T12:25:03.000Z</time>
      </trkpt>
      <trkpt lat="44.0735" lon="6.85792">
        <ele>774</ele>
        <time>2020-06-05T12:25:04.000Z</time>
      </trkpt>
      <trkpt lat="44.07351" lon="6.85793">
        <ele>774</ele>
        <time>2020-06-05T12:25:05.000Z</time>
      </trkpt>
      <trkpt lat="44.07352" lon="6.85794">
        <ele>774</ele>
        <time>2020-06-05T12:25:06.000Z</time>
      </trkpt>
      <trkpt lat="44.07354" lon="6.85794">
        <ele>774</ele>
        <time>2020-06-05T12:25:07.000Z</time>
      </trkpt>
      <trkpt lat="44.07355" lon="6.85795">
        <ele>774</ele>
        <time>2020-06-05T12:25:08.000Z</time>
      </trkpt>
      <trkpt lat="44.07357" lon="6.85796">
        <ele>774</ele>
        <time>2020-06-05T12:25:09.000Z</time>
      </trkpt>
      <trkpt lat="44.07358" lon="6.85797">
        <ele>774</ele>
        <time>2020-06-05T12:25:10.000Z</time>
      </trkpt>
      <trkpt lat="44.07359" lon="6.85798">
        <ele>774</ele>
        <time>2020-06-05T12:25:11.000Z</time>
      </trkpt>
      <trkpt lat="44.07361" lon="6.85799">
        <ele>774</ele>
        <time>2020-06-05T12:25:12.000Z</time>
      </trkpt>
      <trkpt lat="44.07362" lon="6.85799">
        <ele>774</ele>
        <time>2020-06-05T12:25:13.000Z</time>
      </trkpt>
      <trkpt lat="44.07363" lon="6.858">
        <ele>774</ele>
        <time>2020-06-05T12:25:14.000Z</time>
      </trkpt>
      <trkpt lat="44.07365" lon="6.858">
        <ele>774</ele>
        <time>2020-06-05T12:25:15.000Z</time>
      </trkpt>
      <trkpt lat="44.07366" lon="6.85801">
        <ele>774</ele>
        <time>2020-06-05T12:25:16.000Z</time>
      </trkpt>
      <trkpt lat="44.07367" lon="6.85801">
        <ele>774</ele>
        <time>2020-06-05T12:25:17.000Z</time>
      </trkpt>
      <trkpt lat="44.07368" lon="6.85802">
        <ele>774</ele>
        <time>2020-06-05T12:25:18.000Z</time>
      </trkpt>
      <trkpt lat="44.07369" lon="6.85803">
        <ele>774</ele>
        <time>2020-06-05T12:25:19.000Z</time>
      </trkpt>
      <trkpt lat="44.07371" lon="6.85804">
        <ele>774</ele>
        <time>2020-06-05T12:25:20.000Z</time>
      </trkpt>
      <trkpt lat="44.07372" lon="6.85805">
        <ele>774</ele>
        <time>2020-06-05T12:25:21.000Z</time>
      </trkpt>
      <trkpt lat="44.07373" lon="6.85806">
        <ele>774</ele>
        <time>2020-06-05T12:25:22.000Z</time>
      </trkpt>
      <trkpt lat="44.07374" lon="6.85806">
        <ele>774</ele>
        <time>2020-06-05T12:25:23.000Z</time>
      </trkpt>
      <trkpt lat="44.07375" lon="6.85807">
        <ele>774</ele>
        <time>2020-06-05T12:25:24.000Z</time>
      </trkpt>
      <trkpt lat="44.07377" lon="6.85808">
        <ele>774</ele>
        <time>2020-06-05T12:25:25.000Z</time>
      </trkpt>
      <trkpt lat="44.07378" lon="6.85808">
        <ele>774</ele>
        <time>2020-06-05T12:25:26.000Z</time>
      </trkpt>
      <trkpt lat="44.07379" lon="6.85809">
        <ele>774</ele>
        <time>2020-06-05T12:25:27.000Z</time>
      </trkpt>
      <trkpt lat="44.07381" lon="6.85809">
        <ele>774</ele>
        <time>2020-06-05T12:25:28.000Z</time>
      </trkpt>
      <trkpt lat="44.07382" lon="6.85809">
        <ele>774</ele>
        <time>2020-06-05T12:25:29.000Z</time>
      </trkpt>
      <trkpt lat="44.07383" lon="6.85809">
        <ele>774</ele>
        <time>2020-06-05T12:25:30.000Z</time>
      </trkpt>
      <trkpt lat="44.07383" lon="6.85809">
        <ele>774</ele>
        <time>2020-06-05T12:25:31.000Z</time>
      </trkpt>
      <trkpt lat="44.07384" lon="6.85809">
        <ele>774</ele>
        <time>2020-06-05T12:25:32.000Z</time>
      </trkpt>
      <trkpt lat="44.07384" lon="6.85809">
        <ele>774</ele>
        <time>2020-06-05T12:25:33.000Z</time>
      </trkpt>
      <trkpt lat="44.07385" lon="6.85809">
        <ele>774</ele>
        <time>2020-06-05T12:25:34.000Z</time>
      </trkpt>
      <trkpt lat="44.07385" lon="6.85809">
        <ele>774</ele>
        <time>2020-06-05T12:25:35.000Z</time>
      </trkpt>
      <trkpt lat="44.07386" lon="6.85809">
        <ele>774</ele>
        <time>2020-06-05T12:25:36.000Z</time>
      </trkpt>
      <trkpt lat="44.07387" lon="6.8581">
        <ele>774</ele>
        <time>2020-06-05T12:25:37.000Z</time>
      </trkpt>
      <trkpt lat="44.07388" lon="6.85811">
        <ele>774</ele>
        <time>2020-06-05T12:25:38.000Z</time>
      </trkpt>
      <trkpt lat="44.07389" lon="6.85812">
        <ele>774</ele>
        <time>2020-06-05T12:25:39.000Z</time>
      </trkpt>
      <trkpt lat="44.0739" lon="6.85813">
        <ele>774</ele>
        <time>2020-06-05T12:25:40.000Z</time>
      </trkpt>
      <trkpt lat="44.07391" lon="6.85814">
        <ele>773</ele>
        <time>2020-06-05T12:25:41.000Z</time>
      </trkpt>
      <trkpt lat="44.07392" lon="6.85815">
        <ele>773</ele>
        <time>2020-06-05T12:25:42.000Z</time>
      </trkpt>
      <trkpt lat="44.07393" lon="6.85816">
        <ele>773</ele>
        <time>2020-06-05T12:25:43.000Z</time>
      </trkpt>
      <trkpt lat="44.07394" lon="6.85817">
        <ele>773</ele>
        <time>2020-06-05T12:25:44.000Z</time>
      </trkpt>
      <trkpt lat="44.07395" lon="6.85818">
        <ele>773</ele>
        <time>2020-06-05T12:25:45.000Z</time>
      </trkpt>
      <trkpt lat="44.07396" lon="6.85819">
        <ele>773</ele>
        <time>2020-06-05T12:25:46.000Z</time>
      </trkpt>
      <trkpt lat="44.07397" lon="6.8582">
        <ele>773</ele>
        <time>2020-06-05T12:25:47.000Z</time>
      </trkpt>
      <trkpt lat="44.07397" lon="6.85821">
        <ele>773</ele>
        <time>2020-06-05T12:25:48.000Z</time>
      </trkpt>
      <trkpt lat="44.07398" lon="6.85822">
        <ele>773</ele>
        <time>2020-06-05T12:25:49.000Z</time>
      </trkpt>
      <trkpt lat="44.07399" lon="6.85823">
        <ele>773</ele>
        <time>2020-06-05T12:25:50.000Z</time>
      </trkpt>
      <trkpt lat="44.074" lon="6.85824">
        <ele>772</ele>
        <time>2020-06-05T12:25:51.000Z</time>
      </trkpt>
      <trkpt lat="44.07401" lon="6.85824">
        <ele>772</ele>
        <time>2020-06-05T12:25:52.000Z</time>
      </trkpt>
      <trkpt lat="44.07402" lon="6.85825">
        <ele>772</ele>
        <time>2020-06-05T12:25:53.000Z</time>
      </trkpt>
      <trkpt lat="44.07403" lon="6.85826">
        <ele>772</ele>
        <time>2020-06-05T12:25:54.000Z</time>
      </trkpt>
      <trkpt lat="44.07404" lon="6.85826">
        <ele>772</ele>
        <time>2020-06-05T12:25:55.000Z</time>
      </trkpt>
      <trkpt lat="44.07405" lon="6.85827">
        <ele>772</ele>
        <time>2020-06-05T12:25:56.000Z</time>
      </trkpt>
      <trkpt lat="44.07407" lon="6.85828">
        <ele>772</ele>
        <time>2020-06-05T12:25:57.000Z</time>
      </trkpt>
      <trkpt lat="44.07408" lon="6.85829">
        <ele>772</ele>
        <time>2020-06-05T12:25:58.000Z</time>
      </trkpt>
      <trkpt lat="44.07409" lon="6.8583">
        <ele>772</ele>
        <time>2020-06-05T12:25:59.000Z</time>
      </trkpt>
      <trkpt lat="44.0741" lon="6.85831">
        <ele>773</ele>
        <time>2020-06-05T12:26:00.000Z</time>
      </trkpt>
      <trkpt lat="44.07412" lon="6.85832">
        <ele>773</ele>
        <time>2020-06-05T12:26:01.000Z</time>
      </trkpt>
      <trkpt lat="44.07413" lon="6.85833">
        <ele>773</ele>
        <time>2020-06-05T12:26:02.000Z</time>
      </trkpt>
      <trkpt lat="44.07414" lon="6.85834">
        <ele>773</ele>
        <time>2020-06-05T12:26:03.000Z</time>
      </trkpt>
      <trkpt lat="44.07416" lon="6.85834">
        <ele>773</ele>
        <time>2020-06-05T12:26:04.000Z</time>
      </trkpt>
      <trkpt lat="44.07417" lon="6.85835">
        <ele>773</ele>
        <time>2020-06-05T12:26:05.000Z</time>
      </trkpt>
      <trkpt lat="44.07418" lon="6.85836">
        <ele>773</ele>
        <time>2020-06-05T12:26:06.000Z</time>
      </trkpt>
      <trkpt lat="44.07419" lon="6.85837">
        <ele>773</ele>
        <time>2020-06-05T12:26:07.000Z</time>
      </trkpt>
      <trkpt lat="44.0742" lon="6.85838">
        <ele>773</ele>
        <time>2020-06-05T12:26:08.000Z</time>
      </trkpt>
      <trkpt lat="44.07421" lon="6.85838">
        <ele>773</ele>
        <time>2020-06-05T12:26:09.000Z</time>
      </trkpt>
      <trkpt lat="44.07421" lon="6.85839">
        <ele>773</ele>
        <time>2020-06-05T12:26:10.000Z</time>
      </trkpt>
      <trkpt lat="44.07422" lon="6.85839">
        <ele>773</ele>
        <time>2020-06-05T12:26:11.000Z</time>
      </trkpt>
      <trkpt lat="44.07424" lon="6.8584">
        <ele>773</ele>
        <time>2020-06-05T12:26:12.000Z</time>
      </trkpt>
      <trkpt lat="44.07425" lon="6.85841">
        <ele>773</ele>
        <time>2020-06-05T12:26:13.000Z</time>
      </trkpt>
      <trkpt lat="44.07426" lon="6.85842">
        <ele>773</ele>
        <time>2020-06-05T12:26:14.000Z</time>
      </trkpt>
      <trkpt lat="44.07428" lon="6.85843">
        <ele>773</ele>
        <time>2020-06-05T12:26:15.000Z</time>
      </trkpt>
      <trkpt lat="44.07429" lon="6.85844">
        <ele>773</ele>
        <time>2020-06-05T12:26:16.000Z</time>
      </trkpt>
      <trkpt lat="44.0743" lon="6.85845">
        <ele>773</ele>
        <time>2020-06-05T12:26:17.000Z</time>
      </trkpt>
      <trkpt lat="44.07432" lon="6.85846">
        <ele>773</ele>
        <time>2020-06-05T12:26:18.000Z</time>
      </trkpt>
      <trkpt lat="44.07433" lon="6.85846">
        <ele>773</ele>
        <time>2020-06-05T12:26:19.000Z</time>
      </trkpt>
      <trkpt lat="44.07434" lon="6.85847">
        <ele>773</ele>
        <time>2020-06-05T12:26:20.000Z</time>
      </trkpt>
      <trkpt lat="44.07436" lon="6.85848">
        <ele>772</ele>
        <time>2020-06-05T12:26:21.000Z</time>
      </trkpt>
      <trkpt lat="44.07437" lon="6.85849">
        <ele>772</ele>
        <time>2020-06-05T12:26:22.000Z</time>
      </trkpt>
      <trkpt lat="44.07438" lon="6.8585">
        <ele>772</ele>
        <time>2020-06-05T12:26:23.000Z</time>
      </trkpt>
      <trkpt lat="44.0744" lon="6.85851">
        <ele>772</ele>
        <time>2020-06-05T12:26:24.000Z</time>
      </trkpt>
      <trkpt lat="44.07441" lon="6.85852">
        <ele>772</ele>
        <time>2020-06-05T12:26:25.000Z</time>
      </trkpt>
      <trkpt lat="44.07443" lon="6.85853">
        <ele>772</ele>
        <time>2020-06-05T12:26:26.000Z</time>
      </trkpt>
      <trkpt lat="44.07444" lon="6.85854">
        <ele>772</ele>
        <time>2020-06-05T12:26:27.000Z</time>
      </trkpt>
      <trkpt lat="44.07446" lon="6.85854">
        <ele>772</ele>
        <time>2020-06-05T12:26:28.000Z</time>
      </trkpt>
      <trkpt lat="44.07447" lon="6.85855">
        <ele>772</ele>
        <time>2020-06-05T12:26:29.000Z</time>
      </trkpt>
      <trkpt lat="44.07448" lon="6.85856">
        <ele>772</ele>
        <time>2020-06-05T12:26:30.000Z</time>
      </trkpt>
      <trkpt lat="44.07449" lon="6.85856">
        <ele>772</ele>
        <time>2020-06-05T12:26:31.000Z</time>
      </trkpt>
      <trkpt lat="44.07451" lon="6.85857">
        <ele>772</ele>
        <time>2020-06-05T12:26:32.000Z</time>
      </trkpt>
      <trkpt lat="44.07452" lon="6.85857">
        <ele>772</ele>
        <time>2020-06-05T12:26:33.000Z</time>
      </trkpt>
      <trkpt lat="44.07453" lon="6.85858">
        <ele>772</ele>
        <time>2020-06-05T12:26:34.000Z</time>
      </trkpt>
      <trkpt lat="44.07454" lon="6.85858">
        <ele>772</ele>
        <time>2020-06-05T12:26:35.000Z</time>
      </trkpt>
      <trkpt lat="44.07456" lon="6.85859">
        <ele>772</ele>
        <time>2020-06-05T12:26:36.000Z</time>
      </trkpt>
      <trkpt lat="44.07457" lon="6.85859">
        <ele>772</ele>
        <time>2020-06-05T12:26:37.000Z</time>
      </trkpt>
      <trkpt lat="44.07458" lon="6.8586">
        <ele>772</ele>
        <time>2020-06-05T12:26:38.000Z</time>
      </trkpt>
      <trkpt lat="44.0746" lon="6.8586">
        <ele>772</ele>
        <time>2020-06-05T12:26:39.000Z</time>
      </trkpt>
      <trkpt lat="44.07461" lon="6.8586">
        <ele>772</ele>
        <time>2020-06-05T12:26:40.000Z</time>
      </trkpt>
      <trkpt lat="44.07462" lon="6.85861">
        <ele>772</ele>
        <time>2020-06-05T12:26:41.000Z</time>
      </trkpt>
      <trkpt lat="44.07463" lon="6.85861">
        <ele>772</ele>
        <time>2020-06-05T12:26:42.000Z</time>
      </trkpt>
      <trkpt lat="44.07464" lon="6.85861">
        <ele>772</ele>
        <time>2020-06-05T12:26:43.000Z</time>
      </trkpt>
      <trkpt lat="44.07466" lon="6.85862">
        <ele>772</ele>
        <time>2020-06-05T12:26:44.000Z</time>
      </trkpt>
      <trkpt lat="44.07467" lon="6.85862">
        <ele>772</ele>
        <time>2020-06-05T12:26:45.000Z</time>
      </trkpt>
      <trkpt lat="44.07468" lon="6.85862">
        <ele>772</ele>
        <time>2020-06-05T12:26:46.000Z</time>
      </trkpt>
      <trkpt lat="44.07469" lon="6.85862">
        <ele>772</ele>
        <time>2020-06-05T12:26:47.000Z</time>
      </trkpt>
      <trkpt lat="44.07471" lon="6.85862">
        <ele>772</ele>
        <time>2020-06-05T12:26:48.000Z</time>
      </trkpt>
      <trkpt lat="44.07472" lon="6.85862">
        <ele>772</ele>
        <time>2020-06-05T12:26:49.000Z</time>
      </trkpt>
      <trkpt lat="44.07473" lon="6.85862">
        <ele>772</ele>
        <time>2020-06-05T12:26:50.000Z</time>
      </trkpt>
      <trkpt lat="44.07474" lon="6.85863">
        <ele>772</ele>
        <time>2020-06-05T12:26:51.000Z</time>
      </trkpt>
      <trkpt lat="44.07476" lon="6.85863">
        <ele>772</ele>
        <time>2020-06-05T12:26:52.000Z</time>
      </trkpt>
      <trkpt lat="44.07477" lon="6.85863">
        <ele>772</ele>
        <time>2020-06-05T12:26:53.000Z</time>
      </trkpt>
      <trkpt lat="44.07478" lon="6.85863">
        <ele>772</ele>
        <time>2020-06-05T12:26:54.000Z</time>
      </trkpt>
      <trkpt lat="44.07479" lon="6.85863">
        <ele>772</ele>
        <time>2020-06-05T12:26:55.000Z</time>
      </trkpt>
      <trkpt lat="44.07481" lon="6.85863">
        <ele>772</ele>
        <time>2020-06-05T12:26:56.000Z</time>
      </trkpt>
      <trkpt lat="44.07482" lon="6.85863">
        <ele>772</ele>
        <time>2020-06-05T12:26:57.000Z</time>
      </trkpt>
      <trkpt lat="44.07483" lon="6.85864">
        <ele>772</ele>
        <time>2020-06-05T12:26:58.000Z</time>
      </trkpt>
      <trkpt lat="44.07484" lon="6.85864">
        <ele>772</ele>
        <time>2020-06-05T12:26:59.000Z</time>
      </trkpt>
      <trkpt lat="44.07486" lon="6.85864">
        <ele>772</ele>
        <time>2020-06-05T12:27:00.000Z</time>
      </trkpt>
      <trkpt lat="44.07487" lon="6.85864">
        <ele>772</ele>
        <time>2020-06-05T12:27:01.000Z</time>
      </trkpt>
      <trkpt lat="44.07488" lon="6.85864">
        <ele>772</ele>
        <time>2020-06-05T12:27:02.000Z</time>
      </trkpt>
      <trkpt lat="44.0749" lon="6.85864">
        <ele>772</ele>
        <time>2020-06-05T12:27:03.000Z</time>
      </trkpt>
      <trkpt lat="44.07491" lon="6.85864">
        <ele>772</ele>
        <time>2020-06-05T12:27:04.000Z</time>
      </trkpt>
      <trkpt lat="44.07492" lon="6.85864">
        <ele>772</ele>
        <time>2020-06-05T12:27:05.000Z</time>
      </trkpt>
      <trkpt lat="44.07493" lon="6.85864">
        <ele>772</ele>
        <time>2020-06-05T12:27:06.000Z</time>
      </trkpt>
      <trkpt lat="44.07495" lon="6.85864">
        <ele>772</ele>
        <time>2020-06-05T12:27:07.000Z</time>
      </trkpt>
      <trkpt lat="44.07496" lon="6.85863">
        <ele>772</ele>
        <time>2020-06-05T12:27:08.000Z</time>
      </trkpt>
      <trkpt lat="44.07497" lon="6.85864">
        <ele>773</ele>
        <time>2020-06-05T12:27:09.000Z</time>
      </trkpt>
      <trkpt lat="44.07498" lon="6.85864">
        <ele>773</ele>
        <time>2020-06-05T12:27:10.000Z</time>
      </trkpt>
      <trkpt lat="44.075" lon="6.85864">
        <ele>773</ele>
        <time>2020-06-05T12:27:11.000Z</time>
      </trkpt>
      <trkpt lat="44.07501" lon="6.85864">
        <ele>773</ele>
        <time>2020-06-05T12:27:12.000Z</time>
      </trkpt>
      <trkpt lat="44.07502" lon="6.85864">
        <ele>773</ele>
        <time>2020-06-05T12:27:13.000Z</time>
      </trkpt>
      <trkpt lat="44.07503" lon="6.85864">
        <ele>773</ele>
        <time>2020-06-05T12:27:14.000Z</time>
      </trkpt>
      <trkpt lat="44.07504" lon="6.85864">
        <ele>773</ele>
        <time>2020-06-05T12:27:15.000Z</time>
      </trkpt>
      <trkpt lat="44.07505" lon="6.85864">
        <ele>773</ele>
        <time>2020-06-05T12:27:16.000Z</time>
      </trkpt>
      <trkpt lat="44.07507" lon="6.85864">
        <ele>773</ele>
        <time>2020-06-05T12:27:17.000Z</time>
      </trkpt>
      <trkpt lat="44.07508" lon="6.85864">
        <ele>773</ele>
        <time>2020-06-05T12:27:18.000Z</time>
      </trkpt>
      <trkpt lat="44.07509" lon="6.85864">
        <ele>773</ele>
        <time>2020-06-05T12:27:19.000Z</time>
      </trkpt>
      <trkpt lat="44.0751" lon="6.85864">
        <ele>773</ele>
        <time>2020-06-05T12:27:20.000Z</time>
      </trkpt>
      <trkpt lat="44.07511" lon="6.85864">
        <ele>773</ele>
        <time>2020-06-05T12:27:21.000Z</time>
      </trkpt>
      <trkpt lat="44.07512" lon="6.85863">
        <ele>773</ele>
        <time>2020-06-05T12:27:22.000Z</time>
      </trkpt>
      <trkpt lat="44.07513" lon="6.85863">
        <ele>773</ele>
        <time>2020-06-05T12:27:23.000Z</time>
      </trkpt>
      <trkpt lat="44.07514" lon="6.85863">
        <ele>773</ele>
        <time>2020-06-05T12:27:24.000Z</time>
      </trkpt>
      <trkpt lat="44.07516" lon="6.85863">
        <ele>773</ele>
        <time>2020-06-05T12:27:25.000Z</time>
      </trkpt>
      <trkpt lat="44.07516" lon="6.85863">
        <ele>773</ele>
        <time>2020-06-05T12:27:26.000Z</time>
      </trkpt>
      <trkpt lat="44.07517" lon="6.85862">
        <ele>773</ele>
        <time>2020-06-05T12:27:27.000Z</time>
      </trkpt>
      <trkpt lat="44.07518" lon="6.85862">
        <ele>773</ele>
        <time>2020-06-05T12:27:28.000Z</time>
      </trkpt>
      <trkpt lat="44.0752" lon="6.85862">
        <ele>773</ele>
        <time>2020-06-05T12:27:29.000Z</time>
      </trkpt>
      <trkpt lat="44.07521" lon="6.85861">
        <ele>774</ele>
        <time>2020-06-05T12:27:30.000Z</time>
      </trkpt>
      <trkpt lat="44.07522" lon="6.85861">
        <ele>774</ele>
        <time>2020-06-05T12:27:31.000Z</time>
      </trkpt>
      <trkpt lat="44.07523" lon="6.85861">
        <ele>774</ele>
        <time>2020-06-05T12:27:32.000Z</time>
      </trkpt>
      <trkpt lat="44.07524" lon="6.85861">
        <ele>774</ele>
        <time>2020-06-05T12:27:33.000Z</time>
      </trkpt>
      <trkpt lat="44.07525" lon="6.8586">
        <ele>774</ele>
        <time>2020-06-05T12:27:34.000Z</time>
      </trkpt>
      <trkpt lat="44.07526" lon="6.85859">
        <ele>774</ele>
        <time>2020-06-05T12:27:35.000Z</time>
      </trkpt>
      <trkpt lat="44.07527" lon="6.85858">
        <ele>774</ele>
        <time>2020-06-05T12:27:36.000Z</time>
      </trkpt>
      <trkpt lat="44.07528" lon="6.85858">
        <ele>774</ele>
        <time>2020-06-05T12:27:37.000Z</time>
      </trkpt>
      <trkpt lat="44.07529" lon="6.85857">
        <ele>775</ele>
        <time>2020-06-05T12:27:38.000Z</time>
      </trkpt>
      <trkpt lat="44.0753" lon="6.85857">
        <ele>775</ele>
        <time>2020-06-05T12:27:39.000Z</time>
      </trkpt>
      <trkpt lat="44.07531" lon="6.85857">
        <ele>775</ele>
        <time>2020-06-05T12:27:40.000Z</time>
      </trkpt>
      <trkpt lat="44.07532" lon="6.85856">
        <ele>775</ele>
        <time>2020-06-05T12:27:41.000Z</time>
      </trkpt>
      <trkpt lat="44.07532" lon="6.85857">
        <ele>775</ele>
        <time>2020-06-05T12:27:42.000Z</time>
      </trkpt>
      <trkpt lat="44.07532" lon="6.85856">
        <ele>775</ele>
        <time>2020-06-05T12:27:43.000Z</time>
      </trkpt>
      <trkpt lat="44.07532" lon="6.85856">
        <ele>776</ele>
        <time>2020-06-05T12:27:44.000Z</time>
      </trkpt>
      <trkpt lat="44.07531" lon="6.85856">
        <ele>776</ele>
        <time>2020-06-05T12:27:45.000Z</time>
      </trkpt>
      <trkpt lat="44.07531" lon="6.85856">
        <ele>776</ele>
        <time>2020-06-05T12:27:46.000Z</time>
      </trkpt>
      <trkpt lat="44.07531" lon="6.85856">
        <ele>776</ele>
        <time>2020-06-05T12:27:47.000Z</time>
      </trkpt>
      <trkpt lat="44.07531" lon="6.85855">
        <ele>776</ele>
        <time>2020-06-05T12:27:48.000Z</time>
      </trkpt>
      <trkpt lat="44.07531" lon="6.85856">
        <ele>776</ele>
        <time>2020-06-05T12:27:49.000Z</time>
      </trkpt>
      <trkpt lat="44.07531" lon="6.85855">
        <ele>777</ele>
        <time>2020-06-05T12:27:50.000Z</time>
      </trkpt>
      <trkpt lat="44.07531" lon="6.85855">
        <ele>777</ele>
        <time>2020-06-05T12:27:51.000Z</time>
      </trkpt>
      <trkpt lat="44.0753" lon="6.85855">
        <ele>777</ele>
        <time>2020-06-05T12:27:52.000Z</time>
      </trkpt>
      <trkpt lat="44.0753" lon="6.85855">
        <ele>777</ele>
        <time>2020-06-05T12:27:53.000Z</time>
      </trkpt>
      <trkpt lat="44.0753" lon="6.85855">
        <ele>777</ele>
        <time>2020-06-05T12:27:54.000Z</time>
      </trkpt>
      <trkpt lat="44.0753" lon="6.85854">
        <ele>778</ele>
        <time>2020-06-05T12:27:55.000Z</time>
      </trkpt>
      <trkpt lat="44.0753" lon="6.85854">
        <ele>778</ele>
        <time>2020-06-05T12:27:56.000Z</time>
      </trkpt>
      <trkpt lat="44.0753" lon="6.85854">
        <ele>778</ele>
        <time>2020-06-05T12:27:57.000Z</time>
      </trkpt>
      <trkpt lat="44.0753" lon="6.85853">
        <ele>778</ele>
        <time>2020-06-05T12:27:58.000Z</time>
      </trkpt>
      <trkpt lat="44.07529" lon="6.85853">
        <ele>779</ele>
        <time>2020-06-05T12:27:59.000Z</time>
      </trkpt>
      <trkpt lat="44.07529" lon="6.85853">
        <ele>779</ele>
        <time>2020-06-05T12:28:00.000Z</time>
      </trkpt>
      <trkpt lat="44.07529" lon="6.85852">
        <ele>779</ele>
        <time>2020-06-05T12:28:01.000Z</time>
      </trkpt>
      <trkpt lat="44.07529" lon="6.85852">
        <ele>780</ele>
        <time>2020-06-05T12:28:02.000Z</time>
      </trkpt>
      <trkpt lat="44.07529" lon="6.85852">
        <ele>780</ele>
        <time>2020-06-05T12:28:03.000Z</time>
      </trkpt>
      <trkpt lat="44.07529" lon="6.85851">
        <ele>780</ele>
        <time>2020-06-05T12:28:04.000Z</time>
      </trkpt>
      <trkpt lat="44.07528" lon="6.85851">
        <ele>780</ele>
        <time>2020-06-05T12:28:05.000Z</time>
      </trkpt>
      <trkpt lat="44.07528" lon="6.85851">
        <ele>781</ele>
        <time>2020-06-05T12:28:06.000Z</time>
      </trkpt>
      <trkpt lat="44.07529" lon="6.8585">
        <ele>781</ele>
        <time>2020-06-05T12:28:07.000Z</time>
      </trkpt>
      <trkpt lat="44.07529" lon="6.85849">
        <ele>781</ele>
        <time>2020-06-05T12:28:08.000Z</time>
      </trkpt>
      <trkpt lat="44.0753" lon="6.85848">
        <ele>781</ele>
        <time>2020-06-05T12:28:09.000Z</time>
      </trkpt>
      <trkpt lat="44.0753" lon="6.85847">
        <ele>782</ele>
        <time>2020-06-05T12:28:10.000Z</time>
      </trkpt>
      <trkpt lat="44.07531" lon="6.85846">
        <ele>782</ele>
        <time>2020-06-05T12:28:11.000Z</time>
      </trkpt>
      <trkpt lat="44.07532" lon="6.85845">
        <ele>782</ele>
        <time>2020-06-05T12:28:12.000Z</time>
      </trkpt>
      <trkpt lat="44.07533" lon="6.85844">
        <ele>782</ele>
        <time>2020-06-05T12:28:13.000Z</time>
      </trkpt>
      <trkpt lat="44.07534" lon="6.85843">
        <ele>782</ele>
        <time>2020-06-05T12:28:14.000Z</time>
      </trkpt>
      <trkpt lat="44.07535" lon="6.85842">
        <ele>782</ele>
        <time>2020-06-05T12:28:15.000Z</time>
      </trkpt>
      <trkpt lat="44.07536" lon="6.85841">
        <ele>782</ele>
        <time>2020-06-05T12:28:16.000Z</time>
      </trkpt>
      <trkpt lat="44.07537" lon="6.8584">
        <ele>782</ele>
        <time>2020-06-05T12:28:17.000Z</time>
      </trkpt>
      <trkpt lat="44.07538" lon="6.85839">
        <ele>783</ele>
        <time>2020-06-05T12:28:18.000Z</time>
      </trkpt>
      <trkpt lat="44.0754" lon="6.85838">
        <ele>783</ele>
        <time>2020-06-05T12:28:19.000Z</time>
      </trkpt>
      <trkpt lat="44.0754" lon="6.85837">
        <ele>783</ele>
        <time>2020-06-05T12:28:20.000Z</time>
      </trkpt>
      <trkpt lat="44.07541" lon="6.85836">
        <ele>783</ele>
        <time>2020-06-05T12:28:21.000Z</time>
      </trkpt>
      <trkpt lat="44.07542" lon="6.85834">
        <ele>783</ele>
        <time>2020-06-05T12:28:22.000Z</time>
      </trkpt>
      <trkpt lat="44.07542" lon="6.85833">
        <ele>783</ele>
        <time>2020-06-05T12:28:23.000Z</time>
      </trkpt>
      <trkpt lat="44.07543" lon="6.85831">
        <ele>783</ele>
        <time>2020-06-05T12:28:24.000Z</time>
      </trkpt>
      <trkpt lat="44.07544" lon="6.8583">
        <ele>783</ele>
        <time>2020-06-05T12:28:25.000Z</time>
      </trkpt>
      <trkpt lat="44.07544" lon="6.85828">
        <ele>784</ele>
        <time>2020-06-05T12:28:26.000Z</time>
      </trkpt>
      <trkpt lat="44.07545" lon="6.85827">
        <ele>784</ele>
        <time>2020-06-05T12:28:27.000Z</time>
      </trkpt>
      <trkpt lat="44.07546" lon="6.85826">
        <ele>784</ele>
        <time>2020-06-05T12:28:28.000Z</time>
      </trkpt>
      <trkpt lat="44.07547" lon="6.85825">
        <ele>784</ele>
        <time>2020-06-05T12:28:29.000Z</time>
      </trkpt>
      <trkpt lat="44.07548" lon="6.85823">
        <ele>784</ele>
        <time>2020-06-05T12:28:30.000Z</time>
      </trkpt>
      <trkpt lat="44.07549" lon="6.85822">
        <ele>784</ele>
        <time>2020-06-05T12:28:31.000Z</time>
      </trkpt>
      <trkpt lat="44.0755" lon="6.85821">
        <ele>784</ele>
        <time>2020-06-05T12:28:32.000Z</time>
      </trkpt>
      <trkpt lat="44.0755" lon="6.85821">
        <ele>784</ele>
        <time>2020-06-05T12:28:33.000Z</time>
      </trkpt>
      <trkpt lat="44.07552" lon="6.8582">
        <ele>783</ele>
        <time>2020-06-05T12:28:34.000Z</time>
      </trkpt>
      <trkpt lat="44.07553" lon="6.85819">
        <ele>783</ele>
        <time>2020-06-05T12:28:35.000Z</time>
      </trkpt>
      <trkpt lat="44.07554" lon="6.85819">
        <ele>783</ele>
        <time>2020-06-05T12:28:36.000Z</time>
      </trkpt>
      <trkpt lat="44.07555" lon="6.85818">
        <ele>783</ele>
        <time>2020-06-05T12:28:37.000Z</time>
      </trkpt>
      <trkpt lat="44.07556" lon="6.85817">
        <ele>783</ele>
        <time>2020-06-05T12:28:38.000Z</time>
      </trkpt>
      <trkpt lat="44.07557" lon="6.85817">
        <ele>782</ele>
        <time>2020-06-05T12:28:39.000Z</time>
      </trkpt>
      <trkpt lat="44.07559" lon="6.85816">
        <ele>782</ele>
        <time>2020-06-05T12:28:40.000Z</time>
      </trkpt>
      <trkpt lat="44.0756" lon="6.85816">
        <ele>782</ele>
        <time>2020-06-05T12:28:41.000Z</time>
      </trkpt>
      <trkpt lat="44.07561" lon="6.85815">
        <ele>781</ele>
        <time>2020-06-05T12:28:42.000Z</time>
      </trkpt>
      <trkpt lat="44.07562" lon="6.85815">
        <ele>781</ele>
        <time>2020-06-05T12:28:43.000Z</time>
      </trkpt>
      <trkpt lat="44.07564" lon="6.85815">
        <ele>780</ele>
        <time>2020-06-05T12:28:44.000Z</time>
      </trkpt>
      <trkpt lat="44.07565" lon="6.85815">
        <ele>780</ele>
        <time>2020-06-05T12:28:45.000Z</time>
      </trkpt>
      <trkpt lat="44.07566" lon="6.85814">
        <ele>779</ele>
        <time>2020-06-05T12:28:46.000Z</time>
      </trkpt>
      <trkpt lat="44.07567" lon="6.85814">
        <ele>779</ele>
        <time>2020-06-05T12:28:47.000Z</time>
      </trkpt>
      <trkpt lat="44.07569" lon="6.85814">
        <ele>778</ele>
        <time>2020-06-05T12:28:48.000Z</time>
      </trkpt>
      <trkpt lat="44.0757" lon="6.85813">
        <ele>778</ele>
        <time>2020-06-05T12:28:49.000Z</time>
      </trkpt>
      <trkpt lat="44.07571" lon="6.85813">
        <ele>777</ele>
        <time>2020-06-05T12:28:50.000Z</time>
      </trkpt>
      <trkpt lat="44.07572" lon="6.85812">
        <ele>777</ele>
        <time>2020-06-05T12:28:51.000Z</time>
      </trkpt>
      <trkpt lat="44.07573" lon="6.85811">
        <ele>777</ele>
        <time>2020-06-05T12:28:52.000Z</time>
      </trkpt>
      <trkpt lat="44.07574" lon="6.85811">
        <ele>777</ele>
        <time>2020-06-05T12:28:53.000Z</time>
      </trkpt>
      <trkpt lat="44.07575" lon="6.8581">
        <ele>776</ele>
        <time>2020-06-05T12:28:54.000Z</time>
      </trkpt>
      <trkpt lat="44.07576" lon="6.85809">
        <ele>776</ele>
        <time>2020-06-05T12:28:55.000Z</time>
      </trkpt>
      <trkpt lat="44.07576" lon="6.85808">
        <ele>776</ele>
        <time>2020-06-05T12:28:56.000Z</time>
      </trkpt>
      <trkpt lat="44.07577" lon="6.85807">
        <ele>776</ele>
        <time>2020-06-05T12:28:57.000Z</time>
      </trkpt>
      <trkpt lat="44.07578" lon="6.85806">
        <ele>776</ele>
        <time>2020-06-05T12:28:58.000Z</time>
      </trkpt>
      <trkpt lat="44.07578" lon="6.85805">
        <ele>775</ele>
        <time>2020-06-05T12:28:59.000Z</time>
      </trkpt>
      <trkpt lat="44.07579" lon="6.85804">
        <ele>775</ele>
        <time>2020-06-05T12:29:00.000Z</time>
      </trkpt>
      <trkpt lat="44.0758" lon="6.85802">
        <ele>775</ele>
        <time>2020-06-05T12:29:01.000Z</time>
      </trkpt>
      <trkpt lat="44.0758" lon="6.85801">
        <ele>775</ele>
        <time>2020-06-05T12:29:02.000Z</time>
      </trkpt>
      <trkpt lat="44.07581" lon="6.858">
        <ele>775</ele>
        <time>2020-06-05T12:29:03.000Z</time>
      </trkpt>
      <trkpt lat="44.07582" lon="6.858">
        <ele>775</ele>
        <time>2020-06-05T12:29:04.000Z</time>
      </trkpt>
      <trkpt lat="44.07582" lon="6.85799">
        <ele>775</ele>
        <time>2020-06-05T12:29:05.000Z</time>
      </trkpt>
      <trkpt lat="44.07583" lon="6.85799">
        <ele>775</ele>
        <time>2020-06-05T12:29:06.000Z</time>
      </trkpt>
      <trkpt lat="44.07583" lon="6.85798">
        <ele>775</ele>
        <time>2020-06-05T12:29:07.000Z</time>
      </trkpt>
      <trkpt lat="44.07584" lon="6.85798">
        <ele>775</ele>
        <time>2020-06-05T12:29:08.000Z</time>
      </trkpt>
      <trkpt lat="44.07585" lon="6.85797">
        <ele>774</ele>
        <time>2020-06-05T12:29:09.000Z</time>
      </trkpt>
      <trkpt lat="44.07587" lon="6.85797">
        <ele>774</ele>
        <time>2020-06-05T12:29:10.000Z</time>
      </trkpt>
      <trkpt lat="44.07588" lon="6.85797">
        <ele>774</ele>
        <time>2020-06-05T12:29:11.000Z</time>
      </trkpt>
      <trkpt lat="44.07589" lon="6.85797">
        <ele>774</ele>
        <time>2020-06-05T12:29:12.000Z</time>
      </trkpt>
      <trkpt lat="44.0759" lon="6.85796">
        <ele>774</ele>
        <time>2020-06-05T12:29:13.000Z</time>
      </trkpt>
      <trkpt lat="44.07591" lon="6.85796">
        <ele>774</ele>
        <time>2020-06-05T12:29:14.000Z</time>
      </trkpt>
      <trkpt lat="44.07592" lon="6.85796">
        <ele>774</ele>
        <time>2020-06-05T12:29:15.000Z</time>
      </trkpt>
      <trkpt lat="44.07593" lon="6.85795">
        <ele>774</ele>
        <time>2020-06-05T12:29:16.000Z</time>
      </trkpt>
      <trkpt lat="44.07595" lon="6.85795">
        <ele>774</ele>
        <time>2020-06-05T12:29:17.000Z</time>
      </trkpt>
      <trkpt lat="44.07596" lon="6.85795">
        <ele>774</ele>
        <time>2020-06-05T12:29:18.000Z</time>
      </trkpt>
      <trkpt lat="44.07597" lon="6.85794">
        <ele>774</ele>
        <time>2020-06-05T12:29:19.000Z</time>
      </trkpt>
      <trkpt lat="44.07598" lon="6.85794">
        <ele>773</ele>
        <time>2020-06-05T12:29:20.000Z</time>
      </trkpt>
      <trkpt lat="44.07599" lon="6.85794">
        <ele>773</ele>
        <time>2020-06-05T12:29:21.000Z</time>
      </trkpt>
      <trkpt lat="44.07601" lon="6.85793">
        <ele>773</ele>
        <time>2020-06-05T12:29:22.000Z</time>
      </trkpt>
      <trkpt lat="44.07602" lon="6.85793">
        <ele>773</ele>
        <time>2020-06-05T12:29:23.000Z</time>
      </trkpt>
      <trkpt lat="44.07603" lon="6.85792">
        <ele>773</ele>
        <time>2020-06-05T12:29:24.000Z</time>
      </trkpt>
      <trkpt lat="44.07604" lon="6.85792">
        <ele>773</ele>
        <time>2020-06-05T12:29:25.000Z</time>
      </trkpt>
      <trkpt lat="44.07605" lon="6.85791">
        <ele>773</ele>
        <time>2020-06-05T12:29:26.000Z</time>
      </trkpt>
      <trkpt lat="44.07606" lon="6.85791">
        <ele>773</ele>
        <time>2020-06-05T12:29:27.000Z</time>
      </trkpt>
      <trkpt lat="44.07607" lon="6.8579">
        <ele>773</ele>
        <time>2020-06-05T12:29:28.000Z</time>
      </trkpt>
      <trkpt lat="44.07608" lon="6.85789">
        <ele>773</ele>
        <time>2020-06-05T12:29:29.000Z</time>
      </trkpt>
      <trkpt lat="44.07609" lon="6.85789">
        <ele>773</ele>
        <time>2020-06-05T12:29:30.000Z</time>
      </trkpt>
      <trkpt lat="44.0761" lon="6.85788">
        <ele>773</ele>
        <time>2020-06-05T12:29:31.000Z</time>
      </trkpt>
      <trkpt lat="44.07611" lon="6.85787">
        <ele>772</ele>
        <time>2020-06-05T12:29:32.000Z</time>
      </trkpt>
      <trkpt lat="44.07613" lon="6.85787">
        <ele>772</ele>
        <time>2020-06-05T12:29:33.000Z</time>
      </trkpt>
      <trkpt lat="44.07614" lon="6.85786">
        <ele>772</ele>
        <time>2020-06-05T12:29:34.000Z</time>
      </trkpt>
      <trkpt lat="44.07615" lon="6.85786">
        <ele>772</ele>
        <time>2020-06-05T12:29:35.000Z</time>
      </trkpt>
      <trkpt lat="44.07616" lon="6.85785">
        <ele>772</ele>
        <time>2020-06-05T12:29:36.000Z</time>
      </trkpt>
      <trkpt lat="44.07617" lon="6.85784">
        <ele>772</ele>
        <time>2020-06-05T12:29:37.000Z</time>
      </trkpt>
      <trkpt lat="44.07618" lon="6.85784">
        <ele>772</ele>
        <time>2020-06-05T12:29:38.000Z</time>
      </trkpt>
      <trkpt lat="44.07619" lon="6.85783">
        <ele>772</ele>
        <time>2020-06-05T12:29:39.000Z</time>
      </trkpt>
      <trkpt lat="44.07621" lon="6.85783">
        <ele>772</ele>
        <time>2020-06-05T12:29:40.000Z</time>
      </trkpt>
      <trkpt lat="44.07622" lon="6.85782">
        <ele>772</ele>
        <time>2020-06-05T12:29:41.000Z</time>
      </trkpt>
      <trkpt lat="44.07623" lon="6.85782">
        <ele>772</ele>
        <time>2020-06-05T12:29:42.000Z</time>
      </trkpt>
      <trkpt lat="44.07624" lon="6.85781">
        <ele>772</ele>
        <time>2020-06-05T12:29:43.000Z</time>
      </trkpt>
      <trkpt lat="44.07625" lon="6.85781">
        <ele>772</ele>
        <time>2020-06-05T12:29:44.000Z</time>
      </trkpt>
      <trkpt lat="44.07626" lon="6.85781">
        <ele>772</ele>
        <time>2020-06-05T12:29:45.000Z</time>
      </trkpt>
      <trkpt lat="44.07627" lon="6.8578">
        <ele>772</ele>
        <time>2020-06-05T12:29:46.000Z</time>
      </trkpt>
      <trkpt lat="44.07628" lon="6.8578">
        <ele>771</ele>
        <time>2020-06-05T12:29:47.000Z</time>
      </trkpt>
      <trkpt lat="44.07629" lon="6.85779">
        <ele>771</ele>
        <time>2020-06-05T12:29:48.000Z</time>
      </trkpt>
      <trkpt lat="44.0763" lon="6.85779">
        <ele>771</ele>
        <time>2020-06-05T12:29:49.000Z</time>
      </trkpt>
      <trkpt lat="44.07631" lon="6.85779">
        <ele>771</ele>
        <time>2020-06-05T12:29:50.000Z</time>
      </trkpt>
      <trkpt lat="44.07632" lon="6.85779">
        <ele>771</ele>
        <time>2020-06-05T12:29:51.000Z</time>
      </trkpt>
      <trkpt lat="44.07633" lon="6.8578">
        <ele>771</ele>
        <time>2020-06-05T12:29:52.000Z</time>
      </trkpt>
      <trkpt lat="44.07633" lon="6.8578">
        <ele>771</ele>
        <time>2020-06-05T12:29:53.000Z</time>
      </trkpt>
      <trkpt lat="44.07633" lon="6.8578">
        <ele>771</ele>
        <time>2020-06-05T12:29:54.000Z</time>
      </trkpt>
      <trkpt lat="44.07633" lon="6.8578">
        <ele>771</ele>
        <time>2020-06-05T12:29:55.000Z</time>
      </trkpt>
      <trkpt lat="44.07633" lon="6.8578">
        <ele>771</ele>
        <time>2020-06-05T12:29:56.000Z</time>
      </trkpt>
      <trkpt lat="44.07633" lon="6.8578">
        <ele>771</ele>
        <time>2020-06-05T12:29:57.000Z</time>
      </trkpt>
      <trkpt lat="44.07633" lon="6.8578">
        <ele>771</ele>
        <time>2020-06-05T12:29:58.000Z</time>
      </trkpt>
    </trkseg>
  </trk>
</gpx>